<?xml version='1.0' encoding='UTF-8'?><gpx version="1.1" creator="JPX - https://github.com/jenetics/jpx" xmlns="http://www.topografix.com/GPX/1/1"><trk><trkseg><trkpt lat="44.756427" lon="9.3825758"><ele>265.0</ele><time>2026-04-04T07:23:40.64Z</time></trkpt><trkpt lat="44.756485" lon="9.38269"><ele>265.0</ele><time>2026-04-04T07:23:45.601Z</time></trkpt><trkpt lat="44.75657" lon="9.3827283"><ele>265.0</ele><time>2026-04-04T07:23:48.601Z</time></trkpt><trkpt lat="44.75664" lon="9.3827033"><ele>265.0</ele><time>2026-04-04T07:23:51.601Z</time></trkpt><trkpt lat="44.7566433" lon="9.382595"><ele>265.0</ele><time>2026-04-04T07:23:55.604Z</time></trkpt><trkpt lat="44.75658" lon="9.3826067"><ele>265.0</ele><time>2026-04-04T07:23:59.601Z</time></trkpt><trkpt lat="44.7566117" lon="9.38271"><ele>264.99999999999994</ele><time>2026-04-04T07:24:02.602Z</time></trkpt><trkpt lat="44.7566267" lon="9.38262"><ele>265.0</ele><time>2026-04-04T07:24:09.601Z</time></trkpt><trkpt lat="44.7566417" lon="9.3825283"><ele>265.0</ele><time>2026-04-04T07:24:12.6Z</time></trkpt><trkpt lat="44.75656" lon="9.38256"><ele>265.0</ele><time>2026-04-04T07:24:16.601Z</time></trkpt><trkpt lat="44.7565667" lon="9.3826717"><ele>265.0</ele><time>2026-04-04T07:24:19.602Z</time></trkpt><trkpt lat="44.7566283" lon="9.3826417"><ele>264.99999999999994</ele><time>2026-04-04T07:24:22.602Z</time></trkpt><trkpt lat="44.756615" lon="9.3825533"><ele>265.0</ele><time>2026-04-04T07:24:24.601Z</time></trkpt><trkpt lat="44.7565483" lon="9.3825033"><ele>265.0</ele><time>2026-04-04T07:24:27.6Z</time></trkpt><trkpt lat="44.756485" lon="9.3824617"><ele>265.0</ele><time>2026-04-04T07:24:30.6Z</time></trkpt><trkpt lat="44.7564217" lon="9.38248"><ele>265.0</ele><time>2026-04-04T07:24:35.601Z</time></trkpt><trkpt lat="44.7564033" lon="9.3825817"><ele>265.0</ele><time>2026-04-04T07:30:40.6Z</time></trkpt><trkpt lat="44.7564417" lon="9.382695"><ele>265.0</ele><time>2026-04-04T07:30:43.601Z</time></trkpt><trkpt lat="44.7565217" lon="9.3827667"><ele>265.0</ele><time>2026-04-04T07:30:45.601Z</time></trkpt><trkpt lat="44.7566217" lon="9.38283"><ele>265.0</ele><time>2026-04-04T07:30:47.601Z</time></trkpt><trkpt lat="44.7567267" lon="9.3828767"><ele>265.0</ele><time>2026-04-04T07:30:49.6Z</time></trkpt><trkpt lat="44.7568317" lon="9.3829083"><ele>265.0</ele><time>2026-04-04T07:30:51.601Z</time></trkpt><trkpt lat="44.75694" lon="9.3829467"><ele>265.0</ele><time>2026-04-04T07:30:53.602Z</time></trkpt><trkpt lat="44.7570583" lon="9.38297"><ele>265.0</ele><time>2026-04-04T07:30:55.6Z</time></trkpt><trkpt lat="44.7571383" lon="9.3829933"><ele>264.8333333333333</ele><time>2026-04-04T07:30:56.602Z</time></trkpt><trkpt lat="44.7572217" lon="9.38301"><ele>264.66666666666663</ele><time>2026-04-04T07:30:57.601Z</time></trkpt><trkpt lat="44.7572967" lon="9.38303"><ele>264.5</ele><time>2026-04-04T07:30:58.601Z</time></trkpt><trkpt lat="44.7573767" lon="9.3830617"><ele>264.3333333333333</ele><time>2026-04-04T07:30:59.601Z</time></trkpt><trkpt lat="44.75746" lon="9.3830983"><ele>264.1666666666667</ele><time>2026-04-04T07:31:00.6Z</time></trkpt><trkpt lat="44.7575533" lon="9.3831417"><ele>264.0</ele><time>2026-04-04T07:31:01.601Z</time></trkpt><trkpt lat="44.7576567" lon="9.3831833"><ele>263.25</ele><time>2026-04-04T07:31:02.602Z</time></trkpt><trkpt lat="44.7577633" lon="9.3832217"><ele>262.5</ele><time>2026-04-04T07:31:03.6Z</time></trkpt><trkpt lat="44.7578733" lon="9.3832617"><ele>261.75</ele><time>2026-04-04T07:31:04.601Z</time></trkpt><trkpt lat="44.75799" lon="9.3833017"><ele>261.0</ele><time>2026-04-04T07:31:05.601Z</time></trkpt><trkpt lat="44.7581067" lon="9.3833483"><ele>261.0</ele><time>2026-04-04T07:31:06.602Z</time></trkpt><trkpt lat="44.75822" lon="9.3833983"><ele>261.0</ele><time>2026-04-04T07:31:07.602Z</time></trkpt><trkpt lat="44.7583233" lon="9.3834417"><ele>261.0</ele><time>2026-04-04T07:31:08.602Z</time></trkpt><trkpt lat="44.7584217" lon="9.383485"><ele>261.0</ele><time>2026-04-04T07:31:09.601Z</time></trkpt><trkpt lat="44.7585233" lon="9.3835267"><ele>261.0</ele><time>2026-04-04T07:31:10.6Z</time></trkpt><trkpt lat="44.7586267" lon="9.3835633"><ele>261.0</ele><time>2026-04-04T07:31:11.6Z</time></trkpt><trkpt lat="44.75872" lon="9.383595"><ele>261.0</ele><time>2026-04-04T07:31:12.602Z</time></trkpt><trkpt lat="44.7588067" lon="9.3836067"><ele>261.0</ele><time>2026-04-04T07:31:13.601Z</time></trkpt><trkpt lat="44.75888" lon="9.38359"><ele>261.0</ele><time>2026-04-04T07:31:14.601Z</time></trkpt><trkpt lat="44.7589567" lon="9.3834833"><ele>261.0</ele><time>2026-04-04T07:31:16.6Z</time></trkpt><trkpt lat="44.7589617" lon="9.38336"><ele>261.0</ele><time>2026-04-04T07:31:18.6Z</time></trkpt><trkpt lat="44.758995" lon="9.383275"><ele>261.0</ele><time>2026-04-04T07:31:21.601Z</time></trkpt><trkpt lat="44.7589483" lon="9.3832"><ele>261.0</ele><time>2026-04-04T07:31:25.6Z</time></trkpt><trkpt lat="44.7588917" lon="9.3832817"><ele>261.0</ele><time>2026-04-04T07:31:28.601Z</time></trkpt><trkpt lat="44.7588867" lon="9.3833917"><ele>261.0</ele><time>2026-04-04T07:31:30.601Z</time></trkpt><trkpt lat="44.75885" lon="9.3834867"><ele>261.0</ele><time>2026-04-04T07:31:32.601Z</time></trkpt><trkpt lat="44.7587767" lon="9.3835567"><ele>261.0</ele><time>2026-04-04T07:31:35.601Z</time></trkpt><trkpt lat="44.758805" lon="9.38364"><ele>261.0</ele><time>2026-04-04T07:31:39.601Z</time></trkpt><trkpt lat="44.7588817" lon="9.3835967"><ele>261.0</ele><time>2026-04-04T07:31:42.601Z</time></trkpt><trkpt lat="44.758925" lon="9.3834933"><ele>261.0</ele><time>2026-04-04T07:31:45.6Z</time></trkpt><trkpt lat="44.7589267" lon="9.3833667"><ele>261.0</ele><time>2026-04-04T07:31:48.601Z</time></trkpt><trkpt lat="44.7589083" lon="9.3832817"><ele>261.0</ele><time>2026-04-04T07:31:50.601Z</time></trkpt><trkpt lat="44.7589733" lon="9.38328"><ele>261.0</ele><time>2026-04-04T07:32:13.6Z</time></trkpt><trkpt lat="44.7589117" lon="9.3833083"><ele>261.0</ele><time>2026-04-04T07:32:31.603Z</time></trkpt><trkpt lat="44.7588733" lon="9.38339"><ele>261.0</ele><time>2026-04-04T07:32:34.601Z</time></trkpt><trkpt lat="44.7589283" lon="9.3834417"><ele>261.0</ele><time>2026-04-04T07:32:38.603Z</time></trkpt><trkpt lat="44.758965" lon="9.383365"><ele>261.0</ele><time>2026-04-04T07:32:41.601Z</time></trkpt><trkpt lat="44.75894" lon="9.3832583"><ele>261.0</ele><time>2026-04-04T07:32:46.6Z</time></trkpt><trkpt lat="44.758895" lon="9.3831583"><ele>261.0</ele><time>2026-04-04T07:32:49.601Z</time></trkpt><trkpt lat="44.7588533" lon="9.3830133"><ele>261.1666666666667</ele><time>2026-04-04T07:32:51.6Z</time></trkpt><trkpt lat="44.7588467" lon="9.3829233"><ele>261.3333333333333</ele><time>2026-04-04T07:32:52.602Z</time></trkpt><trkpt lat="44.758835" lon="9.3828167"><ele>261.5</ele><time>2026-04-04T07:32:53.603Z</time></trkpt><trkpt lat="44.7588217" lon="9.3826967"><ele>261.66666666666663</ele><time>2026-04-04T07:32:54.601Z</time></trkpt><trkpt lat="44.7588117" lon="9.3825783"><ele>261.8333333333333</ele><time>2026-04-04T07:32:55.601Z</time></trkpt><trkpt lat="44.75881" lon="9.3824633"><ele>262.0</ele><time>2026-04-04T07:32:56.6Z</time></trkpt><trkpt lat="44.7588183" lon="9.3823417"><ele>262.0</ele><time>2026-04-04T07:32:57.601Z</time></trkpt><trkpt lat="44.7588433" lon="9.3822117"><ele>262.0</ele><time>2026-04-04T07:32:58.601Z</time></trkpt><trkpt lat="44.7588867" lon="9.3820833"><ele>262.0</ele><time>2026-04-04T07:32:59.6Z</time></trkpt><trkpt lat="44.7589517" lon="9.3819717"><ele>262.0</ele><time>2026-04-04T07:33:00.601Z</time></trkpt><trkpt lat="44.759025" lon="9.38188"><ele>262.0</ele><time>2026-04-04T07:33:01.603Z</time></trkpt><trkpt lat="44.7591133" lon="9.3818017"><ele>262.8</ele><time>2026-04-04T07:33:02.601Z</time></trkpt><trkpt lat="44.7592083" lon="9.381735"><ele>263.6</ele><time>2026-04-04T07:33:03.6Z</time></trkpt><trkpt lat="44.7593033" lon="9.3817017"><ele>264.40000000000003</ele><time>2026-04-04T07:33:04.6Z</time></trkpt><trkpt lat="44.7594" lon="9.381685"><ele>265.2</ele><time>2026-04-04T07:33:05.601Z</time></trkpt><trkpt lat="44.7595" lon="9.3816733"><ele>266.0</ele><time>2026-04-04T07:33:06.601Z</time></trkpt><trkpt lat="44.7595867" lon="9.381655"><ele>266.0</ele><time>2026-04-04T07:33:07.601Z</time></trkpt><trkpt lat="44.7596533" lon="9.3816267"><ele>266.0</ele><time>2026-04-04T07:33:08.601Z</time></trkpt><trkpt lat="44.75971" lon="9.3815267"><ele>266.0</ele><time>2026-04-04T07:33:10.602Z</time></trkpt><trkpt lat="44.7596333" lon="9.3814383"><ele>266.0</ele><time>2026-04-04T07:33:12.601Z</time></trkpt><trkpt lat="44.7595667" lon="9.3814033"><ele>266.0</ele><time>2026-04-04T07:33:13.601Z</time></trkpt><trkpt lat="44.759475" lon="9.381385"><ele>266.0</ele><time>2026-04-04T07:33:14.6Z</time></trkpt><trkpt lat="44.7593683" lon="9.38136"><ele>269.25</ele><time>2026-04-04T07:33:15.6Z</time></trkpt><trkpt lat="44.7592517" lon="9.3813317"><ele>272.5</ele><time>2026-04-04T07:33:16.6Z</time></trkpt><trkpt lat="44.7591317" lon="9.381295"><ele>275.75</ele><time>2026-04-04T07:33:17.599Z</time></trkpt><trkpt lat="44.75901" lon="9.3812583"><ele>279.0</ele><time>2026-04-04T07:33:18.6Z</time></trkpt><trkpt lat="44.75888" lon="9.381215"><ele>279.0</ele><time>2026-04-04T07:33:19.601Z</time></trkpt><trkpt lat="44.7587583" lon="9.3811717"><ele>279.0</ele><time>2026-04-04T07:33:20.6Z</time></trkpt><trkpt lat="44.7586383" lon="9.381135"><ele>279.0</ele><time>2026-04-04T07:33:21.601Z</time></trkpt><trkpt lat="44.7585117" lon="9.3811017"><ele>279.0</ele><time>2026-04-04T07:33:22.6Z</time></trkpt><trkpt lat="44.7583767" lon="9.38107"><ele>278.75</ele><time>2026-04-04T07:33:23.601Z</time></trkpt><trkpt lat="44.75824" lon="9.381025"><ele>278.5</ele><time>2026-04-04T07:33:24.599Z</time></trkpt><trkpt lat="44.7581" lon="9.3809717"><ele>278.25</ele><time>2026-04-04T07:33:25.601Z</time></trkpt><trkpt lat="44.7579583" lon="9.38092"><ele>278.0</ele><time>2026-04-04T07:33:26.601Z</time></trkpt><trkpt lat="44.7578267" lon="9.380885"><ele>278.25</ele><time>2026-04-04T07:33:27.601Z</time></trkpt><trkpt lat="44.7576983" lon="9.3808517"><ele>278.5</ele><time>2026-04-04T07:33:28.603Z</time></trkpt><trkpt lat="44.7575783" lon="9.38082"><ele>278.75</ele><time>2026-04-04T07:33:29.6Z</time></trkpt><trkpt lat="44.7574733" lon="9.3807717"><ele>279.0</ele><time>2026-04-04T07:33:30.601Z</time></trkpt><trkpt lat="44.7573817" lon="9.3807167"><ele>279.0</ele><time>2026-04-04T07:33:31.601Z</time></trkpt><trkpt lat="44.75729" lon="9.3806517"><ele>279.0</ele><time>2026-04-04T07:33:32.601Z</time></trkpt><trkpt lat="44.7572017" lon="9.3805867"><ele>279.0</ele><time>2026-04-04T07:33:33.601Z</time></trkpt><trkpt lat="44.7571133" lon="9.3805233"><ele>279.0</ele><time>2026-04-04T07:33:34.6Z</time></trkpt><trkpt lat="44.7570233" lon="9.3804583"><ele>279.0</ele><time>2026-04-04T07:33:35.601Z</time></trkpt><trkpt lat="44.75692" lon="9.3803917"><ele>280.25</ele><time>2026-04-04T07:33:36.601Z</time></trkpt><trkpt lat="44.7568083" lon="9.38032"><ele>281.5</ele><time>2026-04-04T07:33:37.601Z</time></trkpt><trkpt lat="44.75669" lon="9.3802383"><ele>282.75</ele><time>2026-04-04T07:33:38.601Z</time></trkpt><trkpt lat="44.7565717" lon="9.3801567"><ele>284.0</ele><time>2026-04-04T07:33:39.601Z</time></trkpt><trkpt lat="44.7564633" lon="9.3800783"><ele>284.0</ele><time>2026-04-04T07:33:40.6Z</time></trkpt><trkpt lat="44.7563517" lon="9.3800083"><ele>284.0</ele><time>2026-04-04T07:33:41.601Z</time></trkpt><trkpt lat="44.7562317" lon="9.3799233"><ele>284.0</ele><time>2026-04-04T07:33:42.599Z</time></trkpt><trkpt lat="44.75611" lon="9.379825"><ele>284.0</ele><time>2026-04-04T07:33:43.6Z</time></trkpt><trkpt lat="44.7559933" lon="9.3797"><ele>284.0</ele><time>2026-04-04T07:33:44.6Z</time></trkpt><trkpt lat="44.755885" lon="9.379565"><ele>284.0</ele><time>2026-04-04T07:33:45.6Z</time></trkpt><trkpt lat="44.75579" lon="9.3794217"><ele>284.0</ele><time>2026-04-04T07:33:46.6Z</time></trkpt><trkpt lat="44.7557067" lon="9.3792933"><ele>284.0</ele><time>2026-04-04T07:33:47.601Z</time></trkpt><trkpt lat="44.7556367" lon="9.3791717"><ele>284.0</ele><time>2026-04-04T07:33:48.601Z</time></trkpt><trkpt lat="44.755585" lon="9.3790483"><ele>284.0</ele><time>2026-04-04T07:33:49.6Z</time></trkpt><trkpt lat="44.7555533" lon="9.3789083"><ele>284.0</ele><time>2026-04-04T07:33:50.601Z</time></trkpt><trkpt lat="44.7555333" lon="9.37873"><ele>284.0</ele><time>2026-04-04T07:33:51.601Z</time></trkpt><trkpt lat="44.7555183" lon="9.3785283"><ele>284.6666666666667</ele><time>2026-04-04T07:33:52.601Z</time></trkpt><trkpt lat="44.755495" lon="9.3783117"><ele>285.3333333333333</ele><time>2026-04-04T07:33:53.6Z</time></trkpt><trkpt lat="44.75545" lon="9.3780933"><ele>286.0</ele><time>2026-04-04T07:33:54.601Z</time></trkpt><trkpt lat="44.7553883" lon="9.3778767"><ele>287.0</ele><time>2026-04-04T07:33:55.6Z</time></trkpt><trkpt lat="44.7553333" lon="9.3776717"><ele>288.0</ele><time>2026-04-04T07:33:56.6Z</time></trkpt><trkpt lat="44.7552933" lon="9.3774667"><ele>289.0</ele><time>2026-04-04T07:33:57.6Z</time></trkpt><trkpt lat="44.75527" lon="9.377275"><ele>290.0</ele><time>2026-04-04T07:33:58.601Z</time></trkpt><trkpt lat="44.7552617" lon="9.3771067"><ele>290.33333333333337</ele><time>2026-04-04T07:33:59.6Z</time></trkpt><trkpt lat="44.75527" lon="9.3769667"><ele>290.6666666666667</ele><time>2026-04-04T07:34:00.6Z</time></trkpt><trkpt lat="44.7552817" lon="9.3768483"><ele>291.0</ele><time>2026-04-04T07:34:01.6Z</time></trkpt><trkpt lat="44.7552883" lon="9.37674"><ele>291.3333333333333</ele><time>2026-04-04T07:34:02.602Z</time></trkpt><trkpt lat="44.7552733" lon="9.3766333"><ele>291.66666666666663</ele><time>2026-04-04T07:34:03.601Z</time></trkpt><trkpt lat="44.755235" lon="9.37654"><ele>292.0</ele><time>2026-04-04T07:34:04.603Z</time></trkpt><trkpt lat="44.7551767" lon="9.3764633"><ele>292.0</ele><time>2026-04-04T07:34:05.603Z</time></trkpt><trkpt lat="44.755095" lon="9.376395"><ele>292.0</ele><time>2026-04-04T07:34:06.601Z</time></trkpt><trkpt lat="44.7550067" lon="9.3763117"><ele>292.0</ele><time>2026-04-04T07:34:07.601Z</time></trkpt><trkpt lat="44.7549067" lon="9.37622"><ele>292.0</ele><time>2026-04-04T07:34:08.6Z</time></trkpt><trkpt lat="44.754805" lon="9.3761383"><ele>292.0</ele><time>2026-04-04T07:34:09.601Z</time></trkpt><trkpt lat="44.754705" lon="9.3760583"><ele>292.4</ele><time>2026-04-04T07:34:10.601Z</time></trkpt><trkpt lat="44.75461" lon="9.3759867"><ele>292.79999999999995</ele><time>2026-04-04T07:34:11.6Z</time></trkpt><trkpt lat="44.7545267" lon="9.3759133"><ele>293.2</ele><time>2026-04-04T07:34:12.602Z</time></trkpt><trkpt lat="44.75445" lon="9.3758383"><ele>293.59999999999997</ele><time>2026-04-04T07:34:13.6Z</time></trkpt><trkpt lat="44.754375" lon="9.3757583"><ele>294.0</ele><time>2026-04-04T07:34:14.601Z</time></trkpt><trkpt lat="44.754295" lon="9.37567"><ele>294.0</ele><time>2026-04-04T07:34:15.6Z</time></trkpt><trkpt lat="44.7542117" lon="9.375575"><ele>294.0</ele><time>2026-04-04T07:34:16.601Z</time></trkpt><trkpt lat="44.7541267" lon="9.375475"><ele>294.0</ele><time>2026-04-04T07:34:17.601Z</time></trkpt><trkpt lat="44.75404" lon="9.3753783"><ele>294.0</ele><time>2026-04-04T07:34:18.602Z</time></trkpt><trkpt lat="44.7539533" lon="9.375285"><ele>294.0</ele><time>2026-04-04T07:34:19.6Z</time></trkpt><trkpt lat="44.75386" lon="9.3751933"><ele>294.25</ele><time>2026-04-04T07:34:20.601Z</time></trkpt><trkpt lat="44.7537583" lon="9.3750983"><ele>294.5</ele><time>2026-04-04T07:34:21.6Z</time></trkpt><trkpt lat="44.7536533" lon="9.375005"><ele>294.75</ele><time>2026-04-04T07:34:22.6Z</time></trkpt><trkpt lat="44.75355" lon="9.37491"><ele>295.0</ele><time>2026-04-04T07:34:23.601Z</time></trkpt><trkpt lat="44.753445" lon="9.3748117"><ele>295.0</ele><time>2026-04-04T07:34:24.601Z</time></trkpt><trkpt lat="44.7533417" lon="9.3747"><ele>295.0</ele><time>2026-04-04T07:34:25.599Z</time></trkpt><trkpt lat="44.7532417" lon="9.374585"><ele>295.0</ele><time>2026-04-04T07:34:26.601Z</time></trkpt><trkpt lat="44.75314" lon="9.374455"><ele>295.0</ele><time>2026-04-04T07:34:27.601Z</time></trkpt><trkpt lat="44.75304" lon="9.3743183"><ele>296.5</ele><time>2026-04-04T07:34:28.6Z</time></trkpt><trkpt lat="44.75295" lon="9.374185"><ele>298.0</ele><time>2026-04-04T07:34:29.6Z</time></trkpt><trkpt lat="44.7528733" lon="9.3740583"><ele>299.5</ele><time>2026-04-04T07:34:30.601Z</time></trkpt><trkpt lat="44.7528017" lon="9.3739367"><ele>301.0</ele><time>2026-04-04T07:34:31.6Z</time></trkpt><trkpt lat="44.752735" lon="9.3738167"><ele>301.40000000000003</ele><time>2026-04-04T07:34:32.6Z</time></trkpt><trkpt lat="44.7526733" lon="9.3737083"><ele>301.8</ele><time>2026-04-04T07:34:33.601Z</time></trkpt><trkpt lat="44.7526117" lon="9.3735983"><ele>302.20000000000005</ele><time>2026-04-04T07:34:34.6Z</time></trkpt><trkpt lat="44.7525567" lon="9.3734817"><ele>302.6</ele><time>2026-04-04T07:34:35.6Z</time></trkpt><trkpt lat="44.7525133" lon="9.3733583"><ele>303.0</ele><time>2026-04-04T07:34:36.599Z</time></trkpt><trkpt lat="44.7524767" lon="9.37324"><ele>303.0</ele><time>2026-04-04T07:34:37.602Z</time></trkpt><trkpt lat="44.7524467" lon="9.3731367"><ele>303.0</ele><time>2026-04-04T07:34:38.6Z</time></trkpt><trkpt lat="44.752415" lon="9.37304"><ele>303.0</ele><time>2026-04-04T07:34:39.601Z</time></trkpt><trkpt lat="44.7523883" lon="9.37295"><ele>303.0</ele><time>2026-04-04T07:34:40.601Z</time></trkpt><trkpt lat="44.7523583" lon="9.3728567"><ele>303.0</ele><time>2026-04-04T07:34:41.601Z</time></trkpt><trkpt lat="44.7523267" lon="9.3727517"><ele>303.0</ele><time>2026-04-04T07:34:42.601Z</time></trkpt><trkpt lat="44.7523" lon="9.3726267"><ele>305.5</ele><time>2026-04-04T07:34:43.601Z</time></trkpt><trkpt lat="44.7522683" lon="9.37249"><ele>308.0</ele><time>2026-04-04T07:34:44.601Z</time></trkpt><trkpt lat="44.7522183" lon="9.3723433"><ele>310.5</ele><time>2026-04-04T07:34:45.6Z</time></trkpt><trkpt lat="44.7521617" lon="9.3721933"><ele>313.0</ele><time>2026-04-04T07:34:46.6Z</time></trkpt><trkpt lat="44.752095" lon="9.3720433"><ele>311.8</ele><time>2026-04-04T07:34:47.601Z</time></trkpt><trkpt lat="44.7520217" lon="9.3719117"><ele>310.6</ele><time>2026-04-04T07:34:48.6Z</time></trkpt><trkpt lat="44.7519417" lon="9.3718"><ele>309.4</ele><time>2026-04-04T07:34:49.602Z</time></trkpt><trkpt lat="44.7518817" lon="9.3717"><ele>308.2</ele><time>2026-04-04T07:34:50.601Z</time></trkpt><trkpt lat="44.7518467" lon="9.371585"><ele>307.0</ele><time>2026-04-04T07:34:51.601Z</time></trkpt><trkpt lat="44.7518333" lon="9.371455"><ele>312.25</ele><time>2026-04-04T07:34:52.601Z</time></trkpt><trkpt lat="44.7518283" lon="9.3713083"><ele>317.5</ele><time>2026-04-04T07:34:53.601Z</time></trkpt><trkpt lat="44.75182" lon="9.37115"><ele>322.75</ele><time>2026-04-04T07:34:54.6Z</time></trkpt><trkpt lat="44.7517917" lon="9.37099"><ele>328.0</ele><time>2026-04-04T07:34:55.602Z</time></trkpt><trkpt lat="44.7517533" lon="9.3708317"><ele>328.0</ele><time>2026-04-04T07:34:56.601Z</time></trkpt><trkpt lat="44.7517233" lon="9.3706617"><ele>328.0</ele><time>2026-04-04T07:34:57.601Z</time></trkpt><trkpt lat="44.751705" lon="9.3704767"><ele>328.0</ele><time>2026-04-04T07:34:58.6Z</time></trkpt><trkpt lat="44.7516967" lon="9.37028"><ele>328.0</ele><time>2026-04-04T07:34:59.6Z</time></trkpt><trkpt lat="44.7516817" lon="9.37008"><ele>332.25</ele><time>2026-04-04T07:35:00.604Z</time></trkpt><trkpt lat="44.75167" lon="9.369875"><ele>336.5</ele><time>2026-04-04T07:35:01.606Z</time></trkpt><trkpt lat="44.7516633" lon="9.3696733"><ele>340.75</ele><time>2026-04-04T07:35:02.601Z</time></trkpt><trkpt lat="44.7516567" lon="9.3694867"><ele>345.0</ele><time>2026-04-04T07:35:03.601Z</time></trkpt><trkpt lat="44.7516533" lon="9.369305"><ele>348.25</ele><time>2026-04-04T07:35:04.6Z</time></trkpt><trkpt lat="44.7516567" lon="9.36913"><ele>351.5</ele><time>2026-04-04T07:35:05.601Z</time></trkpt><trkpt lat="44.7516683" lon="9.3689533"><ele>354.75</ele><time>2026-04-04T07:35:06.599Z</time></trkpt><trkpt lat="44.751685" lon="9.3687733"><ele>358.0</ele><time>2026-04-04T07:35:07.601Z</time></trkpt><trkpt lat="44.75172" lon="9.3685867"><ele>359.75</ele><time>2026-04-04T07:35:08.601Z</time></trkpt><trkpt lat="44.75178" lon="9.3684"><ele>361.5</ele><time>2026-04-04T07:35:09.602Z</time></trkpt><trkpt lat="44.7518433" lon="9.3682333"><ele>363.25</ele><time>2026-04-04T07:35:10.599Z</time></trkpt><trkpt lat="44.7518933" lon="9.3680833"><ele>365.0</ele><time>2026-04-04T07:35:11.6Z</time></trkpt><trkpt lat="44.75192" lon="9.3679267"><ele>366.6</ele><time>2026-04-04T07:35:12.601Z</time></trkpt><trkpt lat="44.7519117" lon="9.3677567"><ele>368.2</ele><time>2026-04-04T07:35:13.602Z</time></trkpt><trkpt lat="44.7518767" lon="9.3675917"><ele>369.79999999999995</ele><time>2026-04-04T07:35:14.601Z</time></trkpt><trkpt lat="44.7518367" lon="9.3674567"><ele>371.4</ele><time>2026-04-04T07:35:15.6Z</time></trkpt><trkpt lat="44.7517983" lon="9.367355"><ele>373.0</ele><time>2026-04-04T07:35:16.599Z</time></trkpt><trkpt lat="44.7517567" lon="9.3672833"><ele>373.0</ele><time>2026-04-04T07:35:17.6Z</time></trkpt><trkpt lat="44.7516933" lon="9.36725"><ele>373.0</ele><time>2026-04-04T07:35:20.601Z</time></trkpt><trkpt lat="44.7516067" lon="9.3671833"><ele>373.0</ele><time>2026-04-04T07:35:47.601Z</time></trkpt><trkpt lat="44.7515033" lon="9.3671267"><ele>373.0</ele><time>2026-04-04T07:35:49.601Z</time></trkpt><trkpt lat="44.75144" lon="9.3670683"><ele>373.0</ele><time>2026-04-04T07:35:50.601Z</time></trkpt><trkpt lat="44.7513867" lon="9.366995"><ele>373.0</ele><time>2026-04-04T07:35:51.601Z</time></trkpt><trkpt lat="44.7513467" lon="9.3669067"><ele>374.0</ele><time>2026-04-04T07:35:52.603Z</time></trkpt><trkpt lat="44.75132" lon="9.36681"><ele>375.0</ele><time>2026-04-04T07:35:53.602Z</time></trkpt><trkpt lat="44.751315" lon="9.3666983"><ele>376.0</ele><time>2026-04-04T07:35:54.601Z</time></trkpt><trkpt lat="44.751315" lon="9.3665767"><ele>377.0</ele><time>2026-04-04T07:35:55.6Z</time></trkpt><trkpt lat="44.7513083" lon="9.3664533"><ele>378.0</ele><time>2026-04-04T07:35:56.6Z</time></trkpt><trkpt lat="44.75129" lon="9.3663433"><ele>379.0</ele><time>2026-04-04T07:35:57.601Z</time></trkpt><trkpt lat="44.7512533" lon="9.3662317"><ele>378.2</ele><time>2026-04-04T07:35:58.601Z</time></trkpt><trkpt lat="44.7511867" lon="9.3661117"><ele>377.4</ele><time>2026-04-04T07:35:59.6Z</time></trkpt><trkpt lat="44.7511033" lon="9.3660033"><ele>376.6</ele><time>2026-04-04T07:36:00.599Z</time></trkpt><trkpt lat="44.7510133" lon="9.36592"><ele>375.8</ele><time>2026-04-04T07:36:01.601Z</time></trkpt><trkpt lat="44.75092" lon="9.3658667"><ele>375.0</ele><time>2026-04-04T07:36:02.602Z</time></trkpt><trkpt lat="44.75083" lon="9.3658467"><ele>375.0</ele><time>2026-04-04T07:36:03.599Z</time></trkpt><trkpt lat="44.750745" lon="9.3658417"><ele>375.0</ele><time>2026-04-04T07:36:04.601Z</time></trkpt><trkpt lat="44.7506783" lon="9.3658433"><ele>375.0</ele><time>2026-04-04T07:36:05.601Z</time></trkpt><trkpt lat="44.7505933" lon="9.3658133"><ele>375.0</ele><time>2026-04-04T07:36:07.601Z</time></trkpt><trkpt lat="44.75057" lon="9.3657233"><ele>375.0</ele><time>2026-04-04T07:36:09.601Z</time></trkpt><trkpt lat="44.7505983" lon="9.365595"><ele>375.0</ele><time>2026-04-04T07:36:11.6Z</time></trkpt><trkpt lat="44.7506417" lon="9.365505"><ele>377.0</ele><time>2026-04-04T07:36:12.599Z</time></trkpt><trkpt lat="44.7507033" lon="9.36541"><ele>379.0</ele><time>2026-04-04T07:36:13.601Z</time></trkpt><trkpt lat="44.750785" lon="9.3653017"><ele>381.0</ele><time>2026-04-04T07:36:14.601Z</time></trkpt><trkpt lat="44.7508467" lon="9.3652"><ele>383.0</ele><time>2026-04-04T07:36:15.6Z</time></trkpt><trkpt lat="44.750895" lon="9.365115"><ele>385.0</ele><time>2026-04-04T07:36:16.6Z</time></trkpt><trkpt lat="44.7509583" lon="9.3649883"><ele>385.00000000000006</ele><time>2026-04-04T07:36:18.6Z</time></trkpt><trkpt lat="44.751015" lon="9.3648583"><ele>385.0</ele><time>2026-04-04T07:36:20.601Z</time></trkpt><trkpt lat="44.7510567" lon="9.3647767"><ele>385.0</ele><time>2026-04-04T07:36:21.601Z</time></trkpt><trkpt lat="44.7511017" lon="9.3646833"><ele>385.0</ele><time>2026-04-04T07:36:22.601Z</time></trkpt><trkpt lat="44.7511433" lon="9.3645817"><ele>385.00000000000006</ele><time>2026-04-04T07:36:23.601Z</time></trkpt><trkpt lat="44.7511917" lon="9.36448"><ele>385.0</ele><time>2026-04-04T07:36:24.601Z</time></trkpt><trkpt lat="44.7512283" lon="9.364375"><ele>390.00000000000006</ele><time>2026-04-04T07:36:25.6Z</time></trkpt><trkpt lat="44.7512467" lon="9.36427"><ele>395.0</ele><time>2026-04-04T07:36:26.601Z</time></trkpt><trkpt lat="44.75125" lon="9.3641667"><ele>400.0</ele><time>2026-04-04T07:36:27.601Z</time></trkpt><trkpt lat="44.75125" lon="9.36405"><ele>405.0</ele><time>2026-04-04T07:36:28.601Z</time></trkpt><trkpt lat="44.7512467" lon="9.3639283"><ele>410.00000000000006</ele><time>2026-04-04T07:36:29.603Z</time></trkpt><trkpt lat="44.75126" lon="9.3638267"><ele>415.0</ele><time>2026-04-04T07:36:30.602Z</time></trkpt><trkpt lat="44.7511983" lon="9.3636833"><ele>417.4</ele><time>2026-04-04T07:36:32.602Z</time></trkpt><trkpt lat="44.7511017" lon="9.36359"><ele>419.8</ele><time>2026-04-04T07:36:34.6Z</time></trkpt><trkpt lat="44.75101" lon="9.3634917"><ele>422.20000000000005</ele><time>2026-04-04T07:36:36.602Z</time></trkpt><trkpt lat="44.7509283" lon="9.363445"><ele>424.6</ele><time>2026-04-04T07:36:37.601Z</time></trkpt><trkpt lat="44.7508633" lon="9.363405"><ele>427.0</ele><time>2026-04-04T07:36:38.601Z</time></trkpt><trkpt lat="44.7507917" lon="9.363335"><ele>424.00000000000006</ele><time>2026-04-04T07:36:39.601Z</time></trkpt><trkpt lat="44.7507417" lon="9.3632683"><ele>421.0</ele><time>2026-04-04T07:36:40.602Z</time></trkpt><trkpt lat="44.75071" lon="9.3631783"><ele>418.0</ele><time>2026-04-04T07:36:41.601Z</time></trkpt><trkpt lat="44.750665" lon="9.3630333"><ele>415.0</ele><time>2026-04-04T07:36:43.602Z</time></trkpt><trkpt lat="44.7506283" lon="9.36291"><ele>412.00000000000006</ele><time>2026-04-04T07:36:45.6Z</time></trkpt><trkpt lat="44.75065" lon="9.3627967"><ele>409.0</ele><time>2026-04-04T07:36:47.602Z</time></trkpt><trkpt lat="44.7506933" lon="9.3626467"><ele>409.00000000000006</ele><time>2026-04-04T07:36:49.601Z</time></trkpt><trkpt lat="44.7507" lon="9.362545"><ele>409.0</ele><time>2026-04-04T07:36:50.602Z</time></trkpt><trkpt lat="44.7506917" lon="9.3624333"><ele>409.0</ele><time>2026-04-04T07:36:51.599Z</time></trkpt><trkpt lat="44.75069" lon="9.3623083"><ele>409.0</ele><time>2026-04-04T07:36:52.601Z</time></trkpt><trkpt lat="44.7506917" lon="9.3621867"><ele>409.00000000000006</ele><time>2026-04-04T07:36:53.6Z</time></trkpt><trkpt lat="44.7507" lon="9.362075"><ele>409.0</ele><time>2026-04-04T07:36:54.601Z</time></trkpt><trkpt lat="44.7507083" lon="9.361975"><ele>409.6666666666667</ele><time>2026-04-04T07:36:55.6Z</time></trkpt><trkpt lat="44.7507533" lon="9.3618917"><ele>410.33333333333337</ele><time>2026-04-04T07:36:57.6Z</time></trkpt><trkpt lat="44.750845" lon="9.3618333"><ele>411.0</ele><time>2026-04-04T07:36:59.601Z</time></trkpt><trkpt lat="44.75095" lon="9.36175"><ele>411.66666666666663</ele><time>2026-04-04T07:37:01.601Z</time></trkpt><trkpt lat="44.7510017" lon="9.3616867"><ele>412.3333333333333</ele><time>2026-04-04T07:37:02.601Z</time></trkpt><trkpt lat="44.7510517" lon="9.36161"><ele>413.0</ele><time>2026-04-04T07:37:03.6Z</time></trkpt><trkpt lat="44.7511033" lon="9.3615217"><ele>416.57142857142856</ele><time>2026-04-04T07:37:04.599Z</time></trkpt><trkpt lat="44.75114" lon="9.36143"><ele>420.1428571428571</ele><time>2026-04-04T07:37:05.6Z</time></trkpt><trkpt lat="44.75117" lon="9.3613367"><ele>423.7142857142857</ele><time>2026-04-04T07:37:06.601Z</time></trkpt><trkpt lat="44.7511883" lon="9.3612267"><ele>427.2857142857143</ele><time>2026-04-04T07:37:07.601Z</time></trkpt><trkpt lat="44.751205" lon="9.36113"><ele>430.85714285714283</ele><time>2026-04-04T07:37:08.602Z</time></trkpt><trkpt lat="44.7512367" lon="9.3610317"><ele>434.42857142857144</ele><time>2026-04-04T07:37:10.599Z</time></trkpt><trkpt lat="44.751295" lon="9.361095"><ele>438.0</ele><time>2026-04-04T07:37:13.6Z</time></trkpt><trkpt lat="44.7513633" lon="9.3611867"><ele>440.0</ele><time>2026-04-04T07:37:15.601Z</time></trkpt><trkpt lat="44.751465" lon="9.3612483"><ele>441.99999999999994</ele><time>2026-04-04T07:37:17.602Z</time></trkpt><trkpt lat="44.7515917" lon="9.3612267"><ele>443.99999999999994</ele><time>2026-04-04T07:37:19.6Z</time></trkpt><trkpt lat="44.751715" lon="9.3612067"><ele>446.0</ele><time>2026-04-04T07:37:21.601Z</time></trkpt><trkpt lat="44.75178" lon="9.3612033"><ele>448.0</ele><time>2026-04-04T07:37:22.601Z</time></trkpt><trkpt lat="44.7518467" lon="9.3611867"><ele>450.83333333333337</ele><time>2026-04-04T07:37:23.6Z</time></trkpt><trkpt lat="44.751915" lon="9.3611617"><ele>453.6666666666667</ele><time>2026-04-04T07:37:24.6Z</time></trkpt><trkpt lat="44.7519967" lon="9.36112"><ele>456.5</ele><time>2026-04-04T07:37:25.601Z</time></trkpt><trkpt lat="44.75208" lon="9.3610717"><ele>459.33333333333337</ele><time>2026-04-04T07:37:26.601Z</time></trkpt><trkpt lat="44.752155" lon="9.3610183"><ele>462.1666666666667</ele><time>2026-04-04T07:37:27.6Z</time></trkpt><trkpt lat="44.7522283" lon="9.3609783"><ele>465.0</ele><time>2026-04-04T07:37:28.6Z</time></trkpt><trkpt lat="44.75229" lon="9.3609533"><ele>465.0</ele><time>2026-04-04T07:37:29.601Z</time></trkpt><trkpt lat="44.75241" lon="9.3609433"><ele>465.0</ele><time>2026-04-04T07:37:31.601Z</time></trkpt><trkpt lat="44.7524767" lon="9.3609433"><ele>465.0</ele><time>2026-04-04T07:37:32.601Z</time></trkpt><trkpt lat="44.7525417" lon="9.3609533"><ele>465.0</ele><time>2026-04-04T07:37:33.603Z</time></trkpt><trkpt lat="44.7526317" lon="9.360985"><ele>465.0</ele><time>2026-04-04T07:37:35.601Z</time></trkpt><trkpt lat="44.75268" lon="9.3610517"><ele>465.0</ele><time>2026-04-04T07:37:36.601Z</time></trkpt><trkpt lat="44.752735" lon="9.3611233"><ele>469.3333333333333</ele><time>2026-04-04T07:37:37.601Z</time></trkpt><trkpt lat="44.7527883" lon="9.361195"><ele>473.66666666666663</ele><time>2026-04-04T07:37:38.6Z</time></trkpt><trkpt lat="44.7528217" lon="9.3612983"><ele>478.0</ele><time>2026-04-04T07:37:39.6Z</time></trkpt><trkpt lat="44.7528583" lon="9.3613983"><ele>482.3333333333333</ele><time>2026-04-04T07:37:40.6Z</time></trkpt><trkpt lat="44.752895" lon="9.3614767"><ele>486.66666666666663</ele><time>2026-04-04T07:37:41.6Z</time></trkpt><trkpt lat="44.7529633" lon="9.3616267"><ele>491.0</ele><time>2026-04-04T07:37:43.601Z</time></trkpt><trkpt lat="44.7530133" lon="9.3616867"><ele>491.0</ele><time>2026-04-04T07:37:44.601Z</time></trkpt><trkpt lat="44.7530767" lon="9.3617267"><ele>491.0</ele><time>2026-04-04T07:37:45.6Z</time></trkpt><trkpt lat="44.753185" lon="9.3617433"><ele>491.0</ele><time>2026-04-04T07:37:47.601Z</time></trkpt><trkpt lat="44.75322" lon="9.3616633"><ele>491.0</ele><time>2026-04-04T07:37:50.601Z</time></trkpt><trkpt lat="44.753205" lon="9.36155"><ele>491.0</ele><time>2026-04-04T07:37:56.6Z</time></trkpt><trkpt lat="44.7532283" lon="9.3613583"><ele>490.99999999999994</ele><time>2026-04-04T07:37:58.601Z</time></trkpt><trkpt lat="44.7532583" lon="9.36124"><ele>491.0</ele><time>2026-04-04T07:37:59.6Z</time></trkpt><trkpt lat="44.7532933" lon="9.3611233"><ele>491.0</ele><time>2026-04-04T07:38:00.601Z</time></trkpt><trkpt lat="44.7533283" lon="9.3610083"><ele>491.0</ele><time>2026-04-04T07:38:01.601Z</time></trkpt><trkpt lat="44.75335" lon="9.3609167"><ele>490.99999999999994</ele><time>2026-04-04T07:38:02.602Z</time></trkpt><trkpt lat="44.75334" lon="9.3608133"><ele>491.0</ele><time>2026-04-04T07:38:03.6Z</time></trkpt><trkpt lat="44.75332" lon="9.36071"><ele>490.99999999999994</ele><time>2026-04-04T07:38:04.601Z</time></trkpt><trkpt lat="44.753295" lon="9.3606017"><ele>491.0</ele><time>2026-04-04T07:38:05.601Z</time></trkpt><trkpt lat="44.7532683" lon="9.36049"><ele>491.0</ele><time>2026-04-04T07:38:06.6Z</time></trkpt><trkpt lat="44.753245" lon="9.36038"><ele>491.0</ele><time>2026-04-04T07:38:07.601Z</time></trkpt><trkpt lat="44.75323" lon="9.3602883"><ele>490.99999999999994</ele><time>2026-04-04T07:38:08.6Z</time></trkpt><trkpt lat="44.7532967" lon="9.3602067"><ele>491.0</ele><time>2026-04-04T07:38:10.6Z</time></trkpt><trkpt lat="44.753375" lon="9.3601933"><ele>493.66666666666663</ele><time>2026-04-04T07:38:12.599Z</time></trkpt><trkpt lat="44.7535" lon="9.3602733"><ele>496.3333333333333</ele><time>2026-04-04T07:38:14.601Z</time></trkpt><trkpt lat="44.75357" lon="9.3603317"><ele>499.0</ele><time>2026-04-04T07:38:15.6Z</time></trkpt><trkpt lat="44.7536267" lon="9.3604033"><ele>501.66666666666663</ele><time>2026-04-04T07:38:16.6Z</time></trkpt><trkpt lat="44.7536659" lon="9.3604772"><ele>504.3333333333333</ele><time>2026-04-04T07:38:17.601Z</time></trkpt><trkpt lat="44.7536988" lon="9.3605769"><ele>507.0</ele><time>2026-04-04T07:38:18.6Z</time></trkpt><trkpt lat="44.7537266" lon="9.3606982"><ele>512.6</ele><time>2026-04-04T07:38:19.602Z</time></trkpt><trkpt lat="44.7537446" lon="9.3608273"><ele>518.2</ele><time>2026-04-04T07:38:20.6Z</time></trkpt><trkpt lat="44.7537436" lon="9.3609651"><ele>523.8</ele><time>2026-04-04T07:38:21.6Z</time></trkpt><trkpt lat="44.7537353" lon="9.3611102"><ele>529.4</ele><time>2026-04-04T07:38:22.6Z</time></trkpt><trkpt lat="44.7537357" lon="9.36125"><ele>535.0</ele><time>2026-04-04T07:38:23.601Z</time></trkpt><trkpt lat="44.7537389" lon="9.361374"><ele>536.6666666666667</ele><time>2026-04-04T07:38:24.6Z</time></trkpt><trkpt lat="44.7537444" lon="9.3614879"><ele>538.3333333333334</ele><time>2026-04-04T07:38:25.601Z</time></trkpt><trkpt lat="44.7537555" lon="9.3615848"><ele>540.0</ele><time>2026-04-04T07:38:26.6Z</time></trkpt><trkpt lat="44.7537622" lon="9.3616774"><ele>541.6666666666666</ele><time>2026-04-04T07:38:27.6Z</time></trkpt><trkpt lat="44.7537408" lon="9.3617763"><ele>543.3333333333333</ele><time>2026-04-04T07:38:29.601Z</time></trkpt><trkpt lat="44.753698" lon="9.3618578"><ele>545.0</ele><time>2026-04-04T07:39:13.601Z</time></trkpt><trkpt lat="44.7536352" lon="9.362006"><ele>545.0</ele><time>2026-04-04T07:39:15.6Z</time></trkpt><trkpt lat="44.7536068" lon="9.3621026"><ele>545.0</ele><time>2026-04-04T07:39:16.6Z</time></trkpt><trkpt lat="44.7535801" lon="9.3622141"><ele>545.0</ele><time>2026-04-04T07:39:17.6Z</time></trkpt><trkpt lat="44.7535592" lon="9.362348"><ele>545.0</ele><time>2026-04-04T07:39:18.601Z</time></trkpt><trkpt lat="44.7535415" lon="9.3624947"><ele>545.0</ele><time>2026-04-04T07:39:19.601Z</time></trkpt><trkpt lat="44.7535264" lon="9.3626621"><ele>535.75</ele><time>2026-04-04T07:39:20.6Z</time></trkpt><trkpt lat="44.753502" lon="9.3628364"><ele>526.5</ele><time>2026-04-04T07:39:21.599Z</time></trkpt><trkpt lat="44.7534738" lon="9.3630077"><ele>517.25</ele><time>2026-04-04T07:39:22.601Z</time></trkpt><trkpt lat="44.7534433" lon="9.3631726"><ele>508.0</ele><time>2026-04-04T07:39:23.601Z</time></trkpt><trkpt lat="44.7534173" lon="9.363337"><ele>508.0</ele><time>2026-04-04T07:39:24.601Z</time></trkpt><trkpt lat="44.7534023" lon="9.363503"><ele>507.99999999999994</ele><time>2026-04-04T07:39:25.6Z</time></trkpt><trkpt lat="44.7533977" lon="9.3636556"><ele>507.99999999999994</ele><time>2026-04-04T07:39:26.601Z</time></trkpt><trkpt lat="44.7533968" lon="9.3638016"><ele>508.0</ele><time>2026-04-04T07:39:27.6Z</time></trkpt><trkpt lat="44.7534114" lon="9.3639399"><ele>508.0</ele><time>2026-04-04T07:39:28.601Z</time></trkpt><trkpt lat="44.7534516" lon="9.3640845"><ele>507.2</ele><time>2026-04-04T07:39:29.601Z</time></trkpt><trkpt lat="44.7535005" lon="9.3642276"><ele>506.4</ele><time>2026-04-04T07:39:30.601Z</time></trkpt><trkpt lat="44.7535538" lon="9.3643598"><ele>505.59999999999997</ele><time>2026-04-04T07:39:31.601Z</time></trkpt><trkpt lat="44.7536165" lon="9.3644856"><ele>504.79999999999995</ele><time>2026-04-04T07:39:32.601Z</time></trkpt><trkpt lat="44.7536874" lon="9.3645937"><ele>504.0</ele><time>2026-04-04T07:39:33.6Z</time></trkpt><trkpt lat="44.7537746" lon="9.3646935"><ele>506.5</ele><time>2026-04-04T07:39:34.601Z</time></trkpt><trkpt lat="44.7538758" lon="9.364797"><ele>509.0</ele><time>2026-04-04T07:39:35.6Z</time></trkpt><trkpt lat="44.7539688" lon="9.3649189"><ele>511.5</ele><time>2026-04-04T07:39:36.6Z</time></trkpt><trkpt lat="44.7540477" lon="9.3650593"><ele>514.0</ele><time>2026-04-04T07:39:37.601Z</time></trkpt><trkpt lat="44.7541101" lon="9.3652132"><ele>514.0</ele><time>2026-04-04T07:39:38.6Z</time></trkpt><trkpt lat="44.7541679" lon="9.3653638"><ele>514.0</ele><time>2026-04-04T07:39:39.599Z</time></trkpt><trkpt lat="44.754231" lon="9.3655047"><ele>514.0</ele><time>2026-04-04T07:39:40.601Z</time></trkpt><trkpt lat="44.7542971" lon="9.3656401"><ele>514.0</ele><time>2026-04-04T07:39:41.6Z</time></trkpt><trkpt lat="44.7543604" lon="9.365775"><ele>510.79999999999995</ele><time>2026-04-04T07:39:42.601Z</time></trkpt><trkpt lat="44.7544122" lon="9.3659126"><ele>507.59999999999997</ele><time>2026-04-04T07:39:43.601Z</time></trkpt><trkpt lat="44.7544505" lon="9.3660509"><ele>504.4</ele><time>2026-04-04T07:39:44.601Z</time></trkpt><trkpt lat="44.7544817" lon="9.3661827"><ele>501.2</ele><time>2026-04-04T07:39:45.6Z</time></trkpt><trkpt lat="44.7545042" lon="9.3663036"><ele>498.0</ele><time>2026-04-04T07:39:46.601Z</time></trkpt><trkpt lat="44.7545278" lon="9.3664157"><ele>498.0</ele><time>2026-04-04T07:39:47.601Z</time></trkpt><trkpt lat="44.7545575" lon="9.3665184"><ele>498.0</ele><time>2026-04-04T07:39:48.599Z</time></trkpt><trkpt lat="44.7546165" lon="9.3665829"><ele>498.0</ele><time>2026-04-04T07:39:49.6Z</time></trkpt><trkpt lat="44.7546969" lon="9.3666211"><ele>498.0</ele><time>2026-04-04T07:39:50.602Z</time></trkpt><trkpt lat="44.7547852" lon="9.3666525"><ele>498.0</ele><time>2026-04-04T07:39:51.601Z</time></trkpt><trkpt lat="44.7548705" lon="9.3666794"><ele>498.0</ele><time>2026-04-04T07:39:52.602Z</time></trkpt><trkpt lat="44.7549529" lon="9.3667057"><ele>498.0</ele><time>2026-04-04T07:39:53.601Z</time></trkpt><trkpt lat="44.7550301" lon="9.3667232"><ele>498.0</ele><time>2026-04-04T07:39:54.601Z</time></trkpt><trkpt lat="44.7551107" lon="9.3667287"><ele>498.0</ele><time>2026-04-04T07:39:55.601Z</time></trkpt><trkpt lat="44.755184" lon="9.3667282"><ele>498.0</ele><time>2026-04-04T07:39:56.601Z</time></trkpt><trkpt lat="44.7552928" lon="9.3667358"><ele>498.0</ele><time>2026-04-04T07:39:58.601Z</time></trkpt><trkpt lat="44.75536" lon="9.3667265"><ele>498.0</ele><time>2026-04-04T07:40:01.601Z</time></trkpt><trkpt lat="44.7554312" lon="9.3667258"><ele>500.5</ele><time>2026-04-04T07:40:16.6Z</time></trkpt><trkpt lat="44.7555182" lon="9.3667239"><ele>503.0</ele><time>2026-04-04T07:40:18.6Z</time></trkpt><trkpt lat="44.7556482" lon="9.3667363"><ele>505.5</ele><time>2026-04-04T07:40:20.602Z</time></trkpt><trkpt lat="44.7557191" lon="9.3667339"><ele>508.0</ele><time>2026-04-04T07:40:21.6Z</time></trkpt><trkpt lat="44.7557889" lon="9.3667212"><ele>510.5</ele><time>2026-04-04T07:40:22.601Z</time></trkpt><trkpt lat="44.7558558" lon="9.366696"><ele>513.0</ele><time>2026-04-04T07:40:23.6Z</time></trkpt><trkpt lat="44.755932" lon="9.3666607"><ele>513.0000000000001</ele><time>2026-04-04T07:40:24.601Z</time></trkpt><trkpt lat="44.7560132" lon="9.3666241"><ele>513.0</ele><time>2026-04-04T07:40:25.601Z</time></trkpt><trkpt lat="44.7560853" lon="9.3665939"><ele>513.0</ele><time>2026-04-04T07:40:26.601Z</time></trkpt><trkpt lat="44.7561441" lon="9.3665542"><ele>513.0</ele><time>2026-04-04T07:40:27.601Z</time></trkpt><trkpt lat="44.7561992" lon="9.3664979"><ele>513.0</ele><time>2026-04-04T07:40:28.6Z</time></trkpt><trkpt lat="44.7562615" lon="9.3664387"><ele>513.0000000000001</ele><time>2026-04-04T07:40:29.601Z</time></trkpt><trkpt lat="44.7563273" lon="9.366383"><ele>513.0</ele><time>2026-04-04T07:40:30.601Z</time></trkpt><trkpt lat="44.7563991" lon="9.3663262"><ele>513.8333333333334</ele><time>2026-04-04T07:40:31.6Z</time></trkpt><trkpt lat="44.756476" lon="9.3662774"><ele>514.6666666666666</ele><time>2026-04-04T07:40:32.6Z</time></trkpt><trkpt lat="44.7565441" lon="9.3662479"><ele>515.5</ele><time>2026-04-04T07:40:33.6Z</time></trkpt><trkpt lat="44.756607" lon="9.3662517"><ele>516.3333333333333</ele><time>2026-04-04T07:40:34.6Z</time></trkpt><trkpt lat="44.7566622" lon="9.3663046"><ele>517.1666666666666</ele><time>2026-04-04T07:40:35.601Z</time></trkpt><trkpt lat="44.7567084" lon="9.3663675"><ele>518.0</ele><time>2026-04-04T07:40:36.599Z</time></trkpt><trkpt lat="44.7568062" lon="9.3664616"><ele>520.3333333333333</ele><time>2026-04-04T07:40:38.602Z</time></trkpt><trkpt lat="44.7569156" lon="9.3664825"><ele>522.6666666666666</ele><time>2026-04-04T07:40:40.6Z</time></trkpt><trkpt lat="44.7569825" lon="9.3664774"><ele>525.0</ele><time>2026-04-04T07:40:41.6Z</time></trkpt><trkpt lat="44.7570592" lon="9.3664735"><ele>527.3333333333334</ele><time>2026-04-04T07:40:42.601Z</time></trkpt><trkpt lat="44.7571446" lon="9.3664666"><ele>529.6666666666667</ele><time>2026-04-04T07:40:43.599Z</time></trkpt><trkpt lat="44.75724" lon="9.3664589"><ele>532.0</ele><time>2026-04-04T07:40:44.602Z</time></trkpt><trkpt lat="44.7573321" lon="9.3664634"><ele>532.0</ele><time>2026-04-04T07:40:45.6Z</time></trkpt><trkpt lat="44.7574117" lon="9.3664677"><ele>532.0</ele><time>2026-04-04T07:40:46.599Z</time></trkpt><trkpt lat="44.757486" lon="9.3664526"><ele>532.0</ele><time>2026-04-04T07:40:48.601Z</time></trkpt><trkpt lat="44.7574083" lon="9.366409"><ele>532.0</ele><time>2026-04-04T07:40:51.599Z</time></trkpt><trkpt lat="44.7573453" lon="9.3663939"><ele>532.0</ele><time>2026-04-04T07:40:52.6Z</time></trkpt><trkpt lat="44.7572759" lon="9.3663727"><ele>532.0</ele><time>2026-04-04T07:40:53.601Z</time></trkpt><trkpt lat="44.7572051" lon="9.366338"><ele>532.0</ele><time>2026-04-04T07:40:54.6Z</time></trkpt><trkpt lat="44.7571418" lon="9.3662921"><ele>538.0</ele><time>2026-04-04T07:40:55.601Z</time></trkpt><trkpt lat="44.7570875" lon="9.3662284"><ele>544.0</ele><time>2026-04-04T07:40:56.6Z</time></trkpt><trkpt lat="44.7570402" lon="9.3661604"><ele>550.0</ele><time>2026-04-04T07:40:57.601Z</time></trkpt><trkpt lat="44.7569904" lon="9.3659978"><ele>556.0</ele><time>2026-04-04T07:40:59.6Z</time></trkpt><trkpt lat="44.7569799" lon="9.3658942"><ele>562.0</ele><time>2026-04-04T07:41:00.6Z</time></trkpt><trkpt lat="44.7569604" lon="9.365783"><ele>568.0</ele><time>2026-04-04T07:41:01.6Z</time></trkpt><trkpt lat="44.7569319" lon="9.3656685"><ele>568.0</ele><time>2026-04-04T07:41:02.601Z</time></trkpt><trkpt lat="44.7568964" lon="9.3655545"><ele>568.0</ele><time>2026-04-04T07:41:03.6Z</time></trkpt><trkpt lat="44.7568545" lon="9.3654451"><ele>568.0</ele><time>2026-04-04T07:41:04.601Z</time></trkpt><trkpt lat="44.7568044" lon="9.3653592"><ele>568.0</ele><time>2026-04-04T07:41:05.601Z</time></trkpt><trkpt lat="44.756744" lon="9.3652928"><ele>568.0</ele><time>2026-04-04T07:41:06.6Z</time></trkpt><trkpt lat="44.7566718" lon="9.3652476"><ele>568.0</ele><time>2026-04-04T07:41:07.6Z</time></trkpt><trkpt lat="44.7565942" lon="9.3652107"><ele>568.1666666666667</ele><time>2026-04-04T07:41:08.601Z</time></trkpt><trkpt lat="44.7565076" lon="9.3651748"><ele>568.3333333333334</ele><time>2026-04-04T07:41:09.599Z</time></trkpt><trkpt lat="44.7564172" lon="9.3651555"><ele>568.5</ele><time>2026-04-04T07:41:10.6Z</time></trkpt><trkpt lat="44.7563205" lon="9.3651558"><ele>568.6666666666666</ele><time>2026-04-04T07:41:11.601Z</time></trkpt><trkpt lat="44.756234" lon="9.3651672"><ele>568.8333333333333</ele><time>2026-04-04T07:41:12.601Z</time></trkpt><trkpt lat="44.7561581" lon="9.3651839"><ele>569.0</ele><time>2026-04-04T07:41:13.601Z</time></trkpt><trkpt lat="44.7560943" lon="9.3652229"><ele>569.0</ele><time>2026-04-04T07:41:14.601Z</time></trkpt><trkpt lat="44.7560372" lon="9.3652898"><ele>569.0</ele><time>2026-04-04T07:41:15.601Z</time></trkpt><trkpt lat="44.7559905" lon="9.3653596"><ele>569.0</ele><time>2026-04-04T07:41:16.601Z</time></trkpt><trkpt lat="44.7559097" lon="9.3654583"><ele>569.0</ele><time>2026-04-04T07:41:18.599Z</time></trkpt><trkpt lat="44.7558341" lon="9.3654494"><ele>569.0</ele><time>2026-04-04T07:41:20.601Z</time></trkpt><trkpt lat="44.7557148" lon="9.3653792"><ele>570.1666666666666</ele><time>2026-04-04T07:41:22.6Z</time></trkpt><trkpt lat="44.7556492" lon="9.3653452"><ele>571.3333333333333</ele><time>2026-04-04T07:41:23.601Z</time></trkpt><trkpt lat="44.7555532" lon="9.3652727"><ele>572.5</ele><time>2026-04-04T07:41:25.601Z</time></trkpt><trkpt lat="44.7555045" lon="9.3652077"><ele>573.6666666666666</ele><time>2026-04-04T07:41:27.6Z</time></trkpt><trkpt lat="44.7555541" lon="9.3651401"><ele>574.8333333333334</ele><time>2026-04-04T07:42:04.6Z</time></trkpt><trkpt lat="44.7556267" lon="9.3651307"><ele>576.0</ele><time>2026-04-04T07:42:06.599Z</time></trkpt><trkpt lat="44.7557114" lon="9.3651205"><ele>576.0</ele><time>2026-04-04T07:42:08.601Z</time></trkpt><trkpt lat="44.7558073" lon="9.3651089"><ele>576.0</ele><time>2026-04-04T07:42:10.599Z</time></trkpt><trkpt lat="44.7559101" lon="9.3650522"><ele>576.0</ele><time>2026-04-04T07:42:12.601Z</time></trkpt><trkpt lat="44.7559892" lon="9.3649382"><ele>576.0</ele><time>2026-04-04T07:42:14.6Z</time></trkpt><trkpt lat="44.7560219" lon="9.3647668"><ele>576.0</ele><time>2026-04-04T07:42:16.601Z</time></trkpt><trkpt lat="44.7560272" lon="9.3646709"><ele>578.3333333333334</ele><time>2026-04-04T07:42:17.6Z</time></trkpt><trkpt lat="44.7560353" lon="9.3645705"><ele>580.6666666666666</ele><time>2026-04-04T07:42:18.6Z</time></trkpt><trkpt lat="44.7560535" lon="9.3644682"><ele>583.0</ele><time>2026-04-04T07:42:19.602Z</time></trkpt><trkpt lat="44.7560799" lon="9.3643683"><ele>585.3333333333333</ele><time>2026-04-04T07:42:20.6Z</time></trkpt><trkpt lat="44.7561122" lon="9.3642776"><ele>587.6666666666666</ele><time>2026-04-04T07:42:21.6Z</time></trkpt><trkpt lat="44.7561525" lon="9.364204"><ele>590.0</ele><time>2026-04-04T07:42:22.6Z</time></trkpt><trkpt lat="44.7562434" lon="9.3640871"><ele>590.0000000000001</ele><time>2026-04-04T07:42:24.6Z</time></trkpt><trkpt lat="44.75631" lon="9.3640466"><ele>590.0</ele><time>2026-04-04T07:42:25.6Z</time></trkpt><trkpt lat="44.7563812" lon="9.3640187"><ele>590.0</ele><time>2026-04-04T07:42:26.6Z</time></trkpt><trkpt lat="44.7564555" lon="9.3640105"><ele>590.0</ele><time>2026-04-04T07:42:27.601Z</time></trkpt><trkpt lat="44.7565351" lon="9.3640186"><ele>590.0</ele><time>2026-04-04T07:42:28.599Z</time></trkpt><trkpt lat="44.7566085" lon="9.3640252"><ele>590.0000000000001</ele><time>2026-04-04T07:42:29.6Z</time></trkpt><trkpt lat="44.7566747" lon="9.3640236"><ele>590.0</ele><time>2026-04-04T07:42:30.601Z</time></trkpt><trkpt lat="44.7567766" lon="9.3639709"><ele>590.0</ele><time>2026-04-04T07:42:32.6Z</time></trkpt><trkpt lat="44.7568456" lon="9.3638635"><ele>590.0</ele><time>2026-04-04T07:42:34.6Z</time></trkpt><trkpt lat="44.7568758" lon="9.3637298"><ele>590.0</ele><time>2026-04-04T07:42:36.6Z</time></trkpt><trkpt lat="44.7569115" lon="9.3635626"><ele>590.0</ele><time>2026-04-04T07:42:38.601Z</time></trkpt><trkpt lat="44.7569299" lon="9.3634717"><ele>590.0</ele><time>2026-04-04T07:42:39.601Z</time></trkpt><trkpt lat="44.7569498" lon="9.3633733"><ele>594.0</ele><time>2026-04-04T07:42:40.6Z</time></trkpt><trkpt lat="44.7569719" lon="9.3632708"><ele>598.0</ele><time>2026-04-04T07:42:41.6Z</time></trkpt><trkpt lat="44.7569999" lon="9.3631586"><ele>602.0</ele><time>2026-04-04T07:42:42.601Z</time></trkpt><trkpt lat="44.7570344" lon="9.3630424"><ele>606.0</ele><time>2026-04-04T07:42:43.6Z</time></trkpt><trkpt lat="44.7570723" lon="9.3629184"><ele>610.0</ele><time>2026-04-04T07:42:44.6Z</time></trkpt><trkpt lat="44.7571041" lon="9.3627967"><ele>614.0</ele><time>2026-04-04T07:42:45.6Z</time></trkpt><trkpt lat="44.7571316" lon="9.3626826"><ele>615.3333333333333</ele><time>2026-04-04T07:42:46.6Z</time></trkpt><trkpt lat="44.7571572" lon="9.3625919"><ele>616.6666666666666</ele><time>2026-04-04T07:42:47.6Z</time></trkpt><trkpt lat="44.7572294" lon="9.3624471"><ele>618.0</ele><time>2026-04-04T07:42:49.6Z</time></trkpt><trkpt lat="44.7572831" lon="9.3623873"><ele>619.3333333333334</ele><time>2026-04-04T07:42:50.602Z</time></trkpt><trkpt lat="44.7573464" lon="9.3623395"><ele>620.6666666666667</ele><time>2026-04-04T07:42:51.6Z</time></trkpt><trkpt lat="44.7574233" lon="9.3622987"><ele>622.0</ele><time>2026-04-04T07:42:52.599Z</time></trkpt><trkpt lat="44.757502" lon="9.362261"><ele>622.0</ele><time>2026-04-04T07:42:53.599Z</time></trkpt><trkpt lat="44.7575828" lon="9.3622263"><ele>622.0</ele><time>2026-04-04T07:42:54.6Z</time></trkpt><trkpt lat="44.7576631" lon="9.3621948"><ele>622.0</ele><time>2026-04-04T07:42:55.6Z</time></trkpt><trkpt lat="44.7577393" lon="9.3621632"><ele>622.0</ele><time>2026-04-04T07:42:56.602Z</time></trkpt><trkpt lat="44.757816" lon="9.3621275"><ele>622.0</ele><time>2026-04-04T07:42:57.6Z</time></trkpt><trkpt lat="44.7578957" lon="9.3620898"><ele>622.0</ele><time>2026-04-04T07:42:58.6Z</time></trkpt><trkpt lat="44.7579745" lon="9.3620507"><ele>623.1666666666667</ele><time>2026-04-04T07:42:59.602Z</time></trkpt><trkpt lat="44.758044" lon="9.3620099"><ele>624.3333333333334</ele><time>2026-04-04T07:43:00.599Z</time></trkpt><trkpt lat="44.7581086" lon="9.3619633"><ele>625.5</ele><time>2026-04-04T07:43:01.6Z</time></trkpt><trkpt lat="44.7581672" lon="9.3619136"><ele>626.6666666666666</ele><time>2026-04-04T07:43:02.602Z</time></trkpt><trkpt lat="44.7582246" lon="9.3618623"><ele>627.8333333333333</ele><time>2026-04-04T07:43:03.6Z</time></trkpt><trkpt lat="44.7583199" lon="9.3617827"><ele>629.0</ele><time>2026-04-04T07:43:05.601Z</time></trkpt><trkpt lat="44.7583915" lon="9.3617356"><ele>629.0</ele><time>2026-04-04T07:43:07.601Z</time></trkpt><trkpt lat="44.7584487" lon="9.361693"><ele>629.0</ele><time>2026-04-04T07:43:09.601Z</time></trkpt><trkpt lat="44.7585012" lon="9.3616249"><ele>629.0</ele><time>2026-04-04T07:43:13.6Z</time></trkpt><trkpt lat="44.7585792" lon="9.3616197"><ele>629.0</ele><time>2026-04-04T07:43:18.6Z</time></trkpt><trkpt lat="44.7586047" lon="9.3617116"><ele>629.0</ele><time>2026-04-04T07:43:20.601Z</time></trkpt><trkpt lat="44.7586212" lon="9.3617984"><ele>629.0</ele><time>2026-04-04T07:43:21.6Z</time></trkpt><trkpt lat="44.7586425" lon="9.3619"><ele>629.0</ele><time>2026-04-04T07:43:22.599Z</time></trkpt><trkpt lat="44.7586672" lon="9.362008"><ele>627.8333333333333</ele><time>2026-04-04T07:43:23.6Z</time></trkpt><trkpt lat="44.758692" lon="9.3621252"><ele>626.6666666666666</ele><time>2026-04-04T07:43:24.6Z</time></trkpt><trkpt lat="44.7587089" lon="9.3622424"><ele>625.5</ele><time>2026-04-04T07:43:25.601Z</time></trkpt><trkpt lat="44.7587203" lon="9.3623515"><ele>624.3333333333334</ele><time>2026-04-04T07:43:26.601Z</time></trkpt><trkpt lat="44.7587373" lon="9.362454"><ele>623.1666666666667</ele><time>2026-04-04T07:43:27.599Z</time></trkpt><trkpt lat="44.7587702" lon="9.3625457"><ele>622.0</ele><time>2026-04-04T07:43:28.6Z</time></trkpt><trkpt lat="44.7588147" lon="9.3626247"><ele>621.7142857142857</ele><time>2026-04-04T07:43:29.6Z</time></trkpt><trkpt lat="44.7588571" lon="9.362695"><ele>621.4285714285714</ele><time>2026-04-04T07:43:30.601Z</time></trkpt><trkpt lat="44.7588963" lon="9.3627668"><ele>621.1428571428571</ele><time>2026-04-04T07:43:31.6Z</time></trkpt><trkpt lat="44.7589281" lon="9.3628464"><ele>620.8571428571429</ele><time>2026-04-04T07:43:32.6Z</time></trkpt><trkpt lat="44.7589574" lon="9.3629374"><ele>620.5714285714286</ele><time>2026-04-04T07:43:33.599Z</time></trkpt><trkpt lat="44.7589818" lon="9.3630235"><ele>620.2857142857143</ele><time>2026-04-04T07:43:34.599Z</time></trkpt><trkpt lat="44.7590501" lon="9.3631271"><ele>620.0</ele><time>2026-04-04T07:43:36.599Z</time></trkpt><trkpt lat="44.7591177" lon="9.3631102"><ele>620.0</ele><time>2026-04-04T07:43:38.6Z</time></trkpt><trkpt lat="44.7591618" lon="9.3629769"><ele>620.0</ele><time>2026-04-04T07:43:40.599Z</time></trkpt><trkpt lat="44.7591788" lon="9.3628827"><ele>620.0</ele><time>2026-04-04T07:43:41.6Z</time></trkpt><trkpt lat="44.7591965" lon="9.362786"><ele>620.0</ele><time>2026-04-04T07:43:42.601Z</time></trkpt><trkpt lat="44.7592157" lon="9.3626893"><ele>620.0</ele><time>2026-04-04T07:43:43.6Z</time></trkpt><trkpt lat="44.7592368" lon="9.3625922"><ele>620.0</ele><time>2026-04-04T07:43:44.601Z</time></trkpt><trkpt lat="44.7592587" lon="9.3624917"><ele>620.0</ele><time>2026-04-04T07:43:45.6Z</time></trkpt><trkpt lat="44.7592779" lon="9.3623834"><ele>620.0</ele><time>2026-04-04T07:43:46.599Z</time></trkpt><trkpt lat="44.7592959" lon="9.3622629"><ele>620.0</ele><time>2026-04-04T07:43:47.599Z</time></trkpt><trkpt lat="44.759314" lon="9.3621298"><ele>620.0</ele><time>2026-04-04T07:43:48.6Z</time></trkpt><trkpt lat="44.7593351" lon="9.3619965"><ele>620.0</ele><time>2026-04-04T07:43:49.599Z</time></trkpt><trkpt lat="44.7593566" lon="9.3618679"><ele>619.8</ele><time>2026-04-04T07:43:50.6Z</time></trkpt><trkpt lat="44.7593796" lon="9.3617382"><ele>619.6</ele><time>2026-04-04T07:43:51.601Z</time></trkpt><trkpt lat="44.7594086" lon="9.3616073"><ele>619.4</ele><time>2026-04-04T07:43:52.6Z</time></trkpt><trkpt lat="44.7594435" lon="9.3614855"><ele>619.2</ele><time>2026-04-04T07:43:53.601Z</time></trkpt><trkpt lat="44.7594832" lon="9.3613756"><ele>619.0</ele><time>2026-04-04T07:43:54.599Z</time></trkpt><trkpt lat="44.7595211" lon="9.3612677"><ele>619.0</ele><time>2026-04-04T07:43:55.6Z</time></trkpt><trkpt lat="44.759554" lon="9.3611559"><ele>619.0</ele><time>2026-04-04T07:43:56.601Z</time></trkpt><trkpt lat="44.7595709" lon="9.3610558"><ele>619.0</ele><time>2026-04-04T07:43:57.6Z</time></trkpt><trkpt lat="44.759579" lon="9.3609542"><ele>619.0</ele><time>2026-04-04T07:43:58.601Z</time></trkpt><trkpt lat="44.7595843" lon="9.3608507"><ele>619.0</ele><time>2026-04-04T07:43:59.6Z</time></trkpt><trkpt lat="44.7595883" lon="9.3607423"><ele>619.0</ele><time>2026-04-04T07:44:00.6Z</time></trkpt><trkpt lat="44.7595936" lon="9.3606271"><ele>619.6666666666667</ele><time>2026-04-04T07:44:01.599Z</time></trkpt><trkpt lat="44.7596033" lon="9.3604988"><ele>620.3333333333334</ele><time>2026-04-04T07:44:02.602Z</time></trkpt><trkpt lat="44.7596108" lon="9.3603799"><ele>621.0</ele><time>2026-04-04T07:44:03.6Z</time></trkpt><trkpt lat="44.7596189" lon="9.3602726"><ele>621.6666666666666</ele><time>2026-04-04T07:44:04.601Z</time></trkpt><trkpt lat="44.7596269" lon="9.3601722"><ele>622.3333333333333</ele><time>2026-04-04T07:44:05.6Z</time></trkpt><trkpt lat="44.7596336" lon="9.360084"><ele>623.0</ele><time>2026-04-04T07:44:06.6Z</time></trkpt><trkpt lat="44.7596617" lon="9.3599485"><ele>623.0</ele><time>2026-04-04T07:44:08.6Z</time></trkpt><trkpt lat="44.7597006" lon="9.359844"><ele>623.0</ele><time>2026-04-04T07:44:11.601Z</time></trkpt><trkpt lat="44.759725" lon="9.3597467"><ele>623.0</ele><time>2026-04-04T07:44:14.601Z</time></trkpt><trkpt lat="44.7596783" lon="9.3598533"><ele>623.0</ele><time>2026-04-04T07:44:29.6Z</time></trkpt><trkpt lat="44.7596567" lon="9.3600033"><ele>623.0</ele><time>2026-04-04T07:44:31.6Z</time></trkpt><trkpt lat="44.7596367" lon="9.3601667"><ele>623.0</ele><time>2026-04-04T07:44:33.602Z</time></trkpt><trkpt lat="44.7596267" lon="9.3603517"><ele>623.0</ele><time>2026-04-04T07:44:35.601Z</time></trkpt><trkpt lat="44.7596167" lon="9.360455"><ele>623.0</ele><time>2026-04-04T07:44:36.599Z</time></trkpt><trkpt lat="44.759615" lon="9.3605517"><ele>623.0</ele><time>2026-04-04T07:44:37.6Z</time></trkpt><trkpt lat="44.759615" lon="9.36065"><ele>623.0</ele><time>2026-04-04T07:44:38.601Z</time></trkpt><trkpt lat="44.7596133" lon="9.3607467"><ele>623.0</ele><time>2026-04-04T07:44:39.6Z</time></trkpt><trkpt lat="44.7596083" lon="9.3608383"><ele>622.3333333333333</ele><time>2026-04-04T07:44:40.601Z</time></trkpt><trkpt lat="44.7595967" lon="9.3609833"><ele>621.6666666666666</ele><time>2026-04-04T07:44:42.6Z</time></trkpt><trkpt lat="44.7595933" lon="9.3610983"><ele>621.0</ele><time>2026-04-04T07:44:44.6Z</time></trkpt><trkpt lat="44.75962" lon="9.3611967"><ele>620.3333333333334</ele><time>2026-04-04T07:44:49.601Z</time></trkpt><trkpt lat="44.75968" lon="9.361295"><ele>619.6666666666667</ele><time>2026-04-04T07:44:52.601Z</time></trkpt><trkpt lat="44.7597317" lon="9.3613917"><ele>619.0</ele><time>2026-04-04T07:44:55.6Z</time></trkpt><trkpt lat="44.75978" lon="9.361485"><ele>618.0</ele><time>2026-04-04T07:44:57.6Z</time></trkpt><trkpt lat="44.7598467" lon="9.3616383"><ele>617.0</ele><time>2026-04-04T07:44:59.601Z</time></trkpt><trkpt lat="44.7598867" lon="9.3617383"><ele>616.0</ele><time>2026-04-04T07:45:00.601Z</time></trkpt><trkpt lat="44.759935" lon="9.361855"><ele>615.0</ele><time>2026-04-04T07:45:01.601Z</time></trkpt><trkpt lat="44.7599867" lon="9.361975"><ele>614.0</ele><time>2026-04-04T07:45:02.599Z</time></trkpt><trkpt lat="44.7600383" lon="9.3620983"><ele>612.5</ele><time>2026-04-04T07:45:03.601Z</time></trkpt><trkpt lat="44.7600933" lon="9.3622167"><ele>611.0</ele><time>2026-04-04T07:45:04.601Z</time></trkpt><trkpt lat="44.76015" lon="9.362325"><ele>609.5</ele><time>2026-04-04T07:45:05.601Z</time></trkpt><trkpt lat="44.7602033" lon="9.36241"><ele>608.0</ele><time>2026-04-04T07:45:06.599Z</time></trkpt><trkpt lat="44.7602617" lon="9.3624667"><ele>606.5</ele><time>2026-04-04T07:45:07.6Z</time></trkpt><trkpt lat="44.7603317" lon="9.362505"><ele>605.0</ele><time>2026-04-04T07:45:09.6Z</time></trkpt><trkpt lat="44.760375" lon="9.3624033"><ele>602.6666666666666</ele><time>2026-04-04T07:45:14.599Z</time></trkpt><trkpt lat="44.7603583" lon="9.3622833"><ele>600.3333333333333</ele><time>2026-04-04T07:45:16.601Z</time></trkpt><trkpt lat="44.7603617" lon="9.3621933"><ele>598.0</ele><time>2026-04-04T07:45:17.6Z</time></trkpt><trkpt lat="44.7603633" lon="9.3620917"><ele>595.6666666666666</ele><time>2026-04-04T07:45:18.601Z</time></trkpt><trkpt lat="44.7603617" lon="9.3619983"><ele>593.3333333333334</ele><time>2026-04-04T07:45:19.6Z</time></trkpt><trkpt lat="44.7603167" lon="9.361835"><ele>591.0</ele><time>2026-04-04T07:45:21.6Z</time></trkpt><trkpt lat="44.7602783" lon="9.3617517"><ele>591.0</ele><time>2026-04-04T07:45:22.6Z</time></trkpt><trkpt lat="44.7602433" lon="9.3616583"><ele>591.0</ele><time>2026-04-04T07:45:23.601Z</time></trkpt><trkpt lat="44.7602117" lon="9.361565"><ele>591.0</ele><time>2026-04-04T07:45:24.599Z</time></trkpt><trkpt lat="44.76019" lon="9.3614583"><ele>591.0</ele><time>2026-04-04T07:45:25.6Z</time></trkpt><trkpt lat="44.760165" lon="9.3613467"><ele>591.0</ele><time>2026-04-04T07:45:26.601Z</time></trkpt><trkpt lat="44.760135" lon="9.36125"><ele>591.0</ele><time>2026-04-04T07:45:27.601Z</time></trkpt><trkpt lat="44.76011" lon="9.3611483"><ele>595.6666666666666</ele><time>2026-04-04T07:45:28.601Z</time></trkpt><trkpt lat="44.76008" lon="9.3610467"><ele>600.3333333333334</ele><time>2026-04-04T07:45:29.601Z</time></trkpt><trkpt lat="44.7600433" lon="9.3609383"><ele>605.0</ele><time>2026-04-04T07:45:30.602Z</time></trkpt><trkpt lat="44.7599967" lon="9.3608383"><ele>609.6666666666667</ele><time>2026-04-04T07:45:31.601Z</time></trkpt><trkpt lat="44.759955" lon="9.3607367"><ele>614.3333333333334</ele><time>2026-04-04T07:45:32.601Z</time></trkpt><trkpt lat="44.7599233" lon="9.360635"><ele>619.0</ele><time>2026-04-04T07:45:33.6Z</time></trkpt><trkpt lat="44.7598867" lon="9.3605467"><ele>619.8</ele><time>2026-04-04T07:45:34.6Z</time></trkpt><trkpt lat="44.759855" lon="9.3604067"><ele>620.5999999999999</ele><time>2026-04-04T07:45:36.6Z</time></trkpt><trkpt lat="44.7598" lon="9.360285"><ele>621.4</ele><time>2026-04-04T07:45:38.6Z</time></trkpt><trkpt lat="44.759755" lon="9.3601483"><ele>622.1999999999999</ele><time>2026-04-04T07:45:40.6Z</time></trkpt><trkpt lat="44.759745" lon="9.3600317"><ele>623.0</ele><time>2026-04-04T07:45:42.6Z</time></trkpt><trkpt lat="44.7597733" lon="9.3599"><ele>623.0</ele><time>2026-04-04T07:45:44.6Z</time></trkpt><trkpt lat="44.759815" lon="9.35974"><ele>623.0</ele><time>2026-04-04T07:45:46.599Z</time></trkpt><trkpt lat="44.7598367" lon="9.35965"><ele>623.0</ele><time>2026-04-04T07:45:47.601Z</time></trkpt><trkpt lat="44.7598583" lon="9.3594933"><ele>623.0</ele><time>2026-04-04T07:45:49.599Z</time></trkpt><trkpt lat="44.759845" lon="9.35935"><ele>623.0</ele><time>2026-04-04T07:45:51.6Z</time></trkpt><trkpt lat="44.7598017" lon="9.3592583"><ele>625.4</ele><time>2026-04-04T07:45:53.6Z</time></trkpt><trkpt lat="44.7597317" lon="9.35918"><ele>627.8</ele><time>2026-04-04T07:45:55.599Z</time></trkpt><trkpt lat="44.7596417" lon="9.3590917"><ele>630.2</ele><time>2026-04-04T07:45:57.6Z</time></trkpt><trkpt lat="44.7595517" lon="9.3589833"><ele>632.6</ele><time>2026-04-04T07:45:59.6Z</time></trkpt><trkpt lat="44.75948" lon="9.3588717"><ele>635.0</ele><time>2026-04-04T07:46:01.599Z</time></trkpt><trkpt lat="44.7594517" lon="9.35873"><ele>638.2</ele><time>2026-04-04T07:46:03.6Z</time></trkpt><trkpt lat="44.759452" lon="9.3585865"><ele>641.4</ele><time>2026-04-04T07:46:05.599Z</time></trkpt><trkpt lat="44.7594852" lon="9.3584448"><ele>644.5999999999999</ele><time>2026-04-04T07:46:07.6Z</time></trkpt><trkpt lat="44.7595296" lon="9.3582958"><ele>647.8</ele><time>2026-04-04T07:46:09.602Z</time></trkpt><trkpt lat="44.7595844" lon="9.35816"><ele>651.0</ele><time>2026-04-04T07:46:11.602Z</time></trkpt><trkpt lat="44.7596378" lon="9.3580374"><ele>654.5999999999999</ele><time>2026-04-04T07:46:13.599Z</time></trkpt><trkpt lat="44.7597021" lon="9.3579397"><ele>658.2</ele><time>2026-04-04T07:46:15.599Z</time></trkpt><trkpt lat="44.7597791" lon="9.3578356"><ele>661.8</ele><time>2026-04-04T07:46:17.602Z</time></trkpt><trkpt lat="44.7598095" lon="9.3577575"><ele>665.4000000000001</ele><time>2026-04-04T07:46:18.6Z</time></trkpt><trkpt lat="44.7598553" lon="9.3576232"><ele>669.0</ele><time>2026-04-04T07:46:20.6Z</time></trkpt><trkpt lat="44.7598934" lon="9.3574901"><ele>669.0</ele><time>2026-04-04T07:46:22.601Z</time></trkpt><trkpt lat="44.7599169" lon="9.3573681"><ele>669.0</ele><time>2026-04-04T07:46:24.599Z</time></trkpt><trkpt lat="44.7599458" lon="9.3572621"><ele>669.0</ele><time>2026-04-04T07:46:26.601Z</time></trkpt><trkpt lat="44.7599928" lon="9.3571488"><ele>669.0</ele><time>2026-04-04T07:46:29.599Z</time></trkpt><trkpt lat="44.7600399" lon="9.3570792"><ele>669.0</ele><time>2026-04-04T07:46:31.6Z</time></trkpt><trkpt lat="44.7600764" lon="9.3569601"><ele>669.0</ele><time>2026-04-04T07:46:33.6Z</time></trkpt><trkpt lat="44.7601051" lon="9.3567989"><ele>672.6</ele><time>2026-04-04T07:46:35.6Z</time></trkpt><trkpt lat="44.7601232" lon="9.3567094"><ele>676.2</ele><time>2026-04-04T07:46:36.601Z</time></trkpt><trkpt lat="44.7601528" lon="9.3565345"><ele>679.8000000000001</ele><time>2026-04-04T07:46:38.601Z</time></trkpt><trkpt lat="44.7601818" lon="9.3563802"><ele>683.4000000000001</ele><time>2026-04-04T07:46:40.6Z</time></trkpt><trkpt lat="44.7602371" lon="9.3562704"><ele>687.0</ele><time>2026-04-04T07:46:42.601Z</time></trkpt><trkpt lat="44.7602917" lon="9.3561343"><ele>687.0</ele><time>2026-04-04T07:46:44.6Z</time></trkpt><trkpt lat="44.7603201" lon="9.3560505"><ele>687.0</ele><time>2026-04-04T07:46:45.6Z</time></trkpt><trkpt lat="44.7603499" lon="9.3559698"><ele>687.0</ele><time>2026-04-04T07:46:46.601Z</time></trkpt><trkpt lat="44.7604148" lon="9.3558277"><ele>687.0</ele><time>2026-04-04T07:46:48.6Z</time></trkpt><trkpt lat="44.7604754" lon="9.355684"><ele>687.0</ele><time>2026-04-04T07:46:50.6Z</time></trkpt><trkpt lat="44.7605113" lon="9.3555559"><ele>689.6</ele><time>2026-04-04T07:46:52.601Z</time></trkpt><trkpt lat="44.760525" lon="9.3554217"><ele>692.2</ele><time>2026-04-04T07:46:54.6Z</time></trkpt><trkpt lat="44.7605367" lon="9.3552833"><ele>694.8</ele><time>2026-04-04T07:46:56.6Z</time></trkpt><trkpt lat="44.760545" lon="9.35514"><ele>697.4</ele><time>2026-04-04T07:46:58.6Z</time></trkpt><trkpt lat="44.7605533" lon="9.3550033"><ele>700.0</ele><time>2026-04-04T07:47:00.601Z</time></trkpt><trkpt lat="44.7605717" lon="9.3548567"><ele>701.4</ele><time>2026-04-04T07:47:02.6Z</time></trkpt><trkpt lat="44.76058" lon="9.3546983"><ele>702.8</ele><time>2026-04-04T07:47:04.6Z</time></trkpt><trkpt lat="44.760555" lon="9.354525"><ele>704.2</ele><time>2026-04-04T07:47:06.6Z</time></trkpt><trkpt lat="44.7605267" lon="9.3543983"><ele>705.6</ele><time>2026-04-04T07:47:08.6Z</time></trkpt><trkpt lat="44.76048" lon="9.35431"><ele>707.0</ele><time>2026-04-04T07:47:10.6Z</time></trkpt><trkpt lat="44.760375" lon="9.354235"><ele>707.0</ele><time>2026-04-04T07:47:12.6Z</time></trkpt><trkpt lat="44.7602959" lon="9.3542087"><ele>707.0</ele><time>2026-04-04T07:47:13.601Z</time></trkpt><trkpt lat="44.7602139" lon="9.3541936"><ele>707.0</ele><time>2026-04-04T07:47:14.6Z</time></trkpt><trkpt lat="44.7601343" lon="9.3541867"><ele>707.0</ele><time>2026-04-04T07:47:15.601Z</time></trkpt><trkpt lat="44.7600571" lon="9.3541834"><ele>707.0</ele><time>2026-04-04T07:47:16.599Z</time></trkpt><trkpt lat="44.7599769" lon="9.3541869"><ele>707.0</ele><time>2026-04-04T07:47:17.601Z</time></trkpt><trkpt lat="44.7599093" lon="9.3542115"><ele>709.4285714285714</ele><time>2026-04-04T07:47:18.603Z</time></trkpt><trkpt lat="44.7598432" lon="9.3542615"><ele>711.8571428571429</ele><time>2026-04-04T07:47:19.6Z</time></trkpt><trkpt lat="44.7597764" lon="9.3543254"><ele>714.2857142857142</ele><time>2026-04-04T07:47:20.601Z</time></trkpt><trkpt lat="44.7597194" lon="9.3543801"><ele>716.7142857142858</ele><time>2026-04-04T07:47:21.6Z</time></trkpt><trkpt lat="44.7596639" lon="9.3544329"><ele>719.1428571428571</ele><time>2026-04-04T07:47:22.601Z</time></trkpt><trkpt lat="44.7596095" lon="9.3544992"><ele>721.5714285714286</ele><time>2026-04-04T07:47:23.601Z</time></trkpt><trkpt lat="44.7595631" lon="9.3545802"><ele>724.0</ele><time>2026-04-04T07:47:24.6Z</time></trkpt><trkpt lat="44.7595272" lon="9.3546686"><ele>722.1666666666667</ele><time>2026-04-04T07:47:25.601Z</time></trkpt><trkpt lat="44.7595082" lon="9.3547557"><ele>720.3333333333334</ele><time>2026-04-04T07:47:26.601Z</time></trkpt><trkpt lat="44.7595038" lon="9.35485"><ele>718.5</ele><time>2026-04-04T07:47:27.6Z</time></trkpt><trkpt lat="44.7595035" lon="9.3549648"><ele>716.6666666666666</ele><time>2026-04-04T07:47:28.6Z</time></trkpt><trkpt lat="44.7595068" lon="9.3550916"><ele>714.8333333333333</ele><time>2026-04-04T07:47:29.6Z</time></trkpt><trkpt lat="44.7595014" lon="9.3552198"><ele>713.0</ele><time>2026-04-04T07:47:30.6Z</time></trkpt><trkpt lat="44.7594909" lon="9.3553395"><ele>713.0</ele><time>2026-04-04T07:47:31.601Z</time></trkpt><trkpt lat="44.7594673" lon="9.3554253"><ele>713.0</ele><time>2026-04-04T07:47:32.6Z</time></trkpt><trkpt lat="44.7593929" lon="9.3555287"><ele>713.0</ele><time>2026-04-04T07:47:34.6Z</time></trkpt><trkpt lat="44.7592935" lon="9.355545"><ele>713.0</ele><time>2026-04-04T07:47:36.599Z</time></trkpt><trkpt lat="44.7592206" lon="9.3554619"><ele>713.0</ele><time>2026-04-04T07:47:38.6Z</time></trkpt><trkpt lat="44.7591936" lon="9.3553817"><ele>713.0</ele><time>2026-04-04T07:47:39.6Z</time></trkpt><trkpt lat="44.7591726" lon="9.3552952"><ele>720.0</ele><time>2026-04-04T07:47:40.6Z</time></trkpt><trkpt lat="44.7591557" lon="9.3552065"><ele>727.0</ele><time>2026-04-04T07:47:41.6Z</time></trkpt><trkpt lat="44.7591405" lon="9.3551195"><ele>734.0</ele><time>2026-04-04T07:47:42.599Z</time></trkpt><trkpt lat="44.759129" lon="9.3549574"><ele>741.0</ele><time>2026-04-04T07:47:44.601Z</time></trkpt><trkpt lat="44.7591182" lon="9.3548265"><ele>748.0</ele><time>2026-04-04T07:47:46.602Z</time></trkpt><trkpt lat="44.7590777" lon="9.3546699"><ele>750.1666666666667</ele><time>2026-04-04T07:47:48.6Z</time></trkpt><trkpt lat="44.7590578" lon="9.3545839"><ele>752.3333333333334</ele><time>2026-04-04T07:47:49.6Z</time></trkpt><trkpt lat="44.7590418" lon="9.354443"><ele>754.5</ele><time>2026-04-04T07:47:51.6Z</time></trkpt><trkpt lat="44.7590207" lon="9.3543397"><ele>756.6666666666666</ele><time>2026-04-04T07:47:53.601Z</time></trkpt><trkpt lat="44.7589461" lon="9.3542561"><ele>758.8333333333333</ele><time>2026-04-04T07:47:55.606Z</time></trkpt><trkpt lat="44.758881" lon="9.3543313"><ele>761.0</ele><time>2026-04-04T07:47:58.621Z</time></trkpt><trkpt lat="44.7588293" lon="9.3543917"><ele>761.0</ele><time>2026-04-04T07:48:00.601Z</time></trkpt><trkpt lat="44.7588463" lon="9.3545293"><ele>761.0</ele><time>2026-04-04T07:48:02.677Z</time></trkpt><trkpt lat="44.7588445" lon="9.3546357"><ele>761.0</ele><time>2026-04-04T07:48:04.654Z</time></trkpt><trkpt lat="44.7587753" lon="9.3546682"><ele>761.0</ele><time>2026-04-04T07:48:06.63Z</time></trkpt><trkpt lat="44.7587149" lon="9.3547589"><ele>761.0</ele><time>2026-04-04T07:48:10.686Z</time></trkpt><trkpt lat="44.7586408" lon="9.354802"><ele>761.0</ele><time>2026-04-04T07:48:12.591Z</time></trkpt><trkpt lat="44.7585567" lon="9.3548834"><ele>766.8333333333333</ele><time>2026-04-04T07:48:14.601Z</time></trkpt><trkpt lat="44.758461" lon="9.3549659"><ele>772.6666666666666</ele><time>2026-04-04T07:48:16.601Z</time></trkpt><trkpt lat="44.7584018" lon="9.3550334"><ele>778.5</ele><time>2026-04-04T07:48:18.6Z</time></trkpt><trkpt lat="44.7583082" lon="9.3550341"><ele>784.3333333333333</ele><time>2026-04-04T07:48:21.6Z</time></trkpt><trkpt lat="44.758238" lon="9.3550496"><ele>790.1666666666666</ele><time>2026-04-04T07:48:23.602Z</time></trkpt><trkpt lat="44.7581781" lon="9.3550046"><ele>796.0</ele><time>2026-04-04T07:48:27.662Z</time></trkpt><trkpt lat="44.7581263" lon="9.354876"><ele>795.9999999999999</ele><time>2026-04-04T07:48:30.698Z</time></trkpt><trkpt lat="44.7580833" lon="9.3547741"><ele>796.0</ele><time>2026-04-04T07:48:32.654Z</time></trkpt><trkpt lat="44.7580423" lon="9.3546999"><ele>796.0</ele><time>2026-04-04T07:48:34.608Z</time></trkpt><trkpt lat="44.7581017" lon="9.35462"><ele>796.0</ele><time>2026-04-04T07:48:35.601Z</time></trkpt><trkpt lat="44.7580633" lon="9.3545017"><ele>795.9999999999999</ele><time>2026-04-04T07:48:37.601Z</time></trkpt><trkpt lat="44.758035" lon="9.3543683"><ele>796.0</ele><time>2026-04-04T07:48:39.6Z</time></trkpt><trkpt lat="44.75803" lon="9.3541867"><ele>798.9999999999999</ele><time>2026-04-04T07:48:41.6Z</time></trkpt><trkpt lat="44.7580367" lon="9.3540783"><ele>802.0</ele><time>2026-04-04T07:48:42.598Z</time></trkpt><trkpt lat="44.7580483" lon="9.3539767"><ele>805.0</ele><time>2026-04-04T07:48:43.6Z</time></trkpt><trkpt lat="44.75806" lon="9.3538817"><ele>808.0</ele><time>2026-04-04T07:48:44.6Z</time></trkpt><trkpt lat="44.7581" lon="9.3537233"><ele>810.9999999999999</ele><time>2026-04-04T07:48:46.601Z</time></trkpt><trkpt lat="44.758115" lon="9.35362"><ele>814.0</ele><time>2026-04-04T07:48:48.599Z</time></trkpt><trkpt lat="44.7580383" lon="9.3536933"><ele>814.0</ele><time>2026-04-04T07:48:56.601Z</time></trkpt><trkpt lat="44.7579833" lon="9.3537483"><ele>814.0</ele><time>2026-04-04T07:48:58.601Z</time></trkpt><trkpt lat="44.7579233" lon="9.3538233"><ele>814.0</ele><time>2026-04-04T07:49:00.601Z</time></trkpt><trkpt lat="44.7578583" lon="9.3539233"><ele>814.0</ele><time>2026-04-04T07:49:02.6Z</time></trkpt><trkpt lat="44.7577917" lon="9.3540233"><ele>814.0</ele><time>2026-04-04T07:49:04.6Z</time></trkpt><trkpt lat="44.7577233" lon="9.3541567"><ele>817.8571428571429</ele><time>2026-04-04T07:49:06.599Z</time></trkpt><trkpt lat="44.7576867" lon="9.3542367"><ele>821.7142857142858</ele><time>2026-04-04T07:49:07.6Z</time></trkpt><trkpt lat="44.757645" lon="9.35432"><ele>825.5714285714287</ele><time>2026-04-04T07:49:08.599Z</time></trkpt><trkpt lat="44.75759" lon="9.3544067"><ele>829.4285714285714</ele><time>2026-04-04T07:49:09.6Z</time></trkpt><trkpt lat="44.7575433" lon="9.3544833"><ele>833.2857142857142</ele><time>2026-04-04T07:49:10.599Z</time></trkpt><trkpt lat="44.7575033" lon="9.3545583"><ele>837.1428571428572</ele><time>2026-04-04T07:49:11.6Z</time></trkpt><trkpt lat="44.7574717" lon="9.354635"><ele>841.0</ele><time>2026-04-04T07:49:12.601Z</time></trkpt><trkpt lat="44.757405" lon="9.3547483"><ele>841.0</ele><time>2026-04-04T07:49:14.6Z</time></trkpt><trkpt lat="44.757315" lon="9.3548067"><ele>841.0</ele><time>2026-04-04T07:49:16.6Z</time></trkpt><trkpt lat="44.7572433" lon="9.3548833"><ele>841.0</ele><time>2026-04-04T07:49:19.601Z</time></trkpt><trkpt lat="44.7571533" lon="9.3549333"><ele>841.0</ele><time>2026-04-04T07:49:21.602Z</time></trkpt><trkpt lat="44.7570583" lon="9.3549667"><ele>841.0</ele><time>2026-04-04T07:49:23.6Z</time></trkpt><trkpt lat="44.75696" lon="9.3550067"><ele>846.9999999999999</ele><time>2026-04-04T07:49:25.601Z</time></trkpt><trkpt lat="44.75685" lon="9.355055"><ele>853.0</ele><time>2026-04-04T07:49:27.599Z</time></trkpt><trkpt lat="44.7567517" lon="9.3550733"><ele>859.0</ele><time>2026-04-04T07:49:29.6Z</time></trkpt><trkpt lat="44.756665" lon="9.3550667"><ele>865.0</ele><time>2026-04-04T07:49:31.6Z</time></trkpt><trkpt lat="44.75662" lon="9.35499"><ele>870.9999999999999</ele><time>2026-04-04T07:49:34.601Z</time></trkpt><trkpt lat="44.7566133" lon="9.3549017"><ele>877.0</ele><time>2026-04-04T07:49:37.6Z</time></trkpt><trkpt lat="44.75662" lon="9.354805"><ele>881.4000000000001</ele><time>2026-04-04T07:49:39.6Z</time></trkpt><trkpt lat="44.756635" lon="9.3547017"><ele>885.8000000000001</ele><time>2026-04-04T07:49:41.599Z</time></trkpt><trkpt lat="44.756645" lon="9.35454"><ele>890.2</ele><time>2026-04-04T07:49:43.601Z</time></trkpt><trkpt lat="44.7566333" lon="9.354375"><ele>894.6</ele><time>2026-04-04T07:49:45.6Z</time></trkpt><trkpt lat="44.7566233" lon="9.3542"><ele>899.0</ele><time>2026-04-04T07:49:47.6Z</time></trkpt><trkpt lat="44.7566133" lon="9.35405"><ele>899.0000000000001</ele><time>2026-04-04T07:49:49.601Z</time></trkpt><trkpt lat="44.7566233" lon="9.3539133"><ele>899.0</ele><time>2026-04-04T07:49:51.6Z</time></trkpt><trkpt lat="44.7566383" lon="9.3538217"><ele>899.0</ele><time>2026-04-04T07:49:53.601Z</time></trkpt><trkpt lat="44.75655" lon="9.3537367"><ele>899.0</ele><time>2026-04-04T07:49:56.6Z</time></trkpt><trkpt lat="44.7564567" lon="9.3536867"><ele>899.0000000000001</ele><time>2026-04-04T07:49:58.601Z</time></trkpt><trkpt lat="44.7563931" lon="9.3536426"><ele>899.0</ele><time>2026-04-04T07:50:00.601Z</time></trkpt><trkpt lat="44.7564035" lon="9.3535518"><ele>901.3333333333334</ele><time>2026-04-04T07:50:04.6Z</time></trkpt><trkpt lat="44.7564564" lon="9.353368"><ele>903.6666666666667</ele><time>2026-04-04T07:55:07.65Z</time></trkpt><trkpt lat="44.7565204" lon="9.3532834"><ele>906.0</ele><time>2026-04-04T07:55:08.602Z</time></trkpt><trkpt lat="44.7565743" lon="9.3531975"><ele>908.3333333333333</ele><time>2026-04-04T07:55:09.601Z</time></trkpt><trkpt lat="44.7565927" lon="9.3531077"><ele>910.6666666666666</ele><time>2026-04-04T07:55:10.601Z</time></trkpt><trkpt lat="44.756596" lon="9.3530167"><ele>913.0</ele><time>2026-04-04T07:55:11.6Z</time></trkpt><trkpt lat="44.7566004" lon="9.3529249"><ele>914.3333333333333</ele><time>2026-04-04T07:55:12.601Z</time></trkpt><trkpt lat="44.7566093" lon="9.352824"><ele>915.6666666666666</ele><time>2026-04-04T07:55:13.601Z</time></trkpt><trkpt lat="44.7566171" lon="9.3527347"><ele>917.0</ele><time>2026-04-04T07:55:14.601Z</time></trkpt><trkpt lat="44.7566056" lon="9.3525737"><ele>918.3333333333333</ele><time>2026-04-04T07:55:16.601Z</time></trkpt><trkpt lat="44.7565705" lon="9.3524311"><ele>919.6666666666666</ele><time>2026-04-04T07:55:18.601Z</time></trkpt><trkpt lat="44.756529" lon="9.3523192"><ele>921.0</ele><time>2026-04-04T07:55:20.603Z</time></trkpt><trkpt lat="44.7564645" lon="9.3521886"><ele>923.1666666666666</ele><time>2026-04-04T07:55:22.599Z</time></trkpt><trkpt lat="44.7563877" lon="9.3520656"><ele>925.3333333333333</ele><time>2026-04-04T07:55:24.601Z</time></trkpt><trkpt lat="44.7563201" lon="9.3519349"><ele>927.5</ele><time>2026-04-04T07:55:26.601Z</time></trkpt><trkpt lat="44.7562826" lon="9.3518538"><ele>929.6666666666666</ele><time>2026-04-04T07:55:27.6Z</time></trkpt><trkpt lat="44.7562468" lon="9.351778"><ele>931.8333333333333</ele><time>2026-04-04T07:55:28.6Z</time></trkpt><trkpt lat="44.7562062" lon="9.3516969"><ele>934.0</ele><time>2026-04-04T07:55:29.601Z</time></trkpt><trkpt lat="44.7561583" lon="9.3515976"><ele>933.9999999999999</ele><time>2026-04-04T07:55:30.601Z</time></trkpt><trkpt lat="44.756119" lon="9.3515038"><ele>934.0</ele><time>2026-04-04T07:55:31.602Z</time></trkpt><trkpt lat="44.7560795" lon="9.3514105"><ele>934.0</ele><time>2026-04-04T07:55:32.601Z</time></trkpt><trkpt lat="44.7560383" lon="9.3513112"><ele>934.0</ele><time>2026-04-04T07:55:33.6Z</time></trkpt><trkpt lat="44.7559863" lon="9.3512042"><ele>933.9999999999999</ele><time>2026-04-04T07:55:34.601Z</time></trkpt><trkpt lat="44.7559378" lon="9.3511042"><ele>934.0</ele><time>2026-04-04T07:55:35.601Z</time></trkpt><trkpt lat="44.7558993" lon="9.3510067"><ele>933.2857142857142</ele><time>2026-04-04T07:55:36.6Z</time></trkpt><trkpt lat="44.7558551" lon="9.3509204"><ele>932.5714285714286</ele><time>2026-04-04T07:55:37.602Z</time></trkpt><trkpt lat="44.7558174" lon="9.3508383"><ele>931.8571428571429</ele><time>2026-04-04T07:55:38.601Z</time></trkpt><trkpt lat="44.7557629" lon="9.350765"><ele>931.1428571428571</ele><time>2026-04-04T07:55:39.602Z</time></trkpt><trkpt lat="44.7557157" lon="9.3507008"><ele>930.4285714285716</ele><time>2026-04-04T07:55:40.601Z</time></trkpt><trkpt lat="44.75566" lon="9.3506448"><ele>929.7142857142858</ele><time>2026-04-04T07:55:41.601Z</time></trkpt><trkpt lat="44.7555981" lon="9.350599"><ele>929.0</ele><time>2026-04-04T07:55:42.602Z</time></trkpt><trkpt lat="44.7555381" lon="9.3505613"><ele>929.1428571428572</ele><time>2026-04-04T07:55:43.601Z</time></trkpt><trkpt lat="44.755477" lon="9.3505251"><ele>929.2857142857144</ele><time>2026-04-04T07:55:44.601Z</time></trkpt><trkpt lat="44.7554152" lon="9.350491"><ele>929.4285714285714</ele><time>2026-04-04T07:55:45.6Z</time></trkpt><trkpt lat="44.7553561" lon="9.3504498"><ele>929.5714285714287</ele><time>2026-04-04T07:55:46.601Z</time></trkpt><trkpt lat="44.7553019" lon="9.3504022"><ele>929.7142857142858</ele><time>2026-04-04T07:55:47.602Z</time></trkpt><trkpt lat="44.7552527" lon="9.3503443"><ele>929.8571428571429</ele><time>2026-04-04T07:55:48.6Z</time></trkpt><trkpt lat="44.7552066" lon="9.3502811"><ele>930.0</ele><time>2026-04-04T07:55:49.601Z</time></trkpt><trkpt lat="44.7551137" lon="9.3501697"><ele>930.0</ele><time>2026-04-04T07:55:51.602Z</time></trkpt><trkpt lat="44.7550544" lon="9.3501215"><ele>930.0</ele><time>2026-04-04T07:55:52.601Z</time></trkpt><trkpt lat="44.7549874" lon="9.3500779"><ele>930.0</ele><time>2026-04-04T07:55:53.6Z</time></trkpt><trkpt lat="44.7549211" lon="9.3500329"><ele>930.0</ele><time>2026-04-04T07:55:54.6Z</time></trkpt><trkpt lat="44.7548627" lon="9.3499843"><ele>930.0</ele><time>2026-04-04T07:55:55.601Z</time></trkpt><trkpt lat="44.7547702" lon="9.3498658"><ele>930.0</ele><time>2026-04-04T07:55:57.6Z</time></trkpt><trkpt lat="44.7547207" lon="9.3498007"><ele>930.0</ele><time>2026-04-04T07:55:58.6Z</time></trkpt><trkpt lat="44.7546787" lon="9.3497277"><ele>930.0</ele><time>2026-04-04T07:55:59.6Z</time></trkpt><trkpt lat="44.7546386" lon="9.3496407"><ele>930.0</ele><time>2026-04-04T07:56:00.601Z</time></trkpt><trkpt lat="44.7546017" lon="9.3495557"><ele>930.0</ele><time>2026-04-04T07:56:01.6Z</time></trkpt><trkpt lat="44.7545748" lon="9.3494714"><ele>930.0</ele><time>2026-04-04T07:56:02.601Z</time></trkpt><trkpt lat="44.7545517" lon="9.3493845"><ele>930.0</ele><time>2026-04-04T07:56:03.601Z</time></trkpt><trkpt lat="44.7545305" lon="9.3492869"><ele>930.0</ele><time>2026-04-04T07:56:04.601Z</time></trkpt><trkpt lat="44.7545126" lon="9.3491893"><ele>934.0</ele><time>2026-04-04T07:56:05.601Z</time></trkpt><trkpt lat="44.7544995" lon="9.3490946"><ele>938.0</ele><time>2026-04-04T07:56:06.601Z</time></trkpt><trkpt lat="44.7544831" lon="9.3489953"><ele>942.0</ele><time>2026-04-04T07:56:07.601Z</time></trkpt><trkpt lat="44.7544678" lon="9.3488975"><ele>946.0</ele><time>2026-04-04T07:56:08.601Z</time></trkpt><trkpt lat="44.7544595" lon="9.3488072"><ele>950.0</ele><time>2026-04-04T07:56:09.601Z</time></trkpt><trkpt lat="44.7544542" lon="9.3486426"><ele>954.0</ele><time>2026-04-04T07:56:11.602Z</time></trkpt><trkpt lat="44.7544421" lon="9.3484899"><ele>956.6</ele><time>2026-04-04T07:56:13.6Z</time></trkpt><trkpt lat="44.7543949" lon="9.3483679"><ele>959.2</ele><time>2026-04-04T07:56:15.601Z</time></trkpt><trkpt lat="44.7543312" lon="9.3482653"><ele>961.8000000000001</ele><time>2026-04-04T07:56:17.601Z</time></trkpt><trkpt lat="44.7542789" lon="9.3481487"><ele>964.4000000000001</ele><time>2026-04-04T07:56:19.602Z</time></trkpt><trkpt lat="44.7542461" lon="9.3479703"><ele>967.0</ele><time>2026-04-04T07:56:21.601Z</time></trkpt><trkpt lat="44.7542351" lon="9.3478767"><ele>960.4999999999999</ele><time>2026-04-04T07:56:22.601Z</time></trkpt><trkpt lat="44.7542188" lon="9.3477112"><ele>954.0</ele><time>2026-04-04T07:56:24.6Z</time></trkpt><trkpt lat="44.7542151" lon="9.3476223"><ele>947.5</ele><time>2026-04-04T07:56:25.602Z</time></trkpt><trkpt lat="44.7542124" lon="9.3475297"><ele>941.0</ele><time>2026-04-04T07:56:26.603Z</time></trkpt><trkpt lat="44.754226" lon="9.3473586"><ele>934.4999999999999</ele><time>2026-04-04T07:56:28.601Z</time></trkpt><trkpt lat="44.7542419" lon="9.3472499"><ele>928.0</ele><time>2026-04-04T07:56:30.602Z</time></trkpt><trkpt lat="44.7542467" lon="9.3471333"><ele>927.1666666666666</ele><time>2026-04-04T07:56:35.601Z</time></trkpt><trkpt lat="44.7542733" lon="9.3469817"><ele>926.3333333333333</ele><time>2026-04-04T07:56:37.6Z</time></trkpt><trkpt lat="44.75429" lon="9.34688"><ele>925.5</ele><time>2026-04-04T07:56:38.601Z</time></trkpt><trkpt lat="44.7543167" lon="9.3467833"><ele>924.6666666666667</ele><time>2026-04-04T07:56:39.6Z</time></trkpt><trkpt lat="44.75435" lon="9.3466867"><ele>923.8333333333334</ele><time>2026-04-04T07:56:40.6Z</time></trkpt><trkpt lat="44.7543867" lon="9.3465983"><ele>923.0</ele><time>2026-04-04T07:56:41.602Z</time></trkpt><trkpt lat="44.7544183" lon="9.3464917"><ele>929.6666666666667</ele><time>2026-04-04T07:56:42.6Z</time></trkpt><trkpt lat="44.7544467" lon="9.3463883"><ele>936.3333333333334</ele><time>2026-04-04T07:56:43.601Z</time></trkpt><trkpt lat="44.75448" lon="9.3462783"><ele>943.0</ele><time>2026-04-04T07:56:44.602Z</time></trkpt><trkpt lat="44.75451" lon="9.3461733"><ele>949.6666666666667</ele><time>2026-04-04T07:56:45.601Z</time></trkpt><trkpt lat="44.75454" lon="9.34606"><ele>956.3333333333334</ele><time>2026-04-04T07:56:46.601Z</time></trkpt><trkpt lat="44.754575" lon="9.345955"><ele>963.0</ele><time>2026-04-04T07:56:47.602Z</time></trkpt><trkpt lat="44.7546017" lon="9.3458533"><ele>963.0</ele><time>2026-04-04T07:56:48.601Z</time></trkpt><trkpt lat="44.7546167" lon="9.34576"><ele>963.0</ele><time>2026-04-04T07:56:49.603Z</time></trkpt><trkpt lat="44.7546167" lon="9.345605"><ele>963.0</ele><time>2026-04-04T07:56:51.6Z</time></trkpt><trkpt lat="44.754635" lon="9.3454433"><ele>963.0</ele><time>2026-04-04T07:56:53.601Z</time></trkpt><trkpt lat="44.7546533" lon="9.3453433"><ele>963.0</ele><time>2026-04-04T07:56:54.601Z</time></trkpt><trkpt lat="44.7546833" lon="9.3452583"><ele>963.0</ele><time>2026-04-04T07:56:55.599Z</time></trkpt><trkpt lat="44.7547233" lon="9.345175"><ele>960.5714285714287</ele><time>2026-04-04T07:56:56.601Z</time></trkpt><trkpt lat="44.7547633" lon="9.3450967"><ele>958.1428571428571</ele><time>2026-04-04T07:56:57.6Z</time></trkpt><trkpt lat="44.7548067" lon="9.345025"><ele>955.7142857142858</ele><time>2026-04-04T07:56:58.601Z</time></trkpt><trkpt lat="44.7548467" lon="9.3449483"><ele>953.2857142857143</ele><time>2026-04-04T07:56:59.601Z</time></trkpt><trkpt lat="44.75488" lon="9.3448633"><ele>950.8571428571429</ele><time>2026-04-04T07:57:00.6Z</time></trkpt><trkpt lat="44.7549133" lon="9.3447533"><ele>948.4285714285714</ele><time>2026-04-04T07:57:01.6Z</time></trkpt><trkpt lat="44.7549417" lon="9.3446417"><ele>946.0</ele><time>2026-04-04T07:57:02.6Z</time></trkpt><trkpt lat="44.7549717" lon="9.3445317"><ele>948.4285714285714</ele><time>2026-04-04T07:57:03.601Z</time></trkpt><trkpt lat="44.7550017" lon="9.3444333"><ele>950.8571428571429</ele><time>2026-04-04T07:57:04.602Z</time></trkpt><trkpt lat="44.7550433" lon="9.3443583"><ele>953.2857142857143</ele><time>2026-04-04T07:57:05.601Z</time></trkpt><trkpt lat="44.75509" lon="9.3442817"><ele>955.7142857142858</ele><time>2026-04-04T07:57:06.601Z</time></trkpt><trkpt lat="44.755135" lon="9.3441983"><ele>958.1428571428571</ele><time>2026-04-04T07:57:07.6Z</time></trkpt><trkpt lat="44.7551683" lon="9.344115"><ele>960.5714285714287</ele><time>2026-04-04T07:57:08.601Z</time></trkpt><trkpt lat="44.7552067" lon="9.3440283"><ele>963.0000000000001</ele><time>2026-04-04T07:57:09.601Z</time></trkpt><trkpt lat="44.7552433" lon="9.343945"><ele>957.8333333333334</ele><time>2026-04-04T07:57:10.606Z</time></trkpt><trkpt lat="44.75528" lon="9.3438683"><ele>952.6666666666667</ele><time>2026-04-04T07:57:11.601Z</time></trkpt><trkpt lat="44.7553267" lon="9.3437933"><ele>947.5</ele><time>2026-04-04T07:57:12.603Z</time></trkpt><trkpt lat="44.755385" lon="9.34372"><ele>942.3333333333334</ele><time>2026-04-04T07:57:13.601Z</time></trkpt><trkpt lat="44.75545" lon="9.34365"><ele>937.1666666666667</ele><time>2026-04-04T07:57:14.601Z</time></trkpt><trkpt lat="44.7555133" lon="9.3435917"><ele>932.0</ele><time>2026-04-04T07:57:15.601Z</time></trkpt><trkpt lat="44.7556" lon="9.3434783"><ele>932.0</ele><time>2026-04-04T07:57:17.601Z</time></trkpt><trkpt lat="44.7556933" lon="9.3434133"><ele>932.0</ele><time>2026-04-04T07:57:19.601Z</time></trkpt><trkpt lat="44.75579" lon="9.3433333"><ele>932.0</ele><time>2026-04-04T07:57:21.6Z</time></trkpt><trkpt lat="44.755865" lon="9.3432017"><ele>932.0</ele><time>2026-04-04T07:57:23.602Z</time></trkpt><trkpt lat="44.7559117" lon="9.3431333"><ele>932.0</ele><time>2026-04-04T07:57:24.601Z</time></trkpt><trkpt lat="44.755955" lon="9.3430683"><ele>929.8</ele><time>2026-04-04T07:57:25.602Z</time></trkpt><trkpt lat="44.756035" lon="9.3429467"><ele>927.6</ele><time>2026-04-04T07:57:27.601Z</time></trkpt><trkpt lat="44.7561067" lon="9.3428067"><ele>925.3999999999999</ele><time>2026-04-04T07:57:29.6Z</time></trkpt><trkpt lat="44.7561483" lon="9.3427283"><ele>923.1999999999999</ele><time>2026-04-04T07:57:30.602Z</time></trkpt><trkpt lat="44.7561983" lon="9.3426383"><ele>921.0</ele><time>2026-04-04T07:57:31.601Z</time></trkpt><trkpt lat="44.7562483" lon="9.3425517"><ele>927.6666666666666</ele><time>2026-04-04T07:57:32.601Z</time></trkpt><trkpt lat="44.756295" lon="9.342455"><ele>934.3333333333333</ele><time>2026-04-04T07:57:33.601Z</time></trkpt><trkpt lat="44.756335" lon="9.3423433"><ele>941.0</ele><time>2026-04-04T07:57:34.601Z</time></trkpt><trkpt lat="44.7563583" lon="9.3422417"><ele>947.6666666666666</ele><time>2026-04-04T07:57:35.601Z</time></trkpt><trkpt lat="44.7563717" lon="9.3421383"><ele>954.3333333333333</ele><time>2026-04-04T07:57:36.602Z</time></trkpt><trkpt lat="44.75637" lon="9.3420417"><ele>961.0</ele><time>2026-04-04T07:57:37.601Z</time></trkpt><trkpt lat="44.75637" lon="9.3419383"><ele>961.0</ele><time>2026-04-04T07:57:39.601Z</time></trkpt><trkpt lat="44.7562529" lon="9.3419132"><ele>961.0</ele><time>2026-04-04T07:58:01.6Z</time></trkpt><trkpt lat="44.7562589" lon="9.3417384"><ele>961.0</ele><time>2026-04-04T07:58:06.601Z</time></trkpt><trkpt lat="44.7563887" lon="9.3416091"><ele>961.0</ele><time>2026-04-04T07:58:10.653Z</time></trkpt><trkpt lat="44.7563367" lon="9.3413843"><ele>963.1999999999999</ele><time>2026-04-04T07:58:16.56Z</time></trkpt><trkpt lat="44.7562372" lon="9.3413078"><ele>965.3999999999999</ele><time>2026-04-04T07:58:18.661Z</time></trkpt><trkpt lat="44.7562202" lon="9.341117"><ele>967.6</ele><time>2026-04-04T07:58:22.601Z</time></trkpt><trkpt lat="44.7562644" lon="9.3410082"><ele>969.8</ele><time>2026-04-04T07:58:23.6Z</time></trkpt><trkpt lat="44.7563136" lon="9.3409151"><ele>972.0</ele><time>2026-04-04T07:58:24.601Z</time></trkpt><trkpt lat="44.7564063" lon="9.3408523"><ele>972.0</ele><time>2026-04-04T07:58:26.601Z</time></trkpt><trkpt lat="44.7565031" lon="9.3407991"><ele>972.0</ele><time>2026-04-04T07:58:28.601Z</time></trkpt><trkpt lat="44.7565736" lon="9.3407018"><ele>972.0</ele><time>2026-04-04T07:58:30.6Z</time></trkpt><trkpt lat="44.7565954" lon="9.3405518"><ele>972.0</ele><time>2026-04-04T07:58:32.601Z</time></trkpt><trkpt lat="44.7566019" lon="9.3404429"><ele>972.0</ele><time>2026-04-04T07:58:33.601Z</time></trkpt><trkpt lat="44.7566106" lon="9.3403396"><ele>971.3333333333334</ele><time>2026-04-04T07:58:34.601Z</time></trkpt><trkpt lat="44.7566359" lon="9.3402555"><ele>970.6666666666667</ele><time>2026-04-04T07:58:35.603Z</time></trkpt><trkpt lat="44.7566729" lon="9.3401802"><ele>970.0</ele><time>2026-04-04T07:58:36.601Z</time></trkpt><trkpt lat="44.7567148" lon="9.3401051"><ele>969.3333333333334</ele><time>2026-04-04T07:58:37.601Z</time></trkpt><trkpt lat="44.7567567" lon="9.34003"><ele>968.6666666666667</ele><time>2026-04-04T07:58:38.6Z</time></trkpt><trkpt lat="44.7568083" lon="9.3398983"><ele>968.0</ele><time>2026-04-04T07:58:40.6Z</time></trkpt><trkpt lat="44.7568667" lon="9.3397583"><ele>970.5000000000001</ele><time>2026-04-04T07:58:42.601Z</time></trkpt><trkpt lat="44.7569317" lon="9.3396117"><ele>973.0</ele><time>2026-04-04T07:58:44.6Z</time></trkpt><trkpt lat="44.7569667" lon="9.339535"><ele>975.5</ele><time>2026-04-04T07:58:45.601Z</time></trkpt><trkpt lat="44.757005" lon="9.3394533"><ele>978.0</ele><time>2026-04-04T07:58:46.6Z</time></trkpt><trkpt lat="44.7570467" lon="9.339375"><ele>980.5000000000001</ele><time>2026-04-04T07:58:47.601Z</time></trkpt><trkpt lat="44.757085" lon="9.3393"><ele>983.0</ele><time>2026-04-04T07:58:48.601Z</time></trkpt><trkpt lat="44.757175" lon="9.33919"><ele>983.0000000000001</ele><time>2026-04-04T07:58:50.602Z</time></trkpt><trkpt lat="44.7572567" lon="9.3391333"><ele>983.0</ele><time>2026-04-04T07:58:52.602Z</time></trkpt><trkpt lat="44.7571983" lon="9.3391"><ele>983.0</ele><time>2026-04-04T07:59:05.601Z</time></trkpt><trkpt lat="44.7571417" lon="9.3390267"><ele>983.0</ele><time>2026-04-04T07:59:06.601Z</time></trkpt><trkpt lat="44.7570917" lon="9.33895"><ele>983.0000000000001</ele><time>2026-04-04T07:59:07.601Z</time></trkpt><trkpt lat="44.7570417" lon="9.338875"><ele>983.0</ele><time>2026-04-04T07:59:08.604Z</time></trkpt><trkpt lat="44.7569833" lon="9.3387933"><ele>981.2857142857142</ele><time>2026-04-04T07:59:09.601Z</time></trkpt><trkpt lat="44.7569317" lon="9.3387217"><ele>979.5714285714286</ele><time>2026-04-04T07:59:10.6Z</time></trkpt><trkpt lat="44.756885" lon="9.3386533"><ele>977.8571428571429</ele><time>2026-04-04T07:59:11.601Z</time></trkpt><trkpt lat="44.7568333" lon="9.3385867"><ele>976.1428571428571</ele><time>2026-04-04T07:59:12.601Z</time></trkpt><trkpt lat="44.75678" lon="9.3385317"><ele>974.4285714285716</ele><time>2026-04-04T07:59:13.601Z</time></trkpt><trkpt lat="44.756725" lon="9.3384733"><ele>972.7142857142858</ele><time>2026-04-04T07:59:14.601Z</time></trkpt><trkpt lat="44.75667" lon="9.3384083"><ele>971.0</ele><time>2026-04-04T07:59:15.601Z</time></trkpt><trkpt lat="44.7566067" lon="9.3383433"><ele>971.0</ele><time>2026-04-04T07:59:16.6Z</time></trkpt><trkpt lat="44.756535" lon="9.3382867"><ele>971.0000000000001</ele><time>2026-04-04T07:59:17.601Z</time></trkpt><trkpt lat="44.7564617" lon="9.33823"><ele>971.0</ele><time>2026-04-04T07:59:18.602Z</time></trkpt><trkpt lat="44.7564017" lon="9.338175"><ele>971.0</ele><time>2026-04-04T07:59:19.601Z</time></trkpt><trkpt lat="44.7563483" lon="9.33812"><ele>971.0000000000001</ele><time>2026-04-04T07:59:20.602Z</time></trkpt><trkpt lat="44.7562933" lon="9.3380717"><ele>971.0</ele><time>2026-04-04T07:59:21.601Z</time></trkpt><trkpt lat="44.7562317" lon="9.3380267"><ele>971.0</ele><time>2026-04-04T07:59:22.601Z</time></trkpt><trkpt lat="44.7561717" lon="9.3379933"><ele>973.5999999999999</ele><time>2026-04-04T07:59:23.601Z</time></trkpt><trkpt lat="44.7560467" lon="9.3379017"><ele>976.1999999999999</ele><time>2026-04-04T07:59:25.602Z</time></trkpt><trkpt lat="44.75598" lon="9.33786"><ele>978.8000000000001</ele><time>2026-04-04T07:59:26.603Z</time></trkpt><trkpt lat="44.7559167" lon="9.3378183"><ele>981.4000000000001</ele><time>2026-04-04T07:59:27.6Z</time></trkpt><trkpt lat="44.7558067" lon="9.33775"><ele>984.0</ele><time>2026-04-04T07:59:29.602Z</time></trkpt><trkpt lat="44.7557283" lon="9.3377167"><ele>984.0</ele><time>2026-04-04T07:59:30.601Z</time></trkpt><trkpt lat="44.755655" lon="9.337695"><ele>984.0</ele><time>2026-04-04T07:59:31.602Z</time></trkpt><trkpt lat="44.75557" lon="9.3376717"><ele>984.0</ele><time>2026-04-04T07:59:32.601Z</time></trkpt><trkpt lat="44.75549" lon="9.337645"><ele>984.0</ele><time>2026-04-04T07:59:33.601Z</time></trkpt><trkpt lat="44.7554117" lon="9.33761"><ele>984.0</ele><time>2026-04-04T07:59:34.602Z</time></trkpt><trkpt lat="44.7553217" lon="9.3375783"><ele>984.0</ele><time>2026-04-04T07:59:35.602Z</time></trkpt><trkpt lat="44.7552367" lon="9.3375483"><ele>985.0</ele><time>2026-04-04T07:59:36.602Z</time></trkpt><trkpt lat="44.75516" lon="9.3375283"><ele>986.0</ele><time>2026-04-04T07:59:37.602Z</time></trkpt><trkpt lat="44.7550817" lon="9.3375167"><ele>987.0</ele><time>2026-04-04T07:59:38.602Z</time></trkpt><trkpt lat="44.7550183" lon="9.3375033"><ele>988.0</ele><time>2026-04-04T07:59:39.601Z</time></trkpt><trkpt lat="44.7549017" lon="9.337455"><ele>989.0</ele><time>2026-04-04T07:59:41.601Z</time></trkpt><trkpt lat="44.7548417" lon="9.3374233"><ele>990.0</ele><time>2026-04-04T07:59:42.6Z</time></trkpt><trkpt lat="44.754745" lon="9.33734"><ele>990.0</ele><time>2026-04-04T07:59:44.603Z</time></trkpt><trkpt lat="44.75468" lon="9.3372817"><ele>990.0</ele><time>2026-04-04T07:59:45.603Z</time></trkpt><trkpt lat="44.7545833" lon="9.337205"><ele>990.0</ele><time>2026-04-04T07:59:47.601Z</time></trkpt><trkpt lat="44.7544683" lon="9.33714"><ele>990.0</ele><time>2026-04-04T07:59:49.602Z</time></trkpt><trkpt lat="44.7544067" lon="9.3371117"><ele>990.0</ele><time>2026-04-04T07:59:50.602Z</time></trkpt><trkpt lat="44.754345" lon="9.337075"><ele>990.0</ele><time>2026-04-04T07:59:51.601Z</time></trkpt><trkpt lat="44.7542483" lon="9.3369933"><ele>987.4</ele><time>2026-04-04T07:59:53.602Z</time></trkpt><trkpt lat="44.754175" lon="9.3368483"><ele>984.8</ele><time>2026-04-04T07:59:55.602Z</time></trkpt><trkpt lat="44.7541333" lon="9.3367717"><ele>982.2</ele><time>2026-04-04T07:59:56.602Z</time></trkpt><trkpt lat="44.7540717" lon="9.3366367"><ele>979.6</ele><time>2026-04-04T07:59:58.602Z</time></trkpt><trkpt lat="44.7540133" lon="9.3365383"><ele>977.0</ele><time>2026-04-04T08:00:00.6Z</time></trkpt><trkpt lat="44.7539583" lon="9.3364033"><ele>976.4000000000001</ele><time>2026-04-04T08:00:02.602Z</time></trkpt><trkpt lat="44.7539633" lon="9.33625"><ele>975.8000000000001</ele><time>2026-04-04T08:00:04.602Z</time></trkpt><trkpt lat="44.7539433" lon="9.3361033"><ele>975.2</ele><time>2026-04-04T08:00:06.601Z</time></trkpt><trkpt lat="44.75391" lon="9.3360017"><ele>974.6</ele><time>2026-04-04T08:00:07.602Z</time></trkpt><trkpt lat="44.7538167" lon="9.3358467"><ele>974.0</ele><time>2026-04-04T08:00:09.601Z</time></trkpt><trkpt lat="44.7537333" lon="9.335745"><ele>974.0</ele><time>2026-04-04T08:00:10.602Z</time></trkpt><trkpt lat="44.7536583" lon="9.3356717"><ele>974.0000000000001</ele><time>2026-04-04T08:00:11.602Z</time></trkpt><trkpt lat="44.7535783" lon="9.3356"><ele>974.0000000000001</ele><time>2026-04-04T08:00:12.6Z</time></trkpt><trkpt lat="44.753505" lon="9.3355417"><ele>974.0</ele><time>2026-04-04T08:00:13.602Z</time></trkpt><trkpt lat="44.7534233" lon="9.3354883"><ele>974.0</ele><time>2026-04-04T08:00:14.602Z</time></trkpt><trkpt lat="44.7533317" lon="9.335435"><ele>974.5000000000001</ele><time>2026-04-04T08:00:15.6Z</time></trkpt><trkpt lat="44.7532517" lon="9.3353917"><ele>975.0</ele><time>2026-04-04T08:00:16.6Z</time></trkpt><trkpt lat="44.7531683" lon="9.33536"><ele>975.5</ele><time>2026-04-04T08:00:17.601Z</time></trkpt><trkpt lat="44.753095" lon="9.33533"><ele>976.0</ele><time>2026-04-04T08:00:18.602Z</time></trkpt><trkpt lat="44.7530033" lon="9.3352783"><ele>976.5000000000001</ele><time>2026-04-04T08:00:20.602Z</time></trkpt><trkpt lat="44.7529367" lon="9.3351883"><ele>977.0</ele><time>2026-04-04T08:00:22.601Z</time></trkpt><trkpt lat="44.7529067" lon="9.3351"><ele>977.0000000000001</ele><time>2026-04-04T08:00:23.6Z</time></trkpt><trkpt lat="44.7528767" lon="9.3350083"><ele>977.0</ele><time>2026-04-04T08:00:24.601Z</time></trkpt><trkpt lat="44.7528083" lon="9.3348767"><ele>977.0</ele><time>2026-04-04T08:00:26.601Z</time></trkpt><trkpt lat="44.752745" lon="9.3348117"><ele>977.0</ele><time>2026-04-04T08:00:27.601Z</time></trkpt><trkpt lat="44.75269" lon="9.3347383"><ele>977.0000000000001</ele><time>2026-04-04T08:00:28.601Z</time></trkpt><trkpt lat="44.7526433" lon="9.3346617"><ele>977.0</ele><time>2026-04-04T08:00:29.602Z</time></trkpt><trkpt lat="44.7526067" lon="9.3345833"><ele>977.6666666666667</ele><time>2026-04-04T08:00:30.601Z</time></trkpt><trkpt lat="44.7525583" lon="9.3345"><ele>978.3333333333334</ele><time>2026-04-04T08:00:31.602Z</time></trkpt><trkpt lat="44.7525167" lon="9.33443"><ele>979.0</ele><time>2026-04-04T08:00:32.601Z</time></trkpt><trkpt lat="44.7524683" lon="9.3343683"><ele>979.6666666666667</ele><time>2026-04-04T08:00:33.601Z</time></trkpt><trkpt lat="44.7524183" lon="9.3343083"><ele>980.3333333333334</ele><time>2026-04-04T08:00:34.601Z</time></trkpt><trkpt lat="44.752325" lon="9.3342133"><ele>981.0</ele><time>2026-04-04T08:00:36.601Z</time></trkpt><trkpt lat="44.7522017" lon="9.3341533"><ele>981.0</ele><time>2026-04-04T08:00:38.602Z</time></trkpt><trkpt lat="44.7521383" lon="9.3341233"><ele>981.0</ele><time>2026-04-04T08:00:39.602Z</time></trkpt><trkpt lat="44.752075" lon="9.33409"><ele>981.0</ele><time>2026-04-04T08:00:40.603Z</time></trkpt><trkpt lat="44.75201" lon="9.3340717"><ele>981.0</ele><time>2026-04-04T08:00:41.601Z</time></trkpt><trkpt lat="44.7519383" lon="9.334055"><ele>981.0</ele><time>2026-04-04T08:00:42.601Z</time></trkpt><trkpt lat="44.7518683" lon="9.334025"><ele>981.0</ele><time>2026-04-04T08:00:43.601Z</time></trkpt><trkpt lat="44.7517967" lon="9.3339917"><ele>981.0</ele><time>2026-04-04T08:00:44.6Z</time></trkpt><trkpt lat="44.7517233" lon="9.333955"><ele>980.5999999999999</ele><time>2026-04-04T08:00:45.6Z</time></trkpt><trkpt lat="44.75165" lon="9.3339183"><ele>980.1999999999999</ele><time>2026-04-04T08:00:46.602Z</time></trkpt><trkpt lat="44.7515867" lon="9.3338717"><ele>979.8000000000001</ele><time>2026-04-04T08:00:47.6Z</time></trkpt><trkpt lat="44.7514967" lon="9.3337567"><ele>979.4000000000001</ele><time>2026-04-04T08:00:49.602Z</time></trkpt><trkpt lat="44.75146" lon="9.3336033"><ele>979.0</ele><time>2026-04-04T08:00:51.601Z</time></trkpt><trkpt lat="44.7514117" lon="9.33348"><ele>979.0</ele><time>2026-04-04T08:00:53.6Z</time></trkpt><trkpt lat="44.7513467" lon="9.3333767"><ele>979.0000000000001</ele><time>2026-04-04T08:00:55.602Z</time></trkpt><trkpt lat="44.7512633" lon="9.3333217"><ele>979.0000000000001</ele><time>2026-04-04T08:00:58.601Z</time></trkpt><trkpt lat="44.7511983" lon="9.33322"><ele>979.0</ele><time>2026-04-04T08:01:00.601Z</time></trkpt><trkpt lat="44.7511217" lon="9.33308"><ele>979.0</ele><time>2026-04-04T08:01:02.602Z</time></trkpt><trkpt lat="44.75106" lon="9.3329417"><ele>977.6</ele><time>2026-04-04T08:01:04.6Z</time></trkpt><trkpt lat="44.7509883" lon="9.3328"><ele>976.2</ele><time>2026-04-04T08:01:06.601Z</time></trkpt><trkpt lat="44.7509217" lon="9.3327183"><ele>974.8000000000001</ele><time>2026-04-04T08:01:08.601Z</time></trkpt><trkpt lat="44.750845" lon="9.3326717"><ele>973.4000000000001</ele><time>2026-04-04T08:01:10.602Z</time></trkpt><trkpt lat="44.750755" lon="9.332615"><ele>972.0</ele><time>2026-04-04T08:01:12.601Z</time></trkpt><trkpt lat="44.7506683" lon="9.3325417"><ele>972.0</ele><time>2026-04-04T08:01:14.6Z</time></trkpt><trkpt lat="44.750565" lon="9.332425"><ele>972.0</ele><time>2026-04-04T08:01:16.601Z</time></trkpt><trkpt lat="44.75051" lon="9.3323533"><ele>972.0</ele><time>2026-04-04T08:01:17.602Z</time></trkpt><trkpt lat="44.7504533" lon="9.3322783"><ele>972.0</ele><time>2026-04-04T08:01:18.6Z</time></trkpt><trkpt lat="44.7504033" lon="9.33222"><ele>972.0</ele><time>2026-04-04T08:01:19.601Z</time></trkpt><trkpt lat="44.7503383" lon="9.3321733"><ele>972.0</ele><time>2026-04-04T08:01:20.603Z</time></trkpt><trkpt lat="44.7502783" lon="9.3321233"><ele>971.0</ele><time>2026-04-04T08:01:21.603Z</time></trkpt><trkpt lat="44.75022" lon="9.3320733"><ele>970.0</ele><time>2026-04-04T08:01:22.601Z</time></trkpt><trkpt lat="44.750155" lon="9.3320317"><ele>969.0</ele><time>2026-04-04T08:01:23.603Z</time></trkpt><trkpt lat="44.75005" lon="9.3319583"><ele>968.0</ele><time>2026-04-04T08:01:25.601Z</time></trkpt><trkpt lat="44.74993" lon="9.3318817"><ele>967.0</ele><time>2026-04-04T08:02:38.602Z</time></trkpt><trkpt lat="44.749855" lon="9.3317883"><ele>966.9999999999999</ele><time>2026-04-04T08:02:40.6Z</time></trkpt><trkpt lat="44.749765" lon="9.3316933"><ele>967.0</ele><time>2026-04-04T08:02:42.601Z</time></trkpt><trkpt lat="44.7496983" lon="9.3316433"><ele>967.0</ele><time>2026-04-04T08:02:43.601Z</time></trkpt><trkpt lat="44.7496417" lon="9.3315967"><ele>967.0</ele><time>2026-04-04T08:02:44.601Z</time></trkpt><trkpt lat="44.7495867" lon="9.3315417"><ele>966.9999999999999</ele><time>2026-04-04T08:02:45.601Z</time></trkpt><trkpt lat="44.7495283" lon="9.33146"><ele>967.0</ele><time>2026-04-04T08:02:46.601Z</time></trkpt><trkpt lat="44.7494683" lon="9.33135"><ele>967.8</ele><time>2026-04-04T08:02:47.602Z</time></trkpt><trkpt lat="44.749415" lon="9.33124"><ele>968.6</ele><time>2026-04-04T08:02:48.601Z</time></trkpt><trkpt lat="44.749365" lon="9.3311367"><ele>969.3999999999999</ele><time>2026-04-04T08:02:49.602Z</time></trkpt><trkpt lat="44.7492933" lon="9.3310183"><ele>970.1999999999999</ele><time>2026-04-04T08:02:50.601Z</time></trkpt><trkpt lat="44.7492133" lon="9.33095"><ele>971.0</ele><time>2026-04-04T08:02:51.6Z</time></trkpt><trkpt lat="44.7491317" lon="9.3308783"><ele>971.0000000000001</ele><time>2026-04-04T08:02:52.601Z</time></trkpt><trkpt lat="44.7490567" lon="9.3308"><ele>971.0</ele><time>2026-04-04T08:02:53.601Z</time></trkpt><trkpt lat="44.74899" lon="9.33072"><ele>971.0</ele><time>2026-04-04T08:02:54.603Z</time></trkpt><trkpt lat="44.7489367" lon="9.33063"><ele>971.0</ele><time>2026-04-04T08:02:55.6Z</time></trkpt><trkpt lat="44.748905" lon="9.3305417"><ele>971.0000000000001</ele><time>2026-04-04T08:02:56.601Z</time></trkpt><trkpt lat="44.7488633" lon="9.33041"><ele>971.0</ele><time>2026-04-04T08:02:58.601Z</time></trkpt><trkpt lat="44.748805" lon="9.3303533"><ele>971.5000000000001</ele><time>2026-04-04T08:03:00.6Z</time></trkpt><trkpt lat="44.74874" lon="9.3303183"><ele>972.0</ele><time>2026-04-04T08:03:02.601Z</time></trkpt><trkpt lat="44.74865" lon="9.3302683"><ele>972.5</ele><time>2026-04-04T08:03:04.601Z</time></trkpt><trkpt lat="44.7485517" lon="9.33015"><ele>973.0</ele><time>2026-04-04T08:03:06.601Z</time></trkpt><trkpt lat="44.7484983" lon="9.3300917"><ele>973.5000000000001</ele><time>2026-04-04T08:03:07.601Z</time></trkpt><trkpt lat="44.748435" lon="9.3300417"><ele>974.0</ele><time>2026-04-04T08:03:08.601Z</time></trkpt><trkpt lat="44.748365" lon="9.3300033"><ele>974.6666666666667</ele><time>2026-04-04T08:03:09.601Z</time></trkpt><trkpt lat="44.7483033" lon="9.329945"><ele>975.3333333333334</ele><time>2026-04-04T08:03:10.601Z</time></trkpt><trkpt lat="44.7482467" lon="9.3298833"><ele>976.0</ele><time>2026-04-04T08:03:11.601Z</time></trkpt><trkpt lat="44.7481817" lon="9.329825"><ele>976.6666666666667</ele><time>2026-04-04T08:03:12.6Z</time></trkpt><trkpt lat="44.7481117" lon="9.3297667"><ele>977.3333333333334</ele><time>2026-04-04T08:03:13.601Z</time></trkpt><trkpt lat="44.748025" lon="9.329715"><ele>978.0</ele><time>2026-04-04T08:03:14.601Z</time></trkpt><trkpt lat="44.7479383" lon="9.3296733"><ele>978.0</ele><time>2026-04-04T08:03:15.601Z</time></trkpt><trkpt lat="44.7478467" lon="9.329625"><ele>978.0</ele><time>2026-04-04T08:03:16.602Z</time></trkpt><trkpt lat="44.7477433" lon="9.329575"><ele>978.0</ele><time>2026-04-04T08:03:17.601Z</time></trkpt><trkpt lat="44.7476467" lon="9.32954"><ele>978.0</ele><time>2026-04-04T08:03:18.601Z</time></trkpt><trkpt lat="44.747555" lon="9.3295083"><ele>978.0</ele><time>2026-04-04T08:03:19.6Z</time></trkpt><trkpt lat="44.74747" lon="9.32949"><ele>979.0</ele><time>2026-04-04T08:03:20.602Z</time></trkpt><trkpt lat="44.7473833" lon="9.3294817"><ele>980.0</ele><time>2026-04-04T08:03:21.601Z</time></trkpt><trkpt lat="44.7472983" lon="9.329475"><ele>981.0</ele><time>2026-04-04T08:03:22.6Z</time></trkpt><trkpt lat="44.7472167" lon="9.3294617"><ele>982.0</ele><time>2026-04-04T08:03:23.602Z</time></trkpt><trkpt lat="44.747125" lon="9.3294517"><ele>983.0</ele><time>2026-04-04T08:03:24.601Z</time></trkpt><trkpt lat="44.747025" lon="9.3294533"><ele>984.0</ele><time>2026-04-04T08:03:25.603Z</time></trkpt><trkpt lat="44.746925" lon="9.3294483"><ele>983.8333333333334</ele><time>2026-04-04T08:03:26.603Z</time></trkpt><trkpt lat="44.74683" lon="9.329445"><ele>983.6666666666667</ele><time>2026-04-04T08:03:27.601Z</time></trkpt><trkpt lat="44.7467483" lon="9.3294267"><ele>983.5</ele><time>2026-04-04T08:03:28.6Z</time></trkpt><trkpt lat="44.7466817" lon="9.32937"><ele>983.3333333333334</ele><time>2026-04-04T08:03:29.601Z</time></trkpt><trkpt lat="44.7466367" lon="9.3292917"><ele>983.1666666666667</ele><time>2026-04-04T08:03:30.601Z</time></trkpt><trkpt lat="44.74659" lon="9.3292233"><ele>983.0</ele><time>2026-04-04T08:03:31.601Z</time></trkpt><trkpt lat="44.7465617" lon="9.3291433"><ele>983.0000000000001</ele><time>2026-04-04T08:03:32.602Z</time></trkpt><trkpt lat="44.7465233" lon="9.3290533"><ele>983.0</ele><time>2026-04-04T08:03:33.601Z</time></trkpt><trkpt lat="44.746485" lon="9.3289417"><ele>983.0</ele><time>2026-04-04T08:03:34.6Z</time></trkpt><trkpt lat="44.7464533" lon="9.3288167"><ele>983.0</ele><time>2026-04-04T08:03:35.601Z</time></trkpt><trkpt lat="44.7464233" lon="9.3287067"><ele>983.0000000000001</ele><time>2026-04-04T08:03:36.601Z</time></trkpt><trkpt lat="44.7463883" lon="9.3286067"><ele>983.0</ele><time>2026-04-04T08:03:37.6Z</time></trkpt><trkpt lat="44.7463467" lon="9.3285267"><ele>983.3333333333334</ele><time>2026-04-04T08:03:38.602Z</time></trkpt><trkpt lat="44.7462917" lon="9.3284583"><ele>983.6666666666667</ele><time>2026-04-04T08:03:39.601Z</time></trkpt><trkpt lat="44.7462417" lon="9.3283933"><ele>984.0</ele><time>2026-04-04T08:03:40.601Z</time></trkpt><trkpt lat="44.7461783" lon="9.3282867"><ele>984.3333333333333</ele><time>2026-04-04T08:03:42.601Z</time></trkpt><trkpt lat="44.7461267" lon="9.3281967"><ele>984.6666666666666</ele><time>2026-04-04T08:03:45.601Z</time></trkpt><trkpt lat="44.7460667" lon="9.3281383"><ele>985.0</ele><time>2026-04-04T08:03:47.6Z</time></trkpt><trkpt lat="44.745955" lon="9.3280433"><ele>984.2857142857143</ele><time>2026-04-04T08:03:49.602Z</time></trkpt><trkpt lat="44.745895" lon="9.3279917"><ele>983.5714285714287</ele><time>2026-04-04T08:03:50.602Z</time></trkpt><trkpt lat="44.7458383" lon="9.3279417"><ele>982.8571428571429</ele><time>2026-04-04T08:03:51.6Z</time></trkpt><trkpt lat="44.7457833" lon="9.3278883"><ele>982.1428571428571</ele><time>2026-04-04T08:03:52.602Z</time></trkpt><trkpt lat="44.7457317" lon="9.32783"><ele>981.4285714285714</ele><time>2026-04-04T08:03:53.601Z</time></trkpt><trkpt lat="44.7456783" lon="9.32777"><ele>980.7142857142858</ele><time>2026-04-04T08:03:54.6Z</time></trkpt><trkpt lat="44.7456267" lon="9.3277117"><ele>980.0</ele><time>2026-04-04T08:03:55.602Z</time></trkpt><trkpt lat="44.7455817" lon="9.3276467"><ele>980.0000000000001</ele><time>2026-04-04T08:03:56.602Z</time></trkpt><trkpt lat="44.7455367" lon="9.3275717"><ele>980.0</ele><time>2026-04-04T08:03:57.601Z</time></trkpt><trkpt lat="44.74548" lon="9.3275017"><ele>980.0</ele><time>2026-04-04T08:03:58.602Z</time></trkpt><trkpt lat="44.745425" lon="9.3274233"><ele>980.0</ele><time>2026-04-04T08:03:59.601Z</time></trkpt><trkpt lat="44.7453783" lon="9.32734"><ele>980.0000000000001</ele><time>2026-04-04T08:04:00.601Z</time></trkpt><trkpt lat="44.7453417" lon="9.3272433"><ele>980.0</ele><time>2026-04-04T08:04:01.601Z</time></trkpt><trkpt lat="44.7453033" lon="9.32714"><ele>979.0000000000001</ele><time>2026-04-04T08:04:02.602Z</time></trkpt><trkpt lat="44.7452733" lon="9.3270467"><ele>978.0</ele><time>2026-04-04T08:04:03.601Z</time></trkpt><trkpt lat="44.7452517" lon="9.3268817"><ele>977.0</ele><time>2026-04-04T08:04:05.601Z</time></trkpt><trkpt lat="44.7452317" lon="9.3267783"><ele>976.0</ele><time>2026-04-04T08:04:06.601Z</time></trkpt><trkpt lat="44.7452067" lon="9.32668"><ele>975.0000000000001</ele><time>2026-04-04T08:04:07.602Z</time></trkpt><trkpt lat="44.745175" lon="9.3265917"><ele>974.0</ele><time>2026-04-04T08:04:08.601Z</time></trkpt><trkpt lat="44.7451183" lon="9.326445"><ele>977.0</ele><time>2026-04-04T08:04:10.601Z</time></trkpt><trkpt lat="44.745055" lon="9.3263067"><ele>980.0000000000001</ele><time>2026-04-04T08:04:12.601Z</time></trkpt><trkpt lat="44.74499" lon="9.3261867"><ele>983.0000000000001</ele><time>2026-04-04T08:04:14.6Z</time></trkpt><trkpt lat="44.74495" lon="9.32604"><ele>986.0</ele><time>2026-04-04T08:04:16.601Z</time></trkpt><trkpt lat="44.7449183" lon="9.3259583"><ele>989.0</ele><time>2026-04-04T08:04:17.602Z</time></trkpt><trkpt lat="44.7448733" lon="9.3258817"><ele>989.0000000000001</ele><time>2026-04-04T08:04:18.601Z</time></trkpt><trkpt lat="44.74483" lon="9.325815"><ele>989.0</ele><time>2026-04-04T08:04:19.602Z</time></trkpt><trkpt lat="44.7447883" lon="9.3257483"><ele>989.0</ele><time>2026-04-04T08:04:20.602Z</time></trkpt><trkpt lat="44.74472" lon="9.3256633"><ele>989.0</ele><time>2026-04-04T08:04:22.602Z</time></trkpt><trkpt lat="44.7446517" lon="9.3255817"><ele>989.0000000000001</ele><time>2026-04-04T08:04:24.602Z</time></trkpt><trkpt lat="44.7445917" lon="9.3254633"><ele>989.0</ele><time>2026-04-04T08:04:26.602Z</time></trkpt><trkpt lat="44.7445583" lon="9.3252983"><ele>989.1666666666667</ele><time>2026-04-04T08:04:28.601Z</time></trkpt><trkpt lat="44.7445383" lon="9.325205"><ele>989.3333333333334</ele><time>2026-04-04T08:04:29.602Z</time></trkpt><trkpt lat="44.7445083" lon="9.3251"><ele>989.5</ele><time>2026-04-04T08:04:30.601Z</time></trkpt><trkpt lat="44.7444867" lon="9.3249917"><ele>989.6666666666667</ele><time>2026-04-04T08:04:31.602Z</time></trkpt><trkpt lat="44.7444633" lon="9.3248833"><ele>989.8333333333334</ele><time>2026-04-04T08:04:32.601Z</time></trkpt><trkpt lat="44.7444367" lon="9.324775"><ele>990.0</ele><time>2026-04-04T08:04:33.601Z</time></trkpt><trkpt lat="44.744415" lon="9.32468"><ele>990.0</ele><time>2026-04-04T08:04:34.601Z</time></trkpt><trkpt lat="44.74439" lon="9.3245817"><ele>990.0</ele><time>2026-04-04T08:04:35.6Z</time></trkpt><trkpt lat="44.7443567" lon="9.3244783"><ele>990.0</ele><time>2026-04-04T08:04:36.6Z</time></trkpt><trkpt lat="44.7443267" lon="9.324375"><ele>990.0</ele><time>2026-04-04T08:04:37.602Z</time></trkpt><trkpt lat="44.7443" lon="9.3242633"><ele>990.0</ele><time>2026-04-04T08:04:38.602Z</time></trkpt><trkpt lat="44.7442717" lon="9.3241633"><ele>990.0</ele><time>2026-04-04T08:04:39.6Z</time></trkpt><trkpt lat="44.7442133" lon="9.324"><ele>992.3333333333334</ele><time>2026-04-04T08:04:41.602Z</time></trkpt><trkpt lat="44.744195" lon="9.3239133"><ele>994.6666666666667</ele><time>2026-04-04T08:04:42.602Z</time></trkpt><trkpt lat="44.7441717" lon="9.3238217"><ele>997.0</ele><time>2026-04-04T08:04:43.601Z</time></trkpt><trkpt lat="44.74415" lon="9.32373"><ele>999.3333333333334</ele><time>2026-04-04T08:04:44.601Z</time></trkpt><trkpt lat="44.744105" lon="9.3235783"><ele>1001.6666666666667</ele><time>2026-04-04T08:04:46.6Z</time></trkpt><trkpt lat="44.7440667" lon="9.3234967"><ele>1004.0</ele><time>2026-04-04T08:04:47.602Z</time></trkpt><trkpt lat="44.7440117" lon="9.3233833"><ele>1006.4000000000001</ele><time>2026-04-04T08:04:49.601Z</time></trkpt><trkpt lat="44.743925" lon="9.3232683"><ele>1008.8000000000001</ele><time>2026-04-04T08:04:51.601Z</time></trkpt><trkpt lat="44.7438383" lon="9.3231833"><ele>1011.1999999999999</ele><time>2026-04-04T08:04:53.605Z</time></trkpt><trkpt lat="44.74375" lon="9.32312"><ele>1013.5999999999999</ele><time>2026-04-04T08:04:55.602Z</time></trkpt><trkpt lat="44.7437467" lon="9.32301"><ele>1016.0</ele><time>2026-04-04T08:04:58.6Z</time></trkpt><trkpt lat="44.7438067" lon="9.3229217"><ele>1018.3333333333334</ele><time>2026-04-04T08:05:00.602Z</time></trkpt><trkpt lat="44.7438417" lon="9.322835"><ele>1020.6666666666667</ele><time>2026-04-04T08:05:02.601Z</time></trkpt><trkpt lat="44.743905" lon="9.3227383"><ele>1023.0</ele><time>2026-04-04T08:05:04.601Z</time></trkpt><trkpt lat="44.7439617" lon="9.322625"><ele>1025.3333333333333</ele><time>2026-04-04T08:05:06.6Z</time></trkpt><trkpt lat="44.74398" lon="9.32251"><ele>1027.6666666666665</ele><time>2026-04-04T08:05:08.602Z</time></trkpt><trkpt lat="44.7439617" lon="9.3224167"><ele>1030.0</ele><time>2026-04-04T08:05:10.602Z</time></trkpt><trkpt lat="44.7439067" lon="9.32233"><ele>1030.0</ele><time>2026-04-04T08:05:13.601Z</time></trkpt><trkpt lat="44.7438483" lon="9.32225"><ele>1030.0</ele><time>2026-04-04T08:05:15.602Z</time></trkpt><trkpt lat="44.7437867" lon="9.3221667"><ele>1030.0</ele><time>2026-04-04T08:05:17.601Z</time></trkpt><trkpt lat="44.743715" lon="9.3220967"><ele>1030.0</ele><time>2026-04-04T08:05:19.6Z</time></trkpt><trkpt lat="44.7436417" lon="9.3219767"><ele>1030.0</ele><time>2026-04-04T08:05:21.601Z</time></trkpt><trkpt lat="44.743575" lon="9.3218567"><ele>1033.8</ele><time>2026-04-04T08:05:23.602Z</time></trkpt><trkpt lat="44.7435183" lon="9.32173"><ele>1037.6</ele><time>2026-04-04T08:05:25.602Z</time></trkpt><trkpt lat="44.743485" lon="9.3215733"><ele>1041.4</ele><time>2026-04-04T08:05:27.601Z</time></trkpt><trkpt lat="44.7434633" lon="9.32143"><ele>1045.2</ele><time>2026-04-04T08:05:29.601Z</time></trkpt><trkpt lat="44.74346" lon="9.321285"><ele>1049.0</ele><time>2026-04-04T08:05:31.601Z</time></trkpt><trkpt lat="44.7434783" lon="9.3211283"><ele>1048.2</ele><time>2026-04-04T08:05:33.602Z</time></trkpt><trkpt lat="44.7435017" lon="9.3209617"><ele>1047.4</ele><time>2026-04-04T08:05:35.602Z</time></trkpt><trkpt lat="44.7435233" lon="9.3208717"><ele>1046.6</ele><time>2026-04-04T08:05:36.601Z</time></trkpt><trkpt lat="44.7435483" lon="9.32078"><ele>1045.8</ele><time>2026-04-04T08:05:37.601Z</time></trkpt><trkpt lat="44.7435833" lon="9.32062"><ele>1045.0</ele><time>2026-04-04T08:05:39.601Z</time></trkpt><trkpt lat="44.7435917" lon="9.32046"><ele>1045.0</ele><time>2026-04-04T08:05:41.6Z</time></trkpt><trkpt lat="44.743595" lon="9.320365"><ele>1045.0</ele><time>2026-04-04T08:05:42.601Z</time></trkpt><trkpt lat="44.7436" lon="9.3202733"><ele>1045.0</ele><time>2026-04-04T08:05:43.601Z</time></trkpt><trkpt lat="44.74361" lon="9.3201317"><ele>1045.0</ele><time>2026-04-04T08:05:45.601Z</time></trkpt><trkpt lat="44.7436233" lon="9.320045"><ele>1045.0</ele><time>2026-04-04T08:05:47.601Z</time></trkpt><trkpt lat="44.7436333" lon="9.31992"><ele>1045.0</ele><time>2026-04-04T08:05:50.601Z</time></trkpt><trkpt lat="44.743655" lon="9.3198017"><ele>1045.8</ele><time>2026-04-04T08:05:52.601Z</time></trkpt><trkpt lat="44.7436917" lon="9.3196517"><ele>1046.6</ele><time>2026-04-04T08:05:54.6Z</time></trkpt><trkpt lat="44.7437233" lon="9.3195033"><ele>1047.4</ele><time>2026-04-04T08:05:56.602Z</time></trkpt><trkpt lat="44.7437517" lon="9.31936"><ele>1048.2</ele><time>2026-04-04T08:05:58.601Z</time></trkpt><trkpt lat="44.7438067" lon="9.3192133"><ele>1049.0</ele><time>2026-04-04T08:06:00.601Z</time></trkpt><trkpt lat="44.7438733" lon="9.3190667"><ele>1049.0</ele><time>2026-04-04T08:06:02.601Z</time></trkpt><trkpt lat="44.74394" lon="9.31893"><ele>1049.0</ele><time>2026-04-04T08:06:04.6Z</time></trkpt><trkpt lat="44.7439867" lon="9.318775"><ele>1049.0</ele><time>2026-04-04T08:06:06.601Z</time></trkpt><trkpt lat="44.744" lon="9.3186133"><ele>1049.0</ele><time>2026-04-04T08:06:08.601Z</time></trkpt><trkpt lat="44.7440067" lon="9.318515"><ele>1049.0</ele><time>2026-04-04T08:06:09.602Z</time></trkpt><trkpt lat="44.7440167" lon="9.3184267"><ele>1051.142857142857</ele><time>2026-04-04T08:06:10.602Z</time></trkpt><trkpt lat="44.7440317" lon="9.3183367"><ele>1053.2857142857142</ele><time>2026-04-04T08:06:11.603Z</time></trkpt><trkpt lat="44.7440517" lon="9.3182417"><ele>1055.4285714285716</ele><time>2026-04-04T08:06:12.601Z</time></trkpt><trkpt lat="44.7440783" lon="9.3181567"><ele>1057.5714285714284</ele><time>2026-04-04T08:06:13.602Z</time></trkpt><trkpt lat="44.7441133" lon="9.3180683"><ele>1059.7142857142858</ele><time>2026-04-04T08:06:14.602Z</time></trkpt><trkpt lat="44.744145" lon="9.3179883"><ele>1061.857142857143</ele><time>2026-04-04T08:06:15.601Z</time></trkpt><trkpt lat="44.7441683" lon="9.317905"><ele>1064.0</ele><time>2026-04-04T08:06:16.6Z</time></trkpt><trkpt lat="44.744195" lon="9.317815"><ele>1064.0</ele><time>2026-04-04T08:06:17.6Z</time></trkpt><trkpt lat="44.7442583" lon="9.3176733"><ele>1064.0</ele><time>2026-04-04T08:06:19.601Z</time></trkpt><trkpt lat="44.7443767" lon="9.3176067"><ele>1064.0</ele><time>2026-04-04T08:06:21.601Z</time></trkpt><trkpt lat="44.7444433" lon="9.3175817"><ele>1064.0</ele><time>2026-04-04T08:06:22.601Z</time></trkpt><trkpt lat="44.74451" lon="9.3175533"><ele>1064.0</ele><time>2026-04-04T08:06:23.601Z</time></trkpt><trkpt lat="44.7445833" lon="9.3175017"><ele>1064.0</ele><time>2026-04-04T08:06:24.6Z</time></trkpt><trkpt lat="44.744645" lon="9.3174383"><ele>1064.0</ele><time>2026-04-04T08:06:25.6Z</time></trkpt><trkpt lat="44.7447" lon="9.3173717"><ele>1064.0</ele><time>2026-04-04T08:06:26.601Z</time></trkpt><trkpt lat="44.74475" lon="9.3173067"><ele>1064.0</ele><time>2026-04-04T08:06:27.601Z</time></trkpt><trkpt lat="44.7448117" lon="9.31723"><ele>1064.0</ele><time>2026-04-04T08:06:28.6Z</time></trkpt><trkpt lat="44.744895" lon="9.3171083"><ele>1064.0</ele><time>2026-04-04T08:06:30.601Z</time></trkpt><trkpt lat="44.7449383" lon="9.317015"><ele>1065.8333333333335</ele><time>2026-04-04T08:06:32.6Z</time></trkpt><trkpt lat="44.7449417" lon="9.3169167"><ele>1067.6666666666667</ele><time>2026-04-04T08:06:34.601Z</time></trkpt><trkpt lat="44.7449483" lon="9.31679"><ele>1069.5</ele><time>2026-04-04T08:06:36.602Z</time></trkpt><trkpt lat="44.74497" lon="9.3166717"><ele>1071.3333333333333</ele><time>2026-04-04T08:06:38.602Z</time></trkpt><trkpt lat="44.7449783" lon="9.316565"><ele>1073.1666666666665</ele><time>2026-04-04T08:06:40.6Z</time></trkpt><trkpt lat="44.744955" lon="9.3164733"><ele>1075.0</ele><time>2026-04-04T08:06:42.601Z</time></trkpt><trkpt lat="44.7449167" lon="9.3163733"><ele>1075.0</ele><time>2026-04-04T08:06:44.601Z</time></trkpt><trkpt lat="44.7448883" lon="9.316235"><ele>1075.0</ele><time>2026-04-04T08:06:46.601Z</time></trkpt><trkpt lat="44.744875" lon="9.3160917"><ele>1075.0</ele><time>2026-04-04T08:06:48.601Z</time></trkpt><trkpt lat="44.7448367" lon="9.3159517"><ele>1075.0</ele><time>2026-04-04T08:06:50.602Z</time></trkpt><trkpt lat="44.7448083" lon="9.3157933"><ele>1075.0</ele><time>2026-04-04T08:06:52.6Z</time></trkpt><trkpt lat="44.7447767" lon="9.31564"><ele>1076.0</ele><time>2026-04-04T08:06:54.601Z</time></trkpt><trkpt lat="44.7447617" lon="9.3154817"><ele>1077.0</ele><time>2026-04-04T08:06:56.603Z</time></trkpt><trkpt lat="44.74477" lon="9.3153633"><ele>1078.0</ele><time>2026-04-04T08:06:57.6Z</time></trkpt><trkpt lat="44.7447833" lon="9.3152417"><ele>1079.0</ele><time>2026-04-04T08:06:58.6Z</time></trkpt><trkpt lat="44.74479" lon="9.3151333"><ele>1080.0</ele><time>2026-04-04T08:06:59.602Z</time></trkpt><trkpt lat="44.74479" lon="9.3150067"><ele>1080.0</ele><time>2026-04-04T08:07:00.601Z</time></trkpt><trkpt lat="44.7447933" lon="9.3148717"><ele>1080.0</ele><time>2026-04-04T08:07:01.6Z</time></trkpt><trkpt lat="44.7447933" lon="9.314755"><ele>1080.0</ele><time>2026-04-04T08:07:02.602Z</time></trkpt><trkpt lat="44.7448017" lon="9.31465"><ele>1080.0</ele><time>2026-04-04T08:07:03.601Z</time></trkpt><trkpt lat="44.7448217" lon="9.314555"><ele>1080.0</ele><time>2026-04-04T08:07:04.601Z</time></trkpt><trkpt lat="44.7448567" lon="9.3144617"><ele>1080.0</ele><time>2026-04-04T08:07:05.601Z</time></trkpt><trkpt lat="44.7449067" lon="9.31436"><ele>1080.8333333333333</ele><time>2026-04-04T08:07:06.6Z</time></trkpt><trkpt lat="44.7449617" lon="9.314235"><ele>1081.6666666666667</ele><time>2026-04-04T08:07:07.601Z</time></trkpt><trkpt lat="44.7450117" lon="9.3141233"><ele>1082.5</ele><time>2026-04-04T08:07:08.601Z</time></trkpt><trkpt lat="44.745055" lon="9.3140133"><ele>1083.3333333333335</ele><time>2026-04-04T08:07:09.602Z</time></trkpt><trkpt lat="44.7450883" lon="9.3139183"><ele>1084.1666666666667</ele><time>2026-04-04T08:07:10.601Z</time></trkpt><trkpt lat="44.7451233" lon="9.313815"><ele>1085.0</ele><time>2026-04-04T08:07:12.6Z</time></trkpt><trkpt lat="44.7450667" lon="9.3136867"><ele>1085.0</ele><time>2026-04-04T08:08:10.601Z</time></trkpt><trkpt lat="44.74502" lon="9.3137733"><ele>1085.0</ele><time>2026-04-04T08:08:13.601Z</time></trkpt><trkpt lat="44.7449467" lon="9.3138633"><ele>1085.0</ele><time>2026-04-04T08:08:15.602Z</time></trkpt><trkpt lat="44.7449033" lon="9.3139283"><ele>1085.0</ele><time>2026-04-04T08:08:16.601Z</time></trkpt><trkpt lat="44.7448333" lon="9.3140417"><ele>1085.0</ele><time>2026-04-04T08:08:18.6Z</time></trkpt><trkpt lat="44.7447717" lon="9.3141217"><ele>1085.0</ele><time>2026-04-04T08:08:20.601Z</time></trkpt><trkpt lat="44.7446933" lon="9.314165"><ele>1085.2</ele><time>2026-04-04T08:08:22.602Z</time></trkpt><trkpt lat="44.7446217" lon="9.31422"><ele>1085.4</ele><time>2026-04-04T08:08:24.601Z</time></trkpt><trkpt lat="44.7445233" lon="9.3143417"><ele>1085.6</ele><time>2026-04-04T08:08:26.602Z</time></trkpt><trkpt lat="44.7444467" lon="9.3144033"><ele>1085.8</ele><time>2026-04-04T08:08:27.601Z</time></trkpt><trkpt lat="44.7443367" lon="9.3145017"><ele>1086.0</ele><time>2026-04-04T08:08:29.601Z</time></trkpt><trkpt lat="44.7442617" lon="9.3146033"><ele>1087.6</ele><time>2026-04-04T08:08:31.603Z</time></trkpt><trkpt lat="44.7441967" lon="9.3146683"><ele>1089.1999999999998</ele><time>2026-04-04T08:08:33.601Z</time></trkpt><trkpt lat="44.74413" lon="9.3147483"><ele>1090.8000000000002</ele><time>2026-04-04T08:08:35.601Z</time></trkpt><trkpt lat="44.7440783" lon="9.314815"><ele>1092.4</ele><time>2026-04-04T08:08:36.601Z</time></trkpt><trkpt lat="44.7439933" lon="9.314915"><ele>1094.0</ele><time>2026-04-04T08:08:38.6Z</time></trkpt><trkpt lat="44.743905" lon="9.3150417"><ele>1096.0</ele><time>2026-04-04T08:08:40.602Z</time></trkpt><trkpt lat="44.7438317" lon="9.3151017"><ele>1098.0</ele><time>2026-04-04T08:08:42.601Z</time></trkpt><trkpt lat="44.7437583" lon="9.31514"><ele>1100.0</ele><time>2026-04-04T08:08:44.6Z</time></trkpt><trkpt lat="44.7436783" lon="9.315215"><ele>1102.0</ele><time>2026-04-04T08:08:47.601Z</time></trkpt><trkpt lat="44.743605" lon="9.3153017"><ele>1104.0</ele><time>2026-04-04T08:08:49.6Z</time></trkpt><trkpt lat="44.743535" lon="9.3154017"><ele>1106.0</ele><time>2026-04-04T08:08:51.601Z</time></trkpt><trkpt lat="44.7434667" lon="9.315485"><ele>1108.0</ele><time>2026-04-04T08:08:53.601Z</time></trkpt><trkpt lat="44.743415" lon="9.315575"><ele>1110.0</ele><time>2026-04-04T08:08:55.603Z</time></trkpt><trkpt lat="44.74337" lon="9.3156667"><ele>1112.0</ele><time>2026-04-04T08:08:57.601Z</time></trkpt><trkpt lat="44.7433583" lon="9.3157917"><ele>1114.0</ele><time>2026-04-04T08:09:00.601Z</time></trkpt><trkpt lat="44.7433267" lon="9.3158967"><ele>1116.0</ele><time>2026-04-04T08:09:02.601Z</time></trkpt><trkpt lat="44.7432883" lon="9.3160217"><ele>1119.8</ele><time>2026-04-04T08:09:04.601Z</time></trkpt><trkpt lat="44.7432633" lon="9.31617"><ele>1123.6</ele><time>2026-04-04T08:09:06.601Z</time></trkpt><trkpt lat="44.7432367" lon="9.3162967"><ele>1127.4</ele><time>2026-04-04T08:09:08.602Z</time></trkpt><trkpt lat="44.7432" lon="9.316395"><ele>1131.2</ele><time>2026-04-04T08:09:10.601Z</time></trkpt><trkpt lat="44.7431733" lon="9.3165183"><ele>1135.0</ele><time>2026-04-04T08:09:12.6Z</time></trkpt><trkpt lat="44.7431567" lon="9.3166567"><ele>1135.4</ele><time>2026-04-04T08:09:14.601Z</time></trkpt><trkpt lat="44.7431383" lon="9.3168233"><ele>1135.8</ele><time>2026-04-04T08:09:16.602Z</time></trkpt><trkpt lat="44.743115" lon="9.316915"><ele>1136.2</ele><time>2026-04-04T08:09:17.601Z</time></trkpt><trkpt lat="44.7430667" lon="9.31706"><ele>1136.6</ele><time>2026-04-04T08:09:19.601Z</time></trkpt><trkpt lat="44.7430167" lon="9.3171733"><ele>1137.0</ele><time>2026-04-04T08:09:21.601Z</time></trkpt><trkpt lat="44.742975" lon="9.3172983"><ele>1134.6</ele><time>2026-04-04T08:09:23.6Z</time></trkpt><trkpt lat="44.742925" lon="9.31745"><ele>1132.2</ele><time>2026-04-04T08:09:25.602Z</time></trkpt><trkpt lat="44.74289" lon="9.3175267"><ele>1129.8</ele><time>2026-04-04T08:09:26.601Z</time></trkpt><trkpt lat="44.742825" lon="9.31768"><ele>1127.4</ele><time>2026-04-04T08:09:28.6Z</time></trkpt><trkpt lat="44.7427933" lon="9.3177767"><ele>1125.0</ele><time>2026-04-04T08:09:29.6Z</time></trkpt><trkpt lat="44.7427667" lon="9.3178817"><ele>1125.0</ele><time>2026-04-04T08:09:30.603Z</time></trkpt><trkpt lat="44.7427233" lon="9.3180067"><ele>1125.0</ele><time>2026-04-04T08:09:31.604Z</time></trkpt><trkpt lat="44.7426817" lon="9.31811"><ele>1125.0</ele><time>2026-04-04T08:09:32.602Z</time></trkpt><trkpt lat="44.7426383" lon="9.3182117"><ele>1125.0</ele><time>2026-04-04T08:09:33.601Z</time></trkpt><trkpt lat="44.7426033" lon="9.3183033"><ele>1125.0</ele><time>2026-04-04T08:09:34.6Z</time></trkpt><trkpt lat="44.742565" lon="9.3183933"><ele>1125.0</ele><time>2026-04-04T08:09:35.599Z</time></trkpt><trkpt lat="44.7425433" lon="9.3184883"><ele>1126.8</ele><time>2026-04-04T08:09:36.601Z</time></trkpt><trkpt lat="44.7424867" lon="9.3186433"><ele>1128.6</ele><time>2026-04-04T08:09:38.601Z</time></trkpt><trkpt lat="44.742435" lon="9.3187233"><ele>1130.4</ele><time>2026-04-04T08:09:39.6Z</time></trkpt><trkpt lat="44.74238" lon="9.31878"><ele>1132.2</ele><time>2026-04-04T08:09:40.601Z</time></trkpt><trkpt lat="44.74232" lon="9.3188417"><ele>1134.0</ele><time>2026-04-04T08:09:41.601Z</time></trkpt><trkpt lat="44.7422233" lon="9.3189083"><ele>1130.4</ele><time>2026-04-04T08:09:43.6Z</time></trkpt><trkpt lat="44.7421683" lon="9.3189533"><ele>1126.8000000000002</ele><time>2026-04-04T08:09:45.602Z</time></trkpt><trkpt lat="44.7420767" lon="9.318975"><ele>1123.1999999999998</ele><time>2026-04-04T08:09:50.601Z</time></trkpt><trkpt lat="44.7419633" lon="9.318995"><ele>1119.6</ele><time>2026-04-04T08:09:52.6Z</time></trkpt><trkpt lat="44.741855" lon="9.3190317"><ele>1116.0</ele><time>2026-04-04T08:09:54.599Z</time></trkpt><trkpt lat="44.7417817" lon="9.319065"><ele>1116.0</ele><time>2026-04-04T08:09:56.602Z</time></trkpt><trkpt lat="44.7416883" lon="9.3190817"><ele>1116.0</ele><time>2026-04-04T08:09:59.601Z</time></trkpt><trkpt lat="44.7416033" lon="9.31912"><ele>1116.0</ele><time>2026-04-04T08:10:01.6Z</time></trkpt><trkpt lat="44.7414967" lon="9.3191683"><ele>1116.0</ele><time>2026-04-04T08:10:03.601Z</time></trkpt><trkpt lat="44.741425" lon="9.319195"><ele>1116.0</ele><time>2026-04-04T08:10:04.601Z</time></trkpt><trkpt lat="44.7413567" lon="9.3192283"><ele>1116.0</ele><time>2026-04-04T08:10:05.601Z</time></trkpt><trkpt lat="44.7412883" lon="9.31926"><ele>1116.0</ele><time>2026-04-04T08:10:06.601Z</time></trkpt><trkpt lat="44.74123" lon="9.3192967"><ele>1116.0</ele><time>2026-04-04T08:10:07.6Z</time></trkpt><trkpt lat="44.7411383" lon="9.3193783"><ele>1116.0</ele><time>2026-04-04T08:10:09.6Z</time></trkpt><trkpt lat="44.741055" lon="9.3194583"><ele>1116.0</ele><time>2026-04-04T08:10:11.601Z</time></trkpt><trkpt lat="44.7409617" lon="9.31953"><ele>1116.0</ele><time>2026-04-04T08:10:13.602Z</time></trkpt><trkpt lat="44.7408533" lon="9.31961"><ele>1114.0</ele><time>2026-04-04T08:10:15.601Z</time></trkpt><trkpt lat="44.7407967" lon="9.3196517"><ele>1112.0</ele><time>2026-04-04T08:10:16.6Z</time></trkpt><trkpt lat="44.7406783" lon="9.31969"><ele>1110.0</ele><time>2026-04-04T08:10:18.601Z</time></trkpt><trkpt lat="44.74055" lon="9.319705"><ele>1108.0</ele><time>2026-04-04T08:10:20.602Z</time></trkpt><trkpt lat="44.7404867" lon="9.31972"><ele>1106.0</ele><time>2026-04-04T08:10:21.6Z</time></trkpt><trkpt lat="44.740425" lon="9.319745"><ele>1104.0</ele><time>2026-04-04T08:10:22.601Z</time></trkpt><trkpt lat="44.7403217" lon="9.3197767"><ele>1101.3333333333333</ele><time>2026-04-04T08:10:24.601Z</time></trkpt><trkpt lat="44.740205" lon="9.3198017"><ele>1098.6666666666667</ele><time>2026-04-04T08:10:26.602Z</time></trkpt><trkpt lat="44.7401383" lon="9.3198167"><ele>1096.0</ele><time>2026-04-04T08:10:27.602Z</time></trkpt><trkpt lat="44.7400667" lon="9.3198317"><ele>1093.3333333333335</ele><time>2026-04-04T08:10:28.601Z</time></trkpt><trkpt lat="44.73997" lon="9.3198817"><ele>1090.6666666666667</ele><time>2026-04-04T08:10:30.601Z</time></trkpt><trkpt lat="44.7399067" lon="9.3199367"><ele>1088.0</ele><time>2026-04-04T08:10:33.601Z</time></trkpt><trkpt lat="44.739845" lon="9.32001"><ele>1088.0</ele><time>2026-04-04T08:10:36.601Z</time></trkpt><trkpt lat="44.7397667" lon="9.3200517"><ele>1088.0</ele><time>2026-04-04T08:10:39.6Z</time></trkpt><trkpt lat="44.739695" lon="9.32013"><ele>1088.0</ele><time>2026-04-04T08:10:42.6Z</time></trkpt><trkpt lat="44.7396017" lon="9.3201883"><ele>1088.0</ele><time>2026-04-04T08:10:44.601Z</time></trkpt><trkpt lat="44.73954" lon="9.320215"><ele>1088.0</ele><time>2026-04-04T08:10:45.599Z</time></trkpt><trkpt lat="44.7394283" lon="9.3202483"><ele>1086.8333333333335</ele><time>2026-04-04T08:10:47.601Z</time></trkpt><trkpt lat="44.7393267" lon="9.3202767"><ele>1085.6666666666667</ele><time>2026-04-04T08:10:49.602Z</time></trkpt><trkpt lat="44.7392067" lon="9.320285"><ele>1084.5</ele><time>2026-04-04T08:10:51.602Z</time></trkpt><trkpt lat="44.73914" lon="9.3203067"><ele>1083.3333333333333</ele><time>2026-04-04T08:10:52.602Z</time></trkpt><trkpt lat="44.739075" lon="9.3203367"><ele>1082.1666666666665</ele><time>2026-04-04T08:10:53.601Z</time></trkpt><trkpt lat="44.7390067" lon="9.320365"><ele>1081.0</ele><time>2026-04-04T08:10:54.6Z</time></trkpt><trkpt lat="44.7389317" lon="9.3203883"><ele>1081.0</ele><time>2026-04-04T08:10:55.601Z</time></trkpt><trkpt lat="44.738855" lon="9.320395"><ele>1081.0</ele><time>2026-04-04T08:10:56.601Z</time></trkpt><trkpt lat="44.7387817" lon="9.3204133"><ele>1081.0</ele><time>2026-04-04T08:10:57.601Z</time></trkpt><trkpt lat="44.7387083" lon="9.3204233"><ele>1081.0</ele><time>2026-04-04T08:10:58.6Z</time></trkpt><trkpt lat="44.7386267" lon="9.3204283"><ele>1081.0</ele><time>2026-04-04T08:10:59.601Z</time></trkpt><trkpt lat="44.738545" lon="9.3204233"><ele>1081.0</ele><time>2026-04-04T08:11:00.601Z</time></trkpt><trkpt lat="44.7384533" lon="9.320405"><ele>1078.1666666666665</ele><time>2026-04-04T08:11:01.602Z</time></trkpt><trkpt lat="44.73838" lon="9.3203933"><ele>1075.3333333333333</ele><time>2026-04-04T08:11:02.6Z</time></trkpt><trkpt lat="44.7382933" lon="9.3203883"><ele>1072.5</ele><time>2026-04-04T08:11:04.602Z</time></trkpt><trkpt lat="44.7382333" lon="9.3204217"><ele>1069.6666666666667</ele><time>2026-04-04T08:11:18.601Z</time></trkpt><trkpt lat="44.7381117" lon="9.3204533"><ele>1066.8333333333335</ele><time>2026-04-04T08:11:20.602Z</time></trkpt><trkpt lat="44.7380433" lon="9.32047"><ele>1064.0</ele><time>2026-04-04T08:11:21.602Z</time></trkpt><trkpt lat="44.7379733" lon="9.3204967"><ele>1064.0</ele><time>2026-04-04T08:11:22.602Z</time></trkpt><trkpt lat="44.7379" lon="9.3205283"><ele>1064.0</ele><time>2026-04-04T08:11:23.601Z</time></trkpt><trkpt lat="44.7378267" lon="9.320565"><ele>1064.0</ele><time>2026-04-04T08:11:24.602Z</time></trkpt><trkpt lat="44.73775" lon="9.3206017"><ele>1064.0</ele><time>2026-04-04T08:11:25.6Z</time></trkpt><trkpt lat="44.7376767" lon="9.3206383"><ele>1064.0</ele><time>2026-04-04T08:11:26.602Z</time></trkpt><trkpt lat="44.7375967" lon="9.32068"><ele>1064.0</ele><time>2026-04-04T08:11:27.601Z</time></trkpt><trkpt lat="44.7375133" lon="9.3207383"><ele>1063.6000000000001</ele><time>2026-04-04T08:11:28.6Z</time></trkpt><trkpt lat="44.737425" lon="9.3208133"><ele>1063.2</ele><time>2026-04-04T08:11:29.6Z</time></trkpt><trkpt lat="44.7373333" lon="9.3209067"><ele>1062.8000000000002</ele><time>2026-04-04T08:11:30.6Z</time></trkpt><trkpt lat="44.7372417" lon="9.3209983"><ele>1062.4</ele><time>2026-04-04T08:11:31.6Z</time></trkpt><trkpt lat="44.737165" lon="9.3210933"><ele>1062.0</ele><time>2026-04-04T08:11:32.601Z</time></trkpt><trkpt lat="44.73709" lon="9.3212"><ele>1062.0</ele><time>2026-04-04T08:11:33.601Z</time></trkpt><trkpt lat="44.7370217" lon="9.3213117"><ele>1062.0</ele><time>2026-04-04T08:11:34.602Z</time></trkpt><trkpt lat="44.7369617" lon="9.32142"><ele>1062.0</ele><time>2026-04-04T08:11:35.6Z</time></trkpt><trkpt lat="44.736905" lon="9.321495"><ele>1062.0</ele><time>2026-04-04T08:11:36.6Z</time></trkpt><trkpt lat="44.7368433" lon="9.3215483"><ele>1062.0</ele><time>2026-04-04T08:11:37.602Z</time></trkpt><trkpt lat="44.73677" lon="9.3215933"><ele>1062.0</ele><time>2026-04-04T08:11:38.601Z</time></trkpt><trkpt lat="44.7367017" lon="9.32163"><ele>1063.3333333333333</ele><time>2026-04-04T08:11:39.6Z</time></trkpt><trkpt lat="44.7366383" lon="9.3216617"><ele>1064.6666666666667</ele><time>2026-04-04T08:11:40.601Z</time></trkpt><trkpt lat="44.7365483" lon="9.32174"><ele>1066.0</ele><time>2026-04-04T08:11:42.601Z</time></trkpt><trkpt lat="44.7364733" lon="9.3218083"><ele>1067.3333333333335</ele><time>2026-04-04T08:11:44.601Z</time></trkpt><trkpt lat="44.73639" lon="9.32186"><ele>1068.6666666666667</ele><time>2026-04-04T08:11:46.6Z</time></trkpt><trkpt lat="44.73632" lon="9.3219333"><ele>1070.0</ele><time>2026-04-04T08:11:48.601Z</time></trkpt><trkpt lat="44.73626" lon="9.32203"><ele>1070.0</ele><time>2026-04-04T08:11:50.602Z</time></trkpt><trkpt lat="44.7361817" lon="9.322135"><ele>1070.0</ele><time>2026-04-04T08:11:52.602Z</time></trkpt><trkpt lat="44.7361" lon="9.3222133"><ele>1070.0</ele><time>2026-04-04T08:11:54.601Z</time></trkpt><trkpt lat="44.7360467" lon="9.3223317"><ele>1070.0</ele><time>2026-04-04T08:11:56.602Z</time></trkpt><trkpt lat="44.7359983" lon="9.32246"><ele>1070.0</ele><time>2026-04-04T08:11:58.601Z</time></trkpt><trkpt lat="44.7359733" lon="9.3226033"><ele>1074.4</ele><time>2026-04-04T08:12:00.602Z</time></trkpt><trkpt lat="44.7359617" lon="9.322725"><ele>1078.8</ele><time>2026-04-04T08:12:02.601Z</time></trkpt><trkpt lat="44.7359417" lon="9.32286"><ele>1083.2</ele><time>2026-04-04T08:12:04.6Z</time></trkpt><trkpt lat="44.7359417" lon="9.3229833"><ele>1087.6</ele><time>2026-04-04T08:12:06.601Z</time></trkpt><trkpt lat="44.7359317" lon="9.3231217"><ele>1092.0</ele><time>2026-04-04T08:12:08.601Z</time></trkpt><trkpt lat="44.7359183" lon="9.3232617"><ele>1094.1666666666667</ele><time>2026-04-04T08:12:10.601Z</time></trkpt><trkpt lat="44.7359083" lon="9.3233617"><ele>1096.3333333333333</ele><time>2026-04-04T08:12:12.6Z</time></trkpt><trkpt lat="44.7359" lon="9.3235167"><ele>1098.5</ele><time>2026-04-04T08:13:29.6Z</time></trkpt><trkpt lat="44.73583" lon="9.3236217"><ele>1100.6666666666665</ele><time>2026-04-04T08:13:57.601Z</time></trkpt><trkpt lat="44.7357633" lon="9.3236417"><ele>1102.8333333333333</ele><time>2026-04-04T08:13:59.599Z</time></trkpt><trkpt lat="44.7357033" lon="9.3236733"><ele>1105.0</ele><time>2026-04-04T08:14:01.6Z</time></trkpt><trkpt lat="44.7356517" lon="9.3237517"><ele>1105.0</ele><time>2026-04-04T08:14:04.601Z</time></trkpt><trkpt lat="44.7356" lon="9.3238183"><ele>1105.0</ele><time>2026-04-04T08:14:06.601Z</time></trkpt><trkpt lat="44.7355383" lon="9.32386"><ele>1105.0</ele><time>2026-04-04T08:14:08.602Z</time></trkpt><trkpt lat="44.7354433" lon="9.3239017"><ele>1105.0</ele><time>2026-04-04T08:14:10.601Z</time></trkpt><trkpt lat="44.7353567" lon="9.32394"><ele>1105.0</ele><time>2026-04-04T08:14:12.6Z</time></trkpt><trkpt lat="44.7352983" lon="9.3239883"><ele>1105.0</ele><time>2026-04-04T08:14:14.6Z</time></trkpt><trkpt lat="44.735235" lon="9.3240217"><ele>1106.142857142857</ele><time>2026-04-04T08:14:16.6Z</time></trkpt><trkpt lat="44.73516" lon="9.3240583"><ele>1107.2857142857142</ele><time>2026-04-04T08:14:19.601Z</time></trkpt><trkpt lat="44.7351" lon="9.3241183"><ele>1108.4285714285716</ele><time>2026-04-04T08:14:21.6Z</time></trkpt><trkpt lat="44.7350483" lon="9.3241817"><ele>1109.5714285714284</ele><time>2026-04-04T08:14:23.6Z</time></trkpt><trkpt lat="44.7349933" lon="9.3242517"><ele>1110.7142857142858</ele><time>2026-04-04T08:14:25.601Z</time></trkpt><trkpt lat="44.7349467" lon="9.324335"><ele>1111.857142857143</ele><time>2026-04-04T08:14:27.6Z</time></trkpt><trkpt lat="44.73491" lon="9.3244283"><ele>1113.0</ele><time>2026-04-04T08:14:30.601Z</time></trkpt><trkpt lat="44.73489" lon="9.3245183"><ele>1113.0</ele><time>2026-04-04T08:14:33.6Z</time></trkpt><trkpt lat="44.7348567" lon="9.3246067"><ele>1113.0</ele><time>2026-04-04T08:14:36.6Z</time></trkpt><trkpt lat="44.7348433" lon="9.3247133"><ele>1113.0</ele><time>2026-04-04T08:14:40.599Z</time></trkpt><trkpt lat="44.7347667" lon="9.3248817"><ele>1113.0</ele><time>2026-04-04T08:14:55.601Z</time></trkpt><trkpt lat="44.7346383" lon="9.3248683"><ele>1113.0</ele><time>2026-04-04T08:15:10.602Z</time></trkpt><trkpt lat="44.734595" lon="9.3248"><ele>1113.0</ele><time>2026-04-04T08:15:13.602Z</time></trkpt><trkpt lat="44.7345483" lon="9.32473"><ele>1113.0</ele><time>2026-04-04T08:15:17.601Z</time></trkpt><trkpt lat="44.7345233" lon="9.3246283"><ele>1113.0</ele><time>2026-04-04T08:15:20.602Z</time></trkpt><trkpt lat="44.7344967" lon="9.3245167"><ele>1113.0</ele><time>2026-04-04T08:15:22.602Z</time></trkpt><trkpt lat="44.7344583" lon="9.3243817"><ele>1113.0</ele><time>2026-04-04T08:15:24.602Z</time></trkpt><trkpt lat="44.734425" lon="9.3242267"><ele>1113.0</ele><time>2026-04-04T08:15:26.603Z</time></trkpt><trkpt lat="44.73438" lon="9.32409"><ele>1110.6</ele><time>2026-04-04T08:15:28.602Z</time></trkpt><trkpt lat="44.734325" lon="9.323915"><ele>1108.1999999999998</ele><time>2026-04-04T08:15:30.602Z</time></trkpt><trkpt lat="44.7343067" lon="9.323825"><ele>1105.8</ele><time>2026-04-04T08:15:31.602Z</time></trkpt><trkpt lat="44.7342917" lon="9.3236583"><ele>1103.3999999999999</ele><time>2026-04-04T08:15:33.602Z</time></trkpt><trkpt lat="44.734265" lon="9.3235067"><ele>1101.0</ele><time>2026-04-04T08:15:35.602Z</time></trkpt><trkpt lat="44.7341833" lon="9.3234033"><ele>1098.6</ele><time>2026-04-04T08:15:37.601Z</time></trkpt><trkpt lat="44.7340867" lon="9.323335"><ele>1096.1999999999998</ele><time>2026-04-04T08:15:39.601Z</time></trkpt><trkpt lat="44.73401" lon="9.3232783"><ele>1093.8000000000002</ele><time>2026-04-04T08:15:41.599Z</time></trkpt><trkpt lat="44.733915" lon="9.3232033"><ele>1091.4</ele><time>2026-04-04T08:15:43.601Z</time></trkpt><trkpt lat="44.7338383" lon="9.3231617"><ele>1089.0</ele><time>2026-04-04T08:15:45.6Z</time></trkpt><trkpt lat="44.7337683" lon="9.3231717"><ele>1089.0</ele><time>2026-04-04T08:15:47.601Z</time></trkpt><trkpt lat="44.7336967" lon="9.3232"><ele>1089.0</ele><time>2026-04-04T08:15:49.601Z</time></trkpt><trkpt lat="44.7336133" lon="9.323215"><ele>1089.0</ele><time>2026-04-04T08:15:51.601Z</time></trkpt><trkpt lat="44.7335233" lon="9.3232117"><ele>1089.0</ele><time>2026-04-04T08:15:53.602Z</time></trkpt><trkpt lat="44.7334267" lon="9.323225"><ele>1089.0</ele><time>2026-04-04T08:18:12.599Z</time></trkpt><trkpt lat="44.7333667" lon="9.3232933"><ele>1089.0</ele><time>2026-04-04T08:18:15.601Z</time></trkpt><trkpt lat="44.733345" lon="9.3234067"><ele>1086.5</ele><time>2026-04-04T08:24:24.601Z</time></trkpt><trkpt lat="44.7332633" lon="9.32348"><ele>1084.0</ele><time>2026-04-04T08:24:26.601Z</time></trkpt><trkpt lat="44.73316" lon="9.3235617"><ele>1081.5</ele><time>2026-04-04T08:24:28.602Z</time></trkpt><trkpt lat="44.7331" lon="9.3236083"><ele>1079.0</ele><time>2026-04-04T08:24:29.6Z</time></trkpt><trkpt lat="44.7330383" lon="9.3236567"><ele>1076.5</ele><time>2026-04-04T08:24:30.6Z</time></trkpt><trkpt lat="44.7329783" lon="9.3237"><ele>1074.0</ele><time>2026-04-04T08:24:31.599Z</time></trkpt><trkpt lat="44.732855" lon="9.3237283"><ele>1074.0</ele><time>2026-04-04T08:24:33.6Z</time></trkpt><trkpt lat="44.7327783" lon="9.32371"><ele>1074.0</ele><time>2026-04-04T08:24:34.6Z</time></trkpt><trkpt lat="44.73271" lon="9.3236633"><ele>1074.0</ele><time>2026-04-04T08:24:35.601Z</time></trkpt><trkpt lat="44.7326483" lon="9.3236083"><ele>1074.0</ele><time>2026-04-04T08:24:36.599Z</time></trkpt><trkpt lat="44.73258" lon="9.3235417"><ele>1074.0</ele><time>2026-04-04T08:24:37.601Z</time></trkpt><trkpt lat="44.7325183" lon="9.323475"><ele>1074.0</ele><time>2026-04-04T08:24:38.6Z</time></trkpt><trkpt lat="44.73245" lon="9.3234"><ele>1074.2</ele><time>2026-04-04T08:24:39.601Z</time></trkpt><trkpt lat="44.732385" lon="9.3233283"><ele>1074.4</ele><time>2026-04-04T08:24:40.601Z</time></trkpt><trkpt lat="44.732305" lon="9.3232683"><ele>1074.6</ele><time>2026-04-04T08:24:41.602Z</time></trkpt><trkpt lat="44.732215" lon="9.323205"><ele>1074.8</ele><time>2026-04-04T08:24:42.602Z</time></trkpt><trkpt lat="44.7321267" lon="9.3231417"><ele>1075.0</ele><time>2026-04-04T08:24:43.602Z</time></trkpt><trkpt lat="44.7320367" lon="9.3230833"><ele>1074.6</ele><time>2026-04-04T08:24:44.603Z</time></trkpt><trkpt lat="44.7319367" lon="9.3230333"><ele>1074.2</ele><time>2026-04-04T08:24:45.602Z</time></trkpt><trkpt lat="44.7318317" lon="9.3229817"><ele>1073.8</ele><time>2026-04-04T08:24:46.603Z</time></trkpt><trkpt lat="44.7317417" lon="9.3229267"><ele>1073.4</ele><time>2026-04-04T08:24:47.602Z</time></trkpt><trkpt lat="44.7316567" lon="9.3228633"><ele>1073.0</ele><time>2026-04-04T08:24:48.601Z</time></trkpt><trkpt lat="44.7315833" lon="9.3227817"><ele>1073.0</ele><time>2026-04-04T08:24:49.602Z</time></trkpt><trkpt lat="44.7315267" lon="9.322715"><ele>1073.0</ele><time>2026-04-04T08:24:50.602Z</time></trkpt><trkpt lat="44.7314667" lon="9.3226467"><ele>1073.0</ele><time>2026-04-04T08:24:51.602Z</time></trkpt><trkpt lat="44.731405" lon="9.3225933"><ele>1073.0</ele><time>2026-04-04T08:24:52.602Z</time></trkpt><trkpt lat="44.7313283" lon="9.3225567"><ele>1073.0</ele><time>2026-04-04T08:24:53.602Z</time></trkpt><trkpt lat="44.73125" lon="9.322515"><ele>1073.0</ele><time>2026-04-04T08:24:54.601Z</time></trkpt><trkpt lat="44.73118" lon="9.3224583"><ele>1073.0</ele><time>2026-04-04T08:24:55.601Z</time></trkpt><trkpt lat="44.73112" lon="9.322385"><ele>1073.0</ele><time>2026-04-04T08:24:56.6Z</time></trkpt><trkpt lat="44.7310867" lon="9.3222983"><ele>1073.0</ele><time>2026-04-04T08:24:57.601Z</time></trkpt><trkpt lat="44.7310633" lon="9.3221967"><ele>1073.0</ele><time>2026-04-04T08:24:58.601Z</time></trkpt><trkpt lat="44.7310567" lon="9.3220983"><ele>1073.0</ele><time>2026-04-04T08:24:59.6Z</time></trkpt><trkpt lat="44.7310517" lon="9.3220067"><ele>1073.0</ele><time>2026-04-04T08:25:00.601Z</time></trkpt><trkpt lat="44.7310417" lon="9.3219133"><ele>1073.0</ele><time>2026-04-04T08:25:01.6Z</time></trkpt><trkpt lat="44.7309667" lon="9.3217967"><ele>1073.8</ele><time>2026-04-04T08:25:03.601Z</time></trkpt><trkpt lat="44.73086" lon="9.3217933"><ele>1074.6</ele><time>2026-04-04T08:25:05.601Z</time></trkpt><trkpt lat="44.73075" lon="9.32182"><ele>1075.4</ele><time>2026-04-04T08:25:07.601Z</time></trkpt><trkpt lat="44.7306767" lon="9.32184"><ele>1076.2</ele><time>2026-04-04T08:25:08.603Z</time></trkpt><trkpt lat="44.7305983" lon="9.32186"><ele>1077.0</ele><time>2026-04-04T08:25:09.6Z</time></trkpt><trkpt lat="44.730505" lon="9.3218883"><ele>1077.0</ele><time>2026-04-04T08:25:10.601Z</time></trkpt><trkpt lat="44.7304117" lon="9.3219267"><ele>1077.0</ele><time>2026-04-04T08:25:11.601Z</time></trkpt><trkpt lat="44.7303283" lon="9.32196"><ele>1077.0</ele><time>2026-04-04T08:25:12.6Z</time></trkpt><trkpt lat="44.7302517" lon="9.3219967"><ele>1077.0</ele><time>2026-04-04T08:25:13.602Z</time></trkpt><trkpt lat="44.73017" lon="9.3220383"><ele>1077.0</ele><time>2026-04-04T08:25:14.601Z</time></trkpt><trkpt lat="44.7300833" lon="9.3220783"><ele>1077.0</ele><time>2026-04-04T08:25:15.601Z</time></trkpt><trkpt lat="44.729985" lon="9.3221167"><ele>1076.6</ele><time>2026-04-04T08:25:16.601Z</time></trkpt><trkpt lat="44.729895" lon="9.3221383"><ele>1076.2</ele><time>2026-04-04T08:25:17.601Z</time></trkpt><trkpt lat="44.7298083" lon="9.322165"><ele>1075.8</ele><time>2026-04-04T08:25:18.601Z</time></trkpt><trkpt lat="44.7297267" lon="9.32221"><ele>1075.4</ele><time>2026-04-04T08:25:19.603Z</time></trkpt><trkpt lat="44.7296517" lon="9.3222833"><ele>1075.0</ele><time>2026-04-04T08:25:20.602Z</time></trkpt><trkpt lat="44.7295817" lon="9.3224017"><ele>1076.2</ele><time>2026-04-04T08:25:21.601Z</time></trkpt><trkpt lat="44.7295067" lon="9.3225233"><ele>1077.4</ele><time>2026-04-04T08:25:22.602Z</time></trkpt><trkpt lat="44.7294333" lon="9.3226383"><ele>1078.6</ele><time>2026-04-04T08:25:23.601Z</time></trkpt><trkpt lat="44.72936" lon="9.3227317"><ele>1079.8</ele><time>2026-04-04T08:25:24.601Z</time></trkpt><trkpt lat="44.72929" lon="9.3228067"><ele>1081.0</ele><time>2026-04-04T08:25:25.602Z</time></trkpt><trkpt lat="44.7292233" lon="9.322875"><ele>1081.0</ele><time>2026-04-04T08:25:26.603Z</time></trkpt><trkpt lat="44.7291633" lon="9.32294"><ele>1081.0</ele><time>2026-04-04T08:25:27.6Z</time></trkpt><trkpt lat="44.7290983" lon="9.3229983"><ele>1081.0</ele><time>2026-04-04T08:25:28.6Z</time></trkpt><trkpt lat="44.729025" lon="9.3230583"><ele>1081.0</ele><time>2026-04-04T08:25:29.601Z</time></trkpt><trkpt lat="44.728945" lon="9.3231167"><ele>1081.0</ele><time>2026-04-04T08:25:30.601Z</time></trkpt><trkpt lat="44.72885" lon="9.3231567"><ele>1081.0</ele><time>2026-04-04T08:25:31.6Z</time></trkpt><trkpt lat="44.7287433" lon="9.3231817"><ele>1082.8</ele><time>2026-04-04T08:25:32.601Z</time></trkpt><trkpt lat="44.7286417" lon="9.3231967"><ele>1084.6</ele><time>2026-04-04T08:25:33.6Z</time></trkpt><trkpt lat="44.7285433" lon="9.32321"><ele>1086.4</ele><time>2026-04-04T08:25:34.6Z</time></trkpt><trkpt lat="44.72844" lon="9.3232283"><ele>1088.2</ele><time>2026-04-04T08:25:35.6Z</time></trkpt><trkpt lat="44.7283483" lon="9.3232567"><ele>1090.0</ele><time>2026-04-04T08:25:36.602Z</time></trkpt><trkpt lat="44.728265" lon="9.32331"><ele>1090.0</ele><time>2026-04-04T08:25:37.601Z</time></trkpt><trkpt lat="44.7281783" lon="9.3233783"><ele>1090.0</ele><time>2026-04-04T08:25:38.602Z</time></trkpt><trkpt lat="44.7280933" lon="9.3234617"><ele>1090.0</ele><time>2026-04-04T08:25:39.601Z</time></trkpt><trkpt lat="44.7280033" lon="9.3235333"><ele>1090.0</ele><time>2026-04-04T08:25:40.6Z</time></trkpt><trkpt lat="44.72792" lon="9.3235967"><ele>1090.0</ele><time>2026-04-04T08:25:41.601Z</time></trkpt><trkpt lat="44.727845" lon="9.3236533"><ele>1090.0</ele><time>2026-04-04T08:25:42.6Z</time></trkpt><trkpt lat="44.7277733" lon="9.3237067"><ele>1090.0</ele><time>2026-04-04T08:25:43.601Z</time></trkpt><trkpt lat="44.7276883" lon="9.32376"><ele>1090.0</ele><time>2026-04-04T08:25:44.6Z</time></trkpt><trkpt lat="44.7275967" lon="9.32382"><ele>1090.0</ele><time>2026-04-04T08:25:45.601Z</time></trkpt><trkpt lat="44.7275133" lon="9.3238867"><ele>1090.0</ele><time>2026-04-04T08:25:46.602Z</time></trkpt><trkpt lat="44.7274233" lon="9.32394"><ele>1090.8</ele><time>2026-04-04T08:25:47.601Z</time></trkpt><trkpt lat="44.727335" lon="9.3239833"><ele>1091.6</ele><time>2026-04-04T08:25:48.599Z</time></trkpt><trkpt lat="44.7272367" lon="9.3240133"><ele>1092.4</ele><time>2026-04-04T08:25:49.601Z</time></trkpt><trkpt lat="44.7271417" lon="9.3240367"><ele>1093.2</ele><time>2026-04-04T08:25:50.601Z</time></trkpt><trkpt lat="44.7270533" lon="9.3240567"><ele>1094.0</ele><time>2026-04-04T08:25:51.601Z</time></trkpt><trkpt lat="44.7269667" lon="9.324085"><ele>1091.0</ele><time>2026-04-04T08:25:52.6Z</time></trkpt><trkpt lat="44.726855" lon="9.3241433"><ele>1088.0</ele><time>2026-04-04T08:25:53.6Z</time></trkpt><trkpt lat="44.7267467" lon="9.3242133"><ele>1085.0</ele><time>2026-04-04T08:25:54.601Z</time></trkpt><trkpt lat="44.7266433" lon="9.3242933"><ele>1082.0</ele><time>2026-04-04T08:25:55.601Z</time></trkpt><trkpt lat="44.7265517" lon="9.3243833"><ele>1082.0</ele><time>2026-04-04T08:25:56.6Z</time></trkpt><trkpt lat="44.7264633" lon="9.32447"><ele>1082.0</ele><time>2026-04-04T08:25:57.601Z</time></trkpt><trkpt lat="44.726375" lon="9.32455"><ele>1082.0</ele><time>2026-04-04T08:25:58.6Z</time></trkpt><trkpt lat="44.7262867" lon="9.3246217"><ele>1082.0</ele><time>2026-04-04T08:25:59.6Z</time></trkpt><trkpt lat="44.7262" lon="9.3246933"><ele>1082.0</ele><time>2026-04-04T08:26:00.601Z</time></trkpt><trkpt lat="44.726115" lon="9.32476"><ele>1081.6</ele><time>2026-04-04T08:26:01.6Z</time></trkpt><trkpt lat="44.72603" lon="9.3248183"><ele>1081.2</ele><time>2026-04-04T08:26:02.601Z</time></trkpt><trkpt lat="44.7259467" lon="9.3248867"><ele>1080.8</ele><time>2026-04-04T08:26:03.601Z</time></trkpt><trkpt lat="44.7258683" lon="9.3249517"><ele>1080.4</ele><time>2026-04-04T08:26:04.601Z</time></trkpt><trkpt lat="44.725805" lon="9.325005"><ele>1080.0</ele><time>2026-04-04T08:26:05.601Z</time></trkpt><trkpt lat="44.7257083" lon="9.325035"><ele>1080.0</ele><time>2026-04-04T08:26:07.601Z</time></trkpt><trkpt lat="44.725655" lon="9.324965"><ele>1080.0</ele><time>2026-04-04T08:26:09.6Z</time></trkpt><trkpt lat="44.7256567" lon="9.3248167"><ele>1080.0</ele><time>2026-04-04T08:26:11.6Z</time></trkpt><trkpt lat="44.7256767" lon="9.3247267"><ele>1080.0</ele><time>2026-04-04T08:26:12.599Z</time></trkpt><trkpt lat="44.725695" lon="9.32461"><ele>1080.0</ele><time>2026-04-04T08:26:13.6Z</time></trkpt><trkpt lat="44.7257083" lon="9.3244817"><ele>1080.0</ele><time>2026-04-04T08:26:14.601Z</time></trkpt><trkpt lat="44.7257083" lon="9.3243517"><ele>1078.8333333333333</ele><time>2026-04-04T08:26:15.601Z</time></trkpt><trkpt lat="44.7256983" lon="9.324215"><ele>1077.6666666666667</ele><time>2026-04-04T08:26:16.602Z</time></trkpt><trkpt lat="44.7256933" lon="9.3240883"><ele>1076.5</ele><time>2026-04-04T08:26:17.601Z</time></trkpt><trkpt lat="44.7257" lon="9.3239767"><ele>1075.3333333333335</ele><time>2026-04-04T08:26:18.602Z</time></trkpt><trkpt lat="44.7257167" lon="9.3238717"><ele>1074.1666666666667</ele><time>2026-04-04T08:26:19.602Z</time></trkpt><trkpt lat="44.7257533" lon="9.32379"><ele>1073.0</ele><time>2026-04-04T08:26:20.601Z</time></trkpt><trkpt lat="44.7258083" lon="9.3237183"><ele>1071.5</ele><time>2026-04-04T08:26:21.601Z</time></trkpt><trkpt lat="44.72589" lon="9.3236533"><ele>1070.0</ele><time>2026-04-04T08:26:22.601Z</time></trkpt><trkpt lat="44.72596" lon="9.323585"><ele>1068.5</ele><time>2026-04-04T08:26:23.6Z</time></trkpt><trkpt lat="44.72601" lon="9.3235167"><ele>1067.0</ele><time>2026-04-04T08:26:24.601Z</time></trkpt><trkpt lat="44.72603" lon="9.3233633"><ele>1065.5</ele><time>2026-04-04T08:26:26.601Z</time></trkpt><trkpt lat="44.726015" lon="9.3232767"><ele>1064.0</ele><time>2026-04-04T08:26:27.601Z</time></trkpt><trkpt lat="44.7259767" lon="9.3231767"><ele>1064.0</ele><time>2026-04-04T08:26:28.6Z</time></trkpt><trkpt lat="44.7259417" lon="9.3230767"><ele>1064.0</ele><time>2026-04-04T08:26:29.601Z</time></trkpt><trkpt lat="44.7258933" lon="9.32296"><ele>1064.0</ele><time>2026-04-04T08:26:30.601Z</time></trkpt><trkpt lat="44.7258617" lon="9.3228317"><ele>1064.0</ele><time>2026-04-04T08:26:31.6Z</time></trkpt><trkpt lat="44.7258483" lon="9.3227"><ele>1064.0</ele><time>2026-04-04T08:26:32.601Z</time></trkpt><trkpt lat="44.72586" lon="9.322585"><ele>1064.0</ele><time>2026-04-04T08:26:33.601Z</time></trkpt><trkpt lat="44.7258733" lon="9.3224733"><ele>1062.4</ele><time>2026-04-04T08:26:34.6Z</time></trkpt><trkpt lat="44.725885" lon="9.3223483"><ele>1060.8000000000002</ele><time>2026-04-04T08:26:35.601Z</time></trkpt><trkpt lat="44.7258917" lon="9.3222133"><ele>1059.1999999999998</ele><time>2026-04-04T08:26:36.599Z</time></trkpt><trkpt lat="44.7258867" lon="9.3220733"><ele>1057.6</ele><time>2026-04-04T08:26:37.601Z</time></trkpt><trkpt lat="44.7258733" lon="9.3219333"><ele>1056.0</ele><time>2026-04-04T08:26:38.601Z</time></trkpt><trkpt lat="44.7258483" lon="9.321795"><ele>1055.0</ele><time>2026-04-04T08:26:39.6Z</time></trkpt><trkpt lat="44.725825" lon="9.32167"><ele>1054.0</ele><time>2026-04-04T08:26:40.6Z</time></trkpt><trkpt lat="44.7257933" lon="9.3215467"><ele>1053.0</ele><time>2026-04-04T08:26:41.601Z</time></trkpt><trkpt lat="44.72576" lon="9.3214267"><ele>1052.0</ele><time>2026-04-04T08:26:42.601Z</time></trkpt><trkpt lat="44.7257467" lon="9.3213133"><ele>1051.0</ele><time>2026-04-04T08:26:43.6Z</time></trkpt><trkpt lat="44.725745" lon="9.321205"><ele>1050.0</ele><time>2026-04-04T08:26:44.601Z</time></trkpt><trkpt lat="44.7257617" lon="9.3210967"><ele>1048.8333333333333</ele><time>2026-04-04T08:26:45.603Z</time></trkpt><trkpt lat="44.7258067" lon="9.320985"><ele>1047.6666666666667</ele><time>2026-04-04T08:26:46.601Z</time></trkpt><trkpt lat="44.7258583" lon="9.3208783"><ele>1046.5</ele><time>2026-04-04T08:26:47.601Z</time></trkpt><trkpt lat="44.7258983" lon="9.32076"><ele>1045.3333333333335</ele><time>2026-04-04T08:26:48.601Z</time></trkpt><trkpt lat="44.7259267" lon="9.3206417"><ele>1044.1666666666667</ele><time>2026-04-04T08:26:49.601Z</time></trkpt><trkpt lat="44.7259483" lon="9.3205317"><ele>1043.0</ele><time>2026-04-04T08:26:50.601Z</time></trkpt><trkpt lat="44.72596" lon="9.3204233"><ele>1042.5714285714287</ele><time>2026-04-04T08:26:51.6Z</time></trkpt><trkpt lat="44.7259767" lon="9.3203217"><ele>1042.142857142857</ele><time>2026-04-04T08:26:52.601Z</time></trkpt><trkpt lat="44.7260017" lon="9.320225"><ele>1041.7142857142858</ele><time>2026-04-04T08:26:53.6Z</time></trkpt><trkpt lat="44.726035" lon="9.3201317"><ele>1041.2857142857142</ele><time>2026-04-04T08:26:54.6Z</time></trkpt><trkpt lat="44.726075" lon="9.3200567"><ele>1040.857142857143</ele><time>2026-04-04T08:26:55.601Z</time></trkpt><trkpt lat="44.7261317" lon="9.3199867"><ele>1040.4285714285716</ele><time>2026-04-04T08:26:56.601Z</time></trkpt><trkpt lat="44.7261867" lon="9.31991"><ele>1040.0</ele><time>2026-04-04T08:26:57.601Z</time></trkpt><trkpt lat="44.7262317" lon="9.3198267"><ele>1039.8333333333335</ele><time>2026-04-04T08:26:58.6Z</time></trkpt><trkpt lat="44.726265" lon="9.3197417"><ele>1039.6666666666667</ele><time>2026-04-04T08:26:59.6Z</time></trkpt><trkpt lat="44.7262833" lon="9.3195717"><ele>1039.5</ele><time>2026-04-04T08:27:01.601Z</time></trkpt><trkpt lat="44.7262667" lon="9.3194783"><ele>1039.3333333333333</ele><time>2026-04-04T08:27:02.602Z</time></trkpt><trkpt lat="44.72624" lon="9.319375"><ele>1039.1666666666665</ele><time>2026-04-04T08:27:03.602Z</time></trkpt><trkpt lat="44.726195" lon="9.319265"><ele>1039.0</ele><time>2026-04-04T08:27:04.602Z</time></trkpt><trkpt lat="44.7261567" lon="9.3191583"><ele>1036.8333333333333</ele><time>2026-04-04T08:27:05.602Z</time></trkpt><trkpt lat="44.726135" lon="9.3190483"><ele>1034.6666666666665</ele><time>2026-04-04T08:27:06.603Z</time></trkpt><trkpt lat="44.72612" lon="9.31894"><ele>1032.5</ele><time>2026-04-04T08:27:07.602Z</time></trkpt><trkpt lat="44.72612" lon="9.3188167"><ele>1030.3333333333333</ele><time>2026-04-04T08:27:08.603Z</time></trkpt><trkpt lat="44.726135" lon="9.3187"><ele>1028.1666666666667</ele><time>2026-04-04T08:27:09.602Z</time></trkpt><trkpt lat="44.726145" lon="9.3185683"><ele>1026.0</ele><time>2026-04-04T08:27:10.603Z</time></trkpt><trkpt lat="44.7261483" lon="9.3184217"><ele>1022.75</ele><time>2026-04-04T08:27:11.601Z</time></trkpt><trkpt lat="44.7261533" lon="9.3182717"><ele>1019.5</ele><time>2026-04-04T08:27:12.6Z</time></trkpt><trkpt lat="44.7261567" lon="9.3181167"><ele>1016.25</ele><time>2026-04-04T08:27:13.602Z</time></trkpt><trkpt lat="44.726155" lon="9.3179567"><ele>1013.0</ele><time>2026-04-04T08:27:14.601Z</time></trkpt><trkpt lat="44.726145" lon="9.3177783"><ele>1013.0</ele><time>2026-04-04T08:27:15.601Z</time></trkpt><trkpt lat="44.7261333" lon="9.3176017"><ele>1013.0</ele><time>2026-04-04T08:27:16.601Z</time></trkpt><trkpt lat="44.7261233" lon="9.3174333"><ele>1013.0</ele><time>2026-04-04T08:27:17.601Z</time></trkpt><trkpt lat="44.726115" lon="9.3172683"><ele>1013.0</ele><time>2026-04-04T08:27:18.601Z</time></trkpt><trkpt lat="44.7261083" lon="9.3171083"><ele>1013.3333333333334</ele><time>2026-04-04T08:27:19.602Z</time></trkpt><trkpt lat="44.72611" lon="9.3169617"><ele>1013.6666666666667</ele><time>2026-04-04T08:27:20.601Z</time></trkpt><trkpt lat="44.7261083" lon="9.3168217"><ele>1014.0</ele><time>2026-04-04T08:27:21.601Z</time></trkpt><trkpt lat="44.726105" lon="9.3166967"><ele>1014.3333333333333</ele><time>2026-04-04T08:27:22.602Z</time></trkpt><trkpt lat="44.7261083" lon="9.3165867"><ele>1014.6666666666666</ele><time>2026-04-04T08:27:23.6Z</time></trkpt><trkpt lat="44.7261233" lon="9.3164967"><ele>1015.0</ele><time>2026-04-04T08:27:24.601Z</time></trkpt><trkpt lat="44.7261533" lon="9.3164133"><ele>1013.6666666666666</ele><time>2026-04-04T08:27:25.601Z</time></trkpt><trkpt lat="44.7261933" lon="9.3163333"><ele>1012.3333333333333</ele><time>2026-04-04T08:27:26.601Z</time></trkpt><trkpt lat="44.7262333" lon="9.3162467"><ele>1011.0</ele><time>2026-04-04T08:27:27.602Z</time></trkpt><trkpt lat="44.726275" lon="9.31615"><ele>1009.6666666666667</ele><time>2026-04-04T08:27:28.602Z</time></trkpt><trkpt lat="44.7263183" lon="9.3160633"><ele>1008.3333333333334</ele><time>2026-04-04T08:27:29.602Z</time></trkpt><trkpt lat="44.7263583" lon="9.3159867"><ele>1007.0</ele><time>2026-04-04T08:27:30.601Z</time></trkpt><trkpt lat="44.72642" lon="9.31587"><ele>1007.0</ele><time>2026-04-04T08:27:32.601Z</time></trkpt><trkpt lat="44.7264417" lon="9.31578"><ele>1007.0</ele><time>2026-04-04T08:27:35.602Z</time></trkpt><trkpt lat="44.72637" lon="9.315845"><ele>1007.0</ele><time>2026-04-04T08:27:40.601Z</time></trkpt><trkpt lat="44.72629" lon="9.31584"><ele>1007.0</ele><time>2026-04-04T08:27:42.6Z</time></trkpt><trkpt lat="44.7261767" lon="9.3158117"><ele>1007.0</ele><time>2026-04-04T08:27:44.6Z</time></trkpt><trkpt lat="44.726065" lon="9.3157817"><ele>1005.0000000000001</ele><time>2026-04-04T08:27:46.601Z</time></trkpt><trkpt lat="44.7259883" lon="9.315775"><ele>1003.0</ele><time>2026-04-04T08:27:48.6Z</time></trkpt><trkpt lat="44.7259267" lon="9.3157517"><ele>1001.0</ele><time>2026-04-04T08:27:51.6Z</time></trkpt><trkpt lat="44.7258617" lon="9.3157367"><ele>999.0</ele><time>2026-04-04T08:27:54.601Z</time></trkpt><trkpt lat="44.7257883" lon="9.31572"><ele>997.0000000000001</ele><time>2026-04-04T08:27:56.601Z</time></trkpt><trkpt lat="44.7256983" lon="9.315695"><ele>995.0</ele><time>2026-04-04T08:27:58.602Z</time></trkpt><trkpt lat="44.7256067" lon="9.3155917"><ele>992.6</ele><time>2026-04-04T08:28:00.6Z</time></trkpt><trkpt lat="44.725535" lon="9.3154883"><ele>990.2</ele><time>2026-04-04T08:28:02.601Z</time></trkpt><trkpt lat="44.7254783" lon="9.3153567"><ele>987.8</ele><time>2026-04-04T08:28:04.6Z</time></trkpt><trkpt lat="44.7254167" lon="9.31528"><ele>985.4</ele><time>2026-04-04T08:28:06.601Z</time></trkpt><trkpt lat="44.7253033" lon="9.3152683"><ele>983.0</ele><time>2026-04-04T08:28:08.602Z</time></trkpt><trkpt lat="44.7252217" lon="9.31528"><ele>980.3333333333334</ele><time>2026-04-04T08:28:09.6Z</time></trkpt><trkpt lat="44.7251367" lon="9.3152817"><ele>977.6666666666667</ele><time>2026-04-04T08:28:10.601Z</time></trkpt><trkpt lat="44.725055" lon="9.3152767"><ele>975.0</ele><time>2026-04-04T08:28:11.6Z</time></trkpt><trkpt lat="44.7249817" lon="9.3152767"><ele>972.3333333333333</ele><time>2026-04-04T08:28:12.601Z</time></trkpt><trkpt lat="44.7249167" lon="9.3152783"><ele>969.6666666666666</ele><time>2026-04-04T08:28:13.6Z</time></trkpt><trkpt lat="44.7248117" lon="9.3152717"><ele>967.0</ele><time>2026-04-04T08:28:15.601Z</time></trkpt><trkpt lat="44.7247533" lon="9.3152183"><ele>966.9999999999999</ele><time>2026-04-04T08:28:17.601Z</time></trkpt><trkpt lat="44.72469" lon="9.3151733"><ele>967.0</ele><time>2026-04-04T08:28:30.601Z</time></trkpt><trkpt lat="44.7246433" lon="9.3150983"><ele>967.0</ele><time>2026-04-04T08:28:33.601Z</time></trkpt><trkpt lat="44.7246217" lon="9.31501"><ele>967.0</ele><time>2026-04-04T08:28:36.601Z</time></trkpt><trkpt lat="44.72466" lon="9.3148983"><ele>966.9999999999999</ele><time>2026-04-04T08:28:39.601Z</time></trkpt><trkpt lat="44.7247117" lon="9.31481"><ele>967.0</ele><time>2026-04-04T08:28:41.6Z</time></trkpt><trkpt lat="44.7247467" lon="9.3147017"><ele>964.4999999999999</ele><time>2026-04-04T08:28:43.601Z</time></trkpt><trkpt lat="44.7247633" lon="9.3145883"><ele>962.0</ele><time>2026-04-04T08:28:45.601Z</time></trkpt><trkpt lat="44.72474" lon="9.314505"><ele>959.5</ele><time>2026-04-04T08:28:47.601Z</time></trkpt><trkpt lat="44.7246517" lon="9.3145033"><ele>957.0</ele><time>2026-04-04T08:28:50.603Z</time></trkpt><trkpt lat="44.7245867" lon="9.3144783"><ele>954.4999999999999</ele><time>2026-04-04T08:28:52.602Z</time></trkpt><trkpt lat="44.7245167" lon="9.3144117"><ele>952.0</ele><time>2026-04-04T08:28:54.603Z</time></trkpt><trkpt lat="44.7244417" lon="9.3143783"><ele>950.6666666666666</ele><time>2026-04-04T08:28:57.602Z</time></trkpt><trkpt lat="44.7243683" lon="9.3143283"><ele>949.3333333333333</ele><time>2026-04-04T08:29:01.601Z</time></trkpt><trkpt lat="44.7243" lon="9.3142983"><ele>948.0</ele><time>2026-04-04T08:29:05.601Z</time></trkpt><trkpt lat="44.7242417" lon="9.3142583"><ele>946.6666666666667</ele><time>2026-04-04T08:29:09.6Z</time></trkpt><trkpt lat="44.72417" lon="9.314245"><ele>945.3333333333334</ele><time>2026-04-04T08:29:12.601Z</time></trkpt><trkpt lat="44.7240817" lon="9.3142567"><ele>944.0</ele><time>2026-04-04T08:29:15.601Z</time></trkpt><trkpt lat="44.724015" lon="9.3141717"><ele>944.0000000000001</ele><time>2026-04-04T08:29:18.601Z</time></trkpt><trkpt lat="44.7239967" lon="9.3140833"><ele>944.0</ele><time>2026-04-04T08:29:20.603Z</time></trkpt><trkpt lat="44.72403" lon="9.3138933"><ele>944.0</ele><time>2026-04-04T08:29:43.602Z</time></trkpt><trkpt lat="44.724" lon="9.31381"><ele>944.0</ele><time>2026-04-04T08:29:48.601Z</time></trkpt><trkpt lat="44.7239633" lon="9.3137283"><ele>944.0000000000001</ele><time>2026-04-04T08:29:51.604Z</time></trkpt><trkpt lat="44.72392" lon="9.3136383"><ele>944.0</ele><time>2026-04-04T08:29:54.601Z</time></trkpt><trkpt lat="44.723905" lon="9.3135033"><ele>942.6666666666667</ele><time>2026-04-04T08:30:07.603Z</time></trkpt><trkpt lat="44.723895" lon="9.31341"><ele>941.3333333333334</ele><time>2026-04-04T08:30:08.601Z</time></trkpt><trkpt lat="44.7238933" lon="9.3132967"><ele>940.0</ele><time>2026-04-04T08:30:09.602Z</time></trkpt><trkpt lat="44.723895" lon="9.3131933"><ele>938.6666666666667</ele><time>2026-04-04T08:30:10.603Z</time></trkpt><trkpt lat="44.723905" lon="9.3130783"><ele>937.3333333333334</ele><time>2026-04-04T08:30:11.601Z</time></trkpt><trkpt lat="44.72391" lon="9.3129617"><ele>936.0</ele><time>2026-04-04T08:30:12.6Z</time></trkpt><trkpt lat="44.7239133" lon="9.312845"><ele>933.6666666666666</ele><time>2026-04-04T08:30:13.601Z</time></trkpt><trkpt lat="44.723905" lon="9.31274"><ele>931.3333333333333</ele><time>2026-04-04T08:30:14.601Z</time></trkpt><trkpt lat="44.7238983" lon="9.3126517"><ele>929.0</ele><time>2026-04-04T08:30:15.6Z</time></trkpt><trkpt lat="44.7238783" lon="9.3124933"><ele>926.6666666666666</ele><time>2026-04-04T08:30:17.6Z</time></trkpt><trkpt lat="44.72386" lon="9.312335"><ele>924.3333333333333</ele><time>2026-04-04T08:30:19.601Z</time></trkpt><trkpt lat="44.7238717" lon="9.312245"><ele>922.0</ele><time>2026-04-04T08:30:20.6Z</time></trkpt><trkpt lat="44.723895" lon="9.3121533"><ele>919.4999999999999</ele><time>2026-04-04T08:30:21.6Z</time></trkpt><trkpt lat="44.7239417" lon="9.3120167"><ele>917.0</ele><time>2026-04-04T08:30:23.602Z</time></trkpt><trkpt lat="44.7239683" lon="9.31193"><ele>914.5</ele><time>2026-04-04T08:30:24.601Z</time></trkpt><trkpt lat="44.7239967" lon="9.3118417"><ele>912.0</ele><time>2026-04-04T08:30:25.601Z</time></trkpt><trkpt lat="44.72403" lon="9.3117483"><ele>909.4999999999999</ele><time>2026-04-04T08:30:26.602Z</time></trkpt><trkpt lat="44.7240717" lon="9.3116667"><ele>907.0</ele><time>2026-04-04T08:30:27.602Z</time></trkpt><trkpt lat="44.7241117" lon="9.311585"><ele>906.9999999999999</ele><time>2026-04-04T08:30:28.602Z</time></trkpt><trkpt lat="44.7241433" lon="9.3115033"><ele>907.0</ele><time>2026-04-04T08:30:29.601Z</time></trkpt><trkpt lat="44.724175" lon="9.311415"><ele>907.0</ele><time>2026-04-04T08:30:30.601Z</time></trkpt><trkpt lat="44.72421" lon="9.311325"><ele>907.0</ele><time>2026-04-04T08:30:31.601Z</time></trkpt><trkpt lat="44.72425" lon="9.3112383"><ele>906.9999999999999</ele><time>2026-04-04T08:30:32.602Z</time></trkpt><trkpt lat="44.7243233" lon="9.3110983"><ele>907.0</ele><time>2026-04-04T08:30:34.601Z</time></trkpt><trkpt lat="44.7243567" lon="9.3110183"><ele>906.0</ele><time>2026-04-04T08:30:35.602Z</time></trkpt><trkpt lat="44.7244083" lon="9.31086"><ele>905.0</ele><time>2026-04-04T08:30:37.601Z</time></trkpt><trkpt lat="44.7244483" lon="9.3107017"><ele>904.0</ele><time>2026-04-04T08:30:39.601Z</time></trkpt><trkpt lat="44.7244883" lon="9.3105567"><ele>903.0</ele><time>2026-04-04T08:30:41.601Z</time></trkpt><trkpt lat="44.7244767" lon="9.3104117"><ele>901.6666666666666</ele><time>2026-04-04T08:30:43.601Z</time></trkpt><trkpt lat="44.7244417" lon="9.3102617"><ele>900.3333333333333</ele><time>2026-04-04T08:30:45.602Z</time></trkpt><trkpt lat="44.7244567" lon="9.310095"><ele>899.0</ele><time>2026-04-04T08:31:23.6Z</time></trkpt><trkpt lat="44.7244317" lon="9.3100017"><ele>897.6666666666666</ele><time>2026-04-04T08:31:25.601Z</time></trkpt><trkpt lat="44.7243833" lon="9.309945"><ele>896.3333333333333</ele><time>2026-04-04T08:31:26.6Z</time></trkpt><trkpt lat="44.7243233" lon="9.3098767"><ele>895.0</ele><time>2026-04-04T08:31:27.599Z</time></trkpt><trkpt lat="44.72426" lon="9.3098067"><ele>892.0</ele><time>2026-04-04T08:31:28.601Z</time></trkpt><trkpt lat="44.7241883" lon="9.3097333"><ele>889.0</ele><time>2026-04-04T08:31:29.601Z</time></trkpt><trkpt lat="44.72411" lon="9.3096667"><ele>886.0</ele><time>2026-04-04T08:31:30.601Z</time></trkpt><trkpt lat="44.7240233" lon="9.3096117"><ele>883.0</ele><time>2026-04-04T08:31:31.602Z</time></trkpt><trkpt lat="44.723925" lon="9.3095867"><ele>880.0</ele><time>2026-04-04T08:31:32.602Z</time></trkpt><trkpt lat="44.7238183" lon="9.30958"><ele>880.0</ele><time>2026-04-04T08:31:33.602Z</time></trkpt><trkpt lat="44.723715" lon="9.3095967"><ele>880.0</ele><time>2026-04-04T08:31:34.601Z</time></trkpt><trkpt lat="44.7236133" lon="9.309625"><ele>880.0</ele><time>2026-04-04T08:31:35.602Z</time></trkpt><trkpt lat="44.7235183" lon="9.3096583"><ele>880.0</ele><time>2026-04-04T08:31:36.601Z</time></trkpt><trkpt lat="44.723425" lon="9.309685"><ele>880.0</ele><time>2026-04-04T08:31:37.602Z</time></trkpt><trkpt lat="44.723335" lon="9.3096967"><ele>878.9999999999999</ele><time>2026-04-04T08:31:38.602Z</time></trkpt><trkpt lat="44.723255" lon="9.309685"><ele>878.0</ele><time>2026-04-04T08:31:39.601Z</time></trkpt><trkpt lat="44.7231883" lon="9.3096333"><ele>877.0</ele><time>2026-04-04T08:31:40.601Z</time></trkpt><trkpt lat="44.7231317" lon="9.3095533"><ele>876.0</ele><time>2026-04-04T08:31:41.6Z</time></trkpt><trkpt lat="44.7231" lon="9.30942"><ele>874.9999999999999</ele><time>2026-04-04T08:31:42.601Z</time></trkpt><trkpt lat="44.723075" lon="9.3092817"><ele>874.0</ele><time>2026-04-04T08:31:43.601Z</time></trkpt><trkpt lat="44.7230483" lon="9.3091367"><ele>873.9999999999999</ele><time>2026-04-04T08:31:44.601Z</time></trkpt><trkpt lat="44.7230133" lon="9.3089983"><ele>874.0</ele><time>2026-04-04T08:31:45.601Z</time></trkpt><trkpt lat="44.7229583" lon="9.3089033"><ele>874.0</ele><time>2026-04-04T08:31:46.6Z</time></trkpt><trkpt lat="44.7228917" lon="9.3088317"><ele>874.0</ele><time>2026-04-04T08:31:47.601Z</time></trkpt><trkpt lat="44.7228117" lon="9.3087917"><ele>873.9999999999999</ele><time>2026-04-04T08:31:48.602Z</time></trkpt><trkpt lat="44.72273" lon="9.3087467"><ele>874.0</ele><time>2026-04-04T08:31:49.6Z</time></trkpt><trkpt lat="44.7226567" lon="9.30867"><ele>874.2</ele><time>2026-04-04T08:31:50.601Z</time></trkpt><trkpt lat="44.7226083" lon="9.3085617"><ele>874.4000000000001</ele><time>2026-04-04T08:31:51.601Z</time></trkpt><trkpt lat="44.7225917" lon="9.3084367"><ele>874.6</ele><time>2026-04-04T08:31:52.605Z</time></trkpt><trkpt lat="44.7225933" lon="9.3082967"><ele>874.8</ele><time>2026-04-04T08:31:53.601Z</time></trkpt><trkpt lat="44.7226033" lon="9.308135"><ele>875.0</ele><time>2026-04-04T08:31:54.601Z</time></trkpt><trkpt lat="44.7226167" lon="9.307955"><ele>875.0</ele><time>2026-04-04T08:31:55.602Z</time></trkpt><trkpt lat="44.7226283" lon="9.30777"><ele>875.0</ele><time>2026-04-04T08:31:56.6Z</time></trkpt><trkpt lat="44.722635" lon="9.3075917"><ele>875.0</ele><time>2026-04-04T08:31:57.602Z</time></trkpt><trkpt lat="44.7226417" lon="9.3074117"><ele>875.0</ele><time>2026-04-04T08:31:58.602Z</time></trkpt><trkpt lat="44.7226483" lon="9.3072317"><ele>872.25</ele><time>2026-04-04T08:31:59.601Z</time></trkpt><trkpt lat="44.7226517" lon="9.307055"><ele>869.5</ele><time>2026-04-04T08:32:00.601Z</time></trkpt><trkpt lat="44.722645" lon="9.306885"><ele>866.75</ele><time>2026-04-04T08:32:01.601Z</time></trkpt><trkpt lat="44.72262" lon="9.3067267"><ele>864.0</ele><time>2026-04-04T08:32:02.602Z</time></trkpt><trkpt lat="44.7225817" lon="9.3065817"><ele>864.0</ele><time>2026-04-04T08:32:03.601Z</time></trkpt><trkpt lat="44.7225333" lon="9.3064433"><ele>864.0000000000001</ele><time>2026-04-04T08:32:04.6Z</time></trkpt><trkpt lat="44.7224833" lon="9.3063117"><ele>864.0000000000001</ele><time>2026-04-04T08:32:05.6Z</time></trkpt><trkpt lat="44.7224267" lon="9.3062017"><ele>864.0</ele><time>2026-04-04T08:32:06.6Z</time></trkpt><trkpt lat="44.7223583" lon="9.3061117"><ele>864.0</ele><time>2026-04-04T08:32:07.602Z</time></trkpt><trkpt lat="44.72228" lon="9.3060317"><ele>861.4000000000001</ele><time>2026-04-04T08:32:08.602Z</time></trkpt><trkpt lat="44.7221983" lon="9.3059717"><ele>858.8000000000001</ele><time>2026-04-04T08:32:09.601Z</time></trkpt><trkpt lat="44.7221133" lon="9.305925"><ele>856.2</ele><time>2026-04-04T08:32:10.6Z</time></trkpt><trkpt lat="44.72202" lon="9.305905"><ele>853.5999999999999</ele><time>2026-04-04T08:32:11.602Z</time></trkpt><trkpt lat="44.7219317" lon="9.3058717"><ele>851.0</ele><time>2026-04-04T08:32:12.601Z</time></trkpt><trkpt lat="44.7218517" lon="9.30585"><ele>851.0000000000001</ele><time>2026-04-04T08:32:13.601Z</time></trkpt><trkpt lat="44.721785" lon="9.305825"><ele>851.0</ele><time>2026-04-04T08:32:14.602Z</time></trkpt><trkpt lat="44.7216983" lon="9.3058167"><ele>851.0</ele><time>2026-04-04T08:32:16.602Z</time></trkpt><trkpt lat="44.7216467" lon="9.3057067"><ele>851.0</ele><time>2026-04-04T08:32:20.602Z</time></trkpt><trkpt lat="44.721595" lon="9.3056"><ele>851.0000000000001</ele><time>2026-04-04T08:32:22.6Z</time></trkpt><trkpt lat="44.7215617" lon="9.3055217"><ele>851.0</ele><time>2026-04-04T08:32:23.601Z</time></trkpt><trkpt lat="44.7215317" lon="9.3054433"><ele>847.8</ele><time>2026-04-04T08:32:24.601Z</time></trkpt><trkpt lat="44.72148" lon="9.3052883"><ele>844.5999999999999</ele><time>2026-04-04T08:32:26.6Z</time></trkpt><trkpt lat="44.721485" lon="9.30515"><ele>841.4</ele><time>2026-04-04T08:32:28.601Z</time></trkpt><trkpt lat="44.7214933" lon="9.305015"><ele>838.2</ele><time>2026-04-04T08:32:30.601Z</time></trkpt><trkpt lat="44.72148" lon="9.3048533"><ele>835.0</ele><time>2026-04-04T08:32:32.603Z</time></trkpt><trkpt lat="44.7215167" lon="9.3046883"><ele>832.4285714285714</ele><time>2026-04-04T08:32:34.602Z</time></trkpt><trkpt lat="44.721545" lon="9.3046017"><ele>829.8571428571429</ele><time>2026-04-04T08:32:35.601Z</time></trkpt><trkpt lat="44.7215717" lon="9.30451"><ele>827.2857142857142</ele><time>2026-04-04T08:32:36.602Z</time></trkpt><trkpt lat="44.721595" lon="9.3044117"><ele>824.7142857142858</ele><time>2026-04-04T08:32:37.601Z</time></trkpt><trkpt lat="44.721605" lon="9.3043183"><ele>822.1428571428571</ele><time>2026-04-04T08:32:38.6Z</time></trkpt><trkpt lat="44.721615" lon="9.304225"><ele>819.5714285714286</ele><time>2026-04-04T08:32:39.601Z</time></trkpt><trkpt lat="44.7216267" lon="9.3041367"><ele>817.0</ele><time>2026-04-04T08:32:40.602Z</time></trkpt><trkpt lat="44.72167" lon="9.304005"><ele>816.9999999999999</ele><time>2026-04-04T08:32:42.602Z</time></trkpt><trkpt lat="44.72175" lon="9.3039517"><ele>817.0</ele><time>2026-04-04T08:32:44.601Z</time></trkpt><trkpt lat="44.72184" lon="9.303945"><ele>817.0</ele><time>2026-04-04T08:32:46.601Z</time></trkpt><trkpt lat="44.721925" lon="9.3039067"><ele>817.0</ele><time>2026-04-04T08:32:48.601Z</time></trkpt><trkpt lat="44.7219983" lon="9.3038917"><ele>816.9999999999999</ele><time>2026-04-04T08:32:50.601Z</time></trkpt><trkpt lat="44.7220667" lon="9.30389"><ele>817.0</ele><time>2026-04-04T08:32:52.602Z</time></trkpt><trkpt lat="44.7221183" lon="9.3039483"><ele>815.6666666666666</ele><time>2026-04-04T08:32:54.602Z</time></trkpt><trkpt lat="44.722205" lon="9.3040783"><ele>814.3333333333333</ele><time>2026-04-04T08:32:56.601Z</time></trkpt><trkpt lat="44.7222617" lon="9.3041633"><ele>813.0</ele><time>2026-04-04T08:32:57.601Z</time></trkpt><trkpt lat="44.7223267" lon="9.30424"><ele>811.6666666666667</ele><time>2026-04-04T08:32:58.601Z</time></trkpt><trkpt lat="44.7223967" lon="9.3042967"><ele>810.3333333333334</ele><time>2026-04-04T08:32:59.601Z</time></trkpt><trkpt lat="44.7224567" lon="9.3043283"><ele>809.0</ele><time>2026-04-04T08:33:00.601Z</time></trkpt><trkpt lat="44.72255" lon="9.3042833"><ele>809.0</ele><time>2026-04-04T08:33:02.603Z</time></trkpt><trkpt lat="44.7226183" lon="9.304175"><ele>809.0</ele><time>2026-04-04T08:33:04.603Z</time></trkpt><trkpt lat="44.7226467" lon="9.3040883"><ele>809.0</ele><time>2026-04-04T08:33:06.603Z</time></trkpt><trkpt lat="44.722655" lon="9.30397"><ele>809.0</ele><time>2026-04-04T08:33:08.603Z</time></trkpt><trkpt lat="44.7226267" lon="9.3038033"><ele>809.0</ele><time>2026-04-04T08:33:10.601Z</time></trkpt><trkpt lat="44.7225883" lon="9.3036283"><ele>805.6</ele><time>2026-04-04T08:33:12.602Z</time></trkpt><trkpt lat="44.7225933" lon="9.3034767"><ele>802.2</ele><time>2026-04-04T08:33:14.6Z</time></trkpt><trkpt lat="44.7225917" lon="9.303345"><ele>798.8000000000001</ele><time>2026-04-04T08:33:16.6Z</time></trkpt><trkpt lat="44.7225517" lon="9.30324"><ele>795.4000000000001</ele><time>2026-04-04T08:33:18.601Z</time></trkpt><trkpt lat="44.7225367" lon="9.3031017"><ele>792.0</ele><time>2026-04-04T08:33:20.602Z</time></trkpt><trkpt lat="44.7225383" lon="9.3029267"><ele>789.6</ele><time>2026-04-04T08:33:22.6Z</time></trkpt><trkpt lat="44.72252" lon="9.3027767"><ele>787.2</ele><time>2026-04-04T08:33:24.6Z</time></trkpt><trkpt lat="44.7225267" lon="9.3026283"><ele>784.8</ele><time>2026-04-04T08:33:26.6Z</time></trkpt><trkpt lat="44.72257" lon="9.3024883"><ele>782.4</ele><time>2026-04-04T08:33:28.599Z</time></trkpt><trkpt lat="44.722605" lon="9.3023783"><ele>780.0</ele><time>2026-04-04T08:33:30.599Z</time></trkpt><trkpt lat="44.72261" lon="9.30228"><ele>778.2857142857142</ele><time>2026-04-04T08:33:32.599Z</time></trkpt><trkpt lat="44.72266" lon="9.3021583"><ele>776.5714285714286</ele><time>2026-04-04T08:33:34.601Z</time></trkpt><trkpt lat="44.7226817" lon="9.3020717"><ele>774.8571428571429</ele><time>2026-04-04T08:33:35.6Z</time></trkpt><trkpt lat="44.722695" lon="9.301975"><ele>773.1428571428571</ele><time>2026-04-04T08:33:36.6Z</time></trkpt><trkpt lat="44.7227017" lon="9.3018733"><ele>771.4285714285714</ele><time>2026-04-04T08:33:37.599Z</time></trkpt><trkpt lat="44.7226967" lon="9.3017767"><ele>769.7142857142857</ele><time>2026-04-04T08:33:38.6Z</time></trkpt><trkpt lat="44.7226917" lon="9.3016767"><ele>768.0</ele><time>2026-04-04T08:33:39.6Z</time></trkpt><trkpt lat="44.7226917" lon="9.301575"><ele>768.0</ele><time>2026-04-04T08:33:40.6Z</time></trkpt><trkpt lat="44.7226933" lon="9.3014817"><ele>768.0</ele><time>2026-04-04T08:33:41.6Z</time></trkpt><trkpt lat="44.7227" lon="9.3013933"><ele>768.0</ele><time>2026-04-04T08:33:42.6Z</time></trkpt><trkpt lat="44.7227067" lon="9.301305"><ele>768.0</ele><time>2026-04-04T08:33:43.6Z</time></trkpt><trkpt lat="44.722685" lon="9.3011733"><ele>768.0</ele><time>2026-04-04T08:33:45.6Z</time></trkpt><trkpt lat="44.7226" lon="9.3010633"><ele>768.0</ele><time>2026-04-04T08:33:47.599Z</time></trkpt><trkpt lat="44.7225433" lon="9.300995"><ele>766.5</ele><time>2026-04-04T08:33:48.601Z</time></trkpt><trkpt lat="44.722495" lon="9.3009333"><ele>765.0</ele><time>2026-04-04T08:33:49.6Z</time></trkpt><trkpt lat="44.722405" lon="9.30084"><ele>763.5</ele><time>2026-04-04T08:33:51.6Z</time></trkpt><trkpt lat="44.72236" lon="9.3007333"><ele>762.0</ele><time>2026-04-04T08:33:53.6Z</time></trkpt><trkpt lat="44.7223767" lon="9.3005733"><ele>760.5</ele><time>2026-04-04T08:33:55.6Z</time></trkpt><trkpt lat="44.7224" lon="9.30049"><ele>759.0</ele><time>2026-04-04T08:33:56.601Z</time></trkpt><trkpt lat="44.7224467" lon="9.3003533"><ele>756.6</ele><time>2026-04-04T08:33:58.6Z</time></trkpt><trkpt lat="44.722475" lon="9.3001983"><ele>754.2</ele><time>2026-04-04T08:34:00.599Z</time></trkpt><trkpt lat="44.7225017" lon="9.3000467"><ele>751.8000000000001</ele><time>2026-04-04T08:34:02.601Z</time></trkpt><trkpt lat="44.7224967" lon="9.29989"><ele>749.4000000000001</ele><time>2026-04-04T08:34:04.6Z</time></trkpt><trkpt lat="44.72247" lon="9.2998083"><ele>747.0</ele><time>2026-04-04T08:34:05.601Z</time></trkpt><trkpt lat="44.72244" lon="9.29973"><ele>744.0</ele><time>2026-04-04T08:34:06.601Z</time></trkpt><trkpt lat="44.722395" lon="9.29959"><ele>741.0</ele><time>2026-04-04T08:34:08.6Z</time></trkpt><trkpt lat="44.72237" lon="9.2994483"><ele>738.0</ele><time>2026-04-04T08:34:10.603Z</time></trkpt><trkpt lat="44.7223167" lon="9.2993133"><ele>735.0</ele><time>2026-04-04T08:34:12.6Z</time></trkpt><trkpt lat="44.72231" lon="9.2992017"><ele>732.0</ele><time>2026-04-04T08:34:14.599Z</time></trkpt><trkpt lat="44.7223617" lon="9.29908"><ele>732.0</ele><time>2026-04-04T08:34:16.601Z</time></trkpt><trkpt lat="44.7223733" lon="9.2989733"><ele>732.0</ele><time>2026-04-04T08:34:18.599Z</time></trkpt><trkpt lat="44.722345" lon="9.2988567"><ele>732.0</ele><time>2026-04-04T08:34:20.6Z</time></trkpt><trkpt lat="44.7222767" lon="9.29874"><ele>732.0</ele><time>2026-04-04T08:34:22.6Z</time></trkpt><trkpt lat="44.7222117" lon="9.2986483"><ele>732.0</ele><time>2026-04-04T08:34:24.601Z</time></trkpt><trkpt lat="44.7221617" lon="9.2985767"><ele>732.0</ele><time>2026-04-04T08:34:26.602Z</time></trkpt><trkpt lat="44.72211" lon="9.2984867"><ele>728.0</ele><time>2026-04-04T08:34:29.601Z</time></trkpt><trkpt lat="44.7220733" lon="9.29841"><ele>724.0</ele><time>2026-04-04T08:34:32.602Z</time></trkpt><trkpt lat="44.72203" lon="9.2983317"><ele>720.0</ele><time>2026-04-04T08:34:35.602Z</time></trkpt><trkpt lat="44.7219683" lon="9.29825"><ele>716.0</ele><time>2026-04-04T08:34:37.6Z</time></trkpt><trkpt lat="44.7218683" lon="9.2981533"><ele>712.0</ele><time>2026-04-04T08:34:39.6Z</time></trkpt><trkpt lat="44.7218083" lon="9.298105"><ele>708.0</ele><time>2026-04-04T08:34:40.6Z</time></trkpt><trkpt lat="44.7217433" lon="9.2980617"><ele>704.3333333333334</ele><time>2026-04-04T08:34:41.6Z</time></trkpt><trkpt lat="44.7216717" lon="9.2980167"><ele>700.6666666666666</ele><time>2026-04-04T08:34:42.6Z</time></trkpt><trkpt lat="44.721605" lon="9.2979833"><ele>697.0</ele><time>2026-04-04T08:34:43.599Z</time></trkpt><trkpt lat="44.7214967" lon="9.2979633"><ele>693.3333333333333</ele><time>2026-04-04T08:34:45.6Z</time></trkpt><trkpt lat="44.7214083" lon="9.2979233"><ele>689.6666666666666</ele><time>2026-04-04T08:34:47.599Z</time></trkpt><trkpt lat="44.7213517" lon="9.2978583"><ele>686.0</ele><time>2026-04-04T08:34:49.601Z</time></trkpt><trkpt lat="44.7213067" lon="9.2977917"><ele>686.0</ele><time>2026-04-04T08:34:51.602Z</time></trkpt><trkpt lat="44.72126" lon="9.297725"><ele>686.0</ele><time>2026-04-04T08:34:53.602Z</time></trkpt><trkpt lat="44.7212033" lon="9.2976483"><ele>686.0</ele><time>2026-04-04T08:34:55.6Z</time></trkpt><trkpt lat="44.721165" lon="9.2975767"><ele>686.0</ele><time>2026-04-04T08:34:57.6Z</time></trkpt><trkpt lat="44.7210867" lon="9.29756"><ele>686.0</ele><time>2026-04-04T08:35:44.599Z</time></trkpt><trkpt lat="44.7209983" lon="9.2974717"><ele>686.0</ele><time>2026-04-04T08:35:46.6Z</time></trkpt><trkpt lat="44.7208983" lon="9.2973617"><ele>684.5714285714286</ele><time>2026-04-04T08:35:48.6Z</time></trkpt><trkpt lat="44.7208367" lon="9.29731"><ele>683.1428571428571</ele><time>2026-04-04T08:35:49.601Z</time></trkpt><trkpt lat="44.720775" lon="9.297245"><ele>681.7142857142858</ele><time>2026-04-04T08:35:50.602Z</time></trkpt><trkpt lat="44.7207217" lon="9.2971783"><ele>680.2857142857142</ele><time>2026-04-04T08:35:51.601Z</time></trkpt><trkpt lat="44.7206617" lon="9.2971067"><ele>678.8571428571429</ele><time>2026-04-04T08:35:52.601Z</time></trkpt><trkpt lat="44.7206083" lon="9.297055"><ele>677.4285714285714</ele><time>2026-04-04T08:35:53.603Z</time></trkpt><trkpt lat="44.720545" lon="9.2969983"><ele>676.0</ele><time>2026-04-04T08:35:54.6Z</time></trkpt><trkpt lat="44.7204783" lon="9.29692"><ele>674.0</ele><time>2026-04-04T08:35:55.599Z</time></trkpt><trkpt lat="44.72041" lon="9.2968383"><ele>672.0</ele><time>2026-04-04T08:35:56.601Z</time></trkpt><trkpt lat="44.720345" lon="9.2967667"><ele>670.0</ele><time>2026-04-04T08:35:57.601Z</time></trkpt><trkpt lat="44.7202783" lon="9.2967083"><ele>668.0</ele><time>2026-04-04T08:35:58.602Z</time></trkpt><trkpt lat="44.72022" lon="9.296645"><ele>666.0</ele><time>2026-04-04T08:35:59.6Z</time></trkpt><trkpt lat="44.72012" lon="9.29655"><ele>664.0</ele><time>2026-04-04T08:36:01.6Z</time></trkpt><trkpt lat="44.720045" lon="9.2964317"><ele>661.0</ele><time>2026-04-04T08:36:03.601Z</time></trkpt><trkpt lat="44.71998" lon="9.2963367"><ele>658.0</ele><time>2026-04-04T08:36:05.599Z</time></trkpt><trkpt lat="44.7199117" lon="9.296265"><ele>655.0</ele><time>2026-04-04T08:36:07.601Z</time></trkpt><trkpt lat="44.7198383" lon="9.296185"><ele>652.0</ele><time>2026-04-04T08:36:09.599Z</time></trkpt><trkpt lat="44.7197617" lon="9.2961033"><ele>649.0</ele><time>2026-04-04T08:36:11.6Z</time></trkpt><trkpt lat="44.7196983" lon="9.2960017"><ele>649.0</ele><time>2026-04-04T08:36:13.6Z</time></trkpt><trkpt lat="44.7196217" lon="9.2959233"><ele>649.0</ele><time>2026-04-04T08:36:15.599Z</time></trkpt><trkpt lat="44.7195517" lon="9.2958533"><ele>649.0</ele><time>2026-04-04T08:36:17.601Z</time></trkpt><trkpt lat="44.719475" lon="9.2957533"><ele>649.0</ele><time>2026-04-04T08:36:19.601Z</time></trkpt><trkpt lat="44.719425" lon="9.295695"><ele>649.0</ele><time>2026-04-04T08:36:20.602Z</time></trkpt><trkpt lat="44.719305" lon="9.2956383"><ele>646.4285714285713</ele><time>2026-04-04T08:36:22.602Z</time></trkpt><trkpt lat="44.7192467" lon="9.2955983"><ele>643.8571428571429</ele><time>2026-04-04T08:36:23.601Z</time></trkpt><trkpt lat="44.7191783" lon="9.2955467"><ele>641.2857142857142</ele><time>2026-04-04T08:36:24.601Z</time></trkpt><trkpt lat="44.7191133" lon="9.2954883"><ele>638.7142857142857</ele><time>2026-04-04T08:36:25.6Z</time></trkpt><trkpt lat="44.7190533" lon="9.2954283"><ele>636.1428571428571</ele><time>2026-04-04T08:36:26.599Z</time></trkpt><trkpt lat="44.7189883" lon="9.2953783"><ele>633.5714285714286</ele><time>2026-04-04T08:36:27.6Z</time></trkpt><trkpt lat="44.7189233" lon="9.29534"><ele>631.0</ele><time>2026-04-04T08:36:28.6Z</time></trkpt><trkpt lat="44.718805" lon="9.2952783"><ele>630.1666666666667</ele><time>2026-04-04T08:36:30.599Z</time></trkpt><trkpt lat="44.7186967" lon="9.2952317"><ele>629.3333333333334</ele><time>2026-04-04T08:36:32.601Z</time></trkpt><trkpt lat="44.7185983" lon="9.2951767"><ele>628.5</ele><time>2026-04-04T08:36:34.6Z</time></trkpt><trkpt lat="44.7185183" lon="9.2951533"><ele>627.6666666666666</ele><time>2026-04-04T08:36:36.601Z</time></trkpt><trkpt lat="44.718455" lon="9.295165"><ele>626.8333333333333</ele><time>2026-04-04T08:36:39.6Z</time></trkpt><trkpt lat="44.718385" lon="9.295185"><ele>626.0</ele><time>2026-04-04T08:36:42.604Z</time></trkpt><trkpt lat="44.7183033" lon="9.2951817"><ele>622.8333333333333</ele><time>2026-04-04T08:36:44.601Z</time></trkpt><trkpt lat="44.718225" lon="9.29514"><ele>619.6666666666666</ele><time>2026-04-04T08:36:46.601Z</time></trkpt><trkpt lat="44.71817" lon="9.2950767"><ele>616.5</ele><time>2026-04-04T08:36:48.601Z</time></trkpt><trkpt lat="44.7181683" lon="9.2949517"><ele>613.3333333333334</ele><time>2026-04-04T08:36:51.602Z</time></trkpt><trkpt lat="44.7182367" lon="9.2948383"><ele>610.1666666666667</ele><time>2026-04-04T08:36:53.6Z</time></trkpt><trkpt lat="44.7182917" lon="9.294775"><ele>607.0</ele><time>2026-04-04T08:36:54.599Z</time></trkpt><trkpt lat="44.7183483" lon="9.2947133"><ele>604.6</ele><time>2026-04-04T08:36:55.6Z</time></trkpt><trkpt lat="44.7184317" lon="9.2946033"><ele>602.2</ele><time>2026-04-04T08:36:57.6Z</time></trkpt><trkpt lat="44.7184817" lon="9.2944967"><ele>599.8</ele><time>2026-04-04T08:36:59.6Z</time></trkpt><trkpt lat="44.7184933" lon="9.2943767"><ele>597.4</ele><time>2026-04-04T08:37:01.602Z</time></trkpt><trkpt lat="44.7185033" lon="9.2942417"><ele>595.0</ele><time>2026-04-04T08:37:03.6Z</time></trkpt><trkpt lat="44.7185283" lon="9.2940983"><ele>595.0</ele><time>2026-04-04T08:37:05.6Z</time></trkpt><trkpt lat="44.718535" lon="9.2939733"><ele>595.0</ele><time>2026-04-04T08:37:07.599Z</time></trkpt><trkpt lat="44.7185067" lon="9.29387"><ele>595.0</ele><time>2026-04-04T08:37:09.601Z</time></trkpt><trkpt lat="44.7184767" lon="9.2937217"><ele>595.0</ele><time>2026-04-04T08:37:11.599Z</time></trkpt><trkpt lat="44.71847" lon="9.2936183"><ele>595.0</ele><time>2026-04-04T08:37:12.6Z</time></trkpt><trkpt lat="44.718465" lon="9.2935067"><ele>595.0</ele><time>2026-04-04T08:37:13.599Z</time></trkpt><trkpt lat="44.718465" lon="9.2934083"><ele>594.8333333333334</ele><time>2026-04-04T08:37:14.6Z</time></trkpt><trkpt lat="44.7184583" lon="9.2933133"><ele>594.6666666666667</ele><time>2026-04-04T08:37:15.6Z</time></trkpt><trkpt lat="44.7184467" lon="9.2932183"><ele>594.5</ele><time>2026-04-04T08:37:16.601Z</time></trkpt><trkpt lat="44.7184283" lon="9.293125"><ele>594.3333333333334</ele><time>2026-04-04T08:37:17.601Z</time></trkpt><trkpt lat="44.7184083" lon="9.2930383"><ele>594.1666666666666</ele><time>2026-04-04T08:37:18.6Z</time></trkpt><trkpt lat="44.7183733" lon="9.2928883"><ele>594.0</ele><time>2026-04-04T08:37:20.602Z</time></trkpt><trkpt lat="44.71832" lon="9.2928067"><ele>592.6666666666666</ele><time>2026-04-04T08:37:22.602Z</time></trkpt><trkpt lat="44.718245" lon="9.2927967"><ele>591.3333333333334</ele><time>2026-04-04T08:37:24.599Z</time></trkpt><trkpt lat="44.7181733" lon="9.2928"><ele>590.0</ele><time>2026-04-04T08:37:26.601Z</time></trkpt><trkpt lat="44.718085" lon="9.2928017"><ele>588.6666666666667</ele><time>2026-04-04T08:37:28.601Z</time></trkpt><trkpt lat="44.71798" lon="9.292815"><ele>587.3333333333334</ele><time>2026-04-04T08:37:30.6Z</time></trkpt><trkpt lat="44.7179" lon="9.29286"><ele>586.0</ele><time>2026-04-04T08:37:32.6Z</time></trkpt><trkpt lat="44.71782" lon="9.292885"><ele>586.0</ele><time>2026-04-04T08:37:35.6Z</time></trkpt><trkpt lat="44.7177383" lon="9.2929033"><ele>586.0</ele><time>2026-04-04T08:37:37.6Z</time></trkpt><trkpt lat="44.7176617" lon="9.2929383"><ele>586.0</ele><time>2026-04-04T08:37:39.6Z</time></trkpt><trkpt lat="44.7175817" lon="9.2929767"><ele>586.0</ele><time>2026-04-04T08:37:41.602Z</time></trkpt><trkpt lat="44.717505" lon="9.2930433"><ele>586.0</ele><time>2026-04-04T08:37:43.601Z</time></trkpt><trkpt lat="44.7174131" lon="9.2931434"><ele>583.6666666666667</ele><time>2026-04-04T08:37:45.601Z</time></trkpt><trkpt lat="44.7173626" lon="9.2932016"><ele>581.3333333333334</ele><time>2026-04-04T08:37:46.601Z</time></trkpt><trkpt lat="44.7173079" lon="9.2932599"><ele>579.0</ele><time>2026-04-04T08:37:47.6Z</time></trkpt><trkpt lat="44.7172085" lon="9.2933443"><ele>576.6666666666666</ele><time>2026-04-04T08:37:49.602Z</time></trkpt><trkpt lat="44.7171222" lon="9.2933928"><ele>574.3333333333333</ele><time>2026-04-04T08:37:51.6Z</time></trkpt><trkpt lat="44.717031" lon="9.2934267"><ele>572.0</ele><time>2026-04-04T08:37:53.601Z</time></trkpt><trkpt lat="44.7169603" lon="9.2934533"><ele>569.3333333333333</ele><time>2026-04-04T08:37:56.601Z</time></trkpt><trkpt lat="44.7168989" lon="9.2934745"><ele>566.6666666666666</ele><time>2026-04-04T08:38:05.6Z</time></trkpt><trkpt lat="44.7168329" lon="9.2935074"><ele>564.0</ele><time>2026-04-04T08:38:08.673Z</time></trkpt><trkpt lat="44.7167464" lon="9.293575"><ele>561.3333333333334</ele><time>2026-04-04T08:38:19.601Z</time></trkpt><trkpt lat="44.7166868" lon="9.2936069"><ele>558.6666666666667</ele><time>2026-04-04T08:38:20.634Z</time></trkpt><trkpt lat="44.7165445" lon="9.293627"><ele>556.0</ele><time>2026-04-04T08:38:22.6Z</time></trkpt><trkpt lat="44.7164665" lon="9.2936097"><ele>556.0</ele><time>2026-04-04T08:38:23.599Z</time></trkpt><trkpt lat="44.7163896" lon="9.2935841"><ele>556.0</ele><time>2026-04-04T08:38:24.599Z</time></trkpt><trkpt lat="44.7163235" lon="9.2935519"><ele>556.0</ele><time>2026-04-04T08:38:25.601Z</time></trkpt><trkpt lat="44.716259" lon="9.293522"><ele>556.0</ele><time>2026-04-04T08:38:26.6Z</time></trkpt><trkpt lat="44.7161905" lon="9.2935032"><ele>556.0</ele><time>2026-04-04T08:38:27.6Z</time></trkpt><trkpt lat="44.7161193" lon="9.2934889"><ele>556.0</ele><time>2026-04-04T08:38:28.599Z</time></trkpt><trkpt lat="44.7160464" lon="9.2934704"><ele>556.0</ele><time>2026-04-04T08:38:29.6Z</time></trkpt><trkpt lat="44.7159783" lon="9.2934583"><ele>553.6</ele><time>2026-04-04T08:38:30.599Z</time></trkpt><trkpt lat="44.7158833" lon="9.2935017"><ele>551.2</ele><time>2026-04-04T08:38:32.6Z</time></trkpt><trkpt lat="44.715835" lon="9.29361"><ele>548.8</ele><time>2026-04-04T08:38:34.601Z</time></trkpt><trkpt lat="44.715775" lon="9.293705"><ele>546.4</ele><time>2026-04-04T08:38:36.6Z</time></trkpt><trkpt lat="44.7156833" lon="9.293745"><ele>544.0</ele><time>2026-04-04T08:38:38.601Z</time></trkpt><trkpt lat="44.7155767" lon="9.2937733"><ele>544.0</ele><time>2026-04-04T08:38:40.6Z</time></trkpt><trkpt lat="44.7154667" lon="9.29388"><ele>544.0</ele><time>2026-04-04T08:38:42.599Z</time></trkpt><trkpt lat="44.715405" lon="9.2939317"><ele>544.0</ele><time>2026-04-04T08:38:43.6Z</time></trkpt><trkpt lat="44.7153483" lon="9.2939767"><ele>544.0</ele><time>2026-04-04T08:38:44.601Z</time></trkpt><trkpt lat="44.7152883" lon="9.2940267"><ele>544.0</ele><time>2026-04-04T08:38:45.6Z</time></trkpt><trkpt lat="44.7152367" lon="9.2940967"><ele>544.0</ele><time>2026-04-04T08:38:46.601Z</time></trkpt><trkpt lat="44.7151917" lon="9.29419"><ele>543.3333333333334</ele><time>2026-04-04T08:38:47.599Z</time></trkpt><trkpt lat="44.7151483" lon="9.29429"><ele>542.6666666666667</ele><time>2026-04-04T08:38:48.6Z</time></trkpt><trkpt lat="44.7150883" lon="9.2943833"><ele>542.0</ele><time>2026-04-04T08:38:49.601Z</time></trkpt><trkpt lat="44.715025" lon="9.2944733"><ele>541.3333333333334</ele><time>2026-04-04T08:38:50.599Z</time></trkpt><trkpt lat="44.7149683" lon="9.2945567"><ele>540.6666666666666</ele><time>2026-04-04T08:38:51.6Z</time></trkpt><trkpt lat="44.7149167" lon="9.2946267"><ele>540.0</ele><time>2026-04-04T08:38:52.599Z</time></trkpt><trkpt lat="44.7148533" lon="9.29468"><ele>540.0</ele><time>2026-04-04T08:38:53.599Z</time></trkpt><trkpt lat="44.7147867" lon="9.29472"><ele>540.0</ele><time>2026-04-04T08:38:54.599Z</time></trkpt><trkpt lat="44.7146867" lon="9.29476"><ele>540.0</ele><time>2026-04-04T08:38:56.601Z</time></trkpt><trkpt lat="44.7145733" lon="9.29474"><ele>540.0</ele><time>2026-04-04T08:38:58.601Z</time></trkpt><trkpt lat="44.7145117" lon="9.2947167"><ele>540.0</ele><time>2026-04-04T08:38:59.6Z</time></trkpt><trkpt lat="44.71445" lon="9.2946783"><ele>540.0</ele><time>2026-04-04T08:39:00.599Z</time></trkpt><trkpt lat="44.71439" lon="9.29464"><ele>539.4</ele><time>2026-04-04T08:39:01.599Z</time></trkpt><trkpt lat="44.7143267" lon="9.2946"><ele>538.8</ele><time>2026-04-04T08:39:02.6Z</time></trkpt><trkpt lat="44.7142183" lon="9.2945267"><ele>538.2</ele><time>2026-04-04T08:39:04.599Z</time></trkpt><trkpt lat="44.7141467" lon="9.2945083"><ele>537.6</ele><time>2026-04-04T08:39:06.6Z</time></trkpt><trkpt lat="44.71404" lon="9.2944967"><ele>537.0</ele><time>2026-04-04T08:39:08.601Z</time></trkpt><trkpt lat="44.7139367" lon="9.294495"><ele>537.0</ele><time>2026-04-04T08:39:10.599Z</time></trkpt><trkpt lat="44.7138267" lon="9.2945"><ele>537.0</ele><time>2026-04-04T08:39:12.599Z</time></trkpt><trkpt lat="44.7137133" lon="9.2944967"><ele>537.0</ele><time>2026-04-04T08:39:14.6Z</time></trkpt><trkpt lat="44.7136167" lon="9.2944883"><ele>537.0</ele><time>2026-04-04T08:39:16.6Z</time></trkpt><trkpt lat="44.713545" lon="9.2944733"><ele>537.0</ele><time>2026-04-04T08:39:18.599Z</time></trkpt><trkpt lat="44.71348" lon="9.2944233"><ele>536.1666666666666</ele><time>2026-04-04T08:39:22.602Z</time></trkpt><trkpt lat="44.7133933" lon="9.294405"><ele>535.3333333333334</ele><time>2026-04-04T08:39:25.601Z</time></trkpt><trkpt lat="44.7133333" lon="9.2943567"><ele>534.5</ele><time>2026-04-04T08:39:28.6Z</time></trkpt><trkpt lat="44.713255" lon="9.2943217"><ele>533.6666666666667</ele><time>2026-04-04T08:40:18.6Z</time></trkpt><trkpt lat="44.7131483" lon="9.2942983"><ele>532.8333333333334</ele><time>2026-04-04T08:40:20.601Z</time></trkpt><trkpt lat="44.7130883" lon="9.29427"><ele>532.0</ele><time>2026-04-04T08:40:21.6Z</time></trkpt><trkpt lat="44.71303" lon="9.2942317"><ele>532.0</ele><time>2026-04-04T08:40:22.599Z</time></trkpt><trkpt lat="44.71293" lon="9.294165"><ele>532.0</ele><time>2026-04-04T08:40:24.6Z</time></trkpt><trkpt lat="44.7128417" lon="9.2940717"><ele>532.0</ele><time>2026-04-04T08:40:26.6Z</time></trkpt><trkpt lat="44.71275" lon="9.2939833"><ele>532.0</ele><time>2026-04-04T08:40:28.601Z</time></trkpt><trkpt lat="44.7126483" lon="9.2939417"><ele>532.0</ele><time>2026-04-04T08:40:30.601Z</time></trkpt><trkpt lat="44.7125683" lon="9.2939033"><ele>533.0</ele><time>2026-04-04T08:40:32.6Z</time></trkpt><trkpt lat="44.7124983" lon="9.2938633"><ele>534.0</ele><time>2026-04-04T08:40:34.601Z</time></trkpt><trkpt lat="44.7124283" lon="9.2938433"><ele>535.0</ele><time>2026-04-04T08:40:36.6Z</time></trkpt><trkpt lat="44.712345" lon="9.2938083"><ele>536.0</ele><time>2026-04-04T08:40:39.6Z</time></trkpt><trkpt lat="44.712245" lon="9.2938"><ele>537.0</ele><time>2026-04-04T08:41:17.602Z</time></trkpt><trkpt lat="44.71215" lon="9.2937933"><ele>538.0</ele><time>2026-04-04T08:41:19.601Z</time></trkpt><trkpt lat="44.7120567" lon="9.29379"><ele>538.0</ele><time>2026-04-04T08:41:21.602Z</time></trkpt><trkpt lat="44.7119383" lon="9.29377"><ele>538.0</ele><time>2026-04-04T08:41:23.604Z</time></trkpt><trkpt lat="44.711865" lon="9.2937583"><ele>538.0</ele><time>2026-04-04T08:41:24.602Z</time></trkpt><trkpt lat="44.7117833" lon="9.2937367"><ele>538.0</ele><time>2026-04-04T08:41:25.6Z</time></trkpt><trkpt lat="44.7117017" lon="9.2937183"><ele>538.0</ele><time>2026-04-04T08:41:26.601Z</time></trkpt><trkpt lat="44.7116233" lon="9.2936883"><ele>538.0</ele><time>2026-04-04T08:41:27.599Z</time></trkpt><trkpt lat="44.711555" lon="9.29366"><ele>537.8</ele><time>2026-04-04T08:41:28.601Z</time></trkpt><trkpt lat="44.711455" lon="9.293655"><ele>537.5999999999999</ele><time>2026-04-04T08:41:30.6Z</time></trkpt><trkpt lat="44.7113683" lon="9.29374"><ele>537.4000000000001</ele><time>2026-04-04T08:41:32.602Z</time></trkpt><trkpt lat="44.7112617" lon="9.2938267"><ele>537.2</ele><time>2026-04-04T08:41:34.601Z</time></trkpt><trkpt lat="44.7112" lon="9.293865"><ele>537.0</ele><time>2026-04-04T08:41:35.6Z</time></trkpt><trkpt lat="44.7111367" lon="9.2938883"><ele>535.7142857142857</ele><time>2026-04-04T08:41:36.599Z</time></trkpt><trkpt lat="44.711065" lon="9.29389"><ele>534.4285714285714</ele><time>2026-04-04T08:41:37.6Z</time></trkpt><trkpt lat="44.7109967" lon="9.2938433"><ele>533.1428571428571</ele><time>2026-04-04T08:41:38.6Z</time></trkpt><trkpt lat="44.7109333" lon="9.2937617"><ele>531.8571428571429</ele><time>2026-04-04T08:41:39.6Z</time></trkpt><trkpt lat="44.7108817" lon="9.2936783"><ele>530.5714285714286</ele><time>2026-04-04T08:41:40.6Z</time></trkpt><trkpt lat="44.7108333" lon="9.2936083"><ele>529.2857142857142</ele><time>2026-04-04T08:41:41.601Z</time></trkpt><trkpt lat="44.7107767" lon="9.2935633"><ele>528.0</ele><time>2026-04-04T08:41:42.6Z</time></trkpt><trkpt lat="44.7106633" lon="9.2935517"><ele>528.0</ele><time>2026-04-04T08:41:44.601Z</time></trkpt><trkpt lat="44.7105983" lon="9.293615"><ele>528.0</ele><time>2026-04-04T08:41:46.601Z</time></trkpt><trkpt lat="44.7105433" lon="9.2936683"><ele>528.0</ele><time>2026-04-04T08:41:49.601Z</time></trkpt><trkpt lat="44.7105017" lon="9.2937617"><ele>528.0</ele><time>2026-04-04T08:41:53.601Z</time></trkpt><trkpt lat="44.710445" lon="9.2938583"><ele>528.0</ele><time>2026-04-04T08:41:56.601Z</time></trkpt><trkpt lat="44.7103867" lon="9.2939817"><ele>528.0</ele><time>2026-04-04T08:41:58.601Z</time></trkpt><trkpt lat="44.710295" lon="9.2940983"><ele>525.6666666666666</ele><time>2026-04-04T08:42:00.602Z</time></trkpt><trkpt lat="44.710235" lon="9.29414"><ele>523.3333333333334</ele><time>2026-04-04T08:42:01.602Z</time></trkpt><trkpt lat="44.710175" lon="9.2941917"><ele>521.0</ele><time>2026-04-04T08:42:02.601Z</time></trkpt><trkpt lat="44.7100883" lon="9.29434"><ele>518.6666666666667</ele><time>2026-04-04T08:42:04.601Z</time></trkpt><trkpt lat="44.7100333" lon="9.29443"><ele>516.3333333333334</ele><time>2026-04-04T08:42:05.602Z</time></trkpt><trkpt lat="44.7099817" lon="9.2945133"><ele>514.0</ele><time>2026-04-04T08:42:06.602Z</time></trkpt><trkpt lat="44.7099283" lon="9.29458"><ele>514.0</ele><time>2026-04-04T08:42:07.602Z</time></trkpt><trkpt lat="44.709825" lon="9.2946667"><ele>514.0</ele><time>2026-04-04T08:42:09.601Z</time></trkpt><trkpt lat="44.7097667" lon="9.2947583"><ele>514.0</ele><time>2026-04-04T08:42:11.603Z</time></trkpt><trkpt lat="44.7097083" lon="9.2948183"><ele>514.0</ele><time>2026-04-04T08:42:13.603Z</time></trkpt><trkpt lat="44.7096333" lon="9.29486"><ele>514.0</ele><time>2026-04-04T08:42:15.6Z</time></trkpt><trkpt lat="44.7095383" lon="9.2948867"><ele>514.0</ele><time>2026-04-04T08:42:17.6Z</time></trkpt><trkpt lat="44.7094333" lon="9.294935"><ele>514.0</ele><time>2026-04-04T08:42:19.6Z</time></trkpt><trkpt lat="44.7093433" lon="9.2950567"><ele>514.0</ele><time>2026-04-04T08:42:21.6Z</time></trkpt><trkpt lat="44.7092933" lon="9.295115"><ele>514.0</ele><time>2026-04-04T08:42:22.6Z</time></trkpt><trkpt lat="44.709195" lon="9.2951833"><ele>514.0</ele><time>2026-04-04T08:42:24.599Z</time></trkpt><trkpt lat="44.709095" lon="9.29525"><ele>514.0</ele><time>2026-04-04T08:42:26.6Z</time></trkpt><trkpt lat="44.7089967" lon="9.295355"><ele>514.0</ele><time>2026-04-04T08:42:28.601Z</time></trkpt><trkpt lat="44.7089417" lon="9.295415"><ele>514.0</ele><time>2026-04-04T08:42:29.601Z</time></trkpt><trkpt lat="44.7088917" lon="9.2954833"><ele>514.0</ele><time>2026-04-04T08:42:30.601Z</time></trkpt><trkpt lat="44.708825" lon="9.295615"><ele>514.0</ele><time>2026-04-04T08:42:32.601Z</time></trkpt><trkpt lat="44.708735" lon="9.2957033"><ele>514.5</ele><time>2026-04-04T08:42:34.602Z</time></trkpt><trkpt lat="44.708615" lon="9.2957633"><ele>515.0</ele><time>2026-04-04T08:42:36.601Z</time></trkpt><trkpt lat="44.7085417" lon="9.2957867"><ele>515.5</ele><time>2026-04-04T08:42:37.601Z</time></trkpt><trkpt lat="44.7084567" lon="9.2958183"><ele>516.0</ele><time>2026-04-04T08:42:38.6Z</time></trkpt><trkpt lat="44.7083767" lon="9.295845"><ele>516.5</ele><time>2026-04-04T08:42:39.599Z</time></trkpt><trkpt lat="44.708305" lon="9.2958667"><ele>517.0</ele><time>2026-04-04T08:42:40.601Z</time></trkpt><trkpt lat="44.7082" lon="9.2959433"><ele>517.0</ele><time>2026-04-04T08:42:42.601Z</time></trkpt><trkpt lat="44.7081233" lon="9.2960683"><ele>517.0</ele><time>2026-04-04T08:42:44.601Z</time></trkpt><trkpt lat="44.70808" lon="9.2961333"><ele>517.0</ele><time>2026-04-04T08:42:45.601Z</time></trkpt><trkpt lat="44.7080433" lon="9.29621"><ele>517.0</ele><time>2026-04-04T08:42:46.601Z</time></trkpt><trkpt lat="44.708015" lon="9.2963733"><ele>517.0</ele><time>2026-04-04T08:42:48.599Z</time></trkpt><trkpt lat="44.708005" lon="9.29651"><ele>519.6666666666667</ele><time>2026-04-04T08:42:50.6Z</time></trkpt><trkpt lat="44.7079983" lon="9.2966083"><ele>522.3333333333334</ele><time>2026-04-04T08:42:52.601Z</time></trkpt><trkpt lat="44.7079617" lon="9.29672"><ele>525.0</ele><time>2026-04-04T08:42:58.601Z</time></trkpt><trkpt lat="44.7078683" lon="9.2967367"><ele>527.6666666666666</ele><time>2026-04-04T08:43:59.601Z</time></trkpt><trkpt lat="44.7077733" lon="9.2966317"><ele>530.3333333333333</ele><time>2026-04-04T08:44:01.601Z</time></trkpt><trkpt lat="44.7077083" lon="9.2965833"><ele>533.0</ele><time>2026-04-04T08:44:02.602Z</time></trkpt><trkpt lat="44.7076417" lon="9.296555"><ele>533.0</ele><time>2026-04-04T08:44:03.601Z</time></trkpt><trkpt lat="44.707565" lon="9.29655"><ele>533.0</ele><time>2026-04-04T08:44:04.601Z</time></trkpt><trkpt lat="44.7074933" lon="9.2965433"><ele>533.0</ele><time>2026-04-04T08:44:05.601Z</time></trkpt><trkpt lat="44.7074267" lon="9.29653"><ele>533.0</ele><time>2026-04-04T08:44:06.601Z</time></trkpt><trkpt lat="44.7073483" lon="9.2965033"><ele>533.0</ele><time>2026-04-04T08:44:07.602Z</time></trkpt><trkpt lat="44.7072767" lon="9.2964667"><ele>533.0</ele><time>2026-04-04T08:44:08.602Z</time></trkpt><trkpt lat="44.7072233" lon="9.2964183"><ele>533.0</ele><time>2026-04-04T08:44:09.601Z</time></trkpt><trkpt lat="44.7071817" lon="9.2963517"><ele>531.4</ele><time>2026-04-04T08:44:11.601Z</time></trkpt><trkpt lat="44.707175" lon="9.2962183"><ele>529.8</ele><time>2026-04-04T08:44:14.602Z</time></trkpt><trkpt lat="44.7071583" lon="9.296075"><ele>528.2</ele><time>2026-04-04T08:44:16.601Z</time></trkpt><trkpt lat="44.7071467" lon="9.29591"><ele>526.6</ele><time>2026-04-04T08:44:18.602Z</time></trkpt><trkpt lat="44.70712" lon="9.295745"><ele>525.0</ele><time>2026-04-04T08:44:20.602Z</time></trkpt><trkpt lat="44.7070867" lon="9.2956683"><ele>525.0</ele><time>2026-04-04T08:44:21.601Z</time></trkpt><trkpt lat="44.7070433" lon="9.2956"><ele>525.0</ele><time>2026-04-04T08:44:22.601Z</time></trkpt><trkpt lat="44.7069817" lon="9.2955683"><ele>525.0</ele><time>2026-04-04T08:44:23.601Z</time></trkpt><trkpt lat="44.7068767" lon="9.29551"><ele>525.0</ele><time>2026-04-04T08:44:25.6Z</time></trkpt><trkpt lat="44.7067933" lon="9.2954117"><ele>525.0</ele><time>2026-04-04T08:44:27.601Z</time></trkpt><trkpt lat="44.706745" lon="9.295345"><ele>525.0</ele><time>2026-04-04T08:44:28.601Z</time></trkpt><trkpt lat="44.7066933" lon="9.29527"><ele>525.8</ele><time>2026-04-04T08:44:29.601Z</time></trkpt><trkpt lat="44.7066283" lon="9.2951933"><ele>526.6</ele><time>2026-04-04T08:44:30.601Z</time></trkpt><trkpt lat="44.7065533" lon="9.2951217"><ele>527.4</ele><time>2026-04-04T08:44:31.6Z</time></trkpt><trkpt lat="44.7064683" lon="9.295045"><ele>528.2</ele><time>2026-04-04T08:44:32.6Z</time></trkpt><trkpt lat="44.7063867" lon="9.2949867"><ele>529.0</ele><time>2026-04-04T08:44:33.6Z</time></trkpt><trkpt lat="44.70631" lon="9.29494"><ele>529.0</ele><time>2026-04-04T08:44:34.601Z</time></trkpt><trkpt lat="44.7062333" lon="9.294895"><ele>529.0</ele><time>2026-04-04T08:44:35.601Z</time></trkpt><trkpt lat="44.7061567" lon="9.2948633"><ele>529.0</ele><time>2026-04-04T08:44:36.601Z</time></trkpt><trkpt lat="44.7060833" lon="9.2948267"><ele>529.0</ele><time>2026-04-04T08:44:37.602Z</time></trkpt><trkpt lat="44.7060067" lon="9.2947783"><ele>529.0</ele><time>2026-04-04T08:44:38.6Z</time></trkpt><trkpt lat="44.7059383" lon="9.2947283"><ele>529.0</ele><time>2026-04-04T08:44:39.601Z</time></trkpt><trkpt lat="44.705865" lon="9.2946683"><ele>528.5</ele><time>2026-04-04T08:44:40.6Z</time></trkpt><trkpt lat="44.7057917" lon="9.294615"><ele>528.0</ele><time>2026-04-04T08:44:41.601Z</time></trkpt><trkpt lat="44.7057233" lon="9.294585"><ele>527.5</ele><time>2026-04-04T08:44:42.6Z</time></trkpt><trkpt lat="44.7056" lon="9.2945967"><ele>527.0</ele><time>2026-04-04T08:44:44.602Z</time></trkpt><trkpt lat="44.70553" lon="9.294635"><ele>526.5</ele><time>2026-04-04T08:44:45.601Z</time></trkpt><trkpt lat="44.7054717" lon="9.2946983"><ele>526.0</ele><time>2026-04-04T08:44:46.601Z</time></trkpt><trkpt lat="44.7054233" lon="9.2947567"><ele>528.0</ele><time>2026-04-04T08:44:47.601Z</time></trkpt><trkpt lat="44.7053633" lon="9.2948983"><ele>530.0</ele><time>2026-04-04T08:44:49.601Z</time></trkpt><trkpt lat="44.7053067" lon="9.2950533"><ele>532.0</ele><time>2026-04-04T08:44:51.602Z</time></trkpt><trkpt lat="44.7052717" lon="9.29514"><ele>534.0</ele><time>2026-04-04T08:44:52.6Z</time></trkpt><trkpt lat="44.70523" lon="9.2952167"><ele>536.0</ele><time>2026-04-04T08:44:53.602Z</time></trkpt><trkpt lat="44.7051783" lon="9.29528"><ele>538.0</ele><time>2026-04-04T08:44:54.601Z</time></trkpt><trkpt lat="44.7051183" lon="9.2953133"><ele>538.8333333333334</ele><time>2026-04-04T08:44:55.601Z</time></trkpt><trkpt lat="44.7050383" lon="9.2953317"><ele>539.6666666666667</ele><time>2026-04-04T08:44:57.601Z</time></trkpt><trkpt lat="44.70498" lon="9.295285"><ele>540.5</ele><time>2026-04-04T08:44:59.6Z</time></trkpt><trkpt lat="44.7049517" lon="9.2952"><ele>541.3333333333334</ele><time>2026-04-04T08:45:01.6Z</time></trkpt><trkpt lat="44.7049383" lon="9.2950567"><ele>542.1666666666666</ele><time>2026-04-04T08:45:03.601Z</time></trkpt><trkpt lat="44.7048967" lon="9.2949333"><ele>543.0</ele><time>2026-04-04T08:45:05.601Z</time></trkpt><trkpt lat="44.7048233" lon="9.29484"><ele>540.1999999999999</ele><time>2026-04-04T08:45:07.6Z</time></trkpt><trkpt lat="44.7047667" lon="9.2947083"><ele>537.4</ele><time>2026-04-04T08:45:09.601Z</time></trkpt><trkpt lat="44.7046867" lon="9.294575"><ele>534.5999999999999</ele><time>2026-04-04T08:45:11.601Z</time></trkpt><trkpt lat="44.7046233" lon="9.2945417"><ele>531.8</ele><time>2026-04-04T08:45:12.601Z</time></trkpt><trkpt lat="44.7045467" lon="9.2945217"><ele>529.0</ele><time>2026-04-04T08:45:13.601Z</time></trkpt><trkpt lat="44.70447" lon="9.2944983"><ele>530.0</ele><time>2026-04-04T08:45:14.6Z</time></trkpt><trkpt lat="44.7043817" lon="9.2944767"><ele>531.0</ele><time>2026-04-04T08:45:15.601Z</time></trkpt><trkpt lat="44.7042983" lon="9.2944567"><ele>532.0</ele><time>2026-04-04T08:45:16.601Z</time></trkpt><trkpt lat="44.704225" lon="9.2944333"><ele>533.0</ele><time>2026-04-04T08:45:17.6Z</time></trkpt><trkpt lat="44.704165" lon="9.2943967"><ele>534.0</ele><time>2026-04-04T08:45:18.602Z</time></trkpt><trkpt lat="44.704105" lon="9.2943583"><ele>535.0</ele><time>2026-04-04T08:45:19.601Z</time></trkpt><trkpt lat="44.704045" lon="9.2943233"><ele>536.0</ele><time>2026-04-04T08:45:20.601Z</time></trkpt><trkpt lat="44.703945" lon="9.2942617"><ele>536.0</ele><time>2026-04-04T08:45:22.6Z</time></trkpt><trkpt lat="44.70387" lon="9.29421"><ele>536.0</ele><time>2026-04-04T08:45:24.601Z</time></trkpt><trkpt lat="44.7037983" lon="9.2941367"><ele>536.0</ele><time>2026-04-04T08:45:26.601Z</time></trkpt><trkpt lat="44.7037383" lon="9.2940833"><ele>536.0</ele><time>2026-04-04T08:45:27.602Z</time></trkpt><trkpt lat="44.7036633" lon="9.2940283"><ele>536.0</ele><time>2026-04-04T08:45:28.601Z</time></trkpt><trkpt lat="44.703575" lon="9.29397"><ele>536.0</ele><time>2026-04-04T08:45:29.6Z</time></trkpt><trkpt lat="44.7034717" lon="9.2939117"><ele>533.6</ele><time>2026-04-04T08:45:30.601Z</time></trkpt><trkpt lat="44.7033783" lon="9.2938867"><ele>531.2</ele><time>2026-04-04T08:45:31.601Z</time></trkpt><trkpt lat="44.7032783" lon="9.2938767"><ele>528.8</ele><time>2026-04-04T08:45:32.602Z</time></trkpt><trkpt lat="44.7031733" lon="9.2938633"><ele>526.4</ele><time>2026-04-04T08:45:33.601Z</time></trkpt><trkpt lat="44.7030867" lon="9.2938433"><ele>524.0</ele><time>2026-04-04T08:45:34.601Z</time></trkpt><trkpt lat="44.7029983" lon="9.2938083"><ele>524.0</ele><time>2026-04-04T08:45:35.602Z</time></trkpt><trkpt lat="44.702905" lon="9.293755"><ele>524.0</ele><time>2026-04-04T08:45:36.602Z</time></trkpt><trkpt lat="44.7028167" lon="9.293705"><ele>524.0</ele><time>2026-04-04T08:45:37.6Z</time></trkpt><trkpt lat="44.702725" lon="9.2936583"><ele>524.0</ele><time>2026-04-04T08:45:38.601Z</time></trkpt><trkpt lat="44.7026317" lon="9.2936117"><ele>524.0</ele><time>2026-04-04T08:45:39.601Z</time></trkpt><trkpt lat="44.7025533" lon="9.2935717"><ele>524.1666666666666</ele><time>2026-04-04T08:45:40.601Z</time></trkpt><trkpt lat="44.7024817" lon="9.293545"><ele>524.3333333333333</ele><time>2026-04-04T08:45:41.601Z</time></trkpt><trkpt lat="44.7024083" lon="9.2935417"><ele>524.5</ele><time>2026-04-04T08:45:42.601Z</time></trkpt><trkpt lat="44.702295" lon="9.2936233"><ele>524.6666666666666</ele><time>2026-04-04T08:45:44.603Z</time></trkpt><trkpt lat="44.7022383" lon="9.2936717"><ele>524.8333333333334</ele><time>2026-04-04T08:45:45.601Z</time></trkpt><trkpt lat="44.702175" lon="9.2937117"><ele>525.0</ele><time>2026-04-04T08:45:46.601Z</time></trkpt><trkpt lat="44.7021017" lon="9.2937333"><ele>525.0</ele><time>2026-04-04T08:45:47.6Z</time></trkpt><trkpt lat="44.7020267" lon="9.2937417"><ele>525.0</ele><time>2026-04-04T08:45:48.601Z</time></trkpt><trkpt lat="44.7019417" lon="9.2937417"><ele>525.0</ele><time>2026-04-04T08:45:49.6Z</time></trkpt><trkpt lat="44.70185" lon="9.2937383"><ele>525.0</ele><time>2026-04-04T08:45:50.601Z</time></trkpt><trkpt lat="44.70176" lon="9.2937433"><ele>525.0</ele><time>2026-04-04T08:45:51.6Z</time></trkpt><trkpt lat="44.7016717" lon="9.2937467"><ele>525.0</ele><time>2026-04-04T08:45:52.601Z</time></trkpt><trkpt lat="44.7015867" lon="9.2937633"><ele>525.1666666666666</ele><time>2026-04-04T08:45:53.601Z</time></trkpt><trkpt lat="44.70151" lon="9.2937867"><ele>525.3333333333334</ele><time>2026-04-04T08:45:54.6Z</time></trkpt><trkpt lat="44.701445" lon="9.2938117"><ele>525.5</ele><time>2026-04-04T08:45:55.6Z</time></trkpt><trkpt lat="44.7013499" lon="9.2938495"><ele>525.6666666666667</ele><time>2026-04-04T08:45:57.601Z</time></trkpt><trkpt lat="44.7012813" lon="9.2938878"><ele>525.8333333333334</ele><time>2026-04-04T08:45:59.6Z</time></trkpt><trkpt lat="44.7012121" lon="9.2939475"><ele>526.0</ele><time>2026-04-04T08:47:57.6Z</time></trkpt><trkpt lat="44.7011553" lon="9.2939908"><ele>527.0</ele><time>2026-04-04T08:47:58.601Z</time></trkpt><trkpt lat="44.7010926" lon="9.2940397"><ele>528.0</ele><time>2026-04-04T08:47:59.599Z</time></trkpt><trkpt lat="44.7010344" lon="9.2940808"><ele>529.0</ele><time>2026-04-04T08:48:00.6Z</time></trkpt><trkpt lat="44.700976" lon="9.2941222"><ele>530.0</ele><time>2026-04-04T08:48:01.6Z</time></trkpt><trkpt lat="44.7009151" lon="9.294184"><ele>531.0</ele><time>2026-04-04T08:48:02.601Z</time></trkpt><trkpt lat="44.7008511" lon="9.29427"><ele>532.0</ele><time>2026-04-04T08:48:03.6Z</time></trkpt><trkpt lat="44.7007985" lon="9.2943765"><ele>532.0</ele><time>2026-04-04T08:48:04.6Z</time></trkpt><trkpt lat="44.7007483" lon="9.2944821"><ele>532.0</ele><time>2026-04-04T08:48:05.601Z</time></trkpt><trkpt lat="44.7007" lon="9.294604"><ele>532.0</ele><time>2026-04-04T08:48:06.601Z</time></trkpt><trkpt lat="44.7006494" lon="9.294752"><ele>532.0</ele><time>2026-04-04T08:48:07.599Z</time></trkpt><trkpt lat="44.7005997" lon="9.2949101"><ele>532.0</ele><time>2026-04-04T08:48:08.6Z</time></trkpt><trkpt lat="44.7005581" lon="9.2950649"><ele>532.5</ele><time>2026-04-04T08:48:09.6Z</time></trkpt><trkpt lat="44.7005221" lon="9.2952057"><ele>533.0</ele><time>2026-04-04T08:48:10.6Z</time></trkpt><trkpt lat="44.700487" lon="9.2953222"><ele>533.5</ele><time>2026-04-04T08:48:11.6Z</time></trkpt><trkpt lat="44.7004442" lon="9.2954108"><ele>534.0</ele><time>2026-04-04T08:48:12.6Z</time></trkpt><trkpt lat="44.7003851" lon="9.2954755"><ele>534.5</ele><time>2026-04-04T08:48:13.599Z</time></trkpt><trkpt lat="44.7002927" lon="9.2955286"><ele>535.0</ele><time>2026-04-04T08:48:14.6Z</time></trkpt><trkpt lat="44.7001824" lon="9.2955866"><ele>533.75</ele><time>2026-04-04T08:48:15.599Z</time></trkpt><trkpt lat="44.7000701" lon="9.2956526"><ele>532.5</ele><time>2026-04-04T08:48:16.599Z</time></trkpt><trkpt lat="44.6999497" lon="9.295725"><ele>531.25</ele><time>2026-04-04T08:48:17.6Z</time></trkpt><trkpt lat="44.6998267" lon="9.2958082"><ele>530.0</ele><time>2026-04-04T08:48:18.6Z</time></trkpt><trkpt lat="44.6997052" lon="9.2958985"><ele>530.0</ele><time>2026-04-04T08:48:19.6Z</time></trkpt><trkpt lat="44.6995842" lon="9.2959924"><ele>530.0</ele><time>2026-04-04T08:48:20.601Z</time></trkpt><trkpt lat="44.6994644" lon="9.2960985"><ele>530.0</ele><time>2026-04-04T08:48:21.601Z</time></trkpt><trkpt lat="44.6993452" lon="9.2962281"><ele>530.0</ele><time>2026-04-04T08:48:22.601Z</time></trkpt><trkpt lat="44.6992292" lon="9.2963771"><ele>527.0</ele><time>2026-04-04T08:48:23.602Z</time></trkpt><trkpt lat="44.6991164" lon="9.2965381"><ele>524.0</ele><time>2026-04-04T08:48:24.6Z</time></trkpt><trkpt lat="44.6990092" lon="9.296706"><ele>521.0</ele><time>2026-04-04T08:48:25.6Z</time></trkpt><trkpt lat="44.6989135" lon="9.2968752"><ele>521.0</ele><time>2026-04-04T08:48:26.6Z</time></trkpt><trkpt lat="44.6988309" lon="9.2970443"><ele>521.0</ele><time>2026-04-04T08:48:27.603Z</time></trkpt><trkpt lat="44.6987641" lon="9.2972063"><ele>521.0</ele><time>2026-04-04T08:48:28.6Z</time></trkpt><trkpt lat="44.6987048" lon="9.2973535"><ele>521.0</ele><time>2026-04-04T08:48:29.6Z</time></trkpt><trkpt lat="44.6986403" lon="9.2974554"><ele>518.0</ele><time>2026-04-04T08:48:30.601Z</time></trkpt><trkpt lat="44.6985553" lon="9.2975152"><ele>515.0</ele><time>2026-04-04T08:48:31.599Z</time></trkpt><trkpt lat="44.6984599" lon="9.2975193"><ele>512.0</ele><time>2026-04-04T08:48:32.6Z</time></trkpt><trkpt lat="44.698356" lon="9.2975106"><ele>509.0</ele><time>2026-04-04T08:48:33.6Z</time></trkpt><trkpt lat="44.6982291" lon="9.2974597"><ele>506.0</ele><time>2026-04-04T08:48:34.6Z</time></trkpt><trkpt lat="44.6980993" lon="9.2974009"><ele>506.0</ele><time>2026-04-04T08:48:35.599Z</time></trkpt><trkpt lat="44.6979752" lon="9.2973367"><ele>506.0</ele><time>2026-04-04T08:48:36.6Z</time></trkpt><trkpt lat="44.6978629" lon="9.2972879"><ele>506.0</ele><time>2026-04-04T08:48:37.6Z</time></trkpt><trkpt lat="44.6977612" lon="9.2972714"><ele>506.0</ele><time>2026-04-04T08:48:38.599Z</time></trkpt><trkpt lat="44.6976641" lon="9.2972809"><ele>506.0</ele><time>2026-04-04T08:48:39.6Z</time></trkpt><trkpt lat="44.6975782" lon="9.2973261"><ele>504.0</ele><time>2026-04-04T08:48:40.6Z</time></trkpt><trkpt lat="44.6975022" lon="9.2974035"><ele>502.0</ele><time>2026-04-04T08:48:41.599Z</time></trkpt><trkpt lat="44.6974236" lon="9.2975065"><ele>500.0</ele><time>2026-04-04T08:48:42.6Z</time></trkpt><trkpt lat="44.6973395" lon="9.2976261"><ele>498.0</ele><time>2026-04-04T08:48:43.6Z</time></trkpt><trkpt lat="44.6972522" lon="9.2977577"><ele>496.0</ele><time>2026-04-04T08:48:44.6Z</time></trkpt><trkpt lat="44.6971626" lon="9.2978979"><ele>496.0</ele><time>2026-04-04T08:48:45.599Z</time></trkpt><trkpt lat="44.6970743" lon="9.2980515"><ele>496.0</ele><time>2026-04-04T08:48:46.6Z</time></trkpt><trkpt lat="44.6970003" lon="9.2982011"><ele>496.0</ele><time>2026-04-04T08:48:47.6Z</time></trkpt><trkpt lat="44.6969567" lon="9.2983467"><ele>496.0</ele><time>2026-04-04T08:48:48.599Z</time></trkpt><trkpt lat="44.69694" lon="9.2984883"><ele>496.8</ele><time>2026-04-04T08:48:49.599Z</time></trkpt><trkpt lat="44.6969483" lon="9.2986233"><ele>497.6</ele><time>2026-04-04T08:48:50.6Z</time></trkpt><trkpt lat="44.6969533" lon="9.29876"><ele>498.4</ele><time>2026-04-04T08:48:51.599Z</time></trkpt><trkpt lat="44.6969317" lon="9.2988967"><ele>499.2</ele><time>2026-04-04T08:48:52.6Z</time></trkpt><trkpt lat="44.6968867" lon="9.299025"><ele>500.0</ele><time>2026-04-04T08:48:53.601Z</time></trkpt><trkpt lat="44.696825" lon="9.2991567"><ele>496.0</ele><time>2026-04-04T08:48:54.6Z</time></trkpt><trkpt lat="44.6967583" lon="9.2993"><ele>492.0</ele><time>2026-04-04T08:48:55.6Z</time></trkpt><trkpt lat="44.6967" lon="9.2994617"><ele>488.0</ele><time>2026-04-04T08:48:56.599Z</time></trkpt><trkpt lat="44.6966583" lon="9.29963"><ele>484.0</ele><time>2026-04-04T08:48:57.599Z</time></trkpt><trkpt lat="44.6966333" lon="9.2997933"><ele>484.0</ele><time>2026-04-04T08:48:58.601Z</time></trkpt><trkpt lat="44.6966083" lon="9.2999533"><ele>484.0</ele><time>2026-04-04T08:48:59.6Z</time></trkpt><trkpt lat="44.69658" lon="9.300085"><ele>484.0</ele><time>2026-04-04T08:49:00.6Z</time></trkpt><trkpt lat="44.6965383" lon="9.3001817"><ele>484.0</ele><time>2026-04-04T08:49:01.6Z</time></trkpt><trkpt lat="44.6964717" lon="9.30024"><ele>484.0</ele><time>2026-04-04T08:49:02.599Z</time></trkpt><trkpt lat="44.69639" lon="9.3002583"><ele>484.0</ele><time>2026-04-04T08:49:03.6Z</time></trkpt><trkpt lat="44.6962917" lon="9.3002633"><ele>484.0</ele><time>2026-04-04T08:49:04.599Z</time></trkpt><trkpt lat="44.6961783" lon="9.300295"><ele>484.0</ele><time>2026-04-04T08:49:05.601Z</time></trkpt><trkpt lat="44.6960567" lon="9.3003633"><ele>484.0</ele><time>2026-04-04T08:49:06.6Z</time></trkpt><trkpt lat="44.6959183" lon="9.3004567"><ele>483.5</ele><time>2026-04-04T08:49:07.6Z</time></trkpt><trkpt lat="44.6957783" lon="9.3005517"><ele>483.0</ele><time>2026-04-04T08:49:08.601Z</time></trkpt><trkpt lat="44.695645" lon="9.3006467"><ele>482.5</ele><time>2026-04-04T08:49:09.601Z</time></trkpt><trkpt lat="44.69552" lon="9.300735"><ele>482.0</ele><time>2026-04-04T08:49:10.599Z</time></trkpt><trkpt lat="44.695395" lon="9.30081"><ele>482.0</ele><time>2026-04-04T08:49:11.6Z</time></trkpt><trkpt lat="44.6952633" lon="9.300865"><ele>482.0</ele><time>2026-04-04T08:49:12.6Z</time></trkpt><trkpt lat="44.6951317" lon="9.300895"><ele>482.0</ele><time>2026-04-04T08:49:13.599Z</time></trkpt><trkpt lat="44.695005" lon="9.300885"><ele>482.0</ele><time>2026-04-04T08:49:14.6Z</time></trkpt><trkpt lat="44.6949" lon="9.3008267"><ele>478.8</ele><time>2026-04-04T08:49:15.599Z</time></trkpt><trkpt lat="44.6948067" lon="9.30078"><ele>475.6</ele><time>2026-04-04T08:49:16.599Z</time></trkpt><trkpt lat="44.69471" lon="9.3007717"><ele>472.40000000000003</ele><time>2026-04-04T08:49:17.601Z</time></trkpt><trkpt lat="44.6946183" lon="9.3007983"><ele>469.20000000000005</ele><time>2026-04-04T08:49:18.601Z</time></trkpt><trkpt lat="44.694535" lon="9.3008633"><ele>466.0</ele><time>2026-04-04T08:49:19.602Z</time></trkpt><trkpt lat="44.6944433" lon="9.3009717"><ele>464.75</ele><time>2026-04-04T08:49:20.603Z</time></trkpt><trkpt lat="44.6943467" lon="9.301105"><ele>463.5</ele><time>2026-04-04T08:49:21.602Z</time></trkpt><trkpt lat="44.694245" lon="9.3012317"><ele>462.25</ele><time>2026-04-04T08:49:22.602Z</time></trkpt><trkpt lat="44.69414" lon="9.30134"><ele>461.0</ele><time>2026-04-04T08:49:23.601Z</time></trkpt><trkpt lat="44.6940283" lon="9.3014333"><ele>461.0</ele><time>2026-04-04T08:49:24.601Z</time></trkpt><trkpt lat="44.693915" lon="9.3015233"><ele>461.0</ele><time>2026-04-04T08:49:25.6Z</time></trkpt><trkpt lat="44.69381" lon="9.3015983"><ele>461.0</ele><time>2026-04-04T08:49:26.601Z</time></trkpt><trkpt lat="44.693715" lon="9.3016417"><ele>461.0</ele><time>2026-04-04T08:49:27.6Z</time></trkpt><trkpt lat="44.69362" lon="9.30164"><ele>461.0</ele><time>2026-04-04T08:49:28.606Z</time></trkpt><trkpt lat="44.693535" lon="9.30158"><ele>460.0</ele><time>2026-04-04T08:49:29.6Z</time></trkpt><trkpt lat="44.693465" lon="9.3014817"><ele>459.0</ele><time>2026-04-04T08:49:30.6Z</time></trkpt><trkpt lat="44.6934033" lon="9.3013667"><ele>458.0</ele><time>2026-04-04T08:49:31.6Z</time></trkpt><trkpt lat="44.6933383" lon="9.3012433"><ele>457.0</ele><time>2026-04-04T08:49:32.601Z</time></trkpt><trkpt lat="44.693265" lon="9.30114"><ele>456.0</ele><time>2026-04-04T08:49:33.6Z</time></trkpt><trkpt lat="44.69318" lon="9.3010717"><ele>452.4</ele><time>2026-04-04T08:49:34.6Z</time></trkpt><trkpt lat="44.693085" lon="9.3010567"><ele>448.8</ele><time>2026-04-04T08:49:35.6Z</time></trkpt><trkpt lat="44.692995" lon="9.3011033"><ele>445.19999999999993</ele><time>2026-04-04T08:49:36.599Z</time></trkpt><trkpt lat="44.692915" lon="9.301185"><ele>441.59999999999997</ele><time>2026-04-04T08:49:37.6Z</time></trkpt><trkpt lat="44.692835" lon="9.3012967"><ele>438.0</ele><time>2026-04-04T08:49:38.6Z</time></trkpt><trkpt lat="44.6927467" lon="9.3014233"><ele>438.0</ele><time>2026-04-04T08:49:39.6Z</time></trkpt><trkpt lat="44.69265" lon="9.3015617"><ele>438.0</ele><time>2026-04-04T08:49:40.6Z</time></trkpt><trkpt lat="44.692535" lon="9.3016967"><ele>438.0</ele><time>2026-04-04T08:49:41.6Z</time></trkpt><trkpt lat="44.69242" lon="9.30182"><ele>438.0</ele><time>2026-04-04T08:49:42.6Z</time></trkpt><trkpt lat="44.6923067" lon="9.3019317"><ele>438.0</ele><time>2026-04-04T08:49:43.6Z</time></trkpt><trkpt lat="44.6921933" lon="9.302035"><ele>438.0</ele><time>2026-04-04T08:49:44.6Z</time></trkpt><trkpt lat="44.6920717" lon="9.30212"><ele>438.0</ele><time>2026-04-04T08:49:45.6Z</time></trkpt><trkpt lat="44.6919483" lon="9.30219"><ele>438.0</ele><time>2026-04-04T08:49:46.599Z</time></trkpt><trkpt lat="44.6918333" lon="9.3022667"><ele>436.0</ele><time>2026-04-04T08:49:47.599Z</time></trkpt><trkpt lat="44.6917317" lon="9.3023717"><ele>434.0</ele><time>2026-04-04T08:49:48.6Z</time></trkpt><trkpt lat="44.6916383" lon="9.3024967"><ele>432.0</ele><time>2026-04-04T08:49:49.6Z</time></trkpt><trkpt lat="44.69155" lon="9.3026467"><ele>430.0</ele><time>2026-04-04T08:49:50.6Z</time></trkpt><trkpt lat="44.6914667" lon="9.3028117"><ele>430.0</ele><time>2026-04-04T08:49:51.601Z</time></trkpt><trkpt lat="44.6913917" lon="9.30297"><ele>430.0</ele><time>2026-04-04T08:49:52.599Z</time></trkpt><trkpt lat="44.6913133" lon="9.303115"><ele>430.0</ele><time>2026-04-04T08:49:53.6Z</time></trkpt><trkpt lat="44.6912317" lon="9.30323"><ele>430.0</ele><time>2026-04-04T08:49:54.6Z</time></trkpt><trkpt lat="44.6911367" lon="9.3033083"><ele>428.0</ele><time>2026-04-04T08:49:55.6Z</time></trkpt><trkpt lat="44.6910333" lon="9.3033433"><ele>426.0</ele><time>2026-04-04T08:49:56.601Z</time></trkpt><trkpt lat="44.6909267" lon="9.3033567"><ele>424.0</ele><time>2026-04-04T08:49:57.602Z</time></trkpt><trkpt lat="44.6908233" lon="9.3033683"><ele>422.0</ele><time>2026-04-04T08:49:58.6Z</time></trkpt><trkpt lat="44.69072" lon="9.30337"><ele>420.0</ele><time>2026-04-04T08:49:59.6Z</time></trkpt><trkpt lat="44.69064" lon="9.3033717"><ele>420.0</ele><time>2026-04-04T08:50:00.6Z</time></trkpt><trkpt lat="44.6905767" lon="9.3033683"><ele>420.0</ele><time>2026-04-04T08:50:01.6Z</time></trkpt><trkpt lat="44.6905" lon="9.3033467"><ele>420.0</ele><time>2026-04-04T08:50:03.6Z</time></trkpt><trkpt lat="44.69043" lon="9.3032933"><ele>420.0</ele><time>2026-04-04T08:50:05.599Z</time></trkpt><trkpt lat="44.6903433" lon="9.3032083"><ele>420.0</ele><time>2026-04-04T08:50:07.6Z</time></trkpt><trkpt lat="44.6902467" lon="9.3030883"><ele>418.3333333333333</ele><time>2026-04-04T08:50:09.599Z</time></trkpt><trkpt lat="44.6901817" lon="9.3030383"><ele>416.66666666666663</ele><time>2026-04-04T08:50:10.6Z</time></trkpt><trkpt lat="44.690105" lon="9.3030417"><ele>415.0</ele><time>2026-04-04T08:50:11.6Z</time></trkpt><trkpt lat="44.6900267" lon="9.30308"><ele>413.3333333333333</ele><time>2026-04-04T08:50:12.6Z</time></trkpt><trkpt lat="44.689945" lon="9.303145"><ele>411.66666666666663</ele><time>2026-04-04T08:50:13.601Z</time></trkpt><trkpt lat="44.6898667" lon="9.3032483"><ele>410.0</ele><time>2026-04-04T08:50:14.6Z</time></trkpt><trkpt lat="44.689785" lon="9.30338"><ele>410.0</ele><time>2026-04-04T08:50:15.6Z</time></trkpt><trkpt lat="44.689705" lon="9.3035067"><ele>410.0</ele><time>2026-04-04T08:50:16.602Z</time></trkpt><trkpt lat="44.689625" lon="9.3036233"><ele>410.0</ele><time>2026-04-04T08:50:17.6Z</time></trkpt><trkpt lat="44.689545" lon="9.30373"><ele>410.0</ele><time>2026-04-04T08:50:18.6Z</time></trkpt><trkpt lat="44.6894717" lon="9.3038333"><ele>407.0</ele><time>2026-04-04T08:50:19.601Z</time></trkpt><trkpt lat="44.6894083" lon="9.3039433"><ele>404.0</ele><time>2026-04-04T08:50:20.601Z</time></trkpt><trkpt lat="44.6893617" lon="9.3040667"><ele>401.0</ele><time>2026-04-04T08:50:21.6Z</time></trkpt><trkpt lat="44.68933" lon="9.3042033"><ele>398.0</ele><time>2026-04-04T08:50:22.6Z</time></trkpt><trkpt lat="44.6893067" lon="9.3043483"><ele>395.0</ele><time>2026-04-04T08:50:23.599Z</time></trkpt><trkpt lat="44.6892833" lon="9.3044933"><ele>395.0</ele><time>2026-04-04T08:50:24.599Z</time></trkpt><trkpt lat="44.6892417" lon="9.3046333"><ele>395.0</ele><time>2026-04-04T08:50:25.599Z</time></trkpt><trkpt lat="44.6891817" lon="9.3047767"><ele>395.0</ele><time>2026-04-04T08:50:26.601Z</time></trkpt><trkpt lat="44.689115" lon="9.30491"><ele>395.0</ele><time>2026-04-04T08:50:27.601Z</time></trkpt><trkpt lat="44.6890467" lon="9.3050467"><ele>395.6</ele><time>2026-04-04T08:50:28.601Z</time></trkpt><trkpt lat="44.6890017" lon="9.3051833"><ele>396.2</ele><time>2026-04-04T08:50:29.6Z</time></trkpt><trkpt lat="44.688975" lon="9.3053317"><ele>396.79999999999995</ele><time>2026-04-04T08:50:30.601Z</time></trkpt><trkpt lat="44.688955" lon="9.3054933"><ele>397.4</ele><time>2026-04-04T08:50:31.599Z</time></trkpt><trkpt lat="44.6889333" lon="9.305655"><ele>398.0</ele><time>2026-04-04T08:50:32.601Z</time></trkpt><trkpt lat="44.6889017" lon="9.3058033"><ele>398.99999999999994</ele><time>2026-04-04T08:50:33.6Z</time></trkpt><trkpt lat="44.688865" lon="9.3059317"><ele>400.0</ele><time>2026-04-04T08:50:34.6Z</time></trkpt><trkpt lat="44.6888283" lon="9.3060467"><ele>401.0</ele><time>2026-04-04T08:50:35.601Z</time></trkpt><trkpt lat="44.68879" lon="9.3061617"><ele>402.0</ele><time>2026-04-04T08:50:36.6Z</time></trkpt><trkpt lat="44.6887483" lon="9.30626"><ele>402.99999999999994</ele><time>2026-04-04T08:50:37.601Z</time></trkpt><trkpt lat="44.68869" lon="9.30634"><ele>404.0</ele><time>2026-04-04T08:50:38.601Z</time></trkpt><trkpt lat="44.6886267" lon="9.306405"><ele>400.0</ele><time>2026-04-04T08:50:39.599Z</time></trkpt><trkpt lat="44.6885617" lon="9.3064417"><ele>396.0</ele><time>2026-04-04T08:50:40.6Z</time></trkpt><trkpt lat="44.6884683" lon="9.306445"><ele>392.0</ele><time>2026-04-04T08:50:42.6Z</time></trkpt><trkpt lat="44.6883" lon="9.30644"><ele>388.0</ele><time>2026-04-04T08:51:13.6Z</time></trkpt><trkpt lat="44.6881617" lon="9.3064367"><ele>388.00000000000006</ele><time>2026-04-04T08:51:16.601Z</time></trkpt><trkpt lat="44.688085" lon="9.30643"><ele>388.0</ele><time>2026-04-04T08:51:17.6Z</time></trkpt><trkpt lat="44.687995" lon="9.3064267"><ele>388.0</ele><time>2026-04-04T08:51:18.599Z</time></trkpt><trkpt lat="44.68791" lon="9.3064183"><ele>388.0</ele><time>2026-04-04T08:51:19.6Z</time></trkpt><trkpt lat="44.6878283" lon="9.3064183"><ele>388.00000000000006</ele><time>2026-04-04T08:51:20.602Z</time></trkpt><trkpt lat="44.68775" lon="9.3064367"><ele>388.0</ele><time>2026-04-04T08:51:21.6Z</time></trkpt><trkpt lat="44.6876867" lon="9.306495"><ele>389.83333333333337</ele><time>2026-04-04T08:51:22.601Z</time></trkpt><trkpt lat="44.6876367" lon="9.3065867"><ele>391.6666666666667</ele><time>2026-04-04T08:51:23.601Z</time></trkpt><trkpt lat="44.687605" lon="9.3067067"><ele>393.5</ele><time>2026-04-04T08:51:24.6Z</time></trkpt><trkpt lat="44.687585" lon="9.3068317"><ele>395.33333333333337</ele><time>2026-04-04T08:51:25.601Z</time></trkpt><trkpt lat="44.6875533" lon="9.3069367"><ele>397.1666666666667</ele><time>2026-04-04T08:51:26.601Z</time></trkpt><trkpt lat="44.6875083" lon="9.307015"><ele>399.0</ele><time>2026-04-04T08:51:27.6Z</time></trkpt><trkpt lat="44.6874517" lon="9.30708"><ele>399.0</ele><time>2026-04-04T08:51:28.599Z</time></trkpt><trkpt lat="44.68735" lon="9.30713"><ele>399.0</ele><time>2026-04-04T08:51:29.599Z</time></trkpt><trkpt lat="44.68725" lon="9.3071883"><ele>399.0</ele><time>2026-04-04T08:51:30.599Z</time></trkpt><trkpt lat="44.6871617" lon="9.3072617"><ele>399.0</ele><time>2026-04-04T08:51:31.6Z</time></trkpt><trkpt lat="44.6871017" lon="9.307355"><ele>399.0</ele><time>2026-04-04T08:51:32.599Z</time></trkpt><trkpt lat="44.6870517" lon="9.3074533"><ele>399.0</ele><time>2026-04-04T08:51:33.6Z</time></trkpt><trkpt lat="44.686995" lon="9.3075367"><ele>399.0</ele><time>2026-04-04T08:51:34.6Z</time></trkpt><trkpt lat="44.6868867" lon="9.3075233"><ele>399.0</ele><time>2026-04-04T08:51:36.601Z</time></trkpt><trkpt lat="44.6868683" lon="9.3074367"><ele>399.0</ele><time>2026-04-04T08:51:37.6Z</time></trkpt><trkpt lat="44.6868783" lon="9.3073333"><ele>399.0</ele><time>2026-04-04T08:51:38.6Z</time></trkpt><trkpt lat="44.6869217" lon="9.307235"><ele>399.0</ele><time>2026-04-04T08:51:39.599Z</time></trkpt><trkpt lat="44.6869833" lon="9.307135"><ele>399.0</ele><time>2026-04-04T08:51:40.601Z</time></trkpt><trkpt lat="44.687075" lon="9.307035"><ele>399.0</ele><time>2026-04-04T08:51:41.601Z</time></trkpt><trkpt lat="44.6871683" lon="9.306935"><ele>399.0</ele><time>2026-04-04T08:51:42.599Z</time></trkpt><trkpt lat="44.6872417" lon="9.3068317"><ele>399.0</ele><time>2026-04-04T08:51:43.599Z</time></trkpt><trkpt lat="44.6873" lon="9.3067183"><ele>399.0</ele><time>2026-04-04T08:51:44.601Z</time></trkpt><trkpt lat="44.6873267" lon="9.3065817"><ele>399.0</ele><time>2026-04-04T08:51:45.599Z</time></trkpt><trkpt lat="44.687335" lon="9.3064233"><ele>399.0</ele><time>2026-04-04T08:51:46.6Z</time></trkpt><trkpt lat="44.6873533" lon="9.3062417"><ele>399.0</ele><time>2026-04-04T08:51:47.599Z</time></trkpt><trkpt lat="44.687375" lon="9.3060533"><ele>399.0</ele><time>2026-04-04T08:51:48.6Z</time></trkpt><trkpt lat="44.6874" lon="9.305855"><ele>401.0</ele><time>2026-04-04T08:51:49.6Z</time></trkpt><trkpt lat="44.687425" lon="9.305655"><ele>403.0</ele><time>2026-04-04T08:51:50.601Z</time></trkpt><trkpt lat="44.68745" lon="9.3054633"><ele>405.0</ele><time>2026-04-04T08:51:51.6Z</time></trkpt><trkpt lat="44.6874667" lon="9.3052683"><ele>407.0</ele><time>2026-04-04T08:51:52.6Z</time></trkpt><trkpt lat="44.6874783" lon="9.30507"><ele>407.25</ele><time>2026-04-04T08:51:53.6Z</time></trkpt><trkpt lat="44.6874867" lon="9.304875"><ele>407.5</ele><time>2026-04-04T08:51:54.6Z</time></trkpt><trkpt lat="44.6874833" lon="9.3047033"><ele>407.75</ele><time>2026-04-04T08:51:55.601Z</time></trkpt><trkpt lat="44.6874533" lon="9.3045667"><ele>408.0</ele><time>2026-04-04T08:51:56.602Z</time></trkpt><trkpt lat="44.687395" lon="9.3044533"><ele>408.0</ele><time>2026-04-04T08:51:57.6Z</time></trkpt><trkpt lat="44.6873183" lon="9.30434"><ele>408.0</ele><time>2026-04-04T08:51:58.602Z</time></trkpt><trkpt lat="44.68722" lon="9.304225"><ele>408.0</ele><time>2026-04-04T08:51:59.6Z</time></trkpt><trkpt lat="44.6871283" lon="9.3041133"><ele>408.0</ele><time>2026-04-04T08:52:00.6Z</time></trkpt><trkpt lat="44.6870467" lon="9.3040233"><ele>408.0</ele><time>2026-04-04T08:52:01.6Z</time></trkpt><trkpt lat="44.686975" lon="9.3039483"><ele>408.0</ele><time>2026-04-04T08:52:02.6Z</time></trkpt><trkpt lat="44.6869167" lon="9.3038933"><ele>408.0</ele><time>2026-04-04T08:52:03.6Z</time></trkpt><trkpt lat="44.686835" lon="9.30387"><ele>408.0</ele><time>2026-04-04T08:52:05.601Z</time></trkpt><trkpt lat="44.6867733" lon="9.303895"><ele>408.0</ele><time>2026-04-04T08:52:07.6Z</time></trkpt><trkpt lat="44.68669" lon="9.3039217"><ele>408.0</ele><time>2026-04-04T08:52:10.601Z</time></trkpt><trkpt lat="44.6866033" lon="9.303925"><ele>411.2</ele><time>2026-04-04T08:52:13.6Z</time></trkpt><trkpt lat="44.6865133" lon="9.3039633"><ele>414.4</ele><time>2026-04-04T08:52:16.6Z</time></trkpt><trkpt lat="44.6864483" lon="9.3040267"><ele>417.59999999999997</ele><time>2026-04-04T08:52:18.6Z</time></trkpt><trkpt lat="44.6863817" lon="9.304125"><ele>420.79999999999995</ele><time>2026-04-04T08:52:20.601Z</time></trkpt><trkpt lat="44.6863" lon="9.304285"><ele>424.0</ele><time>2026-04-04T08:52:22.6Z</time></trkpt><trkpt lat="44.68626" lon="9.3043783"><ele>424.00000000000006</ele><time>2026-04-04T08:52:23.601Z</time></trkpt><trkpt lat="44.686205" lon="9.3044567"><ele>424.0</ele><time>2026-04-04T08:52:24.601Z</time></trkpt><trkpt lat="44.68615" lon="9.304525"><ele>424.0</ele><time>2026-04-04T08:52:25.601Z</time></trkpt><trkpt lat="44.686085" lon="9.3045967"><ele>424.0</ele><time>2026-04-04T08:52:26.6Z</time></trkpt><trkpt lat="44.6860083" lon="9.3046733"><ele>424.00000000000006</ele><time>2026-04-04T08:52:27.6Z</time></trkpt><trkpt lat="44.6859367" lon="9.3047283"><ele>424.0</ele><time>2026-04-04T08:52:28.601Z</time></trkpt><trkpt lat="44.6858733" lon="9.3047717"><ele>428.0</ele><time>2026-04-04T08:52:29.602Z</time></trkpt><trkpt lat="44.6858017" lon="9.3049167"><ele>432.0</ele><time>2026-04-04T08:52:31.599Z</time></trkpt><trkpt lat="44.685765" lon="9.3050733"><ele>436.0</ele><time>2026-04-04T08:52:33.6Z</time></trkpt><trkpt lat="44.6857483" lon="9.30517"><ele>440.0</ele><time>2026-04-04T08:52:34.601Z</time></trkpt><trkpt lat="44.6857267" lon="9.305285"><ele>444.0</ele><time>2026-04-04T08:52:35.601Z</time></trkpt><trkpt lat="44.68571" lon="9.3054233"><ele>444.0</ele><time>2026-04-04T08:52:36.601Z</time></trkpt><trkpt lat="44.6857033" lon="9.3055617"><ele>444.0</ele><time>2026-04-04T08:52:37.599Z</time></trkpt><trkpt lat="44.6857067" lon="9.3057167"><ele>444.0</ele><time>2026-04-04T08:52:38.601Z</time></trkpt><trkpt lat="44.6857167" lon="9.305885"><ele>444.0</ele><time>2026-04-04T08:52:39.601Z</time></trkpt><trkpt lat="44.68574" lon="9.3060517"><ele>446.0</ele><time>2026-04-04T08:52:40.6Z</time></trkpt><trkpt lat="44.6857583" lon="9.3062067"><ele>448.0</ele><time>2026-04-04T08:52:41.601Z</time></trkpt><trkpt lat="44.6857767" lon="9.3063717"><ele>450.0</ele><time>2026-04-04T08:52:42.601Z</time></trkpt><trkpt lat="44.6857817" lon="9.30653"><ele>452.0</ele><time>2026-04-04T08:52:43.6Z</time></trkpt><trkpt lat="44.6857717" lon="9.3066683"><ele>454.0</ele><time>2026-04-04T08:52:44.601Z</time></trkpt><trkpt lat="44.68575" lon="9.3067883"><ele>454.0</ele><time>2026-04-04T08:52:45.599Z</time></trkpt><trkpt lat="44.6857167" lon="9.3068717"><ele>454.0</ele><time>2026-04-04T08:52:46.6Z</time></trkpt><trkpt lat="44.6856017" lon="9.306925"><ele>454.0</ele><time>2026-04-04T08:52:48.601Z</time></trkpt><trkpt lat="44.6855133" lon="9.3069433"><ele>454.0</ele><time>2026-04-04T08:52:49.601Z</time></trkpt><trkpt lat="44.6854083" lon="9.3069767"><ele>454.0</ele><time>2026-04-04T08:52:50.601Z</time></trkpt><trkpt lat="44.68531" lon="9.3070383"><ele>458.25</ele><time>2026-04-04T08:52:51.601Z</time></trkpt><trkpt lat="44.6852417" lon="9.3071133"><ele>462.5</ele><time>2026-04-04T08:52:52.601Z</time></trkpt><trkpt lat="44.68517" lon="9.307245"><ele>466.75</ele><time>2026-04-04T08:52:53.602Z</time></trkpt><trkpt lat="44.685115" lon="9.307405"><ele>471.0</ele><time>2026-04-04T08:52:54.602Z</time></trkpt><trkpt lat="44.685065" lon="9.3075917"><ele>471.0</ele><time>2026-04-04T08:52:55.602Z</time></trkpt><trkpt lat="44.6850117" lon="9.3077833"><ele>471.0</ele><time>2026-04-04T08:52:56.603Z</time></trkpt><trkpt lat="44.6849633" lon="9.3079317"><ele>471.0</ele><time>2026-04-04T08:52:57.602Z</time></trkpt><trkpt lat="44.6849083" lon="9.3080517"><ele>471.0</ele><time>2026-04-04T08:52:58.602Z</time></trkpt><trkpt lat="44.6848483" lon="9.308135"><ele>471.0</ele><time>2026-04-04T08:52:59.6Z</time></trkpt><trkpt lat="44.6847733" lon="9.3081767"><ele>471.0</ele><time>2026-04-04T08:53:00.6Z</time></trkpt><trkpt lat="44.6846817" lon="9.3081667"><ele>471.0</ele><time>2026-04-04T08:53:01.6Z</time></trkpt><trkpt lat="44.68459" lon="9.3081167"><ele>471.0</ele><time>2026-04-04T08:53:02.603Z</time></trkpt><trkpt lat="44.6844933" lon="9.3080467"><ele>471.0</ele><time>2026-04-04T08:53:03.6Z</time></trkpt><trkpt lat="44.68439" lon="9.3079667"><ele>471.0</ele><time>2026-04-04T08:53:04.6Z</time></trkpt><trkpt lat="44.6842983" lon="9.307895"><ele>472.8333333333333</ele><time>2026-04-04T08:53:05.601Z</time></trkpt><trkpt lat="44.6842167" lon="9.3078417"><ele>474.66666666666663</ele><time>2026-04-04T08:53:06.601Z</time></trkpt><trkpt lat="44.6841467" lon="9.3078133"><ele>476.5</ele><time>2026-04-04T08:53:07.601Z</time></trkpt><trkpt lat="44.6840333" lon="9.3078033"><ele>478.3333333333333</ele><time>2026-04-04T08:53:09.601Z</time></trkpt><trkpt lat="44.6839683" lon="9.3077567"><ele>480.16666666666663</ele><time>2026-04-04T08:53:11.602Z</time></trkpt><trkpt lat="44.6839117" lon="9.307665"><ele>482.0</ele><time>2026-04-04T08:53:13.6Z</time></trkpt><trkpt lat="44.6838933" lon="9.3075167"><ele>482.0</ele><time>2026-04-04T08:53:15.691Z</time></trkpt><trkpt lat="44.6839233" lon="9.30738"><ele>482.00000000000006</ele><time>2026-04-04T08:53:17.6Z</time></trkpt><trkpt lat="44.683935" lon="9.3072783"><ele>482.00000000000006</ele><time>2026-04-04T08:53:20.601Z</time></trkpt><trkpt lat="44.6838217" lon="9.3073183"><ele>482.0</ele><time>2026-04-04T08:53:24.601Z</time></trkpt><trkpt lat="44.683715" lon="9.307405"><ele>482.0</ele><time>2026-04-04T08:53:29.601Z</time></trkpt><trkpt lat="44.6836267" lon="9.3075083"><ele>484.8333333333333</ele><time>2026-04-04T08:53:31.601Z</time></trkpt><trkpt lat="44.6835617" lon="9.3075733"><ele>487.66666666666663</ele><time>2026-04-04T08:53:32.601Z</time></trkpt><trkpt lat="44.683495" lon="9.30763"><ele>490.5</ele><time>2026-04-04T08:53:33.6Z</time></trkpt><trkpt lat="44.68342" lon="9.307705"><ele>493.33333333333337</ele><time>2026-04-04T08:53:34.601Z</time></trkpt><trkpt lat="44.6833467" lon="9.307785"><ele>496.1666666666667</ele><time>2026-04-04T08:53:35.601Z</time></trkpt><trkpt lat="44.683285" lon="9.30786"><ele>499.0</ele><time>2026-04-04T08:53:36.599Z</time></trkpt><trkpt lat="44.68323" lon="9.307945"><ele>499.00000000000006</ele><time>2026-04-04T08:53:37.602Z</time></trkpt><trkpt lat="44.683175" lon="9.3080317"><ele>499.0</ele><time>2026-04-04T08:53:38.602Z</time></trkpt><trkpt lat="44.683105" lon="9.3081167"><ele>499.0</ele><time>2026-04-04T08:53:39.601Z</time></trkpt><trkpt lat="44.6830333" lon="9.308205"><ele>499.0</ele><time>2026-04-04T08:53:40.602Z</time></trkpt><trkpt lat="44.6829817" lon="9.3082883"><ele>499.00000000000006</ele><time>2026-04-04T08:53:41.603Z</time></trkpt><trkpt lat="44.6829433" lon="9.3083767"><ele>499.0</ele><time>2026-04-04T08:53:42.602Z</time></trkpt><trkpt lat="44.6829067" lon="9.3084783"><ele>497.33333333333337</ele><time>2026-04-04T08:53:43.603Z</time></trkpt><trkpt lat="44.6828683" lon="9.30859"><ele>495.6666666666667</ele><time>2026-04-04T08:53:44.603Z</time></trkpt><trkpt lat="44.6828217" lon="9.30871"><ele>494.0</ele><time>2026-04-04T08:53:45.601Z</time></trkpt><trkpt lat="44.6827768" lon="9.3088285"><ele>492.33333333333337</ele><time>2026-04-04T08:53:46.603Z</time></trkpt><trkpt lat="44.6827367" lon="9.3089328"><ele>490.6666666666667</ele><time>2026-04-04T08:53:47.602Z</time></trkpt><trkpt lat="44.6826952" lon="9.3090246"><ele>489.0</ele><time>2026-04-04T08:53:48.602Z</time></trkpt><trkpt lat="44.6826622" lon="9.3091114"><ele>493.14285714285717</ele><time>2026-04-04T08:53:49.602Z</time></trkpt><trkpt lat="44.6826387" lon="9.309201"><ele>497.28571428571433</ele><time>2026-04-04T08:53:50.603Z</time></trkpt><trkpt lat="44.6826129" lon="9.309307"><ele>501.42857142857144</ele><time>2026-04-04T08:53:52.601Z</time></trkpt><trkpt lat="44.682561" lon="9.3093741"><ele>505.57142857142856</ele><time>2026-04-04T08:53:54.602Z</time></trkpt><trkpt lat="44.6824894" lon="9.3094011"><ele>509.7142857142857</ele><time>2026-04-04T08:53:56.601Z</time></trkpt><trkpt lat="44.6824104" lon="9.3093639"><ele>513.8571428571429</ele><time>2026-04-04T08:53:59.601Z</time></trkpt><trkpt lat="44.6823445" lon="9.3093321"><ele>518.0</ele><time>2026-04-04T08:54:02.601Z</time></trkpt><trkpt lat="44.6822761" lon="9.3093453"><ele>518.0</ele><time>2026-04-04T08:54:05.6Z</time></trkpt><trkpt lat="44.6821861" lon="9.3094147"><ele>518.0</ele><time>2026-04-04T08:54:08.602Z</time></trkpt><trkpt lat="44.6821256" lon="9.30944"><ele>518.0</ele><time>2026-04-04T08:54:11.64Z</time></trkpt><trkpt lat="44.6820375" lon="9.3095044"><ele>518.0</ele><time>2026-04-04T08:54:14.637Z</time></trkpt><trkpt lat="44.6819179" lon="9.3095517"><ele>518.0</ele><time>2026-04-04T08:54:16.601Z</time></trkpt><trkpt lat="44.6818565" lon="9.3095762"><ele>525.8</ele><time>2026-04-04T08:54:17.601Z</time></trkpt><trkpt lat="44.6817453" lon="9.309619"><ele>533.5999999999999</ele><time>2026-04-04T08:54:19.6Z</time></trkpt><trkpt lat="44.681638" lon="9.3096484"><ele>541.4000000000001</ele><time>2026-04-04T08:54:21.6Z</time></trkpt><trkpt lat="44.6816865" lon="9.3095867"><ele>549.2</ele><time>2026-04-04T08:54:36.602Z</time></trkpt><trkpt lat="44.6817615" lon="9.3095301"><ele>557.0</ele><time>2026-04-04T08:54:40.602Z</time></trkpt><trkpt lat="44.6818783" lon="9.3095133"><ele>557.0</ele><time>2026-04-04T08:54:49.602Z</time></trkpt><trkpt lat="44.6818917" lon="9.309635"><ele>557.0</ele><time>2026-04-04T08:55:31.601Z</time></trkpt><trkpt lat="44.6818483" lon="9.309735"><ele>557.0</ele><time>2026-04-04T08:55:44.602Z</time></trkpt><trkpt lat="44.6818217" lon="9.3098283"><ele>557.0</ele><time>2026-04-04T08:55:53.601Z</time></trkpt><trkpt lat="44.6817483" lon="9.3098367"><ele>557.0</ele><time>2026-04-04T08:55:55.6Z</time></trkpt><trkpt lat="44.6816617" lon="9.3098467"><ele>557.0</ele><time>2026-04-04T08:55:57.601Z</time></trkpt><trkpt lat="44.6815767" lon="9.309885"><ele>555.3333333333333</ele><time>2026-04-04T08:56:00.6Z</time></trkpt><trkpt lat="44.6815033" lon="9.3099333"><ele>553.6666666666666</ele><time>2026-04-04T08:56:02.602Z</time></trkpt><trkpt lat="44.681425" lon="9.3099633"><ele>552.0</ele><time>2026-04-04T08:56:04.601Z</time></trkpt><trkpt lat="44.6813483" lon="9.3099617"><ele>550.3333333333334</ele><time>2026-04-04T08:56:06.602Z</time></trkpt><trkpt lat="44.6812583" lon="9.309935"><ele>548.6666666666667</ele><time>2026-04-04T08:56:10.601Z</time></trkpt><trkpt lat="44.6811641" lon="9.3099252"><ele>547.0</ele><time>2026-04-04T08:56:13.665Z</time></trkpt><trkpt lat="44.6810879" lon="9.3099636"><ele>551.8333333333334</ele><time>2026-04-04T08:56:15.642Z</time></trkpt><trkpt lat="44.6810297" lon="9.3100017"><ele>556.6666666666667</ele><time>2026-04-04T08:56:17.617Z</time></trkpt><trkpt lat="44.6809962" lon="9.3101054"><ele>561.5</ele><time>2026-04-04T08:56:20.633Z</time></trkpt><trkpt lat="44.6809459" lon="9.3101856"><ele>566.3333333333334</ele><time>2026-04-04T08:56:23.649Z</time></trkpt><trkpt lat="44.680835" lon="9.310175"><ele>571.1666666666666</ele><time>2026-04-04T08:56:53.601Z</time></trkpt><trkpt lat="44.680765" lon="9.3101333"><ele>576.0</ele><time>2026-04-04T08:56:57.6Z</time></trkpt><trkpt lat="44.6806967" lon="9.310115"><ele>576.0</ele><time>2026-04-04T08:56:59.6Z</time></trkpt><trkpt lat="44.68063" lon="9.3101083"><ele>576.0</ele><time>2026-04-04T08:57:02.601Z</time></trkpt><trkpt lat="44.6805583" lon="9.3101983"><ele>576.0</ele><time>2026-04-04T08:57:05.601Z</time></trkpt><trkpt lat="44.68052" lon="9.310285"><ele>576.0</ele><time>2026-04-04T08:57:07.602Z</time></trkpt><trkpt lat="44.6804583" lon="9.31038"><ele>576.0</ele><time>2026-04-04T08:57:09.601Z</time></trkpt><trkpt lat="44.6804033" lon="9.31044"><ele>576.0</ele><time>2026-04-04T08:57:11.601Z</time></trkpt><trkpt lat="44.68033" lon="9.3105117"><ele>576.2</ele><time>2026-04-04T08:57:14.601Z</time></trkpt><trkpt lat="44.6802733" lon="9.310575"><ele>576.4000000000001</ele><time>2026-04-04T08:57:16.601Z</time></trkpt><trkpt lat="44.6802133" lon="9.31069"><ele>576.6</ele><time>2026-04-04T08:57:18.601Z</time></trkpt><trkpt lat="44.68015" lon="9.310815"><ele>576.8000000000001</ele><time>2026-04-04T08:57:20.601Z</time></trkpt><trkpt lat="44.6800833" lon="9.3109517"><ele>577.0</ele><time>2026-04-04T08:57:22.602Z</time></trkpt><trkpt lat="44.6800783" lon="9.3111133"><ele>582.1666666666667</ele><time>2026-04-04T08:57:24.601Z</time></trkpt><trkpt lat="44.6800733" lon="9.31128"><ele>587.3333333333334</ele><time>2026-04-04T08:57:26.601Z</time></trkpt><trkpt lat="44.6800667" lon="9.3113733"><ele>592.5</ele><time>2026-04-04T08:57:27.601Z</time></trkpt><trkpt lat="44.6800633" lon="9.311465"><ele>597.6666666666666</ele><time>2026-04-04T08:57:28.601Z</time></trkpt><trkpt lat="44.6800517" lon="9.3115617"><ele>602.8333333333333</ele><time>2026-04-04T08:57:29.601Z</time></trkpt><trkpt lat="44.6800333" lon="9.3116483"><ele>608.0</ele><time>2026-04-04T08:57:30.601Z</time></trkpt><trkpt lat="44.680015" lon="9.3117367"><ele>607.8</ele><time>2026-04-04T08:57:31.6Z</time></trkpt><trkpt lat="44.67994" lon="9.311845"><ele>607.5999999999999</ele><time>2026-04-04T08:57:33.601Z</time></trkpt><trkpt lat="44.6798933" lon="9.31192"><ele>607.4000000000001</ele><time>2026-04-04T08:57:35.599Z</time></trkpt><trkpt lat="44.6798383" lon="9.3120383"><ele>607.2</ele><time>2026-04-04T08:57:45.6Z</time></trkpt><trkpt lat="44.6798117" lon="9.3121683"><ele>607.0</ele><time>2026-04-04T08:57:47.6Z</time></trkpt><trkpt lat="44.6798067" lon="9.312305"><ele>607.0</ele><time>2026-04-04T08:57:49.601Z</time></trkpt><trkpt lat="44.67977" lon="9.3124383"><ele>607.0</ele><time>2026-04-04T08:57:51.6Z</time></trkpt><trkpt lat="44.679705" lon="9.3125467"><ele>607.0</ele><time>2026-04-04T08:57:53.601Z</time></trkpt><trkpt lat="44.6796167" lon="9.312635"><ele>607.0</ele><time>2026-04-04T08:57:55.6Z</time></trkpt><trkpt lat="44.6795383" lon="9.3127317"><ele>607.0</ele><time>2026-04-04T08:57:57.601Z</time></trkpt><trkpt lat="44.67949" lon="9.3127917"><ele>610.8333333333334</ele><time>2026-04-04T08:57:58.6Z</time></trkpt><trkpt lat="44.6794317" lon="9.3128467"><ele>614.6666666666667</ele><time>2026-04-04T08:57:59.601Z</time></trkpt><trkpt lat="44.67937" lon="9.312905"><ele>618.5</ele><time>2026-04-04T08:58:00.601Z</time></trkpt><trkpt lat="44.6793083" lon="9.312955"><ele>622.3333333333334</ele><time>2026-04-04T08:58:01.599Z</time></trkpt><trkpt lat="44.6792517" lon="9.3129983"><ele>626.1666666666666</ele><time>2026-04-04T08:58:02.602Z</time></trkpt><trkpt lat="44.6791583" lon="9.3130617"><ele>630.0</ele><time>2026-04-04T08:58:04.601Z</time></trkpt><trkpt lat="44.6790583" lon="9.313165"><ele>630.0</ele><time>2026-04-04T08:58:06.6Z</time></trkpt><trkpt lat="44.6789717" lon="9.3132833"><ele>630.0</ele><time>2026-04-04T08:58:08.601Z</time></trkpt><trkpt lat="44.678905" lon="9.3134317"><ele>630.0</ele><time>2026-04-04T08:58:10.602Z</time></trkpt><trkpt lat="44.678855" lon="9.3135417"><ele>630.0</ele><time>2026-04-04T08:58:11.6Z</time></trkpt><trkpt lat="44.6787983" lon="9.31365"><ele>630.0</ele><time>2026-04-04T08:58:12.601Z</time></trkpt><trkpt lat="44.6787267" lon="9.313755"><ele>630.0</ele><time>2026-04-04T08:58:13.601Z</time></trkpt><trkpt lat="44.67867" lon="9.313855"><ele>630.0</ele><time>2026-04-04T08:58:14.6Z</time></trkpt><trkpt lat="44.6786233" lon="9.31395"><ele>630.0</ele><time>2026-04-04T08:58:15.601Z</time></trkpt><trkpt lat="44.67858" lon="9.3140467"><ele>630.0</ele><time>2026-04-04T08:58:16.599Z</time></trkpt><trkpt lat="44.6785417" lon="9.3141333"><ele>630.0</ele><time>2026-04-04T08:58:17.602Z</time></trkpt><trkpt lat="44.6785017" lon="9.314225"><ele>630.0</ele><time>2026-04-04T08:58:18.601Z</time></trkpt><trkpt lat="44.67849" lon="9.314335"><ele>633.1666666666666</ele><time>2026-04-04T08:58:20.601Z</time></trkpt><trkpt lat="44.6784767" lon="9.3144267"><ele>636.3333333333334</ele><time>2026-04-04T08:58:36.601Z</time></trkpt><trkpt lat="44.6784383" lon="9.31451"><ele>639.5</ele><time>2026-04-04T08:58:38.602Z</time></trkpt><trkpt lat="44.6783717" lon="9.3145767"><ele>642.6666666666667</ele><time>2026-04-04T08:58:40.601Z</time></trkpt><trkpt lat="44.67829" lon="9.3146117"><ele>645.8333333333334</ele><time>2026-04-04T08:58:42.601Z</time></trkpt><trkpt lat="44.67819" lon="9.31468"><ele>649.0</ele><time>2026-04-04T08:58:44.603Z</time></trkpt><trkpt lat="44.6781217" lon="9.31478"><ele>649.0</ele><time>2026-04-04T08:58:46.602Z</time></trkpt><trkpt lat="44.6780567" lon="9.314875"><ele>649.0</ele><time>2026-04-04T08:58:48.602Z</time></trkpt><trkpt lat="44.6779833" lon="9.314925"><ele>649.0</ele><time>2026-04-04T08:58:50.603Z</time></trkpt><trkpt lat="44.6779067" lon="9.3149367"><ele>649.0</ele><time>2026-04-04T08:58:52.602Z</time></trkpt><trkpt lat="44.6778283" lon="9.3148633"><ele>649.0</ele><time>2026-04-04T08:58:58.601Z</time></trkpt><trkpt lat="44.6777817" lon="9.314745"><ele>649.0</ele><time>2026-04-04T08:59:00.601Z</time></trkpt><trkpt lat="44.6777383" lon="9.3145917"><ele>652.0</ele><time>2026-04-04T08:59:02.602Z</time></trkpt><trkpt lat="44.6776683" lon="9.314485"><ele>655.0</ele><time>2026-04-04T08:59:04.6Z</time></trkpt><trkpt lat="44.67755" lon="9.3145383"><ele>658.0</ele><time>2026-04-04T08:59:06.602Z</time></trkpt><trkpt lat="44.6774783" lon="9.3146117"><ele>661.0</ele><time>2026-04-04T08:59:08.6Z</time></trkpt><trkpt lat="44.67741" lon="9.3146817"><ele>664.0</ele><time>2026-04-04T08:59:10.6Z</time></trkpt><trkpt lat="44.67736" lon="9.3148333"><ele>665.0</ele><time>2026-04-04T08:59:12.602Z</time></trkpt><trkpt lat="44.6773433" lon="9.31493"><ele>666.0</ele><time>2026-04-04T08:59:13.6Z</time></trkpt><trkpt lat="44.67734" lon="9.3150317"><ele>667.0</ele><time>2026-04-04T08:59:14.601Z</time></trkpt><trkpt lat="44.6773383" lon="9.3151433"><ele>668.0</ele><time>2026-04-04T08:59:15.6Z</time></trkpt><trkpt lat="44.677335" lon="9.3152667"><ele>669.0</ele><time>2026-04-04T08:59:16.6Z</time></trkpt><trkpt lat="44.6773267" lon="9.3154233"><ele>670.0</ele><time>2026-04-04T08:59:17.602Z</time></trkpt><trkpt lat="44.67732" lon="9.315565"><ele>670.6</ele><time>2026-04-04T08:59:18.601Z</time></trkpt><trkpt lat="44.6773117" lon="9.3156967"><ele>671.2</ele><time>2026-04-04T08:59:19.6Z</time></trkpt><trkpt lat="44.6772917" lon="9.3158283"><ele>671.8</ele><time>2026-04-04T08:59:20.602Z</time></trkpt><trkpt lat="44.6772483" lon="9.3159533"><ele>672.4</ele><time>2026-04-04T08:59:21.602Z</time></trkpt><trkpt lat="44.6771967" lon="9.31607"><ele>673.0</ele><time>2026-04-04T08:59:22.603Z</time></trkpt><trkpt lat="44.6771417" lon="9.3161833"><ele>673.0</ele><time>2026-04-04T08:59:23.603Z</time></trkpt><trkpt lat="44.6770867" lon="9.3162933"><ele>673.0</ele><time>2026-04-04T08:59:24.602Z</time></trkpt><trkpt lat="44.6770417" lon="9.31641"><ele>673.0</ele><time>2026-04-04T08:59:25.603Z</time></trkpt><trkpt lat="44.6770117" lon="9.3165283"><ele>673.0</ele><time>2026-04-04T08:59:26.603Z</time></trkpt><trkpt lat="44.676995" lon="9.3166517"><ele>673.0</ele><time>2026-04-04T08:59:27.6Z</time></trkpt><trkpt lat="44.67699" lon="9.316785"><ele>673.2</ele><time>2026-04-04T08:59:28.6Z</time></trkpt><trkpt lat="44.67698" lon="9.3169217"><ele>673.4</ele><time>2026-04-04T08:59:29.601Z</time></trkpt><trkpt lat="44.6769567" lon="9.3170567"><ele>673.6</ele><time>2026-04-04T08:59:30.602Z</time></trkpt><trkpt lat="44.6769167" lon="9.31719"><ele>673.8000000000001</ele><time>2026-04-04T08:59:31.603Z</time></trkpt><trkpt lat="44.6768567" lon="9.31731"><ele>674.0</ele><time>2026-04-04T08:59:32.6Z</time></trkpt><trkpt lat="44.676785" lon="9.3174167"><ele>678.0</ele><time>2026-04-04T08:59:33.6Z</time></trkpt><trkpt lat="44.6767167" lon="9.3175267"><ele>682.0</ele><time>2026-04-04T08:59:34.6Z</time></trkpt><trkpt lat="44.6766583" lon="9.3176433"><ele>686.0</ele><time>2026-04-04T08:59:35.602Z</time></trkpt><trkpt lat="44.6766167" lon="9.317775"><ele>690.0</ele><time>2026-04-04T08:59:36.601Z</time></trkpt><trkpt lat="44.6765983" lon="9.3179283"><ele>694.0</ele><time>2026-04-04T08:59:37.601Z</time></trkpt><trkpt lat="44.6765983" lon="9.3180833"><ele>695.4000000000001</ele><time>2026-04-04T08:59:38.6Z</time></trkpt><trkpt lat="44.6766" lon="9.31822"><ele>696.8</ele><time>2026-04-04T08:59:39.601Z</time></trkpt><trkpt lat="44.6766017" lon="9.318345"><ele>698.2</ele><time>2026-04-04T08:59:40.6Z</time></trkpt><trkpt lat="44.676585" lon="9.3184717"><ele>699.5999999999999</ele><time>2026-04-04T08:59:41.604Z</time></trkpt><trkpt lat="44.6765467" lon="9.3185983"><ele>701.0</ele><time>2026-04-04T08:59:42.601Z</time></trkpt><trkpt lat="44.6765033" lon="9.318715"><ele>701.0</ele><time>2026-04-04T08:59:43.602Z</time></trkpt><trkpt lat="44.67646" lon="9.3188033"><ele>701.0</ele><time>2026-04-04T08:59:44.601Z</time></trkpt><trkpt lat="44.6764083" lon="9.318855"><ele>701.0</ele><time>2026-04-04T08:59:45.602Z</time></trkpt><trkpt lat="44.67634" lon="9.31888"><ele>701.0</ele><time>2026-04-04T08:59:46.603Z</time></trkpt><trkpt lat="44.6762467" lon="9.3189117"><ele>701.0</ele><time>2026-04-04T08:59:47.602Z</time></trkpt><trkpt lat="44.6761433" lon="9.31897"><ele>701.0</ele><time>2026-04-04T08:59:48.601Z</time></trkpt><trkpt lat="44.6760433" lon="9.31905"><ele>704.5999999999999</ele><time>2026-04-04T08:59:49.602Z</time></trkpt><trkpt lat="44.67595" lon="9.3191317"><ele>708.2</ele><time>2026-04-04T08:59:50.604Z</time></trkpt><trkpt lat="44.6758633" lon="9.3191967"><ele>711.8</ele><time>2026-04-04T08:59:51.602Z</time></trkpt><trkpt lat="44.6757833" lon="9.3192467"><ele>715.4000000000001</ele><time>2026-04-04T08:59:52.603Z</time></trkpt><trkpt lat="44.6757067" lon="9.31929"><ele>719.0</ele><time>2026-04-04T08:59:53.602Z</time></trkpt><trkpt lat="44.6756267" lon="9.319335"><ele>719.0</ele><time>2026-04-04T08:59:54.601Z</time></trkpt><trkpt lat="44.6755533" lon="9.3194017"><ele>719.0</ele><time>2026-04-04T08:59:55.6Z</time></trkpt><trkpt lat="44.6754817" lon="9.319485"><ele>719.0</ele><time>2026-04-04T08:59:56.601Z</time></trkpt><trkpt lat="44.6754067" lon="9.319575"><ele>719.0</ele><time>2026-04-04T08:59:57.601Z</time></trkpt><trkpt lat="44.67534" lon="9.3196617"><ele>719.0</ele><time>2026-04-04T08:59:58.6Z</time></trkpt><trkpt lat="44.6752933" lon="9.3197483"><ele>719.0</ele><time>2026-04-04T08:59:59.601Z</time></trkpt><trkpt lat="44.675265" lon="9.3198533"><ele>718.6666666666666</ele><time>2026-04-04T09:00:00.602Z</time></trkpt><trkpt lat="44.675245" lon="9.3199683"><ele>718.3333333333333</ele><time>2026-04-04T09:00:01.6Z</time></trkpt><trkpt lat="44.6752267" lon="9.3200917"><ele>718.0</ele><time>2026-04-04T09:00:02.602Z</time></trkpt><trkpt lat="44.6752267" lon="9.3202067"><ele>717.6666666666666</ele><time>2026-04-04T09:00:03.601Z</time></trkpt><trkpt lat="44.6752483" lon="9.3203217"><ele>717.3333333333334</ele><time>2026-04-04T09:00:04.602Z</time></trkpt><trkpt lat="44.67529" lon="9.3204467"><ele>717.0</ele><time>2026-04-04T09:00:05.602Z</time></trkpt><trkpt lat="44.6753183" lon="9.3205733"><ele>716.5</ele><time>2026-04-04T09:00:06.602Z</time></trkpt><trkpt lat="44.6753267" lon="9.3206883"><ele>716.0</ele><time>2026-04-04T09:00:07.601Z</time></trkpt><trkpt lat="44.6753117" lon="9.3207867"><ele>715.5</ele><time>2026-04-04T09:00:08.601Z</time></trkpt><trkpt lat="44.6752517" lon="9.3209183"><ele>715.0</ele><time>2026-04-04T09:00:10.601Z</time></trkpt><trkpt lat="44.6752033" lon="9.32099"><ele>714.5</ele><time>2026-04-04T09:00:12.603Z</time></trkpt><trkpt lat="44.675155" lon="9.3210717"><ele>714.0</ele><time>2026-04-04T09:00:21.601Z</time></trkpt><trkpt lat="44.6751" lon="9.3211733"><ele>717.0</ele><time>2026-04-04T09:00:23.602Z</time></trkpt><trkpt lat="44.6750167" lon="9.3212733"><ele>720.0</ele><time>2026-04-04T09:00:25.6Z</time></trkpt><trkpt lat="44.674935" lon="9.3214067"><ele>723.0</ele><time>2026-04-04T09:00:27.6Z</time></trkpt><trkpt lat="44.6749117" lon="9.32149"><ele>726.0</ele><time>2026-04-04T09:00:28.6Z</time></trkpt><trkpt lat="44.6748833" lon="9.321615"><ele>729.0</ele><time>2026-04-04T09:00:30.603Z</time></trkpt><trkpt lat="44.6748083" lon="9.32167"><ele>729.6666666666666</ele><time>2026-04-04T09:00:33.603Z</time></trkpt><trkpt lat="44.6747367" lon="9.321675"><ele>730.3333333333334</ele><time>2026-04-04T09:00:35.601Z</time></trkpt><trkpt lat="44.6746717" lon="9.3217133"><ele>731.0</ele><time>2026-04-04T09:00:37.602Z</time></trkpt><trkpt lat="44.6746133" lon="9.3217967"><ele>731.6666666666667</ele><time>2026-04-04T09:00:39.601Z</time></trkpt><trkpt lat="44.6745517" lon="9.32185"><ele>732.3333333333334</ele><time>2026-04-04T09:00:41.604Z</time></trkpt><trkpt lat="44.6744683" lon="9.3218483"><ele>733.0</ele><time>2026-04-04T09:00:43.6Z</time></trkpt><trkpt lat="44.6743733" lon="9.3218217"><ele>736.8333333333334</ele><time>2026-04-04T09:00:45.601Z</time></trkpt><trkpt lat="44.67429" lon="9.3217917"><ele>740.6666666666667</ele><time>2026-04-04T09:00:47.602Z</time></trkpt><trkpt lat="44.674204" lon="9.321804"><ele>744.5</ele><time>2026-04-04T09:00:49.6Z</time></trkpt><trkpt lat="44.6741502" lon="9.3218696"><ele>748.3333333333334</ele><time>2026-04-04T09:00:51.579Z</time></trkpt><trkpt lat="44.6740839" lon="9.3219125"><ele>752.1666666666666</ele><time>2026-04-04T09:00:53.621Z</time></trkpt><trkpt lat="44.6740158" lon="9.3219365"><ele>756.0</ele><time>2026-04-04T09:00:55.606Z</time></trkpt><trkpt lat="44.6739578" lon="9.3220496"><ele>756.0</ele><time>2026-04-04T09:00:57.703Z</time></trkpt><trkpt lat="44.6739615" lon="9.3221597"><ele>756.0</ele><time>2026-04-04T09:00:59.662Z</time></trkpt><trkpt lat="44.6739824" lon="9.3222633"><ele>756.0</ele><time>2026-04-04T09:01:01.64Z</time></trkpt><trkpt lat="44.6739039" lon="9.3223293"><ele>756.0</ele><time>2026-04-04T09:01:03.701Z</time></trkpt><trkpt lat="44.673829" lon="9.3224762"><ele>756.0</ele><time>2026-04-04T09:01:05.603Z</time></trkpt><trkpt lat="44.6737967" lon="9.3226361"><ele>757.5999999999999</ele><time>2026-04-04T09:01:07.602Z</time></trkpt><trkpt lat="44.6737889" lon="9.322724"><ele>759.2</ele><time>2026-04-04T09:01:08.604Z</time></trkpt><trkpt lat="44.6737468" lon="9.3228724"><ele>760.8</ele><time>2026-04-04T09:01:10.602Z</time></trkpt><trkpt lat="44.6737051" lon="9.3229974"><ele>762.4000000000001</ele><time>2026-04-04T09:01:12.602Z</time></trkpt><trkpt lat="44.6737164" lon="9.32312"><ele>764.0</ele><time>2026-04-04T09:01:14.601Z</time></trkpt><trkpt lat="44.6737433" lon="9.3232977"><ele>765.5714285714286</ele><time>2026-04-04T09:01:16.601Z</time></trkpt><trkpt lat="44.6737557" lon="9.3233932"><ele>767.1428571428571</ele><time>2026-04-04T09:01:17.602Z</time></trkpt><trkpt lat="44.6737653" lon="9.3234916"><ele>768.7142857142857</ele><time>2026-04-04T09:01:18.602Z</time></trkpt><trkpt lat="44.673775" lon="9.3235905"><ele>770.2857142857142</ele><time>2026-04-04T09:01:19.603Z</time></trkpt><trkpt lat="44.673785" lon="9.3236829"><ele>771.8571428571429</ele><time>2026-04-04T09:01:20.602Z</time></trkpt><trkpt lat="44.673803" lon="9.3237735"><ele>773.4285714285713</ele><time>2026-04-04T09:01:21.603Z</time></trkpt><trkpt lat="44.673836" lon="9.3238611"><ele>775.0</ele><time>2026-04-04T09:01:22.603Z</time></trkpt><trkpt lat="44.6738822" lon="9.3239476"><ele>776.4285714285713</ele><time>2026-04-04T09:01:23.604Z</time></trkpt><trkpt lat="44.6739288" lon="9.3240289"><ele>777.8571428571429</ele><time>2026-04-04T09:01:24.601Z</time></trkpt><trkpt lat="44.6739754" lon="9.3241203"><ele>779.2857142857142</ele><time>2026-04-04T09:01:25.601Z</time></trkpt><trkpt lat="44.6740199" lon="9.3242082"><ele>780.7142857142857</ele><time>2026-04-04T09:01:26.601Z</time></trkpt><trkpt lat="44.6740556" lon="9.3243029"><ele>782.1428571428571</ele><time>2026-04-04T09:01:27.601Z</time></trkpt><trkpt lat="44.6740766" lon="9.3243906"><ele>783.5714285714286</ele><time>2026-04-04T09:01:28.602Z</time></trkpt><trkpt lat="44.674093" lon="9.3244797"><ele>785.0</ele><time>2026-04-04T09:01:29.603Z</time></trkpt><trkpt lat="44.674108" lon="9.3246514"><ele>786.3333333333334</ele><time>2026-04-04T09:01:31.603Z</time></trkpt><trkpt lat="44.6741031" lon="9.3248246"><ele>787.6666666666667</ele><time>2026-04-04T09:01:33.603Z</time></trkpt><trkpt lat="44.6741052" lon="9.3249244"><ele>789.0</ele><time>2026-04-04T09:01:34.602Z</time></trkpt><trkpt lat="44.6741136" lon="9.3250323"><ele>790.3333333333333</ele><time>2026-04-04T09:01:35.602Z</time></trkpt><trkpt lat="44.6741169" lon="9.3251505"><ele>791.6666666666666</ele><time>2026-04-04T09:01:36.603Z</time></trkpt><trkpt lat="44.6741214" lon="9.3252606"><ele>793.0</ele><time>2026-04-04T09:01:37.603Z</time></trkpt><trkpt lat="44.6741266" lon="9.325384"><ele>792.9999999999999</ele><time>2026-04-04T09:01:38.604Z</time></trkpt><trkpt lat="44.6741342" lon="9.3255067"><ele>793.0</ele><time>2026-04-04T09:01:39.602Z</time></trkpt><trkpt lat="44.6741417" lon="9.3256331"><ele>793.0</ele><time>2026-04-04T09:01:40.604Z</time></trkpt><trkpt lat="44.6741519" lon="9.3257523"><ele>793.0</ele><time>2026-04-04T09:01:41.602Z</time></trkpt><trkpt lat="44.6741712" lon="9.3258622"><ele>792.9999999999999</ele><time>2026-04-04T09:01:42.603Z</time></trkpt><trkpt lat="44.674185" lon="9.3259596"><ele>793.0</ele><time>2026-04-04T09:01:43.602Z</time></trkpt><trkpt lat="44.6741704" lon="9.3260974"><ele>793.9999999999999</ele><time>2026-04-04T09:01:45.601Z</time></trkpt><trkpt lat="44.6741144" lon="9.3262166"><ele>795.0</ele><time>2026-04-04T09:01:47.6Z</time></trkpt><trkpt lat="44.6740393" lon="9.3262455"><ele>796.0</ele><time>2026-04-04T09:01:50.603Z</time></trkpt><trkpt lat="44.6739381" lon="9.3261898"><ele>797.0</ele><time>2026-04-04T09:02:48.601Z</time></trkpt><trkpt lat="44.6738783" lon="9.3261567"><ele>797.9999999999999</ele><time>2026-04-04T09:02:49.601Z</time></trkpt><trkpt lat="44.67382" lon="9.3261117"><ele>799.0</ele><time>2026-04-04T09:02:50.601Z</time></trkpt><trkpt lat="44.6737667" lon="9.3260567"><ele>798.9999999999999</ele><time>2026-04-04T09:02:51.601Z</time></trkpt><trkpt lat="44.6737017" lon="9.326"><ele>799.0</ele><time>2026-04-04T09:02:52.602Z</time></trkpt><trkpt lat="44.673625" lon="9.3259583"><ele>799.0</ele><time>2026-04-04T09:02:53.6Z</time></trkpt><trkpt lat="44.673535" lon="9.325945"><ele>799.0</ele><time>2026-04-04T09:02:54.603Z</time></trkpt><trkpt lat="44.673445" lon="9.3259333"><ele>798.9999999999999</ele><time>2026-04-04T09:02:55.601Z</time></trkpt><trkpt lat="44.6733717" lon="9.32593"><ele>799.0</ele><time>2026-04-04T09:02:56.602Z</time></trkpt><trkpt lat="44.6732983" lon="9.3259433"><ele>800.1666666666666</ele><time>2026-04-04T09:02:57.601Z</time></trkpt><trkpt lat="44.673225" lon="9.3260017"><ele>801.3333333333333</ele><time>2026-04-04T09:02:58.601Z</time></trkpt><trkpt lat="44.6731583" lon="9.3260783"><ele>802.5</ele><time>2026-04-04T09:02:59.601Z</time></trkpt><trkpt lat="44.67311" lon="9.3261567"><ele>803.6666666666667</ele><time>2026-04-04T09:03:00.602Z</time></trkpt><trkpt lat="44.67309" lon="9.3262567"><ele>804.8333333333334</ele><time>2026-04-04T09:03:01.601Z</time></trkpt><trkpt lat="44.6730767" lon="9.3263567"><ele>806.0</ele><time>2026-04-04T09:03:02.606Z</time></trkpt><trkpt lat="44.6730783" lon="9.326495"><ele>807.1666666666667</ele><time>2026-04-04T09:03:03.6Z</time></trkpt><trkpt lat="44.6730667" lon="9.3266167"><ele>808.3333333333334</ele><time>2026-04-04T09:03:04.601Z</time></trkpt><trkpt lat="44.67305" lon="9.3267383"><ele>809.5</ele><time>2026-04-04T09:03:05.601Z</time></trkpt><trkpt lat="44.6730217" lon="9.32684"><ele>810.6666666666667</ele><time>2026-04-04T09:03:06.601Z</time></trkpt><trkpt lat="44.672975" lon="9.326925"><ele>811.8333333333334</ele><time>2026-04-04T09:03:07.602Z</time></trkpt><trkpt lat="44.67289" lon="9.3270367"><ele>813.0</ele><time>2026-04-04T09:03:09.602Z</time></trkpt><trkpt lat="44.6727867" lon="9.3269917"><ele>815.0</ele><time>2026-04-04T09:03:11.602Z</time></trkpt><trkpt lat="44.6726933" lon="9.326975"><ele>817.0</ele><time>2026-04-04T09:03:13.603Z</time></trkpt><trkpt lat="44.67259" lon="9.3269817"><ele>819.0</ele><time>2026-04-04T09:03:15.601Z</time></trkpt><trkpt lat="44.6725267" lon="9.3269283"><ele>821.0</ele><time>2026-04-04T09:03:17.601Z</time></trkpt><trkpt lat="44.6724867" lon="9.326855"><ele>823.0</ele><time>2026-04-04T09:03:19.602Z</time></trkpt><trkpt lat="44.6724483" lon="9.3267833"><ele>825.0</ele><time>2026-04-04T09:03:21.602Z</time></trkpt><trkpt lat="44.672365" lon="9.326705"><ele>825.0</ele><time>2026-04-04T09:03:23.603Z</time></trkpt><trkpt lat="44.6722333" lon="9.3266483"><ele>825.0</ele><time>2026-04-04T09:03:25.605Z</time></trkpt><trkpt lat="44.6721633" lon="9.326605"><ele>825.0</ele><time>2026-04-04T09:03:26.604Z</time></trkpt><trkpt lat="44.6721017" lon="9.3265567"><ele>825.0</ele><time>2026-04-04T09:03:27.603Z</time></trkpt><trkpt lat="44.6720117" lon="9.32646"><ele>825.0</ele><time>2026-04-04T09:03:29.602Z</time></trkpt><trkpt lat="44.67189" lon="9.3264317"><ele>825.5714285714286</ele><time>2026-04-04T09:03:31.603Z</time></trkpt><trkpt lat="44.671815" lon="9.3264117"><ele>826.1428571428572</ele><time>2026-04-04T09:03:32.602Z</time></trkpt><trkpt lat="44.6717533" lon="9.32638"><ele>826.7142857142858</ele><time>2026-04-04T09:03:33.6Z</time></trkpt><trkpt lat="44.6716983" lon="9.3263317"><ele>827.2857142857142</ele><time>2026-04-04T09:03:34.601Z</time></trkpt><trkpt lat="44.6716483" lon="9.32627"><ele>827.8571428571429</ele><time>2026-04-04T09:03:35.601Z</time></trkpt><trkpt lat="44.6716017" lon="9.3261883"><ele>828.4285714285714</ele><time>2026-04-04T09:03:36.601Z</time></trkpt><trkpt lat="44.671585" lon="9.3260833"><ele>829.0</ele><time>2026-04-04T09:03:37.6Z</time></trkpt><trkpt lat="44.6715633" lon="9.3259883"><ele>828.9999999999999</ele><time>2026-04-04T09:03:38.602Z</time></trkpt><trkpt lat="44.6715467" lon="9.3258317"><ele>829.0</ele><time>2026-04-04T09:03:40.601Z</time></trkpt><trkpt lat="44.6715133" lon="9.3257467"><ele>829.0</ele><time>2026-04-04T09:03:41.6Z</time></trkpt><trkpt lat="44.6714617" lon="9.32568"><ele>829.0</ele><time>2026-04-04T09:03:42.6Z</time></trkpt><trkpt lat="44.6713933" lon="9.3256267"><ele>828.9999999999999</ele><time>2026-04-04T09:03:43.601Z</time></trkpt><trkpt lat="44.67132" lon="9.3255867"><ele>829.0</ele><time>2026-04-04T09:03:44.602Z</time></trkpt><trkpt lat="44.67125" lon="9.3255633"><ele>828.9999999999999</ele><time>2026-04-04T09:03:45.601Z</time></trkpt><trkpt lat="44.6711767" lon="9.3255317"><ele>829.0</ele><time>2026-04-04T09:03:46.601Z</time></trkpt><trkpt lat="44.6711017" lon="9.3254933"><ele>829.0</ele><time>2026-04-04T09:03:47.601Z</time></trkpt><trkpt lat="44.6710183" lon="9.3254433"><ele>829.0</ele><time>2026-04-04T09:03:48.601Z</time></trkpt><trkpt lat="44.6709317" lon="9.3253833"><ele>828.9999999999999</ele><time>2026-04-04T09:03:49.6Z</time></trkpt><trkpt lat="44.670855" lon="9.325315"><ele>829.0</ele><time>2026-04-04T09:03:50.602Z</time></trkpt><trkpt lat="44.67078" lon="9.3252383"><ele>828.9999999999999</ele><time>2026-04-04T09:03:51.601Z</time></trkpt><trkpt lat="44.6707083" lon="9.325165"><ele>829.0</ele><time>2026-04-04T09:03:52.603Z</time></trkpt><trkpt lat="44.6706467" lon="9.325085"><ele>829.0</ele><time>2026-04-04T09:03:53.602Z</time></trkpt><trkpt lat="44.6706" lon="9.3250133"><ele>829.0</ele><time>2026-04-04T09:03:54.602Z</time></trkpt><trkpt lat="44.6705617" lon="9.3249367"><ele>828.9999999999999</ele><time>2026-04-04T09:03:55.603Z</time></trkpt><trkpt lat="44.67048" lon="9.3248417"><ele>829.0</ele><time>2026-04-04T09:03:57.602Z</time></trkpt><trkpt lat="44.67036" lon="9.3248283"><ele>829.0</ele><time>2026-04-04T09:03:59.606Z</time></trkpt><trkpt lat="44.6702933" lon="9.3248367"><ele>829.0</ele><time>2026-04-04T09:04:00.601Z</time></trkpt><trkpt lat="44.6701767" lon="9.32486"><ele>829.0</ele><time>2026-04-04T09:04:02.601Z</time></trkpt><trkpt lat="44.6700967" lon="9.32482"><ele>829.0</ele><time>2026-04-04T09:04:04.601Z</time></trkpt><trkpt lat="44.6700133" lon="9.324725"><ele>829.0</ele><time>2026-04-04T09:04:06.601Z</time></trkpt><trkpt lat="44.6699567" lon="9.3246033"><ele>829.4000000000001</ele><time>2026-04-04T09:04:08.603Z</time></trkpt><trkpt lat="44.6699833" lon="9.324435"><ele>829.8</ele><time>2026-04-04T09:04:10.603Z</time></trkpt><trkpt lat="44.6700167" lon="9.3243217"><ele>830.2</ele><time>2026-04-04T09:04:11.603Z</time></trkpt><trkpt lat="44.670025" lon="9.3242233"><ele>830.5999999999999</ele><time>2026-04-04T09:04:12.6Z</time></trkpt><trkpt lat="44.67001" lon="9.3241367"><ele>831.0</ele><time>2026-04-04T09:04:13.6Z</time></trkpt><trkpt lat="44.6699817" lon="9.323955"><ele>830.1666666666666</ele><time>2026-04-04T09:04:15.6Z</time></trkpt><trkpt lat="44.669955" lon="9.3238533"><ele>829.3333333333333</ele><time>2026-04-04T09:04:16.6Z</time></trkpt><trkpt lat="44.6699167" lon="9.3237483"><ele>828.5</ele><time>2026-04-04T09:04:17.6Z</time></trkpt><trkpt lat="44.6698717" lon="9.32364"><ele>827.6666666666666</ele><time>2026-04-04T09:04:18.601Z</time></trkpt><trkpt lat="44.66982" lon="9.3235417"><ele>826.8333333333333</ele><time>2026-04-04T09:04:19.601Z</time></trkpt><trkpt lat="44.6697683" lon="9.323465"><ele>826.0</ele><time>2026-04-04T09:04:20.603Z</time></trkpt><trkpt lat="44.6696583" lon="9.3233817"><ele>826.0</ele><time>2026-04-04T09:04:22.599Z</time></trkpt><trkpt lat="44.6695733" lon="9.32337"><ele>826.0</ele><time>2026-04-04T09:04:23.6Z</time></trkpt><trkpt lat="44.669475" lon="9.3233517"><ele>826.0</ele><time>2026-04-04T09:04:24.602Z</time></trkpt><trkpt lat="44.6693767" lon="9.3233217"><ele>826.0</ele><time>2026-04-04T09:04:25.6Z</time></trkpt><trkpt lat="44.6692883" lon="9.3232783"><ele>826.0</ele><time>2026-04-04T09:04:26.6Z</time></trkpt><trkpt lat="44.669205" lon="9.3232217"><ele>827.0</ele><time>2026-04-04T09:04:27.602Z</time></trkpt><trkpt lat="44.6691067" lon="9.3231717"><ele>828.0</ele><time>2026-04-04T09:04:28.601Z</time></trkpt><trkpt lat="44.6690133" lon="9.3231217"><ele>829.0</ele><time>2026-04-04T09:04:29.601Z</time></trkpt><trkpt lat="44.6689367" lon="9.3230617"><ele>830.0</ele><time>2026-04-04T09:04:30.6Z</time></trkpt><trkpt lat="44.6688617" lon="9.3229833"><ele>831.0</ele><time>2026-04-04T09:04:31.601Z</time></trkpt><trkpt lat="44.6688033" lon="9.3229117"><ele>831.0</ele><time>2026-04-04T09:04:32.602Z</time></trkpt><trkpt lat="44.668755" lon="9.3228417"><ele>831.0</ele><time>2026-04-04T09:04:34.602Z</time></trkpt><trkpt lat="44.6686617" lon="9.3227983"><ele>831.0</ele><time>2026-04-04T09:04:58.601Z</time></trkpt><trkpt lat="44.6685367" lon="9.3228217"><ele>831.0</ele><time>2026-04-04T09:05:00.601Z</time></trkpt><trkpt lat="44.66846" lon="9.32284"><ele>831.0</ele><time>2026-04-04T09:05:01.599Z</time></trkpt><trkpt lat="44.6683867" lon="9.32285"><ele>831.0</ele><time>2026-04-04T09:05:02.601Z</time></trkpt><trkpt lat="44.6683117" lon="9.32285"><ele>831.7142857142857</ele><time>2026-04-04T09:05:03.601Z</time></trkpt><trkpt lat="44.6682433" lon="9.3228433"><ele>832.4285714285714</ele><time>2026-04-04T09:05:04.6Z</time></trkpt><trkpt lat="44.668175" lon="9.3228517"><ele>833.1428571428571</ele><time>2026-04-04T09:05:05.6Z</time></trkpt><trkpt lat="44.6681133" lon="9.3228733"><ele>833.8571428571429</ele><time>2026-04-04T09:05:06.601Z</time></trkpt><trkpt lat="44.66806" lon="9.3229267"><ele>834.5714285714286</ele><time>2026-04-04T09:05:07.601Z</time></trkpt><trkpt lat="44.6680067" lon="9.322975"><ele>835.2857142857142</ele><time>2026-04-04T09:05:08.601Z</time></trkpt><trkpt lat="44.6679333" lon="9.32308"><ele>836.0</ele><time>2026-04-04T09:05:10.6Z</time></trkpt><trkpt lat="44.6679433" lon="9.32327"><ele>837.5000000000001</ele><time>2026-04-04T09:05:12.6Z</time></trkpt><trkpt lat="44.6679333" lon="9.3233633"><ele>839.0</ele><time>2026-04-04T09:05:13.6Z</time></trkpt><trkpt lat="44.667905" lon="9.3234583"><ele>840.5</ele><time>2026-04-04T09:05:14.602Z</time></trkpt><trkpt lat="44.6678733" lon="9.323565"><ele>842.0</ele><time>2026-04-04T09:05:15.6Z</time></trkpt><trkpt lat="44.6678317" lon="9.32369"><ele>843.5000000000001</ele><time>2026-04-04T09:05:16.601Z</time></trkpt><trkpt lat="44.6677833" lon="9.32381"><ele>845.0</ele><time>2026-04-04T09:05:17.601Z</time></trkpt><trkpt lat="44.6677283" lon="9.3239317"><ele>848.1666666666667</ele><time>2026-04-04T09:05:18.599Z</time></trkpt><trkpt lat="44.667675" lon="9.3240417"><ele>851.3333333333334</ele><time>2026-04-04T09:05:19.601Z</time></trkpt><trkpt lat="44.6676283" lon="9.3241417"><ele>854.5</ele><time>2026-04-04T09:05:20.603Z</time></trkpt><trkpt lat="44.66758" lon="9.3242267"><ele>857.6666666666667</ele><time>2026-04-04T09:05:21.602Z</time></trkpt><trkpt lat="44.6675317" lon="9.3243033"><ele>860.8333333333334</ele><time>2026-04-04T09:05:22.602Z</time></trkpt><trkpt lat="44.6674667" lon="9.3243917"><ele>864.0</ele><time>2026-04-04T09:05:23.601Z</time></trkpt><trkpt lat="44.6673933" lon="9.3244667"><ele>864.0</ele><time>2026-04-04T09:05:24.602Z</time></trkpt><trkpt lat="44.6673267" lon="9.32454"><ele>864.0</ele><time>2026-04-04T09:05:25.602Z</time></trkpt><trkpt lat="44.6672667" lon="9.3246117"><ele>864.0</ele><time>2026-04-04T09:05:26.602Z</time></trkpt><trkpt lat="44.6672133" lon="9.324685"><ele>864.0</ele><time>2026-04-04T09:05:27.602Z</time></trkpt><trkpt lat="44.667155" lon="9.32476"><ele>864.0</ele><time>2026-04-04T09:05:28.603Z</time></trkpt><trkpt lat="44.6671033" lon="9.324825"><ele>864.0</ele><time>2026-04-04T09:05:29.602Z</time></trkpt><trkpt lat="44.6670417" lon="9.3248783"><ele>865.6</ele><time>2026-04-04T09:05:30.601Z</time></trkpt><trkpt lat="44.666965" lon="9.3249333"><ele>867.2</ele><time>2026-04-04T09:05:31.602Z</time></trkpt><trkpt lat="44.6668967" lon="9.3249617"><ele>868.8000000000001</ele><time>2026-04-04T09:05:32.602Z</time></trkpt><trkpt lat="44.6667883" lon="9.32502"><ele>870.4000000000001</ele><time>2026-04-04T09:05:34.6Z</time></trkpt><trkpt lat="44.6667067" lon="9.325055"><ele>872.0</ele><time>2026-04-04T09:05:36.601Z</time></trkpt><trkpt lat="44.6666267" lon="9.3251567"><ele>872.0000000000001</ele><time>2026-04-04T09:05:38.603Z</time></trkpt><trkpt lat="44.6665583" lon="9.3253183"><ele>872.0</ele><time>2026-04-04T09:05:40.6Z</time></trkpt><trkpt lat="44.6665067" lon="9.3254083"><ele>872.0</ele><time>2026-04-04T09:05:41.599Z</time></trkpt><trkpt lat="44.6664567" lon="9.3254883"><ele>872.0</ele><time>2026-04-04T09:05:42.6Z</time></trkpt><trkpt lat="44.6664117" lon="9.3255733"><ele>872.0000000000001</ele><time>2026-04-04T09:05:43.6Z</time></trkpt><trkpt lat="44.6663717" lon="9.32566"><ele>872.0</ele><time>2026-04-04T09:05:44.601Z</time></trkpt><trkpt lat="44.666335" lon="9.3257533"><ele>872.4000000000001</ele><time>2026-04-04T09:05:45.601Z</time></trkpt><trkpt lat="44.6662667" lon="9.3258817"><ele>872.8000000000001</ele><time>2026-04-04T09:05:47.602Z</time></trkpt><trkpt lat="44.6662317" lon="9.3259683"><ele>873.2</ele><time>2026-04-04T09:05:49.602Z</time></trkpt><trkpt lat="44.6662017" lon="9.3260617"><ele>873.6</ele><time>2026-04-04T09:05:51.601Z</time></trkpt><trkpt lat="44.6661183" lon="9.3261067"><ele>874.0</ele><time>2026-04-04T09:05:54.601Z</time></trkpt><trkpt lat="44.665995" lon="9.3260717"><ele>874.0</ele><time>2026-04-04T09:05:56.601Z</time></trkpt><trkpt lat="44.6658717" lon="9.3260933"><ele>874.0000000000001</ele><time>2026-04-04T09:05:58.599Z</time></trkpt><trkpt lat="44.6657933" lon="9.3261517"><ele>874.0000000000001</ele><time>2026-04-04T09:05:59.6Z</time></trkpt><trkpt lat="44.665705" lon="9.3262"><ele>874.0</ele><time>2026-04-04T09:06:00.6Z</time></trkpt><trkpt lat="44.6656317" lon="9.3262217"><ele>874.0</ele><time>2026-04-04T09:06:01.601Z</time></trkpt><trkpt lat="44.66552" lon="9.3262533"><ele>874.0</ele><time>2026-04-04T09:06:03.6Z</time></trkpt><trkpt lat="44.6654117" lon="9.3263267"><ele>874.0000000000001</ele><time>2026-04-04T09:06:05.6Z</time></trkpt><trkpt lat="44.6652983" lon="9.3263533"><ele>874.0000000000001</ele><time>2026-04-04T09:06:07.6Z</time></trkpt><trkpt lat="44.6651683" lon="9.3263867"><ele>874.0</ele><time>2026-04-04T09:06:09.602Z</time></trkpt><trkpt lat="44.6650967" lon="9.3264167"><ele>874.0</ele><time>2026-04-04T09:06:10.602Z</time></trkpt><trkpt lat="44.6650317" lon="9.326455"><ele>877.9999999999999</ele><time>2026-04-04T09:06:11.602Z</time></trkpt><trkpt lat="44.6649733" lon="9.3264983"><ele>882.0</ele><time>2026-04-04T09:06:12.601Z</time></trkpt><trkpt lat="44.6648967" lon="9.326565"><ele>886.0</ele><time>2026-04-04T09:06:14.6Z</time></trkpt><trkpt lat="44.6648217" lon="9.3266017"><ele>890.0</ele><time>2026-04-04T09:06:16.6Z</time></trkpt><trkpt lat="44.664751" lon="9.3266325"><ele>893.9999999999999</ele><time>2026-04-04T09:06:18.599Z</time></trkpt><trkpt lat="44.6646781" lon="9.3266617"><ele>898.0</ele><time>2026-04-04T09:06:21.6Z</time></trkpt><trkpt lat="44.6646107" lon="9.3266034"><ele>898.0</ele><time>2026-04-04T09:06:25.669Z</time></trkpt><trkpt lat="44.6645674" lon="9.326508"><ele>898.0</ele><time>2026-04-04T09:06:27.645Z</time></trkpt><trkpt lat="44.6645249" lon="9.3264094"><ele>898.0</ele><time>2026-04-04T09:06:28.685Z</time></trkpt><trkpt lat="44.6645062" lon="9.3262704"><ele>898.0</ele><time>2026-04-04T09:06:30.695Z</time></trkpt><trkpt lat="44.6643799" lon="9.3263971"><ele>898.0</ele><time>2026-04-04T09:06:36.6Z</time></trkpt><trkpt lat="44.664306" lon="9.3264747"><ele>899.1666666666666</ele><time>2026-04-04T09:06:37.601Z</time></trkpt><trkpt lat="44.664242" lon="9.326572"><ele>900.3333333333333</ele><time>2026-04-04T09:06:38.6Z</time></trkpt><trkpt lat="44.6641818" lon="9.3266691"><ele>901.5</ele><time>2026-04-04T09:06:39.601Z</time></trkpt><trkpt lat="44.6641222" lon="9.3267609"><ele>902.6666666666667</ele><time>2026-04-04T09:06:40.599Z</time></trkpt><trkpt lat="44.6640616" lon="9.3268259"><ele>903.8333333333334</ele><time>2026-04-04T09:06:41.6Z</time></trkpt><trkpt lat="44.6639956" lon="9.326867"><ele>905.0</ele><time>2026-04-04T09:06:42.599Z</time></trkpt><trkpt lat="44.6639154" lon="9.3268987"><ele>905.0000000000001</ele><time>2026-04-04T09:06:43.601Z</time></trkpt><trkpt lat="44.6638311" lon="9.3269315"><ele>905.0</ele><time>2026-04-04T09:06:44.6Z</time></trkpt><trkpt lat="44.6637526" lon="9.3269707"><ele>905.0</ele><time>2026-04-04T09:06:45.599Z</time></trkpt><trkpt lat="44.6636688" lon="9.3270258"><ele>905.0</ele><time>2026-04-04T09:06:46.601Z</time></trkpt><trkpt lat="44.6635899" lon="9.3270964"><ele>905.0000000000001</ele><time>2026-04-04T09:06:47.6Z</time></trkpt><trkpt lat="44.6635176" lon="9.3271768"><ele>905.0</ele><time>2026-04-04T09:06:48.6Z</time></trkpt><trkpt lat="44.6634497" lon="9.3272494"><ele>906.8333333333334</ele><time>2026-04-04T09:06:49.6Z</time></trkpt><trkpt lat="44.6633768" lon="9.3273215"><ele>908.6666666666667</ele><time>2026-04-04T09:06:50.601Z</time></trkpt><trkpt lat="44.6632985" lon="9.3273865"><ele>910.5</ele><time>2026-04-04T09:06:51.599Z</time></trkpt><trkpt lat="44.6632264" lon="9.3274375"><ele>912.3333333333333</ele><time>2026-04-04T09:06:52.602Z</time></trkpt><trkpt lat="44.663156" lon="9.3274766"><ele>914.1666666666666</ele><time>2026-04-04T09:06:53.601Z</time></trkpt><trkpt lat="44.663085" lon="9.3275037"><ele>916.0</ele><time>2026-04-04T09:06:54.6Z</time></trkpt><trkpt lat="44.6630228" lon="9.3275303"><ele>916.0</ele><time>2026-04-04T09:06:55.6Z</time></trkpt><trkpt lat="44.6629" lon="9.3275583"><ele>916.0</ele><time>2026-04-04T09:06:57.6Z</time></trkpt><trkpt lat="44.6627883" lon="9.32759"><ele>916.0</ele><time>2026-04-04T09:06:59.601Z</time></trkpt><trkpt lat="44.6627083" lon="9.327635"><ele>916.0</ele><time>2026-04-04T09:07:01.601Z</time></trkpt><trkpt lat="44.662545" lon="9.3277033"><ele>914.0</ele><time>2026-04-04T09:07:15.599Z</time></trkpt><trkpt lat="44.6624367" lon="9.3277183"><ele>911.9999999999999</ele><time>2026-04-04T09:07:17.599Z</time></trkpt><trkpt lat="44.6623417" lon="9.32775"><ele>909.9999999999999</ele><time>2026-04-04T09:07:19.6Z</time></trkpt><trkpt lat="44.662255" lon="9.3278"><ele>908.0</ele><time>2026-04-04T09:07:21.6Z</time></trkpt><trkpt lat="44.6621817" lon="9.3278667"><ele>906.0</ele><time>2026-04-04T09:07:23.6Z</time></trkpt><trkpt lat="44.6621033" lon="9.3279267"><ele>906.0</ele><time>2026-04-04T09:07:25.6Z</time></trkpt><trkpt lat="44.6620633" lon="9.3280433"><ele>905.9999999999999</ele><time>2026-04-04T09:07:27.599Z</time></trkpt><trkpt lat="44.6620433" lon="9.3281283"><ele>905.9999999999999</ele><time>2026-04-04T09:07:28.601Z</time></trkpt><trkpt lat="44.662" lon="9.3282717"><ele>906.0</ele><time>2026-04-04T09:07:30.601Z</time></trkpt><trkpt lat="44.66195" lon="9.3283667"><ele>906.0</ele><time>2026-04-04T09:07:32.605Z</time></trkpt><trkpt lat="44.661845" lon="9.3283833"><ele>903.3333333333334</ele><time>2026-04-04T09:07:35.599Z</time></trkpt><trkpt lat="44.6617317" lon="9.3284017"><ele>900.6666666666667</ele><time>2026-04-04T09:07:37.599Z</time></trkpt><trkpt lat="44.6616643" lon="9.3284219"><ele>898.0</ele><time>2026-04-04T09:07:38.6Z</time></trkpt><trkpt lat="44.6615991" lon="9.3284568"><ele>895.3333333333334</ele><time>2026-04-04T09:07:39.6Z</time></trkpt><trkpt lat="44.6615436" lon="9.3285047"><ele>892.6666666666667</ele><time>2026-04-04T09:07:40.601Z</time></trkpt><trkpt lat="44.6615056" lon="9.3285828"><ele>890.0</ele><time>2026-04-04T09:07:41.599Z</time></trkpt><trkpt lat="44.6614782" lon="9.3286958"><ele>890.0000000000001</ele><time>2026-04-04T09:07:42.599Z</time></trkpt><trkpt lat="44.6614378" lon="9.3288037"><ele>890.0</ele><time>2026-04-04T09:07:43.6Z</time></trkpt><trkpt lat="44.6613879" lon="9.3289073"><ele>890.0</ele><time>2026-04-04T09:07:44.6Z</time></trkpt><trkpt lat="44.6613433" lon="9.3290079"><ele>890.0</ele><time>2026-04-04T09:07:45.601Z</time></trkpt><trkpt lat="44.661306" lon="9.3290858"><ele>890.0000000000001</ele><time>2026-04-04T09:07:46.6Z</time></trkpt><trkpt lat="44.6612074" lon="9.3291703"><ele>890.0</ele><time>2026-04-04T09:07:48.6Z</time></trkpt><trkpt lat="44.6611359" lon="9.329198"><ele>890.5000000000001</ele><time>2026-04-04T09:07:49.601Z</time></trkpt><trkpt lat="44.6610606" lon="9.3292437"><ele>891.0</ele><time>2026-04-04T09:07:50.601Z</time></trkpt><trkpt lat="44.6609854" lon="9.3292977"><ele>891.5</ele><time>2026-04-04T09:07:51.602Z</time></trkpt><trkpt lat="44.6609119" lon="9.3293386"><ele>892.0</ele><time>2026-04-04T09:07:52.6Z</time></trkpt><trkpt lat="44.6608477" lon="9.3293621"><ele>892.5000000000001</ele><time>2026-04-04T09:07:53.601Z</time></trkpt><trkpt lat="44.6607523" lon="9.3293786"><ele>893.0</ele><time>2026-04-04T09:08:15.6Z</time></trkpt><trkpt lat="44.6606739" lon="9.3294095"><ele>893.0000000000001</ele><time>2026-04-04T09:08:16.6Z</time></trkpt><trkpt lat="44.6605998" lon="9.3294543"><ele>893.0</ele><time>2026-04-04T09:08:17.6Z</time></trkpt><trkpt lat="44.6605319" lon="9.3295156"><ele>893.0</ele><time>2026-04-04T09:08:18.6Z</time></trkpt><trkpt lat="44.660493" lon="9.3296175"><ele>893.0</ele><time>2026-04-04T09:08:19.6Z</time></trkpt><trkpt lat="44.6604769" lon="9.329729"><ele>893.0000000000001</ele><time>2026-04-04T09:08:20.6Z</time></trkpt><trkpt lat="44.660457" lon="9.3298266"><ele>893.0</ele><time>2026-04-04T09:08:21.6Z</time></trkpt><trkpt lat="44.6604209" lon="9.3299096"><ele>890.8333333333334</ele><time>2026-04-04T09:08:22.601Z</time></trkpt><trkpt lat="44.6603497" lon="9.3300512"><ele>888.6666666666667</ele><time>2026-04-04T09:08:24.6Z</time></trkpt><trkpt lat="44.660301" lon="9.330126"><ele>886.5</ele><time>2026-04-04T09:08:25.6Z</time></trkpt><trkpt lat="44.6602524" lon="9.3302063"><ele>884.3333333333333</ele><time>2026-04-04T09:08:26.6Z</time></trkpt><trkpt lat="44.6602112" lon="9.3302922"><ele>882.1666666666666</ele><time>2026-04-04T09:08:27.601Z</time></trkpt><trkpt lat="44.6601741" lon="9.3303886"><ele>880.0</ele><time>2026-04-04T09:08:28.602Z</time></trkpt><trkpt lat="44.6601325" lon="9.3304823"><ele>881.6666666666666</ele><time>2026-04-04T09:08:29.601Z</time></trkpt><trkpt lat="44.6600871" lon="9.3305657"><ele>883.3333333333333</ele><time>2026-04-04T09:08:30.602Z</time></trkpt><trkpt lat="44.6600465" lon="9.3306453"><ele>885.0</ele><time>2026-04-04T09:08:31.602Z</time></trkpt><trkpt lat="44.6600084" lon="9.3307162"><ele>886.6666666666667</ele><time>2026-04-04T09:08:32.6Z</time></trkpt><trkpt lat="44.65994" lon="9.3308483"><ele>888.3333333333334</ele><time>2026-04-04T09:08:34.6Z</time></trkpt><trkpt lat="44.65989" lon="9.3309933"><ele>890.0</ele><time>2026-04-04T09:08:36.6Z</time></trkpt><trkpt lat="44.6598517" lon="9.3311467"><ele>890.0000000000001</ele><time>2026-04-04T09:08:38.603Z</time></trkpt><trkpt lat="44.6598083" lon="9.331235"><ele>890.0</ele><time>2026-04-04T09:08:40.599Z</time></trkpt><trkpt lat="44.6597717" lon="9.3313083"><ele>890.0</ele><time>2026-04-04T09:08:57.601Z</time></trkpt><trkpt lat="44.6597417" lon="9.33141"><ele>890.0</ele><time>2026-04-04T09:09:00.599Z</time></trkpt><trkpt lat="44.6597033" lon="9.3315117"><ele>890.0000000000001</ele><time>2026-04-04T09:09:04.601Z</time></trkpt><trkpt lat="44.659655" lon="9.331605"><ele>890.0</ele><time>2026-04-04T09:09:07.601Z</time></trkpt><trkpt lat="44.6596" lon="9.3317067"><ele>888.8</ele><time>2026-04-04T09:09:10.6Z</time></trkpt><trkpt lat="44.6594617" lon="9.3318517"><ele>887.6</ele><time>2026-04-04T09:10:10.6Z</time></trkpt><trkpt lat="44.659395" lon="9.3318367"><ele>886.4000000000001</ele><time>2026-04-04T09:10:12.6Z</time></trkpt><trkpt lat="44.6593217" lon="9.331805"><ele>885.2</ele><time>2026-04-04T09:10:14.601Z</time></trkpt><trkpt lat="44.6592517" lon="9.3317783"><ele>884.0</ele><time>2026-04-04T09:10:16.6Z</time></trkpt><trkpt lat="44.6591533" lon="9.3317883"><ele>884.0</ele><time>2026-04-04T09:10:30.601Z</time></trkpt><trkpt lat="44.6590717" lon="9.3318633"><ele>884.0000000000001</ele><time>2026-04-04T09:10:32.602Z</time></trkpt><trkpt lat="44.658995" lon="9.3319383"><ele>884.0000000000001</ele><time>2026-04-04T09:10:34.599Z</time></trkpt><trkpt lat="44.6589067" lon="9.3320117"><ele>884.0</ele><time>2026-04-04T09:10:36.601Z</time></trkpt><trkpt lat="44.6587917" lon="9.3321"><ele>884.0</ele><time>2026-04-04T09:10:38.601Z</time></trkpt><trkpt lat="44.658725" lon="9.3321433"><ele>884.0000000000001</ele><time>2026-04-04T09:10:39.6Z</time></trkpt><trkpt lat="44.658655" lon="9.332185"><ele>884.0</ele><time>2026-04-04T09:10:40.602Z</time></trkpt><trkpt lat="44.6585917" lon="9.3322217"><ele>884.0</ele><time>2026-04-04T09:10:41.6Z</time></trkpt><trkpt lat="44.6585283" lon="9.332255"><ele>884.0</ele><time>2026-04-04T09:10:42.6Z</time></trkpt><trkpt lat="44.6584267" lon="9.3323183"><ele>884.0000000000001</ele><time>2026-04-04T09:10:44.601Z</time></trkpt><trkpt lat="44.6583283" lon="9.3323733"><ele>884.0</ele><time>2026-04-04T09:10:46.599Z</time></trkpt><trkpt lat="44.65825" lon="9.3324317"><ele>884.4000000000001</ele><time>2026-04-04T09:10:48.601Z</time></trkpt><trkpt lat="44.65818" lon="9.332455"><ele>884.8000000000001</ele><time>2026-04-04T09:10:50.602Z</time></trkpt><trkpt lat="44.658095" lon="9.3324333"><ele>885.1999999999999</ele><time>2026-04-04T09:10:52.601Z</time></trkpt><trkpt lat="44.6579983" lon="9.332415"><ele>885.5999999999999</ele><time>2026-04-04T09:10:54.602Z</time></trkpt><trkpt lat="44.657905" lon="9.3324633"><ele>886.0</ele><time>2026-04-04T09:10:56.6Z</time></trkpt><trkpt lat="44.6578217" lon="9.3325483"><ele>885.8</ele><time>2026-04-04T09:10:58.6Z</time></trkpt><trkpt lat="44.6577433" lon="9.33264"><ele>885.5999999999999</ele><time>2026-04-04T09:11:00.601Z</time></trkpt><trkpt lat="44.65767" lon="9.3327417"><ele>885.4</ele><time>2026-04-04T09:11:02.6Z</time></trkpt><trkpt lat="44.6576017" lon="9.332855"><ele>885.2</ele><time>2026-04-04T09:11:04.601Z</time></trkpt><trkpt lat="44.65755" lon="9.3329733"><ele>885.0</ele><time>2026-04-04T09:11:06.599Z</time></trkpt><trkpt lat="44.657495" lon="9.3330983"><ele>888.2</ele><time>2026-04-04T09:11:08.601Z</time></trkpt><trkpt lat="44.6574567" lon="9.3332317"><ele>891.4</ele><time>2026-04-04T09:11:10.6Z</time></trkpt><trkpt lat="44.6574117" lon="9.33336"><ele>894.5999999999999</ele><time>2026-04-04T09:11:12.6Z</time></trkpt><trkpt lat="44.6573683" lon="9.3334567"><ele>897.8</ele><time>2026-04-04T09:11:14.601Z</time></trkpt><trkpt lat="44.6573267" lon="9.333535"><ele>901.0</ele><time>2026-04-04T09:11:16.601Z</time></trkpt><trkpt lat="44.6572433" lon="9.3336083"><ele>900.9999999999999</ele><time>2026-04-04T09:11:18.602Z</time></trkpt><trkpt lat="44.6571333" lon="9.33363"><ele>901.0</ele><time>2026-04-04T09:11:20.602Z</time></trkpt><trkpt lat="44.6570267" lon="9.3336317"><ele>901.0</ele><time>2026-04-04T09:11:22.602Z</time></trkpt><trkpt lat="44.6569683" lon="9.3336833"><ele>901.0</ele><time>2026-04-04T09:11:24.603Z</time></trkpt><trkpt lat="44.6569083" lon="9.3337683"><ele>900.9999999999999</ele><time>2026-04-04T09:11:26.601Z</time></trkpt><trkpt lat="44.65684" lon="9.33379"><ele>901.0</ele><time>2026-04-04T09:11:28.601Z</time></trkpt><trkpt lat="44.6567497" lon="9.3337923"><ele>901.3333333333333</ele><time>2026-04-04T09:11:30.579Z</time></trkpt><trkpt lat="44.6566692" lon="9.3337587"><ele>901.6666666666666</ele><time>2026-04-04T09:11:31.601Z</time></trkpt><trkpt lat="44.6565954" lon="9.3337264"><ele>902.0</ele><time>2026-04-04T09:11:32.6Z</time></trkpt><trkpt lat="44.6565163" lon="9.3337013"><ele>902.3333333333333</ele><time>2026-04-04T09:11:33.601Z</time></trkpt><trkpt lat="44.6564407" lon="9.3336867"><ele>902.6666666666666</ele><time>2026-04-04T09:11:34.6Z</time></trkpt><trkpt lat="44.6563709" lon="9.3336901"><ele>903.0</ele><time>2026-04-04T09:11:35.601Z</time></trkpt><trkpt lat="44.6563067" lon="9.3337021"><ele>903.0</ele><time>2026-04-04T09:11:36.6Z</time></trkpt><trkpt lat="44.6561867" lon="9.3337033"><ele>903.0</ele><time>2026-04-04T09:11:38.6Z</time></trkpt><trkpt lat="44.6561203" lon="9.3336982"><ele>903.0</ele><time>2026-04-04T09:11:39.6Z</time></trkpt><trkpt lat="44.6560417" lon="9.3336995"><ele>903.0</ele><time>2026-04-04T09:11:40.601Z</time></trkpt><trkpt lat="44.6559549" lon="9.3337065"><ele>903.0</ele><time>2026-04-04T09:11:41.601Z</time></trkpt><trkpt lat="44.6558707" lon="9.3337165"><ele>903.0</ele><time>2026-04-04T09:11:42.602Z</time></trkpt><trkpt lat="44.6557898" lon="9.3337235"><ele>904.1666666666666</ele><time>2026-04-04T09:11:43.6Z</time></trkpt><trkpt lat="44.6557118" lon="9.3337296"><ele>905.3333333333333</ele><time>2026-04-04T09:11:44.601Z</time></trkpt><trkpt lat="44.6556395" lon="9.3337351"><ele>906.5</ele><time>2026-04-04T09:11:45.6Z</time></trkpt><trkpt lat="44.655577" lon="9.3337493"><ele>907.6666666666666</ele><time>2026-04-04T09:11:46.6Z</time></trkpt><trkpt lat="44.6554716" lon="9.3338068"><ele>908.8333333333333</ele><time>2026-04-04T09:11:48.601Z</time></trkpt><trkpt lat="44.6553673" lon="9.3338776"><ele>910.0</ele><time>2026-04-04T09:11:50.601Z</time></trkpt><trkpt lat="44.6552683" lon="9.3339515"><ele>913.8333333333333</ele><time>2026-04-04T09:11:52.601Z</time></trkpt><trkpt lat="44.6551701" lon="9.3340481"><ele>917.6666666666666</ele><time>2026-04-04T09:11:54.601Z</time></trkpt><trkpt lat="44.6551132" lon="9.3341092"><ele>921.5</ele><time>2026-04-04T09:11:55.6Z</time></trkpt><trkpt lat="44.65506" lon="9.334162"><ele>925.3333333333333</ele><time>2026-04-04T09:11:56.6Z</time></trkpt><trkpt lat="44.6550068" lon="9.3342147"><ele>929.1666666666666</ele><time>2026-04-04T09:11:57.599Z</time></trkpt><trkpt lat="44.6549575" lon="9.3342734"><ele>933.0</ele><time>2026-04-04T09:11:58.6Z</time></trkpt><trkpt lat="44.6549014" lon="9.334329"><ele>933.0</ele><time>2026-04-04T09:11:59.599Z</time></trkpt><trkpt lat="44.6548364" lon="9.3343811"><ele>933.0</ele><time>2026-04-04T09:12:00.6Z</time></trkpt><trkpt lat="44.6547658" lon="9.3344339"><ele>933.0</ele><time>2026-04-04T09:12:01.599Z</time></trkpt><trkpt lat="44.654707" lon="9.3344874"><ele>933.0</ele><time>2026-04-04T09:12:02.601Z</time></trkpt><trkpt lat="44.6546277" lon="9.3345902"><ele>933.0</ele><time>2026-04-04T09:12:04.602Z</time></trkpt><trkpt lat="44.6545628" lon="9.3346833"><ele>933.0</ele><time>2026-04-04T09:12:06.599Z</time></trkpt><trkpt lat="44.6545139" lon="9.3347942"><ele>935.3333333333334</ele><time>2026-04-04T09:12:08.6Z</time></trkpt><trkpt lat="44.6545141" lon="9.3348985"><ele>937.6666666666667</ele><time>2026-04-04T09:12:10.601Z</time></trkpt><trkpt lat="44.6545097" lon="9.3350048"><ele>940.0</ele><time>2026-04-04T09:12:12.602Z</time></trkpt><trkpt lat="44.6545158" lon="9.3351268"><ele>942.3333333333334</ele><time>2026-04-04T09:12:14.6Z</time></trkpt><trkpt lat="44.6545597" lon="9.3352309"><ele>944.6666666666667</ele><time>2026-04-04T09:12:16.6Z</time></trkpt><trkpt lat="44.6546336" lon="9.3353417"><ele>947.0</ele><time>2026-04-04T09:12:18.6Z</time></trkpt><trkpt lat="44.6547253" lon="9.3354409"><ele>947.0</ele><time>2026-04-04T09:12:20.602Z</time></trkpt><trkpt lat="44.6548243" lon="9.3355507"><ele>947.0</ele><time>2026-04-04T09:12:22.604Z</time></trkpt><trkpt lat="44.654924" lon="9.3356455"><ele>947.0</ele><time>2026-04-04T09:12:24.601Z</time></trkpt><trkpt lat="44.6550128" lon="9.3357394"><ele>947.0</ele><time>2026-04-04T09:12:26.603Z</time></trkpt><trkpt lat="44.65508" lon="9.33583"><ele>945.4000000000001</ele><time>2026-04-04T09:12:28.601Z</time></trkpt><trkpt lat="44.6551467" lon="9.335935"><ele>943.8000000000001</ele><time>2026-04-04T09:12:30.601Z</time></trkpt><trkpt lat="44.6552" lon="9.336045"><ele>942.2</ele><time>2026-04-04T09:12:32.601Z</time></trkpt><trkpt lat="44.65525" lon="9.3361583"><ele>940.6</ele><time>2026-04-04T09:12:34.6Z</time></trkpt><trkpt lat="44.65528" lon="9.3362717"><ele>939.0</ele><time>2026-04-04T09:12:36.6Z</time></trkpt><trkpt lat="44.6552917" lon="9.3364033"><ele>937.2</ele><time>2026-04-04T09:12:38.601Z</time></trkpt><trkpt lat="44.6552883" lon="9.3365567"><ele>935.4000000000001</ele><time>2026-04-04T09:12:40.601Z</time></trkpt><trkpt lat="44.6552817" lon="9.3367083"><ele>933.6</ele><time>2026-04-04T09:12:42.6Z</time></trkpt><trkpt lat="44.6552767" lon="9.3368367"><ele>931.8</ele><time>2026-04-04T09:12:44.601Z</time></trkpt><trkpt lat="44.655295" lon="9.3369833"><ele>930.0</ele><time>2026-04-04T09:12:46.601Z</time></trkpt><trkpt lat="44.6553217" lon="9.3371133"><ele>936.6</ele><time>2026-04-04T09:12:48.6Z</time></trkpt><trkpt lat="44.65533" lon="9.3372067"><ele>943.2</ele><time>2026-04-04T09:12:49.601Z</time></trkpt><trkpt lat="44.6553733" lon="9.3373683"><ele>949.8</ele><time>2026-04-04T09:12:51.601Z</time></trkpt><trkpt lat="44.6553867" lon="9.337455"><ele>956.4</ele><time>2026-04-04T09:12:52.602Z</time></trkpt><trkpt lat="44.6554183" lon="9.3375968"><ele>963.0</ele><time>2026-04-04T09:12:54.602Z</time></trkpt><trkpt lat="44.6554393" lon="9.337736"><ele>963.0</ele><time>2026-04-04T09:12:56.6Z</time></trkpt><trkpt lat="44.6554811" lon="9.3378497"><ele>963.0</ele><time>2026-04-04T09:12:58.6Z</time></trkpt><trkpt lat="44.6555556" lon="9.3379492"><ele>963.0</ele><time>2026-04-04T09:13:00.6Z</time></trkpt><trkpt lat="44.6556251" lon="9.3380626"><ele>963.0</ele><time>2026-04-04T09:13:02.6Z</time></trkpt><trkpt lat="44.6556488" lon="9.3381679"><ele>963.0</ele><time>2026-04-04T09:13:04.601Z</time></trkpt><trkpt lat="44.6556334" lon="9.3382586"><ele>963.0</ele><time>2026-04-04T09:13:06.603Z</time></trkpt><trkpt lat="44.6555683" lon="9.3383263"><ele>962.2</ele><time>2026-04-04T09:13:08.601Z</time></trkpt><trkpt lat="44.6554832" lon="9.338375"><ele>961.4</ele><time>2026-04-04T09:13:10.6Z</time></trkpt><trkpt lat="44.6554065" lon="9.3384224"><ele>960.6000000000001</ele><time>2026-04-04T09:13:12.601Z</time></trkpt><trkpt lat="44.6553502" lon="9.3385275"><ele>959.8000000000001</ele><time>2026-04-04T09:13:14.601Z</time></trkpt><trkpt lat="44.6552855" lon="9.3386402"><ele>959.0</ele><time>2026-04-04T09:13:16.601Z</time></trkpt><trkpt lat="44.6551959" lon="9.3387157"><ele>960.6666666666667</ele><time>2026-04-04T09:13:18.602Z</time></trkpt><trkpt lat="44.6552183" lon="9.338825"><ele>962.3333333333334</ele><time>2026-04-04T09:14:37.602Z</time></trkpt><trkpt lat="44.6552667" lon="9.3389183"><ele>964.0</ele><time>2026-04-04T09:14:40.601Z</time></trkpt><trkpt lat="44.6553267" lon="9.3390133"><ele>965.6666666666667</ele><time>2026-04-04T09:14:43.602Z</time></trkpt><trkpt lat="44.6553867" lon="9.33912"><ele>967.3333333333334</ele><time>2026-04-04T09:14:46.599Z</time></trkpt><trkpt lat="44.65541" lon="9.3392333"><ele>969.0</ele><time>2026-04-04T09:14:48.6Z</time></trkpt><trkpt lat="44.6554167" lon="9.3393783"><ele>969.0</ele><time>2026-04-04T09:14:50.601Z</time></trkpt><trkpt lat="44.6554067" lon="9.33956"><ele>969.0</ele><time>2026-04-04T09:14:52.6Z</time></trkpt><trkpt lat="44.6553967" lon="9.3396533"><ele>969.0</ele><time>2026-04-04T09:14:53.601Z</time></trkpt><trkpt lat="44.6553917" lon="9.3397433"><ele>969.0</ele><time>2026-04-04T09:14:54.6Z</time></trkpt><trkpt lat="44.6553883" lon="9.3398317"><ele>969.0</ele><time>2026-04-04T09:14:55.601Z</time></trkpt><trkpt lat="44.6553833" lon="9.339925"><ele>969.0</ele><time>2026-04-04T09:14:56.603Z</time></trkpt><trkpt lat="44.6553817" lon="9.3400217"><ele>970.5</ele><time>2026-04-04T09:14:57.6Z</time></trkpt><trkpt lat="44.6553867" lon="9.3401183"><ele>972.0</ele><time>2026-04-04T09:14:58.601Z</time></trkpt><trkpt lat="44.65539" lon="9.3402083"><ele>973.5</ele><time>2026-04-04T09:14:59.601Z</time></trkpt><trkpt lat="44.65539" lon="9.3403033"><ele>975.0</ele><time>2026-04-04T09:15:00.6Z</time></trkpt><trkpt lat="44.6553833" lon="9.340395"><ele>976.5</ele><time>2026-04-04T09:15:01.602Z</time></trkpt><trkpt lat="44.65539" lon="9.3404867"><ele>978.0</ele><time>2026-04-04T09:15:02.601Z</time></trkpt><trkpt lat="44.6554183" lon="9.3406567"><ele>978.5</ele><time>2026-04-04T09:15:04.601Z</time></trkpt><trkpt lat="44.6554267" lon="9.3407583"><ele>979.0</ele><time>2026-04-04T09:15:05.602Z</time></trkpt><trkpt lat="44.655415" lon="9.3409267"><ele>979.5</ele><time>2026-04-04T09:15:07.601Z</time></trkpt><trkpt lat="44.6554" lon="9.3410167"><ele>980.0</ele><time>2026-04-04T09:15:08.602Z</time></trkpt><trkpt lat="44.6553917" lon="9.3411183"><ele>980.5</ele><time>2026-04-04T09:15:09.6Z</time></trkpt><trkpt lat="44.6553833" lon="9.34124"><ele>981.0</ele><time>2026-04-04T09:15:10.601Z</time></trkpt><trkpt lat="44.6553667" lon="9.3413517"><ele>981.5</ele><time>2026-04-04T09:15:11.6Z</time></trkpt><trkpt lat="44.65536" lon="9.3414683"><ele>982.0</ele><time>2026-04-04T09:15:12.602Z</time></trkpt><trkpt lat="44.6553617" lon="9.341565"><ele>982.5</ele><time>2026-04-04T09:15:13.601Z</time></trkpt><trkpt lat="44.6553683" lon="9.3416567"><ele>983.0</ele><time>2026-04-04T09:15:14.602Z</time></trkpt><trkpt lat="44.655395" lon="9.3417517"><ele>983.5</ele><time>2026-04-04T09:15:15.602Z</time></trkpt><trkpt lat="44.6554217" lon="9.3418417"><ele>984.0</ele><time>2026-04-04T09:15:16.601Z</time></trkpt><trkpt lat="44.65543" lon="9.3419967"><ele>984.0</ele><time>2026-04-04T09:15:18.602Z</time></trkpt><trkpt lat="44.6553883" lon="9.3421367"><ele>984.0000000000001</ele><time>2026-04-04T09:15:20.602Z</time></trkpt><trkpt lat="44.6553717" lon="9.342235"><ele>984.0000000000001</ele><time>2026-04-04T09:15:21.602Z</time></trkpt><trkpt lat="44.655395" lon="9.342405"><ele>984.0</ele><time>2026-04-04T09:15:23.6Z</time></trkpt><trkpt lat="44.65542" lon="9.34254"><ele>984.0</ele><time>2026-04-04T09:15:25.602Z</time></trkpt><trkpt lat="44.655405" lon="9.3426617"><ele>985.0</ele><time>2026-04-04T09:15:27.602Z</time></trkpt><trkpt lat="44.6553617" lon="9.34277"><ele>986.0</ele><time>2026-04-04T09:15:29.602Z</time></trkpt><trkpt lat="44.655325" lon="9.342865"><ele>987.0</ele><time>2026-04-04T09:15:31.602Z</time></trkpt><trkpt lat="44.655315" lon="9.3429683"><ele>988.0</ele><time>2026-04-04T09:15:33.601Z</time></trkpt><trkpt lat="44.655315" lon="9.34308"><ele>989.0</ele><time>2026-04-04T09:15:35.602Z</time></trkpt><trkpt lat="44.6552833" lon="9.3432017"><ele>990.0</ele><time>2026-04-04T09:15:37.601Z</time></trkpt><trkpt lat="44.6552733" lon="9.3433333"><ele>991.6</ele><time>2026-04-04T09:15:39.6Z</time></trkpt><trkpt lat="44.655265" lon="9.343465"><ele>993.2</ele><time>2026-04-04T09:15:41.601Z</time></trkpt><trkpt lat="44.6552483" lon="9.3436083"><ele>994.8</ele><time>2026-04-04T09:15:43.601Z</time></trkpt><trkpt lat="44.6552217" lon="9.3437717"><ele>996.4</ele><time>2026-04-04T09:15:45.601Z</time></trkpt><trkpt lat="44.6552" lon="9.3439317"><ele>998.0</ele><time>2026-04-04T09:15:47.602Z</time></trkpt><trkpt lat="44.65516" lon="9.3440683"><ele>998.0</ele><time>2026-04-04T09:15:49.601Z</time></trkpt><trkpt lat="44.655115" lon="9.3441933"><ele>998.0</ele><time>2026-04-04T09:15:51.601Z</time></trkpt><trkpt lat="44.65508" lon="9.3442917"><ele>998.0</ele><time>2026-04-04T09:15:53.602Z</time></trkpt><trkpt lat="44.65504" lon="9.3444033"><ele>998.0</ele><time>2026-04-04T09:15:55.601Z</time></trkpt><trkpt lat="44.6550117" lon="9.344545"><ele>998.0</ele><time>2026-04-04T09:15:57.601Z</time></trkpt><trkpt lat="44.6549683" lon="9.3446367"><ele>998.0</ele><time>2026-04-04T09:15:59.602Z</time></trkpt><trkpt lat="44.6548917" lon="9.3447017"><ele>998.0</ele><time>2026-04-04T09:16:01.601Z</time></trkpt><trkpt lat="44.6548433" lon="9.3448"><ele>998.0</ele><time>2026-04-04T09:16:03.601Z</time></trkpt><trkpt lat="44.6548083" lon="9.3448917"><ele>998.0</ele><time>2026-04-04T09:16:07.601Z</time></trkpt><trkpt lat="44.6547617" lon="9.3449717"><ele>998.0</ele><time>2026-04-04T09:16:23.6Z</time></trkpt><trkpt lat="44.6546067" lon="9.34491"><ele>999.0000000000001</ele><time>2026-04-04T09:17:09.602Z</time></trkpt><trkpt lat="44.654525" lon="9.3449133"><ele>1000.0</ele><time>2026-04-04T09:17:11.603Z</time></trkpt><trkpt lat="44.6544067" lon="9.344905"><ele>1001.0</ele><time>2026-04-04T09:17:13.6Z</time></trkpt><trkpt lat="44.6543383" lon="9.344905"><ele>1002.0</ele><time>2026-04-04T09:17:14.6Z</time></trkpt><trkpt lat="44.6542633" lon="9.344915"><ele>1003.0000000000001</ele><time>2026-04-04T09:17:15.601Z</time></trkpt><trkpt lat="44.65419" lon="9.34492"><ele>1004.0</ele><time>2026-04-04T09:17:16.601Z</time></trkpt><trkpt lat="44.6541233" lon="9.3449167"><ele>1004.0</ele><time>2026-04-04T09:17:17.601Z</time></trkpt><trkpt lat="44.6540217" lon="9.3449"><ele>1004.0000000000001</ele><time>2026-04-04T09:17:19.601Z</time></trkpt><trkpt lat="44.6539317" lon="9.3448917"><ele>1004.0000000000001</ele><time>2026-04-04T09:17:21.602Z</time></trkpt><trkpt lat="44.6538533" lon="9.34485"><ele>1004.0</ele><time>2026-04-04T09:17:23.603Z</time></trkpt><trkpt lat="44.653725" lon="9.3448067"><ele>1004.0</ele><time>2026-04-04T09:17:25.602Z</time></trkpt><trkpt lat="44.6536467" lon="9.3447817"><ele>1003.2857142857142</ele><time>2026-04-04T09:17:26.602Z</time></trkpt><trkpt lat="44.65356" lon="9.3447583"><ele>1002.5714285714286</ele><time>2026-04-04T09:17:27.601Z</time></trkpt><trkpt lat="44.6534817" lon="9.3447383"><ele>1001.8571428571429</ele><time>2026-04-04T09:17:28.601Z</time></trkpt><trkpt lat="44.653405" lon="9.3447167"><ele>1001.1428571428571</ele><time>2026-04-04T09:17:29.601Z</time></trkpt><trkpt lat="44.6533433" lon="9.3446867"><ele>1000.4285714285716</ele><time>2026-04-04T09:17:30.601Z</time></trkpt><trkpt lat="44.65328" lon="9.3446767"><ele>999.7142857142858</ele><time>2026-04-04T09:17:31.601Z</time></trkpt><trkpt lat="44.6532167" lon="9.3446767"><ele>999.0</ele><time>2026-04-04T09:17:32.601Z</time></trkpt><trkpt lat="44.6531017" lon="9.34476"><ele>999.0</ele><time>2026-04-04T09:17:34.601Z</time></trkpt><trkpt lat="44.653025" lon="9.34489"><ele>999.0</ele><time>2026-04-04T09:17:36.602Z</time></trkpt><trkpt lat="44.6529917" lon="9.3449783"><ele>999.0</ele><time>2026-04-04T09:17:37.601Z</time></trkpt><trkpt lat="44.6529533" lon="9.3450633"><ele>999.0</ele><time>2026-04-04T09:17:38.601Z</time></trkpt><trkpt lat="44.6529033" lon="9.3451433"><ele>999.0</ele><time>2026-04-04T09:17:39.601Z</time></trkpt><trkpt lat="44.6528433" lon="9.34521"><ele>999.0</ele><time>2026-04-04T09:17:40.6Z</time></trkpt><trkpt lat="44.6527767" lon="9.3452583"><ele>995.4000000000001</ele><time>2026-04-04T09:17:41.602Z</time></trkpt><trkpt lat="44.6526633" lon="9.34521"><ele>991.8000000000001</ele><time>2026-04-04T09:17:43.601Z</time></trkpt><trkpt lat="44.6525983" lon="9.3451667"><ele>988.1999999999999</ele><time>2026-04-04T09:17:44.601Z</time></trkpt><trkpt lat="44.6524783" lon="9.3451217"><ele>984.5999999999999</ele><time>2026-04-04T09:17:46.602Z</time></trkpt><trkpt lat="44.6524083" lon="9.3451217"><ele>981.0</ele><time>2026-04-04T09:17:47.601Z</time></trkpt><trkpt lat="44.6523317" lon="9.345115"><ele>981.0</ele><time>2026-04-04T09:17:48.601Z</time></trkpt><trkpt lat="44.652265" lon="9.3450967"><ele>980.9999999999999</ele><time>2026-04-04T09:17:49.6Z</time></trkpt><trkpt lat="44.65216" lon="9.3450367"><ele>980.9999999999999</ele><time>2026-04-04T09:17:51.601Z</time></trkpt><trkpt lat="44.6520633" lon="9.3449967"><ele>981.0</ele><time>2026-04-04T09:17:53.601Z</time></trkpt><trkpt lat="44.6519367" lon="9.3449483"><ele>981.0</ele><time>2026-04-04T09:17:55.602Z</time></trkpt><trkpt lat="44.65187" lon="9.3449067"><ele>981.4</ele><time>2026-04-04T09:17:56.601Z</time></trkpt><trkpt lat="44.6518133" lon="9.34486"><ele>981.8</ele><time>2026-04-04T09:17:57.6Z</time></trkpt><trkpt lat="44.6517167" lon="9.3447867"><ele>982.1999999999999</ele><time>2026-04-04T09:17:59.6Z</time></trkpt><trkpt lat="44.6516267" lon="9.3447417"><ele>982.5999999999999</ele><time>2026-04-04T09:18:01.601Z</time></trkpt><trkpt lat="44.65151" lon="9.3446967"><ele>983.0</ele><time>2026-04-04T09:18:03.6Z</time></trkpt><trkpt lat="44.651415" lon="9.344625"><ele>982.3333333333334</ele><time>2026-04-04T09:18:05.6Z</time></trkpt><trkpt lat="44.6513333" lon="9.3445"><ele>981.6666666666667</ele><time>2026-04-04T09:18:07.601Z</time></trkpt><trkpt lat="44.6512817" lon="9.34443"><ele>981.0</ele><time>2026-04-04T09:18:08.601Z</time></trkpt><trkpt lat="44.6512333" lon="9.3443567"><ele>980.3333333333333</ele><time>2026-04-04T09:18:09.601Z</time></trkpt><trkpt lat="44.6511883" lon="9.3442783"><ele>979.6666666666666</ele><time>2026-04-04T09:18:10.601Z</time></trkpt><trkpt lat="44.65114" lon="9.344195"><ele>979.0</ele><time>2026-04-04T09:18:11.6Z</time></trkpt><trkpt lat="44.6510933" lon="9.344115"><ele>979.0</ele><time>2026-04-04T09:18:12.6Z</time></trkpt><trkpt lat="44.6510567" lon="9.3440367"><ele>979.0000000000001</ele><time>2026-04-04T09:18:13.599Z</time></trkpt><trkpt lat="44.650995" lon="9.3439"><ele>979.0000000000001</ele><time>2026-04-04T09:18:15.6Z</time></trkpt><trkpt lat="44.6509283" lon="9.3437983"><ele>979.0</ele><time>2026-04-04T09:18:17.601Z</time></trkpt><trkpt lat="44.6508583" lon="9.3437283"><ele>979.0</ele><time>2026-04-04T09:18:19.602Z</time></trkpt><trkpt lat="44.6507717" lon="9.3436667"><ele>976.1666666666666</ele><time>2026-04-04T09:18:21.601Z</time></trkpt><trkpt lat="44.6507067" lon="9.3436533"><ele>973.3333333333333</ele><time>2026-04-04T09:18:22.6Z</time></trkpt><trkpt lat="44.6506383" lon="9.3436483"><ele>970.5</ele><time>2026-04-04T09:18:23.601Z</time></trkpt><trkpt lat="44.6505383" lon="9.3436217"><ele>967.6666666666667</ele><time>2026-04-04T09:18:25.601Z</time></trkpt><trkpt lat="44.6504667" lon="9.3435733"><ele>964.8333333333334</ele><time>2026-04-04T09:18:27.6Z</time></trkpt><trkpt lat="44.650375" lon="9.3435083"><ele>962.0</ele><time>2026-04-04T09:18:29.601Z</time></trkpt><trkpt lat="44.6502833" lon="9.3434733"><ele>962.0</ele><time>2026-04-04T09:18:31.604Z</time></trkpt><trkpt lat="44.6501867" lon="9.3434967"><ele>962.0</ele><time>2026-04-04T09:18:33.601Z</time></trkpt><trkpt lat="44.6501" lon="9.3435867"><ele>962.0</ele><time>2026-04-04T09:18:35.601Z</time></trkpt><trkpt lat="44.6500217" lon="9.34372"><ele>962.0</ele><time>2026-04-04T09:18:37.601Z</time></trkpt><trkpt lat="44.6499383" lon="9.343855"><ele>963.8333333333334</ele><time>2026-04-04T09:18:39.601Z</time></trkpt><trkpt lat="44.6498817" lon="9.3439183"><ele>965.6666666666667</ele><time>2026-04-04T09:18:40.602Z</time></trkpt><trkpt lat="44.6498117" lon="9.34399"><ele>967.5</ele><time>2026-04-04T09:18:41.603Z</time></trkpt><trkpt lat="44.64974" lon="9.3440617"><ele>969.3333333333333</ele><time>2026-04-04T09:18:42.602Z</time></trkpt><trkpt lat="44.6496767" lon="9.34411"><ele>971.1666666666666</ele><time>2026-04-04T09:18:43.599Z</time></trkpt><trkpt lat="44.649615" lon="9.3441367"><ele>973.0</ele><time>2026-04-04T09:18:44.6Z</time></trkpt><trkpt lat="44.6495167" lon="9.3441033"><ele>970.0</ele><time>2026-04-04T09:18:46.599Z</time></trkpt><trkpt lat="44.6494367" lon="9.3440067"><ele>967.0</ele><time>2026-04-04T09:18:48.601Z</time></trkpt><trkpt lat="44.6493867" lon="9.3439383"><ele>964.0</ele><time>2026-04-04T09:18:49.601Z</time></trkpt><trkpt lat="44.6493" lon="9.3438167"><ele>961.0</ele><time>2026-04-04T09:18:51.601Z</time></trkpt><trkpt lat="44.649255" lon="9.3437483"><ele>958.0</ele><time>2026-04-04T09:18:52.601Z</time></trkpt><trkpt lat="44.6491717" lon="9.3436567"><ele>955.5</ele><time>2026-04-04T09:18:54.602Z</time></trkpt><trkpt lat="44.6490917" lon="9.34355"><ele>953.0</ele><time>2026-04-04T09:18:56.601Z</time></trkpt><trkpt lat="44.6490017" lon="9.3434233"><ele>950.5</ele><time>2026-04-04T09:18:58.602Z</time></trkpt><trkpt lat="44.648905" lon="9.3433633"><ele>948.0</ele><time>2026-04-04T09:19:00.602Z</time></trkpt><trkpt lat="44.6487883" lon="9.3433167"><ele>948.0</ele><time>2026-04-04T09:19:02.602Z</time></trkpt><trkpt lat="44.6487217" lon="9.343295"><ele>948.0</ele><time>2026-04-04T09:19:03.602Z</time></trkpt><trkpt lat="44.64866" lon="9.3432567"><ele>948.0</ele><time>2026-04-04T09:19:04.6Z</time></trkpt><trkpt lat="44.648605" lon="9.3431083"><ele>948.0</ele><time>2026-04-04T09:19:06.602Z</time></trkpt><trkpt lat="44.6485967" lon="9.3429433"><ele>948.0</ele><time>2026-04-04T09:19:08.601Z</time></trkpt><trkpt lat="44.648585" lon="9.3428167"><ele>944.1666666666666</ele><time>2026-04-04T09:19:10.601Z</time></trkpt><trkpt lat="44.6485467" lon="9.3426983"><ele>940.3333333333333</ele><time>2026-04-04T09:19:12.601Z</time></trkpt><trkpt lat="44.64851" lon="9.342555"><ele>936.5</ele><time>2026-04-04T09:19:14.6Z</time></trkpt><trkpt lat="44.6484817" lon="9.3424733"><ele>932.6666666666666</ele><time>2026-04-04T09:19:15.601Z</time></trkpt><trkpt lat="44.64845" lon="9.3423883"><ele>928.8333333333333</ele><time>2026-04-04T09:19:16.6Z</time></trkpt><trkpt lat="44.6484083" lon="9.342305"><ele>925.0</ele><time>2026-04-04T09:19:17.601Z</time></trkpt><trkpt lat="44.6483333" lon="9.34221"><ele>923.6666666666666</ele><time>2026-04-04T09:19:19.601Z</time></trkpt><trkpt lat="44.6482733" lon="9.3421767"><ele>922.3333333333333</ele><time>2026-04-04T09:19:21.6Z</time></trkpt><trkpt lat="44.64832" lon="9.3421083"><ele>921.0</ele><time>2026-04-04T09:19:25.6Z</time></trkpt><trkpt lat="44.6484033" lon="9.3420933"><ele>919.6666666666667</ele><time>2026-04-04T09:19:27.601Z</time></trkpt><trkpt lat="44.6484567" lon="9.3420283"><ele>918.3333333333334</ele><time>2026-04-04T09:19:29.601Z</time></trkpt><trkpt lat="44.64843" lon="9.3419417"><ele>917.0</ele><time>2026-04-04T09:19:31.6Z</time></trkpt><trkpt lat="44.6483267" lon="9.3418467"><ele>917.0000000000001</ele><time>2026-04-04T09:19:33.6Z</time></trkpt><trkpt lat="44.6482667" lon="9.341785"><ele>917.0</ele><time>2026-04-04T09:19:34.6Z</time></trkpt><trkpt lat="44.6482083" lon="9.3417067"><ele>917.0</ele><time>2026-04-04T09:19:35.601Z</time></trkpt><trkpt lat="44.6481433" lon="9.3416167"><ele>917.0</ele><time>2026-04-04T09:19:36.6Z</time></trkpt><trkpt lat="44.64808" lon="9.34152"><ele>917.0000000000001</ele><time>2026-04-04T09:19:37.6Z</time></trkpt><trkpt lat="44.6480167" lon="9.3414267"><ele>917.0</ele><time>2026-04-04T09:19:38.602Z</time></trkpt><trkpt lat="44.6479567" lon="9.341335"><ele>915.6666666666667</ele><time>2026-04-04T09:19:39.601Z</time></trkpt><trkpt lat="44.6478983" lon="9.3412467"><ele>914.3333333333334</ele><time>2026-04-04T09:19:40.6Z</time></trkpt><trkpt lat="44.6478433" lon="9.3411583"><ele>913.0</ele><time>2026-04-04T09:19:41.601Z</time></trkpt><trkpt lat="44.647795" lon="9.3410783"><ele>911.6666666666667</ele><time>2026-04-04T09:19:42.6Z</time></trkpt><trkpt lat="44.6477467" lon="9.3410167"><ele>910.3333333333334</ele><time>2026-04-04T09:19:43.6Z</time></trkpt><trkpt lat="44.6476733" lon="9.3409533"><ele>909.0</ele><time>2026-04-04T09:19:45.6Z</time></trkpt><trkpt lat="44.6476133" lon="9.3409917"><ele>909.0</ele><time>2026-04-04T09:19:47.6Z</time></trkpt><trkpt lat="44.647605" lon="9.34111"><ele>909.0</ele><time>2026-04-04T09:19:50.601Z</time></trkpt><trkpt lat="44.6476433" lon="9.341215"><ele>909.0</ele><time>2026-04-04T09:19:53.6Z</time></trkpt><trkpt lat="44.647685" lon="9.3413367"><ele>909.0</ele><time>2026-04-04T09:20:02.6Z</time></trkpt><trkpt lat="44.6477617" lon="9.341455"><ele>909.0</ele><time>2026-04-04T09:20:04.601Z</time></trkpt><trkpt lat="44.6477983" lon="9.341535"><ele>909.0</ele><time>2026-04-04T09:20:05.6Z</time></trkpt><trkpt lat="44.6478533" lon="9.3416"><ele>910.3333333333334</ele><time>2026-04-04T09:20:06.601Z</time></trkpt><trkpt lat="44.6479017" lon="9.341675"><ele>911.6666666666667</ele><time>2026-04-04T09:20:07.601Z</time></trkpt><trkpt lat="44.647965" lon="9.3417417"><ele>913.0</ele><time>2026-04-04T09:20:08.6Z</time></trkpt><trkpt lat="44.6480267" lon="9.34182"><ele>914.3333333333334</ele><time>2026-04-04T09:20:09.6Z</time></trkpt><trkpt lat="44.6480883" lon="9.3419017"><ele>915.6666666666667</ele><time>2026-04-04T09:20:10.601Z</time></trkpt><trkpt lat="44.6481483" lon="9.3419733"><ele>917.0</ele><time>2026-04-04T09:20:11.6Z</time></trkpt><trkpt lat="44.6482117" lon="9.3420683"><ele>917.0000000000001</ele><time>2026-04-04T09:20:13.601Z</time></trkpt><trkpt lat="44.6482183" lon="9.3421583"><ele>917.0</ele><time>2026-04-04T09:20:15.602Z</time></trkpt><trkpt lat="44.64821" lon="9.3423033"><ele>917.0</ele><time>2026-04-04T09:20:18.6Z</time></trkpt><trkpt lat="44.6482583" lon="9.3424383"><ele>917.0</ele><time>2026-04-04T09:20:20.601Z</time></trkpt><trkpt lat="44.6483" lon="9.342515"><ele>917.0000000000001</ele><time>2026-04-04T09:20:21.601Z</time></trkpt><trkpt lat="44.6483467" lon="9.3426083"><ele>917.0</ele><time>2026-04-04T09:20:22.601Z</time></trkpt><trkpt lat="44.6483917" lon="9.34272"><ele>918.3333333333334</ele><time>2026-04-04T09:20:23.6Z</time></trkpt><trkpt lat="44.6484267" lon="9.3428367"><ele>919.6666666666667</ele><time>2026-04-04T09:20:24.601Z</time></trkpt><trkpt lat="44.6484383" lon="9.3429517"><ele>921.0</ele><time>2026-04-04T09:20:25.6Z</time></trkpt><trkpt lat="44.648445" lon="9.343065"><ele>922.3333333333333</ele><time>2026-04-04T09:20:26.603Z</time></trkpt><trkpt lat="44.6484583" lon="9.3431817"><ele>923.6666666666666</ele><time>2026-04-04T09:20:27.601Z</time></trkpt><trkpt lat="44.6484833" lon="9.3433067"><ele>925.0</ele><time>2026-04-04T09:20:28.605Z</time></trkpt><trkpt lat="44.64852" lon="9.3434217"><ele>926.4999999999999</ele><time>2026-04-04T09:20:29.6Z</time></trkpt><trkpt lat="44.6485517" lon="9.3435367"><ele>928.0</ele><time>2026-04-04T09:20:30.602Z</time></trkpt><trkpt lat="44.6485667" lon="9.3436533"><ele>929.5</ele><time>2026-04-04T09:20:31.602Z</time></trkpt><trkpt lat="44.648545" lon="9.34374"><ele>931.0</ele><time>2026-04-04T09:20:32.601Z</time></trkpt><trkpt lat="44.6484483" lon="9.3438283"><ele>932.4999999999999</ele><time>2026-04-04T09:20:34.601Z</time></trkpt><trkpt lat="44.6483617" lon="9.3437867"><ele>934.0</ele><time>2026-04-04T09:20:35.6Z</time></trkpt><trkpt lat="44.6482783" lon="9.3437317"><ele>933.9999999999999</ele><time>2026-04-04T09:20:36.601Z</time></trkpt><trkpt lat="44.6481967" lon="9.3436767"><ele>934.0</ele><time>2026-04-04T09:20:37.6Z</time></trkpt><trkpt lat="44.6481317" lon="9.343625"><ele>934.0</ele><time>2026-04-04T09:20:38.601Z</time></trkpt><trkpt lat="44.6480733" lon="9.3435817"><ele>934.0</ele><time>2026-04-04T09:20:39.601Z</time></trkpt><trkpt lat="44.647985" lon="9.343525"><ele>933.9999999999999</ele><time>2026-04-04T09:20:41.604Z</time></trkpt><trkpt lat="44.6479217" lon="9.3435217"><ele>934.0</ele><time>2026-04-04T09:20:43.601Z</time></trkpt><trkpt lat="44.64784" lon="9.3436117"><ele>934.0</ele><time>2026-04-04T09:20:45.601Z</time></trkpt><trkpt lat="44.647795" lon="9.3436867"><ele>934.0000000000001</ele><time>2026-04-04T09:20:46.6Z</time></trkpt><trkpt lat="44.6477567" lon="9.3437717"><ele>934.0000000000001</ele><time>2026-04-04T09:20:47.601Z</time></trkpt><trkpt lat="44.6477183" lon="9.343855"><ele>934.0</ele><time>2026-04-04T09:20:48.602Z</time></trkpt><trkpt lat="44.6476283" lon="9.3439333"><ele>934.0</ele><time>2026-04-04T09:20:50.601Z</time></trkpt><trkpt lat="44.6475033" lon="9.3438533"><ele>932.0</ele><time>2026-04-04T09:20:52.601Z</time></trkpt><trkpt lat="44.64742" lon="9.34376"><ele>930.0000000000001</ele><time>2026-04-04T09:20:53.601Z</time></trkpt><trkpt lat="44.64734" lon="9.3437"><ele>928.0000000000001</ele><time>2026-04-04T09:20:54.601Z</time></trkpt><trkpt lat="44.6472467" lon="9.3436733"><ele>926.0</ele><time>2026-04-04T09:20:55.601Z</time></trkpt><trkpt lat="44.6471367" lon="9.3436767"><ele>924.0</ele><time>2026-04-04T09:20:56.6Z</time></trkpt><trkpt lat="44.6470167" lon="9.3436783"><ele>925.25</ele><time>2026-04-04T09:20:57.601Z</time></trkpt><trkpt lat="44.646885" lon="9.3436683"><ele>926.5</ele><time>2026-04-04T09:20:58.602Z</time></trkpt><trkpt lat="44.64675" lon="9.3436433"><ele>927.75</ele><time>2026-04-04T09:20:59.601Z</time></trkpt><trkpt lat="44.6466217" lon="9.34361"><ele>929.0</ele><time>2026-04-04T09:21:00.603Z</time></trkpt><trkpt lat="44.646505" lon="9.34358"><ele>929.0</ele><time>2026-04-04T09:21:01.603Z</time></trkpt><trkpt lat="44.6464017" lon="9.3435433"><ele>929.0000000000001</ele><time>2026-04-04T09:21:02.601Z</time></trkpt><trkpt lat="44.646315" lon="9.34349"><ele>929.0000000000001</ele><time>2026-04-04T09:21:03.602Z</time></trkpt><trkpt lat="44.6462483" lon="9.3434217"><ele>929.0</ele><time>2026-04-04T09:21:04.601Z</time></trkpt><trkpt lat="44.6461933" lon="9.3433267"><ele>929.0</ele><time>2026-04-04T09:21:05.602Z</time></trkpt><trkpt lat="44.6461517" lon="9.3432067"><ele>928.0000000000001</ele><time>2026-04-04T09:21:06.601Z</time></trkpt><trkpt lat="44.6461133" lon="9.343075"><ele>927.0</ele><time>2026-04-04T09:21:07.6Z</time></trkpt><trkpt lat="44.6460783" lon="9.3429467"><ele>926.0</ele><time>2026-04-04T09:21:08.601Z</time></trkpt><trkpt lat="44.6460483" lon="9.3428317"><ele>925.0</ele><time>2026-04-04T09:21:09.6Z</time></trkpt><trkpt lat="44.646005" lon="9.34273"><ele>924.0000000000001</ele><time>2026-04-04T09:21:10.6Z</time></trkpt><trkpt lat="44.6459467" lon="9.3426617"><ele>923.0</ele><time>2026-04-04T09:21:11.6Z</time></trkpt><trkpt lat="44.6458867" lon="9.3426183"><ele>923.0000000000001</ele><time>2026-04-04T09:21:12.601Z</time></trkpt><trkpt lat="44.6458233" lon="9.3426467"><ele>923.0</ele><time>2026-04-04T09:21:13.601Z</time></trkpt><trkpt lat="44.6457567" lon="9.3427083"><ele>923.0</ele><time>2026-04-04T09:21:14.601Z</time></trkpt><trkpt lat="44.645705" lon="9.3427967"><ele>923.0</ele><time>2026-04-04T09:21:15.6Z</time></trkpt><trkpt lat="44.6456517" lon="9.342865"><ele>923.0000000000001</ele><time>2026-04-04T09:21:16.6Z</time></trkpt><trkpt lat="44.6455417" lon="9.342835"><ele>923.0</ele><time>2026-04-04T09:21:18.601Z</time></trkpt><trkpt lat="44.64545" lon="9.34271"><ele>923.0000000000001</ele><time>2026-04-04T09:21:20.602Z</time></trkpt><trkpt lat="44.645405" lon="9.3426233"><ele>923.0</ele><time>2026-04-04T09:21:21.601Z</time></trkpt><trkpt lat="44.64536" lon="9.342525"><ele>923.0</ele><time>2026-04-04T09:21:22.601Z</time></trkpt><trkpt lat="44.6453133" lon="9.3424383"><ele>923.0</ele><time>2026-04-04T09:21:23.601Z</time></trkpt><trkpt lat="44.645265" lon="9.3423767"><ele>923.0000000000001</ele><time>2026-04-04T09:21:24.601Z</time></trkpt><trkpt lat="44.6451583" lon="9.3423917"><ele>923.0</ele><time>2026-04-04T09:21:26.601Z</time></trkpt><trkpt lat="44.6450983" lon="9.3424433"><ele>922.8333333333334</ele><time>2026-04-04T09:21:27.6Z</time></trkpt><trkpt lat="44.6450367" lon="9.3425017"><ele>922.6666666666667</ele><time>2026-04-04T09:21:28.601Z</time></trkpt><trkpt lat="44.64497" lon="9.342565"><ele>922.5</ele><time>2026-04-04T09:21:29.6Z</time></trkpt><trkpt lat="44.6449" lon="9.3426283"><ele>922.3333333333333</ele><time>2026-04-04T09:21:30.601Z</time></trkpt><trkpt lat="44.64482" lon="9.3426933"><ele>922.1666666666666</ele><time>2026-04-04T09:21:31.601Z</time></trkpt><trkpt lat="44.644735" lon="9.3427517"><ele>922.0</ele><time>2026-04-04T09:21:32.6Z</time></trkpt><trkpt lat="44.6446483" lon="9.3428017"><ele>922.0</ele><time>2026-04-04T09:21:33.601Z</time></trkpt><trkpt lat="44.6445567" lon="9.3428367"><ele>922.0</ele><time>2026-04-04T09:21:34.601Z</time></trkpt><trkpt lat="44.6444683" lon="9.3428633"><ele>922.0</ele><time>2026-04-04T09:21:35.6Z</time></trkpt><trkpt lat="44.644375" lon="9.3429"><ele>922.0</ele><time>2026-04-04T09:21:36.599Z</time></trkpt><trkpt lat="44.6442867" lon="9.3429583"><ele>922.0</ele><time>2026-04-04T09:21:37.601Z</time></trkpt><trkpt lat="44.6442033" lon="9.3430367"><ele>922.8</ele><time>2026-04-04T09:21:38.6Z</time></trkpt><trkpt lat="44.6441183" lon="9.343115"><ele>923.6</ele><time>2026-04-04T09:21:39.601Z</time></trkpt><trkpt lat="44.6440333" lon="9.3431733"><ele>924.3999999999999</ele><time>2026-04-04T09:21:40.602Z</time></trkpt><trkpt lat="44.6439467" lon="9.3432167"><ele>925.1999999999999</ele><time>2026-04-04T09:21:41.601Z</time></trkpt><trkpt lat="44.643865" lon="9.3432567"><ele>926.0</ele><time>2026-04-04T09:21:42.602Z</time></trkpt><trkpt lat="44.6437783" lon="9.34329"><ele>926.0</ele><time>2026-04-04T09:21:43.601Z</time></trkpt><trkpt lat="44.6436833" lon="9.3433233"><ele>925.9999999999999</ele><time>2026-04-04T09:21:44.6Z</time></trkpt><trkpt lat="44.6435883" lon="9.3433467"><ele>925.9999999999999</ele><time>2026-04-04T09:21:45.601Z</time></trkpt><trkpt lat="44.6434933" lon="9.3433633"><ele>926.0</ele><time>2026-04-04T09:21:46.6Z</time></trkpt><trkpt lat="44.6433917" lon="9.3433967"><ele>926.0</ele><time>2026-04-04T09:21:47.602Z</time></trkpt><trkpt lat="44.6433067" lon="9.3434567"><ele>926.1666666666667</ele><time>2026-04-04T09:21:48.601Z</time></trkpt><trkpt lat="44.6432383" lon="9.343545"><ele>926.3333333333334</ele><time>2026-04-04T09:21:49.601Z</time></trkpt><trkpt lat="44.643205" lon="9.3436533"><ele>926.5</ele><time>2026-04-04T09:21:50.601Z</time></trkpt><trkpt lat="44.6431833" lon="9.34376"><ele>926.6666666666667</ele><time>2026-04-04T09:21:51.6Z</time></trkpt><trkpt lat="44.643155" lon="9.3438483"><ele>926.8333333333334</ele><time>2026-04-04T09:21:52.6Z</time></trkpt><trkpt lat="44.64306" lon="9.3439167"><ele>927.0</ele><time>2026-04-04T09:21:54.601Z</time></trkpt><trkpt lat="44.6429783" lon="9.3439033"><ele>927.0</ele><time>2026-04-04T09:21:55.6Z</time></trkpt><trkpt lat="44.642895" lon="9.3439017"><ele>927.0</ele><time>2026-04-04T09:21:56.601Z</time></trkpt><trkpt lat="44.6428017" lon="9.3439167"><ele>927.0</ele><time>2026-04-04T09:21:57.601Z</time></trkpt><trkpt lat="44.6427117" lon="9.34395"><ele>927.0</ele><time>2026-04-04T09:21:58.601Z</time></trkpt><trkpt lat="44.6426383" lon="9.344005"><ele>927.0</ele><time>2026-04-04T09:21:59.601Z</time></trkpt><trkpt lat="44.6425767" lon="9.3440733"><ele>927.0</ele><time>2026-04-04T09:22:00.601Z</time></trkpt><trkpt lat="44.6425133" lon="9.34414"><ele>924.5</ele><time>2026-04-04T09:22:01.601Z</time></trkpt><trkpt lat="44.64245" lon="9.3441967"><ele>922.0</ele><time>2026-04-04T09:22:02.601Z</time></trkpt><trkpt lat="44.64238" lon="9.34423"><ele>919.5</ele><time>2026-04-04T09:22:03.6Z</time></trkpt><trkpt lat="44.6423067" lon="9.34425"><ele>917.0</ele><time>2026-04-04T09:22:04.601Z</time></trkpt><trkpt lat="44.6422333" lon="9.34428"><ele>914.5</ele><time>2026-04-04T09:22:05.6Z</time></trkpt><trkpt lat="44.6421583" lon="9.3443167"><ele>912.0</ele><time>2026-04-04T09:22:06.6Z</time></trkpt><trkpt lat="44.64209" lon="9.3443567"><ele>912.0</ele><time>2026-04-04T09:22:07.601Z</time></trkpt><trkpt lat="44.6420283" lon="9.3443933"><ele>912.0</ele><time>2026-04-04T09:22:08.601Z</time></trkpt><trkpt lat="44.641915" lon="9.3444433"><ele>912.0</ele><time>2026-04-04T09:22:10.601Z</time></trkpt><trkpt lat="44.6418333" lon="9.3444667"><ele>912.0</ele><time>2026-04-04T09:22:12.602Z</time></trkpt><trkpt lat="44.6417733" lon="9.344495"><ele>912.0</ele><time>2026-04-04T09:22:14.602Z</time></trkpt><trkpt lat="44.6416983" lon="9.344545"><ele>912.0</ele><time>2026-04-04T09:22:16.604Z</time></trkpt><trkpt lat="44.6416383" lon="9.3446"><ele>910.0</ele><time>2026-04-04T09:22:18.602Z</time></trkpt><trkpt lat="44.6415667" lon="9.3445483"><ele>908.0</ele><time>2026-04-04T09:22:41.6Z</time></trkpt><trkpt lat="44.6415867" lon="9.34445"><ele>906.0</ele><time>2026-04-04T09:22:43.6Z</time></trkpt><trkpt lat="44.6415817" lon="9.3443367"><ele>904.0</ele><time>2026-04-04T09:22:45.599Z</time></trkpt><trkpt lat="44.6414983" lon="9.344235"><ele>902.0</ele><time>2026-04-04T09:22:47.601Z</time></trkpt><trkpt lat="44.6414267" lon="9.34418"><ele>900.0</ele><time>2026-04-04T09:22:48.6Z</time></trkpt><trkpt lat="44.641345" lon="9.3441117"><ele>900.0</ele><time>2026-04-04T09:22:49.601Z</time></trkpt><trkpt lat="44.6412783" lon="9.3440367"><ele>900.0</ele><time>2026-04-04T09:22:50.599Z</time></trkpt><trkpt lat="44.6412367" lon="9.3439283"><ele>900.0</ele><time>2026-04-04T09:22:51.601Z</time></trkpt><trkpt lat="44.6412083" lon="9.3438083"><ele>900.0</ele><time>2026-04-04T09:22:52.6Z</time></trkpt><trkpt lat="44.6411967" lon="9.343685"><ele>900.0</ele><time>2026-04-04T09:22:53.601Z</time></trkpt><trkpt lat="44.6412" lon="9.3435667"><ele>900.0</ele><time>2026-04-04T09:22:54.6Z</time></trkpt><trkpt lat="44.6412567" lon="9.3435"><ele>897.1666666666666</ele><time>2026-04-04T09:22:55.6Z</time></trkpt><trkpt lat="44.6413183" lon="9.343465"><ele>894.3333333333333</ele><time>2026-04-04T09:22:56.599Z</time></trkpt><trkpt lat="44.641385" lon="9.3434767"><ele>891.5</ele><time>2026-04-04T09:22:57.599Z</time></trkpt><trkpt lat="44.64148" lon="9.3435167"><ele>888.6666666666666</ele><time>2026-04-04T09:22:59.6Z</time></trkpt><trkpt lat="44.64159" lon="9.3434467"><ele>885.8333333333333</ele><time>2026-04-04T09:23:01.601Z</time></trkpt><trkpt lat="44.6416283" lon="9.3433533"><ele>883.0</ele><time>2026-04-04T09:23:03.599Z</time></trkpt><trkpt lat="44.6415883" lon="9.3432233"><ele>882.9999999999999</ele><time>2026-04-04T09:23:05.6Z</time></trkpt><trkpt lat="44.6415683" lon="9.3431267"><ele>883.0</ele><time>2026-04-04T09:23:06.6Z</time></trkpt><trkpt lat="44.6415533" lon="9.343025"><ele>883.0</ele><time>2026-04-04T09:23:07.601Z</time></trkpt><trkpt lat="44.6415483" lon="9.3429083"><ele>883.0</ele><time>2026-04-04T09:23:08.6Z</time></trkpt><trkpt lat="44.64155" lon="9.3428"><ele>882.9999999999999</ele><time>2026-04-04T09:23:09.6Z</time></trkpt><trkpt lat="44.6415583" lon="9.3426867"><ele>883.0</ele><time>2026-04-04T09:23:10.6Z</time></trkpt><trkpt lat="44.641565" lon="9.3425783"><ele>881.7142857142858</ele><time>2026-04-04T09:23:11.601Z</time></trkpt><trkpt lat="44.6415683" lon="9.34247"><ele>880.4285714285713</ele><time>2026-04-04T09:23:12.601Z</time></trkpt><trkpt lat="44.6415783" lon="9.3423617"><ele>879.1428571428571</ele><time>2026-04-04T09:23:13.602Z</time></trkpt><trkpt lat="44.6416" lon="9.342265"><ele>877.8571428571429</ele><time>2026-04-04T09:23:14.602Z</time></trkpt><trkpt lat="44.6416183" lon="9.34216"><ele>876.5714285714287</ele><time>2026-04-04T09:23:15.6Z</time></trkpt><trkpt lat="44.6416333" lon="9.342065"><ele>875.2857142857142</ele><time>2026-04-04T09:23:16.6Z</time></trkpt><trkpt lat="44.641645" lon="9.3419717"><ele>874.0</ele><time>2026-04-04T09:23:17.601Z</time></trkpt><trkpt lat="44.641655" lon="9.3418783"><ele>872.4999999999999</ele><time>2026-04-04T09:23:18.6Z</time></trkpt><trkpt lat="44.64165" lon="9.3417817"><ele>871.0</ele><time>2026-04-04T09:23:19.6Z</time></trkpt><trkpt lat="44.6416433" lon="9.3416767"><ele>869.5</ele><time>2026-04-04T09:23:20.6Z</time></trkpt><trkpt lat="44.6416283" lon="9.341585"><ele>868.0</ele><time>2026-04-04T09:23:21.6Z</time></trkpt><trkpt lat="44.641565" lon="9.3414483"><ele>866.4999999999999</ele><time>2026-04-04T09:23:23.602Z</time></trkpt><trkpt lat="44.6414667" lon="9.3413617"><ele>865.0</ele><time>2026-04-04T09:23:25.6Z</time></trkpt><trkpt lat="44.6414017" lon="9.3413383"><ele>862.4999999999999</ele><time>2026-04-04T09:23:26.601Z</time></trkpt><trkpt lat="44.64132" lon="9.3413183"><ele>860.0</ele><time>2026-04-04T09:23:27.6Z</time></trkpt><trkpt lat="44.6412367" lon="9.34129"><ele>857.5</ele><time>2026-04-04T09:23:28.6Z</time></trkpt><trkpt lat="44.6411467" lon="9.341275"><ele>855.0</ele><time>2026-04-04T09:23:29.6Z</time></trkpt><trkpt lat="44.64107" lon="9.3412617"><ele>852.4999999999999</ele><time>2026-04-04T09:23:30.601Z</time></trkpt><trkpt lat="44.6409933" lon="9.341255"><ele>850.0</ele><time>2026-04-04T09:23:31.6Z</time></trkpt><trkpt lat="44.64092" lon="9.34125"><ele>849.9999999999999</ele><time>2026-04-04T09:23:32.6Z</time></trkpt><trkpt lat="44.6408517" lon="9.3412433"><ele>850.0</ele><time>2026-04-04T09:23:33.6Z</time></trkpt><trkpt lat="44.6407817" lon="9.3412333"><ele>850.0</ele><time>2026-04-04T09:23:34.6Z</time></trkpt><trkpt lat="44.640715" lon="9.341225"><ele>850.0</ele><time>2026-04-04T09:23:35.601Z</time></trkpt><trkpt lat="44.6405733" lon="9.3412517"><ele>849.9999999999999</ele><time>2026-04-04T09:23:37.601Z</time></trkpt><trkpt lat="44.6404933" lon="9.3412817"><ele>850.0</ele><time>2026-04-04T09:23:38.602Z</time></trkpt><trkpt lat="44.6404017" lon="9.3413033"><ele>849.9999999999999</ele><time>2026-04-04T09:23:39.599Z</time></trkpt><trkpt lat="44.6403283" lon="9.3413217"><ele>850.0</ele><time>2026-04-04T09:23:40.6Z</time></trkpt><trkpt lat="44.6402433" lon="9.3413217"><ele>850.0</ele><time>2026-04-04T09:23:41.6Z</time></trkpt><trkpt lat="44.6401467" lon="9.34131"><ele>850.0</ele><time>2026-04-04T09:23:42.6Z</time></trkpt><trkpt lat="44.6400617" lon="9.341305"><ele>849.9999999999999</ele><time>2026-04-04T09:23:43.6Z</time></trkpt><trkpt lat="44.639985" lon="9.3413"><ele>850.0</ele><time>2026-04-04T09:23:44.6Z</time></trkpt><trkpt lat="44.63991" lon="9.3412833"><ele>849.3333333333333</ele><time>2026-04-04T09:23:45.601Z</time></trkpt><trkpt lat="44.6398433" lon="9.34124"><ele>848.6666666666666</ele><time>2026-04-04T09:23:46.6Z</time></trkpt><trkpt lat="44.639775" lon="9.3411983"><ele>848.0</ele><time>2026-04-04T09:23:47.6Z</time></trkpt><trkpt lat="44.6397083" lon="9.341155"><ele>847.3333333333333</ele><time>2026-04-04T09:23:48.6Z</time></trkpt><trkpt lat="44.6396467" lon="9.341115"><ele>846.6666666666666</ele><time>2026-04-04T09:23:49.6Z</time></trkpt><trkpt lat="44.6395483" lon="9.3410283"><ele>846.0</ele><time>2026-04-04T09:23:51.599Z</time></trkpt><trkpt lat="44.6394917" lon="9.340945"><ele>844.0</ele><time>2026-04-04T09:23:53.601Z</time></trkpt><trkpt lat="44.6394283" lon="9.3408817"><ele>842.0</ele><time>2026-04-04T09:23:55.6Z</time></trkpt><trkpt lat="44.639355" lon="9.3408317"><ele>840.0</ele><time>2026-04-04T09:23:57.599Z</time></trkpt><trkpt lat="44.6392783" lon="9.34082"><ele>838.0</ele><time>2026-04-04T09:24:00.599Z</time></trkpt><trkpt lat="44.639215" lon="9.3408017"><ele>836.0</ele><time>2026-04-04T09:24:02.601Z</time></trkpt><trkpt lat="44.63913" lon="9.340765"><ele>834.0</ele><time>2026-04-04T09:24:04.599Z</time></trkpt><trkpt lat="44.6390283" lon="9.3407783"><ele>834.0</ele><time>2026-04-04T09:24:06.601Z</time></trkpt><trkpt lat="44.63895" lon="9.34087"><ele>834.0</ele><time>2026-04-04T09:24:08.6Z</time></trkpt><trkpt lat="44.6388967" lon="9.3410017"><ele>834.0</ele><time>2026-04-04T09:24:10.599Z</time></trkpt><trkpt lat="44.6388817" lon="9.3411533"><ele>834.0</ele><time>2026-04-04T09:24:12.599Z</time></trkpt><trkpt lat="44.6388567" lon="9.34131"><ele>834.0</ele><time>2026-04-04T09:24:14.604Z</time></trkpt><trkpt lat="44.6388367" lon="9.34144"><ele>834.1666666666666</ele><time>2026-04-04T09:24:16.6Z</time></trkpt><trkpt lat="44.6388467" lon="9.34158"><ele>834.3333333333333</ele><time>2026-04-04T09:24:18.6Z</time></trkpt><trkpt lat="44.6388683" lon="9.3416667"><ele>834.5</ele><time>2026-04-04T09:24:19.6Z</time></trkpt><trkpt lat="44.6388983" lon="9.3417583"><ele>834.6666666666666</ele><time>2026-04-04T09:24:20.601Z</time></trkpt><trkpt lat="44.6389433" lon="9.3418567"><ele>834.8333333333333</ele><time>2026-04-04T09:24:21.599Z</time></trkpt><trkpt lat="44.638985" lon="9.3419567"><ele>835.0</ele><time>2026-04-04T09:24:22.605Z</time></trkpt><trkpt lat="44.6390217" lon="9.3420567"><ele>834.9999999999999</ele><time>2026-04-04T09:24:23.6Z</time></trkpt><trkpt lat="44.6390617" lon="9.342155"><ele>835.0</ele><time>2026-04-04T09:24:24.601Z</time></trkpt><trkpt lat="44.6391067" lon="9.3422417"><ele>835.0</ele><time>2026-04-04T09:24:25.601Z</time></trkpt><trkpt lat="44.6391483" lon="9.3423267"><ele>835.0</ele><time>2026-04-04T09:24:26.601Z</time></trkpt><trkpt lat="44.6391617" lon="9.342445"><ele>834.9999999999999</ele><time>2026-04-04T09:24:28.599Z</time></trkpt><trkpt lat="44.6391133" lon="9.3425133"><ele>835.0</ele><time>2026-04-04T09:24:30.599Z</time></trkpt><trkpt lat="44.63906" lon="9.3425967"><ele>834.8333333333333</ele><time>2026-04-04T09:24:32.601Z</time></trkpt><trkpt lat="44.6389833" lon="9.3427217"><ele>834.6666666666666</ele><time>2026-04-04T09:24:34.6Z</time></trkpt><trkpt lat="44.6389233" lon="9.3427567"><ele>834.5</ele><time>2026-04-04T09:24:35.601Z</time></trkpt><trkpt lat="44.6388467" lon="9.3427917"><ele>834.3333333333333</ele><time>2026-04-04T09:24:36.599Z</time></trkpt><trkpt lat="44.6387617" lon="9.3428367"><ele>834.1666666666666</ele><time>2026-04-04T09:24:37.601Z</time></trkpt><trkpt lat="44.638685" lon="9.3428883"><ele>834.0</ele><time>2026-04-04T09:24:38.6Z</time></trkpt><trkpt lat="44.63863" lon="9.3429567"><ele>830.6666666666666</ele><time>2026-04-04T09:24:39.6Z</time></trkpt><trkpt lat="44.638575" lon="9.343065"><ele>827.3333333333333</ele><time>2026-04-04T09:24:40.6Z</time></trkpt><trkpt lat="44.6385333" lon="9.3431767"><ele>824.0</ele><time>2026-04-04T09:24:41.599Z</time></trkpt><trkpt lat="44.638495" lon="9.3432833"><ele>820.6666666666666</ele><time>2026-04-04T09:24:42.6Z</time></trkpt><trkpt lat="44.6384583" lon="9.3433633"><ele>817.3333333333333</ele><time>2026-04-04T09:24:43.599Z</time></trkpt><trkpt lat="44.6384067" lon="9.3434967"><ele>814.0</ele><time>2026-04-04T09:24:45.6Z</time></trkpt><trkpt lat="44.638395" lon="9.34365"><ele>814.0</ele><time>2026-04-04T09:24:47.6Z</time></trkpt><trkpt lat="44.6384117" lon="9.3437583"><ele>814.0</ele><time>2026-04-04T09:24:49.599Z</time></trkpt><trkpt lat="44.638425" lon="9.3438717"><ele>814.0</ele><time>2026-04-04T09:24:52.601Z</time></trkpt><trkpt lat="44.6383917" lon="9.3439833"><ele>814.0</ele><time>2026-04-04T09:24:54.6Z</time></trkpt><trkpt lat="44.6383833" lon="9.344155"><ele>814.0</ele><time>2026-04-04T09:24:56.599Z</time></trkpt><trkpt lat="44.6384233" lon="9.3443183"><ele>814.4999999999999</ele><time>2026-04-04T09:24:58.601Z</time></trkpt><trkpt lat="44.6384533" lon="9.3444717"><ele>815.0</ele><time>2026-04-04T09:25:00.6Z</time></trkpt><trkpt lat="44.63843" lon="9.3445633"><ele>815.5</ele><time>2026-04-04T09:25:02.6Z</time></trkpt><trkpt lat="44.638365" lon="9.3445967"><ele>816.0</ele><time>2026-04-04T09:25:04.601Z</time></trkpt><trkpt lat="44.63825" lon="9.344595"><ele>816.4999999999999</ele><time>2026-04-04T09:25:26.599Z</time></trkpt><trkpt lat="44.6381867" lon="9.3445933"><ele>817.0</ele><time>2026-04-04T09:25:28.6Z</time></trkpt><trkpt lat="44.63811" lon="9.3445917"><ele>817.0</ele><time>2026-04-04T09:25:30.6Z</time></trkpt><trkpt lat="44.6380133" lon="9.3446383"><ele>817.0</ele><time>2026-04-04T09:25:33.6Z</time></trkpt><trkpt lat="44.6379083" lon="9.34468"><ele>817.0</ele><time>2026-04-04T09:25:35.6Z</time></trkpt><trkpt lat="44.6377933" lon="9.3446617"><ele>817.0</ele><time>2026-04-04T09:25:37.599Z</time></trkpt><trkpt lat="44.637685" lon="9.3446283"><ele>817.0</ele><time>2026-04-04T09:25:39.6Z</time></trkpt><trkpt lat="44.6375617" lon="9.3446083"><ele>813.8333333333333</ele><time>2026-04-04T09:25:41.6Z</time></trkpt><trkpt lat="44.6374633" lon="9.3445933"><ele>810.6666666666666</ele><time>2026-04-04T09:25:43.599Z</time></trkpt><trkpt lat="44.6373685" lon="9.3445838"><ele>807.5</ele><time>2026-04-04T09:25:45.599Z</time></trkpt><trkpt lat="44.6372886" lon="9.344553"><ele>804.3333333333333</ele><time>2026-04-04T09:25:47.6Z</time></trkpt><trkpt lat="44.6372283" lon="9.3445128"><ele>801.1666666666666</ele><time>2026-04-04T09:25:49.599Z</time></trkpt><trkpt lat="44.6371676" lon="9.3444659"><ele>798.0</ele><time>2026-04-04T09:26:03.63Z</time></trkpt><trkpt lat="44.6370741" lon="9.3444148"><ele>798.0</ele><time>2026-04-04T09:26:06.614Z</time></trkpt><trkpt lat="44.6369877" lon="9.3442604"><ele>798.0</ele><time>2026-04-04T09:26:10.67Z</time></trkpt><trkpt lat="44.636905" lon="9.344136"><ele>798.0</ele><time>2026-04-04T09:26:12.51Z</time></trkpt><trkpt lat="44.6368149" lon="9.3439991"><ele>798.0</ele><time>2026-04-04T09:26:14.621Z</time></trkpt><trkpt lat="44.6367722" lon="9.3438681"><ele>795.5</ele><time>2026-04-04T09:26:15.6Z</time></trkpt><trkpt lat="44.6367482" lon="9.343724"><ele>793.0</ele><time>2026-04-04T09:26:16.599Z</time></trkpt><trkpt lat="44.6367415" lon="9.3435978"><ele>790.5</ele><time>2026-04-04T09:26:17.6Z</time></trkpt><trkpt lat="44.6367321" lon="9.3434866"><ele>788.0</ele><time>2026-04-04T09:26:18.599Z</time></trkpt><trkpt lat="44.6367014" lon="9.3433906"><ele>785.5</ele><time>2026-04-04T09:26:19.6Z</time></trkpt><trkpt lat="44.6366555" lon="9.3432982"><ele>783.0</ele><time>2026-04-04T09:26:20.601Z</time></trkpt><trkpt lat="44.6366064" lon="9.3432052"><ele>783.0</ele><time>2026-04-04T09:26:21.599Z</time></trkpt><trkpt lat="44.6365589" lon="9.3431029"><ele>783.0</ele><time>2026-04-04T09:26:22.6Z</time></trkpt><trkpt lat="44.636514" lon="9.3429941"><ele>783.0</ele><time>2026-04-04T09:26:23.6Z</time></trkpt><trkpt lat="44.6364678" lon="9.3428839"><ele>783.0</ele><time>2026-04-04T09:26:24.6Z</time></trkpt><trkpt lat="44.6364107" lon="9.3427903"><ele>783.0</ele><time>2026-04-04T09:26:25.6Z</time></trkpt><trkpt lat="44.63634" lon="9.342715"><ele>783.0</ele><time>2026-04-04T09:26:26.601Z</time></trkpt><trkpt lat="44.63628" lon="9.34264"><ele>780.5</ele><time>2026-04-04T09:26:27.6Z</time></trkpt><trkpt lat="44.6362183" lon="9.34256"><ele>778.0</ele><time>2026-04-04T09:26:28.6Z</time></trkpt><trkpt lat="44.63616" lon="9.3424917"><ele>775.5</ele><time>2026-04-04T09:26:29.599Z</time></trkpt><trkpt lat="44.6361033" lon="9.3424467"><ele>773.0</ele><time>2026-04-04T09:26:30.601Z</time></trkpt><trkpt lat="44.6360333" lon="9.34236"><ele>770.5</ele><time>2026-04-04T09:26:32.6Z</time></trkpt><trkpt lat="44.635995" lon="9.3422883"><ele>768.0</ele><time>2026-04-04T09:26:35.6Z</time></trkpt><trkpt lat="44.635955" lon="9.3421717"><ele>765.5</ele><time>2026-04-04T09:26:38.6Z</time></trkpt><trkpt lat="44.6358967" lon="9.3420683"><ele>763.0</ele><time>2026-04-04T09:26:40.6Z</time></trkpt><trkpt lat="44.63584" lon="9.341975"><ele>760.5</ele><time>2026-04-04T09:26:42.6Z</time></trkpt><trkpt lat="44.6357967" lon="9.3419067"><ele>758.0</ele><time>2026-04-04T09:26:44.6Z</time></trkpt><trkpt lat="44.635725" lon="9.3418583"><ele>755.5</ele><time>2026-04-04T09:26:47.601Z</time></trkpt><trkpt lat="44.6356617" lon="9.3418467"><ele>753.0</ele><time>2026-04-04T09:26:49.599Z</time></trkpt><trkpt lat="44.6356167" lon="9.3417467"><ele>753.0</ele><time>2026-04-04T09:26:52.6Z</time></trkpt><trkpt lat="44.6356517" lon="9.3416183"><ele>753.0</ele><time>2026-04-04T09:26:55.6Z</time></trkpt><trkpt lat="44.63568" lon="9.3415333"><ele>753.0</ele><time>2026-04-04T09:26:57.601Z</time></trkpt><trkpt lat="44.6357233" lon="9.3414183"><ele>753.0</ele><time>2026-04-04T09:27:00.6Z</time></trkpt><trkpt lat="44.63578" lon="9.3413283"><ele>753.0</ele><time>2026-04-04T09:27:03.6Z</time></trkpt><trkpt lat="44.6358133" lon="9.34123"><ele>753.0</ele><time>2026-04-04T09:27:06.6Z</time></trkpt><trkpt lat="44.635755" lon="9.3411867"><ele>748.8</ele><time>2026-04-04T09:27:09.6Z</time></trkpt><trkpt lat="44.63569" lon="9.3411733"><ele>744.5999999999999</ele><time>2026-04-04T09:27:11.6Z</time></trkpt><trkpt lat="44.635595" lon="9.3411283"><ele>740.4000000000001</ele><time>2026-04-04T09:27:14.6Z</time></trkpt><trkpt lat="44.6355167" lon="9.3411167"><ele>736.2</ele><time>2026-04-04T09:27:16.6Z</time></trkpt><trkpt lat="44.6354267" lon="9.3411533"><ele>732.0</ele><time>2026-04-04T09:27:18.6Z</time></trkpt><trkpt lat="44.6353283" lon="9.3412717"><ele>731.6666666666666</ele><time>2026-04-04T09:27:20.601Z</time></trkpt><trkpt lat="44.6352367" lon="9.3413767"><ele>731.3333333333334</ele><time>2026-04-04T09:27:22.601Z</time></trkpt><trkpt lat="44.6351633" lon="9.341455"><ele>731.0</ele><time>2026-04-04T09:27:24.601Z</time></trkpt><trkpt lat="44.6351183" lon="9.3415283"><ele>730.6666666666667</ele><time>2026-04-04T09:27:26.6Z</time></trkpt><trkpt lat="44.635055" lon="9.34159"><ele>730.3333333333334</ele><time>2026-04-04T09:27:29.599Z</time></trkpt><trkpt lat="44.6350483" lon="9.3414933"><ele>730.0</ele><time>2026-04-04T09:29:33.601Z</time></trkpt><trkpt lat="44.6350783" lon="9.3413217"><ele>728.5</ele><time>2026-04-04T09:29:35.599Z</time></trkpt><trkpt lat="44.6351067" lon="9.3412267"><ele>727.0</ele><time>2026-04-04T09:29:36.601Z</time></trkpt><trkpt lat="44.63513" lon="9.34113"><ele>725.5</ele><time>2026-04-04T09:29:37.601Z</time></trkpt><trkpt lat="44.6351533" lon="9.3410383"><ele>724.0</ele><time>2026-04-04T09:29:38.601Z</time></trkpt><trkpt lat="44.6351783" lon="9.3409533"><ele>722.5</ele><time>2026-04-04T09:29:39.6Z</time></trkpt><trkpt lat="44.6352" lon="9.3408667"><ele>721.0</ele><time>2026-04-04T09:29:40.6Z</time></trkpt><trkpt lat="44.635215" lon="9.34071"><ele>721.0</ele><time>2026-04-04T09:29:42.601Z</time></trkpt><trkpt lat="44.6351367" lon="9.3406133"><ele>721.0</ele><time>2026-04-04T09:29:44.601Z</time></trkpt><trkpt lat="44.6350767" lon="9.3405067"><ele>721.0</ele><time>2026-04-04T09:29:46.599Z</time></trkpt><trkpt lat="44.63503" lon="9.340375"><ele>721.0</ele><time>2026-04-04T09:29:48.601Z</time></trkpt><trkpt lat="44.635" lon="9.3402667"><ele>721.0</ele><time>2026-04-04T09:29:50.601Z</time></trkpt><trkpt lat="44.63495" lon="9.3401667"><ele>718.1999999999999</ele><time>2026-04-04T09:29:52.6Z</time></trkpt><trkpt lat="44.6348767" lon="9.3401133"><ele>715.4</ele><time>2026-04-04T09:29:54.6Z</time></trkpt><trkpt lat="44.6347917" lon="9.340075"><ele>712.6</ele><time>2026-04-04T09:29:56.601Z</time></trkpt><trkpt lat="44.6346983" lon="9.3400483"><ele>709.8</ele><time>2026-04-04T09:29:58.603Z</time></trkpt><trkpt lat="44.6345917" lon="9.34008"><ele>707.0</ele><time>2026-04-04T09:30:00.601Z</time></trkpt><trkpt lat="44.6344867" lon="9.3400933"><ele>703.75</ele><time>2026-04-04T09:30:02.601Z</time></trkpt><trkpt lat="44.634395" lon="9.3400383"><ele>700.5</ele><time>2026-04-04T09:30:04.601Z</time></trkpt><trkpt lat="44.6342983" lon="9.339965"><ele>697.25</ele><time>2026-04-04T09:30:06.6Z</time></trkpt><trkpt lat="44.6341967" lon="9.339875"><ele>694.0</ele><time>2026-04-04T09:30:08.601Z</time></trkpt><trkpt lat="44.6341033" lon="9.3397667"><ele>691.6</ele><time>2026-04-04T09:30:10.6Z</time></trkpt><trkpt lat="44.6340317" lon="9.3396567"><ele>689.2</ele><time>2026-04-04T09:30:12.6Z</time></trkpt><trkpt lat="44.6340133" lon="9.3395117"><ele>686.8000000000001</ele><time>2026-04-04T09:30:14.601Z</time></trkpt><trkpt lat="44.6340283" lon="9.3393733"><ele>684.4000000000001</ele><time>2026-04-04T09:30:16.6Z</time></trkpt><trkpt lat="44.6340317" lon="9.33925"><ele>682.0</ele><time>2026-04-04T09:30:18.602Z</time></trkpt><trkpt lat="44.6340333" lon="9.339125"><ele>682.0</ele><time>2026-04-04T09:30:21.601Z</time></trkpt><trkpt lat="44.6341" lon="9.33903"><ele>682.0</ele><time>2026-04-04T09:30:24.6Z</time></trkpt><trkpt lat="44.6341683" lon="9.3389667"><ele>682.0</ele><time>2026-04-04T09:30:26.601Z</time></trkpt><trkpt lat="44.634235" lon="9.3388683"><ele>682.0</ele><time>2026-04-04T09:30:28.603Z</time></trkpt><trkpt lat="44.634295" lon="9.3387433"><ele>682.0</ele><time>2026-04-04T09:30:30.6Z</time></trkpt><trkpt lat="44.6343683" lon="9.3386417"><ele>680.0</ele><time>2026-04-04T09:30:32.601Z</time></trkpt><trkpt lat="44.63442" lon="9.3385883"><ele>678.0</ele><time>2026-04-04T09:30:33.6Z</time></trkpt><trkpt lat="44.63449" lon="9.3384867"><ele>676.0</ele><time>2026-04-04T09:30:35.6Z</time></trkpt><trkpt lat="44.6345533" lon="9.3383767"><ele>674.0</ele><time>2026-04-04T09:30:37.601Z</time></trkpt><trkpt lat="44.63459" lon="9.3382867"><ele>672.0</ele><time>2026-04-04T09:30:39.602Z</time></trkpt><trkpt lat="44.63462" lon="9.3381917"><ele>670.0</ele><time>2026-04-04T09:30:41.599Z</time></trkpt><trkpt lat="44.6346467" lon="9.33811"><ele>666.8333333333334</ele><time>2026-04-04T09:30:43.599Z</time></trkpt><trkpt lat="44.6346933" lon="9.3379967"><ele>663.6666666666667</ele><time>2026-04-04T09:30:46.599Z</time></trkpt><trkpt lat="44.63473" lon="9.33788"><ele>660.5</ele><time>2026-04-04T09:30:49.599Z</time></trkpt><trkpt lat="44.6347183" lon="9.3377767"><ele>657.3333333333334</ele><time>2026-04-04T09:30:51.599Z</time></trkpt><trkpt lat="44.6347083" lon="9.3376817"><ele>654.1666666666666</ele><time>2026-04-04T09:30:52.6Z</time></trkpt><trkpt lat="44.634675" lon="9.33752"><ele>651.0</ele><time>2026-04-04T09:30:54.601Z</time></trkpt><trkpt lat="44.634645" lon="9.3373867"><ele>651.0</ele><time>2026-04-04T09:30:56.601Z</time></trkpt><trkpt lat="44.6346229" lon="9.3372628"><ele>651.0</ele><time>2026-04-04T09:30:58.601Z</time></trkpt><trkpt lat="44.6346027" lon="9.3371393"><ele>651.0</ele><time>2026-04-04T09:31:00.599Z</time></trkpt><trkpt lat="44.6346047" lon="9.3369987"><ele>651.0</ele><time>2026-04-04T09:31:02.601Z</time></trkpt><trkpt lat="44.6346255" lon="9.3368388"><ele>651.0</ele><time>2026-04-04T09:31:04.601Z</time></trkpt><trkpt lat="44.6346224" lon="9.3367007"><ele>647.1999999999999</ele><time>2026-04-04T09:31:06.601Z</time></trkpt><trkpt lat="44.6346421" lon="9.3365765"><ele>643.4</ele><time>2026-04-04T09:31:08.6Z</time></trkpt><trkpt lat="44.6346822" lon="9.3364493"><ele>639.6</ele><time>2026-04-04T09:31:10.6Z</time></trkpt><trkpt lat="44.6347311" lon="9.3363166"><ele>635.8</ele><time>2026-04-04T09:31:12.601Z</time></trkpt><trkpt lat="44.6347977" lon="9.3361964"><ele>632.0</ele><time>2026-04-04T09:31:14.601Z</time></trkpt><trkpt lat="44.6348459" lon="9.3360933"><ele>630.0</ele><time>2026-04-04T09:31:16.6Z</time></trkpt><trkpt lat="44.6348767" lon="9.3359933"><ele>628.0</ele><time>2026-04-04T09:31:18.599Z</time></trkpt><trkpt lat="44.6349333" lon="9.3359017"><ele>626.0</ele><time>2026-04-04T09:31:20.602Z</time></trkpt><trkpt lat="44.6350083" lon="9.3358167"><ele>624.0</ele><time>2026-04-04T09:31:22.599Z</time></trkpt><trkpt lat="44.6350717" lon="9.335735"><ele>622.0</ele><time>2026-04-04T09:31:24.599Z</time></trkpt><trkpt lat="44.635125" lon="9.3356383"><ele>620.0</ele><time>2026-04-04T09:31:26.6Z</time></trkpt><trkpt lat="44.6351717" lon="9.335535"><ele>617.8</ele><time>2026-04-04T09:31:28.6Z</time></trkpt><trkpt lat="44.6352263" lon="9.3354871"><ele>615.6</ele><time>2026-04-04T09:31:43.649Z</time></trkpt><trkpt lat="44.6352743" lon="9.3353261"><ele>613.4</ele><time>2026-04-04T09:32:00.578Z</time></trkpt><trkpt lat="44.6352849" lon="9.335224"><ele>611.2</ele><time>2026-04-04T09:32:01.6Z</time></trkpt><trkpt lat="44.6352669" lon="9.3350728"><ele>609.0</ele><time>2026-04-04T09:32:03.602Z</time></trkpt><trkpt lat="44.635172" lon="9.3350004"><ele>609.0</ele><time>2026-04-04T09:32:06.6Z</time></trkpt><trkpt lat="44.6351041" lon="9.334998"><ele>609.0</ele><time>2026-04-04T09:32:07.601Z</time></trkpt><trkpt lat="44.6350262" lon="9.3350062"><ele>609.0</ele><time>2026-04-04T09:32:08.601Z</time></trkpt><trkpt lat="44.6349494" lon="9.3350174"><ele>609.0</ele><time>2026-04-04T09:32:09.601Z</time></trkpt><trkpt lat="44.6348777" lon="9.3350304"><ele>609.0</ele><time>2026-04-04T09:32:10.601Z</time></trkpt><trkpt lat="44.6348051" lon="9.3350483"><ele>609.0</ele><time>2026-04-04T09:32:11.601Z</time></trkpt><trkpt lat="44.6347288" lon="9.3350735"><ele>609.0</ele><time>2026-04-04T09:32:12.601Z</time></trkpt><trkpt lat="44.6346542" lon="9.335094"><ele>609.0</ele><time>2026-04-04T09:32:13.601Z</time></trkpt><trkpt lat="44.6345814" lon="9.3351077"><ele>609.0</ele><time>2026-04-04T09:32:14.601Z</time></trkpt><trkpt lat="44.6345081" lon="9.3351366"><ele>609.0</ele><time>2026-04-04T09:32:15.601Z</time></trkpt><trkpt lat="44.6344372" lon="9.3351855"><ele>609.0</ele><time>2026-04-04T09:32:16.6Z</time></trkpt><trkpt lat="44.6343682" lon="9.3352444"><ele>609.0</ele><time>2026-04-04T09:32:17.601Z</time></trkpt><trkpt lat="44.6342975" lon="9.3353022"><ele>609.0</ele><time>2026-04-04T09:32:18.6Z</time></trkpt><trkpt lat="44.6342337" lon="9.3353434"><ele>607.8333333333334</ele><time>2026-04-04T09:32:19.6Z</time></trkpt><trkpt lat="44.6341038" lon="9.3354039"><ele>606.6666666666666</ele><time>2026-04-04T09:32:21.6Z</time></trkpt><trkpt lat="44.6340307" lon="9.3354434"><ele>605.5</ele><time>2026-04-04T09:32:22.6Z</time></trkpt><trkpt lat="44.6339615" lon="9.335488"><ele>604.3333333333333</ele><time>2026-04-04T09:32:23.6Z</time></trkpt><trkpt lat="44.6339014" lon="9.335538"><ele>603.1666666666666</ele><time>2026-04-04T09:32:24.6Z</time></trkpt><trkpt lat="44.633855" lon="9.3355979"><ele>602.0</ele><time>2026-04-04T09:32:25.599Z</time></trkpt><trkpt lat="44.6337867" lon="9.3357622"><ele>602.0</ele><time>2026-04-04T09:32:27.6Z</time></trkpt><trkpt lat="44.6337538" lon="9.3358516"><ele>602.0</ele><time>2026-04-04T09:32:28.601Z</time></trkpt><trkpt lat="44.6337066" lon="9.3360082"><ele>602.0</ele><time>2026-04-04T09:32:30.599Z</time></trkpt><trkpt lat="44.6336419" lon="9.3361388"><ele>602.0</ele><time>2026-04-04T09:32:32.601Z</time></trkpt><trkpt lat="44.6335708" lon="9.3362197"><ele>602.0</ele><time>2026-04-04T09:32:34.601Z</time></trkpt><trkpt lat="44.6334497" lon="9.3362538"><ele>597.8000000000001</ele><time>2026-04-04T09:32:36.6Z</time></trkpt><trkpt lat="44.6333366" lon="9.3362259"><ele>593.6</ele><time>2026-04-04T09:32:38.601Z</time></trkpt><trkpt lat="44.6332898" lon="9.3360507"><ele>589.4000000000001</ele><time>2026-04-04T09:32:40.601Z</time></trkpt><trkpt lat="44.6332855" lon="9.3359267"><ele>585.2</ele><time>2026-04-04T09:32:41.601Z</time></trkpt><trkpt lat="44.6332856" lon="9.3358081"><ele>581.0</ele><time>2026-04-04T09:32:42.6Z</time></trkpt><trkpt lat="44.6332872" lon="9.3356924"><ele>581.0</ele><time>2026-04-04T09:32:43.602Z</time></trkpt><trkpt lat="44.6332631" lon="9.3355914"><ele>581.0</ele><time>2026-04-04T09:32:44.601Z</time></trkpt><trkpt lat="44.6332108" lon="9.3354894"><ele>581.0</ele><time>2026-04-04T09:32:45.6Z</time></trkpt><trkpt lat="44.6331358" lon="9.3353844"><ele>581.0</ele><time>2026-04-04T09:32:46.599Z</time></trkpt><trkpt lat="44.6330488" lon="9.3352892"><ele>581.0</ele><time>2026-04-04T09:32:47.601Z</time></trkpt><trkpt lat="44.6329629" lon="9.3351986"><ele>579.1666666666666</ele><time>2026-04-04T09:32:48.6Z</time></trkpt><trkpt lat="44.6328825" lon="9.3351118"><ele>577.3333333333333</ele><time>2026-04-04T09:32:49.601Z</time></trkpt><trkpt lat="44.6328139" lon="9.3350227"><ele>575.5</ele><time>2026-04-04T09:32:50.601Z</time></trkpt><trkpt lat="44.6327589" lon="9.3349319"><ele>573.6666666666666</ele><time>2026-04-04T09:32:51.601Z</time></trkpt><trkpt lat="44.63271" lon="9.33485"><ele>571.8333333333334</ele><time>2026-04-04T09:32:52.599Z</time></trkpt><trkpt lat="44.6326517" lon="9.334785"><ele>570.0</ele><time>2026-04-04T09:32:53.6Z</time></trkpt><trkpt lat="44.632585" lon="9.3347333"><ele>570.0</ele><time>2026-04-04T09:32:54.601Z</time></trkpt><trkpt lat="44.6325183" lon="9.3346833"><ele>570.0</ele><time>2026-04-04T09:32:55.601Z</time></trkpt><trkpt lat="44.6324483" lon="9.3346417"><ele>570.0</ele><time>2026-04-04T09:32:56.602Z</time></trkpt><trkpt lat="44.6323767" lon="9.3346083"><ele>570.0</ele><time>2026-04-04T09:32:57.601Z</time></trkpt><trkpt lat="44.6323067" lon="9.334605"><ele>570.0</ele><time>2026-04-04T09:32:58.604Z</time></trkpt><trkpt lat="44.632255" lon="9.334665"><ele>570.0</ele><time>2026-04-04T09:32:59.599Z</time></trkpt><trkpt lat="44.6322067" lon="9.3347467"><ele>570.0</ele><time>2026-04-04T09:33:00.601Z</time></trkpt><trkpt lat="44.6321883" lon="9.3348633"><ele>570.0</ele><time>2026-04-04T09:33:01.601Z</time></trkpt><trkpt lat="44.632185" lon="9.3349883"><ele>570.0</ele><time>2026-04-04T09:33:02.601Z</time></trkpt><trkpt lat="44.6321833" lon="9.3351083"><ele>570.0</ele><time>2026-04-04T09:33:03.601Z</time></trkpt><trkpt lat="44.6322067" lon="9.3352433"><ele>570.0</ele><time>2026-04-04T09:33:04.601Z</time></trkpt><trkpt lat="44.63222" lon="9.33536"><ele>570.0</ele><time>2026-04-04T09:33:05.601Z</time></trkpt><trkpt lat="44.6322267" lon="9.3354717"><ele>570.0</ele><time>2026-04-04T09:33:06.601Z</time></trkpt><trkpt lat="44.6322117" lon="9.3356333"><ele>571.6666666666666</ele><time>2026-04-04T09:33:08.603Z</time></trkpt><trkpt lat="44.6321317" lon="9.3357733"><ele>573.3333333333334</ele><time>2026-04-04T09:33:10.602Z</time></trkpt><trkpt lat="44.6320833" lon="9.3358583"><ele>575.0</ele><time>2026-04-04T09:33:11.601Z</time></trkpt><trkpt lat="44.632035" lon="9.3359317"><ele>576.6666666666667</ele><time>2026-04-04T09:33:12.601Z</time></trkpt><trkpt lat="44.6319867" lon="9.335995"><ele>578.3333333333334</ele><time>2026-04-04T09:33:13.601Z</time></trkpt><trkpt lat="44.6319283" lon="9.3360533"><ele>580.0</ele><time>2026-04-04T09:33:14.6Z</time></trkpt><trkpt lat="44.6318517" lon="9.336125"><ele>577.5</ele><time>2026-04-04T09:33:15.601Z</time></trkpt><trkpt lat="44.631775" lon="9.3362033"><ele>575.0</ele><time>2026-04-04T09:33:16.601Z</time></trkpt><trkpt lat="44.6317217" lon="9.3362567"><ele>572.5</ele><time>2026-04-04T09:33:17.601Z</time></trkpt><trkpt lat="44.6316633" lon="9.3363017"><ele>570.0</ele><time>2026-04-04T09:33:18.6Z</time></trkpt><trkpt lat="44.6315917" lon="9.3363367"><ele>567.5</ele><time>2026-04-04T09:33:20.601Z</time></trkpt><trkpt lat="44.6314883" lon="9.33638"><ele>565.0</ele><time>2026-04-04T09:33:29.601Z</time></trkpt><trkpt lat="44.6314267" lon="9.33646"><ele>565.0</ele><time>2026-04-04T09:33:32.6Z</time></trkpt><trkpt lat="44.63134" lon="9.3365483"><ele>565.0</ele><time>2026-04-04T09:33:34.601Z</time></trkpt><trkpt lat="44.6312867" lon="9.3366067"><ele>565.0</ele><time>2026-04-04T09:33:35.601Z</time></trkpt><trkpt lat="44.6312267" lon="9.33667"><ele>565.0</ele><time>2026-04-04T09:33:36.601Z</time></trkpt><trkpt lat="44.6311667" lon="9.3367317"><ele>565.0</ele><time>2026-04-04T09:33:37.601Z</time></trkpt><trkpt lat="44.6310983" lon="9.3367833"><ele>565.0</ele><time>2026-04-04T09:33:38.601Z</time></trkpt><trkpt lat="44.6310167" lon="9.33682"><ele>561.4</ele><time>2026-04-04T09:33:39.601Z</time></trkpt><trkpt lat="44.6309267" lon="9.3368317"><ele>557.8</ele><time>2026-04-04T09:33:40.601Z</time></trkpt><trkpt lat="44.63083" lon="9.3368217"><ele>554.2</ele><time>2026-04-04T09:33:41.6Z</time></trkpt><trkpt lat="44.63074" lon="9.33682"><ele>550.6</ele><time>2026-04-04T09:33:42.599Z</time></trkpt><trkpt lat="44.6306517" lon="9.3368667"><ele>547.0</ele><time>2026-04-04T09:33:43.6Z</time></trkpt><trkpt lat="44.6305767" lon="9.3369583"><ele>547.0</ele><time>2026-04-04T09:33:44.6Z</time></trkpt><trkpt lat="44.6305017" lon="9.337085"><ele>547.0</ele><time>2026-04-04T09:33:45.601Z</time></trkpt><trkpt lat="44.6304333" lon="9.33724"><ele>547.0</ele><time>2026-04-04T09:33:46.6Z</time></trkpt><trkpt lat="44.6303733" lon="9.3374017"><ele>547.0</ele><time>2026-04-04T09:33:47.6Z</time></trkpt><trkpt lat="44.630305" lon="9.3375467"><ele>543.75</ele><time>2026-04-04T09:33:48.601Z</time></trkpt><trkpt lat="44.63024" lon="9.33768"><ele>540.5</ele><time>2026-04-04T09:33:49.599Z</time></trkpt><trkpt lat="44.6301867" lon="9.3378133"><ele>537.25</ele><time>2026-04-04T09:33:50.601Z</time></trkpt><trkpt lat="44.6301683" lon="9.3379667"><ele>534.0</ele><time>2026-04-04T09:33:51.6Z</time></trkpt><trkpt lat="44.630185" lon="9.3381333"><ele>534.0</ele><time>2026-04-04T09:33:52.599Z</time></trkpt><trkpt lat="44.6302333" lon="9.3382917"><ele>534.0</ele><time>2026-04-04T09:33:53.601Z</time></trkpt><trkpt lat="44.6302933" lon="9.3384383"><ele>534.0</ele><time>2026-04-04T09:33:54.601Z</time></trkpt><trkpt lat="44.6303317" lon="9.3385717"><ele>534.0</ele><time>2026-04-04T09:33:55.601Z</time></trkpt><trkpt lat="44.63033" lon="9.3387033"><ele>534.0</ele><time>2026-04-04T09:33:56.601Z</time></trkpt><trkpt lat="44.6302983" lon="9.33882"><ele>535.75</ele><time>2026-04-04T09:33:57.6Z</time></trkpt><trkpt lat="44.63022" lon="9.3389333"><ele>537.5</ele><time>2026-04-04T09:33:58.6Z</time></trkpt><trkpt lat="44.6301233" lon="9.339035"><ele>539.25</ele><time>2026-04-04T09:33:59.601Z</time></trkpt><trkpt lat="44.63002" lon="9.33912"><ele>541.0</ele><time>2026-04-04T09:34:00.601Z</time></trkpt><trkpt lat="44.6299233" lon="9.3391833"><ele>541.0</ele><time>2026-04-04T09:34:01.6Z</time></trkpt><trkpt lat="44.6298283" lon="9.3392067"><ele>541.0</ele><time>2026-04-04T09:34:02.6Z</time></trkpt><trkpt lat="44.6297433" lon="9.3391683"><ele>541.0</ele><time>2026-04-04T09:34:03.6Z</time></trkpt><trkpt lat="44.629675" lon="9.3390717"><ele>541.0</ele><time>2026-04-04T09:34:04.6Z</time></trkpt><trkpt lat="44.6296317" lon="9.338935"><ele>541.0</ele><time>2026-04-04T09:34:05.6Z</time></trkpt><trkpt lat="44.62962" lon="9.3387833"><ele>539.25</ele><time>2026-04-04T09:34:06.601Z</time></trkpt><trkpt lat="44.6296433" lon="9.3386317"><ele>537.5</ele><time>2026-04-04T09:34:07.601Z</time></trkpt><trkpt lat="44.6296917" lon="9.338475"><ele>535.75</ele><time>2026-04-04T09:34:08.6Z</time></trkpt><trkpt lat="44.6297433" lon="9.3383067"><ele>534.0</ele><time>2026-04-04T09:34:09.6Z</time></trkpt><trkpt lat="44.6297817" lon="9.3381367"><ele>532.8</ele><time>2026-04-04T09:34:10.601Z</time></trkpt><trkpt lat="44.6298083" lon="9.3379667"><ele>531.5999999999999</ele><time>2026-04-04T09:34:11.603Z</time></trkpt><trkpt lat="44.62983" lon="9.337805"><ele>530.4</ele><time>2026-04-04T09:34:12.601Z</time></trkpt><trkpt lat="44.6298433" lon="9.33766"><ele>529.1999999999999</ele><time>2026-04-04T09:34:13.6Z</time></trkpt><trkpt lat="44.6298383" lon="9.3375417"><ele>528.0</ele><time>2026-04-04T09:34:14.601Z</time></trkpt><trkpt lat="44.62982" lon="9.3374417"><ele>528.0</ele><time>2026-04-04T09:34:15.601Z</time></trkpt><trkpt lat="44.62971" lon="9.3374117"><ele>528.0</ele><time>2026-04-04T09:34:17.602Z</time></trkpt><trkpt lat="44.629655" lon="9.3374683"><ele>528.0</ele><time>2026-04-04T09:34:18.601Z</time></trkpt><trkpt lat="44.62961" lon="9.33756"><ele>528.0</ele><time>2026-04-04T09:34:19.6Z</time></trkpt><trkpt lat="44.6295617" lon="9.337655"><ele>528.0</ele><time>2026-04-04T09:34:20.601Z</time></trkpt><trkpt lat="44.629505" lon="9.3377267"><ele>528.0</ele><time>2026-04-04T09:34:21.6Z</time></trkpt><trkpt lat="44.6294017" lon="9.3376483"><ele>528.0</ele><time>2026-04-04T09:34:23.599Z</time></trkpt><trkpt lat="44.6293883" lon="9.3375433"><ele>528.0</ele><time>2026-04-04T09:34:24.601Z</time></trkpt><trkpt lat="44.6294233" lon="9.3374317"><ele>528.0</ele><time>2026-04-04T09:34:25.6Z</time></trkpt><trkpt lat="44.6294817" lon="9.3373267"><ele>528.0</ele><time>2026-04-04T09:34:26.601Z</time></trkpt><trkpt lat="44.629545" lon="9.33722"><ele>528.0</ele><time>2026-04-04T09:34:27.601Z</time></trkpt><trkpt lat="44.6296117" lon="9.3371083"><ele>525.8</ele><time>2026-04-04T09:34:28.601Z</time></trkpt><trkpt lat="44.6296783" lon="9.3369967"><ele>523.5999999999999</ele><time>2026-04-04T09:34:29.602Z</time></trkpt><trkpt lat="44.62975" lon="9.33689"><ele>521.4000000000001</ele><time>2026-04-04T09:34:30.601Z</time></trkpt><trkpt lat="44.6298217" lon="9.3367967"><ele>519.2</ele><time>2026-04-04T09:34:31.606Z</time></trkpt><trkpt lat="44.629895" lon="9.3367117"><ele>517.0</ele><time>2026-04-04T09:34:32.601Z</time></trkpt><trkpt lat="44.62997" lon="9.3366267"><ele>517.0</ele><time>2026-04-04T09:34:33.601Z</time></trkpt><trkpt lat="44.6300367" lon="9.336535"><ele>517.0</ele><time>2026-04-04T09:34:34.601Z</time></trkpt><trkpt lat="44.6300933" lon="9.336435"><ele>517.0</ele><time>2026-04-04T09:34:35.6Z</time></trkpt><trkpt lat="44.6301367" lon="9.3363217"><ele>517.0</ele><time>2026-04-04T09:34:36.601Z</time></trkpt><trkpt lat="44.63017" lon="9.3362017"><ele>517.0</ele><time>2026-04-04T09:34:37.601Z</time></trkpt><trkpt lat="44.6301967" lon="9.336085"><ele>515.5</ele><time>2026-04-04T09:34:38.601Z</time></trkpt><trkpt lat="44.6302117" lon="9.33597"><ele>514.0</ele><time>2026-04-04T09:34:39.6Z</time></trkpt><trkpt lat="44.630215" lon="9.3358533"><ele>512.5</ele><time>2026-04-04T09:34:40.601Z</time></trkpt><trkpt lat="44.6301967" lon="9.335735"><ele>511.0</ele><time>2026-04-04T09:34:41.6Z</time></trkpt><trkpt lat="44.630155" lon="9.3356333"><ele>509.50000000000006</ele><time>2026-04-04T09:34:42.603Z</time></trkpt><trkpt lat="44.630095" lon="9.3355517"><ele>508.0</ele><time>2026-04-04T09:34:43.601Z</time></trkpt><trkpt lat="44.6300217" lon="9.3354967"><ele>507.14285714285717</ele><time>2026-04-04T09:34:44.6Z</time></trkpt><trkpt lat="44.62994" lon="9.3354667"><ele>506.2857142857142</ele><time>2026-04-04T09:34:45.601Z</time></trkpt><trkpt lat="44.6298767" lon="9.33544"><ele>505.4285714285714</ele><time>2026-04-04T09:34:46.601Z</time></trkpt><trkpt lat="44.6298" lon="9.3354017"><ele>504.57142857142856</ele><time>2026-04-04T09:34:48.6Z</time></trkpt><trkpt lat="44.6297533" lon="9.335325"><ele>503.71428571428567</ele><time>2026-04-04T09:34:51.601Z</time></trkpt><trkpt lat="44.6297233" lon="9.3352367"><ele>502.8571428571428</ele><time>2026-04-04T09:34:56.603Z</time></trkpt><trkpt lat="44.6297017" lon="9.3351367"><ele>501.99999999999994</ele><time>2026-04-04T09:34:58.601Z</time></trkpt><trkpt lat="44.6296583" lon="9.3349567"><ele>502.00000000000006</ele><time>2026-04-04T09:35:00.6Z</time></trkpt><trkpt lat="44.6296167" lon="9.3348517"><ele>502.0</ele><time>2026-04-04T09:35:01.601Z</time></trkpt><trkpt lat="44.62957" lon="9.3347533"><ele>502.0</ele><time>2026-04-04T09:35:02.601Z</time></trkpt><trkpt lat="44.6295217" lon="9.3346583"><ele>502.0</ele><time>2026-04-04T09:35:03.601Z</time></trkpt><trkpt lat="44.6294767" lon="9.334565"><ele>502.00000000000006</ele><time>2026-04-04T09:35:04.601Z</time></trkpt><trkpt lat="44.6294417" lon="9.3344767"><ele>502.0</ele><time>2026-04-04T09:35:05.601Z</time></trkpt><trkpt lat="44.6293833" lon="9.3343483"><ele>499.33333333333337</ele><time>2026-04-04T09:35:07.602Z</time></trkpt><trkpt lat="44.629285" lon="9.3343033"><ele>496.6666666666667</ele><time>2026-04-04T09:35:09.601Z</time></trkpt><trkpt lat="44.62921" lon="9.334305"><ele>494.0</ele><time>2026-04-04T09:35:10.601Z</time></trkpt><trkpt lat="44.6291283" lon="9.3343183"><ele>491.33333333333337</ele><time>2026-04-04T09:35:11.601Z</time></trkpt><trkpt lat="44.6290483" lon="9.3343317"><ele>488.6666666666667</ele><time>2026-04-04T09:35:12.601Z</time></trkpt><trkpt lat="44.6289767" lon="9.3343333"><ele>486.0</ele><time>2026-04-04T09:35:13.6Z</time></trkpt><trkpt lat="44.6289133" lon="9.33433"><ele>486.0</ele><time>2026-04-04T09:35:14.601Z</time></trkpt><trkpt lat="44.6287933" lon="9.3343233"><ele>486.0</ele><time>2026-04-04T09:35:16.601Z</time></trkpt><trkpt lat="44.6287283" lon="9.3343583"><ele>486.0</ele><time>2026-04-04T09:35:17.601Z</time></trkpt><trkpt lat="44.62867" lon="9.3344133"><ele>486.0</ele><time>2026-04-04T09:35:18.6Z</time></trkpt><trkpt lat="44.6286133" lon="9.3344683"><ele>486.0</ele><time>2026-04-04T09:35:19.601Z</time></trkpt><trkpt lat="44.6285583" lon="9.33452"><ele>486.0</ele><time>2026-04-04T09:35:20.602Z</time></trkpt><trkpt lat="44.6285" lon="9.3345683"><ele>486.0</ele><time>2026-04-04T09:35:21.601Z</time></trkpt><trkpt lat="44.62838" lon="9.33461"><ele>486.0</ele><time>2026-04-04T09:35:23.602Z</time></trkpt><trkpt lat="44.6282767" lon="9.3345567"><ele>486.0</ele><time>2026-04-04T09:35:25.6Z</time></trkpt><trkpt lat="44.6282217" lon="9.3344067"><ele>486.0</ele><time>2026-04-04T09:35:27.6Z</time></trkpt><trkpt lat="44.6282117" lon="9.33424"><ele>486.0</ele><time>2026-04-04T09:35:29.601Z</time></trkpt><trkpt lat="44.6282217" lon="9.3340817"><ele>486.0</ele><time>2026-04-04T09:35:31.6Z</time></trkpt><trkpt lat="44.6282217" lon="9.3339217"><ele>486.0</ele><time>2026-04-04T09:35:33.601Z</time></trkpt><trkpt lat="44.6281983" lon="9.3337583"><ele>486.0</ele><time>2026-04-04T09:35:35.602Z</time></trkpt><trkpt lat="44.62819" lon="9.3336683"><ele>486.0</ele><time>2026-04-04T09:35:36.601Z</time></trkpt><trkpt lat="44.6281817" lon="9.3335033"><ele>485.1666666666667</ele><time>2026-04-04T09:35:38.601Z</time></trkpt><trkpt lat="44.6282133" lon="9.3333717"><ele>484.33333333333337</ele><time>2026-04-04T09:35:40.601Z</time></trkpt><trkpt lat="44.6282867" lon="9.3333217"><ele>483.5</ele><time>2026-04-04T09:35:42.601Z</time></trkpt><trkpt lat="44.62835" lon="9.3333267"><ele>482.6666666666667</ele><time>2026-04-04T09:35:44.6Z</time></trkpt><trkpt lat="44.6284233" lon="9.33336"><ele>481.83333333333337</ele><time>2026-04-04T09:35:48.602Z</time></trkpt><trkpt lat="44.6285317" lon="9.33331"><ele>481.0</ele><time>2026-04-04T09:46:45.601Z</time></trkpt><trkpt lat="44.6285867" lon="9.3332433"><ele>481.00000000000006</ele><time>2026-04-04T09:46:48.601Z</time></trkpt><trkpt lat="44.6285" lon="9.3332133"><ele>481.0</ele><time>2026-04-04T09:46:57.601Z</time></trkpt><trkpt lat="44.62842" lon="9.3332067"><ele>481.0</ele><time>2026-04-04T09:46:59.601Z</time></trkpt><trkpt lat="44.6283233" lon="9.3331717"><ele>481.0</ele><time>2026-04-04T09:47:01.601Z</time></trkpt><trkpt lat="44.62823" lon="9.3331117"><ele>481.00000000000006</ele><time>2026-04-04T09:47:03.601Z</time></trkpt><trkpt lat="44.6281683" lon="9.3330717"><ele>481.0</ele><time>2026-04-04T09:47:04.601Z</time></trkpt><trkpt lat="44.6280833" lon="9.3330333"><ele>479.4</ele><time>2026-04-04T09:47:05.601Z</time></trkpt><trkpt lat="44.6279867" lon="9.3330033"><ele>477.8</ele><time>2026-04-04T09:47:06.601Z</time></trkpt><trkpt lat="44.6278917" lon="9.3329833"><ele>476.19999999999993</ele><time>2026-04-04T09:47:07.601Z</time></trkpt><trkpt lat="44.6277917" lon="9.3329733"><ele>474.59999999999997</ele><time>2026-04-04T09:47:08.6Z</time></trkpt><trkpt lat="44.6276867" lon="9.332965"><ele>473.0</ele><time>2026-04-04T09:47:09.601Z</time></trkpt><trkpt lat="44.627575" lon="9.3329533"><ele>473.0</ele><time>2026-04-04T09:47:10.6Z</time></trkpt><trkpt lat="44.627455" lon="9.3329417"><ele>473.0</ele><time>2026-04-04T09:47:11.601Z</time></trkpt><trkpt lat="44.627335" lon="9.3329233"><ele>473.0</ele><time>2026-04-04T09:47:12.601Z</time></trkpt><trkpt lat="44.6272167" lon="9.3329017"><ele>473.0</ele><time>2026-04-04T09:47:13.6Z</time></trkpt><trkpt lat="44.6270983" lon="9.332875"><ele>474.5</ele><time>2026-04-04T09:47:14.601Z</time></trkpt><trkpt lat="44.626965" lon="9.332845"><ele>476.0</ele><time>2026-04-04T09:47:15.599Z</time></trkpt><trkpt lat="44.62683" lon="9.3328133"><ele>477.5</ele><time>2026-04-04T09:47:16.601Z</time></trkpt><trkpt lat="44.6266933" lon="9.3327767"><ele>479.0</ele><time>2026-04-04T09:47:17.601Z</time></trkpt><trkpt lat="44.6265583" lon="9.3327367"><ele>479.0</ele><time>2026-04-04T09:47:18.601Z</time></trkpt><trkpt lat="44.626425" lon="9.33269"><ele>479.0</ele><time>2026-04-04T09:47:19.602Z</time></trkpt><trkpt lat="44.6262933" lon="9.3326383"><ele>479.0</ele><time>2026-04-04T09:47:20.601Z</time></trkpt><trkpt lat="44.6261617" lon="9.3325833"><ele>479.0</ele><time>2026-04-04T09:47:21.601Z</time></trkpt><trkpt lat="44.6260317" lon="9.3325233"><ele>477.75</ele><time>2026-04-04T09:47:22.601Z</time></trkpt><trkpt lat="44.6259033" lon="9.33246"><ele>476.5</ele><time>2026-04-04T09:47:23.6Z</time></trkpt><trkpt lat="44.62578" lon="9.3324"><ele>475.25</ele><time>2026-04-04T09:47:24.601Z</time></trkpt><trkpt lat="44.6256583" lon="9.3323367"><ele>474.0</ele><time>2026-04-04T09:47:25.601Z</time></trkpt><trkpt lat="44.6255383" lon="9.3322717"><ele>475.5</ele><time>2026-04-04T09:47:26.6Z</time></trkpt><trkpt lat="44.6254167" lon="9.3322017"><ele>477.0</ele><time>2026-04-04T09:47:27.599Z</time></trkpt><trkpt lat="44.62529" lon="9.33213"><ele>478.5</ele><time>2026-04-04T09:47:28.601Z</time></trkpt><trkpt lat="44.6251617" lon="9.33206"><ele>480.0</ele><time>2026-04-04T09:47:29.601Z</time></trkpt><trkpt lat="44.6250317" lon="9.331995"><ele>480.0</ele><time>2026-04-04T09:47:30.6Z</time></trkpt><trkpt lat="44.6249067" lon="9.331925"><ele>480.0</ele><time>2026-04-04T09:47:31.601Z</time></trkpt><trkpt lat="44.6247867" lon="9.331855"><ele>480.0</ele><time>2026-04-04T09:47:32.601Z</time></trkpt><trkpt lat="44.6246667" lon="9.3317867"><ele>480.0</ele><time>2026-04-04T09:47:33.6Z</time></trkpt><trkpt lat="44.6245533" lon="9.331725"><ele>480.4</ele><time>2026-04-04T09:47:34.6Z</time></trkpt><trkpt lat="44.624445" lon="9.3316683"><ele>480.8</ele><time>2026-04-04T09:47:35.601Z</time></trkpt><trkpt lat="44.624345" lon="9.3316133"><ele>481.20000000000005</ele><time>2026-04-04T09:47:36.601Z</time></trkpt><trkpt lat="44.624255" lon="9.331565"><ele>481.6</ele><time>2026-04-04T09:47:37.601Z</time></trkpt><trkpt lat="44.6241717" lon="9.3315217"><ele>482.0</ele><time>2026-04-04T09:47:38.601Z</time></trkpt><trkpt lat="44.6240933" lon="9.331485"><ele>481.99999999999994</ele><time>2026-04-04T09:47:39.601Z</time></trkpt><trkpt lat="44.62402" lon="9.33147"><ele>482.0</ele><time>2026-04-04T09:47:40.599Z</time></trkpt><trkpt lat="44.6239567" lon="9.3314833"><ele>482.0</ele><time>2026-04-04T09:47:41.602Z</time></trkpt><trkpt lat="44.623885" lon="9.3315867"><ele>482.0</ele><time>2026-04-04T09:47:43.602Z</time></trkpt><trkpt lat="44.623875" lon="9.3316783"><ele>481.99999999999994</ele><time>2026-04-04T09:47:44.602Z</time></trkpt><trkpt lat="44.6238767" lon="9.331795"><ele>482.0</ele><time>2026-04-04T09:47:45.601Z</time></trkpt><trkpt lat="44.6238683" lon="9.3319"><ele>482.0</ele><time>2026-04-04T09:47:46.6Z</time></trkpt><trkpt lat="44.6238483" lon="9.3319967"><ele>482.00000000000006</ele><time>2026-04-04T09:47:47.6Z</time></trkpt><trkpt lat="44.6237883" lon="9.3321267"><ele>482.00000000000006</ele><time>2026-04-04T09:47:49.601Z</time></trkpt><trkpt lat="44.62376" lon="9.332275"><ele>482.0</ele><time>2026-04-04T09:47:52.601Z</time></trkpt><trkpt lat="44.6237867" lon="9.3324233"><ele>482.0</ele><time>2026-04-04T09:47:54.601Z</time></trkpt><trkpt lat="44.6238" lon="9.3325767"><ele>481.99999999999994</ele><time>2026-04-04T09:47:56.602Z</time></trkpt><trkpt lat="44.6237817" lon="9.3327567"><ele>482.0</ele><time>2026-04-04T09:47:58.6Z</time></trkpt><trkpt lat="44.6237633" lon="9.332855"><ele>482.0</ele><time>2026-04-04T09:47:59.601Z</time></trkpt><trkpt lat="44.6237367" lon="9.3329583"><ele>482.0</ele><time>2026-04-04T09:48:00.602Z</time></trkpt><trkpt lat="44.6237083" lon="9.3330617"><ele>481.99999999999994</ele><time>2026-04-04T09:48:01.601Z</time></trkpt><trkpt lat="44.6236783" lon="9.33316"><ele>482.0</ele><time>2026-04-04T09:48:02.6Z</time></trkpt><trkpt lat="44.6236483" lon="9.333255"><ele>483.8333333333333</ele><time>2026-04-04T09:48:03.601Z</time></trkpt><trkpt lat="44.6236233" lon="9.333355"><ele>485.66666666666663</ele><time>2026-04-04T09:48:04.601Z</time></trkpt><trkpt lat="44.6235983" lon="9.33345"><ele>487.5</ele><time>2026-04-04T09:48:05.601Z</time></trkpt><trkpt lat="44.6235567" lon="9.3335983"><ele>489.33333333333337</ele><time>2026-04-04T09:48:07.6Z</time></trkpt><trkpt lat="44.6234933" lon="9.33366"><ele>491.1666666666667</ele><time>2026-04-04T09:48:09.601Z</time></trkpt><trkpt lat="44.6234017" lon="9.333645"><ele>493.0</ele><time>2026-04-04T09:48:11.601Z</time></trkpt><trkpt lat="44.623285" lon="9.333595"><ele>493.0</ele><time>2026-04-04T09:48:13.6Z</time></trkpt><trkpt lat="44.623195" lon="9.33355"><ele>492.99999999999994</ele><time>2026-04-04T09:48:15.601Z</time></trkpt><trkpt lat="44.6231283" lon="9.33349"><ele>492.99999999999994</ele><time>2026-04-04T09:48:17.602Z</time></trkpt><trkpt lat="44.623075" lon="9.3333967"><ele>493.0</ele><time>2026-04-04T09:48:19.6Z</time></trkpt><trkpt lat="44.623025" lon="9.333265"><ele>493.0</ele><time>2026-04-04T09:48:21.602Z</time></trkpt><trkpt lat="44.62296" lon="9.33313"><ele>493.4</ele><time>2026-04-04T09:48:23.601Z</time></trkpt><trkpt lat="44.6229317" lon="9.3329783"><ele>493.79999999999995</ele><time>2026-04-04T09:48:25.6Z</time></trkpt><trkpt lat="44.62291" lon="9.3328517"><ele>494.2</ele><time>2026-04-04T09:48:27.601Z</time></trkpt><trkpt lat="44.62288" lon="9.3327217"><ele>494.6</ele><time>2026-04-04T09:48:29.601Z</time></trkpt><trkpt lat="44.6228567" lon="9.3325933"><ele>495.0</ele><time>2026-04-04T09:48:31.601Z</time></trkpt><trkpt lat="44.6228467" lon="9.33248"><ele>495.0</ele><time>2026-04-04T09:48:33.601Z</time></trkpt><trkpt lat="44.6228183" lon="9.33237"><ele>495.0</ele><time>2026-04-04T09:48:35.602Z</time></trkpt><trkpt lat="44.6228033" lon="9.3322783"><ele>495.0</ele><time>2026-04-04T09:48:37.601Z</time></trkpt><trkpt lat="44.622765" lon="9.3321683"><ele>495.0</ele><time>2026-04-04T09:48:40.599Z</time></trkpt><trkpt lat="44.6227217" lon="9.3320933"><ele>495.0</ele><time>2026-04-04T09:48:42.602Z</time></trkpt><trkpt lat="44.6226583" lon="9.332055"><ele>495.0</ele><time>2026-04-04T09:48:46.601Z</time></trkpt><trkpt lat="44.62257" lon="9.33212"><ele>494.0</ele><time>2026-04-04T09:48:49.602Z</time></trkpt><trkpt lat="44.6225017" lon="9.33217"><ele>493.0</ele><time>2026-04-04T09:48:51.6Z</time></trkpt><trkpt lat="44.622455" lon="9.33224"><ele>492.0</ele><time>2026-04-04T09:48:53.601Z</time></trkpt><trkpt lat="44.6224" lon="9.332315"><ele>491.0</ele><time>2026-04-04T09:48:55.601Z</time></trkpt><trkpt lat="44.62233" lon="9.3323817"><ele>490.0</ele><time>2026-04-04T09:48:57.6Z</time></trkpt><trkpt lat="44.62225" lon="9.3324267"><ele>489.0</ele><time>2026-04-04T09:48:59.601Z</time></trkpt><trkpt lat="44.6221817" lon="9.3325033"><ele>490.79999999999995</ele><time>2026-04-04T09:49:01.601Z</time></trkpt><trkpt lat="44.6221133" lon="9.3325933"><ele>492.59999999999997</ele><time>2026-04-04T09:49:03.601Z</time></trkpt><trkpt lat="44.62203" lon="9.3327183"><ele>494.4</ele><time>2026-04-04T09:49:05.6Z</time></trkpt><trkpt lat="44.6219783" lon="9.332795"><ele>496.2</ele><time>2026-04-04T09:49:06.601Z</time></trkpt><trkpt lat="44.6219217" lon="9.3328717"><ele>498.0</ele><time>2026-04-04T09:49:07.602Z</time></trkpt><trkpt lat="44.62186" lon="9.3329483"><ele>498.0</ele><time>2026-04-04T09:49:08.602Z</time></trkpt><trkpt lat="44.6217967" lon="9.3330083"><ele>498.0</ele><time>2026-04-04T09:49:09.601Z</time></trkpt><trkpt lat="44.6217267" lon="9.3330567"><ele>498.0</ele><time>2026-04-04T09:49:10.601Z</time></trkpt><trkpt lat="44.621655" lon="9.3330883"><ele>498.0</ele><time>2026-04-04T09:49:11.6Z</time></trkpt><trkpt lat="44.621585" lon="9.3331217"><ele>498.0</ele><time>2026-04-04T09:49:12.601Z</time></trkpt><trkpt lat="44.6215183" lon="9.333155"><ele>498.0</ele><time>2026-04-04T09:49:13.601Z</time></trkpt><trkpt lat="44.6214167" lon="9.33325"><ele>501.4</ele><time>2026-04-04T09:49:15.601Z</time></trkpt><trkpt lat="44.6213683" lon="9.3333183"><ele>504.79999999999995</ele><time>2026-04-04T09:49:16.601Z</time></trkpt><trkpt lat="44.6213217" lon="9.3333883"><ele>508.2</ele><time>2026-04-04T09:49:17.6Z</time></trkpt><trkpt lat="44.6212317" lon="9.333485"><ele>511.6</ele><time>2026-04-04T09:49:19.601Z</time></trkpt><trkpt lat="44.62111" lon="9.3335517"><ele>515.0</ele><time>2026-04-04T09:49:21.602Z</time></trkpt><trkpt lat="44.6210383" lon="9.3335783"><ele>515.5</ele><time>2026-04-04T09:49:22.6Z</time></trkpt><trkpt lat="44.6209733" lon="9.3335983"><ele>516.0</ele><time>2026-04-04T09:49:23.603Z</time></trkpt><trkpt lat="44.6208717" lon="9.3336467"><ele>516.5</ele><time>2026-04-04T09:49:25.601Z</time></trkpt><trkpt lat="44.6207583" lon="9.3337233"><ele>517.0</ele><time>2026-04-04T09:49:27.601Z</time></trkpt><trkpt lat="44.620695" lon="9.33376"><ele>517.5</ele><time>2026-04-04T09:49:28.6Z</time></trkpt><trkpt lat="44.6206267" lon="9.33379"><ele>518.0</ele><time>2026-04-04T09:49:29.602Z</time></trkpt><trkpt lat="44.6205583" lon="9.3338217"><ele>518.0</ele><time>2026-04-04T09:49:30.601Z</time></trkpt><trkpt lat="44.6204867" lon="9.3338533"><ele>518.0</ele><time>2026-04-04T09:49:31.601Z</time></trkpt><trkpt lat="44.6204167" lon="9.3338767"><ele>518.0</ele><time>2026-04-04T09:49:32.601Z</time></trkpt><trkpt lat="44.620345" lon="9.333875"><ele>518.0</ele><time>2026-04-04T09:49:33.601Z</time></trkpt><trkpt lat="44.6202767" lon="9.3338483"><ele>518.0</ele><time>2026-04-04T09:49:34.601Z</time></trkpt><trkpt lat="44.6202167" lon="9.33382"><ele>518.0</ele><time>2026-04-04T09:49:35.601Z</time></trkpt><trkpt lat="44.62012" lon="9.3338283"><ele>522.3333333333333</ele><time>2026-04-04T09:49:37.601Z</time></trkpt><trkpt lat="44.62006" lon="9.3338967"><ele>526.6666666666666</ele><time>2026-04-04T09:49:40.601Z</time></trkpt><trkpt lat="44.6200917" lon="9.3339917"><ele>531.0</ele><time>2026-04-04T09:49:44.6Z</time></trkpt><trkpt lat="44.6201183" lon="9.334075"><ele>535.3333333333334</ele><time>2026-04-04T09:49:46.601Z</time></trkpt><trkpt lat="44.6201483" lon="9.3341883"><ele>539.6666666666667</ele><time>2026-04-04T09:49:48.601Z</time></trkpt><trkpt lat="44.6201717" lon="9.3343483"><ele>544.0</ele><time>2026-04-04T09:49:50.601Z</time></trkpt><trkpt lat="44.620185" lon="9.3345333"><ele>544.0</ele><time>2026-04-04T09:49:52.601Z</time></trkpt><trkpt lat="44.62019" lon="9.3346383"><ele>544.0</ele><time>2026-04-04T09:49:53.6Z</time></trkpt><trkpt lat="44.6201983" lon="9.3347333"><ele>544.0</ele><time>2026-04-04T09:49:54.601Z</time></trkpt><trkpt lat="44.6202233" lon="9.3349067"><ele>544.0</ele><time>2026-04-04T09:49:56.602Z</time></trkpt><trkpt lat="44.6202383" lon="9.334995"><ele>544.0</ele><time>2026-04-04T09:49:57.601Z</time></trkpt><trkpt lat="44.6202667" lon="9.3351083"><ele>544.0</ele><time>2026-04-04T09:49:59.601Z</time></trkpt><trkpt lat="44.6203567" lon="9.3351683"><ele>545.0</ele><time>2026-04-04T09:50:01.6Z</time></trkpt><trkpt lat="44.6204467" lon="9.3352717"><ele>546.0</ele><time>2026-04-04T09:50:03.601Z</time></trkpt><trkpt lat="44.6204767" lon="9.3353683"><ele>547.0</ele><time>2026-04-04T09:50:04.601Z</time></trkpt><trkpt lat="44.6205017" lon="9.3354817"><ele>548.0</ele><time>2026-04-04T09:50:05.601Z</time></trkpt><trkpt lat="44.6205167" lon="9.3355783"><ele>549.0</ele><time>2026-04-04T09:50:06.6Z</time></trkpt><trkpt lat="44.6205167" lon="9.3356767"><ele>550.0</ele><time>2026-04-04T09:50:07.606Z</time></trkpt><trkpt lat="44.6205117" lon="9.335775"><ele>553.0</ele><time>2026-04-04T09:50:08.602Z</time></trkpt><trkpt lat="44.62044" lon="9.335885"><ele>556.0</ele><time>2026-04-04T09:50:10.6Z</time></trkpt><trkpt lat="44.6203517" lon="9.335915"><ele>559.0</ele><time>2026-04-04T09:50:12.6Z</time></trkpt><trkpt lat="44.620235" lon="9.335895"><ele>562.0</ele><time>2026-04-04T09:50:14.602Z</time></trkpt><trkpt lat="44.6201717" lon="9.3358533"><ele>565.0</ele><time>2026-04-04T09:50:15.6Z</time></trkpt><trkpt lat="44.62011" lon="9.33581"><ele>565.3333333333334</ele><time>2026-04-04T09:50:16.601Z</time></trkpt><trkpt lat="44.620045" lon="9.3357383"><ele>565.6666666666667</ele><time>2026-04-04T09:50:17.601Z</time></trkpt><trkpt lat="44.619985" lon="9.3356267"><ele>566.0</ele><time>2026-04-04T09:50:18.601Z</time></trkpt><trkpt lat="44.619935" lon="9.335515"><ele>566.3333333333334</ele><time>2026-04-04T09:50:19.602Z</time></trkpt><trkpt lat="44.6198883" lon="9.3354017"><ele>566.6666666666666</ele><time>2026-04-04T09:50:20.602Z</time></trkpt><trkpt lat="44.619855" lon="9.3353117"><ele>567.0</ele><time>2026-04-04T09:50:21.6Z</time></trkpt><trkpt lat="44.6197933" lon="9.3351717"><ele>567.0</ele><time>2026-04-04T09:50:23.601Z</time></trkpt><trkpt lat="44.6197467" lon="9.3352967"><ele>567.0</ele><time>2026-04-04T09:53:48.601Z</time></trkpt><trkpt lat="44.6197533" lon="9.3354833"><ele>567.0</ele><time>2026-04-04T09:53:50.6Z</time></trkpt><trkpt lat="44.6197533" lon="9.33559"><ele>567.0</ele><time>2026-04-04T09:53:51.601Z</time></trkpt><trkpt lat="44.619745" lon="9.3356983"><ele>567.0</ele><time>2026-04-04T09:53:52.599Z</time></trkpt><trkpt lat="44.6197317" lon="9.3357983"><ele>570.5</ele><time>2026-04-04T09:53:53.601Z</time></trkpt><trkpt lat="44.619725" lon="9.3358933"><ele>574.0</ele><time>2026-04-04T09:53:54.6Z</time></trkpt><trkpt lat="44.619725" lon="9.3359967"><ele>577.5</ele><time>2026-04-04T09:53:55.6Z</time></trkpt><trkpt lat="44.6197283" lon="9.3360983"><ele>581.0</ele><time>2026-04-04T09:53:56.601Z</time></trkpt><trkpt lat="44.619705" lon="9.3362617"><ele>584.5</ele><time>2026-04-04T09:53:58.6Z</time></trkpt><trkpt lat="44.6196833" lon="9.336345"><ele>588.0</ele><time>2026-04-04T09:53:59.601Z</time></trkpt><trkpt lat="44.61967" lon="9.3364317"><ele>592.0</ele><time>2026-04-04T09:54:00.601Z</time></trkpt><trkpt lat="44.6196617" lon="9.33652"><ele>596.0</ele><time>2026-04-04T09:54:01.601Z</time></trkpt><trkpt lat="44.6196617" lon="9.3366933"><ele>600.0</ele><time>2026-04-04T09:54:03.601Z</time></trkpt><trkpt lat="44.6196767" lon="9.3368017"><ele>604.0</ele><time>2026-04-04T09:54:04.6Z</time></trkpt><trkpt lat="44.619705" lon="9.3369117"><ele>608.0</ele><time>2026-04-04T09:54:05.6Z</time></trkpt><trkpt lat="44.619735" lon="9.3370133"><ele>612.0</ele><time>2026-04-04T09:54:06.599Z</time></trkpt><trkpt lat="44.6197867" lon="9.33708"><ele>612.0</ele><time>2026-04-04T09:54:07.6Z</time></trkpt><trkpt lat="44.6198783" lon="9.337175"><ele>612.0</ele><time>2026-04-04T09:54:09.601Z</time></trkpt><trkpt lat="44.61992" lon="9.3372983"><ele>612.0</ele><time>2026-04-04T09:54:11.599Z</time></trkpt><trkpt lat="44.6199" lon="9.3373933"><ele>612.0</ele><time>2026-04-04T09:54:14.6Z</time></trkpt><trkpt lat="44.6198233" lon="9.3373967"><ele>612.0</ele><time>2026-04-04T09:54:16.6Z</time></trkpt><trkpt lat="44.61975" lon="9.3374533"><ele>612.0</ele><time>2026-04-04T09:54:18.601Z</time></trkpt><trkpt lat="44.6197083" lon="9.3375217"><ele>616.2</ele><time>2026-04-04T09:54:19.6Z</time></trkpt><trkpt lat="44.6196333" lon="9.3376417"><ele>620.4000000000001</ele><time>2026-04-04T09:54:21.6Z</time></trkpt><trkpt lat="44.6196283" lon="9.3377533"><ele>624.5999999999999</ele><time>2026-04-04T09:54:23.601Z</time></trkpt><trkpt lat="44.6196783" lon="9.3378533"><ele>628.8</ele><time>2026-04-04T09:54:25.6Z</time></trkpt><trkpt lat="44.61961" lon="9.3379333"><ele>633.0</ele><time>2026-04-04T09:54:31.6Z</time></trkpt><trkpt lat="44.6194783" lon="9.3379467"><ele>633.0</ele><time>2026-04-04T09:54:33.602Z</time></trkpt><trkpt lat="44.6194067" lon="9.3379633"><ele>633.0</ele><time>2026-04-04T09:54:34.601Z</time></trkpt><trkpt lat="44.6193417" lon="9.3379883"><ele>633.0</ele><time>2026-04-04T09:54:35.601Z</time></trkpt><trkpt lat="44.6192367" lon="9.3380433"><ele>633.0</ele><time>2026-04-04T09:54:37.6Z</time></trkpt><trkpt lat="44.61916" lon="9.3380967"><ele>633.0</ele><time>2026-04-04T09:54:39.601Z</time></trkpt><trkpt lat="44.6190983" lon="9.3381717"><ele>633.0</ele><time>2026-04-04T09:54:41.6Z</time></trkpt><trkpt lat="44.6190283" lon="9.338265"><ele>639.0</ele><time>2026-04-04T09:54:43.601Z</time></trkpt><trkpt lat="44.618945" lon="9.3383683"><ele>645.0</ele><time>2026-04-04T09:54:45.601Z</time></trkpt><trkpt lat="44.61887" lon="9.3384917"><ele>651.0</ele><time>2026-04-04T09:54:47.6Z</time></trkpt><trkpt lat="44.6188317" lon="9.3385633"><ele>657.0</ele><time>2026-04-04T09:54:48.599Z</time></trkpt><trkpt lat="44.618805" lon="9.33865"><ele>663.0</ele><time>2026-04-04T09:54:49.6Z</time></trkpt><trkpt lat="44.6187517" lon="9.3387917"><ele>665.2</ele><time>2026-04-04T09:54:51.6Z</time></trkpt><trkpt lat="44.6186583" lon="9.3389217"><ele>667.4</ele><time>2026-04-04T09:54:53.601Z</time></trkpt><trkpt lat="44.618575" lon="9.3390233"><ele>669.6</ele><time>2026-04-04T09:54:55.599Z</time></trkpt><trkpt lat="44.618555" lon="9.339165"><ele>671.8000000000001</ele><time>2026-04-04T09:54:57.601Z</time></trkpt><trkpt lat="44.61854" lon="9.33931"><ele>674.0</ele><time>2026-04-04T09:54:59.6Z</time></trkpt><trkpt lat="44.6185233" lon="9.3394267"><ele>674.0</ele><time>2026-04-04T09:55:01.6Z</time></trkpt><trkpt lat="44.618495" lon="9.3395733"><ele>674.0</ele><time>2026-04-04T09:55:03.6Z</time></trkpt><trkpt lat="44.6184467" lon="9.33971"><ele>674.0</ele><time>2026-04-04T09:55:05.6Z</time></trkpt><trkpt lat="44.618415" lon="9.3398317"><ele>674.0</ele><time>2026-04-04T09:55:07.601Z</time></trkpt><trkpt lat="44.6183667" lon="9.3399733"><ele>674.0</ele><time>2026-04-04T09:55:09.602Z</time></trkpt><trkpt lat="44.6183283" lon="9.34011"><ele>677.6666666666666</ele><time>2026-04-04T09:55:11.602Z</time></trkpt><trkpt lat="44.6183233" lon="9.3402017"><ele>681.3333333333333</ele><time>2026-04-04T09:55:13.6Z</time></trkpt><trkpt lat="44.6183667" lon="9.34031"><ele>685.0</ele><time>2026-04-04T09:55:16.6Z</time></trkpt><trkpt lat="44.6183833" lon="9.3404467"><ele>688.6666666666666</ele><time>2026-04-04T09:55:19.601Z</time></trkpt><trkpt lat="44.6184" lon="9.340545"><ele>692.3333333333334</ele><time>2026-04-04T09:55:21.6Z</time></trkpt><trkpt lat="44.618475" lon="9.3405833"><ele>696.0</ele><time>2026-04-04T09:55:25.599Z</time></trkpt><trkpt lat="44.6185433" lon="9.34055"><ele>696.0</ele><time>2026-04-04T09:55:27.6Z</time></trkpt><trkpt lat="44.6186483" lon="9.3404967"><ele>696.0</ele><time>2026-04-04T09:55:29.6Z</time></trkpt><trkpt lat="44.61875" lon="9.3404133"><ele>696.0</ele><time>2026-04-04T09:55:31.601Z</time></trkpt><trkpt lat="44.618825" lon="9.3403283"><ele>696.0</ele><time>2026-04-04T09:55:33.599Z</time></trkpt><trkpt lat="44.61889" lon="9.3402617"><ele>696.0</ele><time>2026-04-04T09:55:35.6Z</time></trkpt><trkpt lat="44.61892" lon="9.3403683"><ele>700.8</ele><time>2026-04-04T09:55:38.601Z</time></trkpt><trkpt lat="44.618904" lon="9.3405096"><ele>705.5999999999999</ele><time>2026-04-04T09:55:40.601Z</time></trkpt><trkpt lat="44.6188739" lon="9.3406468"><ele>710.4</ele><time>2026-04-04T09:55:42.6Z</time></trkpt><trkpt lat="44.6188535" lon="9.3407788"><ele>715.2</ele><time>2026-04-04T09:55:45.597Z</time></trkpt><trkpt lat="44.6188127" lon="9.3409296"><ele>720.0</ele><time>2026-04-04T09:55:47.697Z</time></trkpt><trkpt lat="44.6187593" lon="9.341055"><ele>723.6666666666666</ele><time>2026-04-04T09:55:49.61Z</time></trkpt><trkpt lat="44.6187077" lon="9.3411963"><ele>727.3333333333334</ele><time>2026-04-04T09:55:51.6Z</time></trkpt><trkpt lat="44.6186842" lon="9.341282"><ele>731.0</ele><time>2026-04-04T09:55:52.672Z</time></trkpt><trkpt lat="44.6186682" lon="9.3413766"><ele>734.6666666666667</ele><time>2026-04-04T09:55:53.633Z</time></trkpt><trkpt lat="44.6186432" lon="9.3414579"><ele>738.3333333333334</ele><time>2026-04-04T09:55:54.6Z</time></trkpt><trkpt lat="44.6185963" lon="9.3416091"><ele>742.0</ele><time>2026-04-04T09:55:56.602Z</time></trkpt><trkpt lat="44.6185593" lon="9.3417379"><ele>742.5</ele><time>2026-04-04T09:55:58.6Z</time></trkpt><trkpt lat="44.6185466" lon="9.3418535"><ele>743.0</ele><time>2026-04-04T09:56:00.605Z</time></trkpt><trkpt lat="44.6185248" lon="9.3419667"><ele>743.5</ele><time>2026-04-04T09:56:02.6Z</time></trkpt><trkpt lat="44.6185048" lon="9.3420808"><ele>744.0</ele><time>2026-04-04T09:56:04.6Z</time></trkpt><trkpt lat="44.6184708" lon="9.3422126"><ele>744.5</ele><time>2026-04-04T09:56:06.601Z</time></trkpt><trkpt lat="44.6184483" lon="9.3423338"><ele>745.0</ele><time>2026-04-04T09:56:08.6Z</time></trkpt><trkpt lat="44.6184323" lon="9.3424642"><ele>749.0</ele><time>2026-04-04T09:56:10.6Z</time></trkpt><trkpt lat="44.6184159" lon="9.3426029"><ele>753.0</ele><time>2026-04-04T09:56:12.599Z</time></trkpt><trkpt lat="44.6183924" lon="9.3427501"><ele>757.0</ele><time>2026-04-04T09:56:14.599Z</time></trkpt><trkpt lat="44.6183599" lon="9.3428852"><ele>761.0</ele><time>2026-04-04T09:56:16.601Z</time></trkpt><trkpt lat="44.6183185" lon="9.3429949"><ele>765.0</ele><time>2026-04-04T09:56:18.6Z</time></trkpt><trkpt lat="44.6183014" lon="9.3430924"><ele>767.1666666666666</ele><time>2026-04-04T09:56:21.601Z</time></trkpt><trkpt lat="44.6183575" lon="9.3431445"><ele>769.3333333333333</ele><time>2026-04-04T09:56:24.601Z</time></trkpt><trkpt lat="44.6184348" lon="9.3431977"><ele>771.5</ele><time>2026-04-04T09:56:27.6Z</time></trkpt><trkpt lat="44.6185068" lon="9.3432132"><ele>773.6666666666666</ele><time>2026-04-04T09:56:29.599Z</time></trkpt><trkpt lat="44.6185921" lon="9.3432539"><ele>775.8333333333333</ele><time>2026-04-04T09:56:31.6Z</time></trkpt><trkpt lat="44.6186372" lon="9.3433576"><ele>778.0</ele><time>2026-04-04T09:56:33.6Z</time></trkpt><trkpt lat="44.6186355" lon="9.3434948"><ele>778.0</ele><time>2026-04-04T09:56:35.599Z</time></trkpt><trkpt lat="44.6186172" lon="9.3436279"><ele>778.0</ele><time>2026-04-04T09:56:37.601Z</time></trkpt><trkpt lat="44.6186003" lon="9.3437635"><ele>778.0</ele><time>2026-04-04T09:56:39.599Z</time></trkpt><trkpt lat="44.6185528" lon="9.3438886"><ele>778.0</ele><time>2026-04-04T09:56:41.601Z</time></trkpt><trkpt lat="44.6185058" lon="9.3440173"><ele>778.0</ele><time>2026-04-04T09:56:43.601Z</time></trkpt><trkpt lat="44.6184904" lon="9.3441309"><ele>779.0</ele><time>2026-04-04T09:56:45.6Z</time></trkpt><trkpt lat="44.6184821" lon="9.3442475"><ele>780.0</ele><time>2026-04-04T09:56:47.599Z</time></trkpt><trkpt lat="44.6184928" lon="9.3443707"><ele>781.0</ele><time>2026-04-04T09:56:49.601Z</time></trkpt><trkpt lat="44.6185346" lon="9.3444834"><ele>782.0</ele><time>2026-04-04T09:56:51.6Z</time></trkpt><trkpt lat="44.6185641" lon="9.3445907"><ele>783.0</ele><time>2026-04-04T09:56:53.6Z</time></trkpt><trkpt lat="44.6185825" lon="9.3447512"><ele>784.8</ele><time>2026-04-04T09:56:55.601Z</time></trkpt><trkpt lat="44.6185778" lon="9.3449094"><ele>786.5999999999999</ele><time>2026-04-04T09:56:57.6Z</time></trkpt><trkpt lat="44.6185806" lon="9.3450678"><ele>788.4000000000001</ele><time>2026-04-04T09:56:59.6Z</time></trkpt><trkpt lat="44.6185964" lon="9.3452345"><ele>790.2</ele><time>2026-04-04T09:57:01.601Z</time></trkpt><trkpt lat="44.6186178" lon="9.3453304"><ele>792.0</ele><time>2026-04-04T09:57:02.6Z</time></trkpt><trkpt lat="44.6186351" lon="9.3454305"><ele>792.0</ele><time>2026-04-04T09:57:03.6Z</time></trkpt><trkpt lat="44.6186508" lon="9.3455283"><ele>792.0</ele><time>2026-04-04T09:57:04.602Z</time></trkpt><trkpt lat="44.6186853" lon="9.3456874"><ele>792.0</ele><time>2026-04-04T09:57:06.601Z</time></trkpt><trkpt lat="44.61873" lon="9.34582"><ele>792.0</ele><time>2026-04-04T09:57:08.601Z</time></trkpt><trkpt lat="44.6187517" lon="9.345935"><ele>792.0</ele><time>2026-04-04T09:57:10.601Z</time></trkpt><trkpt lat="44.618715" lon="9.3460117"><ele>792.0</ele><time>2026-04-04T09:57:13.601Z</time></trkpt><trkpt lat="44.6186317" lon="9.34605"><ele>794.8</ele><time>2026-04-04T09:57:15.6Z</time></trkpt><trkpt lat="44.6185717" lon="9.3460933"><ele>797.6</ele><time>2026-04-04T09:57:16.6Z</time></trkpt><trkpt lat="44.6185067" lon="9.34617"><ele>800.4</ele><time>2026-04-04T09:57:18.603Z</time></trkpt><trkpt lat="44.618445" lon="9.3462683"><ele>803.1999999999999</ele><time>2026-04-04T09:57:20.599Z</time></trkpt><trkpt lat="44.6183583" lon="9.3464017"><ele>806.0</ele><time>2026-04-04T09:57:22.601Z</time></trkpt><trkpt lat="44.618265" lon="9.346535"><ele>810.8</ele><time>2026-04-04T09:57:24.602Z</time></trkpt><trkpt lat="44.6182167" lon="9.3466033"><ele>815.5999999999999</ele><time>2026-04-04T09:57:25.6Z</time></trkpt><trkpt lat="44.6181483" lon="9.346735"><ele>820.4</ele><time>2026-04-04T09:57:27.599Z</time></trkpt><trkpt lat="44.618095" lon="9.34687"><ele>825.2</ele><time>2026-04-04T09:57:29.601Z</time></trkpt><trkpt lat="44.6180433" lon="9.34702"><ele>830.0</ele><time>2026-04-04T09:57:31.601Z</time></trkpt><trkpt lat="44.6180083" lon="9.34716"><ele>832.3333333333334</ele><time>2026-04-04T09:57:33.6Z</time></trkpt><trkpt lat="44.6179933" lon="9.3472583"><ele>834.6666666666667</ele><time>2026-04-04T09:57:34.599Z</time></trkpt><trkpt lat="44.617985" lon="9.3473583"><ele>837.0</ele><time>2026-04-04T09:57:35.602Z</time></trkpt><trkpt lat="44.6179817" lon="9.34746"><ele>839.3333333333333</ele><time>2026-04-04T09:57:36.6Z</time></trkpt><trkpt lat="44.61799" lon="9.3475883"><ele>841.6666666666666</ele><time>2026-04-04T09:57:38.601Z</time></trkpt><trkpt lat="44.6180283" lon="9.3477017"><ele>844.0</ele><time>2026-04-04T09:57:40.601Z</time></trkpt><trkpt lat="44.6180717" lon="9.3478367"><ele>844.0</ele><time>2026-04-04T09:57:42.6Z</time></trkpt><trkpt lat="44.6181283" lon="9.3479233"><ele>844.0</ele><time>2026-04-04T09:57:44.601Z</time></trkpt><trkpt lat="44.618185" lon="9.3480417"><ele>844.0</ele><time>2026-04-04T09:57:46.599Z</time></trkpt><trkpt lat="44.618235" lon="9.3481717"><ele>844.0</ele><time>2026-04-04T09:57:48.6Z</time></trkpt><trkpt lat="44.6182667" lon="9.3482567"><ele>844.0</ele><time>2026-04-04T09:57:49.601Z</time></trkpt><trkpt lat="44.6182883" lon="9.348425"><ele>845.3333333333333</ele><time>2026-04-04T09:57:51.6Z</time></trkpt><trkpt lat="44.6183183" lon="9.3485083"><ele>846.6666666666666</ele><time>2026-04-04T09:57:52.601Z</time></trkpt><trkpt lat="44.6183533" lon="9.34864"><ele>848.0</ele><time>2026-04-04T09:57:54.603Z</time></trkpt><trkpt lat="44.618405" lon="9.3486983"><ele>849.3333333333333</ele><time>2026-04-04T09:57:56.601Z</time></trkpt><trkpt lat="44.6184433" lon="9.3487967"><ele>850.6666666666666</ele><time>2026-04-04T09:57:59.601Z</time></trkpt><trkpt lat="44.61841" lon="9.3489017"><ele>852.0</ele><time>2026-04-04T09:58:02.601Z</time></trkpt><trkpt lat="44.6183833" lon="9.34902"><ele>854.6666666666666</ele><time>2026-04-04T09:58:05.6Z</time></trkpt><trkpt lat="44.61837" lon="9.3491217"><ele>857.3333333333333</ele><time>2026-04-04T09:58:07.601Z</time></trkpt><trkpt lat="44.61836" lon="9.3492433"><ele>860.0</ele><time>2026-04-04T09:58:09.6Z</time></trkpt><trkpt lat="44.6183117" lon="9.3493117"><ele>862.6666666666666</ele><time>2026-04-04T09:58:11.6Z</time></trkpt><trkpt lat="44.6182417" lon="9.349385"><ele>865.3333333333333</ele><time>2026-04-04T09:58:13.601Z</time></trkpt><trkpt lat="44.6181683" lon="9.3494933"><ele>868.0</ele><time>2026-04-04T09:58:15.601Z</time></trkpt><trkpt lat="44.6181067" lon="9.3496417"><ele>867.9999999999999</ele><time>2026-04-04T09:58:17.599Z</time></trkpt><trkpt lat="44.61804" lon="9.34977"><ele>868.0</ele><time>2026-04-04T09:58:19.6Z</time></trkpt><trkpt lat="44.6179933" lon="9.3498417"><ele>868.0</ele><time>2026-04-04T09:58:20.6Z</time></trkpt><trkpt lat="44.617945" lon="9.3499133"><ele>868.0</ele><time>2026-04-04T09:58:21.601Z</time></trkpt><trkpt lat="44.617895" lon="9.349985"><ele>867.9999999999999</ele><time>2026-04-04T09:58:22.602Z</time></trkpt><trkpt lat="44.6178433" lon="9.3500583"><ele>868.0</ele><time>2026-04-04T09:58:23.601Z</time></trkpt><trkpt lat="44.6177967" lon="9.3501267"><ele>867.9999999999999</ele><time>2026-04-04T09:58:24.599Z</time></trkpt><trkpt lat="44.617745" lon="9.3501817"><ele>868.0</ele><time>2026-04-04T09:58:25.6Z</time></trkpt><trkpt lat="44.6177" lon="9.3502467"><ele>868.0</ele><time>2026-04-04T09:58:26.601Z</time></trkpt><trkpt lat="44.6176417" lon="9.3503917"><ele>868.0</ele><time>2026-04-04T09:58:28.6Z</time></trkpt><trkpt lat="44.6176167" lon="9.3504833"><ele>867.9999999999999</ele><time>2026-04-04T09:58:29.6Z</time></trkpt><trkpt lat="44.6176033" lon="9.350575"><ele>868.0</ele><time>2026-04-04T09:58:30.601Z</time></trkpt><trkpt lat="44.6176083" lon="9.3507117"><ele>870.3333333333333</ele><time>2026-04-04T09:58:32.601Z</time></trkpt><trkpt lat="44.6176117" lon="9.3508567"><ele>872.6666666666666</ele><time>2026-04-04T09:58:34.601Z</time></trkpt><trkpt lat="44.6176183" lon="9.350965"><ele>875.0</ele><time>2026-04-04T09:58:36.6Z</time></trkpt><trkpt lat="44.6176583" lon="9.351055"><ele>877.3333333333333</ele><time>2026-04-04T09:58:38.601Z</time></trkpt><trkpt lat="44.6176833" lon="9.35114"><ele>879.6666666666666</ele><time>2026-04-04T09:58:40.601Z</time></trkpt><trkpt lat="44.617675" lon="9.3512533"><ele>882.0</ele><time>2026-04-04T09:58:42.601Z</time></trkpt><trkpt lat="44.61767" lon="9.3514017"><ele>882.8333333333334</ele><time>2026-04-04T09:58:44.6Z</time></trkpt><trkpt lat="44.61765" lon="9.3515017"><ele>883.6666666666667</ele><time>2026-04-04T09:58:46.601Z</time></trkpt><trkpt lat="44.61761" lon="9.3515983"><ele>884.5</ele><time>2026-04-04T09:58:48.601Z</time></trkpt><trkpt lat="44.61757" lon="9.3517433"><ele>885.3333333333334</ele><time>2026-04-04T09:58:50.601Z</time></trkpt><trkpt lat="44.6175533" lon="9.3518883"><ele>886.1666666666667</ele><time>2026-04-04T09:58:52.602Z</time></trkpt><trkpt lat="44.6175833" lon="9.3519883"><ele>887.0</ele><time>2026-04-04T09:58:55.601Z</time></trkpt><trkpt lat="44.6175417" lon="9.3521183"><ele>887.0000000000001</ele><time>2026-04-04T09:58:58.601Z</time></trkpt><trkpt lat="44.6174983" lon="9.3521967"><ele>887.0</ele><time>2026-04-04T09:59:00.602Z</time></trkpt><trkpt lat="44.6174767" lon="9.3522833"><ele>887.0</ele><time>2026-04-04T09:59:03.601Z</time></trkpt><trkpt lat="44.61748" lon="9.3524017"><ele>887.0</ele><time>2026-04-04T10:00:16.601Z</time></trkpt><trkpt lat="44.61751" lon="9.35254"><ele>887.0000000000001</ele><time>2026-04-04T10:00:18.601Z</time></trkpt><trkpt lat="44.6175467" lon="9.3526933"><ele>887.0</ele><time>2026-04-04T10:00:20.605Z</time></trkpt><trkpt lat="44.617585" lon="9.352825"><ele>887.0000000000001</ele><time>2026-04-04T10:00:22.602Z</time></trkpt><trkpt lat="44.6176417" lon="9.3529567"><ele>887.0</ele><time>2026-04-04T10:00:24.602Z</time></trkpt><trkpt lat="44.6176733" lon="9.353035"><ele>887.0</ele><time>2026-04-04T10:00:25.599Z</time></trkpt><trkpt lat="44.6177" lon="9.3531267"><ele>887.0</ele><time>2026-04-04T10:00:26.601Z</time></trkpt><trkpt lat="44.61772" lon="9.3532217"><ele>887.0000000000001</ele><time>2026-04-04T10:00:27.6Z</time></trkpt><trkpt lat="44.6177533" lon="9.3533683"><ele>887.0</ele><time>2026-04-04T10:00:29.601Z</time></trkpt><trkpt lat="44.6178067" lon="9.353485"><ele>892.6</ele><time>2026-04-04T10:00:31.6Z</time></trkpt><trkpt lat="44.6178817" lon="9.353555"><ele>898.2</ele><time>2026-04-04T10:00:33.6Z</time></trkpt><trkpt lat="44.6179717" lon="9.3536233"><ele>903.8</ele><time>2026-04-04T10:00:35.601Z</time></trkpt><trkpt lat="44.6180817" lon="9.3536883"><ele>909.4</ele><time>2026-04-04T10:00:37.6Z</time></trkpt><trkpt lat="44.6181983" lon="9.3537267"><ele>915.0</ele><time>2026-04-04T10:00:39.6Z</time></trkpt><trkpt lat="44.6182883" lon="9.353755"><ele>915.0</ele><time>2026-04-04T10:00:41.6Z</time></trkpt><trkpt lat="44.6183333" lon="9.3538667"><ele>915.0</ele><time>2026-04-04T10:00:43.601Z</time></trkpt><trkpt lat="44.6183517" lon="9.3540133"><ele>915.0</ele><time>2026-04-04T10:00:45.601Z</time></trkpt><trkpt lat="44.6183717" lon="9.3541783"><ele>915.0</ele><time>2026-04-04T10:00:47.601Z</time></trkpt><trkpt lat="44.618375" lon="9.35437"><ele>916.5</ele><time>2026-04-04T10:00:49.6Z</time></trkpt><trkpt lat="44.6183617" lon="9.3544833"><ele>918.0</ele><time>2026-04-04T10:00:50.601Z</time></trkpt><trkpt lat="44.6183433" lon="9.3545833"><ele>919.5</ele><time>2026-04-04T10:00:51.601Z</time></trkpt><trkpt lat="44.6183283" lon="9.3547383"><ele>921.0</ele><time>2026-04-04T10:00:53.6Z</time></trkpt><trkpt lat="44.61834" lon="9.3548417"><ele>922.5</ele><time>2026-04-04T10:00:55.602Z</time></trkpt><trkpt lat="44.6183083" lon="9.354955"><ele>924.0</ele><time>2026-04-04T10:00:57.601Z</time></trkpt><trkpt lat="44.6182367" lon="9.3550717"><ele>925.8333333333334</ele><time>2026-04-04T10:00:59.602Z</time></trkpt><trkpt lat="44.6181467" lon="9.3551983"><ele>927.6666666666667</ele><time>2026-04-04T10:01:01.6Z</time></trkpt><trkpt lat="44.6181067" lon="9.3552733"><ele>929.5</ele><time>2026-04-04T10:01:02.6Z</time></trkpt><trkpt lat="44.6180633" lon="9.3553433"><ele>931.3333333333334</ele><time>2026-04-04T10:01:03.601Z</time></trkpt><trkpt lat="44.618005" lon="9.35542"><ele>933.1666666666667</ele><time>2026-04-04T10:01:04.602Z</time></trkpt><trkpt lat="44.61796" lon="9.355485"><ele>935.0</ele><time>2026-04-04T10:01:05.6Z</time></trkpt><trkpt lat="44.617945" lon="9.3556233"><ele>939.0000000000001</ele><time>2026-04-04T10:01:07.6Z</time></trkpt><trkpt lat="44.6179783" lon="9.3557883"><ele>943.0</ele><time>2026-04-04T10:01:09.6Z</time></trkpt><trkpt lat="44.6179917" lon="9.3558933"><ele>947.0</ele><time>2026-04-04T10:01:10.601Z</time></trkpt><trkpt lat="44.618" lon="9.3559967"><ele>951.0</ele><time>2026-04-04T10:01:11.6Z</time></trkpt><trkpt lat="44.6179967" lon="9.3561"><ele>955.0000000000001</ele><time>2026-04-04T10:01:12.599Z</time></trkpt><trkpt lat="44.617985" lon="9.356195"><ele>959.0</ele><time>2026-04-04T10:01:13.6Z</time></trkpt><trkpt lat="44.617965" lon="9.356285"><ele>961.0</ele><time>2026-04-04T10:01:14.601Z</time></trkpt><trkpt lat="44.61794" lon="9.356375"><ele>963.0</ele><time>2026-04-04T10:01:15.6Z</time></trkpt><trkpt lat="44.617915" lon="9.356475"><ele>965.0</ele><time>2026-04-04T10:01:16.601Z</time></trkpt><trkpt lat="44.6178833" lon="9.35657"><ele>967.0</ele><time>2026-04-04T10:01:17.601Z</time></trkpt><trkpt lat="44.6178583" lon="9.356665"><ele>969.0</ele><time>2026-04-04T10:01:18.601Z</time></trkpt><trkpt lat="44.6178417" lon="9.3567533"><ele>971.0</ele><time>2026-04-04T10:01:19.601Z</time></trkpt><trkpt lat="44.6178283" lon="9.35685"><ele>973.0</ele><time>2026-04-04T10:01:20.601Z</time></trkpt><trkpt lat="44.6178083" lon="9.3569383"><ele>968.0</ele><time>2026-04-04T10:01:21.6Z</time></trkpt><trkpt lat="44.61777" lon="9.3571017"><ele>963.0</ele><time>2026-04-04T10:01:23.602Z</time></trkpt><trkpt lat="44.6177283" lon="9.3572317"><ele>958.0</ele><time>2026-04-04T10:01:25.601Z</time></trkpt><trkpt lat="44.6176883" lon="9.3573567"><ele>953.0</ele><time>2026-04-04T10:01:27.6Z</time></trkpt><trkpt lat="44.6176833" lon="9.3575"><ele>948.0</ele><time>2026-04-04T10:01:29.601Z</time></trkpt><trkpt lat="44.6177" lon="9.3576133"><ele>948.0</ele><time>2026-04-04T10:01:31.601Z</time></trkpt><trkpt lat="44.6177383" lon="9.35769"><ele>948.0</ele><time>2026-04-04T10:01:33.602Z</time></trkpt><trkpt lat="44.617785" lon="9.3577883"><ele>948.0</ele><time>2026-04-04T10:01:35.601Z</time></trkpt><trkpt lat="44.6178317" lon="9.357935"><ele>948.0</ele><time>2026-04-04T10:01:37.602Z</time></trkpt><trkpt lat="44.6178767" lon="9.3580583"><ele>948.0</ele><time>2026-04-04T10:01:39.602Z</time></trkpt><trkpt lat="44.61795" lon="9.358175"><ele>955.2</ele><time>2026-04-04T10:01:41.601Z</time></trkpt><trkpt lat="44.6180167" lon="9.3582783"><ele>962.4</ele><time>2026-04-04T10:01:43.601Z</time></trkpt><trkpt lat="44.6180917" lon="9.3583933"><ele>969.6000000000001</ele><time>2026-04-04T10:01:45.601Z</time></trkpt><trkpt lat="44.6181367" lon="9.3584833"><ele>976.8000000000001</ele><time>2026-04-04T10:01:47.601Z</time></trkpt><trkpt lat="44.61816" lon="9.3586467"><ele>984.0</ele><time>2026-04-04T10:02:03.601Z</time></trkpt><trkpt lat="44.618155" lon="9.3587367"><ele>984.0</ele><time>2026-04-04T10:02:05.603Z</time></trkpt><trkpt lat="44.618155" lon="9.3588517"><ele>984.0</ele><time>2026-04-04T10:02:07.6Z</time></trkpt><trkpt lat="44.6181217" lon="9.3590283"><ele>984.0</ele><time>2026-04-04T10:02:09.6Z</time></trkpt><trkpt lat="44.6181033" lon="9.3591217"><ele>984.0</ele><time>2026-04-04T10:02:10.601Z</time></trkpt><trkpt lat="44.6180883" lon="9.3592183"><ele>984.0</ele><time>2026-04-04T10:02:11.601Z</time></trkpt><trkpt lat="44.61808" lon="9.35932"><ele>984.0</ele><time>2026-04-04T10:02:12.602Z</time></trkpt><trkpt lat="44.6180783" lon="9.3594267"><ele>985.0</ele><time>2026-04-04T10:02:13.6Z</time></trkpt><trkpt lat="44.6180783" lon="9.3595367"><ele>986.0000000000001</ele><time>2026-04-04T10:02:14.6Z</time></trkpt><trkpt lat="44.618065" lon="9.359635"><ele>987.0000000000001</ele><time>2026-04-04T10:02:15.599Z</time></trkpt><trkpt lat="44.6180283" lon="9.3597917"><ele>988.0</ele><time>2026-04-04T10:02:17.6Z</time></trkpt><trkpt lat="44.61796" lon="9.3599033"><ele>989.0</ele><time>2026-04-04T10:02:19.599Z</time></trkpt><trkpt lat="44.6178767" lon="9.3599483"><ele>989.6</ele><time>2026-04-04T10:02:21.601Z</time></trkpt><trkpt lat="44.6178" lon="9.3599767"><ele>990.2</ele><time>2026-04-04T10:02:24.602Z</time></trkpt><trkpt lat="44.6177783" lon="9.3600633"><ele>990.8000000000001</ele><time>2026-04-04T10:02:27.601Z</time></trkpt><trkpt lat="44.6177904" lon="9.3602158"><ele>991.4000000000001</ele><time>2026-04-04T10:02:30.601Z</time></trkpt><trkpt lat="44.6177166" lon="9.3603687"><ele>992.0</ele><time>2026-04-04T10:02:33.546Z</time></trkpt><trkpt lat="44.6177181" lon="9.3605844"><ele>993.6</ele><time>2026-04-04T10:02:35.601Z</time></trkpt><trkpt lat="44.6177242" lon="9.36069"><ele>995.2</ele><time>2026-04-04T10:02:36.6Z</time></trkpt><trkpt lat="44.6177257" lon="9.3607903"><ele>996.8</ele><time>2026-04-04T10:02:37.601Z</time></trkpt><trkpt lat="44.6177294" lon="9.3609515"><ele>998.4</ele><time>2026-04-04T10:02:39.6Z</time></trkpt><trkpt lat="44.6176585" lon="9.3610293"><ele>1000.0</ele><time>2026-04-04T10:02:42.601Z</time></trkpt><trkpt lat="44.6175586" lon="9.3610361"><ele>1000.0</ele><time>2026-04-04T10:02:44.6Z</time></trkpt><trkpt lat="44.6174635" lon="9.3611078"><ele>1000.0</ele><time>2026-04-04T10:02:46.599Z</time></trkpt><trkpt lat="44.6174083" lon="9.3612317"><ele>1000.0</ele><time>2026-04-04T10:02:48.6Z</time></trkpt><trkpt lat="44.6173367" lon="9.361345"><ele>1000.0</ele><time>2026-04-04T10:02:50.601Z</time></trkpt><trkpt lat="44.617225" lon="9.36143"><ele>1000.0</ele><time>2026-04-04T10:02:52.6Z</time></trkpt><trkpt lat="44.6171567" lon="9.36146"><ele>1000.6</ele><time>2026-04-04T10:02:53.601Z</time></trkpt><trkpt lat="44.6170633" lon="9.3615333"><ele>1001.2</ele><time>2026-04-04T10:02:55.6Z</time></trkpt><trkpt lat="44.6170533" lon="9.3616567"><ele>1001.8</ele><time>2026-04-04T10:03:10.6Z</time></trkpt><trkpt lat="44.6170867" lon="9.3617517"><ele>1002.4</ele><time>2026-04-04T10:03:12.6Z</time></trkpt><trkpt lat="44.6171217" lon="9.3618867"><ele>1003.0</ele><time>2026-04-04T10:03:14.601Z</time></trkpt><trkpt lat="44.6171583" lon="9.3620517"><ele>1002.9999999999999</ele><time>2026-04-04T10:03:16.6Z</time></trkpt><trkpt lat="44.6171617" lon="9.36218"><ele>1003.0</ele><time>2026-04-04T10:03:18.6Z</time></trkpt><trkpt lat="44.6171167" lon="9.362245"><ele>1003.0</ele><time>2026-04-04T10:03:20.601Z</time></trkpt><trkpt lat="44.617065" lon="9.3623183"><ele>1003.0</ele><time>2026-04-04T10:03:22.601Z</time></trkpt><trkpt lat="44.6170317" lon="9.3624067"><ele>1002.9999999999999</ele><time>2026-04-04T10:03:24.602Z</time></trkpt><trkpt lat="44.6170217" lon="9.3625517"><ele>1003.0</ele><time>2026-04-04T10:03:26.602Z</time></trkpt><trkpt lat="44.6170117" lon="9.3627267"><ele>1005.0</ele><time>2026-04-04T10:03:28.602Z</time></trkpt><trkpt lat="44.6170033" lon="9.3628167"><ele>1007.0</ele><time>2026-04-04T10:03:29.602Z</time></trkpt><trkpt lat="44.61696" lon="9.3629633"><ele>1009.0</ele><time>2026-04-04T10:03:31.602Z</time></trkpt><trkpt lat="44.61692" lon="9.3631017"><ele>1011.0</ele><time>2026-04-04T10:03:33.601Z</time></trkpt><trkpt lat="44.616875" lon="9.3632383"><ele>1013.0</ele><time>2026-04-04T10:03:35.6Z</time></trkpt><trkpt lat="44.6168683" lon="9.3633967"><ele>1015.8</ele><time>2026-04-04T10:03:37.602Z</time></trkpt><trkpt lat="44.6168833" lon="9.363535"><ele>1018.5999999999999</ele><time>2026-04-04T10:03:39.601Z</time></trkpt><trkpt lat="44.6168733" lon="9.36364"><ele>1021.4000000000001</ele><time>2026-04-04T10:03:41.601Z</time></trkpt><trkpt lat="44.616805" lon="9.3637233"><ele>1024.2</ele><time>2026-04-04T10:03:43.601Z</time></trkpt><trkpt lat="44.6167183" lon="9.3638017"><ele>1027.0</ele><time>2026-04-04T10:03:45.601Z</time></trkpt><trkpt lat="44.61661" lon="9.3638717"><ele>1030.8</ele><time>2026-04-04T10:03:47.6Z</time></trkpt><trkpt lat="44.6165167" lon="9.36395"><ele>1034.6</ele><time>2026-04-04T10:03:49.601Z</time></trkpt><trkpt lat="44.6164417" lon="9.3640517"><ele>1038.3999999999999</ele><time>2026-04-04T10:03:51.6Z</time></trkpt><trkpt lat="44.6163867" lon="9.3641783"><ele>1042.2</ele><time>2026-04-04T10:03:53.601Z</time></trkpt><trkpt lat="44.6163383" lon="9.3643183"><ele>1046.0</ele><time>2026-04-04T10:03:55.6Z</time></trkpt><trkpt lat="44.6163083" lon="9.364455"><ele>1046.0</ele><time>2026-04-04T10:03:57.601Z</time></trkpt><trkpt lat="44.6163117" lon="9.3645917"><ele>1046.0</ele><time>2026-04-04T10:03:59.6Z</time></trkpt><trkpt lat="44.6163617" lon="9.3647167"><ele>1046.0</ele><time>2026-04-04T10:04:01.599Z</time></trkpt><trkpt lat="44.616375" lon="9.3648433"><ele>1046.0</ele><time>2026-04-04T10:04:03.6Z</time></trkpt><trkpt lat="44.6163767" lon="9.3649367"><ele>1046.0</ele><time>2026-04-04T10:04:05.598Z</time></trkpt><trkpt lat="44.6164033" lon="9.365045"><ele>1046.0</ele><time>2026-04-04T10:04:07.601Z</time></trkpt><trkpt lat="44.6164567" lon="9.3651867"><ele>1049.3999999999999</ele><time>2026-04-04T10:04:09.599Z</time></trkpt><trkpt lat="44.6165283" lon="9.36529"><ele>1052.8</ele><time>2026-04-04T10:04:11.6Z</time></trkpt><trkpt lat="44.6166033" lon="9.3653033"><ele>1056.1999999999998</ele><time>2026-04-04T10:04:13.599Z</time></trkpt><trkpt lat="44.6166783" lon="9.365215"><ele>1059.6</ele><time>2026-04-04T10:04:15.6Z</time></trkpt><trkpt lat="44.6167583" lon="9.3651517"><ele>1063.0</ele><time>2026-04-04T10:04:17.601Z</time></trkpt><trkpt lat="44.6168533" lon="9.3651067"><ele>1063.0</ele><time>2026-04-04T10:04:19.599Z</time></trkpt><trkpt lat="44.6169183" lon="9.3650883"><ele>1063.0</ele><time>2026-04-04T10:04:21.6Z</time></trkpt><trkpt lat="44.6169097" lon="9.3651977"><ele>1063.0</ele><time>2026-04-04T10:04:25.6Z</time></trkpt><trkpt lat="44.6168987" lon="9.3652864"><ele>1063.0</ele><time>2026-04-04T10:04:27.7Z</time></trkpt><trkpt lat="44.6168989" lon="9.3654444"><ele>1063.0</ele><time>2026-04-04T10:04:29.584Z</time></trkpt><trkpt lat="44.6168944" lon="9.3655749"><ele>1063.0</ele><time>2026-04-04T10:04:31.606Z</time></trkpt><trkpt lat="44.6168825" lon="9.3656794"><ele>1066.0</ele><time>2026-04-04T10:04:36.6Z</time></trkpt><trkpt lat="44.6169015" lon="9.3657946"><ele>1069.0</ele><time>2026-04-04T10:04:40.654Z</time></trkpt><trkpt lat="44.6169105" lon="9.3655696"><ele>1072.0</ele><time>2026-04-04T10:04:45.599Z</time></trkpt><trkpt lat="44.6168856" lon="9.3656803"><ele>1075.0</ele><time>2026-04-04T10:05:04.601Z</time></trkpt><trkpt lat="44.6168251" lon="9.3658433"><ele>1075.0</ele><time>2026-04-04T10:05:06.6Z</time></trkpt><trkpt lat="44.6167988" lon="9.3659238"><ele>1075.0</ele><time>2026-04-04T10:05:07.6Z</time></trkpt><trkpt lat="44.6167572" lon="9.3660996"><ele>1075.0</ele><time>2026-04-04T10:05:09.6Z</time></trkpt><trkpt lat="44.6167272" lon="9.3662052"><ele>1075.0</ele><time>2026-04-04T10:05:10.599Z</time></trkpt><trkpt lat="44.6166896" lon="9.3663129"><ele>1075.0</ele><time>2026-04-04T10:05:11.599Z</time></trkpt><trkpt lat="44.6166477" lon="9.3664098"><ele>1075.0</ele><time>2026-04-04T10:05:12.6Z</time></trkpt><trkpt lat="44.6166028" lon="9.3664812"><ele>1078.8333333333333</ele><time>2026-04-04T10:05:13.6Z</time></trkpt><trkpt lat="44.6165249" lon="9.3665612"><ele>1082.6666666666665</ele><time>2026-04-04T10:05:15.6Z</time></trkpt><trkpt lat="44.6164704" lon="9.366638"><ele>1086.5</ele><time>2026-04-04T10:05:17.601Z</time></trkpt><trkpt lat="44.6164223" lon="9.3667366"><ele>1090.3333333333333</ele><time>2026-04-04T10:05:19.6Z</time></trkpt><trkpt lat="44.6163503" lon="9.3668321"><ele>1094.1666666666667</ele><time>2026-04-04T10:05:21.6Z</time></trkpt><trkpt lat="44.6163055" lon="9.3669226"><ele>1098.0</ele><time>2026-04-04T10:05:23.601Z</time></trkpt><trkpt lat="44.6162689" lon="9.3670142"><ele>1098.0</ele><time>2026-04-04T10:05:25.601Z</time></trkpt><trkpt lat="44.6162196" lon="9.3671087"><ele>1098.0</ele><time>2026-04-04T10:05:27.6Z</time></trkpt><trkpt lat="44.6161751" lon="9.3672169"><ele>1098.0</ele><time>2026-04-04T10:05:29.602Z</time></trkpt><trkpt lat="44.6161353" lon="9.3673405"><ele>1098.0</ele><time>2026-04-04T10:05:31.599Z</time></trkpt><trkpt lat="44.6160897" lon="9.3674581"><ele>1098.0</ele><time>2026-04-04T10:05:33.6Z</time></trkpt><trkpt lat="44.6160573" lon="9.3675912"><ele>1100.0</ele><time>2026-04-04T10:05:35.599Z</time></trkpt><trkpt lat="44.6160615" lon="9.3677078"><ele>1102.0</ele><time>2026-04-04T10:05:37.6Z</time></trkpt><trkpt lat="44.6161167" lon="9.3677788"><ele>1104.0</ele><time>2026-04-04T10:05:39.6Z</time></trkpt><trkpt lat="44.6161524" lon="9.3678748"><ele>1106.0</ele><time>2026-04-04T10:05:41.599Z</time></trkpt><trkpt lat="44.6161662" lon="9.3680179"><ele>1108.0</ele><time>2026-04-04T10:05:43.601Z</time></trkpt><trkpt lat="44.6161733" lon="9.3681638"><ele>1110.0</ele><time>2026-04-04T10:05:45.602Z</time></trkpt><trkpt lat="44.6161924" lon="9.3683049"><ele>1112.0</ele><time>2026-04-04T10:05:47.601Z</time></trkpt><trkpt lat="44.6161869" lon="9.3684598"><ele>1114.0</ele><time>2026-04-04T10:05:49.602Z</time></trkpt><trkpt lat="44.6161509" lon="9.3685598"><ele>1116.0</ele><time>2026-04-04T10:05:51.601Z</time></trkpt><trkpt lat="44.6160924" lon="9.3686595"><ele>1118.0</ele><time>2026-04-04T10:05:53.601Z</time></trkpt><trkpt lat="44.6160208" lon="9.3687301"><ele>1120.0</ele><time>2026-04-04T10:05:55.601Z</time></trkpt><trkpt lat="44.615958" lon="9.3687854"><ele>1122.0</ele><time>2026-04-04T10:05:57.599Z</time></trkpt><trkpt lat="44.6159087" lon="9.3688758"><ele>1127.0</ele><time>2026-04-04T10:05:59.599Z</time></trkpt><trkpt lat="44.6158485" lon="9.3689987"><ele>1132.0</ele><time>2026-04-04T10:06:01.6Z</time></trkpt><trkpt lat="44.6157723" lon="9.369095"><ele>1137.0</ele><time>2026-04-04T10:06:03.599Z</time></trkpt><trkpt lat="44.6156965" lon="9.3691461"><ele>1142.0</ele><time>2026-04-04T10:06:05.599Z</time></trkpt><trkpt lat="44.6156135" lon="9.3692302"><ele>1147.0</ele><time>2026-04-04T10:06:07.6Z</time></trkpt><trkpt lat="44.6155165" lon="9.3693425"><ele>1147.0</ele><time>2026-04-04T10:06:09.603Z</time></trkpt><trkpt lat="44.6154378" lon="9.3694374"><ele>1147.0</ele><time>2026-04-04T10:06:11.6Z</time></trkpt><trkpt lat="44.6153787" lon="9.3695286"><ele>1147.0</ele><time>2026-04-04T10:06:13.601Z</time></trkpt><trkpt lat="44.6153241" lon="9.3695926"><ele>1147.0</ele><time>2026-04-04T10:06:15.601Z</time></trkpt><trkpt lat="44.6152732" lon="9.3696665"><ele>1147.0</ele><time>2026-04-04T10:06:17.6Z</time></trkpt><trkpt lat="44.6152248" lon="9.3697631"><ele>1147.0</ele><time>2026-04-04T10:06:20.601Z</time></trkpt><trkpt lat="44.6151585" lon="9.3698621"><ele>1150.6</ele><time>2026-04-04T10:06:23.635Z</time></trkpt><trkpt lat="44.6151267" lon="9.3699562"><ele>1154.2</ele><time>2026-04-04T10:06:25.601Z</time></trkpt><trkpt lat="44.6151151" lon="9.3700878"><ele>1157.8</ele><time>2026-04-04T10:06:27.666Z</time></trkpt><trkpt lat="44.6150879" lon="9.3702064"><ele>1161.4</ele><time>2026-04-04T10:06:29.633Z</time></trkpt><trkpt lat="44.6150521" lon="9.370282"><ele>1165.0</ele><time>2026-04-04T10:06:31.252Z</time></trkpt><trkpt lat="44.614934" lon="9.3703679"><ele>1164.9999999999998</ele><time>2026-04-04T10:06:33.599Z</time></trkpt><trkpt lat="44.6148762" lon="9.3704259"><ele>1165.0</ele><time>2026-04-04T10:06:34.6Z</time></trkpt><trkpt lat="44.6148134" lon="9.3704822"><ele>1165.0</ele><time>2026-04-04T10:06:35.601Z</time></trkpt><trkpt lat="44.6147451" lon="9.3705259"><ele>1165.0</ele><time>2026-04-04T10:06:36.6Z</time></trkpt><trkpt lat="44.614674" lon="9.3705513"><ele>1165.0</ele><time>2026-04-04T10:06:37.6Z</time></trkpt><trkpt lat="44.6145999" lon="9.3705669"><ele>1164.9999999999998</ele><time>2026-04-04T10:06:38.601Z</time></trkpt><trkpt lat="44.6145307" lon="9.3705751"><ele>1165.0</ele><time>2026-04-04T10:06:39.601Z</time></trkpt><trkpt lat="44.6144632" lon="9.3705891"><ele>1167.0</ele><time>2026-04-04T10:06:40.6Z</time></trkpt><trkpt lat="44.6143979" lon="9.3705991"><ele>1169.0</ele><time>2026-04-04T10:06:41.599Z</time></trkpt><trkpt lat="44.6142701" lon="9.3705796"><ele>1171.0</ele><time>2026-04-04T10:06:43.6Z</time></trkpt><trkpt lat="44.6141996" lon="9.3705608"><ele>1173.0</ele><time>2026-04-04T10:06:44.6Z</time></trkpt><trkpt lat="44.6141274" lon="9.3705472"><ele>1175.0</ele><time>2026-04-04T10:06:45.601Z</time></trkpt><trkpt lat="44.6140588" lon="9.3705482"><ele>1177.0</ele><time>2026-04-04T10:06:46.6Z</time></trkpt><trkpt lat="44.6139933" lon="9.37056"><ele>1177.0</ele><time>2026-04-04T10:06:47.601Z</time></trkpt><trkpt lat="44.6138817" lon="9.3706"><ele>1177.0</ele><time>2026-04-04T10:06:49.6Z</time></trkpt><trkpt lat="44.61382" lon="9.3706183"><ele>1177.0</ele><time>2026-04-04T10:06:50.601Z</time></trkpt><trkpt lat="44.61371" lon="9.37062"><ele>1177.0</ele><time>2026-04-04T10:06:52.599Z</time></trkpt><trkpt lat="44.613575" lon="9.3706233"><ele>1177.0</ele><time>2026-04-04T10:06:54.599Z</time></trkpt><trkpt lat="44.6135017" lon="9.3706167"><ele>1178.7142857142858</ele><time>2026-04-04T10:06:55.601Z</time></trkpt><trkpt lat="44.6134317" lon="9.3706117"><ele>1180.4285714285713</ele><time>2026-04-04T10:06:56.6Z</time></trkpt><trkpt lat="44.6133667" lon="9.37061"><ele>1182.142857142857</ele><time>2026-04-04T10:06:57.599Z</time></trkpt><trkpt lat="44.6133017" lon="9.37061"><ele>1183.857142857143</ele><time>2026-04-04T10:06:58.601Z</time></trkpt><trkpt lat="44.61323" lon="9.37062"><ele>1185.5714285714287</ele><time>2026-04-04T10:06:59.601Z</time></trkpt><trkpt lat="44.6131617" lon="9.3706317"><ele>1187.2857142857142</ele><time>2026-04-04T10:07:00.599Z</time></trkpt><trkpt lat="44.613095" lon="9.3706433"><ele>1189.0</ele><time>2026-04-04T10:07:01.6Z</time></trkpt><trkpt lat="44.612975" lon="9.3706517"><ele>1189.0</ele><time>2026-04-04T10:07:03.601Z</time></trkpt><trkpt lat="44.6129133" lon="9.3706717"><ele>1189.0</ele><time>2026-04-04T10:07:04.6Z</time></trkpt><trkpt lat="44.6128117" lon="9.37075"><ele>1189.0</ele><time>2026-04-04T10:07:06.6Z</time></trkpt><trkpt lat="44.6127117" lon="9.3708567"><ele>1189.0</ele><time>2026-04-04T10:07:08.601Z</time></trkpt><trkpt lat="44.6126183" lon="9.3709183"><ele>1189.0</ele><time>2026-04-04T10:07:10.6Z</time></trkpt><trkpt lat="44.6125333" lon="9.37099"><ele>1188.25</ele><time>2026-04-04T10:07:12.6Z</time></trkpt><trkpt lat="44.6124567" lon="9.371085"><ele>1187.5</ele><time>2026-04-04T10:07:14.601Z</time></trkpt><trkpt lat="44.6123517" lon="9.3711383"><ele>1186.75</ele><time>2026-04-04T10:07:16.6Z</time></trkpt><trkpt lat="44.6122383" lon="9.3712083"><ele>1186.0</ele><time>2026-04-04T10:07:18.6Z</time></trkpt><trkpt lat="44.6121367" lon="9.3712883"><ele>1186.0</ele><time>2026-04-04T10:07:20.6Z</time></trkpt><trkpt lat="44.61203" lon="9.371325"><ele>1186.0</ele><time>2026-04-04T10:07:22.6Z</time></trkpt><trkpt lat="44.6119167" lon="9.37137"><ele>1186.0</ele><time>2026-04-04T10:07:24.6Z</time></trkpt><trkpt lat="44.611805" lon="9.3713633"><ele>1186.0</ele><time>2026-04-04T10:07:26.601Z</time></trkpt><trkpt lat="44.6117" lon="9.3713383"><ele>1186.0</ele><time>2026-04-04T10:07:28.6Z</time></trkpt><trkpt lat="44.61163" lon="9.37121"><ele>1184.1666666666665</ele><time>2026-04-04T10:07:30.601Z</time></trkpt><trkpt lat="44.6115933" lon="9.371125"><ele>1182.3333333333333</ele><time>2026-04-04T10:07:31.599Z</time></trkpt><trkpt lat="44.6115567" lon="9.3710417"><ele>1180.5</ele><time>2026-04-04T10:07:32.601Z</time></trkpt><trkpt lat="44.6115083" lon="9.370985"><ele>1178.6666666666667</ele><time>2026-04-04T10:07:33.599Z</time></trkpt><trkpt lat="44.61139" lon="9.3709267"><ele>1176.8333333333335</ele><time>2026-04-04T10:07:35.601Z</time></trkpt><trkpt lat="44.6112783" lon="9.3708833"><ele>1175.0</ele><time>2026-04-04T10:07:37.601Z</time></trkpt><trkpt lat="44.6112067" lon="9.3708667"><ele>1174.1666666666667</ele><time>2026-04-04T10:07:38.6Z</time></trkpt><trkpt lat="44.61113" lon="9.3708367"><ele>1173.3333333333335</ele><time>2026-04-04T10:07:39.6Z</time></trkpt><trkpt lat="44.6110483" lon="9.3707967"><ele>1172.5</ele><time>2026-04-04T10:07:40.601Z</time></trkpt><trkpt lat="44.6109733" lon="9.3707583"><ele>1171.6666666666667</ele><time>2026-04-04T10:07:41.6Z</time></trkpt><trkpt lat="44.6109017" lon="9.370725"><ele>1170.8333333333333</ele><time>2026-04-04T10:07:42.6Z</time></trkpt><trkpt lat="44.6108267" lon="9.37069"><ele>1170.0</ele><time>2026-04-04T10:07:43.603Z</time></trkpt><trkpt lat="44.610745" lon="9.3706517"><ele>1170.0</ele><time>2026-04-04T10:07:44.6Z</time></trkpt><trkpt lat="44.6106617" lon="9.3705967"><ele>1170.0</ele><time>2026-04-04T10:07:45.6Z</time></trkpt><trkpt lat="44.6105833" lon="9.3705417"><ele>1170.0</ele><time>2026-04-04T10:07:46.599Z</time></trkpt><trkpt lat="44.6105217" lon="9.3705"><ele>1170.0</ele><time>2026-04-04T10:07:47.601Z</time></trkpt><trkpt lat="44.61046" lon="9.37045"><ele>1170.0</ele><time>2026-04-04T10:07:49.599Z</time></trkpt><trkpt lat="44.6103917" lon="9.3704383"><ele>1170.0</ele><time>2026-04-04T10:11:14.601Z</time></trkpt><trkpt lat="44.6103033" lon="9.3703067"><ele>1173.3333333333333</ele><time>2026-04-04T10:11:16.599Z</time></trkpt><trkpt lat="44.61025" lon="9.37023"><ele>1176.6666666666667</ele><time>2026-04-04T10:11:17.601Z</time></trkpt><trkpt lat="44.610195" lon="9.3701633"><ele>1180.0</ele><time>2026-04-04T10:11:18.6Z</time></trkpt><trkpt lat="44.6101333" lon="9.3701017"><ele>1183.3333333333335</ele><time>2026-04-04T10:11:19.601Z</time></trkpt><trkpt lat="44.6100567" lon="9.3700517"><ele>1186.6666666666667</ele><time>2026-04-04T10:11:20.602Z</time></trkpt><trkpt lat="44.6099833" lon="9.3700033"><ele>1190.0</ele><time>2026-04-04T10:11:21.601Z</time></trkpt><trkpt lat="44.6098933" lon="9.36997"><ele>1190.0</ele><time>2026-04-04T10:11:22.601Z</time></trkpt><trkpt lat="44.6098033" lon="9.3699333"><ele>1190.0</ele><time>2026-04-04T10:11:23.601Z</time></trkpt><trkpt lat="44.609715" lon="9.36989"><ele>1190.0</ele><time>2026-04-04T10:11:24.601Z</time></trkpt><trkpt lat="44.6096433" lon="9.3698317"><ele>1190.0</ele><time>2026-04-04T10:11:25.602Z</time></trkpt><trkpt lat="44.609575" lon="9.3697933"><ele>1190.0</ele><time>2026-04-04T10:11:26.601Z</time></trkpt><trkpt lat="44.6095133" lon="9.3697483"><ele>1190.0</ele><time>2026-04-04T10:11:27.601Z</time></trkpt><trkpt lat="44.609445" lon="9.3697033"><ele>1190.6</ele><time>2026-04-04T10:11:28.602Z</time></trkpt><trkpt lat="44.609375" lon="9.369665"><ele>1191.2</ele><time>2026-04-04T10:11:29.601Z</time></trkpt><trkpt lat="44.6092633" lon="9.3696117"><ele>1191.8</ele><time>2026-04-04T10:11:31.602Z</time></trkpt><trkpt lat="44.6091433" lon="9.369635"><ele>1192.4</ele><time>2026-04-04T10:11:33.6Z</time></trkpt><trkpt lat="44.6090817" lon="9.3696933"><ele>1193.0</ele><time>2026-04-04T10:11:34.601Z</time></trkpt><trkpt lat="44.6090317" lon="9.369775"><ele>1193.142857142857</ele><time>2026-04-04T10:11:35.602Z</time></trkpt><trkpt lat="44.6089817" lon="9.3698517"><ele>1193.2857142857142</ele><time>2026-04-04T10:11:36.601Z</time></trkpt><trkpt lat="44.60893" lon="9.3699233"><ele>1193.4285714285716</ele><time>2026-04-04T10:11:37.6Z</time></trkpt><trkpt lat="44.6088717" lon="9.3699817"><ele>1193.5714285714284</ele><time>2026-04-04T10:11:38.601Z</time></trkpt><trkpt lat="44.608815" lon="9.3700383"><ele>1193.7142857142858</ele><time>2026-04-04T10:11:39.602Z</time></trkpt><trkpt lat="44.608755" lon="9.3700983"><ele>1193.857142857143</ele><time>2026-04-04T10:11:40.601Z</time></trkpt><trkpt lat="44.60869" lon="9.370155"><ele>1194.0</ele><time>2026-04-04T10:11:41.6Z</time></trkpt><trkpt lat="44.6086083" lon="9.370215"><ele>1194.0</ele><time>2026-04-04T10:11:42.6Z</time></trkpt><trkpt lat="44.6085283" lon="9.3702667"><ele>1194.0</ele><time>2026-04-04T10:11:43.6Z</time></trkpt><trkpt lat="44.608445" lon="9.37032"><ele>1194.0</ele><time>2026-04-04T10:11:44.602Z</time></trkpt><trkpt lat="44.6083583" lon="9.3703717"><ele>1194.0</ele><time>2026-04-04T10:11:45.6Z</time></trkpt><trkpt lat="44.608275" lon="9.370435"><ele>1194.0</ele><time>2026-04-04T10:11:46.601Z</time></trkpt><trkpt lat="44.6081967" lon="9.37051"><ele>1194.8333333333333</ele><time>2026-04-04T10:11:47.6Z</time></trkpt><trkpt lat="44.6081233" lon="9.3705733"><ele>1195.6666666666667</ele><time>2026-04-04T10:11:48.6Z</time></trkpt><trkpt lat="44.60805" lon="9.3706283"><ele>1196.5</ele><time>2026-04-04T10:11:49.602Z</time></trkpt><trkpt lat="44.60798" lon="9.3706767"><ele>1197.3333333333335</ele><time>2026-04-04T10:11:50.601Z</time></trkpt><trkpt lat="44.6079267" lon="9.3707283"><ele>1198.1666666666667</ele><time>2026-04-04T10:11:51.601Z</time></trkpt><trkpt lat="44.60786" lon="9.3708517"><ele>1199.0</ele><time>2026-04-04T10:11:53.601Z</time></trkpt><trkpt lat="44.60775" lon="9.3709167"><ele>1199.5714285714287</ele><time>2026-04-04T10:11:55.6Z</time></trkpt><trkpt lat="44.6076867" lon="9.3709183"><ele>1200.142857142857</ele><time>2026-04-04T10:11:56.601Z</time></trkpt><trkpt lat="44.60762" lon="9.37091"><ele>1200.7142857142858</ele><time>2026-04-04T10:11:57.601Z</time></trkpt><trkpt lat="44.6075517" lon="9.3708983"><ele>1201.2857142857142</ele><time>2026-04-04T10:11:58.601Z</time></trkpt><trkpt lat="44.6074783" lon="9.37089"><ele>1201.857142857143</ele><time>2026-04-04T10:11:59.6Z</time></trkpt><trkpt lat="44.6073967" lon="9.3708967"><ele>1202.4285714285713</ele><time>2026-04-04T10:12:00.6Z</time></trkpt><trkpt lat="44.6073033" lon="9.370905"><ele>1203.0</ele><time>2026-04-04T10:12:01.602Z</time></trkpt><trkpt lat="44.607205" lon="9.3709083"><ele>1203.0</ele><time>2026-04-04T10:12:02.602Z</time></trkpt><trkpt lat="44.6071167" lon="9.3709067"><ele>1203.0</ele><time>2026-04-04T10:12:03.6Z</time></trkpt><trkpt lat="44.6070167" lon="9.370915"><ele>1203.0</ele><time>2026-04-04T10:12:04.6Z</time></trkpt><trkpt lat="44.60692" lon="9.3709333"><ele>1203.0</ele><time>2026-04-04T10:12:05.6Z</time></trkpt><trkpt lat="44.6068333" lon="9.3709533"><ele>1203.0</ele><time>2026-04-04T10:12:06.601Z</time></trkpt><trkpt lat="44.60675" lon="9.37095"><ele>1202.5</ele><time>2026-04-04T10:12:07.6Z</time></trkpt><trkpt lat="44.60667" lon="9.37093"><ele>1202.0</ele><time>2026-04-04T10:12:08.6Z</time></trkpt><trkpt lat="44.6065933" lon="9.3709067"><ele>1201.5</ele><time>2026-04-04T10:12:09.601Z</time></trkpt><trkpt lat="44.60652" lon="9.37087"><ele>1201.0</ele><time>2026-04-04T10:12:10.601Z</time></trkpt><trkpt lat="44.6064533" lon="9.370815"><ele>1200.5</ele><time>2026-04-04T10:12:11.6Z</time></trkpt><trkpt lat="44.6063867" lon="9.370765"><ele>1200.0</ele><time>2026-04-04T10:12:12.601Z</time></trkpt><trkpt lat="44.6063167" lon="9.3707083"><ele>1200.0</ele><time>2026-04-04T10:12:13.6Z</time></trkpt><trkpt lat="44.6061967" lon="9.370655"><ele>1200.0</ele><time>2026-04-04T10:12:15.601Z</time></trkpt><trkpt lat="44.60612" lon="9.3706783"><ele>1200.0</ele><time>2026-04-04T10:12:16.6Z</time></trkpt><trkpt lat="44.6060417" lon="9.37069"><ele>1200.0</ele><time>2026-04-04T10:12:17.601Z</time></trkpt><trkpt lat="44.60597" lon="9.3706883"><ele>1200.0</ele><time>2026-04-04T10:12:18.6Z</time></trkpt><trkpt lat="44.60589" lon="9.3706617"><ele>1200.0</ele><time>2026-04-04T10:12:19.601Z</time></trkpt><trkpt lat="44.605795" lon="9.3706233"><ele>1198.6</ele><time>2026-04-04T10:12:20.602Z</time></trkpt><trkpt lat="44.6056967" lon="9.370585"><ele>1197.2</ele><time>2026-04-04T10:12:21.6Z</time></trkpt><trkpt lat="44.6055967" lon="9.3705533"><ele>1195.8</ele><time>2026-04-04T10:12:22.602Z</time></trkpt><trkpt lat="44.6054967" lon="9.370535"><ele>1194.4</ele><time>2026-04-04T10:12:23.601Z</time></trkpt><trkpt lat="44.6053667" lon="9.3705167"><ele>1193.0</ele><time>2026-04-04T10:12:24.601Z</time></trkpt><trkpt lat="44.60524" lon="9.37049"><ele>1192.5</ele><time>2026-04-04T10:12:25.6Z</time></trkpt><trkpt lat="44.60511" lon="9.3704583"><ele>1192.0</ele><time>2026-04-04T10:12:26.601Z</time></trkpt><trkpt lat="44.604975" lon="9.370435"><ele>1191.5</ele><time>2026-04-04T10:12:27.601Z</time></trkpt><trkpt lat="44.6048433" lon="9.3704367"><ele>1191.0</ele><time>2026-04-04T10:12:28.601Z</time></trkpt><trkpt lat="44.60472" lon="9.37044"><ele>1191.0</ele><time>2026-04-04T10:12:29.603Z</time></trkpt><trkpt lat="44.60461" lon="9.3704517"><ele>1191.0</ele><time>2026-04-04T10:12:30.6Z</time></trkpt><trkpt lat="44.604495" lon="9.3704783"><ele>1191.0</ele><time>2026-04-04T10:12:31.6Z</time></trkpt><trkpt lat="44.6043583" lon="9.3705133"><ele>1191.0</ele><time>2026-04-04T10:12:32.602Z</time></trkpt><trkpt lat="44.6042367" lon="9.3705317"><ele>1191.0</ele><time>2026-04-04T10:12:33.6Z</time></trkpt><trkpt lat="44.60411" lon="9.3705433"><ele>1191.0</ele><time>2026-04-04T10:12:34.601Z</time></trkpt><trkpt lat="44.603985" lon="9.3705433"><ele>1191.0</ele><time>2026-04-04T10:12:35.6Z</time></trkpt><trkpt lat="44.6038683" lon="9.3705267"><ele>1191.0</ele><time>2026-04-04T10:12:36.602Z</time></trkpt><trkpt lat="44.603765" lon="9.3704967"><ele>1191.0</ele><time>2026-04-04T10:12:37.6Z</time></trkpt><trkpt lat="44.6036733" lon="9.370465"><ele>1191.0</ele><time>2026-04-04T10:12:38.6Z</time></trkpt><trkpt lat="44.6035883" lon="9.3704317"><ele>1191.0</ele><time>2026-04-04T10:12:39.601Z</time></trkpt><trkpt lat="44.603485" lon="9.3704017"><ele>1191.0</ele><time>2026-04-04T10:12:40.6Z</time></trkpt><trkpt lat="44.6033833" lon="9.37036"><ele>1191.0</ele><time>2026-04-04T10:12:41.601Z</time></trkpt><trkpt lat="44.60328" lon="9.3703133"><ele>1192.0</ele><time>2026-04-04T10:12:42.602Z</time></trkpt><trkpt lat="44.603165" lon="9.3702917"><ele>1193.0</ele><time>2026-04-04T10:12:43.6Z</time></trkpt><trkpt lat="44.6030483" lon="9.3702883"><ele>1194.0</ele><time>2026-04-04T10:12:44.601Z</time></trkpt><trkpt lat="44.6029267" lon="9.3703017"><ele>1195.0</ele><time>2026-04-04T10:12:45.6Z</time></trkpt><trkpt lat="44.6028067" lon="9.3703033"><ele>1197.0</ele><time>2026-04-04T10:12:46.601Z</time></trkpt><trkpt lat="44.60268" lon="9.370295"><ele>1199.0</ele><time>2026-04-04T10:12:47.6Z</time></trkpt><trkpt lat="44.6025667" lon="9.3702867"><ele>1201.0</ele><time>2026-04-04T10:12:48.601Z</time></trkpt><trkpt lat="44.6024583" lon="9.370275"><ele>1203.0</ele><time>2026-04-04T10:12:49.602Z</time></trkpt><trkpt lat="44.6023533" lon="9.3702483"><ele>1203.0</ele><time>2026-04-04T10:12:50.601Z</time></trkpt><trkpt lat="44.6022583" lon="9.3701917"><ele>1203.0</ele><time>2026-04-04T10:12:51.601Z</time></trkpt><trkpt lat="44.6021717" lon="9.3701083"><ele>1203.0</ele><time>2026-04-04T10:12:52.601Z</time></trkpt><trkpt lat="44.602085" lon="9.3700217"><ele>1203.0</ele><time>2026-04-04T10:12:53.602Z</time></trkpt><trkpt lat="44.602005" lon="9.3699233"><ele>1203.0</ele><time>2026-04-04T10:12:54.6Z</time></trkpt><trkpt lat="44.601935" lon="9.3698017"><ele>1203.0</ele><time>2026-04-04T10:12:55.602Z</time></trkpt><trkpt lat="44.601885" lon="9.36967"><ele>1203.0</ele><time>2026-04-04T10:12:56.6Z</time></trkpt><trkpt lat="44.6018383" lon="9.3695367"><ele>1203.0</ele><time>2026-04-04T10:12:57.601Z</time></trkpt><trkpt lat="44.6017833" lon="9.3694083"><ele>1203.0</ele><time>2026-04-04T10:12:58.6Z</time></trkpt><trkpt lat="44.6017233" lon="9.3692867"><ele>1203.0</ele><time>2026-04-04T10:12:59.602Z</time></trkpt><trkpt lat="44.6016617" lon="9.369175"><ele>1203.0</ele><time>2026-04-04T10:13:00.601Z</time></trkpt><trkpt lat="44.6015817" lon="9.36907"><ele>1203.0</ele><time>2026-04-04T10:13:01.601Z</time></trkpt><trkpt lat="44.601495" lon="9.3689533"><ele>1203.0</ele><time>2026-04-04T10:13:02.602Z</time></trkpt><trkpt lat="44.601405" lon="9.368835"><ele>1203.0</ele><time>2026-04-04T10:13:03.601Z</time></trkpt><trkpt lat="44.601315" lon="9.3687017"><ele>1202.5</ele><time>2026-04-04T10:13:04.6Z</time></trkpt><trkpt lat="44.6012183" lon="9.3685683"><ele>1202.0</ele><time>2026-04-04T10:13:05.6Z</time></trkpt><trkpt lat="44.6011283" lon="9.3684433"><ele>1201.5</ele><time>2026-04-04T10:13:06.601Z</time></trkpt><trkpt lat="44.6010383" lon="9.36831"><ele>1201.0</ele><time>2026-04-04T10:13:07.599Z</time></trkpt><trkpt lat="44.6009617" lon="9.3681767"><ele>1203.75</ele><time>2026-04-04T10:13:08.601Z</time></trkpt><trkpt lat="44.6009" lon="9.3680233"><ele>1206.5</ele><time>2026-04-04T10:13:09.6Z</time></trkpt><trkpt lat="44.6008517" lon="9.3678667"><ele>1209.25</ele><time>2026-04-04T10:13:10.599Z</time></trkpt><trkpt lat="44.60081" lon="9.36772"><ele>1212.0</ele><time>2026-04-04T10:13:11.601Z</time></trkpt><trkpt lat="44.600775" lon="9.3675933"><ele>1212.0</ele><time>2026-04-04T10:13:12.6Z</time></trkpt><trkpt lat="44.60075" lon="9.36745"><ele>1212.0</ele><time>2026-04-04T10:13:13.599Z</time></trkpt><trkpt lat="44.60073" lon="9.3673067"><ele>1212.0</ele><time>2026-04-04T10:13:14.601Z</time></trkpt><trkpt lat="44.600715" lon="9.3671733"><ele>1212.0</ele><time>2026-04-04T10:13:15.599Z</time></trkpt><trkpt lat="44.6007183" lon="9.367035"><ele>1212.0</ele><time>2026-04-04T10:13:16.599Z</time></trkpt><trkpt lat="44.6007283" lon="9.3669217"><ele>1212.0</ele><time>2026-04-04T10:13:17.6Z</time></trkpt><trkpt lat="44.6007333" lon="9.3668017"><ele>1212.0</ele><time>2026-04-04T10:13:18.6Z</time></trkpt><trkpt lat="44.6007117" lon="9.366695"><ele>1212.0</ele><time>2026-04-04T10:13:19.599Z</time></trkpt><trkpt lat="44.6005833" lon="9.3666533"><ele>1212.0</ele><time>2026-04-04T10:13:21.6Z</time></trkpt><trkpt lat="44.600515" lon="9.3666517"><ele>1212.0</ele><time>2026-04-04T10:13:22.6Z</time></trkpt><trkpt lat="44.6004067" lon="9.3666633"><ele>1213.0</ele><time>2026-04-04T10:13:23.6Z</time></trkpt><trkpt lat="44.60028" lon="9.3666917"><ele>1214.0</ele><time>2026-04-04T10:13:24.601Z</time></trkpt><trkpt lat="44.6001383" lon="9.3667367"><ele>1215.0</ele><time>2026-04-04T10:13:25.599Z</time></trkpt><trkpt lat="44.600015" lon="9.36678"><ele>1216.0</ele><time>2026-04-04T10:13:26.601Z</time></trkpt><trkpt lat="44.5999033" lon="9.3668183"><ele>1216.0</ele><time>2026-04-04T10:13:27.6Z</time></trkpt><trkpt lat="44.5997833" lon="9.3668333"><ele>1216.0</ele><time>2026-04-04T10:13:28.601Z</time></trkpt><trkpt lat="44.5996533" lon="9.366835"><ele>1216.0</ele><time>2026-04-04T10:13:29.599Z</time></trkpt><trkpt lat="44.5995183" lon="9.3668233"><ele>1216.0</ele><time>2026-04-04T10:13:30.599Z</time></trkpt><trkpt lat="44.59938" lon="9.3668067"><ele>1214.0</ele><time>2026-04-04T10:13:31.6Z</time></trkpt><trkpt lat="44.599245" lon="9.3667783"><ele>1212.0</ele><time>2026-04-04T10:13:32.6Z</time></trkpt><trkpt lat="44.5991233" lon="9.3667367"><ele>1210.0</ele><time>2026-04-04T10:13:33.6Z</time></trkpt><trkpt lat="44.599005" lon="9.3666733"><ele>1208.0</ele><time>2026-04-04T10:13:34.599Z</time></trkpt><trkpt lat="44.5988833" lon="9.3666033"><ele>1208.0</ele><time>2026-04-04T10:13:35.599Z</time></trkpt><trkpt lat="44.5987533" lon="9.3665367"><ele>1208.0</ele><time>2026-04-04T10:13:36.599Z</time></trkpt><trkpt lat="44.5986267" lon="9.36649"><ele>1208.0</ele><time>2026-04-04T10:13:37.6Z</time></trkpt><trkpt lat="44.5985033" lon="9.36646"><ele>1208.0</ele><time>2026-04-04T10:13:38.6Z</time></trkpt><trkpt lat="44.5984" lon="9.3664483"><ele>1207.0</ele><time>2026-04-04T10:13:39.599Z</time></trkpt><trkpt lat="44.59832" lon="9.3664167"><ele>1206.0</ele><time>2026-04-04T10:13:40.599Z</time></trkpt><trkpt lat="44.5982367" lon="9.3663633"><ele>1205.0</ele><time>2026-04-04T10:13:41.6Z</time></trkpt><trkpt lat="44.5981517" lon="9.366305"><ele>1204.0</ele><time>2026-04-04T10:13:42.6Z</time></trkpt><trkpt lat="44.5980733" lon="9.3662417"><ele>1203.0</ele><time>2026-04-04T10:13:43.6Z</time></trkpt><trkpt lat="44.598005" lon="9.3661667"><ele>1202.0</ele><time>2026-04-04T10:13:44.6Z</time></trkpt><trkpt lat="44.5979283" lon="9.3660833"><ele>1203.5</ele><time>2026-04-04T10:13:45.6Z</time></trkpt><trkpt lat="44.5978267" lon="9.3659883"><ele>1205.0</ele><time>2026-04-04T10:13:46.601Z</time></trkpt><trkpt lat="44.5977233" lon="9.3659033"><ele>1206.5</ele><time>2026-04-04T10:13:47.601Z</time></trkpt><trkpt lat="44.5976217" lon="9.3658233"><ele>1208.0</ele><time>2026-04-04T10:13:48.599Z</time></trkpt><trkpt lat="44.5975183" lon="9.3657583"><ele>1208.0</ele><time>2026-04-04T10:13:49.6Z</time></trkpt><trkpt lat="44.5974283" lon="9.36569"><ele>1208.0</ele><time>2026-04-04T10:13:50.6Z</time></trkpt><trkpt lat="44.5973533" lon="9.365595"><ele>1208.0</ele><time>2026-04-04T10:13:51.6Z</time></trkpt><trkpt lat="44.5972817" lon="9.36549"><ele>1208.0</ele><time>2026-04-04T10:13:52.6Z</time></trkpt><trkpt lat="44.597205" lon="9.3654067"><ele>1208.0</ele><time>2026-04-04T10:13:53.601Z</time></trkpt><trkpt lat="44.5971317" lon="9.365345"><ele>1207.6</ele><time>2026-04-04T10:13:54.6Z</time></trkpt><trkpt lat="44.59705" lon="9.3653083"><ele>1207.1999999999998</ele><time>2026-04-04T10:13:55.599Z</time></trkpt><trkpt lat="44.5969617" lon="9.3652933"><ele>1206.8</ele><time>2026-04-04T10:13:56.602Z</time></trkpt><trkpt lat="44.596865" lon="9.3652917"><ele>1206.3999999999999</ele><time>2026-04-04T10:13:57.6Z</time></trkpt><trkpt lat="44.59676" lon="9.365305"><ele>1206.0</ele><time>2026-04-04T10:13:58.6Z</time></trkpt><trkpt lat="44.59664" lon="9.3653117"><ele>1210.0</ele><time>2026-04-04T10:13:59.6Z</time></trkpt><trkpt lat="44.5965083" lon="9.3653317"><ele>1214.0</ele><time>2026-04-04T10:14:00.6Z</time></trkpt><trkpt lat="44.596395" lon="9.3653267"><ele>1218.0</ele><time>2026-04-04T10:14:01.599Z</time></trkpt><trkpt lat="44.5962933" lon="9.3653033"><ele>1222.0</ele><time>2026-04-04T10:14:02.6Z</time></trkpt><trkpt lat="44.5962" lon="9.365295"><ele>1226.0</ele><time>2026-04-04T10:14:03.6Z</time></trkpt><trkpt lat="44.5961083" lon="9.3653067"><ele>1226.2</ele><time>2026-04-04T10:14:04.6Z</time></trkpt><trkpt lat="44.5960167" lon="9.3653433"><ele>1226.3999999999999</ele><time>2026-04-04T10:14:05.6Z</time></trkpt><trkpt lat="44.595945" lon="9.3654167"><ele>1226.6</ele><time>2026-04-04T10:14:06.605Z</time></trkpt><trkpt lat="44.59587" lon="9.3655183"><ele>1226.8</ele><time>2026-04-04T10:14:07.6Z</time></trkpt><trkpt lat="44.5957883" lon="9.36562"><ele>1227.0</ele><time>2026-04-04T10:14:08.601Z</time></trkpt><trkpt lat="44.5957033" lon="9.365705"><ele>1226.0</ele><time>2026-04-04T10:14:09.599Z</time></trkpt><trkpt lat="44.59562" lon="9.36577"><ele>1225.0</ele><time>2026-04-04T10:14:10.6Z</time></trkpt><trkpt lat="44.5955233" lon="9.3658133"><ele>1224.0</ele><time>2026-04-04T10:14:11.599Z</time></trkpt><trkpt lat="44.5954233" lon="9.365835"><ele>1223.0</ele><time>2026-04-04T10:14:12.6Z</time></trkpt><trkpt lat="44.5953267" lon="9.3658367"><ele>1222.0</ele><time>2026-04-04T10:14:13.6Z</time></trkpt><trkpt lat="44.5952183" lon="9.3658183"><ele>1225.2</ele><time>2026-04-04T10:14:14.601Z</time></trkpt><trkpt lat="44.5951083" lon="9.3658017"><ele>1228.4</ele><time>2026-04-04T10:14:15.6Z</time></trkpt><trkpt lat="44.5950033" lon="9.3658017"><ele>1231.6</ele><time>2026-04-04T10:14:16.6Z</time></trkpt><trkpt lat="44.5948983" lon="9.3658083"><ele>1234.8</ele><time>2026-04-04T10:14:17.601Z</time></trkpt><trkpt lat="44.5947867" lon="9.3658483"><ele>1238.0</ele><time>2026-04-04T10:14:18.599Z</time></trkpt><trkpt lat="44.5946867" lon="9.365895"><ele>1238.0</ele><time>2026-04-04T10:14:19.601Z</time></trkpt><trkpt lat="44.5945883" lon="9.36593"><ele>1238.0</ele><time>2026-04-04T10:14:20.601Z</time></trkpt><trkpt lat="44.594485" lon="9.3659417"><ele>1238.0</ele><time>2026-04-04T10:14:21.6Z</time></trkpt><trkpt lat="44.5943717" lon="9.365945"><ele>1238.0</ele><time>2026-04-04T10:14:22.6Z</time></trkpt><trkpt lat="44.594265" lon="9.3659483"><ele>1238.0</ele><time>2026-04-04T10:14:23.599Z</time></trkpt><trkpt lat="44.5941617" lon="9.3659583"><ele>1240.5</ele><time>2026-04-04T10:14:24.6Z</time></trkpt><trkpt lat="44.5940683" lon="9.3659783"><ele>1243.0</ele><time>2026-04-04T10:14:25.599Z</time></trkpt><trkpt lat="44.59398" lon="9.366"><ele>1245.5</ele><time>2026-04-04T10:14:26.601Z</time></trkpt><trkpt lat="44.59389" lon="9.366005"><ele>1248.0</ele><time>2026-04-04T10:14:27.6Z</time></trkpt><trkpt lat="44.59381" lon="9.3659983"><ele>1250.5</ele><time>2026-04-04T10:14:28.6Z</time></trkpt><trkpt lat="44.5937317" lon="9.3659833"><ele>1253.0</ele><time>2026-04-04T10:14:29.6Z</time></trkpt><trkpt lat="44.5936517" lon="9.3659567"><ele>1255.1666666666667</ele><time>2026-04-04T10:14:30.601Z</time></trkpt><trkpt lat="44.5935667" lon="9.365915"><ele>1257.3333333333335</ele><time>2026-04-04T10:14:31.6Z</time></trkpt><trkpt lat="44.5934883" lon="9.36587"><ele>1259.5</ele><time>2026-04-04T10:14:32.601Z</time></trkpt><trkpt lat="44.5934217" lon="9.3658333"><ele>1261.6666666666667</ele><time>2026-04-04T10:14:33.6Z</time></trkpt><trkpt lat="44.59336" lon="9.3658033"><ele>1263.8333333333333</ele><time>2026-04-04T10:14:34.601Z</time></trkpt><trkpt lat="44.59329" lon="9.3658017"><ele>1266.0</ele><time>2026-04-04T10:14:35.6Z</time></trkpt><trkpt lat="44.59322" lon="9.3658117"><ele>1266.0</ele><time>2026-04-04T10:14:36.599Z</time></trkpt><trkpt lat="44.5931283" lon="9.365825"><ele>1266.0</ele><time>2026-04-04T10:14:38.605Z</time></trkpt><trkpt lat="44.5930267" lon="9.3658217"><ele>1266.0</ele><time>2026-04-04T10:14:50.599Z</time></trkpt><trkpt lat="44.5929633" lon="9.36579"><ele>1266.0</ele><time>2026-04-04T10:14:51.6Z</time></trkpt><trkpt lat="44.5929" lon="9.3657483"><ele>1266.0</ele><time>2026-04-04T10:14:52.6Z</time></trkpt><trkpt lat="44.5928233" lon="9.3657183"><ele>1266.0</ele><time>2026-04-04T10:14:53.6Z</time></trkpt><trkpt lat="44.5927517" lon="9.3657033"><ele>1266.8333333333333</ele><time>2026-04-04T10:14:54.602Z</time></trkpt><trkpt lat="44.5926717" lon="9.36571"><ele>1267.6666666666667</ele><time>2026-04-04T10:14:55.6Z</time></trkpt><trkpt lat="44.5925883" lon="9.3657317"><ele>1268.5</ele><time>2026-04-04T10:14:56.601Z</time></trkpt><trkpt lat="44.592505" lon="9.3657483"><ele>1269.3333333333335</ele><time>2026-04-04T10:14:57.6Z</time></trkpt><trkpt lat="44.5924167" lon="9.3657483"><ele>1270.1666666666667</ele><time>2026-04-04T10:14:58.6Z</time></trkpt><trkpt lat="44.5923367" lon="9.36573"><ele>1271.0</ele><time>2026-04-04T10:14:59.6Z</time></trkpt><trkpt lat="44.5922633" lon="9.3656967"><ele>1271.0</ele><time>2026-04-04T10:15:00.6Z</time></trkpt><trkpt lat="44.5921833" lon="9.36566"><ele>1271.0</ele><time>2026-04-04T10:15:01.6Z</time></trkpt><trkpt lat="44.5921" lon="9.3656283"><ele>1271.0</ele><time>2026-04-04T10:15:02.6Z</time></trkpt><trkpt lat="44.592005" lon="9.3656083"><ele>1271.0</ele><time>2026-04-04T10:15:03.599Z</time></trkpt><trkpt lat="44.5919083" lon="9.365605"><ele>1271.0</ele><time>2026-04-04T10:15:04.602Z</time></trkpt><trkpt lat="44.5918233" lon="9.365615"><ele>1271.0</ele><time>2026-04-04T10:15:05.6Z</time></trkpt><trkpt lat="44.5917433" lon="9.3656533"><ele>1273.5</ele><time>2026-04-04T10:15:06.599Z</time></trkpt><trkpt lat="44.59168" lon="9.3657017"><ele>1276.0</ele><time>2026-04-04T10:15:07.601Z</time></trkpt><trkpt lat="44.591615" lon="9.3657633"><ele>1278.5</ele><time>2026-04-04T10:15:08.599Z</time></trkpt><trkpt lat="44.5915467" lon="9.36581"><ele>1281.0</ele><time>2026-04-04T10:15:09.599Z</time></trkpt><trkpt lat="44.59148" lon="9.36583"><ele>1283.5</ele><time>2026-04-04T10:15:10.6Z</time></trkpt><trkpt lat="44.5914083" lon="9.3658283"><ele>1286.0</ele><time>2026-04-04T10:15:11.6Z</time></trkpt><trkpt lat="44.5912933" lon="9.3658"><ele>1286.0</ele><time>2026-04-04T10:15:13.601Z</time></trkpt><trkpt lat="44.5912017" lon="9.3658567"><ele>1286.0</ele><time>2026-04-04T10:15:15.601Z</time></trkpt><trkpt lat="44.59117" lon="9.3659517"><ele>1286.0</ele><time>2026-04-04T10:15:16.6Z</time></trkpt><trkpt lat="44.591145" lon="9.366055"><ele>1286.0</ele><time>2026-04-04T10:15:17.601Z</time></trkpt><trkpt lat="44.5911367" lon="9.36617"><ele>1286.0</ele><time>2026-04-04T10:15:18.6Z</time></trkpt><trkpt lat="44.591125" lon="9.3662783"><ele>1286.0</ele><time>2026-04-04T10:15:19.6Z</time></trkpt><trkpt lat="44.5911017" lon="9.3663667"><ele>1286.6</ele><time>2026-04-04T10:15:20.6Z</time></trkpt><trkpt lat="44.590995" lon="9.3664767"><ele>1287.1999999999998</ele><time>2026-04-04T10:15:22.601Z</time></trkpt><trkpt lat="44.59093" lon="9.3665067"><ele>1287.8000000000002</ele><time>2026-04-04T10:15:23.599Z</time></trkpt><trkpt lat="44.5908433" lon="9.3664867"><ele>1288.4</ele><time>2026-04-04T10:15:24.599Z</time></trkpt><trkpt lat="44.590745" lon="9.36645"><ele>1289.0</ele><time>2026-04-04T10:15:25.599Z</time></trkpt><trkpt lat="44.5906433" lon="9.3664"><ele>1292.8000000000002</ele><time>2026-04-04T10:15:26.601Z</time></trkpt><trkpt lat="44.5905367" lon="9.366345"><ele>1296.6000000000001</ele><time>2026-04-04T10:15:27.6Z</time></trkpt><trkpt lat="44.5904383" lon="9.36629"><ele>1300.4</ele><time>2026-04-04T10:15:28.6Z</time></trkpt><trkpt lat="44.5903567" lon="9.3662283"><ele>1304.2</ele><time>2026-04-04T10:15:29.599Z</time></trkpt><trkpt lat="44.5902817" lon="9.3661317"><ele>1308.0</ele><time>2026-04-04T10:15:30.6Z</time></trkpt><trkpt lat="44.5902167" lon="9.3660217"><ele>1308.4</ele><time>2026-04-04T10:15:31.6Z</time></trkpt><trkpt lat="44.590155" lon="9.3659117"><ele>1308.8000000000002</ele><time>2026-04-04T10:15:32.6Z</time></trkpt><trkpt lat="44.5900967" lon="9.3658067"><ele>1309.2</ele><time>2026-04-04T10:15:33.599Z</time></trkpt><trkpt lat="44.5900317" lon="9.3657233"><ele>1309.6</ele><time>2026-04-04T10:15:34.599Z</time></trkpt><trkpt lat="44.5899617" lon="9.3656517"><ele>1310.0</ele><time>2026-04-04T10:15:35.6Z</time></trkpt><trkpt lat="44.589875" lon="9.365605"><ele>1310.0</ele><time>2026-04-04T10:15:36.601Z</time></trkpt><trkpt lat="44.5897683" lon="9.3655833"><ele>1310.0</ele><time>2026-04-04T10:15:37.602Z</time></trkpt><trkpt lat="44.589665" lon="9.365545"><ele>1310.0</ele><time>2026-04-04T10:15:38.6Z</time></trkpt><trkpt lat="44.58957" lon="9.365505"><ele>1310.0</ele><time>2026-04-04T10:15:39.6Z</time></trkpt><trkpt lat="44.5894867" lon="9.36547"><ele>1310.0</ele><time>2026-04-04T10:15:40.6Z</time></trkpt><trkpt lat="44.589425" lon="9.3654317"><ele>1313.0</ele><time>2026-04-04T10:15:41.6Z</time></trkpt><trkpt lat="44.5893817" lon="9.3653567"><ele>1316.0</ele><time>2026-04-04T10:15:43.601Z</time></trkpt><trkpt lat="44.5893867" lon="9.36524"><ele>1319.0</ele><time>2026-04-04T10:15:45.6Z</time></trkpt><trkpt lat="44.5894217" lon="9.36515"><ele>1322.0</ele><time>2026-04-04T10:15:47.6Z</time></trkpt><trkpt lat="44.5894533" lon="9.3650583"><ele>1325.0</ele><time>2026-04-04T10:15:49.6Z</time></trkpt><trkpt lat="44.5895117" lon="9.36492"><ele>1328.0</ele><time>2026-04-04T10:15:51.599Z</time></trkpt><trkpt lat="44.5896183" lon="9.364845"><ele>1328.0</ele><time>2026-04-04T10:15:53.6Z</time></trkpt><trkpt lat="44.5896983" lon="9.3648367"><ele>1328.0</ele><time>2026-04-04T10:15:54.6Z</time></trkpt><trkpt lat="44.58978" lon="9.3648483"><ele>1328.0</ele><time>2026-04-04T10:15:55.601Z</time></trkpt><trkpt lat="44.5898667" lon="9.3648783"><ele>1328.0</ele><time>2026-04-04T10:15:56.602Z</time></trkpt><trkpt lat="44.58996" lon="9.36492"><ele>1328.0</ele><time>2026-04-04T10:15:57.6Z</time></trkpt><trkpt lat="44.5900367" lon="9.3649583"><ele>1328.0</ele><time>2026-04-04T10:15:58.601Z</time></trkpt><trkpt lat="44.59012" lon="9.3649717"><ele>1328.0</ele><time>2026-04-04T10:15:59.6Z</time></trkpt><trkpt lat="44.5902117" lon="9.3649617"><ele>1328.0</ele><time>2026-04-04T10:16:00.6Z</time></trkpt><trkpt lat="44.5902983" lon="9.3649417"><ele>1328.0</ele><time>2026-04-04T10:16:01.601Z</time></trkpt><trkpt lat="44.590375" lon="9.3649133"><ele>1328.0</ele><time>2026-04-04T10:16:02.601Z</time></trkpt><trkpt lat="44.59045" lon="9.3648467"><ele>1328.0</ele><time>2026-04-04T10:16:03.6Z</time></trkpt><trkpt lat="44.5905167" lon="9.3647517"><ele>1328.0</ele><time>2026-04-04T10:16:04.6Z</time></trkpt><trkpt lat="44.5905733" lon="9.36465"><ele>1327.6666666666667</ele><time>2026-04-04T10:16:05.599Z</time></trkpt><trkpt lat="44.5906033" lon="9.36455"><ele>1327.3333333333335</ele><time>2026-04-04T10:16:06.6Z</time></trkpt><trkpt lat="44.5906117" lon="9.3644483"><ele>1327.0</ele><time>2026-04-04T10:16:07.6Z</time></trkpt><trkpt lat="44.590585" lon="9.3643367"><ele>1326.6666666666667</ele><time>2026-04-04T10:16:08.6Z</time></trkpt><trkpt lat="44.5905417" lon="9.3642133"><ele>1326.3333333333333</ele><time>2026-04-04T10:16:09.599Z</time></trkpt><trkpt lat="44.590495" lon="9.364125"><ele>1326.0</ele><time>2026-04-04T10:16:10.6Z</time></trkpt><trkpt lat="44.5904467" lon="9.36405"><ele>1326.0</ele><time>2026-04-04T10:16:11.6Z</time></trkpt><trkpt lat="44.5903617" lon="9.3640133"><ele>1326.0</ele><time>2026-04-04T10:16:12.6Z</time></trkpt><trkpt lat="44.5902533" lon="9.36398"><ele>1326.0</ele><time>2026-04-04T10:16:13.6Z</time></trkpt><trkpt lat="44.5901533" lon="9.3639283"><ele>1326.0</ele><time>2026-04-04T10:16:14.6Z</time></trkpt><trkpt lat="44.5900517" lon="9.3638617"><ele>1326.0</ele><time>2026-04-04T10:16:15.6Z</time></trkpt><trkpt lat="44.5899567" lon="9.3637783"><ele>1328.6</ele><time>2026-04-04T10:16:16.601Z</time></trkpt><trkpt lat="44.58986" lon="9.3636867"><ele>1331.1999999999998</ele><time>2026-04-04T10:16:17.599Z</time></trkpt><trkpt lat="44.589765" lon="9.3636033"><ele>1333.8000000000002</ele><time>2026-04-04T10:16:18.6Z</time></trkpt><trkpt lat="44.5896867" lon="9.363525"><ele>1336.4</ele><time>2026-04-04T10:16:19.601Z</time></trkpt><trkpt lat="44.58962" lon="9.3634583"><ele>1339.0</ele><time>2026-04-04T10:16:20.6Z</time></trkpt><trkpt lat="44.5895633" lon="9.3634067"><ele>1344.0</ele><time>2026-04-04T10:16:21.6Z</time></trkpt><trkpt lat="44.589445" lon="9.363375"><ele>1349.0</ele><time>2026-04-04T10:16:23.6Z</time></trkpt><trkpt lat="44.589375" lon="9.3633667"><ele>1354.0</ele><time>2026-04-04T10:16:24.601Z</time></trkpt><trkpt lat="44.5892933" lon="9.363355"><ele>1359.0</ele><time>2026-04-04T10:16:25.601Z</time></trkpt><trkpt lat="44.5892017" lon="9.363335"><ele>1364.0</ele><time>2026-04-04T10:16:26.602Z</time></trkpt><trkpt lat="44.5891017" lon="9.3632983"><ele>1364.0</ele><time>2026-04-04T10:16:27.599Z</time></trkpt><trkpt lat="44.5889783" lon="9.3632433"><ele>1364.0</ele><time>2026-04-04T10:16:28.601Z</time></trkpt><trkpt lat="44.58887" lon="9.363185"><ele>1364.0</ele><time>2026-04-04T10:16:29.6Z</time></trkpt><trkpt lat="44.58876" lon="9.3631317"><ele>1364.0</ele><time>2026-04-04T10:16:30.599Z</time></trkpt><trkpt lat="44.5886367" lon="9.36307"><ele>1365.25</ele><time>2026-04-04T10:16:31.601Z</time></trkpt><trkpt lat="44.5885217" lon="9.3630117"><ele>1366.5</ele><time>2026-04-04T10:16:32.602Z</time></trkpt><trkpt lat="44.5884033" lon="9.362955"><ele>1367.75</ele><time>2026-04-04T10:16:33.599Z</time></trkpt><trkpt lat="44.58831" lon="9.3629083"><ele>1369.0</ele><time>2026-04-04T10:16:34.599Z</time></trkpt><trkpt lat="44.5882083" lon="9.3628783"><ele>1369.0</ele><time>2026-04-04T10:16:35.6Z</time></trkpt><trkpt lat="44.5881133" lon="9.3628533"><ele>1369.0</ele><time>2026-04-04T10:16:36.602Z</time></trkpt><trkpt lat="44.58801" lon="9.3628317"><ele>1369.0</ele><time>2026-04-04T10:16:37.6Z</time></trkpt><trkpt lat="44.5879133" lon="9.3628083"><ele>1369.0</ele><time>2026-04-04T10:16:38.601Z</time></trkpt><trkpt lat="44.58783" lon="9.362775"><ele>1369.0</ele><time>2026-04-04T10:16:39.6Z</time></trkpt><trkpt lat="44.5877517" lon="9.36271"><ele>1373.0</ele><time>2026-04-04T10:16:40.601Z</time></trkpt><trkpt lat="44.5876883" lon="9.362635"><ele>1377.0</ele><time>2026-04-04T10:16:41.6Z</time></trkpt><trkpt lat="44.58762" lon="9.3625633"><ele>1381.0</ele><time>2026-04-04T10:16:42.6Z</time></trkpt><trkpt lat="44.587545" lon="9.3624983"><ele>1385.0</ele><time>2026-04-04T10:16:43.6Z</time></trkpt><trkpt lat="44.5874767" lon="9.36242"><ele>1389.0</ele><time>2026-04-04T10:16:44.602Z</time></trkpt><trkpt lat="44.5874067" lon="9.362335"><ele>1393.0</ele><time>2026-04-04T10:16:45.599Z</time></trkpt><trkpt lat="44.5873333" lon="9.3622617"><ele>1393.0</ele><time>2026-04-04T10:16:46.601Z</time></trkpt><trkpt lat="44.58725" lon="9.3622117"><ele>1393.0</ele><time>2026-04-04T10:16:47.601Z</time></trkpt><trkpt lat="44.58716" lon="9.3621733"><ele>1393.0</ele><time>2026-04-04T10:16:48.599Z</time></trkpt><trkpt lat="44.5870767" lon="9.3621533"><ele>1393.0</ele><time>2026-04-04T10:16:49.601Z</time></trkpt><trkpt lat="44.5870017" lon="9.3621283"><ele>1393.0</ele><time>2026-04-04T10:16:50.601Z</time></trkpt><trkpt lat="44.58691" lon="9.3621283"><ele>1393.0</ele><time>2026-04-04T10:16:52.601Z</time></trkpt><trkpt lat="44.58683" lon="9.3621983"><ele>1394.0</ele><time>2026-04-04T10:19:40.601Z</time></trkpt><trkpt lat="44.5867383" lon="9.3622933"><ele>1395.0</ele><time>2026-04-04T10:19:42.599Z</time></trkpt><trkpt lat="44.5866783" lon="9.362355"><ele>1396.0</ele><time>2026-04-04T10:19:43.6Z</time></trkpt><trkpt lat="44.5866167" lon="9.362425"><ele>1397.0</ele><time>2026-04-04T10:19:44.601Z</time></trkpt><trkpt lat="44.586565" lon="9.3624933"><ele>1398.0</ele><time>2026-04-04T10:19:45.601Z</time></trkpt><trkpt lat="44.586515" lon="9.3625567"><ele>1399.0</ele><time>2026-04-04T10:19:46.6Z</time></trkpt><trkpt lat="44.586425" lon="9.362645"><ele>1399.0</ele><time>2026-04-04T10:19:48.6Z</time></trkpt><trkpt lat="44.5863217" lon="9.362755"><ele>1399.0</ele><time>2026-04-04T10:19:50.601Z</time></trkpt><trkpt lat="44.5862767" lon="9.3628217"><ele>1399.0</ele><time>2026-04-04T10:19:51.6Z</time></trkpt><trkpt lat="44.5862367" lon="9.3628967"><ele>1399.0</ele><time>2026-04-04T10:19:52.601Z</time></trkpt><trkpt lat="44.5861967" lon="9.3630633"><ele>1399.0</ele><time>2026-04-04T10:19:54.599Z</time></trkpt><trkpt lat="44.5861783" lon="9.3631633"><ele>1400.5</ele><time>2026-04-04T10:19:55.601Z</time></trkpt><trkpt lat="44.5861583" lon="9.3632617"><ele>1402.0</ele><time>2026-04-04T10:19:56.601Z</time></trkpt><trkpt lat="44.5861267" lon="9.3633533"><ele>1403.5</ele><time>2026-04-04T10:19:57.6Z</time></trkpt><trkpt lat="44.5860767" lon="9.3634333"><ele>1405.0</ele><time>2026-04-04T10:19:58.601Z</time></trkpt><trkpt lat="44.5860167" lon="9.3635133"><ele>1406.5</ele><time>2026-04-04T10:19:59.6Z</time></trkpt><trkpt lat="44.5859567" lon="9.36358"><ele>1408.0</ele><time>2026-04-04T10:20:00.6Z</time></trkpt><trkpt lat="44.5858867" lon="9.3636433"><ele>1408.0</ele><time>2026-04-04T10:20:01.6Z</time></trkpt><trkpt lat="44.585805" lon="9.3636967"><ele>1408.0</ele><time>2026-04-04T10:20:02.6Z</time></trkpt><trkpt lat="44.5857317" lon="9.363755"><ele>1408.0</ele><time>2026-04-04T10:20:03.6Z</time></trkpt><trkpt lat="44.5856733" lon="9.3638067"><ele>1408.0</ele><time>2026-04-04T10:20:04.601Z</time></trkpt><trkpt lat="44.58562" lon="9.3638683"><ele>1408.0</ele><time>2026-04-04T10:20:05.6Z</time></trkpt><trkpt lat="44.5855833" lon="9.3639417"><ele>1408.0</ele><time>2026-04-04T10:20:06.601Z</time></trkpt><trkpt lat="44.5855767" lon="9.3640917"><ele>1408.3333333333333</ele><time>2026-04-04T10:20:08.601Z</time></trkpt><trkpt lat="44.5856033" lon="9.3642633"><ele>1408.6666666666665</ele><time>2026-04-04T10:20:10.6Z</time></trkpt><trkpt lat="44.58562" lon="9.3643583"><ele>1409.0</ele><time>2026-04-04T10:20:11.601Z</time></trkpt><trkpt lat="44.58563" lon="9.3644483"><ele>1409.3333333333333</ele><time>2026-04-04T10:20:12.601Z</time></trkpt><trkpt lat="44.5856267" lon="9.36454"><ele>1409.6666666666667</ele><time>2026-04-04T10:20:13.601Z</time></trkpt><trkpt lat="44.5856133" lon="9.3646433"><ele>1410.0</ele><time>2026-04-04T10:20:14.602Z</time></trkpt><trkpt lat="44.5855783" lon="9.364755"><ele>1410.0</ele><time>2026-04-04T10:20:15.6Z</time></trkpt><trkpt lat="44.585525" lon="9.3648783"><ele>1410.0</ele><time>2026-04-04T10:20:16.601Z</time></trkpt><trkpt lat="44.5854583" lon="9.3650167"><ele>1410.0</ele><time>2026-04-04T10:20:17.601Z</time></trkpt><trkpt lat="44.5853967" lon="9.3651467"><ele>1410.0</ele><time>2026-04-04T10:20:18.6Z</time></trkpt><trkpt lat="44.5853333" lon="9.36524"><ele>1410.0</ele><time>2026-04-04T10:20:19.6Z</time></trkpt><trkpt lat="44.5852533" lon="9.3653167"><ele>1410.5</ele><time>2026-04-04T10:20:20.604Z</time></trkpt><trkpt lat="44.5851833" lon="9.3653817"><ele>1411.0</ele><time>2026-04-04T10:20:21.602Z</time></trkpt><trkpt lat="44.5851233" lon="9.3654567"><ele>1411.5</ele><time>2026-04-04T10:20:22.601Z</time></trkpt><trkpt lat="44.58508" lon="9.3655417"><ele>1412.0</ele><time>2026-04-04T10:20:23.601Z</time></trkpt><trkpt lat="44.58505" lon="9.3656283"><ele>1412.5</ele><time>2026-04-04T10:20:24.6Z</time></trkpt><trkpt lat="44.5849967" lon="9.36576"><ele>1413.0</ele><time>2026-04-04T10:20:26.6Z</time></trkpt><trkpt lat="44.5849517" lon="9.3658367"><ele>1413.0</ele><time>2026-04-04T10:20:28.6Z</time></trkpt><trkpt lat="44.5849067" lon="9.36591"><ele>1413.0</ele><time>2026-04-04T10:20:30.601Z</time></trkpt><trkpt lat="44.58486" lon="9.3660083"><ele>1413.0</ele><time>2026-04-04T10:20:32.601Z</time></trkpt><trkpt lat="44.5848317" lon="9.3661017"><ele>1413.0</ele><time>2026-04-04T10:20:34.599Z</time></trkpt><trkpt lat="44.5848383" lon="9.3661983"><ele>1413.0</ele><time>2026-04-04T10:20:51.599Z</time></trkpt><trkpt lat="44.584935" lon="9.3662283"><ele>1413.0</ele><time>2026-04-04T10:20:53.6Z</time></trkpt><trkpt lat="44.5850367" lon="9.3661833"><ele>1413.0</ele><time>2026-04-04T10:20:55.601Z</time></trkpt><trkpt lat="44.58513" lon="9.3660633"><ele>1413.0</ele><time>2026-04-04T10:20:57.601Z</time></trkpt><trkpt lat="44.5852" lon="9.3659483"><ele>1413.0</ele><time>2026-04-04T10:20:59.601Z</time></trkpt><trkpt lat="44.5852683" lon="9.365835"><ele>1413.0</ele><time>2026-04-04T10:21:01.599Z</time></trkpt><trkpt lat="44.58534" lon="9.3657367"><ele>1413.0</ele><time>2026-04-04T10:21:03.601Z</time></trkpt><trkpt lat="44.58539" lon="9.3656283"><ele>1412.4</ele><time>2026-04-04T10:21:05.6Z</time></trkpt><trkpt lat="44.5854433" lon="9.36549"><ele>1411.8000000000002</ele><time>2026-04-04T10:21:07.6Z</time></trkpt><trkpt lat="44.5855167" lon="9.365345"><ele>1411.2</ele><time>2026-04-04T10:21:09.6Z</time></trkpt><trkpt lat="44.5855667" lon="9.3652717"><ele>1410.6</ele><time>2026-04-04T10:21:10.599Z</time></trkpt><trkpt lat="44.585625" lon="9.36519"><ele>1410.0</ele><time>2026-04-04T10:21:11.599Z</time></trkpt><trkpt lat="44.5856767" lon="9.365105"><ele>1410.0</ele><time>2026-04-04T10:21:12.601Z</time></trkpt><trkpt lat="44.5857267" lon="9.365015"><ele>1410.0</ele><time>2026-04-04T10:21:13.599Z</time></trkpt><trkpt lat="44.5857783" lon="9.3649083"><ele>1410.0</ele><time>2026-04-04T10:21:14.602Z</time></trkpt><trkpt lat="44.5858317" lon="9.3647933"><ele>1410.0</ele><time>2026-04-04T10:21:15.602Z</time></trkpt><trkpt lat="44.585895" lon="9.3646633"><ele>1410.0</ele><time>2026-04-04T10:21:16.602Z</time></trkpt><trkpt lat="44.5859417" lon="9.364545"><ele>1410.8</ele><time>2026-04-04T10:21:17.601Z</time></trkpt><trkpt lat="44.585975" lon="9.3644333"><ele>1411.6</ele><time>2026-04-04T10:21:18.6Z</time></trkpt><trkpt lat="44.5859917" lon="9.36434"><ele>1412.4</ele><time>2026-04-04T10:21:19.601Z</time></trkpt><trkpt lat="44.5860433" lon="9.364205"><ele>1413.2</ele><time>2026-04-04T10:21:21.6Z</time></trkpt><trkpt lat="44.5861517" lon="9.36407"><ele>1414.0</ele><time>2026-04-04T10:21:23.601Z</time></trkpt><trkpt lat="44.5862133" lon="9.364005"><ele>1414.4</ele><time>2026-04-04T10:21:24.6Z</time></trkpt><trkpt lat="44.5862733" lon="9.36397"><ele>1414.8000000000002</ele><time>2026-04-04T10:21:25.6Z</time></trkpt><trkpt lat="44.5863917" lon="9.36397"><ele>1415.1999999999998</ele><time>2026-04-04T10:21:27.601Z</time></trkpt><trkpt lat="44.5865033" lon="9.3639467"><ele>1415.6</ele><time>2026-04-04T10:21:29.601Z</time></trkpt><trkpt lat="44.5865867" lon="9.3638367"><ele>1416.0</ele><time>2026-04-04T10:21:31.6Z</time></trkpt><trkpt lat="44.5866517" lon="9.36377"><ele>1416.0</ele><time>2026-04-04T10:21:33.599Z</time></trkpt><trkpt lat="44.5867183" lon="9.3637433"><ele>1416.0</ele><time>2026-04-04T10:21:35.601Z</time></trkpt><trkpt lat="44.5868033" lon="9.3637233"><ele>1416.0</ele><time>2026-04-04T10:21:38.601Z</time></trkpt><trkpt lat="44.5868967" lon="9.36379"><ele>1416.0</ele><time>2026-04-04T10:24:55.599Z</time></trkpt><trkpt lat="44.5867967" lon="9.3637667"><ele>1416.0</ele><time>2026-04-04T10:24:59.6Z</time></trkpt><trkpt lat="44.5867033" lon="9.3637933"><ele>1417.8</ele><time>2026-04-04T10:25:01.6Z</time></trkpt><trkpt lat="44.5866017" lon="9.3638833"><ele>1419.6</ele><time>2026-04-04T10:25:03.602Z</time></trkpt><trkpt lat="44.5865533" lon="9.363945"><ele>1421.4</ele><time>2026-04-04T10:25:04.6Z</time></trkpt><trkpt lat="44.5865033" lon="9.3640017"><ele>1423.2</ele><time>2026-04-04T10:25:05.6Z</time></trkpt><trkpt lat="44.5863883" lon="9.3640317"><ele>1425.0</ele><time>2026-04-04T10:25:07.599Z</time></trkpt><trkpt lat="44.586275" lon="9.3640167"><ele>1423.1666666666667</ele><time>2026-04-04T10:25:09.599Z</time></trkpt><trkpt lat="44.58617" lon="9.3641083"><ele>1421.3333333333333</ele><time>2026-04-04T10:25:11.6Z</time></trkpt><trkpt lat="44.5861167" lon="9.3641683"><ele>1419.5</ele><time>2026-04-04T10:25:12.599Z</time></trkpt><trkpt lat="44.5860667" lon="9.3642317"><ele>1417.6666666666665</ele><time>2026-04-04T10:25:13.6Z</time></trkpt><trkpt lat="44.5860267" lon="9.3643033"><ele>1415.8333333333333</ele><time>2026-04-04T10:25:14.601Z</time></trkpt><trkpt lat="44.5860033" lon="9.3643933"><ele>1414.0</ele><time>2026-04-04T10:25:15.599Z</time></trkpt><trkpt lat="44.5859783" lon="9.364495"><ele>1414.0</ele><time>2026-04-04T10:25:16.599Z</time></trkpt><trkpt lat="44.5859417" lon="9.3646067"><ele>1414.0</ele><time>2026-04-04T10:25:17.599Z</time></trkpt><trkpt lat="44.5858967" lon="9.3647133"><ele>1414.0</ele><time>2026-04-04T10:25:18.602Z</time></trkpt><trkpt lat="44.5858417" lon="9.36482"><ele>1414.0</ele><time>2026-04-04T10:25:19.6Z</time></trkpt><trkpt lat="44.5857917" lon="9.364925"><ele>1414.0</ele><time>2026-04-04T10:25:20.6Z</time></trkpt><trkpt lat="44.5857467" lon="9.365025"><ele>1414.0</ele><time>2026-04-04T10:25:21.6Z</time></trkpt><trkpt lat="44.585695" lon="9.3651233"><ele>1413.3333333333333</ele><time>2026-04-04T10:25:22.6Z</time></trkpt><trkpt lat="44.5856417" lon="9.3652133"><ele>1412.6666666666665</ele><time>2026-04-04T10:25:23.601Z</time></trkpt><trkpt lat="44.5855883" lon="9.365305"><ele>1412.0</ele><time>2026-04-04T10:25:24.599Z</time></trkpt><trkpt lat="44.585535" lon="9.36539"><ele>1411.3333333333333</ele><time>2026-04-04T10:25:25.6Z</time></trkpt><trkpt lat="44.5854767" lon="9.3654667"><ele>1410.6666666666667</ele><time>2026-04-04T10:25:26.6Z</time></trkpt><trkpt lat="44.58543" lon="9.3655533"><ele>1410.0</ele><time>2026-04-04T10:25:27.602Z</time></trkpt><trkpt lat="44.5853783" lon="9.3657033"><ele>1410.5</ele><time>2026-04-04T10:25:29.601Z</time></trkpt><trkpt lat="44.58534" lon="9.3657817"><ele>1411.0</ele><time>2026-04-04T10:25:30.599Z</time></trkpt><trkpt lat="44.5852483" lon="9.3659133"><ele>1411.5</ele><time>2026-04-04T10:25:32.6Z</time></trkpt><trkpt lat="44.5852033" lon="9.3659833"><ele>1412.0</ele><time>2026-04-04T10:25:33.6Z</time></trkpt><trkpt lat="44.5851567" lon="9.366065"><ele>1412.5</ele><time>2026-04-04T10:25:34.599Z</time></trkpt><trkpt lat="44.5851117" lon="9.3661383"><ele>1413.0</ele><time>2026-04-04T10:25:35.6Z</time></trkpt><trkpt lat="44.5850667" lon="9.3662083"><ele>1413.0</ele><time>2026-04-04T10:25:36.601Z</time></trkpt><trkpt lat="44.5850117" lon="9.3662633"><ele>1413.0</ele><time>2026-04-04T10:25:37.6Z</time></trkpt><trkpt lat="44.58491" lon="9.366285"><ele>1413.0</ele><time>2026-04-04T10:25:39.6Z</time></trkpt><trkpt lat="44.58484" lon="9.3662183"><ele>1413.0</ele><time>2026-04-04T10:25:41.6Z</time></trkpt><trkpt lat="44.5848233" lon="9.3661183"><ele>1413.0</ele><time>2026-04-04T10:25:43.601Z</time></trkpt><trkpt lat="44.5848833" lon="9.3659683"><ele>1413.0</ele><time>2026-04-04T10:25:45.599Z</time></trkpt><trkpt lat="44.58493" lon="9.365885"><ele>1413.0</ele><time>2026-04-04T10:25:46.599Z</time></trkpt><trkpt lat="44.5849733" lon="9.3657967"><ele>1413.0</ele><time>2026-04-04T10:25:47.6Z</time></trkpt><trkpt lat="44.5850117" lon="9.3657017"><ele>1413.0</ele><time>2026-04-04T10:25:48.6Z</time></trkpt><trkpt lat="44.5850533" lon="9.3655983"><ele>1413.0</ele><time>2026-04-04T10:25:49.6Z</time></trkpt><trkpt lat="44.5851017" lon="9.3655067"><ele>1413.0</ele><time>2026-04-04T10:25:50.6Z</time></trkpt><trkpt lat="44.5851583" lon="9.3654367"><ele>1412.5</ele><time>2026-04-04T10:25:51.6Z</time></trkpt><trkpt lat="44.585225" lon="9.3653833"><ele>1412.0</ele><time>2026-04-04T10:25:52.6Z</time></trkpt><trkpt lat="44.58529" lon="9.36533"><ele>1411.5</ele><time>2026-04-04T10:25:53.6Z</time></trkpt><trkpt lat="44.5853483" lon="9.3652583"><ele>1411.0</ele><time>2026-04-04T10:25:54.6Z</time></trkpt><trkpt lat="44.5854" lon="9.3651583"><ele>1410.5</ele><time>2026-04-04T10:25:55.6Z</time></trkpt><trkpt lat="44.5854583" lon="9.3650517"><ele>1410.0</ele><time>2026-04-04T10:25:56.601Z</time></trkpt><trkpt lat="44.5855117" lon="9.3649383"><ele>1410.0</ele><time>2026-04-04T10:25:57.6Z</time></trkpt><trkpt lat="44.5855667" lon="9.3648183"><ele>1410.0</ele><time>2026-04-04T10:25:58.6Z</time></trkpt><trkpt lat="44.58561" lon="9.3646833"><ele>1410.0</ele><time>2026-04-04T10:25:59.599Z</time></trkpt><trkpt lat="44.585645" lon="9.3645683"><ele>1410.0</ele><time>2026-04-04T10:26:00.599Z</time></trkpt><trkpt lat="44.585665" lon="9.3644617"><ele>1410.0</ele><time>2026-04-04T10:26:01.6Z</time></trkpt><trkpt lat="44.5856733" lon="9.36436"><ele>1410.0</ele><time>2026-04-04T10:26:02.6Z</time></trkpt><trkpt lat="44.585665" lon="9.364265"><ele>1409.6</ele><time>2026-04-04T10:26:03.6Z</time></trkpt><trkpt lat="44.585645" lon="9.364175"><ele>1409.2</ele><time>2026-04-04T10:26:04.6Z</time></trkpt><trkpt lat="44.5856133" lon="9.364085"><ele>1408.8000000000002</ele><time>2026-04-04T10:26:05.6Z</time></trkpt><trkpt lat="44.5855983" lon="9.363935"><ele>1408.4</ele><time>2026-04-04T10:26:07.6Z</time></trkpt><trkpt lat="44.5856733" lon="9.3637933"><ele>1408.0</ele><time>2026-04-04T10:26:09.6Z</time></trkpt><trkpt lat="44.5857433" lon="9.363715"><ele>1408.0</ele><time>2026-04-04T10:26:10.599Z</time></trkpt><trkpt lat="44.58582" lon="9.3636367"><ele>1408.0</ele><time>2026-04-04T10:26:11.6Z</time></trkpt><trkpt lat="44.5859033" lon="9.363565"><ele>1408.0</ele><time>2026-04-04T10:26:12.601Z</time></trkpt><trkpt lat="44.5859767" lon="9.36348"><ele>1408.0</ele><time>2026-04-04T10:26:13.6Z</time></trkpt><trkpt lat="44.5860467" lon="9.3633833"><ele>1408.0</ele><time>2026-04-04T10:26:14.602Z</time></trkpt><trkpt lat="44.5860983" lon="9.3632917"><ele>1408.0</ele><time>2026-04-04T10:26:15.6Z</time></trkpt><trkpt lat="44.586135" lon="9.36319"><ele>1408.0</ele><time>2026-04-04T10:26:16.599Z</time></trkpt><trkpt lat="44.5861567" lon="9.3630933"><ele>1408.0</ele><time>2026-04-04T10:26:17.601Z</time></trkpt><trkpt lat="44.5861717" lon="9.363"><ele>1408.0</ele><time>2026-04-04T10:26:18.599Z</time></trkpt><trkpt lat="44.586195" lon="9.3629067"><ele>1408.0</ele><time>2026-04-04T10:26:19.6Z</time></trkpt><trkpt lat="44.58623" lon="9.3628233"><ele>1408.0</ele><time>2026-04-04T10:26:20.6Z</time></trkpt><trkpt lat="44.58632" lon="9.3626983"><ele>1406.2</ele><time>2026-04-04T10:26:22.6Z</time></trkpt><trkpt lat="44.58639" lon="9.3626383"><ele>1404.4</ele><time>2026-04-04T10:26:23.599Z</time></trkpt><trkpt lat="44.58647" lon="9.3625633"><ele>1402.6000000000001</ele><time>2026-04-04T10:26:24.6Z</time></trkpt><trkpt lat="44.586545" lon="9.3624767"><ele>1400.8000000000002</ele><time>2026-04-04T10:26:25.6Z</time></trkpt><trkpt lat="44.5866233" lon="9.36239"><ele>1399.0</ele><time>2026-04-04T10:26:26.6Z</time></trkpt><trkpt lat="44.5866967" lon="9.3623217"><ele>1399.0</ele><time>2026-04-04T10:26:27.6Z</time></trkpt><trkpt lat="44.5867733" lon="9.36227"><ele>1399.0</ele><time>2026-04-04T10:26:28.6Z</time></trkpt><trkpt lat="44.5868467" lon="9.3622217"><ele>1399.0</ele><time>2026-04-04T10:26:29.6Z</time></trkpt><trkpt lat="44.5869217" lon="9.3621883"><ele>1399.0</ele><time>2026-04-04T10:26:30.601Z</time></trkpt><trkpt lat="44.5870017" lon="9.362165"><ele>1399.0</ele><time>2026-04-04T10:26:31.6Z</time></trkpt><trkpt lat="44.5870833" lon="9.3621533"><ele>1399.0</ele><time>2026-04-04T10:26:32.6Z</time></trkpt><trkpt lat="44.5871633" lon="9.3621683"><ele>1398.0</ele><time>2026-04-04T10:26:33.601Z</time></trkpt><trkpt lat="44.587245" lon="9.3621817"><ele>1397.0</ele><time>2026-04-04T10:26:34.6Z</time></trkpt><trkpt lat="44.5873283" lon="9.3622117"><ele>1396.0</ele><time>2026-04-04T10:26:35.6Z</time></trkpt><trkpt lat="44.5874033" lon="9.3622583"><ele>1395.0</ele><time>2026-04-04T10:26:36.6Z</time></trkpt><trkpt lat="44.5874717" lon="9.3623233"><ele>1394.0</ele><time>2026-04-04T10:26:37.6Z</time></trkpt><trkpt lat="44.58754" lon="9.3624017"><ele>1393.0</ele><time>2026-04-04T10:26:38.602Z</time></trkpt><trkpt lat="44.5876067" lon="9.3624817"><ele>1393.0</ele><time>2026-04-04T10:26:39.6Z</time></trkpt><trkpt lat="44.5876867" lon="9.362545"><ele>1393.0</ele><time>2026-04-04T10:26:40.601Z</time></trkpt><trkpt lat="44.5877633" lon="9.3626133"><ele>1393.0</ele><time>2026-04-04T10:26:41.599Z</time></trkpt><trkpt lat="44.5878317" lon="9.3626883"><ele>1393.0</ele><time>2026-04-04T10:26:42.601Z</time></trkpt><trkpt lat="44.587905" lon="9.362745"><ele>1393.0</ele><time>2026-04-04T10:26:43.6Z</time></trkpt><trkpt lat="44.5879933" lon="9.3627783"><ele>1393.0</ele><time>2026-04-04T10:26:44.6Z</time></trkpt><trkpt lat="44.5880833" lon="9.36279"><ele>1389.0</ele><time>2026-04-04T10:26:45.599Z</time></trkpt><trkpt lat="44.5881683" lon="9.3627967"><ele>1385.0</ele><time>2026-04-04T10:26:46.6Z</time></trkpt><trkpt lat="44.58825" lon="9.3628167"><ele>1381.0</ele><time>2026-04-04T10:26:47.6Z</time></trkpt><trkpt lat="44.5883283" lon="9.3628483"><ele>1377.0</ele><time>2026-04-04T10:26:48.599Z</time></trkpt><trkpt lat="44.5884083" lon="9.3628983"><ele>1373.0</ele><time>2026-04-04T10:26:49.599Z</time></trkpt><trkpt lat="44.5884867" lon="9.3629367"><ele>1369.0</ele><time>2026-04-04T10:26:50.601Z</time></trkpt><trkpt lat="44.5885717" lon="9.3629783"><ele>1369.0</ele><time>2026-04-04T10:26:51.601Z</time></trkpt><trkpt lat="44.5886583" lon="9.3630183"><ele>1369.0</ele><time>2026-04-04T10:26:52.6Z</time></trkpt><trkpt lat="44.5887433" lon="9.3630617"><ele>1369.0</ele><time>2026-04-04T10:26:53.6Z</time></trkpt><trkpt lat="44.58883" lon="9.3630967"><ele>1369.0</ele><time>2026-04-04T10:26:54.601Z</time></trkpt><trkpt lat="44.5889183" lon="9.3631417"><ele>1369.0</ele><time>2026-04-04T10:26:55.6Z</time></trkpt><trkpt lat="44.589005" lon="9.3631933"><ele>1368.0</ele><time>2026-04-04T10:26:56.601Z</time></trkpt><trkpt lat="44.5891017" lon="9.3632417"><ele>1367.0</ele><time>2026-04-04T10:26:57.601Z</time></trkpt><trkpt lat="44.5891967" lon="9.3632767"><ele>1366.0</ele><time>2026-04-04T10:26:58.601Z</time></trkpt><trkpt lat="44.5892917" lon="9.3632967"><ele>1365.0</ele><time>2026-04-04T10:26:59.601Z</time></trkpt><trkpt lat="44.589375" lon="9.3633133"><ele>1364.0</ele><time>2026-04-04T10:27:00.6Z</time></trkpt><trkpt lat="44.5894533" lon="9.3633233"><ele>1359.8333333333335</ele><time>2026-04-04T10:27:01.599Z</time></trkpt><trkpt lat="44.58953" lon="9.36334"><ele>1355.6666666666667</ele><time>2026-04-04T10:27:02.6Z</time></trkpt><trkpt lat="44.5896117" lon="9.36338"><ele>1351.5</ele><time>2026-04-04T10:27:03.601Z</time></trkpt><trkpt lat="44.5896783" lon="9.3634433"><ele>1347.3333333333333</ele><time>2026-04-04T10:27:04.601Z</time></trkpt><trkpt lat="44.5897433" lon="9.363525"><ele>1343.1666666666665</ele><time>2026-04-04T10:27:05.6Z</time></trkpt><trkpt lat="44.5898167" lon="9.3636067"><ele>1339.0</ele><time>2026-04-04T10:27:06.6Z</time></trkpt><trkpt lat="44.5898933" lon="9.3636883"><ele>1339.0</ele><time>2026-04-04T10:27:07.601Z</time></trkpt><trkpt lat="44.58997" lon="9.3637783"><ele>1339.0</ele><time>2026-04-04T10:27:08.6Z</time></trkpt><trkpt lat="44.5900483" lon="9.3638567"><ele>1339.0</ele><time>2026-04-04T10:27:09.6Z</time></trkpt><trkpt lat="44.5901233" lon="9.3639167"><ele>1339.0</ele><time>2026-04-04T10:27:10.6Z</time></trkpt><trkpt lat="44.5902167" lon="9.3639567"><ele>1339.0</ele><time>2026-04-04T10:27:11.601Z</time></trkpt><trkpt lat="44.5903083" lon="9.363995"><ele>1336.8333333333333</ele><time>2026-04-04T10:27:12.6Z</time></trkpt><trkpt lat="44.5903933" lon="9.3640367"><ele>1334.6666666666665</ele><time>2026-04-04T10:27:13.599Z</time></trkpt><trkpt lat="44.5904867" lon="9.364105"><ele>1332.5</ele><time>2026-04-04T10:27:14.601Z</time></trkpt><trkpt lat="44.590545" lon="9.3641983"><ele>1330.3333333333333</ele><time>2026-04-04T10:27:15.599Z</time></trkpt><trkpt lat="44.5905917" lon="9.3642833"><ele>1328.1666666666667</ele><time>2026-04-04T10:27:16.6Z</time></trkpt><trkpt lat="44.5906217" lon="9.3643733"><ele>1326.0</ele><time>2026-04-04T10:27:17.601Z</time></trkpt><trkpt lat="44.5906267" lon="9.364525"><ele>1326.0</ele><time>2026-04-04T10:27:19.601Z</time></trkpt><trkpt lat="44.5905883" lon="9.36461"><ele>1326.0</ele><time>2026-04-04T10:27:20.601Z</time></trkpt><trkpt lat="44.5905267" lon="9.3647017"><ele>1326.0</ele><time>2026-04-04T10:27:21.6Z</time></trkpt><trkpt lat="44.5904633" lon="9.3647867"><ele>1326.0</ele><time>2026-04-04T10:27:22.6Z</time></trkpt><trkpt lat="44.5903917" lon="9.3648667"><ele>1326.0</ele><time>2026-04-04T10:27:23.601Z</time></trkpt><trkpt lat="44.5903233" lon="9.3649283"><ele>1326.0</ele><time>2026-04-04T10:27:24.6Z</time></trkpt><trkpt lat="44.5902533" lon="9.3649783"><ele>1326.2857142857142</ele><time>2026-04-04T10:27:25.601Z</time></trkpt><trkpt lat="44.5901833" lon="9.3649967"><ele>1326.5714285714284</ele><time>2026-04-04T10:27:26.601Z</time></trkpt><trkpt lat="44.590105" lon="9.3649983"><ele>1326.8571428571427</ele><time>2026-04-04T10:27:27.599Z</time></trkpt><trkpt lat="44.5900283" lon="9.3649983"><ele>1327.142857142857</ele><time>2026-04-04T10:27:28.601Z</time></trkpt><trkpt lat="44.5899583" lon="9.3649767"><ele>1327.4285714285716</ele><time>2026-04-04T10:27:29.6Z</time></trkpt><trkpt lat="44.5898833" lon="9.3649483"><ele>1327.7142857142856</ele><time>2026-04-04T10:27:30.6Z</time></trkpt><trkpt lat="44.5898133" lon="9.364925"><ele>1328.0</ele><time>2026-04-04T10:27:31.6Z</time></trkpt><trkpt lat="44.5897383" lon="9.3649067"><ele>1328.0</ele><time>2026-04-04T10:27:32.601Z</time></trkpt><trkpt lat="44.5896567" lon="9.3648967"><ele>1328.0</ele><time>2026-04-04T10:27:33.6Z</time></trkpt><trkpt lat="44.58958" lon="9.3649167"><ele>1328.0</ele><time>2026-04-04T10:27:34.602Z</time></trkpt><trkpt lat="44.589515" lon="9.3649633"><ele>1328.0</ele><time>2026-04-04T10:27:35.599Z</time></trkpt><trkpt lat="44.5894617" lon="9.3650233"><ele>1328.0</ele><time>2026-04-04T10:27:36.6Z</time></trkpt><trkpt lat="44.589415" lon="9.3651017"><ele>1328.0</ele><time>2026-04-04T10:27:37.601Z</time></trkpt><trkpt lat="44.5893783" lon="9.36519"><ele>1328.0</ele><time>2026-04-04T10:27:38.6Z</time></trkpt><trkpt lat="44.5893517" lon="9.3652767"><ele>1328.6000000000001</ele><time>2026-04-04T10:27:39.6Z</time></trkpt><trkpt lat="44.5893283" lon="9.365425"><ele>1329.2</ele><time>2026-04-04T10:27:41.6Z</time></trkpt><trkpt lat="44.5893717" lon="9.36553"><ele>1329.8</ele><time>2026-04-04T10:27:43.602Z</time></trkpt><trkpt lat="44.5894967" lon="9.36558"><ele>1330.4</ele><time>2026-04-04T10:27:45.6Z</time></trkpt><trkpt lat="44.5895717" lon="9.3656033"><ele>1331.0</ele><time>2026-04-04T10:27:46.6Z</time></trkpt><trkpt lat="44.589645" lon="9.3656317"><ele>1327.5</ele><time>2026-04-04T10:27:47.599Z</time></trkpt><trkpt lat="44.589725" lon="9.3656583"><ele>1324.0</ele><time>2026-04-04T10:27:48.599Z</time></trkpt><trkpt lat="44.58981" lon="9.3656833"><ele>1320.5</ele><time>2026-04-04T10:27:49.601Z</time></trkpt><trkpt lat="44.58989" lon="9.3657033"><ele>1317.0</ele><time>2026-04-04T10:27:50.601Z</time></trkpt><trkpt lat="44.5899717" lon="9.3657367"><ele>1313.5</ele><time>2026-04-04T10:27:51.6Z</time></trkpt><trkpt lat="44.59005" lon="9.3657917"><ele>1310.0</ele><time>2026-04-04T10:27:52.601Z</time></trkpt><trkpt lat="44.59012" lon="9.36588"><ele>1310.0</ele><time>2026-04-04T10:27:53.603Z</time></trkpt><trkpt lat="44.5901833" lon="9.365975"><ele>1310.0</ele><time>2026-04-04T10:27:54.6Z</time></trkpt><trkpt lat="44.5902417" lon="9.3660633"><ele>1310.0</ele><time>2026-04-04T10:27:55.601Z</time></trkpt><trkpt lat="44.5903033" lon="9.3661417"><ele>1310.0</ele><time>2026-04-04T10:27:56.602Z</time></trkpt><trkpt lat="44.5903733" lon="9.3662167"><ele>1310.0</ele><time>2026-04-04T10:27:57.6Z</time></trkpt><trkpt lat="44.5904633" lon="9.3662767"><ele>1310.0</ele><time>2026-04-04T10:27:58.601Z</time></trkpt><trkpt lat="44.5905433" lon="9.3663333"><ele>1305.8</ele><time>2026-04-04T10:27:59.599Z</time></trkpt><trkpt lat="44.5906317" lon="9.36639"><ele>1301.6</ele><time>2026-04-04T10:28:00.6Z</time></trkpt><trkpt lat="44.5907283" lon="9.3664417"><ele>1297.4</ele><time>2026-04-04T10:28:01.602Z</time></trkpt><trkpt lat="44.5908167" lon="9.3664767"><ele>1293.2</ele><time>2026-04-04T10:28:02.6Z</time></trkpt><trkpt lat="44.590905" lon="9.36649"><ele>1289.0</ele><time>2026-04-04T10:28:03.6Z</time></trkpt><trkpt lat="44.5909867" lon="9.3664817"><ele>1289.0</ele><time>2026-04-04T10:28:04.6Z</time></trkpt><trkpt lat="44.5910533" lon="9.366445"><ele>1289.0</ele><time>2026-04-04T10:28:05.601Z</time></trkpt><trkpt lat="44.5911" lon="9.3663767"><ele>1289.0</ele><time>2026-04-04T10:28:06.6Z</time></trkpt><trkpt lat="44.591145" lon="9.366195"><ele>1289.0</ele><time>2026-04-04T10:28:08.6Z</time></trkpt><trkpt lat="44.5911517" lon="9.3660783"><ele>1289.0</ele><time>2026-04-04T10:28:09.599Z</time></trkpt><trkpt lat="44.5911667" lon="9.365955"><ele>1289.0</ele><time>2026-04-04T10:28:10.6Z</time></trkpt><trkpt lat="44.5911967" lon="9.3658717"><ele>1288.5</ele><time>2026-04-04T10:28:11.599Z</time></trkpt><trkpt lat="44.59127" lon="9.365775"><ele>1288.0</ele><time>2026-04-04T10:28:13.6Z</time></trkpt><trkpt lat="44.5913417" lon="9.36578"><ele>1287.5</ele><time>2026-04-04T10:28:14.6Z</time></trkpt><trkpt lat="44.5914133" lon="9.3657867"><ele>1287.0</ele><time>2026-04-04T10:28:15.599Z</time></trkpt><trkpt lat="44.59149" lon="9.36577"><ele>1286.5</ele><time>2026-04-04T10:28:16.601Z</time></trkpt><trkpt lat="44.5915733" lon="9.365735"><ele>1286.0</ele><time>2026-04-04T10:28:17.599Z</time></trkpt><trkpt lat="44.5916383" lon="9.3656817"><ele>1286.0</ele><time>2026-04-04T10:28:18.6Z</time></trkpt><trkpt lat="44.5916983" lon="9.3656233"><ele>1286.0</ele><time>2026-04-04T10:28:19.6Z</time></trkpt><trkpt lat="44.5917667" lon="9.3655683"><ele>1286.0</ele><time>2026-04-04T10:28:20.601Z</time></trkpt><trkpt lat="44.59184" lon="9.3655333"><ele>1286.0</ele><time>2026-04-04T10:28:21.6Z</time></trkpt><trkpt lat="44.5919067" lon="9.3655167"><ele>1286.0</ele><time>2026-04-04T10:28:22.6Z</time></trkpt><trkpt lat="44.5919833" lon="9.3655167"><ele>1286.0</ele><time>2026-04-04T10:28:23.601Z</time></trkpt><trkpt lat="44.592075" lon="9.3655383"><ele>1283.5</ele><time>2026-04-04T10:28:24.6Z</time></trkpt><trkpt lat="44.5921583" lon="9.365595"><ele>1281.0</ele><time>2026-04-04T10:28:25.601Z</time></trkpt><trkpt lat="44.59223" lon="9.3656517"><ele>1278.5</ele><time>2026-04-04T10:28:26.6Z</time></trkpt><trkpt lat="44.5923017" lon="9.3657033"><ele>1276.0</ele><time>2026-04-04T10:28:27.6Z</time></trkpt><trkpt lat="44.5923783" lon="9.3657383"><ele>1273.5</ele><time>2026-04-04T10:28:28.601Z</time></trkpt><trkpt lat="44.59245" lon="9.3657467"><ele>1271.0</ele><time>2026-04-04T10:28:29.601Z</time></trkpt><trkpt lat="44.5925217" lon="9.36573"><ele>1271.0</ele><time>2026-04-04T10:28:30.6Z</time></trkpt><trkpt lat="44.592615" lon="9.36571"><ele>1271.0</ele><time>2026-04-04T10:28:31.601Z</time></trkpt><trkpt lat="44.59269" lon="9.365715"><ele>1271.0</ele><time>2026-04-04T10:28:32.6Z</time></trkpt><trkpt lat="44.5927733" lon="9.3657233"><ele>1271.0</ele><time>2026-04-04T10:28:33.6Z</time></trkpt><trkpt lat="44.5928483" lon="9.3657483"><ele>1271.0</ele><time>2026-04-04T10:28:34.601Z</time></trkpt><trkpt lat="44.5929233" lon="9.3657783"><ele>1271.0</ele><time>2026-04-04T10:28:35.601Z</time></trkpt><trkpt lat="44.5929967" lon="9.3657817"><ele>1270.1666666666667</ele><time>2026-04-04T10:28:36.601Z</time></trkpt><trkpt lat="44.5930767" lon="9.3657833"><ele>1269.3333333333335</ele><time>2026-04-04T10:28:37.6Z</time></trkpt><trkpt lat="44.5931633" lon="9.36577"><ele>1268.5</ele><time>2026-04-04T10:28:38.601Z</time></trkpt><trkpt lat="44.5932483" lon="9.3657583"><ele>1267.6666666666667</ele><time>2026-04-04T10:28:39.6Z</time></trkpt><trkpt lat="44.5933367" lon="9.3657667"><ele>1266.8333333333333</ele><time>2026-04-04T10:28:40.601Z</time></trkpt><trkpt lat="44.5934183" lon="9.3658033"><ele>1266.0</ele><time>2026-04-04T10:28:41.6Z</time></trkpt><trkpt lat="44.5934917" lon="9.36585"><ele>1266.0</ele><time>2026-04-04T10:28:42.6Z</time></trkpt><trkpt lat="44.5935633" lon="9.3659067"><ele>1266.0</ele><time>2026-04-04T10:28:43.6Z</time></trkpt><trkpt lat="44.5936217" lon="9.3659667"><ele>1266.0</ele><time>2026-04-04T10:28:44.601Z</time></trkpt><trkpt lat="44.5936833" lon="9.3660183"><ele>1266.0</ele><time>2026-04-04T10:28:45.602Z</time></trkpt><trkpt lat="44.5937583" lon="9.3660433"><ele>1266.0</ele><time>2026-04-04T10:28:46.601Z</time></trkpt><trkpt lat="44.59383" lon="9.3660433"><ele>1266.0</ele><time>2026-04-04T10:28:47.601Z</time></trkpt><trkpt lat="44.5939067" lon="9.36605"><ele>1263.8333333333333</ele><time>2026-04-04T10:28:48.6Z</time></trkpt><trkpt lat="44.5939817" lon="9.3660467"><ele>1261.6666666666667</ele><time>2026-04-04T10:28:49.601Z</time></trkpt><trkpt lat="44.594065" lon="9.3660283"><ele>1259.5</ele><time>2026-04-04T10:28:50.601Z</time></trkpt><trkpt lat="44.5941583" lon="9.3660083"><ele>1257.3333333333335</ele><time>2026-04-04T10:28:51.602Z</time></trkpt><trkpt lat="44.5942533" lon="9.3659967"><ele>1255.1666666666667</ele><time>2026-04-04T10:28:52.602Z</time></trkpt><trkpt lat="44.5943433" lon="9.3659917"><ele>1253.0</ele><time>2026-04-04T10:28:53.601Z</time></trkpt><trkpt lat="44.59444" lon="9.3659883"><ele>1250.0</ele><time>2026-04-04T10:28:54.601Z</time></trkpt><trkpt lat="44.594535" lon="9.3659767"><ele>1247.0</ele><time>2026-04-04T10:28:55.601Z</time></trkpt><trkpt lat="44.59463" lon="9.36595"><ele>1244.0</ele><time>2026-04-04T10:28:56.601Z</time></trkpt><trkpt lat="44.5947217" lon="9.3659133"><ele>1241.0</ele><time>2026-04-04T10:28:57.6Z</time></trkpt><trkpt lat="44.5948133" lon="9.3658667"><ele>1238.0</ele><time>2026-04-04T10:28:58.601Z</time></trkpt><trkpt lat="44.5948983" lon="9.3658283"><ele>1238.0</ele><time>2026-04-04T10:28:59.602Z</time></trkpt><trkpt lat="44.59499" lon="9.3658067"><ele>1238.0</ele><time>2026-04-04T10:29:00.601Z</time></trkpt><trkpt lat="44.5950783" lon="9.36581"><ele>1238.0</ele><time>2026-04-04T10:29:01.599Z</time></trkpt><trkpt lat="44.5951617" lon="9.3658333"><ele>1238.0</ele><time>2026-04-04T10:29:02.6Z</time></trkpt><trkpt lat="44.59525" lon="9.3658583"><ele>1238.0</ele><time>2026-04-04T10:29:03.6Z</time></trkpt><trkpt lat="44.5953317" lon="9.3658717"><ele>1238.0</ele><time>2026-04-04T10:29:04.601Z</time></trkpt><trkpt lat="44.595425" lon="9.365855"><ele>1235.8</ele><time>2026-04-04T10:29:05.599Z</time></trkpt><trkpt lat="44.5955217" lon="9.365815"><ele>1233.6</ele><time>2026-04-04T10:29:06.601Z</time></trkpt><trkpt lat="44.5956217" lon="9.365765"><ele>1231.4</ele><time>2026-04-04T10:29:07.601Z</time></trkpt><trkpt lat="44.5957267" lon="9.365695"><ele>1229.2</ele><time>2026-04-04T10:29:08.599Z</time></trkpt><trkpt lat="44.5958283" lon="9.3656017"><ele>1227.0</ele><time>2026-04-04T10:29:09.601Z</time></trkpt><trkpt lat="44.59593" lon="9.3654983"><ele>1227.0</ele><time>2026-04-04T10:29:10.601Z</time></trkpt><trkpt lat="44.596015" lon="9.3654083"><ele>1227.0</ele><time>2026-04-04T10:29:11.601Z</time></trkpt><trkpt lat="44.5961017" lon="9.3653383"><ele>1227.0</ele><time>2026-04-04T10:29:12.601Z</time></trkpt><trkpt lat="44.5961867" lon="9.3653133"><ele>1227.0</ele><time>2026-04-04T10:29:13.599Z</time></trkpt><trkpt lat="44.5962767" lon="9.3653233"><ele>1227.0</ele><time>2026-04-04T10:29:14.603Z</time></trkpt><trkpt lat="44.5963783" lon="9.3653583"><ele>1226.8</ele><time>2026-04-04T10:29:15.601Z</time></trkpt><trkpt lat="44.5964867" lon="9.3653917"><ele>1226.6</ele><time>2026-04-04T10:29:16.6Z</time></trkpt><trkpt lat="44.596595" lon="9.3654067"><ele>1226.3999999999999</ele><time>2026-04-04T10:29:17.601Z</time></trkpt><trkpt lat="44.5967017" lon="9.3654017"><ele>1226.2</ele><time>2026-04-04T10:29:18.601Z</time></trkpt><trkpt lat="44.596805" lon="9.365385"><ele>1226.0</ele><time>2026-04-04T10:29:19.602Z</time></trkpt><trkpt lat="44.5969" lon="9.3653617"><ele>1226.0</ele><time>2026-04-04T10:29:20.603Z</time></trkpt><trkpt lat="44.5969867" lon="9.3653517"><ele>1226.0</ele><time>2026-04-04T10:29:21.601Z</time></trkpt><trkpt lat="44.597075" lon="9.3653567"><ele>1226.0</ele><time>2026-04-04T10:29:22.6Z</time></trkpt><trkpt lat="44.5971567" lon="9.3653917"><ele>1226.0</ele><time>2026-04-04T10:29:23.603Z</time></trkpt><trkpt lat="44.5972333" lon="9.3654417"><ele>1226.0</ele><time>2026-04-04T10:29:24.601Z</time></trkpt><trkpt lat="44.597315" lon="9.3655083"><ele>1226.0</ele><time>2026-04-04T10:29:25.601Z</time></trkpt><trkpt lat="44.5973983" lon="9.365595"><ele>1222.3999999999999</ele><time>2026-04-04T10:29:26.601Z</time></trkpt><trkpt lat="44.5974833" lon="9.36569"><ele>1218.8</ele><time>2026-04-04T10:29:27.6Z</time></trkpt><trkpt lat="44.59757" lon="9.36578"><ele>1215.1999999999998</ele><time>2026-04-04T10:29:28.601Z</time></trkpt><trkpt lat="44.5976617" lon="9.3658567"><ele>1211.6</ele><time>2026-04-04T10:29:29.601Z</time></trkpt><trkpt lat="44.5977567" lon="9.3659317"><ele>1208.0</ele><time>2026-04-04T10:29:30.6Z</time></trkpt><trkpt lat="44.5978383" lon="9.366005"><ele>1207.0</ele><time>2026-04-04T10:29:31.601Z</time></trkpt><trkpt lat="44.597905" lon="9.3660733"><ele>1206.0</ele><time>2026-04-04T10:29:32.601Z</time></trkpt><trkpt lat="44.59797" lon="9.366135"><ele>1205.0</ele><time>2026-04-04T10:29:33.599Z</time></trkpt><trkpt lat="44.5980333" lon="9.3662"><ele>1204.0</ele><time>2026-04-04T10:29:34.6Z</time></trkpt><trkpt lat="44.5981083" lon="9.3662683"><ele>1203.0</ele><time>2026-04-04T10:29:35.601Z</time></trkpt><trkpt lat="44.5981783" lon="9.3663233"><ele>1202.0</ele><time>2026-04-04T10:29:36.601Z</time></trkpt><trkpt lat="44.5982617" lon="9.366385"><ele>1202.0</ele><time>2026-04-04T10:29:37.601Z</time></trkpt><trkpt lat="44.5983517" lon="9.36643"><ele>1202.0</ele><time>2026-04-04T10:29:38.6Z</time></trkpt><trkpt lat="44.5984433" lon="9.3664517"><ele>1202.0</ele><time>2026-04-04T10:29:39.6Z</time></trkpt><trkpt lat="44.5985433" lon="9.3664617"><ele>1202.0</ele><time>2026-04-04T10:29:40.601Z</time></trkpt><trkpt lat="44.5986467" lon="9.3664817"><ele>1202.0</ele><time>2026-04-04T10:29:41.599Z</time></trkpt><trkpt lat="44.5987467" lon="9.36652"><ele>1203.2</ele><time>2026-04-04T10:29:42.601Z</time></trkpt><trkpt lat="44.59885" lon="9.366565"><ele>1204.4</ele><time>2026-04-04T10:29:43.6Z</time></trkpt><trkpt lat="44.5989583" lon="9.3666067"><ele>1205.6</ele><time>2026-04-04T10:29:44.601Z</time></trkpt><trkpt lat="44.599055" lon="9.3666583"><ele>1206.8</ele><time>2026-04-04T10:29:45.6Z</time></trkpt><trkpt lat="44.599145" lon="9.3667133"><ele>1208.0</ele><time>2026-04-04T10:29:46.6Z</time></trkpt><trkpt lat="44.5992383" lon="9.36675"><ele>1208.0</ele><time>2026-04-04T10:29:47.6Z</time></trkpt><trkpt lat="44.599345" lon="9.3667767"><ele>1208.0</ele><time>2026-04-04T10:29:48.601Z</time></trkpt><trkpt lat="44.5994533" lon="9.366795"><ele>1208.0</ele><time>2026-04-04T10:29:49.601Z</time></trkpt><trkpt lat="44.5995733" lon="9.3668117"><ele>1208.0</ele><time>2026-04-04T10:29:50.6Z</time></trkpt><trkpt lat="44.599685" lon="9.3668217"><ele>1210.0</ele><time>2026-04-04T10:29:51.601Z</time></trkpt><trkpt lat="44.5998033" lon="9.3668117"><ele>1212.0</ele><time>2026-04-04T10:29:52.601Z</time></trkpt><trkpt lat="44.5999117" lon="9.366785"><ele>1214.0</ele><time>2026-04-04T10:29:53.601Z</time></trkpt><trkpt lat="44.600025" lon="9.36676"><ele>1216.0</ele><time>2026-04-04T10:29:54.601Z</time></trkpt><trkpt lat="44.60014" lon="9.3667367"><ele>1216.0</ele><time>2026-04-04T10:29:55.602Z</time></trkpt><trkpt lat="44.60026" lon="9.3667183"><ele>1216.0</ele><time>2026-04-04T10:29:56.601Z</time></trkpt><trkpt lat="44.600375" lon="9.3666933"><ele>1216.0</ele><time>2026-04-04T10:29:57.6Z</time></trkpt><trkpt lat="44.60048" lon="9.366665"><ele>1216.0</ele><time>2026-04-04T10:29:58.601Z</time></trkpt><trkpt lat="44.6005717" lon="9.3666567"><ele>1216.0</ele><time>2026-04-04T10:29:59.601Z</time></trkpt><trkpt lat="44.60065" lon="9.36667"><ele>1215.2</ele><time>2026-04-04T10:30:00.601Z</time></trkpt><trkpt lat="44.6007233" lon="9.3667767"><ele>1214.3999999999999</ele><time>2026-04-04T10:30:02.601Z</time></trkpt><trkpt lat="44.6007333" lon="9.366885"><ele>1213.6</ele><time>2026-04-04T10:30:03.601Z</time></trkpt><trkpt lat="44.6007467" lon="9.36701"><ele>1212.8</ele><time>2026-04-04T10:30:04.6Z</time></trkpt><trkpt lat="44.6007617" lon="9.3671567"><ele>1212.0</ele><time>2026-04-04T10:30:05.6Z</time></trkpt><trkpt lat="44.6007767" lon="9.3673067"><ele>1212.0</ele><time>2026-04-04T10:30:06.601Z</time></trkpt><trkpt lat="44.6007983" lon="9.36746"><ele>1212.0</ele><time>2026-04-04T10:30:07.6Z</time></trkpt><trkpt lat="44.60083" lon="9.3676"><ele>1212.0</ele><time>2026-04-04T10:30:08.601Z</time></trkpt><trkpt lat="44.6008633" lon="9.3677267"><ele>1212.0</ele><time>2026-04-04T10:30:09.601Z</time></trkpt><trkpt lat="44.6008933" lon="9.3678483"><ele>1212.0</ele><time>2026-04-04T10:30:10.601Z</time></trkpt><trkpt lat="44.600935" lon="9.3679733"><ele>1209.8</ele><time>2026-04-04T10:30:11.599Z</time></trkpt><trkpt lat="44.60098" lon="9.3680867"><ele>1207.6</ele><time>2026-04-04T10:30:12.602Z</time></trkpt><trkpt lat="44.6010383" lon="9.3681967"><ele>1205.3999999999999</ele><time>2026-04-04T10:30:13.6Z</time></trkpt><trkpt lat="44.6011083" lon="9.368295"><ele>1203.2</ele><time>2026-04-04T10:30:14.602Z</time></trkpt><trkpt lat="44.6011817" lon="9.368395"><ele>1201.0</ele><time>2026-04-04T10:30:15.601Z</time></trkpt><trkpt lat="44.601265" lon="9.368495"><ele>1201.3999999999999</ele><time>2026-04-04T10:30:16.603Z</time></trkpt><trkpt lat="44.6013383" lon="9.3685933"><ele>1201.8</ele><time>2026-04-04T10:30:17.604Z</time></trkpt><trkpt lat="44.6014083" lon="9.36869"><ele>1202.1999999999998</ele><time>2026-04-04T10:30:18.601Z</time></trkpt><trkpt lat="44.6014783" lon="9.368785"><ele>1202.6</ele><time>2026-04-04T10:30:19.6Z</time></trkpt><trkpt lat="44.601555" lon="9.36887"><ele>1203.0</ele><time>2026-04-04T10:30:20.602Z</time></trkpt><trkpt lat="44.6016317" lon="9.3689517"><ele>1203.0</ele><time>2026-04-04T10:30:21.601Z</time></trkpt><trkpt lat="44.6017067" lon="9.36904"><ele>1203.0</ele><time>2026-04-04T10:30:22.601Z</time></trkpt><trkpt lat="44.6017683" lon="9.3691383"><ele>1203.0</ele><time>2026-04-04T10:30:23.601Z</time></trkpt><trkpt lat="44.6018183" lon="9.36926"><ele>1203.0</ele><time>2026-04-04T10:30:24.601Z</time></trkpt><trkpt lat="44.6018617" lon="9.3693917"><ele>1203.0</ele><time>2026-04-04T10:30:25.599Z</time></trkpt><trkpt lat="44.601905" lon="9.3695283"><ele>1203.0</ele><time>2026-04-04T10:30:26.601Z</time></trkpt><trkpt lat="44.6019467" lon="9.36966"><ele>1203.0</ele><time>2026-04-04T10:30:27.6Z</time></trkpt><trkpt lat="44.6020083" lon="9.3697783"><ele>1203.0</ele><time>2026-04-04T10:30:28.602Z</time></trkpt><trkpt lat="44.6020733" lon="9.36987"><ele>1203.0</ele><time>2026-04-04T10:30:29.6Z</time></trkpt><trkpt lat="44.6021383" lon="9.369945"><ele>1203.0</ele><time>2026-04-04T10:30:30.601Z</time></trkpt><trkpt lat="44.6022033" lon="9.3700133"><ele>1203.0</ele><time>2026-04-04T10:30:31.6Z</time></trkpt><trkpt lat="44.6022633" lon="9.370075"><ele>1203.0</ele><time>2026-04-04T10:30:32.601Z</time></trkpt><trkpt lat="44.60232" lon="9.3701217"><ele>1203.0</ele><time>2026-04-04T10:30:33.601Z</time></trkpt><trkpt lat="44.60239" lon="9.3701283"><ele>1203.0</ele><time>2026-04-04T10:30:59.601Z</time></trkpt><trkpt lat="44.6024867" lon="9.370135"><ele>1203.0</ele><time>2026-04-04T10:31:01.6Z</time></trkpt><trkpt lat="44.6025967" lon="9.3701483"><ele>1203.0</ele><time>2026-04-04T10:31:03.602Z</time></trkpt><trkpt lat="44.6026967" lon="9.370175"><ele>1203.0</ele><time>2026-04-04T10:31:05.601Z</time></trkpt><trkpt lat="44.6028183" lon="9.3701933"><ele>1203.0</ele><time>2026-04-04T10:31:07.601Z</time></trkpt><trkpt lat="44.60289" lon="9.37019"><ele>1203.0</ele><time>2026-04-04T10:31:08.602Z</time></trkpt><trkpt lat="44.602965" lon="9.3701783"><ele>1203.0</ele><time>2026-04-04T10:31:09.601Z</time></trkpt><trkpt lat="44.603045" lon="9.3701733"><ele>1203.0</ele><time>2026-04-04T10:31:10.6Z</time></trkpt><trkpt lat="44.603125" lon="9.370175"><ele>1203.0</ele><time>2026-04-04T10:31:11.6Z</time></trkpt><trkpt lat="44.603225" lon="9.37019"><ele>1201.0</ele><time>2026-04-04T10:31:12.601Z</time></trkpt><trkpt lat="44.603345" lon="9.3702083"><ele>1199.0</ele><time>2026-04-04T10:31:13.601Z</time></trkpt><trkpt lat="44.603475" lon="9.37025"><ele>1197.0</ele><time>2026-04-04T10:31:14.601Z</time></trkpt><trkpt lat="44.6035883" lon="9.3702983"><ele>1195.0</ele><time>2026-04-04T10:31:15.6Z</time></trkpt><trkpt lat="44.6037117" lon="9.3703583"><ele>1194.2</ele><time>2026-04-04T10:31:16.6Z</time></trkpt><trkpt lat="44.6038317" lon="9.370415"><ele>1193.4</ele><time>2026-04-04T10:31:17.601Z</time></trkpt><trkpt lat="44.6039433" lon="9.370445"><ele>1192.6</ele><time>2026-04-04T10:31:18.601Z</time></trkpt><trkpt lat="44.604035" lon="9.3704533"><ele>1191.8</ele><time>2026-04-04T10:31:19.6Z</time></trkpt><trkpt lat="44.6041033" lon="9.370445"><ele>1191.0</ele><time>2026-04-04T10:31:20.601Z</time></trkpt><trkpt lat="44.60419" lon="9.37042"><ele>1191.0</ele><time>2026-04-04T10:31:22.601Z</time></trkpt><trkpt lat="44.6042817" lon="9.3703467"><ele>1191.0</ele><time>2026-04-04T10:31:46.601Z</time></trkpt><trkpt lat="44.6043383" lon="9.370305"><ele>1191.0</ele><time>2026-04-04T10:31:47.599Z</time></trkpt><trkpt lat="44.6044433" lon="9.3702367"><ele>1191.0</ele><time>2026-04-04T10:31:48.599Z</time></trkpt><trkpt lat="44.6045233" lon="9.370185"><ele>1191.0</ele><time>2026-04-04T10:31:49.6Z</time></trkpt><trkpt lat="44.6046017" lon="9.3701467"><ele>1191.0</ele><time>2026-04-04T10:31:50.601Z</time></trkpt><trkpt lat="44.6046833" lon="9.3701233"><ele>1191.0</ele><time>2026-04-04T10:31:51.601Z</time></trkpt><trkpt lat="44.6047717" lon="9.3701117"><ele>1191.0</ele><time>2026-04-04T10:31:52.601Z</time></trkpt><trkpt lat="44.6048567" lon="9.3701317"><ele>1191.0</ele><time>2026-04-04T10:31:53.602Z</time></trkpt><trkpt lat="44.60495" lon="9.37015"><ele>1191.0</ele><time>2026-04-04T10:31:54.6Z</time></trkpt><trkpt lat="44.605045" lon="9.37017"><ele>1191.0</ele><time>2026-04-04T10:31:55.601Z</time></trkpt><trkpt lat="44.6051433" lon="9.3701867"><ele>1191.0</ele><time>2026-04-04T10:31:56.603Z</time></trkpt><trkpt lat="44.6052367" lon="9.3702033"><ele>1191.0</ele><time>2026-04-04T10:31:57.6Z</time></trkpt><trkpt lat="44.6053317" lon="9.3702167"><ele>1191.0</ele><time>2026-04-04T10:31:58.601Z</time></trkpt><trkpt lat="44.60542" lon="9.370235"><ele>1191.0</ele><time>2026-04-04T10:31:59.601Z</time></trkpt><trkpt lat="44.6055083" lon="9.3702633"><ele>1191.0</ele><time>2026-04-04T10:32:00.601Z</time></trkpt><trkpt lat="44.6055917" lon="9.37028"><ele>1190.5</ele><time>2026-04-04T10:32:01.601Z</time></trkpt><trkpt lat="44.6056717" lon="9.37029"><ele>1190.0</ele><time>2026-04-04T10:32:02.601Z</time></trkpt><trkpt lat="44.60575" lon="9.37029"><ele>1189.5</ele><time>2026-04-04T10:32:03.601Z</time></trkpt><trkpt lat="44.6058283" lon="9.3702583"><ele>1189.0</ele><time>2026-04-04T10:32:04.601Z</time></trkpt><trkpt lat="44.60591" lon="9.3701883"><ele>1188.5</ele><time>2026-04-04T10:32:05.601Z</time></trkpt><trkpt lat="44.6059967" lon="9.3700867"><ele>1188.0</ele><time>2026-04-04T10:32:06.601Z</time></trkpt><trkpt lat="44.60608" lon="9.3700033"><ele>1187.3333333333333</ele><time>2026-04-04T10:32:07.601Z</time></trkpt><trkpt lat="44.6061617" lon="9.369955"><ele>1186.6666666666667</ele><time>2026-04-04T10:32:08.601Z</time></trkpt><trkpt lat="44.606245" lon="9.369945"><ele>1186.0</ele><time>2026-04-04T10:32:09.6Z</time></trkpt><trkpt lat="44.6063067" lon="9.369965"><ele>1185.3333333333335</ele><time>2026-04-04T10:32:10.6Z</time></trkpt><trkpt lat="44.6063867" lon="9.3700667"><ele>1184.6666666666667</ele><time>2026-04-04T10:32:12.601Z</time></trkpt><trkpt lat="44.6064217" lon="9.3701417"><ele>1184.0</ele><time>2026-04-04T10:32:13.6Z</time></trkpt><trkpt lat="44.6065183" lon="9.370245"><ele>1184.0</ele><time>2026-04-04T10:32:15.601Z</time></trkpt><trkpt lat="44.6066" lon="9.3702467"><ele>1184.0</ele><time>2026-04-04T10:32:16.6Z</time></trkpt><trkpt lat="44.606685" lon="9.3702317"><ele>1184.0</ele><time>2026-04-04T10:32:17.6Z</time></trkpt><trkpt lat="44.606765" lon="9.3701883"><ele>1184.0</ele><time>2026-04-04T10:32:18.601Z</time></trkpt><trkpt lat="44.606855" lon="9.370135"><ele>1184.0</ele><time>2026-04-04T10:32:19.6Z</time></trkpt><trkpt lat="44.60692" lon="9.3700917"><ele>1184.0</ele><time>2026-04-04T10:32:20.602Z</time></trkpt><trkpt lat="44.6069833" lon="9.3700317"><ele>1183.6000000000001</ele><time>2026-04-04T10:32:21.601Z</time></trkpt><trkpt lat="44.6070467" lon="9.3699883"><ele>1183.2</ele><time>2026-04-04T10:32:22.601Z</time></trkpt><trkpt lat="44.6071117" lon="9.3699717"><ele>1182.8000000000002</ele><time>2026-04-04T10:32:23.601Z</time></trkpt><trkpt lat="44.6072483" lon="9.3699933"><ele>1182.4</ele><time>2026-04-04T10:32:25.601Z</time></trkpt><trkpt lat="44.6073417" lon="9.370015"><ele>1182.0</ele><time>2026-04-04T10:32:26.6Z</time></trkpt><trkpt lat="44.6074283" lon="9.370025"><ele>1182.0</ele><time>2026-04-04T10:32:27.6Z</time></trkpt><trkpt lat="44.6075133" lon="9.3700133"><ele>1182.0</ele><time>2026-04-04T10:32:28.601Z</time></trkpt><trkpt lat="44.6076" lon="9.36998"><ele>1182.0</ele><time>2026-04-04T10:32:29.6Z</time></trkpt><trkpt lat="44.6076717" lon="9.3699217"><ele>1182.0</ele><time>2026-04-04T10:32:30.601Z</time></trkpt><trkpt lat="44.6077317" lon="9.369845"><ele>1182.0</ele><time>2026-04-04T10:32:31.602Z</time></trkpt><trkpt lat="44.6077867" lon="9.369785"><ele>1182.0</ele><time>2026-04-04T10:32:32.601Z</time></trkpt><trkpt lat="44.6079017" lon="9.369725"><ele>1184.0</ele><time>2026-04-04T10:32:34.602Z</time></trkpt><trkpt lat="44.6079733" lon="9.3697133"><ele>1186.0</ele><time>2026-04-04T10:32:35.601Z</time></trkpt><trkpt lat="44.6080433" lon="9.3696967"><ele>1188.0</ele><time>2026-04-04T10:32:36.601Z</time></trkpt><trkpt lat="44.6081067" lon="9.3696533"><ele>1190.0</ele><time>2026-04-04T10:32:37.6Z</time></trkpt><trkpt lat="44.608145" lon="9.3695383"><ele>1192.0</ele><time>2026-04-04T10:32:38.6Z</time></trkpt><trkpt lat="44.6081833" lon="9.3694317"><ele>1194.0</ele><time>2026-04-04T10:32:39.6Z</time></trkpt><trkpt lat="44.6082283" lon="9.3693267"><ele>1189.1666666666667</ele><time>2026-04-04T10:32:40.601Z</time></trkpt><trkpt lat="44.6082817" lon="9.3692267"><ele>1184.3333333333333</ele><time>2026-04-04T10:32:41.599Z</time></trkpt><trkpt lat="44.6083483" lon="9.3691517"><ele>1179.5</ele><time>2026-04-04T10:32:42.6Z</time></trkpt><trkpt lat="44.6084233" lon="9.3691017"><ele>1174.6666666666665</ele><time>2026-04-04T10:32:43.599Z</time></trkpt><trkpt lat="44.6085017" lon="9.3690517"><ele>1169.8333333333333</ele><time>2026-04-04T10:32:44.602Z</time></trkpt><trkpt lat="44.6085817" lon="9.3689833"><ele>1165.0</ele><time>2026-04-04T10:32:45.6Z</time></trkpt><trkpt lat="44.6086433" lon="9.3688917"><ele>1165.4</ele><time>2026-04-04T10:32:46.6Z</time></trkpt><trkpt lat="44.608695" lon="9.3687817"><ele>1165.8</ele><time>2026-04-04T10:32:47.6Z</time></trkpt><trkpt lat="44.60875" lon="9.3686517"><ele>1166.2</ele><time>2026-04-04T10:32:48.599Z</time></trkpt><trkpt lat="44.6087967" lon="9.368525"><ele>1166.6</ele><time>2026-04-04T10:32:49.6Z</time></trkpt><trkpt lat="44.6088317" lon="9.368395"><ele>1167.0</ele><time>2026-04-04T10:32:50.599Z</time></trkpt><trkpt lat="44.608855" lon="9.3682617"><ele>1167.0</ele><time>2026-04-04T10:32:51.599Z</time></trkpt><trkpt lat="44.6088783" lon="9.36813"><ele>1167.0</ele><time>2026-04-04T10:32:52.6Z</time></trkpt><trkpt lat="44.6089067" lon="9.3679867"><ele>1167.0</ele><time>2026-04-04T10:32:53.599Z</time></trkpt><trkpt lat="44.6089367" lon="9.3678433"><ele>1167.0</ele><time>2026-04-04T10:32:54.6Z</time></trkpt><trkpt lat="44.6089783" lon="9.3677167"><ele>1167.0</ele><time>2026-04-04T10:32:55.599Z</time></trkpt><trkpt lat="44.6090383" lon="9.367625"><ele>1162.6</ele><time>2026-04-04T10:32:56.599Z</time></trkpt><trkpt lat="44.6090933" lon="9.3675533"><ele>1158.2</ele><time>2026-04-04T10:32:57.599Z</time></trkpt><trkpt lat="44.60919" lon="9.3675567"><ele>1153.8</ele><time>2026-04-04T10:32:59.601Z</time></trkpt><trkpt lat="44.6093117" lon="9.3676583"><ele>1149.4</ele><time>2026-04-04T10:33:01.601Z</time></trkpt><trkpt lat="44.6093833" lon="9.367735"><ele>1145.0</ele><time>2026-04-04T10:33:02.6Z</time></trkpt><trkpt lat="44.6094567" lon="9.36782"><ele>1145.8</ele><time>2026-04-04T10:33:03.6Z</time></trkpt><trkpt lat="44.6095333" lon="9.3679"><ele>1146.6</ele><time>2026-04-04T10:33:04.599Z</time></trkpt><trkpt lat="44.6096183" lon="9.367965"><ele>1147.4</ele><time>2026-04-04T10:33:05.601Z</time></trkpt><trkpt lat="44.609705" lon="9.36801"><ele>1148.2</ele><time>2026-04-04T10:33:06.599Z</time></trkpt><trkpt lat="44.6097983" lon="9.36806"><ele>1149.0</ele><time>2026-04-04T10:33:07.601Z</time></trkpt><trkpt lat="44.6098833" lon="9.3681167"><ele>1149.0</ele><time>2026-04-04T10:33:08.6Z</time></trkpt><trkpt lat="44.6099617" lon="9.3681933"><ele>1149.0</ele><time>2026-04-04T10:33:09.6Z</time></trkpt><trkpt lat="44.6100333" lon="9.3682883"><ele>1149.0</ele><time>2026-04-04T10:33:10.599Z</time></trkpt><trkpt lat="44.6100933" lon="9.3683833"><ele>1149.0</ele><time>2026-04-04T10:33:11.601Z</time></trkpt><trkpt lat="44.6101517" lon="9.36848"><ele>1149.0</ele><time>2026-04-04T10:33:12.599Z</time></trkpt><trkpt lat="44.6102183" lon="9.36856"><ele>1149.0</ele><time>2026-04-04T10:33:13.599Z</time></trkpt><trkpt lat="44.6102767" lon="9.3686067"><ele>1149.0</ele><time>2026-04-04T10:33:14.6Z</time></trkpt><trkpt lat="44.6103617" lon="9.3686383"><ele>1149.0</ele><time>2026-04-04T10:33:15.599Z</time></trkpt><trkpt lat="44.610455" lon="9.36866"><ele>1149.0</ele><time>2026-04-04T10:33:16.6Z</time></trkpt><trkpt lat="44.6105417" lon="9.3686883"><ele>1149.0</ele><time>2026-04-04T10:33:17.6Z</time></trkpt><trkpt lat="44.6106283" lon="9.3687367"><ele>1149.0</ele><time>2026-04-04T10:33:18.599Z</time></trkpt><trkpt lat="44.6107017" lon="9.3688083"><ele>1147.4</ele><time>2026-04-04T10:33:19.599Z</time></trkpt><trkpt lat="44.61078" lon="9.3688883"><ele>1145.8000000000002</ele><time>2026-04-04T10:33:20.6Z</time></trkpt><trkpt lat="44.61086" lon="9.3689683"><ele>1144.1999999999998</ele><time>2026-04-04T10:33:21.6Z</time></trkpt><trkpt lat="44.6109383" lon="9.3690417"><ele>1142.6</ele><time>2026-04-04T10:33:22.6Z</time></trkpt><trkpt lat="44.61102" lon="9.3691083"><ele>1141.0</ele><time>2026-04-04T10:33:23.601Z</time></trkpt><trkpt lat="44.6111067" lon="9.36916"><ele>1139.0</ele><time>2026-04-04T10:33:24.599Z</time></trkpt><trkpt lat="44.6111917" lon="9.369205"><ele>1137.0</ele><time>2026-04-04T10:33:25.6Z</time></trkpt><trkpt lat="44.6112733" lon="9.3692367"><ele>1135.0</ele><time>2026-04-04T10:33:26.601Z</time></trkpt><trkpt lat="44.61136" lon="9.3692583"><ele>1133.0</ele><time>2026-04-04T10:33:27.599Z</time></trkpt><trkpt lat="44.6114433" lon="9.3692583"><ele>1131.0</ele><time>2026-04-04T10:33:28.6Z</time></trkpt><trkpt lat="44.611525" lon="9.3692133"><ele>1129.0</ele><time>2026-04-04T10:33:29.6Z</time></trkpt><trkpt lat="44.6116083" lon="9.3691517"><ele>1129.0</ele><time>2026-04-04T10:33:30.599Z</time></trkpt><trkpt lat="44.6116917" lon="9.3690817"><ele>1129.0</ele><time>2026-04-04T10:33:31.599Z</time></trkpt><trkpt lat="44.6117717" lon="9.3690067"><ele>1129.0</ele><time>2026-04-04T10:33:32.601Z</time></trkpt><trkpt lat="44.6118467" lon="9.36895"><ele>1129.0</ele><time>2026-04-04T10:33:33.599Z</time></trkpt><trkpt lat="44.6119267" lon="9.3689183"><ele>1129.0</ele><time>2026-04-04T10:33:34.6Z</time></trkpt><trkpt lat="44.6120017" lon="9.3688933"><ele>1129.0</ele><time>2026-04-04T10:33:35.599Z</time></trkpt><trkpt lat="44.6120783" lon="9.368855"><ele>1125.2</ele><time>2026-04-04T10:33:36.599Z</time></trkpt><trkpt lat="44.6121633" lon="9.3687933"><ele>1121.4</ele><time>2026-04-04T10:33:37.6Z</time></trkpt><trkpt lat="44.6122533" lon="9.3687167"><ele>1117.6</ele><time>2026-04-04T10:33:38.6Z</time></trkpt><trkpt lat="44.6123383" lon="9.3686433"><ele>1113.8</ele><time>2026-04-04T10:33:39.6Z</time></trkpt><trkpt lat="44.6124217" lon="9.3685667"><ele>1110.0</ele><time>2026-04-04T10:33:40.6Z</time></trkpt><trkpt lat="44.6124967" lon="9.3684933"><ele>1110.0</ele><time>2026-04-04T10:33:41.599Z</time></trkpt><trkpt lat="44.612555" lon="9.368435"><ele>1110.0</ele><time>2026-04-04T10:33:42.6Z</time></trkpt><trkpt lat="44.6126517" lon="9.3683917"><ele>1110.0</ele><time>2026-04-04T10:33:44.601Z</time></trkpt><trkpt lat="44.6127517" lon="9.36845"><ele>1110.0</ele><time>2026-04-04T10:33:46.599Z</time></trkpt><trkpt lat="44.6128233" lon="9.36849"><ele>1110.0</ele><time>2026-04-04T10:33:47.6Z</time></trkpt><trkpt lat="44.6129033" lon="9.3685267"><ele>1110.0</ele><time>2026-04-04T10:33:48.6Z</time></trkpt><trkpt lat="44.612995" lon="9.368565"><ele>1109.2</ele><time>2026-04-04T10:33:49.6Z</time></trkpt><trkpt lat="44.6130883" lon="9.3686067"><ele>1108.4</ele><time>2026-04-04T10:33:50.6Z</time></trkpt><trkpt lat="44.6131783" lon="9.368645"><ele>1107.6</ele><time>2026-04-04T10:33:51.6Z</time></trkpt><trkpt lat="44.6132733" lon="9.3686783"><ele>1106.8</ele><time>2026-04-04T10:33:52.6Z</time></trkpt><trkpt lat="44.6133617" lon="9.3686983"><ele>1106.0</ele><time>2026-04-04T10:33:53.599Z</time></trkpt><trkpt lat="44.613455" lon="9.3686967"><ele>1106.0</ele><time>2026-04-04T10:33:54.6Z</time></trkpt><trkpt lat="44.6135483" lon="9.368685"><ele>1106.0</ele><time>2026-04-04T10:33:55.599Z</time></trkpt><trkpt lat="44.6136333" lon="9.3686567"><ele>1106.0</ele><time>2026-04-04T10:33:56.601Z</time></trkpt><trkpt lat="44.6137167" lon="9.3686117"><ele>1106.0</ele><time>2026-04-04T10:33:57.6Z</time></trkpt><trkpt lat="44.61379" lon="9.3685533"><ele>1106.0</ele><time>2026-04-04T10:33:58.601Z</time></trkpt><trkpt lat="44.6138533" lon="9.3684783"><ele>1106.0</ele><time>2026-04-04T10:33:59.6Z</time></trkpt><trkpt lat="44.6139083" lon="9.36839"><ele>1106.3999999999999</ele><time>2026-04-04T10:34:00.6Z</time></trkpt><trkpt lat="44.6139467" lon="9.368285"><ele>1106.8</ele><time>2026-04-04T10:34:01.6Z</time></trkpt><trkpt lat="44.6139867" lon="9.36817"><ele>1107.1999999999998</ele><time>2026-04-04T10:34:02.6Z</time></trkpt><trkpt lat="44.6140317" lon="9.368055"><ele>1107.6</ele><time>2026-04-04T10:34:03.601Z</time></trkpt><trkpt lat="44.6140917" lon="9.367955"><ele>1108.0</ele><time>2026-04-04T10:34:04.599Z</time></trkpt><trkpt lat="44.6141583" lon="9.3678583"><ele>1107.5</ele><time>2026-04-04T10:34:05.599Z</time></trkpt><trkpt lat="44.6142267" lon="9.367765"><ele>1107.0</ele><time>2026-04-04T10:34:06.6Z</time></trkpt><trkpt lat="44.61429" lon="9.3676767"><ele>1106.5</ele><time>2026-04-04T10:34:07.599Z</time></trkpt><trkpt lat="44.6143433" lon="9.3675867"><ele>1106.0</ele><time>2026-04-04T10:34:08.6Z</time></trkpt><trkpt lat="44.6143917" lon="9.3674917"><ele>1105.5</ele><time>2026-04-04T10:34:09.6Z</time></trkpt><trkpt lat="44.61444" lon="9.3674067"><ele>1105.0</ele><time>2026-04-04T10:34:10.599Z</time></trkpt><trkpt lat="44.6145" lon="9.3673317"><ele>1105.0</ele><time>2026-04-04T10:34:11.599Z</time></trkpt><trkpt lat="44.6145683" lon="9.3672683"><ele>1105.0</ele><time>2026-04-04T10:34:12.6Z</time></trkpt><trkpt lat="44.614645" lon="9.3672267"><ele>1105.0</ele><time>2026-04-04T10:34:13.601Z</time></trkpt><trkpt lat="44.614725" lon="9.36719"><ele>1105.0</ele><time>2026-04-04T10:34:14.6Z</time></trkpt><trkpt lat="44.614795" lon="9.3671467"><ele>1105.0</ele><time>2026-04-04T10:34:15.6Z</time></trkpt><trkpt lat="44.6148517" lon="9.3670883"><ele>1105.0</ele><time>2026-04-04T10:34:16.6Z</time></trkpt><trkpt lat="44.6149017" lon="9.3670183"><ele>1102.5</ele><time>2026-04-04T10:34:17.6Z</time></trkpt><trkpt lat="44.6149517" lon="9.366955"><ele>1100.0</ele><time>2026-04-04T10:34:18.601Z</time></trkpt><trkpt lat="44.61507" lon="9.3669233"><ele>1097.5</ele><time>2026-04-04T10:34:20.6Z</time></trkpt><trkpt lat="44.615185" lon="9.36695"><ele>1095.0</ele><time>2026-04-04T10:34:22.6Z</time></trkpt><trkpt lat="44.6152467" lon="9.3669233"><ele>1092.5</ele><time>2026-04-04T10:34:23.602Z</time></trkpt><trkpt lat="44.6153133" lon="9.3668617"><ele>1090.0</ele><time>2026-04-04T10:34:24.6Z</time></trkpt><trkpt lat="44.6153883" lon="9.3667933"><ele>1090.0</ele><time>2026-04-04T10:34:25.6Z</time></trkpt><trkpt lat="44.615465" lon="9.36672"><ele>1090.0</ele><time>2026-04-04T10:34:26.602Z</time></trkpt><trkpt lat="44.6155433" lon="9.366655"><ele>1090.0</ele><time>2026-04-04T10:34:27.6Z</time></trkpt><trkpt lat="44.6156217" lon="9.3665983"><ele>1090.0</ele><time>2026-04-04T10:34:28.6Z</time></trkpt><trkpt lat="44.6157" lon="9.3665517"><ele>1090.0</ele><time>2026-04-04T10:34:29.6Z</time></trkpt><trkpt lat="44.6157767" lon="9.366535"><ele>1090.0</ele><time>2026-04-04T10:34:30.599Z</time></trkpt><trkpt lat="44.6158517" lon="9.3665467"><ele>1090.0</ele><time>2026-04-04T10:34:31.6Z</time></trkpt><trkpt lat="44.6159233" lon="9.3665883"><ele>1090.0</ele><time>2026-04-04T10:34:32.6Z</time></trkpt><trkpt lat="44.616" lon="9.3666267"><ele>1090.0</ele><time>2026-04-04T10:34:33.6Z</time></trkpt><trkpt lat="44.6160783" lon="9.3666483"><ele>1090.0</ele><time>2026-04-04T10:34:34.6Z</time></trkpt><trkpt lat="44.6161617" lon="9.3666567"><ele>1090.0</ele><time>2026-04-04T10:34:35.6Z</time></trkpt><trkpt lat="44.6162317" lon="9.36664"><ele>1090.0</ele><time>2026-04-04T10:34:36.6Z</time></trkpt><trkpt lat="44.61629" lon="9.3666017"><ele>1091.6</ele><time>2026-04-04T10:34:37.601Z</time></trkpt><trkpt lat="44.61635" lon="9.3665533"><ele>1093.2</ele><time>2026-04-04T10:34:38.601Z</time></trkpt><trkpt lat="44.6164467" lon="9.36646"><ele>1094.8</ele><time>2026-04-04T10:34:40.601Z</time></trkpt><trkpt lat="44.6165317" lon="9.3663967"><ele>1096.4</ele><time>2026-04-04T10:34:42.6Z</time></trkpt><trkpt lat="44.616615" lon="9.3663283"><ele>1098.0</ele><time>2026-04-04T10:34:44.601Z</time></trkpt><trkpt lat="44.61667" lon="9.3662033"><ele>1093.4</ele><time>2026-04-04T10:34:46.6Z</time></trkpt><trkpt lat="44.6167167" lon="9.3660667"><ele>1088.8</ele><time>2026-04-04T10:34:48.601Z</time></trkpt><trkpt lat="44.61675" lon="9.36594"><ele>1084.2</ele><time>2026-04-04T10:34:50.601Z</time></trkpt><trkpt lat="44.616805" lon="9.3657833"><ele>1079.6</ele><time>2026-04-04T10:34:52.599Z</time></trkpt><trkpt lat="44.61684" lon="9.365705"><ele>1075.0</ele><time>2026-04-04T10:34:53.6Z</time></trkpt><trkpt lat="44.61688" lon="9.3656367"><ele>1075.0</ele><time>2026-04-04T10:34:54.6Z</time></trkpt><trkpt lat="44.61696" lon="9.3655333"><ele>1075.0</ele><time>2026-04-04T10:34:56.6Z</time></trkpt><trkpt lat="44.6170533" lon="9.3655067"><ele>1075.0</ele><time>2026-04-04T10:34:58.6Z</time></trkpt><trkpt lat="44.6171983" lon="9.3654917"><ele>1075.0</ele><time>2026-04-04T10:35:00.6Z</time></trkpt><trkpt lat="44.6172733" lon="9.3654767"><ele>1075.0</ele><time>2026-04-04T10:35:01.601Z</time></trkpt><trkpt lat="44.6173483" lon="9.3654683"><ele>1074.1666666666665</ele><time>2026-04-04T10:35:02.6Z</time></trkpt><trkpt lat="44.61743" lon="9.3654633"><ele>1073.3333333333333</ele><time>2026-04-04T10:35:03.6Z</time></trkpt><trkpt lat="44.61752" lon="9.36545"><ele>1072.5</ele><time>2026-04-04T10:35:04.601Z</time></trkpt><trkpt lat="44.6176033" lon="9.3654267"><ele>1071.6666666666667</ele><time>2026-04-04T10:35:05.6Z</time></trkpt><trkpt lat="44.61768" lon="9.3653883"><ele>1070.8333333333335</ele><time>2026-04-04T10:35:06.6Z</time></trkpt><trkpt lat="44.6177467" lon="9.3653367"><ele>1070.0</ele><time>2026-04-04T10:35:07.601Z</time></trkpt><trkpt lat="44.6178083" lon="9.3652833"><ele>1071.142857142857</ele><time>2026-04-04T10:35:08.601Z</time></trkpt><trkpt lat="44.6178683" lon="9.36523"><ele>1072.2857142857142</ele><time>2026-04-04T10:35:09.6Z</time></trkpt><trkpt lat="44.6179217" lon="9.36518"><ele>1073.4285714285716</ele><time>2026-04-04T10:35:10.598Z</time></trkpt><trkpt lat="44.6179733" lon="9.3651283"><ele>1074.5714285714284</ele><time>2026-04-04T10:35:11.6Z</time></trkpt><trkpt lat="44.6180233" lon="9.365065"><ele>1075.7142857142858</ele><time>2026-04-04T10:35:12.6Z</time></trkpt><trkpt lat="44.6180717" lon="9.3649967"><ele>1076.857142857143</ele><time>2026-04-04T10:35:13.601Z</time></trkpt><trkpt lat="44.6181233" lon="9.364915"><ele>1078.0</ele><time>2026-04-04T10:35:14.601Z</time></trkpt><trkpt lat="44.6181667" lon="9.364825"><ele>1078.0</ele><time>2026-04-04T10:35:15.599Z</time></trkpt><trkpt lat="44.6182033" lon="9.3647317"><ele>1078.0</ele><time>2026-04-04T10:35:16.599Z</time></trkpt><trkpt lat="44.6182433" lon="9.3646283"><ele>1078.0</ele><time>2026-04-04T10:35:17.6Z</time></trkpt><trkpt lat="44.6182767" lon="9.3645217"><ele>1078.0</ele><time>2026-04-04T10:35:18.6Z</time></trkpt><trkpt lat="44.6183033" lon="9.36442"><ele>1078.0</ele><time>2026-04-04T10:35:19.599Z</time></trkpt><trkpt lat="44.618335" lon="9.3643233"><ele>1078.0</ele><time>2026-04-04T10:35:20.601Z</time></trkpt><trkpt lat="44.618365" lon="9.3642367"><ele>1076.1666666666665</ele><time>2026-04-04T10:35:21.6Z</time></trkpt><trkpt lat="44.6183867" lon="9.36415"><ele>1074.3333333333333</ele><time>2026-04-04T10:35:22.6Z</time></trkpt><trkpt lat="44.6184267" lon="9.3640083"><ele>1072.5</ele><time>2026-04-04T10:35:24.599Z</time></trkpt><trkpt lat="44.6184717" lon="9.3638833"><ele>1070.6666666666667</ele><time>2026-04-04T10:35:26.6Z</time></trkpt><trkpt lat="44.6184833" lon="9.3637883"><ele>1068.8333333333335</ele><time>2026-04-04T10:35:28.599Z</time></trkpt><trkpt lat="44.6184683" lon="9.363685"><ele>1067.0</ele><time>2026-04-04T10:35:57.6Z</time></trkpt><trkpt lat="44.6184083" lon="9.363655"><ele>1064.6666666666667</ele><time>2026-04-04T10:35:58.599Z</time></trkpt><trkpt lat="44.618325" lon="9.363625"><ele>1062.3333333333335</ele><time>2026-04-04T10:35:59.601Z</time></trkpt><trkpt lat="44.6182367" lon="9.3635967"><ele>1060.0</ele><time>2026-04-04T10:36:00.599Z</time></trkpt><trkpt lat="44.6181483" lon="9.3635783"><ele>1057.6666666666667</ele><time>2026-04-04T10:36:01.6Z</time></trkpt><trkpt lat="44.6180683" lon="9.3635817"><ele>1055.3333333333333</ele><time>2026-04-04T10:36:02.6Z</time></trkpt><trkpt lat="44.6179883" lon="9.3636133"><ele>1053.0</ele><time>2026-04-04T10:36:03.6Z</time></trkpt><trkpt lat="44.6179183" lon="9.3636733"><ele>1053.0</ele><time>2026-04-04T10:36:04.6Z</time></trkpt><trkpt lat="44.617875" lon="9.3637533"><ele>1053.0</ele><time>2026-04-04T10:36:05.599Z</time></trkpt><trkpt lat="44.61786" lon="9.3638683"><ele>1053.0</ele><time>2026-04-04T10:36:06.6Z</time></trkpt><trkpt lat="44.61787" lon="9.3639883"><ele>1053.0</ele><time>2026-04-04T10:36:07.601Z</time></trkpt><trkpt lat="44.6178867" lon="9.3641017"><ele>1053.0</ele><time>2026-04-04T10:36:08.6Z</time></trkpt><trkpt lat="44.617895" lon="9.36422"><ele>1053.0</ele><time>2026-04-04T10:36:09.6Z</time></trkpt><trkpt lat="44.6178767" lon="9.3643183"><ele>1053.5</ele><time>2026-04-04T10:36:10.6Z</time></trkpt><trkpt lat="44.6177683" lon="9.3643883"><ele>1054.0</ele><time>2026-04-04T10:36:12.6Z</time></trkpt><trkpt lat="44.6177067" lon="9.3643533"><ele>1054.5</ele><time>2026-04-04T10:36:13.6Z</time></trkpt><trkpt lat="44.6176567" lon="9.3642767"><ele>1055.0</ele><time>2026-04-04T10:36:14.6Z</time></trkpt><trkpt lat="44.6176233" lon="9.3641733"><ele>1055.5</ele><time>2026-04-04T10:36:15.6Z</time></trkpt><trkpt lat="44.6176267" lon="9.36405"><ele>1056.0</ele><time>2026-04-04T10:36:16.6Z</time></trkpt><trkpt lat="44.6176583" lon="9.36391"><ele>1055.3999999999999</ele><time>2026-04-04T10:36:17.6Z</time></trkpt><trkpt lat="44.617705" lon="9.3637683"><ele>1054.8</ele><time>2026-04-04T10:36:18.6Z</time></trkpt><trkpt lat="44.6177583" lon="9.3636383"><ele>1054.1999999999998</ele><time>2026-04-04T10:36:19.601Z</time></trkpt><trkpt lat="44.6178217" lon="9.3635167"><ele>1053.6</ele><time>2026-04-04T10:36:20.6Z</time></trkpt><trkpt lat="44.6178933" lon="9.3634067"><ele>1053.0</ele><time>2026-04-04T10:36:21.599Z</time></trkpt><trkpt lat="44.6179783" lon="9.363305"><ele>1053.0</ele><time>2026-04-04T10:36:22.601Z</time></trkpt><trkpt lat="44.618075" lon="9.3632183"><ele>1053.0</ele><time>2026-04-04T10:36:23.601Z</time></trkpt><trkpt lat="44.6181833" lon="9.3631483"><ele>1053.0</ele><time>2026-04-04T10:36:24.6Z</time></trkpt><trkpt lat="44.618295" lon="9.3630917"><ele>1053.0</ele><time>2026-04-04T10:36:25.6Z</time></trkpt><trkpt lat="44.6184033" lon="9.3630367"><ele>1052.4</ele><time>2026-04-04T10:36:26.602Z</time></trkpt><trkpt lat="44.6185033" lon="9.3629717"><ele>1051.8</ele><time>2026-04-04T10:36:27.6Z</time></trkpt><trkpt lat="44.6185883" lon="9.3628833"><ele>1051.2</ele><time>2026-04-04T10:36:28.599Z</time></trkpt><trkpt lat="44.6186517" lon="9.3627683"><ele>1050.6</ele><time>2026-04-04T10:36:29.6Z</time></trkpt><trkpt lat="44.618695" lon="9.3626267"><ele>1050.0</ele><time>2026-04-04T10:36:30.599Z</time></trkpt><trkpt lat="44.618725" lon="9.3624633"><ele>1050.0</ele><time>2026-04-04T10:36:31.6Z</time></trkpt><trkpt lat="44.618755" lon="9.36228"><ele>1050.0</ele><time>2026-04-04T10:36:32.6Z</time></trkpt><trkpt lat="44.618785" lon="9.3620933"><ele>1050.0</ele><time>2026-04-04T10:36:33.6Z</time></trkpt><trkpt lat="44.6188167" lon="9.3619117"><ele>1050.0</ele><time>2026-04-04T10:36:34.6Z</time></trkpt><trkpt lat="44.6188467" lon="9.3617333"><ele>1048.75</ele><time>2026-04-04T10:36:35.599Z</time></trkpt><trkpt lat="44.6188683" lon="9.3615567"><ele>1047.5</ele><time>2026-04-04T10:36:36.6Z</time></trkpt><trkpt lat="44.618885" lon="9.361385"><ele>1046.25</ele><time>2026-04-04T10:36:37.599Z</time></trkpt><trkpt lat="44.6189" lon="9.3612133"><ele>1045.0</ele><time>2026-04-04T10:36:38.601Z</time></trkpt><trkpt lat="44.6189117" lon="9.3610367"><ele>1043.75</ele><time>2026-04-04T10:36:39.6Z</time></trkpt><trkpt lat="44.618925" lon="9.36086"><ele>1042.5</ele><time>2026-04-04T10:36:40.6Z</time></trkpt><trkpt lat="44.618935" lon="9.36069"><ele>1041.25</ele><time>2026-04-04T10:36:41.601Z</time></trkpt><trkpt lat="44.6189483" lon="9.3605233"><ele>1040.0</ele><time>2026-04-04T10:36:42.6Z</time></trkpt><trkpt lat="44.618975" lon="9.3603683"><ele>1037.5</ele><time>2026-04-04T10:36:43.601Z</time></trkpt><trkpt lat="44.61902" lon="9.360225"><ele>1035.0</ele><time>2026-04-04T10:36:44.6Z</time></trkpt><trkpt lat="44.6190783" lon="9.3600833"><ele>1032.5</ele><time>2026-04-04T10:36:45.6Z</time></trkpt><trkpt lat="44.6191433" lon="9.3599367"><ele>1030.0</ele><time>2026-04-04T10:36:46.6Z</time></trkpt><trkpt lat="44.61921" lon="9.3597833"><ele>1029.75</ele><time>2026-04-04T10:36:47.599Z</time></trkpt><trkpt lat="44.6192767" lon="9.35963"><ele>1029.5</ele><time>2026-04-04T10:36:48.601Z</time></trkpt><trkpt lat="44.6193433" lon="9.3594767"><ele>1029.25</ele><time>2026-04-04T10:36:49.601Z</time></trkpt><trkpt lat="44.6194117" lon="9.3593267"><ele>1029.0</ele><time>2026-04-04T10:36:50.6Z</time></trkpt><trkpt lat="44.619485" lon="9.3591833"><ele>1029.0</ele><time>2026-04-04T10:36:51.6Z</time></trkpt><trkpt lat="44.61956" lon="9.35906"><ele>1029.0</ele><time>2026-04-04T10:36:52.601Z</time></trkpt><trkpt lat="44.6196383" lon="9.35895"><ele>1029.0</ele><time>2026-04-04T10:36:53.601Z</time></trkpt><trkpt lat="44.619715" lon="9.3588433"><ele>1029.0</ele><time>2026-04-04T10:36:54.6Z</time></trkpt><trkpt lat="44.6197867" lon="9.3587417"><ele>1029.0</ele><time>2026-04-04T10:36:55.6Z</time></trkpt><trkpt lat="44.6198567" lon="9.3586433"><ele>1027.1666666666667</ele><time>2026-04-04T10:36:56.599Z</time></trkpt><trkpt lat="44.6199267" lon="9.3585433"><ele>1025.3333333333333</ele><time>2026-04-04T10:36:57.6Z</time></trkpt><trkpt lat="44.619995" lon="9.35845"><ele>1023.5</ele><time>2026-04-04T10:36:58.601Z</time></trkpt><trkpt lat="44.6200567" lon="9.3583617"><ele>1021.6666666666666</ele><time>2026-04-04T10:36:59.6Z</time></trkpt><trkpt lat="44.62011" lon="9.35828"><ele>1019.8333333333333</ele><time>2026-04-04T10:37:00.601Z</time></trkpt><trkpt lat="44.6201567" lon="9.358215"><ele>1018.0</ele><time>2026-04-04T10:37:01.599Z</time></trkpt><trkpt lat="44.6202267" lon="9.3581217"><ele>1017.9999999999999</ele><time>2026-04-04T10:37:03.6Z</time></trkpt><trkpt lat="44.620295" lon="9.3581"><ele>1018.0</ele><time>2026-04-04T10:37:05.6Z</time></trkpt><trkpt lat="44.620375" lon="9.3580983"><ele>1018.0</ele><time>2026-04-04T10:37:07.601Z</time></trkpt><trkpt lat="44.6204667" lon="9.358095"><ele>1018.0</ele><time>2026-04-04T10:37:09.599Z</time></trkpt><trkpt lat="44.62055" lon="9.3581167"><ele>1017.9999999999999</ele><time>2026-04-04T10:37:11.6Z</time></trkpt><trkpt lat="44.6206067" lon="9.3582117"><ele>1018.0</ele><time>2026-04-04T10:37:13.6Z</time></trkpt><trkpt lat="44.6206017" lon="9.3583417"><ele>1013.5999999999999</ele><time>2026-04-04T10:37:15.601Z</time></trkpt><trkpt lat="44.620605" lon="9.3584733"><ele>1009.1999999999999</ele><time>2026-04-04T10:37:17.6Z</time></trkpt><trkpt lat="44.620625" lon="9.3586233"><ele>1004.8</ele><time>2026-04-04T10:37:19.6Z</time></trkpt><trkpt lat="44.6206267" lon="9.3587867"><ele>1000.4</ele><time>2026-04-04T10:37:21.6Z</time></trkpt><trkpt lat="44.6206267" lon="9.3589283"><ele>996.0</ele><time>2026-04-04T10:37:23.601Z</time></trkpt><trkpt lat="44.620635" lon="9.3590517"><ele>995.5999999999999</ele><time>2026-04-04T10:37:25.601Z</time></trkpt><trkpt lat="44.6206267" lon="9.35918"><ele>995.1999999999999</ele><time>2026-04-04T10:37:27.6Z</time></trkpt><trkpt lat="44.6206067" lon="9.35934"><ele>994.8000000000001</ele><time>2026-04-04T10:37:29.601Z</time></trkpt><trkpt lat="44.6206" lon="9.3595167"><ele>994.4000000000001</ele><time>2026-04-04T10:37:31.601Z</time></trkpt><trkpt lat="44.62061" lon="9.3596633"><ele>994.0</ele><time>2026-04-04T10:37:33.601Z</time></trkpt><trkpt lat="44.6206233" lon="9.35976"><ele>993.9999999999999</ele><time>2026-04-04T10:37:35.601Z</time></trkpt><trkpt lat="44.6206317" lon="9.359865"><ele>994.0</ele><time>2026-04-04T10:37:39.601Z</time></trkpt><trkpt lat="44.6206517" lon="9.3599683"><ele>994.0</ele><time>2026-04-04T10:37:42.602Z</time></trkpt><trkpt lat="44.62067" lon="9.3600717"><ele>994.0</ele><time>2026-04-04T10:37:44.603Z</time></trkpt><trkpt lat="44.6207133" lon="9.3601867"><ele>993.9999999999999</ele><time>2026-04-04T10:37:46.601Z</time></trkpt><trkpt lat="44.6207883" lon="9.3603117"><ele>994.0</ele><time>2026-04-04T10:37:48.6Z</time></trkpt><trkpt lat="44.6208367" lon="9.3603783"><ele>993.9999999999999</ele><time>2026-04-04T10:37:49.6Z</time></trkpt><trkpt lat="44.62089" lon="9.36045"><ele>994.0</ele><time>2026-04-04T10:37:50.601Z</time></trkpt><trkpt lat="44.6209467" lon="9.3605167"><ele>994.0</ele><time>2026-04-04T10:37:51.6Z</time></trkpt><trkpt lat="44.6209933" lon="9.3605867"><ele>994.0</ele><time>2026-04-04T10:37:52.6Z</time></trkpt><trkpt lat="44.6210483" lon="9.36075"><ele>993.9999999999999</ele><time>2026-04-04T10:37:54.599Z</time></trkpt><trkpt lat="44.62107" lon="9.36084"><ele>994.0</ele><time>2026-04-04T10:37:55.601Z</time></trkpt><trkpt lat="44.6211033" lon="9.3609283"><ele>994.8333333333333</ele><time>2026-04-04T10:37:56.6Z</time></trkpt><trkpt lat="44.6211267" lon="9.3610133"><ele>995.6666666666666</ele><time>2026-04-04T10:37:57.6Z</time></trkpt><trkpt lat="44.62119" lon="9.36112"><ele>996.5</ele><time>2026-04-04T10:37:59.601Z</time></trkpt><trkpt lat="44.6212433" lon="9.3611833"><ele>997.3333333333333</ele><time>2026-04-04T10:38:01.601Z</time></trkpt><trkpt lat="44.6212967" lon="9.3612867"><ele>998.1666666666666</ele><time>2026-04-04T10:38:03.599Z</time></trkpt><trkpt lat="44.62135" lon="9.3614417"><ele>999.0</ele><time>2026-04-04T10:38:05.601Z</time></trkpt><trkpt lat="44.6214017" lon="9.3615767"><ele>996.0</ele><time>2026-04-04T10:38:07.602Z</time></trkpt><trkpt lat="44.621455" lon="9.3617117"><ele>993.0</ele><time>2026-04-04T10:38:09.6Z</time></trkpt><trkpt lat="44.6215383" lon="9.3618183"><ele>990.0</ele><time>2026-04-04T10:38:11.601Z</time></trkpt><trkpt lat="44.621645" lon="9.3618867"><ele>987.0</ele><time>2026-04-04T10:38:13.601Z</time></trkpt><trkpt lat="44.6217417" lon="9.3619667"><ele>987.0</ele><time>2026-04-04T10:38:15.599Z</time></trkpt><trkpt lat="44.621805" lon="9.362005"><ele>987.0</ele><time>2026-04-04T10:38:16.6Z</time></trkpt><trkpt lat="44.62192" lon="9.3620817"><ele>987.0</ele><time>2026-04-04T10:38:18.6Z</time></trkpt><trkpt lat="44.6219783" lon="9.3621317"><ele>987.0</ele><time>2026-04-04T10:38:19.601Z</time></trkpt><trkpt lat="44.6220383" lon="9.3621717"><ele>987.0</ele><time>2026-04-04T10:38:20.601Z</time></trkpt><trkpt lat="44.62214" lon="9.3622467"><ele>987.0</ele><time>2026-04-04T10:38:22.604Z</time></trkpt><trkpt lat="44.6222017" lon="9.3623667"><ele>983.0</ele><time>2026-04-04T10:38:24.601Z</time></trkpt><trkpt lat="44.6222467" lon="9.3624833"><ele>979.0</ele><time>2026-04-04T10:38:26.601Z</time></trkpt><trkpt lat="44.622335" lon="9.3625317"><ele>975.0</ele><time>2026-04-04T10:38:28.599Z</time></trkpt><trkpt lat="44.62245" lon="9.3624967"><ele>971.0</ele><time>2026-04-04T10:38:30.601Z</time></trkpt><trkpt lat="44.6225267" lon="9.3624633"><ele>967.0</ele><time>2026-04-04T10:38:31.599Z</time></trkpt><trkpt lat="44.6226033" lon="9.36242"><ele>967.0</ele><time>2026-04-04T10:38:32.6Z</time></trkpt><trkpt lat="44.62267" lon="9.362385"><ele>967.0</ele><time>2026-04-04T10:38:33.6Z</time></trkpt><trkpt lat="44.6227883" lon="9.3623683"><ele>967.0</ele><time>2026-04-04T10:38:35.6Z</time></trkpt><trkpt lat="44.62289" lon="9.36246"><ele>967.0</ele><time>2026-04-04T10:38:37.6Z</time></trkpt><trkpt lat="44.6229633" lon="9.3626067"><ele>967.0</ele><time>2026-04-04T10:38:39.601Z</time></trkpt><trkpt lat="44.6230033" lon="9.362725"><ele>965.3333333333333</ele><time>2026-04-04T10:38:41.6Z</time></trkpt><trkpt lat="44.6230383" lon="9.362835"><ele>963.6666666666666</ele><time>2026-04-04T10:38:44.6Z</time></trkpt><trkpt lat="44.6230683" lon="9.3629317"><ele>962.0</ele><time>2026-04-04T10:38:46.601Z</time></trkpt><trkpt lat="44.623125" lon="9.3630517"><ele>960.3333333333333</ele><time>2026-04-04T10:38:48.601Z</time></trkpt><trkpt lat="44.623185" lon="9.363185"><ele>958.6666666666666</ele><time>2026-04-04T10:38:50.6Z</time></trkpt><trkpt lat="44.6232383" lon="9.3632483"><ele>957.0</ele><time>2026-04-04T10:38:52.601Z</time></trkpt><trkpt lat="44.6232967" lon="9.3632833"><ele>957.0</ele><time>2026-04-04T10:38:54.601Z</time></trkpt><trkpt lat="44.6233767" lon="9.3633517"><ele>957.0</ele><time>2026-04-04T10:39:07.601Z</time></trkpt><trkpt lat="44.62344" lon="9.3634183"><ele>957.0</ele><time>2026-04-04T10:39:11.6Z</time></trkpt><trkpt lat="44.6234933" lon="9.3634767"><ele>957.0</ele><time>2026-04-04T10:39:14.6Z</time></trkpt><trkpt lat="44.6235417" lon="9.36354"><ele>957.0</ele><time>2026-04-04T10:39:17.601Z</time></trkpt><trkpt lat="44.6236017" lon="9.363625"><ele>957.0</ele><time>2026-04-04T10:39:19.602Z</time></trkpt><trkpt lat="44.6236767" lon="9.363695"><ele>957.6</ele><time>2026-04-04T10:39:21.601Z</time></trkpt><trkpt lat="44.6237117" lon="9.3638183"><ele>958.2</ele><time>2026-04-04T10:39:24.601Z</time></trkpt><trkpt lat="44.6236967" lon="9.36395"><ele>958.8</ele><time>2026-04-04T10:39:26.602Z</time></trkpt><trkpt lat="44.6236933" lon="9.36404"><ele>959.4</ele><time>2026-04-04T10:39:27.602Z</time></trkpt><trkpt lat="44.6237283" lon="9.3641817"><ele>960.0</ele><time>2026-04-04T10:39:29.6Z</time></trkpt><trkpt lat="44.6238133" lon="9.3643"><ele>960.0</ele><time>2026-04-04T10:39:31.599Z</time></trkpt><trkpt lat="44.62387" lon="9.3643517"><ele>960.0</ele><time>2026-04-04T10:39:32.601Z</time></trkpt><trkpt lat="44.6239283" lon="9.36441"><ele>960.0</ele><time>2026-04-04T10:39:33.601Z</time></trkpt><trkpt lat="44.6239833" lon="9.364465"><ele>960.0</ele><time>2026-04-04T10:39:34.601Z</time></trkpt><trkpt lat="44.6240433" lon="9.3645433"><ele>960.0</ele><time>2026-04-04T10:39:35.601Z</time></trkpt><trkpt lat="44.6241033" lon="9.36464"><ele>960.0</ele><time>2026-04-04T10:39:36.601Z</time></trkpt><trkpt lat="44.6241717" lon="9.3647433"><ele>960.1666666666666</ele><time>2026-04-04T10:39:37.601Z</time></trkpt><trkpt lat="44.6242417" lon="9.36484"><ele>960.3333333333333</ele><time>2026-04-04T10:39:38.601Z</time></trkpt><trkpt lat="44.6243017" lon="9.3649233"><ele>960.5</ele><time>2026-04-04T10:39:39.601Z</time></trkpt><trkpt lat="44.6243533" lon="9.365005"><ele>960.6666666666666</ele><time>2026-04-04T10:39:40.601Z</time></trkpt><trkpt lat="44.624405" lon="9.365095"><ele>960.8333333333333</ele><time>2026-04-04T10:39:41.601Z</time></trkpt><trkpt lat="44.6244633" lon="9.3652067"><ele>961.0</ele><time>2026-04-04T10:39:42.6Z</time></trkpt><trkpt lat="44.6245233" lon="9.3653417"><ele>961.0</ele><time>2026-04-04T10:39:43.6Z</time></trkpt><trkpt lat="44.624585" lon="9.3654633"><ele>960.9999999999999</ele><time>2026-04-04T10:39:44.601Z</time></trkpt><trkpt lat="44.62465" lon="9.3655783"><ele>960.9999999999999</ele><time>2026-04-04T10:39:45.6Z</time></trkpt><trkpt lat="44.6247217" lon="9.3656783"><ele>961.0</ele><time>2026-04-04T10:39:46.6Z</time></trkpt><trkpt lat="44.62479" lon="9.365765"><ele>961.0</ele><time>2026-04-04T10:39:47.599Z</time></trkpt><trkpt lat="44.6248633" lon="9.365835"><ele>961.5999999999999</ele><time>2026-04-04T10:39:48.6Z</time></trkpt><trkpt lat="44.624945" lon="9.3658933"><ele>962.1999999999999</ele><time>2026-04-04T10:39:49.601Z</time></trkpt><trkpt lat="44.6250333" lon="9.3659683"><ele>962.8000000000001</ele><time>2026-04-04T10:39:50.601Z</time></trkpt><trkpt lat="44.625115" lon="9.3660567"><ele>963.4000000000001</ele><time>2026-04-04T10:39:51.6Z</time></trkpt><trkpt lat="44.6251917" lon="9.3661383"><ele>964.0</ele><time>2026-04-04T10:39:52.602Z</time></trkpt><trkpt lat="44.6252683" lon="9.3662117"><ele>964.2</ele><time>2026-04-04T10:39:53.601Z</time></trkpt><trkpt lat="44.625335" lon="9.3662867"><ele>964.4000000000001</ele><time>2026-04-04T10:39:54.601Z</time></trkpt><trkpt lat="44.6254067" lon="9.3663667"><ele>964.6</ele><time>2026-04-04T10:39:55.601Z</time></trkpt><trkpt lat="44.62549" lon="9.3664367"><ele>964.8</ele><time>2026-04-04T10:39:56.602Z</time></trkpt><trkpt lat="44.6255783" lon="9.366505"><ele>965.0</ele><time>2026-04-04T10:39:57.601Z</time></trkpt><trkpt lat="44.6256733" lon="9.366565"><ele>965.5000000000001</ele><time>2026-04-04T10:39:58.601Z</time></trkpt><trkpt lat="44.625765" lon="9.3666133"><ele>966.0</ele><time>2026-04-04T10:39:59.601Z</time></trkpt><trkpt lat="44.625845" lon="9.3666567"><ele>966.5</ele><time>2026-04-04T10:40:00.601Z</time></trkpt><trkpt lat="44.6259217" lon="9.366685"><ele>967.0</ele><time>2026-04-04T10:40:01.601Z</time></trkpt><trkpt lat="44.6259967" lon="9.3667117"><ele>967.5000000000001</ele><time>2026-04-04T10:40:02.601Z</time></trkpt><trkpt lat="44.6260733" lon="9.36674"><ele>968.0</ele><time>2026-04-04T10:40:03.601Z</time></trkpt><trkpt lat="44.62616" lon="9.3667733"><ele>968.2</ele><time>2026-04-04T10:40:04.6Z</time></trkpt><trkpt lat="44.626255" lon="9.366805"><ele>968.4</ele><time>2026-04-04T10:40:05.601Z</time></trkpt><trkpt lat="44.6263517" lon="9.36683"><ele>968.6000000000001</ele><time>2026-04-04T10:40:06.6Z</time></trkpt><trkpt lat="44.62645" lon="9.366855"><ele>968.8000000000001</ele><time>2026-04-04T10:40:07.601Z</time></trkpt><trkpt lat="44.6265467" lon="9.36689"><ele>969.0</ele><time>2026-04-04T10:40:08.601Z</time></trkpt><trkpt lat="44.6266133" lon="9.366925"><ele>969.0</ele><time>2026-04-04T10:40:09.599Z</time></trkpt><trkpt lat="44.6266967" lon="9.36695"><ele>969.0</ele><time>2026-04-04T10:40:10.601Z</time></trkpt><trkpt lat="44.6267867" lon="9.366975"><ele>969.0</ele><time>2026-04-04T10:40:11.601Z</time></trkpt><trkpt lat="44.626875" lon="9.3669983"><ele>969.0</ele><time>2026-04-04T10:40:12.601Z</time></trkpt><trkpt lat="44.6269617" lon="9.3670167"><ele>969.0</ele><time>2026-04-04T10:40:13.602Z</time></trkpt><trkpt lat="44.6270433" lon="9.3670317"><ele>969.0</ele><time>2026-04-04T10:40:14.6Z</time></trkpt><trkpt lat="44.627125" lon="9.3670433"><ele>970.5</ele><time>2026-04-04T10:40:15.6Z</time></trkpt><trkpt lat="44.6272083" lon="9.3670583"><ele>972.0</ele><time>2026-04-04T10:40:16.602Z</time></trkpt><trkpt lat="44.6272917" lon="9.3670767"><ele>973.5</ele><time>2026-04-04T10:40:17.6Z</time></trkpt><trkpt lat="44.6273767" lon="9.3670917"><ele>975.0</ele><time>2026-04-04T10:40:18.602Z</time></trkpt><trkpt lat="44.6274533" lon="9.36711"><ele>976.5</ele><time>2026-04-04T10:40:19.6Z</time></trkpt><trkpt lat="44.6275367" lon="9.36713"><ele>978.0</ele><time>2026-04-04T10:40:20.602Z</time></trkpt><trkpt lat="44.6276233" lon="9.36715"><ele>978.0</ele><time>2026-04-04T10:40:21.602Z</time></trkpt><trkpt lat="44.6277017" lon="9.3671683"><ele>978.0</ele><time>2026-04-04T10:40:22.602Z</time></trkpt><trkpt lat="44.6277817" lon="9.367185"><ele>978.0</ele><time>2026-04-04T10:40:23.603Z</time></trkpt><trkpt lat="44.627855" lon="9.36721"><ele>978.0</ele><time>2026-04-04T10:40:24.602Z</time></trkpt><trkpt lat="44.62794" lon="9.3672367"><ele>978.0</ele><time>2026-04-04T10:40:25.602Z</time></trkpt><trkpt lat="44.62803" lon="9.36726"><ele>978.0</ele><time>2026-04-04T10:40:26.602Z</time></trkpt><trkpt lat="44.6281183" lon="9.3672883"><ele>977.6666666666666</ele><time>2026-04-04T10:40:27.601Z</time></trkpt><trkpt lat="44.6282067" lon="9.3673183"><ele>977.3333333333333</ele><time>2026-04-04T10:40:28.602Z</time></trkpt><trkpt lat="44.62829" lon="9.367345"><ele>977.0</ele><time>2026-04-04T10:40:29.602Z</time></trkpt><trkpt lat="44.6283717" lon="9.3673683"><ele>976.6666666666666</ele><time>2026-04-04T10:40:30.601Z</time></trkpt><trkpt lat="44.6284483" lon="9.36739"><ele>976.3333333333333</ele><time>2026-04-04T10:40:31.602Z</time></trkpt><trkpt lat="44.628525" lon="9.3674167"><ele>976.0</ele><time>2026-04-04T10:40:32.602Z</time></trkpt><trkpt lat="44.6286017" lon="9.3674333"><ele>975.4285714285713</ele><time>2026-04-04T10:40:33.601Z</time></trkpt><trkpt lat="44.6286683" lon="9.367425"><ele>974.8571428571429</ele><time>2026-04-04T10:40:34.603Z</time></trkpt><trkpt lat="44.6287567" lon="9.367395"><ele>974.2857142857142</ele><time>2026-04-04T10:40:36.599Z</time></trkpt><trkpt lat="44.6288117" lon="9.3673467"><ele>973.7142857142857</ele><time>2026-04-04T10:40:38.602Z</time></trkpt><trkpt lat="44.6288783" lon="9.367295"><ele>973.1428571428571</ele><time>2026-04-04T10:40:40.601Z</time></trkpt><trkpt lat="44.628945" lon="9.3673533"><ele>972.5714285714286</ele><time>2026-04-04T10:40:43.601Z</time></trkpt><trkpt lat="44.6289833" lon="9.3674333"><ele>972.0</ele><time>2026-04-04T10:40:45.601Z</time></trkpt><trkpt lat="44.6290567" lon="9.3674283"><ele>972.0</ele><time>2026-04-04T10:40:47.601Z</time></trkpt><trkpt lat="44.6291483" lon="9.3673767"><ele>972.0</ele><time>2026-04-04T10:40:49.601Z</time></trkpt><trkpt lat="44.6292217" lon="9.3672783"><ele>972.0</ele><time>2026-04-04T10:40:51.601Z</time></trkpt><trkpt lat="44.6292917" lon="9.3671833"><ele>972.0</ele><time>2026-04-04T10:40:53.6Z</time></trkpt><trkpt lat="44.6293467" lon="9.3670383"><ele>972.0</ele><time>2026-04-04T10:40:55.6Z</time></trkpt><trkpt lat="44.6293783" lon="9.36696"><ele>971.2</ele><time>2026-04-04T10:40:56.603Z</time></trkpt><trkpt lat="44.629415" lon="9.3668717"><ele>970.4000000000001</ele><time>2026-04-04T10:40:57.601Z</time></trkpt><trkpt lat="44.6294517" lon="9.3667867"><ele>969.5999999999999</ele><time>2026-04-04T10:40:58.6Z</time></trkpt><trkpt lat="44.62953" lon="9.366645"><ele>968.8</ele><time>2026-04-04T10:41:00.601Z</time></trkpt><trkpt lat="44.6295633" lon="9.366495"><ele>968.0</ele><time>2026-04-04T10:41:02.6Z</time></trkpt><trkpt lat="44.6295783" lon="9.3663983"><ele>965.0</ele><time>2026-04-04T10:41:03.601Z</time></trkpt><trkpt lat="44.6296117" lon="9.3662567"><ele>962.0</ele><time>2026-04-04T10:41:05.6Z</time></trkpt><trkpt lat="44.6296833" lon="9.36613"><ele>959.0</ele><time>2026-04-04T10:41:07.6Z</time></trkpt><trkpt lat="44.6297817" lon="9.3660333"><ele>956.0</ele><time>2026-04-04T10:41:09.6Z</time></trkpt><trkpt lat="44.629825" lon="9.3659333"><ele>953.0</ele><time>2026-04-04T10:41:11.6Z</time></trkpt><trkpt lat="44.629835" lon="9.365835"><ele>953.0</ele><time>2026-04-04T10:41:13.601Z</time></trkpt><trkpt lat="44.6298817" lon="9.3657333"><ele>953.0</ele><time>2026-04-04T10:41:15.6Z</time></trkpt><trkpt lat="44.629945" lon="9.3656033"><ele>953.0</ele><time>2026-04-04T10:41:17.601Z</time></trkpt><trkpt lat="44.6299833" lon="9.3654667"><ele>953.0</ele><time>2026-04-04T10:41:19.6Z</time></trkpt><trkpt lat="44.6300217" lon="9.36534"><ele>953.0</ele><time>2026-04-04T10:41:21.601Z</time></trkpt><trkpt lat="44.63007" lon="9.3652183"><ele>950.5999999999999</ele><time>2026-04-04T10:41:23.601Z</time></trkpt><trkpt lat="44.6301183" lon="9.365095"><ele>948.1999999999999</ele><time>2026-04-04T10:41:25.599Z</time></trkpt><trkpt lat="44.6301117" lon="9.3649683"><ele>945.8</ele><time>2026-04-04T10:41:27.601Z</time></trkpt><trkpt lat="44.6301033" lon="9.36482"><ele>943.4</ele><time>2026-04-04T10:41:29.6Z</time></trkpt><trkpt lat="44.6301517" lon="9.3646833"><ele>941.0</ele><time>2026-04-04T10:41:31.6Z</time></trkpt><trkpt lat="44.6301833" lon="9.364595"><ele>940.3333333333334</ele><time>2026-04-04T10:41:32.601Z</time></trkpt><trkpt lat="44.630225" lon="9.3645"><ele>939.6666666666667</ele><time>2026-04-04T10:41:33.6Z</time></trkpt><trkpt lat="44.630265" lon="9.3643917"><ele>939.0</ele><time>2026-04-04T10:41:34.601Z</time></trkpt><trkpt lat="44.6303033" lon="9.364275"><ele>938.3333333333333</ele><time>2026-04-04T10:41:35.602Z</time></trkpt><trkpt lat="44.6303433" lon="9.3641933"><ele>937.6666666666666</ele><time>2026-04-04T10:41:36.602Z</time></trkpt><trkpt lat="44.6303917" lon="9.3641267"><ele>937.0</ele><time>2026-04-04T10:41:37.601Z</time></trkpt><trkpt lat="44.6304417" lon="9.36406"><ele>937.0</ele><time>2026-04-04T10:41:38.6Z</time></trkpt><trkpt lat="44.6305217" lon="9.3639317"><ele>937.0</ele><time>2026-04-04T10:41:40.6Z</time></trkpt><trkpt lat="44.6305817" lon="9.3638383"><ele>937.0</ele><time>2026-04-04T10:41:42.6Z</time></trkpt><trkpt lat="44.6306333" lon="9.3637067"><ele>937.0</ele><time>2026-04-04T10:42:14.601Z</time></trkpt><trkpt lat="44.6307133" lon="9.3636583"><ele>937.0</ele><time>2026-04-04T10:42:16.6Z</time></trkpt><trkpt lat="44.6307933" lon="9.3635733"><ele>935.3333333333333</ele><time>2026-04-04T10:42:18.601Z</time></trkpt><trkpt lat="44.6308783" lon="9.3635283"><ele>933.6666666666666</ele><time>2026-04-04T10:42:20.601Z</time></trkpt><trkpt lat="44.63097" lon="9.3635517"><ele>932.0</ele><time>2026-04-04T10:42:22.601Z</time></trkpt><trkpt lat="44.631075" lon="9.3636"><ele>930.3333333333333</ele><time>2026-04-04T10:42:24.603Z</time></trkpt><trkpt lat="44.6311433" lon="9.363595"><ele>928.6666666666666</ele><time>2026-04-04T10:42:25.602Z</time></trkpt><trkpt lat="44.6312167" lon="9.363585"><ele>927.0</ele><time>2026-04-04T10:42:26.603Z</time></trkpt><trkpt lat="44.631295" lon="9.36356"><ele>925.1666666666666</ele><time>2026-04-04T10:42:27.601Z</time></trkpt><trkpt lat="44.6313817" lon="9.3635283"><ele>923.3333333333333</ele><time>2026-04-04T10:42:28.601Z</time></trkpt><trkpt lat="44.6314683" lon="9.3634967"><ele>921.5</ele><time>2026-04-04T10:42:29.602Z</time></trkpt><trkpt lat="44.6315567" lon="9.3634633"><ele>919.6666666666666</ele><time>2026-04-04T10:42:30.603Z</time></trkpt><trkpt lat="44.6316433" lon="9.3634367"><ele>917.8333333333333</ele><time>2026-04-04T10:42:31.601Z</time></trkpt><trkpt lat="44.6317183" lon="9.3634183"><ele>916.0</ele><time>2026-04-04T10:42:32.602Z</time></trkpt><trkpt lat="44.631785" lon="9.3634017"><ele>916.0</ele><time>2026-04-04T10:42:33.602Z</time></trkpt><trkpt lat="44.6318483" lon="9.3633883"><ele>915.9999999999999</ele><time>2026-04-04T10:42:34.601Z</time></trkpt><trkpt lat="44.63196" lon="9.3634217"><ele>915.9999999999999</ele><time>2026-04-04T10:42:36.602Z</time></trkpt><trkpt lat="44.6320533" lon="9.3634517"><ele>916.0</ele><time>2026-04-04T10:42:38.603Z</time></trkpt><trkpt lat="44.6321333" lon="9.3633783"><ele>916.0</ele><time>2026-04-04T10:42:40.6Z</time></trkpt><trkpt lat="44.6322267" lon="9.3632733"><ele>915.5714285714286</ele><time>2026-04-04T10:42:42.6Z</time></trkpt><trkpt lat="44.6322883" lon="9.363225"><ele>915.1428571428571</ele><time>2026-04-04T10:42:43.6Z</time></trkpt><trkpt lat="44.6323567" lon="9.363185"><ele>914.7142857142857</ele><time>2026-04-04T10:42:44.6Z</time></trkpt><trkpt lat="44.63243" lon="9.363135"><ele>914.2857142857142</ele><time>2026-04-04T10:42:45.6Z</time></trkpt><trkpt lat="44.6324833" lon="9.36308"><ele>913.8571428571429</ele><time>2026-04-04T10:42:46.6Z</time></trkpt><trkpt lat="44.6325467" lon="9.3630167"><ele>913.4285714285713</ele><time>2026-04-04T10:42:47.6Z</time></trkpt><trkpt lat="44.632595" lon="9.3629467"><ele>912.9999999999999</ele><time>2026-04-04T10:42:48.601Z</time></trkpt><trkpt lat="44.6326317" lon="9.3628717"><ele>909.2</ele><time>2026-04-04T10:42:49.6Z</time></trkpt><trkpt lat="44.6326567" lon="9.36279"><ele>905.4</ele><time>2026-04-04T10:42:50.602Z</time></trkpt><trkpt lat="44.6327217" lon="9.3626567"><ele>901.6000000000001</ele><time>2026-04-04T10:42:52.6Z</time></trkpt><trkpt lat="44.6328267" lon="9.3626117"><ele>897.8000000000001</ele><time>2026-04-04T10:42:54.6Z</time></trkpt><trkpt lat="44.6329133" lon="9.3626667"><ele>894.0</ele><time>2026-04-04T10:42:56.602Z</time></trkpt><trkpt lat="44.6330133" lon="9.3627383"><ele>894.0</ele><time>2026-04-04T10:42:58.6Z</time></trkpt><trkpt lat="44.6330783" lon="9.362755"><ele>894.0</ele><time>2026-04-04T10:42:59.601Z</time></trkpt><trkpt lat="44.6332083" lon="9.3627183"><ele>894.0</ele><time>2026-04-04T10:43:01.601Z</time></trkpt><trkpt lat="44.633275" lon="9.3626833"><ele>894.0</ele><time>2026-04-04T10:43:02.6Z</time></trkpt><trkpt lat="44.6333417" lon="9.3626433"><ele>894.0</ele><time>2026-04-04T10:43:03.6Z</time></trkpt><trkpt lat="44.633405" lon="9.362615"><ele>894.0</ele><time>2026-04-04T10:43:04.6Z</time></trkpt><trkpt lat="44.6334767" lon="9.3625983"><ele>894.0</ele><time>2026-04-04T10:43:05.599Z</time></trkpt><trkpt lat="44.6335433" lon="9.3625833"><ele>894.0</ele><time>2026-04-04T10:43:06.6Z</time></trkpt><trkpt lat="44.633625" lon="9.3625667"><ele>894.0</ele><time>2026-04-04T10:43:07.599Z</time></trkpt><trkpt lat="44.633715" lon="9.3625567"><ele>894.0</ele><time>2026-04-04T10:43:08.599Z</time></trkpt><trkpt lat="44.633805" lon="9.36255"><ele>894.0</ele><time>2026-04-04T10:43:09.6Z</time></trkpt><trkpt lat="44.63388" lon="9.3625583"><ele>894.0</ele><time>2026-04-04T10:43:10.6Z</time></trkpt><trkpt lat="44.633955" lon="9.3625817"><ele>893.1666666666666</ele><time>2026-04-04T10:43:11.6Z</time></trkpt><trkpt lat="44.6340233" lon="9.3626083"><ele>892.3333333333333</ele><time>2026-04-04T10:43:12.599Z</time></trkpt><trkpt lat="44.634085" lon="9.3626467"><ele>891.5</ele><time>2026-04-04T10:43:13.599Z</time></trkpt><trkpt lat="44.634155" lon="9.362685"><ele>890.6666666666666</ele><time>2026-04-04T10:43:14.6Z</time></trkpt><trkpt lat="44.6342333" lon="9.3627133"><ele>889.8333333333333</ele><time>2026-04-04T10:43:15.6Z</time></trkpt><trkpt lat="44.634315" lon="9.362745"><ele>889.0</ele><time>2026-04-04T10:43:16.6Z</time></trkpt><trkpt lat="44.6343917" lon="9.3627717"><ele>888.9999999999999</ele><time>2026-04-04T10:43:17.6Z</time></trkpt><trkpt lat="44.63446" lon="9.3628117"><ele>889.0</ele><time>2026-04-04T10:43:18.6Z</time></trkpt><trkpt lat="44.63455" lon="9.3628717"><ele>889.0</ele><time>2026-04-04T10:43:20.605Z</time></trkpt><trkpt lat="44.6346067" lon="9.3628067"><ele>889.0</ele><time>2026-04-04T10:43:23.601Z</time></trkpt><trkpt lat="44.63458" lon="9.3626767"><ele>888.9999999999999</ele><time>2026-04-04T10:43:26.6Z</time></trkpt><trkpt lat="44.63451" lon="9.362585"><ele>889.0</ele><time>2026-04-04T10:43:28.601Z</time></trkpt><trkpt lat="44.6344317" lon="9.3624633"><ele>888.9999999999999</ele><time>2026-04-04T10:43:30.6Z</time></trkpt><trkpt lat="44.6343883" lon="9.36239"><ele>889.0</ele><time>2026-04-04T10:43:31.6Z</time></trkpt><trkpt lat="44.6343517" lon="9.3623133"><ele>889.0</ele><time>2026-04-04T10:43:32.601Z</time></trkpt><trkpt lat="44.6342983" lon="9.3621733"><ele>889.0</ele><time>2026-04-04T10:43:34.6Z</time></trkpt><trkpt lat="44.6342983" lon="9.3620767"><ele>888.9999999999999</ele><time>2026-04-04T10:43:36.6Z</time></trkpt><trkpt lat="44.6343683" lon="9.36205"><ele>889.0</ele><time>2026-04-04T10:43:38.6Z</time></trkpt><trkpt lat="44.63449" lon="9.3620883"><ele>883.0</ele><time>2026-04-04T10:43:40.6Z</time></trkpt><trkpt lat="44.6346083" lon="9.3621283"><ele>877.0000000000001</ele><time>2026-04-04T10:43:42.6Z</time></trkpt><trkpt lat="44.6346917" lon="9.3620983"><ele>871.0000000000001</ele><time>2026-04-04T10:43:44.601Z</time></trkpt><trkpt lat="44.6347133" lon="9.3619967"><ele>865.0</ele><time>2026-04-04T10:43:46.601Z</time></trkpt><trkpt lat="44.63468" lon="9.3618733"><ele>859.0</ele><time>2026-04-04T10:43:48.6Z</time></trkpt><trkpt lat="44.634605" lon="9.3617933"><ele>859.0</ele><time>2026-04-04T10:43:50.6Z</time></trkpt><trkpt lat="44.634555" lon="9.3616833"><ele>859.0000000000001</ele><time>2026-04-04T10:43:52.6Z</time></trkpt><trkpt lat="44.63452" lon="9.361535"><ele>859.0000000000001</ele><time>2026-04-04T10:43:54.6Z</time></trkpt><trkpt lat="44.6344917" lon="9.3613817"><ele>859.0</ele><time>2026-04-04T10:43:56.599Z</time></trkpt><trkpt lat="44.6344467" lon="9.3612567"><ele>859.0</ele><time>2026-04-04T10:43:58.6Z</time></trkpt><trkpt lat="44.6343983" lon="9.36111"><ele>855.3333333333333</ele><time>2026-04-04T10:44:00.599Z</time></trkpt><trkpt lat="44.6343717" lon="9.3610233"><ele>851.6666666666666</ele><time>2026-04-04T10:44:01.6Z</time></trkpt><trkpt lat="44.6343433" lon="9.3609417"><ele>848.0</ele><time>2026-04-04T10:44:02.6Z</time></trkpt><trkpt lat="44.6343133" lon="9.360855"><ele>844.3333333333333</ele><time>2026-04-04T10:44:03.599Z</time></trkpt><trkpt lat="44.6342567" lon="9.3606967"><ele>840.6666666666666</ele><time>2026-04-04T10:44:05.599Z</time></trkpt><trkpt lat="44.63424" lon="9.36061"><ele>837.0</ele><time>2026-04-04T10:44:06.6Z</time></trkpt><trkpt lat="44.6342133" lon="9.360515"><ele>834.7142857142858</ele><time>2026-04-04T10:44:07.599Z</time></trkpt><trkpt lat="44.6341883" lon="9.360425"><ele>832.4285714285714</ele><time>2026-04-04T10:44:08.6Z</time></trkpt><trkpt lat="44.6341583" lon="9.36033"><ele>830.1428571428571</ele><time>2026-04-04T10:44:09.599Z</time></trkpt><trkpt lat="44.6341283" lon="9.36024"><ele>827.8571428571429</ele><time>2026-04-04T10:44:10.6Z</time></trkpt><trkpt lat="44.6340967" lon="9.3601533"><ele>825.5714285714286</ele><time>2026-04-04T10:44:11.6Z</time></trkpt><trkpt lat="44.634065" lon="9.3600633"><ele>823.2857142857143</ele><time>2026-04-04T10:44:12.599Z</time></trkpt><trkpt lat="44.63403" lon="9.3599767"><ele>821.0</ele><time>2026-04-04T10:44:13.6Z</time></trkpt><trkpt lat="44.6339917" lon="9.3598917"><ele>821.0000000000001</ele><time>2026-04-04T10:44:14.6Z</time></trkpt><trkpt lat="44.63395" lon="9.3598083"><ele>821.0</ele><time>2026-04-04T10:44:15.6Z</time></trkpt><trkpt lat="44.6339133" lon="9.3597283"><ele>821.0</ele><time>2026-04-04T10:44:16.599Z</time></trkpt><trkpt lat="44.6338917" lon="9.359575"><ele>821.0</ele><time>2026-04-04T10:44:18.6Z</time></trkpt><trkpt lat="44.6339417" lon="9.35946"><ele>821.0000000000001</ele><time>2026-04-04T10:44:20.6Z</time></trkpt><trkpt lat="44.6339467" lon="9.35934"><ele>821.0</ele><time>2026-04-04T10:44:22.601Z</time></trkpt><trkpt lat="44.6339017" lon="9.3592267"><ele>818.4</ele><time>2026-04-04T10:44:24.601Z</time></trkpt><trkpt lat="44.6338283" lon="9.3591333"><ele>815.8</ele><time>2026-04-04T10:44:26.602Z</time></trkpt><trkpt lat="44.633745" lon="9.35907"><ele>813.1999999999999</ele><time>2026-04-04T10:44:28.6Z</time></trkpt><trkpt lat="44.6336533" lon="9.3590533"><ele>810.5999999999999</ele><time>2026-04-04T10:44:30.6Z</time></trkpt><trkpt lat="44.6335467" lon="9.3590317"><ele>808.0</ele><time>2026-04-04T10:44:32.601Z</time></trkpt><trkpt lat="44.6334617" lon="9.3589933"><ele>805.3333333333333</ele><time>2026-04-04T10:44:34.601Z</time></trkpt><trkpt lat="44.6333867" lon="9.358965"><ele>802.6666666666666</ele><time>2026-04-04T10:44:36.601Z</time></trkpt><trkpt lat="44.6333233" lon="9.358935"><ele>800.0</ele><time>2026-04-04T10:44:38.599Z</time></trkpt><trkpt lat="44.6332983" lon="9.3588533"><ele>797.3333333333333</ele><time>2026-04-04T10:44:40.6Z</time></trkpt><trkpt lat="44.633315" lon="9.358725"><ele>794.6666666666666</ele><time>2026-04-04T10:44:42.598Z</time></trkpt><trkpt lat="44.6333283" lon="9.3585817"><ele>792.0</ele><time>2026-04-04T10:44:44.601Z</time></trkpt><trkpt lat="44.6333317" lon="9.35846"><ele>791.1666666666666</ele><time>2026-04-04T10:44:46.6Z</time></trkpt><trkpt lat="44.633285" lon="9.3583467"><ele>790.3333333333333</ele><time>2026-04-04T10:44:48.601Z</time></trkpt><trkpt lat="44.633195" lon="9.3582333"><ele>789.5</ele><time>2026-04-04T10:44:50.601Z</time></trkpt><trkpt lat="44.6331217" lon="9.3581883"><ele>788.6666666666666</ele><time>2026-04-04T10:44:51.6Z</time></trkpt><trkpt lat="44.63305" lon="9.3581467"><ele>787.8333333333333</ele><time>2026-04-04T10:44:52.6Z</time></trkpt><trkpt lat="44.6329817" lon="9.3581117"><ele>787.0</ele><time>2026-04-04T10:44:53.6Z</time></trkpt><trkpt lat="44.6329217" lon="9.3580767"><ele>786.9999999999999</ele><time>2026-04-04T10:44:54.599Z</time></trkpt><trkpt lat="44.6328533" lon="9.3580567"><ele>787.0</ele><time>2026-04-04T10:44:55.604Z</time></trkpt><trkpt lat="44.6327867" lon="9.35803"><ele>787.0</ele><time>2026-04-04T10:44:56.601Z</time></trkpt><trkpt lat="44.6327233" lon="9.3579917"><ele>787.0</ele><time>2026-04-04T10:44:57.599Z</time></trkpt><trkpt lat="44.6326617" lon="9.3579533"><ele>786.9999999999999</ele><time>2026-04-04T10:44:58.6Z</time></trkpt><trkpt lat="44.6326" lon="9.35793"><ele>787.0</ele><time>2026-04-04T10:44:59.599Z</time></trkpt><trkpt lat="44.6324783" lon="9.3578967"><ele>785.4999999999999</ele><time>2026-04-04T10:45:01.599Z</time></trkpt><trkpt lat="44.6323617" lon="9.3578383"><ele>784.0</ele><time>2026-04-04T10:45:03.6Z</time></trkpt><trkpt lat="44.6323083" lon="9.35779"><ele>782.5</ele><time>2026-04-04T10:45:04.599Z</time></trkpt><trkpt lat="44.6322583" lon="9.3577283"><ele>781.0</ele><time>2026-04-04T10:45:05.599Z</time></trkpt><trkpt lat="44.6322167" lon="9.3576533"><ele>779.4999999999999</ele><time>2026-04-04T10:45:06.599Z</time></trkpt><trkpt lat="44.6321767" lon="9.3575617"><ele>778.0</ele><time>2026-04-04T10:45:07.6Z</time></trkpt><trkpt lat="44.6321367" lon="9.357465"><ele>777.9999999999999</ele><time>2026-04-04T10:45:08.6Z</time></trkpt><trkpt lat="44.6320983" lon="9.3573683"><ele>778.0</ele><time>2026-04-04T10:45:09.599Z</time></trkpt><trkpt lat="44.6320583" lon="9.357275"><ele>778.0</ele><time>2026-04-04T10:45:10.599Z</time></trkpt><trkpt lat="44.63202" lon="9.35718"><ele>778.0</ele><time>2026-04-04T10:45:11.6Z</time></trkpt><trkpt lat="44.63199" lon="9.3570717"><ele>777.9999999999999</ele><time>2026-04-04T10:45:12.6Z</time></trkpt><trkpt lat="44.6319617" lon="9.356955"><ele>778.0</ele><time>2026-04-04T10:45:13.601Z</time></trkpt><trkpt lat="44.6319283" lon="9.3568283"><ele>776.3333333333333</ele><time>2026-04-04T10:45:14.601Z</time></trkpt><trkpt lat="44.631895" lon="9.3567017"><ele>774.6666666666666</ele><time>2026-04-04T10:45:15.601Z</time></trkpt><trkpt lat="44.6318633" lon="9.3565883"><ele>773.0</ele><time>2026-04-04T10:45:16.601Z</time></trkpt><trkpt lat="44.6318333" lon="9.3564833"><ele>771.3333333333333</ele><time>2026-04-04T10:45:17.599Z</time></trkpt><trkpt lat="44.6318183" lon="9.3563783"><ele>769.6666666666666</ele><time>2026-04-04T10:45:18.6Z</time></trkpt><trkpt lat="44.6318033" lon="9.3562733"><ele>768.0</ele><time>2026-04-04T10:45:19.6Z</time></trkpt><trkpt lat="44.6317933" lon="9.3561533"><ele>768.0</ele><time>2026-04-04T10:45:20.601Z</time></trkpt><trkpt lat="44.6317833" lon="9.356035"><ele>768.0</ele><time>2026-04-04T10:45:21.6Z</time></trkpt><trkpt lat="44.6317867" lon="9.3559033"><ele>768.0</ele><time>2026-04-04T10:45:22.6Z</time></trkpt><trkpt lat="44.63179" lon="9.3557667"><ele>768.0</ele><time>2026-04-04T10:45:23.601Z</time></trkpt><trkpt lat="44.63179" lon="9.355625"><ele>768.0</ele><time>2026-04-04T10:45:24.6Z</time></trkpt><trkpt lat="44.6317883" lon="9.3554967"><ele>767.5999999999999</ele><time>2026-04-04T10:45:25.601Z</time></trkpt><trkpt lat="44.63179" lon="9.3553767"><ele>767.1999999999999</ele><time>2026-04-04T10:45:26.601Z</time></trkpt><trkpt lat="44.631795" lon="9.3552683"><ele>766.8</ele><time>2026-04-04T10:45:27.6Z</time></trkpt><trkpt lat="44.631805" lon="9.35517"><ele>766.4</ele><time>2026-04-04T10:45:28.6Z</time></trkpt><trkpt lat="44.6318017" lon="9.3549983"><ele>766.0</ele><time>2026-04-04T10:45:30.6Z</time></trkpt><trkpt lat="44.631795" lon="9.3548333"><ele>766.3333333333334</ele><time>2026-04-04T10:45:32.6Z</time></trkpt><trkpt lat="44.6318167" lon="9.3546617"><ele>766.6666666666667</ele><time>2026-04-04T10:45:34.599Z</time></trkpt><trkpt lat="44.6318433" lon="9.35456"><ele>767.0</ele><time>2026-04-04T10:45:35.599Z</time></trkpt><trkpt lat="44.63188" lon="9.3544633"><ele>767.3333333333334</ele><time>2026-04-04T10:45:36.6Z</time></trkpt><trkpt lat="44.631925" lon="9.3543733"><ele>767.6666666666666</ele><time>2026-04-04T10:45:37.601Z</time></trkpt><trkpt lat="44.6319733" lon="9.3542933"><ele>768.0</ele><time>2026-04-04T10:45:38.599Z</time></trkpt><trkpt lat="44.6320183" lon="9.354225"><ele>768.0</ele><time>2026-04-04T10:45:39.601Z</time></trkpt><trkpt lat="44.6320717" lon="9.354095"><ele>768.0</ele><time>2026-04-04T10:45:41.601Z</time></trkpt><trkpt lat="44.632055" lon="9.3539283"><ele>768.0</ele><time>2026-04-04T10:45:43.601Z</time></trkpt><trkpt lat="44.6320383" lon="9.353835"><ele>768.0</ele><time>2026-04-04T10:45:44.601Z</time></trkpt><trkpt lat="44.632025" lon="9.35374"><ele>768.0</ele><time>2026-04-04T10:45:45.6Z</time></trkpt><trkpt lat="44.63201" lon="9.353645"><ele>768.0</ele><time>2026-04-04T10:45:46.601Z</time></trkpt><trkpt lat="44.6319983" lon="9.353545"><ele>766.6666666666666</ele><time>2026-04-04T10:45:47.6Z</time></trkpt><trkpt lat="44.631985" lon="9.3534533"><ele>765.3333333333334</ele><time>2026-04-04T10:45:48.601Z</time></trkpt><trkpt lat="44.6318933" lon="9.3533183"><ele>764.0</ele><time>2026-04-04T10:45:50.6Z</time></trkpt><trkpt lat="44.6318267" lon="9.3532583"><ele>762.6666666666667</ele><time>2026-04-04T10:45:51.6Z</time></trkpt><trkpt lat="44.6317617" lon="9.3532067"><ele>761.3333333333334</ele><time>2026-04-04T10:45:52.6Z</time></trkpt><trkpt lat="44.6316967" lon="9.353175"><ele>760.0</ele><time>2026-04-04T10:45:53.601Z</time></trkpt><trkpt lat="44.6316167" lon="9.3531133"><ele>759.6666666666667</ele><time>2026-04-04T10:45:55.6Z</time></trkpt><trkpt lat="44.6316283" lon="9.3530133"><ele>759.3333333333334</ele><time>2026-04-04T10:45:57.6Z</time></trkpt><trkpt lat="44.6317067" lon="9.35288"><ele>759.0</ele><time>2026-04-04T10:45:59.601Z</time></trkpt><trkpt lat="44.6317533" lon="9.3527767"><ele>758.6666666666666</ele><time>2026-04-04T10:46:00.6Z</time></trkpt><trkpt lat="44.631785" lon="9.35266"><ele>758.3333333333333</ele><time>2026-04-04T10:46:01.6Z</time></trkpt><trkpt lat="44.6317867" lon="9.3525533"><ele>758.0</ele><time>2026-04-04T10:46:02.601Z</time></trkpt><trkpt lat="44.6317833" lon="9.3524517"><ele>758.0</ele><time>2026-04-04T10:46:03.599Z</time></trkpt><trkpt lat="44.6317833" lon="9.35236"><ele>758.0</ele><time>2026-04-04T10:46:04.599Z</time></trkpt><trkpt lat="44.6317933" lon="9.3522683"><ele>758.0</ele><time>2026-04-04T10:46:05.6Z</time></trkpt><trkpt lat="44.63181" lon="9.3521667"><ele>758.0</ele><time>2026-04-04T10:46:06.599Z</time></trkpt><trkpt lat="44.6318333" lon="9.3520533"><ele>758.0</ele><time>2026-04-04T10:46:07.6Z</time></trkpt><trkpt lat="44.63186" lon="9.3519233"><ele>758.0</ele><time>2026-04-04T10:46:08.601Z</time></trkpt><trkpt lat="44.6318867" lon="9.351785"><ele>756.6666666666666</ele><time>2026-04-04T10:46:09.603Z</time></trkpt><trkpt lat="44.6319067" lon="9.3516583"><ele>755.3333333333333</ele><time>2026-04-04T10:46:10.601Z</time></trkpt><trkpt lat="44.631925" lon="9.3515467"><ele>754.0</ele><time>2026-04-04T10:46:11.601Z</time></trkpt><trkpt lat="44.6319533" lon="9.351435"><ele>752.6666666666666</ele><time>2026-04-04T10:46:12.601Z</time></trkpt><trkpt lat="44.6319883" lon="9.3513217"><ele>751.3333333333334</ele><time>2026-04-04T10:46:13.601Z</time></trkpt><trkpt lat="44.63203" lon="9.3512117"><ele>750.0</ele><time>2026-04-04T10:46:14.6Z</time></trkpt><trkpt lat="44.6320667" lon="9.35111"><ele>752.6666666666666</ele><time>2026-04-04T10:46:15.6Z</time></trkpt><trkpt lat="44.6321017" lon="9.3509633"><ele>755.3333333333334</ele><time>2026-04-04T10:46:17.6Z</time></trkpt><trkpt lat="44.632055" lon="9.3508583"><ele>758.0</ele><time>2026-04-04T10:46:19.599Z</time></trkpt><trkpt lat="44.631995" lon="9.3507217"><ele>760.6666666666667</ele><time>2026-04-04T10:46:21.601Z</time></trkpt><trkpt lat="44.6319867" lon="9.3506333"><ele>763.3333333333334</ele><time>2026-04-04T10:46:22.601Z</time></trkpt><trkpt lat="44.6320017" lon="9.3505433"><ele>766.0</ele><time>2026-04-04T10:46:23.6Z</time></trkpt><trkpt lat="44.6320383" lon="9.350465"><ele>766.0</ele><time>2026-04-04T10:46:24.601Z</time></trkpt><trkpt lat="44.6320883" lon="9.3503333"><ele>766.0</ele><time>2026-04-04T10:46:26.606Z</time></trkpt><trkpt lat="44.6321633" lon="9.3502817"><ele>766.0</ele><time>2026-04-04T10:46:28.6Z</time></trkpt><trkpt lat="44.632265" lon="9.3503367"><ele>766.0</ele><time>2026-04-04T10:46:30.6Z</time></trkpt><trkpt lat="44.6323267" lon="9.3503683"><ele>766.0</ele><time>2026-04-04T10:46:31.599Z</time></trkpt><trkpt lat="44.6323917" lon="9.3503783"><ele>766.0</ele><time>2026-04-04T10:46:32.601Z</time></trkpt><trkpt lat="44.6324617" lon="9.35039"><ele>766.0</ele><time>2026-04-04T10:46:33.599Z</time></trkpt><trkpt lat="44.6325383" lon="9.3504117"><ele>766.0</ele><time>2026-04-04T10:46:34.6Z</time></trkpt><trkpt lat="44.63261" lon="9.350425"><ele>766.0</ele><time>2026-04-04T10:46:35.601Z</time></trkpt><trkpt lat="44.63268" lon="9.3504333"><ele>766.0</ele><time>2026-04-04T10:46:36.6Z</time></trkpt><trkpt lat="44.632775" lon="9.350435"><ele>766.0</ele><time>2026-04-04T10:46:38.599Z</time></trkpt><trkpt lat="44.6328583" lon="9.35041"><ele>766.0</ele><time>2026-04-04T10:46:41.601Z</time></trkpt><trkpt lat="44.63295" lon="9.35036"><ele>769.5</ele><time>2026-04-04T10:46:43.599Z</time></trkpt><trkpt lat="44.6330367" lon="9.3503017"><ele>773.0</ele><time>2026-04-04T10:46:45.601Z</time></trkpt><trkpt lat="44.6330583" lon="9.3501867"><ele>776.5</ele><time>2026-04-04T10:46:47.6Z</time></trkpt><trkpt lat="44.6330333" lon="9.3500733"><ele>780.0</ele><time>2026-04-04T10:46:49.603Z</time></trkpt><trkpt lat="44.6330917" lon="9.3499783"><ele>783.4999999999999</ele><time>2026-04-04T10:46:52.601Z</time></trkpt><trkpt lat="44.6331717" lon="9.3499833"><ele>787.0</ele><time>2026-04-04T10:46:54.6Z</time></trkpt><trkpt lat="44.633245" lon="9.3499783"><ele>787.0</ele><time>2026-04-04T10:46:56.6Z</time></trkpt><trkpt lat="44.633315" lon="9.3499733"><ele>787.0</ele><time>2026-04-04T10:46:59.601Z</time></trkpt><trkpt lat="44.6333583" lon="9.3500633"><ele>787.0</ele><time>2026-04-04T10:47:10.601Z</time></trkpt><trkpt lat="44.633385" lon="9.3501483"><ele>787.0</ele><time>2026-04-04T10:47:13.6Z</time></trkpt><trkpt lat="44.6333633" lon="9.3500567"><ele>787.0</ele><time>2026-04-04T10:47:41.6Z</time></trkpt><trkpt lat="44.6333167" lon="9.3499683"><ele>787.0</ele><time>2026-04-04T10:47:44.601Z</time></trkpt><trkpt lat="44.6333271" lon="9.3500562"><ele>787.0</ele><time>2026-04-04T10:54:05.682Z</time></trkpt><trkpt lat="44.6333188" lon="9.3501455"><ele>786.9999999999999</ele><time>2026-04-04T10:56:39.705Z</time></trkpt><trkpt lat="44.6333682" lon="9.3502013"><ele>787.0</ele><time>2026-04-04T10:57:35.658Z</time></trkpt><trkpt lat="44.6333214" lon="9.3502748"><ele>787.0</ele><time>2026-04-04T11:20:41.665Z</time></trkpt><trkpt lat="44.6333616" lon="9.3502012"><ele>787.0</ele><time>2026-04-04T11:38:43.578Z</time></trkpt><trkpt lat="44.6333168" lon="9.350064"><ele>786.9999999999999</ele><time>2026-04-04T11:51:50.521Z</time></trkpt><trkpt lat="44.633388" lon="9.3500806"><ele>787.0</ele><time>2026-04-04T11:56:23.649Z</time></trkpt><trkpt lat="44.6333227" lon="9.3501214"><ele>786.9999999999999</ele><time>2026-04-04T11:56:43.617Z</time></trkpt><trkpt lat="44.6332668" lon="9.3500675"><ele>787.0</ele><time>2026-04-04T11:56:45.721Z</time></trkpt><trkpt lat="44.633145" lon="9.349985"><ele>787.0</ele><time>2026-04-04T11:56:47.601Z</time></trkpt><trkpt lat="44.6330817" lon="9.3499817"><ele>787.0</ele><time>2026-04-04T11:56:49.602Z</time></trkpt><trkpt lat="44.6330233" lon="9.3500633"><ele>786.9999999999999</ele><time>2026-04-04T11:56:52.6Z</time></trkpt><trkpt lat="44.6330383" lon="9.3501567"><ele>787.0</ele><time>2026-04-04T11:56:54.601Z</time></trkpt><trkpt lat="44.6330583" lon="9.35028"><ele>786.9999999999999</ele><time>2026-04-04T11:56:57.601Z</time></trkpt><trkpt lat="44.633" lon="9.3503467"><ele>787.0</ele><time>2026-04-04T11:57:00.602Z</time></trkpt><trkpt lat="44.6329217" lon="9.3503717"><ele>787.0</ele><time>2026-04-04T11:57:02.601Z</time></trkpt><trkpt lat="44.6328417" lon="9.3504033"><ele>787.0</ele><time>2026-04-04T11:57:04.601Z</time></trkpt><trkpt lat="44.6327617" lon="9.35043"><ele>786.9999999999999</ele><time>2026-04-04T11:57:06.601Z</time></trkpt><trkpt lat="44.6326567" lon="9.350435"><ele>787.0</ele><time>2026-04-04T11:57:08.601Z</time></trkpt><trkpt lat="44.6325567" lon="9.350415"><ele>782.8</ele><time>2026-04-04T11:57:10.6Z</time></trkpt><trkpt lat="44.6324383" lon="9.3503933"><ele>778.6</ele><time>2026-04-04T11:57:12.601Z</time></trkpt><trkpt lat="44.6323167" lon="9.3503767"><ele>774.4</ele><time>2026-04-04T11:57:14.602Z</time></trkpt><trkpt lat="44.6322017" lon="9.3503167"><ele>770.1999999999999</ele><time>2026-04-04T11:57:16.601Z</time></trkpt><trkpt lat="44.6321433" lon="9.350275"><ele>766.0</ele><time>2026-04-04T11:57:17.601Z</time></trkpt><trkpt lat="44.632085" lon="9.350235"><ele>766.0</ele><time>2026-04-04T11:57:18.601Z</time></trkpt><trkpt lat="44.632025" lon="9.3501983"><ele>766.0</ele><time>2026-04-04T11:57:19.6Z</time></trkpt><trkpt lat="44.631965" lon="9.3501567"><ele>766.0</ele><time>2026-04-04T11:57:20.601Z</time></trkpt><trkpt lat="44.6319033" lon="9.3501083"><ele>766.0</ele><time>2026-04-04T11:57:21.601Z</time></trkpt><trkpt lat="44.631845" lon="9.35005"><ele>766.0</ele><time>2026-04-04T11:57:22.602Z</time></trkpt><trkpt lat="44.6317933" lon="9.3499917"><ele>766.0</ele><time>2026-04-04T11:57:23.601Z</time></trkpt><trkpt lat="44.6316967" lon="9.3498883"><ele>762.8</ele><time>2026-04-04T11:57:25.601Z</time></trkpt><trkpt lat="44.6316017" lon="9.3498117"><ele>759.5999999999999</ele><time>2026-04-04T11:57:27.601Z</time></trkpt><trkpt lat="44.6315067" lon="9.3497367"><ele>756.4</ele><time>2026-04-04T11:57:29.602Z</time></trkpt><trkpt lat="44.6314367" lon="9.3496683"><ele>753.2</ele><time>2026-04-04T11:57:31.602Z</time></trkpt><trkpt lat="44.6313883" lon="9.34957"><ele>750.0</ele><time>2026-04-04T11:57:34.601Z</time></trkpt><trkpt lat="44.6313783" lon="9.349475"><ele>748.8333333333334</ele><time>2026-04-04T11:57:38.603Z</time></trkpt><trkpt lat="44.631325" lon="9.3493833"><ele>747.6666666666666</ele><time>2026-04-04T11:57:44.602Z</time></trkpt><trkpt lat="44.631265" lon="9.3493067"><ele>746.5</ele><time>2026-04-04T11:57:47.602Z</time></trkpt><trkpt lat="44.6311967" lon="9.3493"><ele>745.3333333333333</ele><time>2026-04-04T11:57:50.602Z</time></trkpt><trkpt lat="44.6311183" lon="9.3492633"><ele>744.1666666666666</ele><time>2026-04-04T11:57:54.601Z</time></trkpt><trkpt lat="44.6310483" lon="9.3492483"><ele>743.0</ele><time>2026-04-04T11:57:57.601Z</time></trkpt><trkpt lat="44.6309933" lon="9.3491667"><ele>739.5</ele><time>2026-04-04T11:58:03.601Z</time></trkpt><trkpt lat="44.6309467" lon="9.3490683"><ele>736.0</ele><time>2026-04-04T11:58:07.601Z</time></trkpt><trkpt lat="44.6308883" lon="9.3489767"><ele>732.5</ele><time>2026-04-04T11:58:10.6Z</time></trkpt><trkpt lat="44.6308167" lon="9.3488833"><ele>729.0</ele><time>2026-04-04T11:58:13.601Z</time></trkpt><trkpt lat="44.6307767" lon="9.3488133"><ele>725.5</ele><time>2026-04-04T11:58:15.601Z</time></trkpt><trkpt lat="44.6307367" lon="9.34874"><ele>722.0</ele><time>2026-04-04T11:58:17.601Z</time></trkpt><trkpt lat="44.6306683" lon="9.3486517"><ele>721.2</ele><time>2026-04-04T11:58:19.601Z</time></trkpt><trkpt lat="44.6305683" lon="9.3485717"><ele>720.4000000000001</ele><time>2026-04-04T11:58:21.602Z</time></trkpt><trkpt lat="44.6304683" lon="9.3484967"><ele>719.5999999999999</ele><time>2026-04-04T11:58:23.602Z</time></trkpt><trkpt lat="44.6303917" lon="9.3484117"><ele>718.8</ele><time>2026-04-04T11:58:25.6Z</time></trkpt><trkpt lat="44.63035" lon="9.3482917"><ele>718.0</ele><time>2026-04-04T11:58:27.601Z</time></trkpt><trkpt lat="44.630315" lon="9.3481567"><ele>714.6666666666667</ele><time>2026-04-04T11:58:29.602Z</time></trkpt><trkpt lat="44.6302733" lon="9.3480567"><ele>711.3333333333334</ele><time>2026-04-04T11:58:31.603Z</time></trkpt><trkpt lat="44.630235" lon="9.34798"><ele>708.0</ele><time>2026-04-04T11:58:33.604Z</time></trkpt><trkpt lat="44.6301967" lon="9.3478717"><ele>704.6666666666666</ele><time>2026-04-04T11:58:36.603Z</time></trkpt><trkpt lat="44.6302" lon="9.34776"><ele>701.3333333333333</ele><time>2026-04-04T11:58:39.6Z</time></trkpt><trkpt lat="44.6302017" lon="9.3476267"><ele>698.0</ele><time>2026-04-04T11:58:42.602Z</time></trkpt><trkpt lat="44.6301933" lon="9.34753"><ele>696.0</ele><time>2026-04-04T11:58:44.601Z</time></trkpt><trkpt lat="44.6301867" lon="9.3474317"><ele>694.0</ele><time>2026-04-04T11:58:46.6Z</time></trkpt><trkpt lat="44.6301783" lon="9.3473317"><ele>692.0</ele><time>2026-04-04T11:58:48.6Z</time></trkpt><trkpt lat="44.6301767" lon="9.3472167"><ele>690.0</ele><time>2026-04-04T11:58:50.602Z</time></trkpt><trkpt lat="44.6301983" lon="9.3470967"><ele>688.0</ele><time>2026-04-04T11:58:52.6Z</time></trkpt><trkpt lat="44.6301883" lon="9.3469533"><ele>686.0</ele><time>2026-04-04T11:58:54.601Z</time></trkpt><trkpt lat="44.6301717" lon="9.3468067"><ele>684.5999999999999</ele><time>2026-04-04T11:58:56.6Z</time></trkpt><trkpt lat="44.6301983" lon="9.3466533"><ele>683.2</ele><time>2026-04-04T11:58:58.6Z</time></trkpt><trkpt lat="44.6302467" lon="9.3465133"><ele>681.8</ele><time>2026-04-04T11:59:00.6Z</time></trkpt><trkpt lat="44.630295" lon="9.346385"><ele>680.4000000000001</ele><time>2026-04-04T11:59:02.6Z</time></trkpt><trkpt lat="44.6303067" lon="9.346255"><ele>679.0</ele><time>2026-04-04T11:59:04.599Z</time></trkpt><trkpt lat="44.63033" lon="9.3461283"><ele>679.0</ele><time>2026-04-04T11:59:06.599Z</time></trkpt><trkpt lat="44.6303983" lon="9.3460833"><ele>679.0</ele><time>2026-04-04T11:59:09.6Z</time></trkpt><trkpt lat="44.6304217" lon="9.3461933"><ele>679.0</ele><time>2026-04-04T11:59:12.599Z</time></trkpt><trkpt lat="44.6304383" lon="9.346285"><ele>679.0</ele><time>2026-04-04T11:59:14.599Z</time></trkpt><trkpt lat="44.6305017" lon="9.34626"><ele>679.0</ele><time>2026-04-04T11:59:17.601Z</time></trkpt><trkpt lat="44.6305167" lon="9.3461583"><ele>679.0</ele><time>2026-04-04T11:59:20.602Z</time></trkpt><trkpt lat="44.630525" lon="9.3460517"><ele>679.0</ele><time>2026-04-04T11:59:23.6Z</time></trkpt><trkpt lat="44.6305517" lon="9.3459233"><ele>679.0</ele><time>2026-04-04T11:59:26.603Z</time></trkpt><trkpt lat="44.6305667" lon="9.34579"><ele>679.0</ele><time>2026-04-04T11:59:28.601Z</time></trkpt><trkpt lat="44.6305533" lon="9.3456517"><ele>679.0</ele><time>2026-04-04T11:59:30.6Z</time></trkpt><trkpt lat="44.6305183" lon="9.34557"><ele>679.0</ele><time>2026-04-04T11:59:32.6Z</time></trkpt><trkpt lat="44.63044" lon="9.3455633"><ele>679.0</ele><time>2026-04-04T11:59:34.599Z</time></trkpt><trkpt lat="44.63037" lon="9.3455533"><ele>679.0</ele><time>2026-04-04T11:59:35.601Z</time></trkpt><trkpt lat="44.6302983" lon="9.345525"><ele>673.3333333333334</ele><time>2026-04-04T11:59:36.601Z</time></trkpt><trkpt lat="44.6302283" lon="9.345485"><ele>667.6666666666667</ele><time>2026-04-04T11:59:37.601Z</time></trkpt><trkpt lat="44.6301617" lon="9.345435"><ele>662.0</ele><time>2026-04-04T11:59:38.601Z</time></trkpt><trkpt lat="44.6301033" lon="9.3453833"><ele>656.3333333333334</ele><time>2026-04-04T11:59:39.602Z</time></trkpt><trkpt lat="44.6300433" lon="9.3453133"><ele>650.6666666666666</ele><time>2026-04-04T11:59:40.601Z</time></trkpt><trkpt lat="44.630015" lon="9.3451533"><ele>645.0</ele><time>2026-04-04T11:59:42.6Z</time></trkpt><trkpt lat="44.6300617" lon="9.3450283"><ele>645.0</ele><time>2026-04-04T11:59:44.6Z</time></trkpt><trkpt lat="44.630095" lon="9.34493"><ele>645.0</ele><time>2026-04-04T11:59:46.6Z</time></trkpt><trkpt lat="44.630045" lon="9.3448567"><ele>645.0</ele><time>2026-04-04T11:59:48.6Z</time></trkpt><trkpt lat="44.6299433" lon="9.34486"><ele>645.0</ele><time>2026-04-04T11:59:50.602Z</time></trkpt><trkpt lat="44.6298783" lon="9.3449017"><ele>645.0</ele><time>2026-04-04T11:59:51.599Z</time></trkpt><trkpt lat="44.629805" lon="9.344955"><ele>645.0</ele><time>2026-04-04T11:59:52.6Z</time></trkpt><trkpt lat="44.6297267" lon="9.345"><ele>645.0</ele><time>2026-04-04T11:59:53.601Z</time></trkpt><trkpt lat="44.62964" lon="9.345015"><ele>645.0</ele><time>2026-04-04T11:59:54.6Z</time></trkpt><trkpt lat="44.6295617" lon="9.3449983"><ele>645.0</ele><time>2026-04-04T11:59:55.601Z</time></trkpt><trkpt lat="44.629495" lon="9.3449633"><ele>645.0</ele><time>2026-04-04T11:59:56.601Z</time></trkpt><trkpt lat="44.6294333" lon="9.34491"><ele>645.0</ele><time>2026-04-04T11:59:57.601Z</time></trkpt><trkpt lat="44.6293833" lon="9.344845"><ele>645.0</ele><time>2026-04-04T11:59:58.601Z</time></trkpt><trkpt lat="44.629335" lon="9.3447667"><ele>640.0</ele><time>2026-04-04T11:59:59.601Z</time></trkpt><trkpt lat="44.6292867" lon="9.344685"><ele>635.0</ele><time>2026-04-04T12:00:00.6Z</time></trkpt><trkpt lat="44.6292483" lon="9.344585"><ele>630.0</ele><time>2026-04-04T12:00:01.601Z</time></trkpt><trkpt lat="44.6292133" lon="9.3444917"><ele>625.0</ele><time>2026-04-04T12:00:02.602Z</time></trkpt><trkpt lat="44.62918" lon="9.3444083"><ele>620.0</ele><time>2026-04-04T12:00:03.6Z</time></trkpt><trkpt lat="44.6291517" lon="9.344305"><ele>615.0</ele><time>2026-04-04T12:00:04.6Z</time></trkpt><trkpt lat="44.6291317" lon="9.3441933"><ele>615.0</ele><time>2026-04-04T12:00:05.6Z</time></trkpt><trkpt lat="44.6291133" lon="9.3440767"><ele>615.0</ele><time>2026-04-04T12:00:06.601Z</time></trkpt><trkpt lat="44.6291" lon="9.343955"><ele>615.0</ele><time>2026-04-04T12:00:07.601Z</time></trkpt><trkpt lat="44.629085" lon="9.3438367"><ele>615.0</ele><time>2026-04-04T12:00:08.602Z</time></trkpt><trkpt lat="44.6290783" lon="9.3437283"><ele>615.0</ele><time>2026-04-04T12:00:09.601Z</time></trkpt><trkpt lat="44.62907" lon="9.343615"><ele>615.0</ele><time>2026-04-04T12:00:10.6Z</time></trkpt><trkpt lat="44.6290617" lon="9.3434933"><ele>612.8333333333334</ele><time>2026-04-04T12:00:11.601Z</time></trkpt><trkpt lat="44.6290533" lon="9.3433733"><ele>610.6666666666666</ele><time>2026-04-04T12:00:12.602Z</time></trkpt><trkpt lat="44.6290367" lon="9.343265"><ele>608.5</ele><time>2026-04-04T12:00:13.599Z</time></trkpt><trkpt lat="44.6290167" lon="9.3431717"><ele>606.3333333333333</ele><time>2026-04-04T12:00:14.601Z</time></trkpt><trkpt lat="44.6289983" lon="9.34308"><ele>604.1666666666666</ele><time>2026-04-04T12:00:15.6Z</time></trkpt><trkpt lat="44.628985" lon="9.3429867"><ele>602.0</ele><time>2026-04-04T12:00:16.6Z</time></trkpt><trkpt lat="44.6289517" lon="9.3428083"><ele>600.8571428571429</ele><time>2026-04-04T12:00:18.601Z</time></trkpt><trkpt lat="44.6289367" lon="9.3427067"><ele>599.7142857142858</ele><time>2026-04-04T12:00:19.601Z</time></trkpt><trkpt lat="44.628925" lon="9.342615"><ele>598.5714285714286</ele><time>2026-04-04T12:00:20.602Z</time></trkpt><trkpt lat="44.628905" lon="9.342515"><ele>597.4285714285714</ele><time>2026-04-04T12:00:21.601Z</time></trkpt><trkpt lat="44.628875" lon="9.342415"><ele>596.2857142857143</ele><time>2026-04-04T12:00:22.603Z</time></trkpt><trkpt lat="44.628845" lon="9.34232"><ele>595.1428571428571</ele><time>2026-04-04T12:00:23.602Z</time></trkpt><trkpt lat="44.62882" lon="9.3422233"><ele>594.0</ele><time>2026-04-04T12:00:24.601Z</time></trkpt><trkpt lat="44.6288067" lon="9.3421317"><ele>593.0</ele><time>2026-04-04T12:00:25.599Z</time></trkpt><trkpt lat="44.628795" lon="9.3420333"><ele>592.0</ele><time>2026-04-04T12:00:26.6Z</time></trkpt><trkpt lat="44.62878" lon="9.3419233"><ele>591.0</ele><time>2026-04-04T12:00:27.601Z</time></trkpt><trkpt lat="44.6287617" lon="9.3418117"><ele>590.0</ele><time>2026-04-04T12:00:28.601Z</time></trkpt><trkpt lat="44.6287467" lon="9.3417067"><ele>589.0</ele><time>2026-04-04T12:00:29.601Z</time></trkpt><trkpt lat="44.6287333" lon="9.3416133"><ele>588.0</ele><time>2026-04-04T12:00:30.6Z</time></trkpt><trkpt lat="44.6287" lon="9.341455"><ele>586.1999999999999</ele><time>2026-04-04T12:00:32.602Z</time></trkpt><trkpt lat="44.6286567" lon="9.3413283"><ele>584.4</ele><time>2026-04-04T12:00:34.601Z</time></trkpt><trkpt lat="44.628615" lon="9.3412083"><ele>582.5999999999999</ele><time>2026-04-04T12:00:36.601Z</time></trkpt><trkpt lat="44.6285767" lon="9.3411"><ele>580.8</ele><time>2026-04-04T12:00:38.601Z</time></trkpt><trkpt lat="44.628545" lon="9.3409883"><ele>579.0</ele><time>2026-04-04T12:00:40.6Z</time></trkpt><trkpt lat="44.6285217" lon="9.340855"><ele>577.25</ele><time>2026-04-04T12:00:42.601Z</time></trkpt><trkpt lat="44.6284933" lon="9.3407067"><ele>575.5</ele><time>2026-04-04T12:00:44.601Z</time></trkpt><trkpt lat="44.6284517" lon="9.3405683"><ele>573.75</ele><time>2026-04-04T12:00:46.599Z</time></trkpt><trkpt lat="44.6283917" lon="9.3404267"><ele>572.0</ele><time>2026-04-04T12:00:48.6Z</time></trkpt><trkpt lat="44.628325" lon="9.3402817"><ele>571.0</ele><time>2026-04-04T12:00:50.6Z</time></trkpt><trkpt lat="44.6282767" lon="9.340155"><ele>570.0</ele><time>2026-04-04T12:00:52.603Z</time></trkpt><trkpt lat="44.6282633" lon="9.34001"><ele>569.0</ele><time>2026-04-04T12:00:54.601Z</time></trkpt><trkpt lat="44.6282733" lon="9.3398883"><ele>568.0</ele><time>2026-04-04T12:00:56.6Z</time></trkpt><trkpt lat="44.62826" lon="9.339735"><ele>567.0</ele><time>2026-04-04T12:00:58.6Z</time></trkpt><trkpt lat="44.6282467" lon="9.3395567"><ele>565.0</ele><time>2026-04-04T12:01:00.6Z</time></trkpt><trkpt lat="44.62824" lon="9.3394633"><ele>563.0</ele><time>2026-04-04T12:01:01.6Z</time></trkpt><trkpt lat="44.628235" lon="9.3393717"><ele>561.0</ele><time>2026-04-04T12:01:02.6Z</time></trkpt><trkpt lat="44.6282283" lon="9.3392767"><ele>559.0</ele><time>2026-04-04T12:01:03.601Z</time></trkpt><trkpt lat="44.6282217" lon="9.3391217"><ele>557.0</ele><time>2026-04-04T12:01:05.601Z</time></trkpt><trkpt lat="44.6282267" lon="9.3389717"><ele>555.0</ele><time>2026-04-04T12:01:07.601Z</time></trkpt><trkpt lat="44.62824" lon="9.3387983"><ele>552.6666666666666</ele><time>2026-04-04T12:01:09.6Z</time></trkpt><trkpt lat="44.6282417" lon="9.3387083"><ele>550.3333333333334</ele><time>2026-04-04T12:01:10.601Z</time></trkpt><trkpt lat="44.628245" lon="9.33861"><ele>548.0</ele><time>2026-04-04T12:01:11.6Z</time></trkpt><trkpt lat="44.6282483" lon="9.33851"><ele>545.6666666666667</ele><time>2026-04-04T12:01:12.6Z</time></trkpt><trkpt lat="44.6282567" lon="9.3384167"><ele>543.3333333333334</ele><time>2026-04-04T12:01:13.602Z</time></trkpt><trkpt lat="44.628265" lon="9.3383267"><ele>541.0</ele><time>2026-04-04T12:01:14.6Z</time></trkpt><trkpt lat="44.6282617" lon="9.338155"><ele>538.4</ele><time>2026-04-04T12:01:16.601Z</time></trkpt><trkpt lat="44.6282517" lon="9.3379933"><ele>535.8</ele><time>2026-04-04T12:01:18.601Z</time></trkpt><trkpt lat="44.6282433" lon="9.337855"><ele>533.1999999999999</ele><time>2026-04-04T12:01:20.601Z</time></trkpt><trkpt lat="44.6282383" lon="9.3377583"><ele>530.6</ele><time>2026-04-04T12:01:22.6Z</time></trkpt><trkpt lat="44.62822" lon="9.3376367"><ele>528.0</ele><time>2026-04-04T12:01:25.601Z</time></trkpt><trkpt lat="44.6282083" lon="9.3375167"><ele>528.0</ele><time>2026-04-04T12:01:27.6Z</time></trkpt><trkpt lat="44.6281867" lon="9.3373767"><ele>528.0</ele><time>2026-04-04T12:01:29.601Z</time></trkpt><trkpt lat="44.6281533" lon="9.3372367"><ele>528.0</ele><time>2026-04-04T12:01:31.601Z</time></trkpt><trkpt lat="44.6281267" lon="9.3371133"><ele>528.0</ele><time>2026-04-04T12:01:33.599Z</time></trkpt><trkpt lat="44.6281" lon="9.3369783"><ele>528.0</ele><time>2026-04-04T12:01:35.6Z</time></trkpt><trkpt lat="44.62809" lon="9.3368467"><ele>525.1999999999999</ele><time>2026-04-04T12:01:37.6Z</time></trkpt><trkpt lat="44.6281333" lon="9.3367383"><ele>522.4</ele><time>2026-04-04T12:01:39.6Z</time></trkpt><trkpt lat="44.628185" lon="9.3366383"><ele>519.5999999999999</ele><time>2026-04-04T12:01:41.6Z</time></trkpt><trkpt lat="44.628235" lon="9.3365183"><ele>516.8</ele><time>2026-04-04T12:01:43.601Z</time></trkpt><trkpt lat="44.6282767" lon="9.336405"><ele>514.0</ele><time>2026-04-04T12:01:45.601Z</time></trkpt><trkpt lat="44.6283233" lon="9.3362733"><ele>512.0</ele><time>2026-04-04T12:01:47.601Z</time></trkpt><trkpt lat="44.62835" lon="9.33618"><ele>510.0</ele><time>2026-04-04T12:01:48.601Z</time></trkpt><trkpt lat="44.6283783" lon="9.336085"><ele>508.0</ele><time>2026-04-04T12:01:49.601Z</time></trkpt><trkpt lat="44.6283967" lon="9.3359983"><ele>506.0</ele><time>2026-04-04T12:01:50.6Z</time></trkpt><trkpt lat="44.6284033" lon="9.3358567"><ele>504.00000000000006</ele><time>2026-04-04T12:01:52.601Z</time></trkpt><trkpt lat="44.628365" lon="9.33567"><ele>502.0</ele><time>2026-04-04T12:01:54.601Z</time></trkpt><trkpt lat="44.6283433" lon="9.3355583"><ele>500.83333333333337</ele><time>2026-04-04T12:01:55.602Z</time></trkpt><trkpt lat="44.6283217" lon="9.3354383"><ele>499.6666666666667</ele><time>2026-04-04T12:01:56.601Z</time></trkpt><trkpt lat="44.6282983" lon="9.3353133"><ele>498.5</ele><time>2026-04-04T12:01:57.6Z</time></trkpt><trkpt lat="44.6282733" lon="9.3351987"><ele>497.33333333333337</ele><time>2026-04-04T12:01:58.602Z</time></trkpt><trkpt lat="44.6282521" lon="9.3350934"><ele>496.1666666666667</ele><time>2026-04-04T12:01:59.601Z</time></trkpt><trkpt lat="44.6282745" lon="9.3349536"><ele>495.0</ele><time>2026-04-04T12:02:01.602Z</time></trkpt><trkpt lat="44.6283697" lon="9.3349049"><ele>495.0</ele><time>2026-04-04T12:02:03.602Z</time></trkpt><trkpt lat="44.6283814" lon="9.3348174"><ele>495.0</ele><time>2026-04-04T12:03:20.601Z</time></trkpt><trkpt lat="44.6282787" lon="9.3348282"><ele>495.0</ele><time>2026-04-04T12:03:22.601Z</time></trkpt><trkpt lat="44.6282083" lon="9.3348366"><ele>495.0</ele><time>2026-04-04T12:03:23.6Z</time></trkpt><trkpt lat="44.6281356" lon="9.3348498"><ele>495.0</ele><time>2026-04-04T12:03:24.601Z</time></trkpt><trkpt lat="44.628072" lon="9.3348583"><ele>495.0</ele><time>2026-04-04T12:03:25.601Z</time></trkpt><trkpt lat="44.6279749" lon="9.3348749"><ele>495.0</ele><time>2026-04-04T12:03:27.602Z</time></trkpt><trkpt lat="44.6278659" lon="9.3348834"><ele>495.0</ele><time>2026-04-04T12:03:29.601Z</time></trkpt><trkpt lat="44.6278006" lon="9.3348836"><ele>495.0</ele><time>2026-04-04T12:03:30.601Z</time></trkpt><trkpt lat="44.6277263" lon="9.3348803"><ele>495.0</ele><time>2026-04-04T12:03:31.601Z</time></trkpt><trkpt lat="44.6276368" lon="9.3348707"><ele>495.0</ele><time>2026-04-04T12:03:32.6Z</time></trkpt><trkpt lat="44.6275379" lon="9.3348516"><ele>495.0</ele><time>2026-04-04T12:03:33.601Z</time></trkpt><trkpt lat="44.6274389" lon="9.3348209"><ele>496.6</ele><time>2026-04-04T12:03:34.601Z</time></trkpt><trkpt lat="44.6273405" lon="9.3347808"><ele>498.2</ele><time>2026-04-04T12:03:35.602Z</time></trkpt><trkpt lat="44.6272421" lon="9.334738"><ele>499.79999999999995</ele><time>2026-04-04T12:03:36.602Z</time></trkpt><trkpt lat="44.6271372" lon="9.3346899"><ele>501.4</ele><time>2026-04-04T12:03:37.6Z</time></trkpt><trkpt lat="44.6270307" lon="9.3346447"><ele>503.0</ele><time>2026-04-04T12:03:38.6Z</time></trkpt><trkpt lat="44.626927" lon="9.3346062"><ele>498.4</ele><time>2026-04-04T12:03:39.599Z</time></trkpt><trkpt lat="44.6268303" lon="9.334571"><ele>493.79999999999995</ele><time>2026-04-04T12:03:40.6Z</time></trkpt><trkpt lat="44.6267363" lon="9.3345454"><ele>489.2</ele><time>2026-04-04T12:03:41.6Z</time></trkpt><trkpt lat="44.626639" lon="9.3345385"><ele>484.6</ele><time>2026-04-04T12:03:42.601Z</time></trkpt><trkpt lat="44.6265404" lon="9.3345602"><ele>480.0</ele><time>2026-04-04T12:03:43.601Z</time></trkpt><trkpt lat="44.6264386" lon="9.3345943"><ele>480.0</ele><time>2026-04-04T12:03:44.601Z</time></trkpt><trkpt lat="44.6263324" lon="9.3346289"><ele>480.0</ele><time>2026-04-04T12:03:45.601Z</time></trkpt><trkpt lat="44.6262226" lon="9.334664"><ele>480.0</ele><time>2026-04-04T12:03:46.601Z</time></trkpt><trkpt lat="44.6261161" lon="9.3346956"><ele>480.0</ele><time>2026-04-04T12:03:47.601Z</time></trkpt><trkpt lat="44.6260163" lon="9.3347243"><ele>480.0</ele><time>2026-04-04T12:03:48.601Z</time></trkpt><trkpt lat="44.6259223" lon="9.3347365"><ele>479.6666666666667</ele><time>2026-04-04T12:03:49.601Z</time></trkpt><trkpt lat="44.6258362" lon="9.3347271"><ele>479.33333333333337</ele><time>2026-04-04T12:03:50.603Z</time></trkpt><trkpt lat="44.625757" lon="9.3347006"><ele>479.0</ele><time>2026-04-04T12:03:51.601Z</time></trkpt><trkpt lat="44.6256869" lon="9.3346503"><ele>478.6666666666667</ele><time>2026-04-04T12:03:52.601Z</time></trkpt><trkpt lat="44.6256142" lon="9.3345972"><ele>478.33333333333337</ele><time>2026-04-04T12:03:53.6Z</time></trkpt><trkpt lat="44.6255292" lon="9.334559"><ele>478.0</ele><time>2026-04-04T12:03:54.601Z</time></trkpt><trkpt lat="44.6254342" lon="9.334536"><ele>478.0</ele><time>2026-04-04T12:03:55.601Z</time></trkpt><trkpt lat="44.6253219" lon="9.3345238"><ele>478.0</ele><time>2026-04-04T12:03:56.602Z</time></trkpt><trkpt lat="44.6252013" lon="9.3345234"><ele>478.0</ele><time>2026-04-04T12:03:57.601Z</time></trkpt><trkpt lat="44.6250805" lon="9.3345295"><ele>478.0</ele><time>2026-04-04T12:03:58.601Z</time></trkpt><trkpt lat="44.6249637" lon="9.3345368"><ele>479.0</ele><time>2026-04-04T12:03:59.601Z</time></trkpt><trkpt lat="44.6248541" lon="9.334542"><ele>479.99999999999994</ele><time>2026-04-04T12:04:00.601Z</time></trkpt><trkpt lat="44.6247503" lon="9.3345497"><ele>480.99999999999994</ele><time>2026-04-04T12:04:01.601Z</time></trkpt><trkpt lat="44.6246529" lon="9.3345563"><ele>482.0</ele><time>2026-04-04T12:04:02.601Z</time></trkpt><trkpt lat="44.6245584" lon="9.334562"><ele>483.0</ele><time>2026-04-04T12:04:03.601Z</time></trkpt><trkpt lat="44.6244669" lon="9.3345616"><ele>483.8333333333333</ele><time>2026-04-04T12:04:04.601Z</time></trkpt><trkpt lat="44.6243812" lon="9.3345541"><ele>484.66666666666663</ele><time>2026-04-04T12:04:05.601Z</time></trkpt><trkpt lat="44.6242998" lon="9.3345373"><ele>485.5</ele><time>2026-04-04T12:04:06.601Z</time></trkpt><trkpt lat="44.6242222" lon="9.3345169"><ele>486.3333333333333</ele><time>2026-04-04T12:04:07.601Z</time></trkpt><trkpt lat="44.6241454" lon="9.3344969"><ele>487.16666666666663</ele><time>2026-04-04T12:04:08.601Z</time></trkpt><trkpt lat="44.6240727" lon="9.334475"><ele>488.0</ele><time>2026-04-04T12:04:09.601Z</time></trkpt><trkpt lat="44.6239982" lon="9.3344593"><ele>487.99999999999994</ele><time>2026-04-04T12:04:10.601Z</time></trkpt><trkpt lat="44.6239246" lon="9.3344475"><ele>488.0</ele><time>2026-04-04T12:04:11.601Z</time></trkpt><trkpt lat="44.6238526" lon="9.3344312"><ele>488.0</ele><time>2026-04-04T12:04:12.601Z</time></trkpt><trkpt lat="44.6237839" lon="9.3344054"><ele>488.0</ele><time>2026-04-04T12:04:13.602Z</time></trkpt><trkpt lat="44.6237214" lon="9.3343747"><ele>487.99999999999994</ele><time>2026-04-04T12:04:14.601Z</time></trkpt><trkpt lat="44.6236225" lon="9.3342818"><ele>488.0</ele><time>2026-04-04T12:04:16.601Z</time></trkpt><trkpt lat="44.6235486" lon="9.3341648"><ele>488.8333333333333</ele><time>2026-04-04T12:04:18.601Z</time></trkpt><trkpt lat="44.623495" lon="9.3340579"><ele>489.66666666666663</ele><time>2026-04-04T12:04:20.601Z</time></trkpt><trkpt lat="44.6234779" lon="9.3339581"><ele>490.5</ele><time>2026-04-04T12:04:22.6Z</time></trkpt><trkpt lat="44.6234911" lon="9.3338685"><ele>491.33333333333337</ele><time>2026-04-04T12:04:24.601Z</time></trkpt><trkpt lat="44.6235247" lon="9.3337422"><ele>492.1666666666667</ele><time>2026-04-04T12:04:27.601Z</time></trkpt><trkpt lat="44.6235562" lon="9.3336279"><ele>493.0</ele><time>2026-04-04T12:04:29.601Z</time></trkpt><trkpt lat="44.6236039" lon="9.3334813"><ele>491.50000000000006</ele><time>2026-04-04T12:04:31.6Z</time></trkpt><trkpt lat="44.6236525" lon="9.3333153"><ele>490.0</ele><time>2026-04-04T12:04:33.601Z</time></trkpt><trkpt lat="44.6236848" lon="9.3332259"><ele>488.5</ele><time>2026-04-04T12:04:34.602Z</time></trkpt><trkpt lat="44.623717" lon="9.3331351"><ele>487.0</ele><time>2026-04-04T12:04:35.601Z</time></trkpt><trkpt lat="44.6237475" lon="9.3330403"><ele>485.50000000000006</ele><time>2026-04-04T12:04:36.6Z</time></trkpt><trkpt lat="44.6237737" lon="9.3329423"><ele>484.0</ele><time>2026-04-04T12:04:37.6Z</time></trkpt><trkpt lat="44.6237955" lon="9.3328422"><ele>483.6666666666667</ele><time>2026-04-04T12:04:38.601Z</time></trkpt><trkpt lat="44.6238124" lon="9.3327391"><ele>483.33333333333337</ele><time>2026-04-04T12:04:39.601Z</time></trkpt><trkpt lat="44.6238228" lon="9.3326327"><ele>483.0</ele><time>2026-04-04T12:04:40.601Z</time></trkpt><trkpt lat="44.6238261" lon="9.3325311"><ele>482.66666666666663</ele><time>2026-04-04T12:04:41.601Z</time></trkpt><trkpt lat="44.6238282" lon="9.3324359"><ele>482.3333333333333</ele><time>2026-04-04T12:04:42.6Z</time></trkpt><trkpt lat="44.6238358" lon="9.3322703"><ele>482.0</ele><time>2026-04-04T12:04:44.6Z</time></trkpt><trkpt lat="44.6238733" lon="9.3321166"><ele>481.99999999999994</ele><time>2026-04-04T12:04:46.6Z</time></trkpt><trkpt lat="44.6239062" lon="9.3320309"><ele>482.0</ele><time>2026-04-04T12:04:47.601Z</time></trkpt><trkpt lat="44.6239409" lon="9.3319438"><ele>482.0</ele><time>2026-04-04T12:04:48.601Z</time></trkpt><trkpt lat="44.6239774" lon="9.3318602"><ele>482.0</ele><time>2026-04-04T12:04:49.6Z</time></trkpt><trkpt lat="44.6240116" lon="9.3317844"><ele>481.99999999999994</ele><time>2026-04-04T12:04:50.601Z</time></trkpt><trkpt lat="44.6240633" lon="9.3316557"><ele>482.0</ele><time>2026-04-04T12:04:52.6Z</time></trkpt><trkpt lat="44.6240742" lon="9.3315391"><ele>482.0</ele><time>2026-04-04T12:04:55.601Z</time></trkpt><trkpt lat="44.6240161" lon="9.3314203"><ele>482.00000000000006</ele><time>2026-04-04T12:05:04.601Z</time></trkpt><trkpt lat="44.6239582" lon="9.3313642"><ele>482.00000000000006</ele><time>2026-04-04T12:05:05.601Z</time></trkpt><trkpt lat="44.6238764" lon="9.3313069"><ele>482.0</ele><time>2026-04-04T12:05:06.601Z</time></trkpt><trkpt lat="44.6237753" lon="9.3312518"><ele>482.0</ele><time>2026-04-04T12:05:07.602Z</time></trkpt><trkpt lat="44.6236728" lon="9.3311991"><ele>481.20000000000005</ele><time>2026-04-04T12:05:08.602Z</time></trkpt><trkpt lat="44.6235757" lon="9.3311472"><ele>480.40000000000003</ele><time>2026-04-04T12:05:09.6Z</time></trkpt><trkpt lat="44.623478" lon="9.3310953"><ele>479.59999999999997</ele><time>2026-04-04T12:05:10.601Z</time></trkpt><trkpt lat="44.6233749" lon="9.3310417"><ele>478.79999999999995</ele><time>2026-04-04T12:05:11.602Z</time></trkpt><trkpt lat="44.6232637" lon="9.330981"><ele>478.0</ele><time>2026-04-04T12:05:12.601Z</time></trkpt><trkpt lat="44.6231456" lon="9.3309119"><ele>478.0</ele><time>2026-04-04T12:05:13.601Z</time></trkpt><trkpt lat="44.6230278" lon="9.3308368"><ele>478.0</ele><time>2026-04-04T12:05:14.603Z</time></trkpt><trkpt lat="44.6229156" lon="9.3307634"><ele>478.0</ele><time>2026-04-04T12:05:15.6Z</time></trkpt><trkpt lat="44.622814" lon="9.3306874"><ele>478.0</ele><time>2026-04-04T12:05:16.601Z</time></trkpt><trkpt lat="44.6227216" lon="9.3306165"><ele>479.25</ele><time>2026-04-04T12:05:17.601Z</time></trkpt><trkpt lat="44.6226308" lon="9.3305423"><ele>480.5</ele><time>2026-04-04T12:05:18.601Z</time></trkpt><trkpt lat="44.6225324" lon="9.3304565"><ele>481.75</ele><time>2026-04-04T12:05:19.602Z</time></trkpt><trkpt lat="44.6224251" lon="9.330356"><ele>483.0</ele><time>2026-04-04T12:05:20.602Z</time></trkpt><trkpt lat="44.6223136" lon="9.3302431"><ele>483.0</ele><time>2026-04-04T12:05:21.601Z</time></trkpt><trkpt lat="44.6222098" lon="9.3301258"><ele>483.0</ele><time>2026-04-04T12:05:22.601Z</time></trkpt><trkpt lat="44.622114" lon="9.3300083"><ele>483.0</ele><time>2026-04-04T12:05:23.601Z</time></trkpt><trkpt lat="44.6220266" lon="9.329891"><ele>483.0</ele><time>2026-04-04T12:05:24.601Z</time></trkpt><trkpt lat="44.6219491" lon="9.3297781"><ele>483.59999999999997</ele><time>2026-04-04T12:05:25.605Z</time></trkpt><trkpt lat="44.6218796" lon="9.3296737"><ele>484.19999999999993</ele><time>2026-04-04T12:05:26.601Z</time></trkpt><trkpt lat="44.6218194" lon="9.3295757"><ele>484.8</ele><time>2026-04-04T12:05:27.601Z</time></trkpt><trkpt lat="44.6217704" lon="9.3294838"><ele>485.4</ele><time>2026-04-04T12:05:28.602Z</time></trkpt><trkpt lat="44.6217425" lon="9.3293954"><ele>486.0</ele><time>2026-04-04T12:05:29.602Z</time></trkpt><trkpt lat="44.6217665" lon="9.3292414"><ele>486.0</ele><time>2026-04-04T12:05:31.601Z</time></trkpt><trkpt lat="44.6218018" lon="9.3290913"><ele>486.0</ele><time>2026-04-04T12:05:33.601Z</time></trkpt><trkpt lat="44.6217344" lon="9.3289286"><ele>486.0</ele><time>2026-04-04T12:05:35.601Z</time></trkpt><trkpt lat="44.6216766" lon="9.3288478"><ele>486.0</ele><time>2026-04-04T12:05:36.601Z</time></trkpt><trkpt lat="44.6216255" lon="9.3287727"><ele>486.0</ele><time>2026-04-04T12:05:37.601Z</time></trkpt><trkpt lat="44.6216382" lon="9.3286733"><ele>486.8</ele><time>2026-04-04T12:05:39.601Z</time></trkpt><trkpt lat="44.6217531" lon="9.3286993"><ele>487.6</ele><time>2026-04-04T12:05:41.602Z</time></trkpt><trkpt lat="44.6218396" lon="9.3287467"><ele>488.4</ele><time>2026-04-04T12:05:42.601Z</time></trkpt><trkpt lat="44.6219292" lon="9.3287895"><ele>489.2</ele><time>2026-04-04T12:05:43.601Z</time></trkpt><trkpt lat="44.6220189" lon="9.3288277"><ele>490.0</ele><time>2026-04-04T12:05:44.601Z</time></trkpt><trkpt lat="44.622106" lon="9.3288604"><ele>491.8</ele><time>2026-04-04T12:05:45.601Z</time></trkpt><trkpt lat="44.622187" lon="9.3288903"><ele>493.6</ele><time>2026-04-04T12:05:46.601Z</time></trkpt><trkpt lat="44.6222674" lon="9.3289272"><ele>495.4</ele><time>2026-04-04T12:05:47.602Z</time></trkpt><trkpt lat="44.6223518" lon="9.3289758"><ele>497.2</ele><time>2026-04-04T12:05:48.601Z</time></trkpt><trkpt lat="44.62244" lon="9.3290294"><ele>499.0</ele><time>2026-04-04T12:05:49.601Z</time></trkpt><trkpt lat="44.6225273" lon="9.3290805"><ele>499.00000000000006</ele><time>2026-04-04T12:05:50.602Z</time></trkpt><trkpt lat="44.6226101" lon="9.3291165"><ele>499.0</ele><time>2026-04-04T12:05:51.601Z</time></trkpt><trkpt lat="44.6226876" lon="9.3291319"><ele>499.0</ele><time>2026-04-04T12:05:52.601Z</time></trkpt><trkpt lat="44.6227653" lon="9.329131"><ele>499.0</ele><time>2026-04-04T12:05:53.6Z</time></trkpt><trkpt lat="44.6228418" lon="9.3291142"><ele>499.00000000000006</ele><time>2026-04-04T12:05:54.601Z</time></trkpt><trkpt lat="44.6229125" lon="9.3290867"><ele>499.0</ele><time>2026-04-04T12:05:55.601Z</time></trkpt><trkpt lat="44.622981" lon="9.3290583"><ele>500.33333333333337</ele><time>2026-04-04T12:05:56.602Z</time></trkpt><trkpt lat="44.6230496" lon="9.3290379"><ele>501.6666666666667</ele><time>2026-04-04T12:05:57.601Z</time></trkpt><trkpt lat="44.6231209" lon="9.3290255"><ele>503.0</ele><time>2026-04-04T12:05:58.601Z</time></trkpt><trkpt lat="44.6231955" lon="9.3290183"><ele>504.33333333333337</ele><time>2026-04-04T12:05:59.602Z</time></trkpt><trkpt lat="44.6232817" lon="9.3290267"><ele>505.6666666666667</ele><time>2026-04-04T12:06:00.6Z</time></trkpt><trkpt lat="44.623375" lon="9.329045"><ele>507.0</ele><time>2026-04-04T12:06:01.6Z</time></trkpt><trkpt lat="44.623465" lon="9.3290583"><ele>507.0</ele><time>2026-04-04T12:06:02.601Z</time></trkpt><trkpt lat="44.6235517" lon="9.3290733"><ele>507.0</ele><time>2026-04-04T12:06:03.6Z</time></trkpt><trkpt lat="44.6236267" lon="9.3290767"><ele>507.0</ele><time>2026-04-04T12:06:04.6Z</time></trkpt><trkpt lat="44.62369" lon="9.3290667"><ele>507.0</ele><time>2026-04-04T12:06:05.6Z</time></trkpt><trkpt lat="44.6237083" lon="9.3289667"><ele>507.0</ele><time>2026-04-04T12:06:07.6Z</time></trkpt><trkpt lat="44.62361" lon="9.3288433"><ele>507.0</ele><time>2026-04-04T12:06:09.6Z</time></trkpt><trkpt lat="44.623535" lon="9.328775"><ele>509.8</ele><time>2026-04-04T12:06:10.6Z</time></trkpt><trkpt lat="44.6234617" lon="9.328705"><ele>512.6</ele><time>2026-04-04T12:06:11.599Z</time></trkpt><trkpt lat="44.623385" lon="9.32864"><ele>515.4000000000001</ele><time>2026-04-04T12:06:12.599Z</time></trkpt><trkpt lat="44.6232983" lon="9.328585"><ele>518.2</ele><time>2026-04-04T12:06:13.601Z</time></trkpt><trkpt lat="44.623205" lon="9.3285383"><ele>521.0</ele><time>2026-04-04T12:06:14.6Z</time></trkpt><trkpt lat="44.6231033" lon="9.3285083"><ele>521.0</ele><time>2026-04-04T12:06:15.599Z</time></trkpt><trkpt lat="44.62301" lon="9.3284933"><ele>521.0</ele><time>2026-04-04T12:06:16.6Z</time></trkpt><trkpt lat="44.6229283" lon="9.3284817"><ele>521.0</ele><time>2026-04-04T12:06:17.6Z</time></trkpt><trkpt lat="44.6228517" lon="9.32846"><ele>521.0</ele><time>2026-04-04T12:06:18.601Z</time></trkpt><trkpt lat="44.6227817" lon="9.3284183"><ele>521.0</ele><time>2026-04-04T12:06:19.6Z</time></trkpt><trkpt lat="44.6227217" lon="9.3283433"><ele>521.0</ele><time>2026-04-04T12:06:20.602Z</time></trkpt><trkpt lat="44.6226833" lon="9.3282483"><ele>520.6</ele><time>2026-04-04T12:06:21.6Z</time></trkpt><trkpt lat="44.622665" lon="9.3281283"><ele>520.2</ele><time>2026-04-04T12:06:22.602Z</time></trkpt><trkpt lat="44.6226533" lon="9.3279883"><ele>519.8</ele><time>2026-04-04T12:06:23.6Z</time></trkpt><trkpt lat="44.6226417" lon="9.3278333"><ele>519.4</ele><time>2026-04-04T12:06:24.6Z</time></trkpt><trkpt lat="44.62263" lon="9.3276867"><ele>519.0</ele><time>2026-04-04T12:06:25.6Z</time></trkpt><trkpt lat="44.6226283" lon="9.32755"><ele>519.0</ele><time>2026-04-04T12:06:26.601Z</time></trkpt><trkpt lat="44.6226483" lon="9.327425"><ele>519.0</ele><time>2026-04-04T12:06:27.6Z</time></trkpt><trkpt lat="44.62269" lon="9.3273167"><ele>519.0</ele><time>2026-04-04T12:06:28.6Z</time></trkpt><trkpt lat="44.6227517" lon="9.32722"><ele>519.0</ele><time>2026-04-04T12:06:29.6Z</time></trkpt><trkpt lat="44.6228317" lon="9.3271367"><ele>519.0</ele><time>2026-04-04T12:06:30.6Z</time></trkpt><trkpt lat="44.6229167" lon="9.3270617"><ele>524.1666666666666</ele><time>2026-04-04T12:06:31.601Z</time></trkpt><trkpt lat="44.6229933" lon="9.326985"><ele>529.3333333333334</ele><time>2026-04-04T12:06:32.602Z</time></trkpt><trkpt lat="44.6230617" lon="9.3268983"><ele>534.5</ele><time>2026-04-04T12:06:33.6Z</time></trkpt><trkpt lat="44.62313" lon="9.3268217"><ele>539.6666666666667</ele><time>2026-04-04T12:06:34.599Z</time></trkpt><trkpt lat="44.6231967" lon="9.326795"><ele>544.8333333333334</ele><time>2026-04-04T12:06:35.6Z</time></trkpt><trkpt lat="44.6232633" lon="9.32681"><ele>550.0</ele><time>2026-04-04T12:06:36.6Z</time></trkpt><trkpt lat="44.6233417" lon="9.326885"><ele>550.0</ele><time>2026-04-04T12:06:37.601Z</time></trkpt><trkpt lat="44.6234217" lon="9.3269817"><ele>550.0</ele><time>2026-04-04T12:06:38.6Z</time></trkpt><trkpt lat="44.6235067" lon="9.3270833"><ele>550.0</ele><time>2026-04-04T12:06:39.599Z</time></trkpt><trkpt lat="44.623595" lon="9.327175"><ele>550.0</ele><time>2026-04-04T12:06:40.599Z</time></trkpt><trkpt lat="44.6236817" lon="9.3272533"><ele>550.0</ele><time>2026-04-04T12:06:41.6Z</time></trkpt><trkpt lat="44.6237683" lon="9.32733"><ele>551.6</ele><time>2026-04-04T12:06:42.599Z</time></trkpt><trkpt lat="44.6238533" lon="9.3274167"><ele>553.2</ele><time>2026-04-04T12:06:43.6Z</time></trkpt><trkpt lat="44.6239333" lon="9.3275167"><ele>554.8</ele><time>2026-04-04T12:06:44.6Z</time></trkpt><trkpt lat="44.6240033" lon="9.3276217"><ele>556.4</ele><time>2026-04-04T12:06:45.6Z</time></trkpt><trkpt lat="44.62407" lon="9.32772"><ele>558.0</ele><time>2026-04-04T12:06:46.6Z</time></trkpt><trkpt lat="44.6241333" lon="9.3278117"><ele>558.0</ele><time>2026-04-04T12:06:47.6Z</time></trkpt><trkpt lat="44.6241933" lon="9.3278883"><ele>558.0</ele><time>2026-04-04T12:06:48.601Z</time></trkpt><trkpt lat="44.6242483" lon="9.3279567"><ele>558.0</ele><time>2026-04-04T12:06:49.599Z</time></trkpt><trkpt lat="44.6243017" lon="9.32803"><ele>558.0</ele><time>2026-04-04T12:06:50.6Z</time></trkpt><trkpt lat="44.6243467" lon="9.32812"><ele>558.0</ele><time>2026-04-04T12:06:51.601Z</time></trkpt><trkpt lat="44.624385" lon="9.3282317"><ele>558.0</ele><time>2026-04-04T12:06:52.599Z</time></trkpt><trkpt lat="44.624425" lon="9.328355"><ele>555.1999999999999</ele><time>2026-04-04T12:06:53.6Z</time></trkpt><trkpt lat="44.62447" lon="9.3284817"><ele>552.4</ele><time>2026-04-04T12:06:54.6Z</time></trkpt><trkpt lat="44.6245167" lon="9.3286133"><ele>549.5999999999999</ele><time>2026-04-04T12:06:55.599Z</time></trkpt><trkpt lat="44.6245567" lon="9.3287433"><ele>546.8</ele><time>2026-04-04T12:06:56.601Z</time></trkpt><trkpt lat="44.6245833" lon="9.3288617"><ele>544.0</ele><time>2026-04-04T12:06:57.6Z</time></trkpt><trkpt lat="44.6246083" lon="9.32896"><ele>549.8333333333334</ele><time>2026-04-04T12:06:58.601Z</time></trkpt><trkpt lat="44.624635" lon="9.3290417"><ele>555.6666666666667</ele><time>2026-04-04T12:06:59.599Z</time></trkpt><trkpt lat="44.6246567" lon="9.3289067"><ele>561.5</ele><time>2026-04-04T12:07:03.599Z</time></trkpt><trkpt lat="44.6246333" lon="9.3287967"><ele>567.3333333333334</ele><time>2026-04-04T12:07:04.599Z</time></trkpt><trkpt lat="44.6246133" lon="9.3286767"><ele>573.1666666666666</ele><time>2026-04-04T12:07:05.601Z</time></trkpt><trkpt lat="44.6245933" lon="9.3285533"><ele>579.0</ele><time>2026-04-04T12:07:06.6Z</time></trkpt><trkpt lat="44.624575" lon="9.3284283"><ele>581.0</ele><time>2026-04-04T12:07:07.601Z</time></trkpt><trkpt lat="44.6245567" lon="9.3282967"><ele>583.0</ele><time>2026-04-04T12:07:08.599Z</time></trkpt><trkpt lat="44.6245483" lon="9.328165"><ele>585.0</ele><time>2026-04-04T12:07:09.6Z</time></trkpt><trkpt lat="44.62455" lon="9.3280433"><ele>587.0</ele><time>2026-04-04T12:07:10.601Z</time></trkpt><trkpt lat="44.62455" lon="9.3279383"><ele>589.0</ele><time>2026-04-04T12:07:11.6Z</time></trkpt><trkpt lat="44.62454" lon="9.3278383"><ele>591.0</ele><time>2026-04-04T12:07:12.599Z</time></trkpt><trkpt lat="44.6245167" lon="9.32774"><ele>593.1666666666666</ele><time>2026-04-04T12:07:13.599Z</time></trkpt><trkpt lat="44.6244817" lon="9.3276417"><ele>595.3333333333334</ele><time>2026-04-04T12:07:14.6Z</time></trkpt><trkpt lat="44.6244417" lon="9.3275517"><ele>597.5</ele><time>2026-04-04T12:07:15.601Z</time></trkpt><trkpt lat="44.6243967" lon="9.32745"><ele>599.6666666666667</ele><time>2026-04-04T12:07:17.6Z</time></trkpt><trkpt lat="44.624385" lon="9.327335"><ele>601.8333333333334</ele><time>2026-04-04T12:07:45.599Z</time></trkpt><trkpt lat="44.6243517" lon="9.3272433"><ele>604.0</ele><time>2026-04-04T12:07:47.599Z</time></trkpt><trkpt lat="44.624305" lon="9.3270967"><ele>599.6666666666667</ele><time>2026-04-04T12:07:49.6Z</time></trkpt><trkpt lat="44.6242633" lon="9.3270067"><ele>595.3333333333334</ele><time>2026-04-04T12:07:50.6Z</time></trkpt><trkpt lat="44.6242117" lon="9.3269217"><ele>591.0</ele><time>2026-04-04T12:07:51.6Z</time></trkpt><trkpt lat="44.6241567" lon="9.3268433"><ele>586.6666666666666</ele><time>2026-04-04T12:07:52.6Z</time></trkpt><trkpt lat="44.6240967" lon="9.3267533"><ele>582.3333333333333</ele><time>2026-04-04T12:07:53.6Z</time></trkpt><trkpt lat="44.6240333" lon="9.326655"><ele>578.0</ele><time>2026-04-04T12:07:54.599Z</time></trkpt><trkpt lat="44.6239633" lon="9.32655"><ele>578.0</ele><time>2026-04-04T12:07:55.599Z</time></trkpt><trkpt lat="44.6238967" lon="9.32644"><ele>578.0</ele><time>2026-04-04T12:07:56.6Z</time></trkpt><trkpt lat="44.6238267" lon="9.3263333"><ele>578.0</ele><time>2026-04-04T12:07:57.6Z</time></trkpt><trkpt lat="44.6237467" lon="9.32623"><ele>578.0</ele><time>2026-04-04T12:07:58.599Z</time></trkpt><trkpt lat="44.6236533" lon="9.326135"><ele>578.0</ele><time>2026-04-04T12:07:59.599Z</time></trkpt><trkpt lat="44.6235533" lon="9.3260417"><ele>577.1999999999999</ele><time>2026-04-04T12:08:00.6Z</time></trkpt><trkpt lat="44.6234533" lon="9.3259583"><ele>576.4</ele><time>2026-04-04T12:08:01.6Z</time></trkpt><trkpt lat="44.62336" lon="9.3258833"><ele>575.5999999999999</ele><time>2026-04-04T12:08:02.601Z</time></trkpt><trkpt lat="44.62328" lon="9.3258167"><ele>574.8</ele><time>2026-04-04T12:08:03.6Z</time></trkpt><trkpt lat="44.6232133" lon="9.3257633"><ele>574.0</ele><time>2026-04-04T12:08:04.601Z</time></trkpt><trkpt lat="44.6231633" lon="9.3257033"><ele>573.2</ele><time>2026-04-04T12:08:05.601Z</time></trkpt><trkpt lat="44.6231333" lon="9.32556"><ele>572.4</ele><time>2026-04-04T12:08:07.602Z</time></trkpt><trkpt lat="44.6232283" lon="9.3254883"><ele>571.6</ele><time>2026-04-04T12:08:09.601Z</time></trkpt><trkpt lat="44.6232967" lon="9.3254817"><ele>570.8</ele><time>2026-04-04T12:08:10.601Z</time></trkpt><trkpt lat="44.6233833" lon="9.3254933"><ele>570.0</ele><time>2026-04-04T12:08:11.6Z</time></trkpt><trkpt lat="44.6234917" lon="9.3255183"><ele>570.0</ele><time>2026-04-04T12:08:12.6Z</time></trkpt><trkpt lat="44.6236083" lon="9.3255467"><ele>570.0</ele><time>2026-04-04T12:08:13.601Z</time></trkpt><trkpt lat="44.6237267" lon="9.3255917"><ele>570.0</ele><time>2026-04-04T12:08:14.601Z</time></trkpt><trkpt lat="44.6238467" lon="9.3256567"><ele>570.0</ele><time>2026-04-04T12:08:15.601Z</time></trkpt><trkpt lat="44.6239617" lon="9.32572"><ele>572.2</ele><time>2026-04-04T12:08:16.599Z</time></trkpt><trkpt lat="44.6240617" lon="9.3257783"><ele>574.4</ele><time>2026-04-04T12:08:17.601Z</time></trkpt><trkpt lat="44.624155" lon="9.32584"><ele>576.6</ele><time>2026-04-04T12:08:18.601Z</time></trkpt><trkpt lat="44.6242417" lon="9.32589"><ele>578.8</ele><time>2026-04-04T12:08:19.6Z</time></trkpt><trkpt lat="44.6243233" lon="9.3259267"><ele>581.0</ele><time>2026-04-04T12:08:20.601Z</time></trkpt><trkpt lat="44.6244033" lon="9.325945"><ele>583.8</ele><time>2026-04-04T12:08:21.599Z</time></trkpt><trkpt lat="44.62448" lon="9.3259483"><ele>586.6</ele><time>2026-04-04T12:08:22.601Z</time></trkpt><trkpt lat="44.62456" lon="9.325935"><ele>589.4</ele><time>2026-04-04T12:08:23.6Z</time></trkpt><trkpt lat="44.62465" lon="9.3259117"><ele>592.2</ele><time>2026-04-04T12:08:24.601Z</time></trkpt><trkpt lat="44.62475" lon="9.32589"><ele>595.0</ele><time>2026-04-04T12:08:25.6Z</time></trkpt><trkpt lat="44.6248517" lon="9.32587"><ele>595.0</ele><time>2026-04-04T12:08:26.601Z</time></trkpt><trkpt lat="44.624945" lon="9.3258317"><ele>595.0</ele><time>2026-04-04T12:08:27.599Z</time></trkpt><trkpt lat="44.625025" lon="9.3257633"><ele>595.0</ele><time>2026-04-04T12:08:28.6Z</time></trkpt><trkpt lat="44.6250983" lon="9.3256783"><ele>595.0</ele><time>2026-04-04T12:08:29.602Z</time></trkpt><trkpt lat="44.6251733" lon="9.32559"><ele>595.0</ele><time>2026-04-04T12:08:30.599Z</time></trkpt><trkpt lat="44.625255" lon="9.32551"><ele>596.0</ele><time>2026-04-04T12:08:31.6Z</time></trkpt><trkpt lat="44.62535" lon="9.3254417"><ele>597.0</ele><time>2026-04-04T12:08:32.6Z</time></trkpt><trkpt lat="44.625455" lon="9.32538"><ele>598.0</ele><time>2026-04-04T12:08:33.6Z</time></trkpt><trkpt lat="44.62557" lon="9.32532"><ele>599.0</ele><time>2026-04-04T12:08:34.6Z</time></trkpt><trkpt lat="44.6256817" lon="9.32526"><ele>599.0</ele><time>2026-04-04T12:08:35.599Z</time></trkpt><trkpt lat="44.6257883" lon="9.3252"><ele>599.0</ele><time>2026-04-04T12:08:36.6Z</time></trkpt><trkpt lat="44.6258867" lon="9.32514"><ele>599.0</ele><time>2026-04-04T12:08:37.601Z</time></trkpt><trkpt lat="44.6259783" lon="9.3250833"><ele>599.0</ele><time>2026-04-04T12:08:38.601Z</time></trkpt><trkpt lat="44.62606" lon="9.325025"><ele>599.0</ele><time>2026-04-04T12:08:39.599Z</time></trkpt><trkpt lat="44.6261367" lon="9.3249667"><ele>599.8333333333333</ele><time>2026-04-04T12:08:40.602Z</time></trkpt><trkpt lat="44.6262083" lon="9.3249067"><ele>600.6666666666666</ele><time>2026-04-04T12:08:41.6Z</time></trkpt><trkpt lat="44.62627" lon="9.32484"><ele>601.5</ele><time>2026-04-04T12:08:42.601Z</time></trkpt><trkpt lat="44.6263133" lon="9.32477"><ele>602.3333333333334</ele><time>2026-04-04T12:08:43.6Z</time></trkpt><trkpt lat="44.6263833" lon="9.3246433"><ele>603.1666666666667</ele><time>2026-04-04T12:08:45.6Z</time></trkpt><trkpt lat="44.626475" lon="9.3245883"><ele>604.0</ele><time>2026-04-04T12:08:47.601Z</time></trkpt><trkpt lat="44.6265433" lon="9.324595"><ele>604.0</ele><time>2026-04-04T12:08:48.601Z</time></trkpt><trkpt lat="44.6266133" lon="9.32461"><ele>604.0</ele><time>2026-04-04T12:08:49.6Z</time></trkpt><trkpt lat="44.6266883" lon="9.3246333"><ele>604.0</ele><time>2026-04-04T12:08:50.602Z</time></trkpt><trkpt lat="44.6267567" lon="9.3246683"><ele>604.0</ele><time>2026-04-04T12:08:51.599Z</time></trkpt><trkpt lat="44.6268133" lon="9.3247217"><ele>604.0</ele><time>2026-04-04T12:08:52.6Z</time></trkpt><trkpt lat="44.6268567" lon="9.3247933"><ele>604.0</ele><time>2026-04-04T12:08:53.6Z</time></trkpt><trkpt lat="44.6269" lon="9.324945"><ele>605.0</ele><time>2026-04-04T12:08:55.601Z</time></trkpt><trkpt lat="44.6269467" lon="9.32505"><ele>606.0</ele><time>2026-04-04T12:08:57.599Z</time></trkpt><trkpt lat="44.6270133" lon="9.32505"><ele>607.0</ele><time>2026-04-04T12:08:59.599Z</time></trkpt><trkpt lat="44.6270833" lon="9.3250883"><ele>608.0</ele><time>2026-04-04T12:09:01.601Z</time></trkpt><trkpt lat="44.6271517" lon="9.32511"><ele>609.0</ele><time>2026-04-04T12:09:03.6Z</time></trkpt><trkpt lat="44.62732" lon="9.32503"><ele>612.6</ele><time>2026-04-04T12:09:07.599Z</time></trkpt><trkpt lat="44.6274333" lon="9.32505"><ele>616.2</ele><time>2026-04-04T12:09:09.6Z</time></trkpt><trkpt lat="44.6275267" lon="9.3250367"><ele>619.8000000000001</ele><time>2026-04-04T12:09:11.6Z</time></trkpt><trkpt lat="44.6275983" lon="9.3249517"><ele>623.4</ele><time>2026-04-04T12:09:13.601Z</time></trkpt><trkpt lat="44.627675" lon="9.3248583"><ele>627.0</ele><time>2026-04-04T12:09:15.602Z</time></trkpt><trkpt lat="44.6277617" lon="9.32482"><ele>631.5</ele><time>2026-04-04T12:09:17.601Z</time></trkpt><trkpt lat="44.6278733" lon="9.324855"><ele>636.0</ele><time>2026-04-04T12:09:19.6Z</time></trkpt><trkpt lat="44.627945" lon="9.324975"><ele>640.5</ele><time>2026-04-04T12:09:21.601Z</time></trkpt><trkpt lat="44.62798" lon="9.32507"><ele>645.0</ele><time>2026-04-04T12:09:22.601Z</time></trkpt><trkpt lat="44.6280183" lon="9.3251533"><ele>649.5</ele><time>2026-04-04T12:09:23.6Z</time></trkpt><trkpt lat="44.6280567" lon="9.3252283"><ele>654.0</ele><time>2026-04-04T12:09:24.599Z</time></trkpt><trkpt lat="44.6281067" lon="9.3253133"><ele>654.0</ele><time>2026-04-04T12:09:25.601Z</time></trkpt><trkpt lat="44.6281583" lon="9.3253967"><ele>654.0</ele><time>2026-04-04T12:09:26.601Z</time></trkpt><trkpt lat="44.62821" lon="9.3254717"><ele>654.0</ele><time>2026-04-04T12:09:27.601Z</time></trkpt><trkpt lat="44.62826" lon="9.3255383"><ele>654.0</ele><time>2026-04-04T12:09:28.601Z</time></trkpt><trkpt lat="44.6283117" lon="9.3256033"><ele>654.0</ele><time>2026-04-04T12:09:29.601Z</time></trkpt><trkpt lat="44.6283683" lon="9.325665"><ele>654.0</ele><time>2026-04-04T12:09:30.6Z</time></trkpt><trkpt lat="44.6284267" lon="9.3257367"><ele>654.0</ele><time>2026-04-04T12:09:31.601Z</time></trkpt><trkpt lat="44.6284817" lon="9.32581"><ele>655.0</ele><time>2026-04-04T12:09:32.602Z</time></trkpt><trkpt lat="44.62854" lon="9.3258683"><ele>656.0</ele><time>2026-04-04T12:09:33.601Z</time></trkpt><trkpt lat="44.6286461" lon="9.3259332"><ele>657.0</ele><time>2026-04-04T12:09:35.6Z</time></trkpt><trkpt lat="44.628771" lon="9.325967"><ele>658.0</ele><time>2026-04-04T12:09:37.6Z</time></trkpt><trkpt lat="44.6288956" lon="9.3259974"><ele>659.0</ele><time>2026-04-04T12:09:39.601Z</time></trkpt><trkpt lat="44.6289683" lon="9.3260113"><ele>661.4000000000001</ele><time>2026-04-04T12:09:40.601Z</time></trkpt><trkpt lat="44.6290411" lon="9.326026"><ele>663.8</ele><time>2026-04-04T12:09:41.602Z</time></trkpt><trkpt lat="44.6291609" lon="9.3260439"><ele>666.2</ele><time>2026-04-04T12:09:43.601Z</time></trkpt><trkpt lat="44.6292665" lon="9.3260498"><ele>668.5999999999999</ele><time>2026-04-04T12:09:45.6Z</time></trkpt><trkpt lat="44.6293384" lon="9.3260183"><ele>671.0</ele><time>2026-04-04T12:09:47.601Z</time></trkpt><trkpt lat="44.6293737" lon="9.3259093"><ele>671.0</ele><time>2026-04-04T12:09:49.602Z</time></trkpt><trkpt lat="44.6294337" lon="9.325794"><ele>671.0</ele><time>2026-04-04T12:09:51.601Z</time></trkpt><trkpt lat="44.6294682" lon="9.3256365"><ele>671.0</ele><time>2026-04-04T12:09:53.601Z</time></trkpt><trkpt lat="44.6294695" lon="9.3254642"><ele>671.0</ele><time>2026-04-04T12:09:55.6Z</time></trkpt><trkpt lat="44.6294932" lon="9.3252979"><ele>671.1666666666666</ele><time>2026-04-04T12:09:57.601Z</time></trkpt><trkpt lat="44.6295137" lon="9.3252049"><ele>671.3333333333333</ele><time>2026-04-04T12:09:58.6Z</time></trkpt><trkpt lat="44.6295342" lon="9.3251075"><ele>671.5</ele><time>2026-04-04T12:09:59.601Z</time></trkpt><trkpt lat="44.6295527" lon="9.3250228"><ele>671.6666666666666</ele><time>2026-04-04T12:10:00.6Z</time></trkpt><trkpt lat="44.6295598" lon="9.3248816"><ele>671.8333333333334</ele><time>2026-04-04T12:10:02.601Z</time></trkpt><trkpt lat="44.6295861" lon="9.3247707"><ele>672.0</ele><time>2026-04-04T12:10:04.601Z</time></trkpt><trkpt lat="44.629607" lon="9.3246312"><ele>676.8</ele><time>2026-04-04T12:10:06.599Z</time></trkpt><trkpt lat="44.6296443" lon="9.3245038"><ele>681.6</ele><time>2026-04-04T12:10:08.602Z</time></trkpt><trkpt lat="44.6297156" lon="9.3243613"><ele>686.4</ele><time>2026-04-04T12:10:10.603Z</time></trkpt><trkpt lat="44.6297389" lon="9.3242772"><ele>691.1999999999999</ele><time>2026-04-04T12:10:11.601Z</time></trkpt><trkpt lat="44.6297447" lon="9.3241095"><ele>696.0</ele><time>2026-04-04T12:10:13.6Z</time></trkpt><trkpt lat="44.6297533" lon="9.3239594"><ele>699.1666666666666</ele><time>2026-04-04T12:10:15.599Z</time></trkpt><trkpt lat="44.6297992" lon="9.3238518"><ele>702.3333333333334</ele><time>2026-04-04T12:10:17.6Z</time></trkpt><trkpt lat="44.6298702" lon="9.3238159"><ele>705.5</ele><time>2026-04-04T12:10:19.601Z</time></trkpt><trkpt lat="44.6299435" lon="9.323746"><ele>708.6666666666667</ele><time>2026-04-04T12:10:22.601Z</time></trkpt><trkpt lat="44.6300125" lon="9.3236839"><ele>711.8333333333334</ele><time>2026-04-04T12:10:24.6Z</time></trkpt><trkpt lat="44.630082" lon="9.3235633"><ele>715.0</ele><time>2026-04-04T12:10:26.601Z</time></trkpt><trkpt lat="44.630161" lon="9.3234296"><ele>715.0</ele><time>2026-04-04T12:10:28.601Z</time></trkpt><trkpt lat="44.630204" lon="9.3233564"><ele>715.0</ele><time>2026-04-04T12:10:29.601Z</time></trkpt><trkpt lat="44.6302422" lon="9.3232854"><ele>715.0</ele><time>2026-04-04T12:10:30.6Z</time></trkpt><trkpt lat="44.6302999" lon="9.3231508"><ele>715.0</ele><time>2026-04-04T12:10:32.601Z</time></trkpt><trkpt lat="44.6303233" lon="9.3229946"><ele>715.0</ele><time>2026-04-04T12:10:34.6Z</time></trkpt><trkpt lat="44.630346" lon="9.3228522"><ele>717.5</ele><time>2026-04-04T12:10:36.601Z</time></trkpt><trkpt lat="44.6303878" lon="9.3226958"><ele>720.0</ele><time>2026-04-04T12:10:38.602Z</time></trkpt><trkpt lat="44.630423" lon="9.3226223"><ele>722.5</ele><time>2026-04-04T12:10:39.6Z</time></trkpt><trkpt lat="44.6304615" lon="9.3225415"><ele>725.0</ele><time>2026-04-04T12:10:40.601Z</time></trkpt><trkpt lat="44.6305016" lon="9.3224543"><ele>727.5</ele><time>2026-04-04T12:10:41.601Z</time></trkpt><trkpt lat="44.6305336" lon="9.3223682"><ele>730.0</ele><time>2026-04-04T12:10:42.601Z</time></trkpt><trkpt lat="44.630555" lon="9.3222792"><ele>733.6666666666667</ele><time>2026-04-04T12:10:43.6Z</time></trkpt><trkpt lat="44.6305755" lon="9.3221944"><ele>737.3333333333334</ele><time>2026-04-04T12:10:44.6Z</time></trkpt><trkpt lat="44.6306565" lon="9.3220519"><ele>741.0</ele><time>2026-04-04T12:10:46.601Z</time></trkpt><trkpt lat="44.6307141" lon="9.3219911"><ele>744.6666666666666</ele><time>2026-04-04T12:10:47.601Z</time></trkpt><trkpt lat="44.6307755" lon="9.3219242"><ele>748.3333333333333</ele><time>2026-04-04T12:10:48.6Z</time></trkpt><trkpt lat="44.6308345" lon="9.3218553"><ele>752.0</ele><time>2026-04-04T12:10:49.602Z</time></trkpt><trkpt lat="44.6308802" lon="9.3217856"><ele>752.0</ele><time>2026-04-04T12:10:50.601Z</time></trkpt><trkpt lat="44.6309211" lon="9.3216491"><ele>752.0</ele><time>2026-04-04T12:10:52.6Z</time></trkpt><trkpt lat="44.6308978" lon="9.3215168"><ele>752.0</ele><time>2026-04-04T12:10:54.6Z</time></trkpt><trkpt lat="44.6308752" lon="9.3214"><ele>752.0</ele><time>2026-04-04T12:10:56.602Z</time></trkpt><trkpt lat="44.6308981" lon="9.3212538"><ele>752.0</ele><time>2026-04-04T12:10:58.601Z</time></trkpt><trkpt lat="44.6309123" lon="9.3211616"><ele>753.0</ele><time>2026-04-04T12:10:59.601Z</time></trkpt><trkpt lat="44.6309337" lon="9.321074"><ele>754.0</ele><time>2026-04-04T12:11:00.601Z</time></trkpt><trkpt lat="44.6309628" lon="9.3209888"><ele>755.0</ele><time>2026-04-04T12:11:01.6Z</time></trkpt><trkpt lat="44.6309991" lon="9.3209074"><ele>756.0</ele><time>2026-04-04T12:11:02.601Z</time></trkpt><trkpt lat="44.6310401" lon="9.3208251"><ele>757.0</ele><time>2026-04-04T12:11:03.601Z</time></trkpt><trkpt lat="44.6310843" lon="9.3207329"><ele>758.0</ele><time>2026-04-04T12:11:04.6Z</time></trkpt><trkpt lat="44.631131" lon="9.3206362"><ele>759.0</ele><time>2026-04-04T12:11:05.601Z</time></trkpt><trkpt lat="44.6311747" lon="9.3205416"><ele>761.0</ele><time>2026-04-04T12:11:06.599Z</time></trkpt><trkpt lat="44.6312086" lon="9.3204591"><ele>763.0</ele><time>2026-04-04T12:11:07.601Z</time></trkpt><trkpt lat="44.6312682" lon="9.3203374"><ele>765.0</ele><time>2026-04-04T12:11:09.602Z</time></trkpt><trkpt lat="44.6313497" lon="9.3202224"><ele>767.0</ele><time>2026-04-04T12:11:11.6Z</time></trkpt><trkpt lat="44.6314053" lon="9.3201476"><ele>769.0</ele><time>2026-04-04T12:11:12.601Z</time></trkpt><trkpt lat="44.631466" lon="9.3200659"><ele>771.0</ele><time>2026-04-04T12:11:13.601Z</time></trkpt><trkpt lat="44.6315258" lon="9.3199801"><ele>771.0</ele><time>2026-04-04T12:11:14.601Z</time></trkpt><trkpt lat="44.63158" lon="9.3198925"><ele>771.0</ele><time>2026-04-04T12:11:15.599Z</time></trkpt><trkpt lat="44.6316199" lon="9.3198064"><ele>771.0</ele><time>2026-04-04T12:11:16.602Z</time></trkpt><trkpt lat="44.6316506" lon="9.3197258"><ele>771.0</ele><time>2026-04-04T12:11:17.6Z</time></trkpt><trkpt lat="44.6317252" lon="9.3195984"><ele>771.0</ele><time>2026-04-04T12:11:19.601Z</time></trkpt><trkpt lat="44.6317865" lon="9.3195518"><ele>771.0</ele><time>2026-04-04T12:11:20.601Z</time></trkpt><trkpt lat="44.631847" lon="9.3195188"><ele>770.5999999999999</ele><time>2026-04-04T12:11:21.601Z</time></trkpt><trkpt lat="44.6319434" lon="9.3194322"><ele>770.2</ele><time>2026-04-04T12:11:23.601Z</time></trkpt><trkpt lat="44.6320041" lon="9.3193094"><ele>769.8</ele><time>2026-04-04T12:11:25.601Z</time></trkpt><trkpt lat="44.6320328" lon="9.3192024"><ele>769.4000000000001</ele><time>2026-04-04T12:11:27.601Z</time></trkpt><trkpt lat="44.6320474" lon="9.3191034"><ele>769.0</ele><time>2026-04-04T12:11:29.601Z</time></trkpt><trkpt lat="44.6320393" lon="9.3189591"><ele>774.6</ele><time>2026-04-04T12:11:31.601Z</time></trkpt><trkpt lat="44.6320446" lon="9.3188013"><ele>780.2</ele><time>2026-04-04T12:11:33.601Z</time></trkpt><trkpt lat="44.6320546" lon="9.318644"><ele>785.8000000000001</ele><time>2026-04-04T12:11:35.601Z</time></trkpt><trkpt lat="44.6320699" lon="9.3184891"><ele>791.4000000000001</ele><time>2026-04-04T12:11:37.6Z</time></trkpt><trkpt lat="44.632054" lon="9.3183334"><ele>797.0</ele><time>2026-04-04T12:11:39.601Z</time></trkpt><trkpt lat="44.6320407" lon="9.3181698"><ele>797.5000000000001</ele><time>2026-04-04T12:11:41.601Z</time></trkpt><trkpt lat="44.6320324" lon="9.3179983"><ele>798.0</ele><time>2026-04-04T12:11:43.601Z</time></trkpt><trkpt lat="44.6320172" lon="9.3179076"><ele>798.5</ele><time>2026-04-04T12:11:44.601Z</time></trkpt><trkpt lat="44.6319525" lon="9.3177607"><ele>799.0</ele><time>2026-04-04T12:11:46.601Z</time></trkpt><trkpt lat="44.6319" lon="9.3176933"><ele>799.5000000000001</ele><time>2026-04-04T12:11:47.601Z</time></trkpt><trkpt lat="44.6318483" lon="9.317635"><ele>800.0</ele><time>2026-04-04T12:11:48.6Z</time></trkpt><trkpt lat="44.631795" lon="9.3175867"><ele>800.0</ele><time>2026-04-04T12:11:49.6Z</time></trkpt><trkpt lat="44.6317183" lon="9.31754"><ele>800.0</ele><time>2026-04-04T12:11:50.601Z</time></trkpt><trkpt lat="44.631635" lon="9.3175"><ele>800.0</ele><time>2026-04-04T12:11:51.601Z</time></trkpt><trkpt lat="44.6315583" lon="9.3174633"><ele>800.0</ele><time>2026-04-04T12:11:52.601Z</time></trkpt><trkpt lat="44.6314833" lon="9.3174317"><ele>800.0</ele><time>2026-04-04T12:11:53.602Z</time></trkpt><trkpt lat="44.631355" lon="9.317365"><ele>800.0</ele><time>2026-04-04T12:11:55.6Z</time></trkpt><trkpt lat="44.6312867" lon="9.3173167"><ele>800.0</ele><time>2026-04-04T12:11:56.602Z</time></trkpt><trkpt lat="44.631205" lon="9.317185"><ele>800.0</ele><time>2026-04-04T12:11:58.6Z</time></trkpt><trkpt lat="44.6311733" lon="9.3171083"><ele>800.0</ele><time>2026-04-04T12:11:59.602Z</time></trkpt><trkpt lat="44.63112" lon="9.3169667"><ele>800.0</ele><time>2026-04-04T12:12:01.599Z</time></trkpt><trkpt lat="44.631105" lon="9.3167883"><ele>800.0000000000001</ele><time>2026-04-04T12:12:03.601Z</time></trkpt><trkpt lat="44.6310933" lon="9.31667"><ele>800.0</ele><time>2026-04-04T12:12:04.601Z</time></trkpt><trkpt lat="44.6310817" lon="9.316565"><ele>800.0</ele><time>2026-04-04T12:12:05.602Z</time></trkpt><trkpt lat="44.631065" lon="9.3164567"><ele>800.0</ele><time>2026-04-04T12:12:06.601Z</time></trkpt><trkpt lat="44.6310433" lon="9.316355"><ele>800.0000000000001</ele><time>2026-04-04T12:12:07.601Z</time></trkpt><trkpt lat="44.63102" lon="9.3162667"><ele>800.0</ele><time>2026-04-04T12:12:08.602Z</time></trkpt><trkpt lat="44.6310017" lon="9.3161483"><ele>801.8333333333334</ele><time>2026-04-04T12:12:10.6Z</time></trkpt><trkpt lat="44.63101" lon="9.3160583"><ele>803.6666666666667</ele><time>2026-04-04T12:13:13.6Z</time></trkpt><trkpt lat="44.63109" lon="9.3161117"><ele>805.5</ele><time>2026-04-04T12:13:15.6Z</time></trkpt><trkpt lat="44.63119" lon="9.3161567"><ele>807.3333333333333</ele><time>2026-04-04T12:13:17.599Z</time></trkpt><trkpt lat="44.6312467" lon="9.3162"><ele>809.1666666666666</ele><time>2026-04-04T12:13:18.599Z</time></trkpt><trkpt lat="44.6312983" lon="9.3162533"><ele>811.0</ele><time>2026-04-04T12:13:19.601Z</time></trkpt><trkpt lat="44.6314067" lon="9.3163517"><ele>812.2857142857142</ele><time>2026-04-04T12:13:21.599Z</time></trkpt><trkpt lat="44.6314733" lon="9.316385"><ele>813.5714285714287</ele><time>2026-04-04T12:13:22.601Z</time></trkpt><trkpt lat="44.63154" lon="9.31641"><ele>814.8571428571429</ele><time>2026-04-04T12:13:23.6Z</time></trkpt><trkpt lat="44.6316033" lon="9.3164433"><ele>816.1428571428571</ele><time>2026-04-04T12:13:24.601Z</time></trkpt><trkpt lat="44.6316633" lon="9.3164883"><ele>817.4285714285713</ele><time>2026-04-04T12:13:25.601Z</time></trkpt><trkpt lat="44.6317207" lon="9.3165377"><ele>818.7142857142858</ele><time>2026-04-04T12:13:26.602Z</time></trkpt><trkpt lat="44.6317783" lon="9.3165974"><ele>820.0</ele><time>2026-04-04T12:13:27.601Z</time></trkpt><trkpt lat="44.6318391" lon="9.3166545"><ele>819.9999999999999</ele><time>2026-04-04T12:13:28.601Z</time></trkpt><trkpt lat="44.6319052" lon="9.3167131"><ele>820.0</ele><time>2026-04-04T12:13:29.6Z</time></trkpt><trkpt lat="44.6319724" lon="9.3167771"><ele>820.0</ele><time>2026-04-04T12:13:30.6Z</time></trkpt><trkpt lat="44.6320383" lon="9.3168413"><ele>820.0</ele><time>2026-04-04T12:13:31.6Z</time></trkpt><trkpt lat="44.6321203" lon="9.316901"><ele>819.9999999999999</ele><time>2026-04-04T12:13:32.6Z</time></trkpt><trkpt lat="44.6322137" lon="9.3169512"><ele>820.0</ele><time>2026-04-04T12:13:33.6Z</time></trkpt><trkpt lat="44.6323023" lon="9.3169954"><ele>822.4999999999999</ele><time>2026-04-04T12:13:34.599Z</time></trkpt><trkpt lat="44.6323875" lon="9.3170234"><ele>825.0</ele><time>2026-04-04T12:13:35.6Z</time></trkpt><trkpt lat="44.632461" lon="9.3170185"><ele>827.5</ele><time>2026-04-04T12:13:36.601Z</time></trkpt><trkpt lat="44.6325318" lon="9.3169969"><ele>830.0</ele><time>2026-04-04T12:13:37.601Z</time></trkpt><trkpt lat="44.6326151" lon="9.3169634"><ele>832.4999999999999</ele><time>2026-04-04T12:13:38.601Z</time></trkpt><trkpt lat="44.6327057" lon="9.3169164"><ele>835.0</ele><time>2026-04-04T12:13:39.599Z</time></trkpt><trkpt lat="44.6328029" lon="9.3168512"><ele>832.0</ele><time>2026-04-04T12:13:40.601Z</time></trkpt><trkpt lat="44.6328912" lon="9.3167806"><ele>829.0</ele><time>2026-04-04T12:13:41.601Z</time></trkpt><trkpt lat="44.6329662" lon="9.3167235"><ele>826.0</ele><time>2026-04-04T12:13:42.599Z</time></trkpt><trkpt lat="44.6330322" lon="9.3166859"><ele>823.0</ele><time>2026-04-04T12:13:43.599Z</time></trkpt><trkpt lat="44.6331229" lon="9.3166487"><ele>820.0</ele><time>2026-04-04T12:13:45.6Z</time></trkpt><trkpt lat="44.6332347" lon="9.3165702"><ele>819.9999999999999</ele><time>2026-04-04T12:14:02.602Z</time></trkpt><trkpt lat="44.6332954" lon="9.3165235"><ele>820.0</ele><time>2026-04-04T12:14:03.6Z</time></trkpt><trkpt lat="44.6333497" lon="9.3164668"><ele>820.0</ele><time>2026-04-04T12:14:04.601Z</time></trkpt><trkpt lat="44.6334253" lon="9.3163807"><ele>820.0</ele><time>2026-04-04T12:14:06.602Z</time></trkpt><trkpt lat="44.63348" lon="9.3162993"><ele>819.9999999999999</ele><time>2026-04-04T12:14:08.601Z</time></trkpt><trkpt lat="44.6335372" lon="9.3162409"><ele>820.0</ele><time>2026-04-04T12:14:10.602Z</time></trkpt><trkpt lat="44.6336137" lon="9.316193"><ele>820.4</ele><time>2026-04-04T12:14:12.6Z</time></trkpt><trkpt lat="44.6336904" lon="9.3161674"><ele>820.8</ele><time>2026-04-04T12:14:14.6Z</time></trkpt><trkpt lat="44.6337757" lon="9.3161196"><ele>821.2</ele><time>2026-04-04T12:14:16.602Z</time></trkpt><trkpt lat="44.633875" lon="9.31603"><ele>821.6</ele><time>2026-04-04T12:14:18.601Z</time></trkpt><trkpt lat="44.633965" lon="9.3159533"><ele>822.0</ele><time>2026-04-04T12:14:20.6Z</time></trkpt><trkpt lat="44.6340333" lon="9.31588"><ele>822.0</ele><time>2026-04-04T12:14:22.6Z</time></trkpt><trkpt lat="44.634115" lon="9.3158067"><ele>822.0</ele><time>2026-04-04T12:14:25.6Z</time></trkpt><trkpt lat="44.6342" lon="9.3158133"><ele>822.0</ele><time>2026-04-04T12:14:28.6Z</time></trkpt><trkpt lat="44.6343" lon="9.3158183"><ele>822.0</ele><time>2026-04-04T12:14:30.601Z</time></trkpt><trkpt lat="44.6343667" lon="9.31583"><ele>822.0</ele><time>2026-04-04T12:14:31.599Z</time></trkpt><trkpt lat="44.6344317" lon="9.3158617"><ele>822.0</ele><time>2026-04-04T12:14:32.601Z</time></trkpt><trkpt lat="44.6345017" lon="9.3158983"><ele>821.6666666666666</ele><time>2026-04-04T12:14:33.601Z</time></trkpt><trkpt lat="44.634575" lon="9.315925"><ele>821.3333333333333</ele><time>2026-04-04T12:14:34.601Z</time></trkpt><trkpt lat="44.6346567" lon="9.3159633"><ele>821.0</ele><time>2026-04-04T12:14:35.6Z</time></trkpt><trkpt lat="44.63472" lon="9.3159983"><ele>820.6666666666666</ele><time>2026-04-04T12:14:36.601Z</time></trkpt><trkpt lat="44.6348" lon="9.3160217"><ele>820.3333333333333</ele><time>2026-04-04T12:14:37.6Z</time></trkpt><trkpt lat="44.6348817" lon="9.3160417"><ele>820.0</ele><time>2026-04-04T12:14:38.603Z</time></trkpt><trkpt lat="44.6349533" lon="9.3160567"><ele>819.9999999999999</ele><time>2026-04-04T12:14:39.599Z</time></trkpt><trkpt lat="44.63502" lon="9.3160867"><ele>820.0</ele><time>2026-04-04T12:14:40.601Z</time></trkpt><trkpt lat="44.6350833" lon="9.3161383"><ele>820.0</ele><time>2026-04-04T12:14:41.601Z</time></trkpt><trkpt lat="44.6351533" lon="9.3162"><ele>820.0</ele><time>2026-04-04T12:14:42.6Z</time></trkpt><trkpt lat="44.635225" lon="9.3162667"><ele>819.9999999999999</ele><time>2026-04-04T12:14:43.601Z</time></trkpt><trkpt lat="44.635295" lon="9.3163083"><ele>820.0</ele><time>2026-04-04T12:14:44.601Z</time></trkpt><trkpt lat="44.6353633" lon="9.3163417"><ele>819.8333333333333</ele><time>2026-04-04T12:14:45.599Z</time></trkpt><trkpt lat="44.6354267" lon="9.3163567"><ele>819.6666666666666</ele><time>2026-04-04T12:14:46.601Z</time></trkpt><trkpt lat="44.6354967" lon="9.316365"><ele>819.5</ele><time>2026-04-04T12:14:47.602Z</time></trkpt><trkpt lat="44.63557" lon="9.3163483"><ele>819.3333333333333</ele><time>2026-04-04T12:14:48.599Z</time></trkpt><trkpt lat="44.63565" lon="9.3163317"><ele>819.1666666666666</ele><time>2026-04-04T12:14:49.6Z</time></trkpt><trkpt lat="44.6357383" lon="9.3163367"><ele>819.0</ele><time>2026-04-04T12:14:50.6Z</time></trkpt><trkpt lat="44.6358167" lon="9.3163683"><ele>815.6666666666666</ele><time>2026-04-04T12:14:51.601Z</time></trkpt><trkpt lat="44.6358933" lon="9.3164083"><ele>812.3333333333333</ele><time>2026-04-04T12:14:52.599Z</time></trkpt><trkpt lat="44.6359583" lon="9.3164633"><ele>809.0</ele><time>2026-04-04T12:14:53.601Z</time></trkpt><trkpt lat="44.63603" lon="9.31652"><ele>805.6666666666666</ele><time>2026-04-04T12:14:54.6Z</time></trkpt><trkpt lat="44.6361017" lon="9.31656"><ele>802.3333333333333</ele><time>2026-04-04T12:14:55.601Z</time></trkpt><trkpt lat="44.6361767" lon="9.3165717"><ele>799.0</ele><time>2026-04-04T12:14:56.601Z</time></trkpt><trkpt lat="44.6362467" lon="9.3165617"><ele>799.0</ele><time>2026-04-04T12:14:57.6Z</time></trkpt><trkpt lat="44.6363183" lon="9.316545"><ele>799.0</ele><time>2026-04-04T12:14:58.6Z</time></trkpt><trkpt lat="44.636385" lon="9.3165333"><ele>799.0</ele><time>2026-04-04T12:14:59.6Z</time></trkpt><trkpt lat="44.6364567" lon="9.3165233"><ele>799.0</ele><time>2026-04-04T12:15:00.601Z</time></trkpt><trkpt lat="44.6365267" lon="9.3165217"><ele>799.0</ele><time>2026-04-04T12:15:01.601Z</time></trkpt><trkpt lat="44.6365933" lon="9.3165317"><ele>799.0</ele><time>2026-04-04T12:15:02.604Z</time></trkpt><trkpt lat="44.6366583" lon="9.3165367"><ele>799.0</ele><time>2026-04-04T12:15:03.599Z</time></trkpt><trkpt lat="44.6367733" lon="9.3165283"><ele>799.0</ele><time>2026-04-04T12:15:05.601Z</time></trkpt><trkpt lat="44.63687" lon="9.3165283"><ele>799.0</ele><time>2026-04-04T12:15:07.602Z</time></trkpt><trkpt lat="44.636975" lon="9.3164967"><ele>799.0</ele><time>2026-04-04T12:15:09.6Z</time></trkpt><trkpt lat="44.63709" lon="9.3164817"><ele>799.0</ele><time>2026-04-04T12:15:11.6Z</time></trkpt><trkpt lat="44.63722" lon="9.3165067"><ele>795.0</ele><time>2026-04-04T12:15:13.602Z</time></trkpt><trkpt lat="44.6372883" lon="9.3165167"><ele>791.0</ele><time>2026-04-04T12:15:14.6Z</time></trkpt><trkpt lat="44.6373933" lon="9.3164767"><ele>787.0</ele><time>2026-04-04T12:15:16.601Z</time></trkpt><trkpt lat="44.6375017" lon="9.3163767"><ele>783.0</ele><time>2026-04-04T12:15:18.599Z</time></trkpt><trkpt lat="44.63757" lon="9.316325"><ele>779.0</ele><time>2026-04-04T12:15:19.601Z</time></trkpt><trkpt lat="44.6376317" lon="9.316285"><ele>776.4000000000001</ele><time>2026-04-04T12:15:20.602Z</time></trkpt><trkpt lat="44.6377417" lon="9.3162317"><ele>773.8</ele><time>2026-04-04T12:15:22.601Z</time></trkpt><trkpt lat="44.6378533" lon="9.316195"><ele>771.2</ele><time>2026-04-04T12:15:24.6Z</time></trkpt><trkpt lat="44.6379567" lon="9.3161717"><ele>768.5999999999999</ele><time>2026-04-04T12:15:26.601Z</time></trkpt><trkpt lat="44.63803" lon="9.3161483"><ele>766.0</ele><time>2026-04-04T12:16:31.599Z</time></trkpt><trkpt lat="44.6381217" lon="9.31608"><ele>764.0</ele><time>2026-04-04T12:16:33.6Z</time></trkpt><trkpt lat="44.6382117" lon="9.3159783"><ele>762.0</ele><time>2026-04-04T12:16:35.599Z</time></trkpt><trkpt lat="44.6382983" lon="9.31589"><ele>760.0</ele><time>2026-04-04T12:16:37.601Z</time></trkpt><trkpt lat="44.63842" lon="9.315875"><ele>758.0</ele><time>2026-04-04T12:16:39.599Z</time></trkpt><trkpt lat="44.6385133" lon="9.3158933"><ele>756.0</ele><time>2026-04-04T12:16:41.601Z</time></trkpt><trkpt lat="44.63855" lon="9.3157867"><ele>756.0</ele><time>2026-04-04T12:16:44.602Z</time></trkpt><trkpt lat="44.63857" lon="9.3156633"><ele>756.0</ele><time>2026-04-04T12:16:46.603Z</time></trkpt><trkpt lat="44.6386067" lon="9.3155067"><ele>756.0</ele><time>2026-04-04T12:16:48.6Z</time></trkpt><trkpt lat="44.6386117" lon="9.3153417"><ele>756.0</ele><time>2026-04-04T12:16:50.6Z</time></trkpt><trkpt lat="44.6386167" lon="9.3152483"><ele>756.0</ele><time>2026-04-04T12:16:51.6Z</time></trkpt><trkpt lat="44.63863" lon="9.3151567"><ele>753.7142857142857</ele><time>2026-04-04T12:16:52.601Z</time></trkpt><trkpt lat="44.6386467" lon="9.3150567"><ele>751.4285714285714</ele><time>2026-04-04T12:16:53.6Z</time></trkpt><trkpt lat="44.638665" lon="9.31496"><ele>749.1428571428571</ele><time>2026-04-04T12:16:54.601Z</time></trkpt><trkpt lat="44.6386967" lon="9.31487"><ele>746.8571428571429</ele><time>2026-04-04T12:16:55.601Z</time></trkpt><trkpt lat="44.6387367" lon="9.31479"><ele>744.5714285714286</ele><time>2026-04-04T12:16:56.601Z</time></trkpt><trkpt lat="44.6387833" lon="9.3147167"><ele>742.2857142857142</ele><time>2026-04-04T12:16:57.601Z</time></trkpt><trkpt lat="44.6388333" lon="9.3146533"><ele>740.0</ele><time>2026-04-04T12:16:58.601Z</time></trkpt><trkpt lat="44.638935" lon="9.3145633"><ele>737.0</ele><time>2026-04-04T12:17:00.601Z</time></trkpt><trkpt lat="44.639045" lon="9.314495"><ele>734.0</ele><time>2026-04-04T12:17:02.601Z</time></trkpt><trkpt lat="44.6391483" lon="9.3144333"><ele>731.0</ele><time>2026-04-04T12:17:04.602Z</time></trkpt><trkpt lat="44.639265" lon="9.3143633"><ele>728.0</ele><time>2026-04-04T12:17:06.601Z</time></trkpt><trkpt lat="44.6393333" lon="9.3143433"><ele>725.0</ele><time>2026-04-04T12:17:07.601Z</time></trkpt><trkpt lat="44.6394117" lon="9.31433"><ele>721.6</ele><time>2026-04-04T12:17:08.601Z</time></trkpt><trkpt lat="44.6394967" lon="9.3143217"><ele>718.2</ele><time>2026-04-04T12:17:09.601Z</time></trkpt><trkpt lat="44.639575" lon="9.31433"><ele>714.8</ele><time>2026-04-04T12:17:10.6Z</time></trkpt><trkpt lat="44.6396367" lon="9.3143483"><ele>711.4</ele><time>2026-04-04T12:17:11.601Z</time></trkpt><trkpt lat="44.6396817" lon="9.3144733"><ele>708.0</ele><time>2026-04-04T12:17:13.601Z</time></trkpt><trkpt lat="44.63969" lon="9.3146617"><ele>708.2857142857143</ele><time>2026-04-04T12:17:15.601Z</time></trkpt><trkpt lat="44.6397083" lon="9.3147717"><ele>708.5714285714286</ele><time>2026-04-04T12:17:16.603Z</time></trkpt><trkpt lat="44.6397333" lon="9.314875"><ele>708.8571428571429</ele><time>2026-04-04T12:17:17.603Z</time></trkpt><trkpt lat="44.6397683" lon="9.314965"><ele>709.1428571428571</ele><time>2026-04-04T12:17:18.603Z</time></trkpt><trkpt lat="44.639805" lon="9.315045"><ele>709.4285714285714</ele><time>2026-04-04T12:17:19.603Z</time></trkpt><trkpt lat="44.63985" lon="9.3151267"><ele>709.7142857142857</ele><time>2026-04-04T12:17:20.602Z</time></trkpt><trkpt lat="44.6398967" lon="9.3151967"><ele>710.0</ele><time>2026-04-04T12:17:21.601Z</time></trkpt><trkpt lat="44.6399833" lon="9.31523"><ele>710.0</ele><time>2026-04-04T12:17:23.601Z</time></trkpt><trkpt lat="44.6400933" lon="9.315185"><ele>710.0</ele><time>2026-04-04T12:17:25.6Z</time></trkpt><trkpt lat="44.6401983" lon="9.31511"><ele>710.0</ele><time>2026-04-04T12:17:27.601Z</time></trkpt><trkpt lat="44.6402533" lon="9.3149983"><ele>710.0</ele><time>2026-04-04T12:17:29.6Z</time></trkpt><trkpt lat="44.64033" lon="9.31499"><ele>710.0</ele><time>2026-04-04T12:17:32.601Z</time></trkpt><trkpt lat="44.640365" lon="9.3151083"><ele>705.0</ele><time>2026-04-04T12:17:34.601Z</time></trkpt><trkpt lat="44.6404167" lon="9.31525"><ele>700.0</ele><time>2026-04-04T12:17:36.601Z</time></trkpt><trkpt lat="44.6404367" lon="9.3154067"><ele>695.0</ele><time>2026-04-04T12:17:38.601Z</time></trkpt><trkpt lat="44.6404483" lon="9.315495"><ele>690.0</ele><time>2026-04-04T12:17:39.601Z</time></trkpt><trkpt lat="44.6404633" lon="9.3155917"><ele>685.0</ele><time>2026-04-04T12:17:40.601Z</time></trkpt><trkpt lat="44.6404683" lon="9.3156917"><ele>680.0</ele><time>2026-04-04T12:17:41.601Z</time></trkpt><trkpt lat="44.6404683" lon="9.3157933"><ele>678.8333333333333</ele><time>2026-04-04T12:17:42.601Z</time></trkpt><trkpt lat="44.6404583" lon="9.31589"><ele>677.6666666666666</ele><time>2026-04-04T12:17:43.6Z</time></trkpt><trkpt lat="44.6404483" lon="9.3159817"><ele>676.5</ele><time>2026-04-04T12:17:44.603Z</time></trkpt><trkpt lat="44.640465" lon="9.3161483"><ele>675.3333333333334</ele><time>2026-04-04T12:17:46.6Z</time></trkpt><trkpt lat="44.640475" lon="9.3162383"><ele>674.1666666666667</ele><time>2026-04-04T12:17:47.601Z</time></trkpt><trkpt lat="44.64049" lon="9.3163283"><ele>673.0</ele><time>2026-04-04T12:17:48.601Z</time></trkpt><trkpt lat="44.6405133" lon="9.31642"><ele>671.5</ele><time>2026-04-04T12:17:49.601Z</time></trkpt><trkpt lat="44.6405467" lon="9.3165117"><ele>670.0</ele><time>2026-04-04T12:17:50.601Z</time></trkpt><trkpt lat="44.6405733" lon="9.316605"><ele>668.5</ele><time>2026-04-04T12:17:51.601Z</time></trkpt><trkpt lat="44.640595" lon="9.31669"><ele>667.0</ele><time>2026-04-04T12:17:52.601Z</time></trkpt><trkpt lat="44.6406433" lon="9.31678"><ele>665.5</ele><time>2026-04-04T12:17:54.6Z</time></trkpt><trkpt lat="44.6407517" lon="9.3168033"><ele>664.0</ele><time>2026-04-04T12:17:56.601Z</time></trkpt><trkpt lat="44.64087" lon="9.3168"><ele>664.0</ele><time>2026-04-04T12:17:58.6Z</time></trkpt><trkpt lat="44.6409333" lon="9.316775"><ele>664.0</ele><time>2026-04-04T12:17:59.601Z</time></trkpt><trkpt lat="44.6410383" lon="9.3168"><ele>664.0</ele><time>2026-04-04T12:18:01.601Z</time></trkpt><trkpt lat="44.6411167" lon="9.316935"><ele>664.0</ele><time>2026-04-04T12:18:03.6Z</time></trkpt><trkpt lat="44.6411417" lon="9.3170283"><ele>664.0</ele><time>2026-04-04T12:18:04.601Z</time></trkpt><trkpt lat="44.6411633" lon="9.3171283"><ele>664.0</ele><time>2026-04-04T12:18:05.601Z</time></trkpt><trkpt lat="44.6412" lon="9.317215"><ele>660.2</ele><time>2026-04-04T12:18:06.601Z</time></trkpt><trkpt lat="44.64128" lon="9.317265"><ele>656.4000000000001</ele><time>2026-04-04T12:18:08.602Z</time></trkpt><trkpt lat="44.6413933" lon="9.3172417"><ele>652.6</ele><time>2026-04-04T12:18:10.601Z</time></trkpt><trkpt lat="44.641515" lon="9.3172483"><ele>648.8</ele><time>2026-04-04T12:18:12.602Z</time></trkpt><trkpt lat="44.64163" lon="9.31729"><ele>645.0</ele><time>2026-04-04T12:18:14.602Z</time></trkpt><trkpt lat="44.6417017" lon="9.3174"><ele>645.0</ele><time>2026-04-04T12:18:16.601Z</time></trkpt><trkpt lat="44.6417683" lon="9.3175417"><ele>645.0</ele><time>2026-04-04T12:18:18.601Z</time></trkpt><trkpt lat="44.6418067" lon="9.31768"><ele>645.0</ele><time>2026-04-04T12:18:20.608Z</time></trkpt><trkpt lat="44.6418183" lon="9.3178"><ele>645.0</ele><time>2026-04-04T12:18:22.601Z</time></trkpt><trkpt lat="44.641865" lon="9.3179083"><ele>645.0</ele><time>2026-04-04T12:18:24.6Z</time></trkpt><trkpt lat="44.64193" lon="9.31797"><ele>642.3333333333334</ele><time>2026-04-04T12:18:26.601Z</time></trkpt><trkpt lat="44.6420133" lon="9.3179667"><ele>639.6666666666666</ele><time>2026-04-04T12:18:28.601Z</time></trkpt><trkpt lat="44.642085" lon="9.317965"><ele>637.0</ele><time>2026-04-04T12:18:30.601Z</time></trkpt><trkpt lat="44.642155" lon="9.317965"><ele>634.3333333333333</ele><time>2026-04-04T12:19:21.601Z</time></trkpt><trkpt lat="44.64226" lon="9.3179083"><ele>631.6666666666666</ele><time>2026-04-04T12:19:23.601Z</time></trkpt><trkpt lat="44.6423217" lon="9.3178683"><ele>629.0</ele><time>2026-04-04T12:19:24.601Z</time></trkpt><trkpt lat="44.642385" lon="9.3178267"><ele>629.0</ele><time>2026-04-04T12:19:25.601Z</time></trkpt><trkpt lat="44.6424983" lon="9.3177817"><ele>629.0</ele><time>2026-04-04T12:19:27.603Z</time></trkpt><trkpt lat="44.6426083" lon="9.317765"><ele>629.0</ele><time>2026-04-04T12:19:29.601Z</time></trkpt><trkpt lat="44.6427117" lon="9.317695"><ele>629.0</ele><time>2026-04-04T12:19:31.601Z</time></trkpt><trkpt lat="44.64276" lon="9.3176283"><ele>629.0</ele><time>2026-04-04T12:19:32.601Z</time></trkpt><trkpt lat="44.6428" lon="9.317555"><ele>628.2857142857142</ele><time>2026-04-04T12:19:33.601Z</time></trkpt><trkpt lat="44.6428367" lon="9.3174683"><ele>627.5714285714287</ele><time>2026-04-04T12:19:34.605Z</time></trkpt><trkpt lat="44.6428783" lon="9.3173717"><ele>626.8571428571429</ele><time>2026-04-04T12:19:35.601Z</time></trkpt><trkpt lat="44.6429167" lon="9.3172833"><ele>626.1428571428571</ele><time>2026-04-04T12:19:36.601Z</time></trkpt><trkpt lat="44.6429483" lon="9.317195"><ele>625.4285714285713</ele><time>2026-04-04T12:19:37.6Z</time></trkpt><trkpt lat="44.6429767" lon="9.3171083"><ele>624.7142857142858</ele><time>2026-04-04T12:19:38.6Z</time></trkpt><trkpt lat="44.64301" lon="9.3170317"><ele>624.0</ele><time>2026-04-04T12:19:39.601Z</time></trkpt><trkpt lat="44.6430967" lon="9.3169133"><ele>624.0</ele><time>2026-04-04T12:19:41.602Z</time></trkpt><trkpt lat="44.6431533" lon="9.3168617"><ele>624.0</ele><time>2026-04-04T12:19:42.601Z</time></trkpt><trkpt lat="44.6432667" lon="9.31678"><ele>624.0</ele><time>2026-04-04T12:19:44.602Z</time></trkpt><trkpt lat="44.64334" lon="9.3166683"><ele>624.0</ele><time>2026-04-04T12:19:46.601Z</time></trkpt><trkpt lat="44.64337" lon="9.3165733"><ele>624.0</ele><time>2026-04-04T12:19:47.6Z</time></trkpt><trkpt lat="44.6434117" lon="9.3164833"><ele>621.5</ele><time>2026-04-04T12:19:48.602Z</time></trkpt><trkpt lat="44.6434617" lon="9.3163967"><ele>619.0</ele><time>2026-04-04T12:19:49.601Z</time></trkpt><trkpt lat="44.6435117" lon="9.3163117"><ele>616.5</ele><time>2026-04-04T12:19:50.601Z</time></trkpt><trkpt lat="44.6435633" lon="9.3162267"><ele>614.0</ele><time>2026-04-04T12:19:51.601Z</time></trkpt><trkpt lat="44.64362" lon="9.3161417"><ele>611.5</ele><time>2026-04-04T12:19:52.602Z</time></trkpt><trkpt lat="44.643685" lon="9.316075"><ele>609.0</ele><time>2026-04-04T12:19:53.602Z</time></trkpt><trkpt lat="44.6437517" lon="9.3160333"><ele>607.8333333333334</ele><time>2026-04-04T12:19:54.601Z</time></trkpt><trkpt lat="44.64382" lon="9.3160083"><ele>606.6666666666666</ele><time>2026-04-04T12:19:55.603Z</time></trkpt><trkpt lat="44.643905" lon="9.31599"><ele>605.5</ele><time>2026-04-04T12:19:56.602Z</time></trkpt><trkpt lat="44.6439883" lon="9.31598"><ele>604.3333333333333</ele><time>2026-04-04T12:19:57.602Z</time></trkpt><trkpt lat="44.64407" lon="9.3159767"><ele>603.1666666666666</ele><time>2026-04-04T12:19:58.602Z</time></trkpt><trkpt lat="44.6441467" lon="9.3159717"><ele>602.0</ele><time>2026-04-04T12:19:59.602Z</time></trkpt><trkpt lat="44.644225" lon="9.31598"><ele>602.0</ele><time>2026-04-04T12:20:00.602Z</time></trkpt><trkpt lat="44.6443" lon="9.31599"><ele>602.0</ele><time>2026-04-04T12:20:01.601Z</time></trkpt><trkpt lat="44.6443783" lon="9.3160067"><ele>602.0</ele><time>2026-04-04T12:20:02.601Z</time></trkpt><trkpt lat="44.6444617" lon="9.3160267"><ele>602.0</ele><time>2026-04-04T12:20:03.601Z</time></trkpt><trkpt lat="44.6445467" lon="9.3160417"><ele>602.0</ele><time>2026-04-04T12:20:04.601Z</time></trkpt><trkpt lat="44.6446367" lon="9.3160483"><ele>602.0</ele><time>2026-04-04T12:20:05.601Z</time></trkpt><trkpt lat="44.6447267" lon="9.3160567"><ele>600.6666666666666</ele><time>2026-04-04T12:20:06.601Z</time></trkpt><trkpt lat="44.6448183" lon="9.31606"><ele>599.3333333333333</ele><time>2026-04-04T12:20:07.601Z</time></trkpt><trkpt lat="44.6449067" lon="9.316065"><ele>598.0</ele><time>2026-04-04T12:20:08.602Z</time></trkpt><trkpt lat="44.64499" lon="9.3160617"><ele>596.6666666666666</ele><time>2026-04-04T12:20:09.601Z</time></trkpt><trkpt lat="44.6450717" lon="9.3160567"><ele>595.3333333333334</ele><time>2026-04-04T12:20:10.601Z</time></trkpt><trkpt lat="44.6451583" lon="9.3160483"><ele>594.0</ele><time>2026-04-04T12:20:11.6Z</time></trkpt><trkpt lat="44.6452333" lon="9.3160467"><ele>593.0</ele><time>2026-04-04T12:20:12.6Z</time></trkpt><trkpt lat="44.6453017" lon="9.31605"><ele>592.0</ele><time>2026-04-04T12:20:13.6Z</time></trkpt><trkpt lat="44.6453683" lon="9.3160683"><ele>591.0</ele><time>2026-04-04T12:20:14.602Z</time></trkpt><trkpt lat="44.645435" lon="9.3160883"><ele>590.0</ele><time>2026-04-04T12:20:15.6Z</time></trkpt><trkpt lat="44.645505" lon="9.316095"><ele>589.0</ele><time>2026-04-04T12:20:16.6Z</time></trkpt><trkpt lat="44.6455717" lon="9.316085"><ele>588.0</ele><time>2026-04-04T12:20:17.6Z</time></trkpt><trkpt lat="44.6456383" lon="9.31607"><ele>587.0</ele><time>2026-04-04T12:20:18.6Z</time></trkpt><trkpt lat="44.6457183" lon="9.316055"><ele>587.0</ele><time>2026-04-04T12:20:19.6Z</time></trkpt><trkpt lat="44.6457917" lon="9.3160267"><ele>587.0</ele><time>2026-04-04T12:20:20.6Z</time></trkpt><trkpt lat="44.6458533" lon="9.3159833"><ele>587.0</ele><time>2026-04-04T12:20:21.6Z</time></trkpt><trkpt lat="44.6459083" lon="9.3159167"><ele>587.0</ele><time>2026-04-04T12:20:22.599Z</time></trkpt><trkpt lat="44.645985" lon="9.315785"><ele>587.0</ele><time>2026-04-04T12:20:24.599Z</time></trkpt><trkpt lat="44.6460317" lon="9.3156933"><ele>587.0</ele><time>2026-04-04T12:20:25.6Z</time></trkpt><trkpt lat="44.6460767" lon="9.31561"><ele>584.6</ele><time>2026-04-04T12:20:26.6Z</time></trkpt><trkpt lat="44.646115" lon="9.3155317"><ele>582.2</ele><time>2026-04-04T12:20:27.599Z</time></trkpt><trkpt lat="44.6461467" lon="9.3154467"><ele>579.8</ele><time>2026-04-04T12:20:28.6Z</time></trkpt><trkpt lat="44.6462" lon="9.3153317"><ele>577.4</ele><time>2026-04-04T12:20:30.599Z</time></trkpt><trkpt lat="44.6463017" lon="9.3153017"><ele>575.0</ele><time>2026-04-04T12:20:32.6Z</time></trkpt><trkpt lat="44.6464283" lon="9.3152583"><ele>574.5714285714286</ele><time>2026-04-04T12:20:34.6Z</time></trkpt><trkpt lat="44.6464983" lon="9.3152217"><ele>574.1428571428571</ele><time>2026-04-04T12:20:35.6Z</time></trkpt><trkpt lat="44.64656" lon="9.315185"><ele>573.7142857142857</ele><time>2026-04-04T12:20:36.6Z</time></trkpt><trkpt lat="44.646615" lon="9.31514"><ele>573.2857142857142</ele><time>2026-04-04T12:20:37.6Z</time></trkpt><trkpt lat="44.646665" lon="9.3150733"><ele>572.8571428571429</ele><time>2026-04-04T12:20:38.601Z</time></trkpt><trkpt lat="44.6467017" lon="9.3149933"><ele>572.4285714285713</ele><time>2026-04-04T12:20:39.599Z</time></trkpt><trkpt lat="44.6467317" lon="9.31491"><ele>572.0</ele><time>2026-04-04T12:20:40.599Z</time></trkpt><trkpt lat="44.6467567" lon="9.3148083"><ele>570.1428571428571</ele><time>2026-04-04T12:20:41.6Z</time></trkpt><trkpt lat="44.6467883" lon="9.3147133"><ele>568.2857142857142</ele><time>2026-04-04T12:20:42.599Z</time></trkpt><trkpt lat="44.646815" lon="9.314625"><ele>566.4285714285714</ele><time>2026-04-04T12:20:43.601Z</time></trkpt><trkpt lat="44.6468317" lon="9.3145383"><ele>564.5714285714286</ele><time>2026-04-04T12:20:44.599Z</time></trkpt><trkpt lat="44.6468383" lon="9.31443"><ele>562.7142857142858</ele><time>2026-04-04T12:20:45.6Z</time></trkpt><trkpt lat="44.6468483" lon="9.3143183"><ele>560.8571428571429</ele><time>2026-04-04T12:20:46.6Z</time></trkpt><trkpt lat="44.6468733" lon="9.3142283"><ele>559.0</ele><time>2026-04-04T12:20:47.599Z</time></trkpt><trkpt lat="44.646965" lon="9.31411"><ele>557.5</ele><time>2026-04-04T12:20:49.6Z</time></trkpt><trkpt lat="44.6470583" lon="9.314085"><ele>556.0</ele><time>2026-04-04T12:20:50.599Z</time></trkpt><trkpt lat="44.6471433" lon="9.3140633"><ele>554.5</ele><time>2026-04-04T12:20:51.6Z</time></trkpt><trkpt lat="44.6472267" lon="9.31402"><ele>553.0</ele><time>2026-04-04T12:20:52.6Z</time></trkpt><trkpt lat="44.6473033" lon="9.3139767"><ele>551.5</ele><time>2026-04-04T12:20:53.6Z</time></trkpt><trkpt lat="44.6473833" lon="9.313935"><ele>550.0</ele><time>2026-04-04T12:20:54.6Z</time></trkpt><trkpt lat="44.6474583" lon="9.3138767"><ele>548.0</ele><time>2026-04-04T12:20:55.601Z</time></trkpt><trkpt lat="44.64753" lon="9.3138133"><ele>546.0</ele><time>2026-04-04T12:20:56.601Z</time></trkpt><trkpt lat="44.6476117" lon="9.3137567"><ele>544.0</ele><time>2026-04-04T12:20:57.6Z</time></trkpt><trkpt lat="44.6477033" lon="9.3137317"><ele>542.0</ele><time>2026-04-04T12:20:58.601Z</time></trkpt><trkpt lat="44.647795" lon="9.31374"><ele>540.0</ele><time>2026-04-04T12:20:59.6Z</time></trkpt><trkpt lat="44.6478683" lon="9.3137633"><ele>538.0</ele><time>2026-04-04T12:21:00.601Z</time></trkpt><trkpt lat="44.6479333" lon="9.3138033"><ele>536.4</ele><time>2026-04-04T12:21:01.601Z</time></trkpt><trkpt lat="44.6479883" lon="9.313905"><ele>534.8</ele><time>2026-04-04T12:21:03.599Z</time></trkpt><trkpt lat="44.6479533" lon="9.314075"><ele>533.2</ele><time>2026-04-04T12:21:05.601Z</time></trkpt><trkpt lat="44.6479383" lon="9.31419"><ele>531.6</ele><time>2026-04-04T12:21:06.601Z</time></trkpt><trkpt lat="44.6479333" lon="9.314315"><ele>530.0</ele><time>2026-04-04T12:21:07.6Z</time></trkpt><trkpt lat="44.6479267" lon="9.3144567"><ele>527.5</ele><time>2026-04-04T12:21:08.6Z</time></trkpt><trkpt lat="44.64793" lon="9.3145983"><ele>525.0</ele><time>2026-04-04T12:21:09.601Z</time></trkpt><trkpt lat="44.6479367" lon="9.3147317"><ele>522.5</ele><time>2026-04-04T12:21:10.601Z</time></trkpt><trkpt lat="44.6479367" lon="9.31485"><ele>520.0</ele><time>2026-04-04T12:21:11.601Z</time></trkpt><trkpt lat="44.6479317" lon="9.314965"><ele>517.5</ele><time>2026-04-04T12:21:12.601Z</time></trkpt><trkpt lat="44.6479183" lon="9.3150783"><ele>515.0</ele><time>2026-04-04T12:21:13.6Z</time></trkpt><trkpt lat="44.647905" lon="9.3151967"><ele>514.5</ele><time>2026-04-04T12:21:14.602Z</time></trkpt><trkpt lat="44.64789" lon="9.315315"><ele>514.0</ele><time>2026-04-04T12:21:15.599Z</time></trkpt><trkpt lat="44.647885" lon="9.31543"><ele>513.5</ele><time>2026-04-04T12:21:16.599Z</time></trkpt><trkpt lat="44.6478717" lon="9.3155533"><ele>513.0</ele><time>2026-04-04T12:21:17.601Z</time></trkpt><trkpt lat="44.647865" lon="9.31567"><ele>512.5</ele><time>2026-04-04T12:21:18.601Z</time></trkpt><trkpt lat="44.6478633" lon="9.3157667"><ele>512.0</ele><time>2026-04-04T12:21:19.599Z</time></trkpt><trkpt lat="44.6478633" lon="9.3158617"><ele>511.66666666666663</ele><time>2026-04-04T12:21:20.6Z</time></trkpt><trkpt lat="44.647865" lon="9.3159517"><ele>511.3333333333333</ele><time>2026-04-04T12:21:21.599Z</time></trkpt><trkpt lat="44.647875" lon="9.31604"><ele>511.0</ele><time>2026-04-04T12:21:22.601Z</time></trkpt><trkpt lat="44.647905" lon="9.316185"><ele>510.66666666666663</ele><time>2026-04-04T12:21:24.6Z</time></trkpt><trkpt lat="44.6479983" lon="9.316215"><ele>510.3333333333333</ele><time>2026-04-04T12:21:26.601Z</time></trkpt><trkpt lat="44.6480733" lon="9.316205"><ele>510.0</ele><time>2026-04-04T12:21:27.6Z</time></trkpt><trkpt lat="44.6481417" lon="9.3161933"><ele>510.0</ele><time>2026-04-04T12:21:28.599Z</time></trkpt><trkpt lat="44.6482083" lon="9.3161867"><ele>510.0</ele><time>2026-04-04T12:21:29.601Z</time></trkpt><trkpt lat="44.6483333" lon="9.3161533"><ele>510.0</ele><time>2026-04-04T12:21:31.599Z</time></trkpt><trkpt lat="44.6483883" lon="9.3160983"><ele>510.0</ele><time>2026-04-04T12:21:32.602Z</time></trkpt><trkpt lat="44.6484367" lon="9.315945"><ele>510.0</ele><time>2026-04-04T12:21:34.601Z</time></trkpt><trkpt lat="44.6484283" lon="9.315785"><ele>510.0</ele><time>2026-04-04T12:21:36.6Z</time></trkpt><trkpt lat="44.6484217" lon="9.3156517"><ele>510.0</ele><time>2026-04-04T12:21:38.6Z</time></trkpt><trkpt lat="44.6483967" lon="9.3154867"><ele>510.0</ele><time>2026-04-04T12:21:40.601Z</time></trkpt><trkpt lat="44.64838" lon="9.3153667"><ele>510.0</ele><time>2026-04-04T12:21:41.601Z</time></trkpt><trkpt lat="44.6483767" lon="9.3152283"><ele>510.0</ele><time>2026-04-04T12:21:42.599Z</time></trkpt><trkpt lat="44.6483767" lon="9.31509"><ele>510.5</ele><time>2026-04-04T12:21:43.599Z</time></trkpt><trkpt lat="44.648375" lon="9.3149467"><ele>511.0</ele><time>2026-04-04T12:21:44.6Z</time></trkpt><trkpt lat="44.6483633" lon="9.3147883"><ele>511.5</ele><time>2026-04-04T12:21:45.6Z</time></trkpt><trkpt lat="44.64835" lon="9.3146233"><ele>512.0</ele><time>2026-04-04T12:21:46.6Z</time></trkpt><trkpt lat="44.6483567" lon="9.31446"><ele>512.6</ele><time>2026-04-04T12:21:47.6Z</time></trkpt><trkpt lat="44.6483833" lon="9.3143083"><ele>513.2</ele><time>2026-04-04T12:21:48.599Z</time></trkpt><trkpt lat="44.6484283" lon="9.314175"><ele>513.8</ele><time>2026-04-04T12:21:49.601Z</time></trkpt><trkpt lat="44.64849" lon="9.3140567"><ele>514.4</ele><time>2026-04-04T12:21:50.601Z</time></trkpt><trkpt lat="44.6485667" lon="9.3139533"><ele>515.0</ele><time>2026-04-04T12:21:51.601Z</time></trkpt><trkpt lat="44.648655" lon="9.31386"><ele>510.8</ele><time>2026-04-04T12:21:52.6Z</time></trkpt><trkpt lat="44.6487433" lon="9.313785"><ele>506.6</ele><time>2026-04-04T12:21:53.6Z</time></trkpt><trkpt lat="44.6488217" lon="9.3137133"><ele>502.4</ele><time>2026-04-04T12:21:54.6Z</time></trkpt><trkpt lat="44.648885" lon="9.313625"><ele>498.2</ele><time>2026-04-04T12:21:55.6Z</time></trkpt><trkpt lat="44.6489317" lon="9.3135233"><ele>494.0</ele><time>2026-04-04T12:21:56.601Z</time></trkpt><trkpt lat="44.6489567" lon="9.3134117"><ele>494.0</ele><time>2026-04-04T12:21:57.6Z</time></trkpt><trkpt lat="44.6489633" lon="9.313285"><ele>494.0</ele><time>2026-04-04T12:21:58.6Z</time></trkpt><trkpt lat="44.6489867" lon="9.313165"><ele>494.0</ele><time>2026-04-04T12:21:59.599Z</time></trkpt><trkpt lat="44.649035" lon="9.3130583"><ele>494.0</ele><time>2026-04-04T12:22:00.599Z</time></trkpt><trkpt lat="44.6491083" lon="9.3129617"><ele>494.0</ele><time>2026-04-04T12:22:01.601Z</time></trkpt><trkpt lat="44.64918" lon="9.3128583"><ele>493.66666666666663</ele><time>2026-04-04T12:22:02.6Z</time></trkpt><trkpt lat="44.6492333" lon="9.3127433"><ele>493.3333333333333</ele><time>2026-04-04T12:22:03.599Z</time></trkpt><trkpt lat="44.6492767" lon="9.3126217"><ele>493.0</ele><time>2026-04-04T12:22:04.599Z</time></trkpt><trkpt lat="44.6492917" lon="9.3125"><ele>492.66666666666663</ele><time>2026-04-04T12:22:05.601Z</time></trkpt><trkpt lat="44.64928" lon="9.3123917"><ele>492.3333333333333</ele><time>2026-04-04T12:22:06.599Z</time></trkpt><trkpt lat="44.649235" lon="9.3123017"><ele>492.0</ele><time>2026-04-04T12:22:07.6Z</time></trkpt><trkpt lat="44.6491833" lon="9.3122117"><ele>492.0</ele><time>2026-04-04T12:22:08.601Z</time></trkpt><trkpt lat="44.6490917" lon="9.31214"><ele>492.0</ele><time>2026-04-04T12:22:09.6Z</time></trkpt><trkpt lat="44.6489883" lon="9.3120517"><ele>492.0</ele><time>2026-04-04T12:22:10.6Z</time></trkpt><trkpt lat="44.6488967" lon="9.3119567"><ele>492.0</ele><time>2026-04-04T12:22:11.6Z</time></trkpt><trkpt lat="44.6488117" lon="9.3118533"><ele>492.0</ele><time>2026-04-04T12:22:12.601Z</time></trkpt><trkpt lat="44.6487583" lon="9.3117317"><ele>492.00000000000006</ele><time>2026-04-04T12:22:13.601Z</time></trkpt><trkpt lat="44.64874" lon="9.3116"><ele>492.00000000000006</ele><time>2026-04-04T12:22:14.6Z</time></trkpt><trkpt lat="44.6487533" lon="9.3114617"><ele>492.0</ele><time>2026-04-04T12:22:15.601Z</time></trkpt><trkpt lat="44.648785" lon="9.3113283"><ele>492.0</ele><time>2026-04-04T12:22:16.601Z</time></trkpt><trkpt lat="44.6488117" lon="9.3112017"><ele>492.6666666666667</ele><time>2026-04-04T12:22:17.601Z</time></trkpt><trkpt lat="44.6488217" lon="9.3110833"><ele>493.33333333333337</ele><time>2026-04-04T12:22:18.6Z</time></trkpt><trkpt lat="44.6488" lon="9.3109967"><ele>494.0</ele><time>2026-04-04T12:22:19.6Z</time></trkpt><trkpt lat="44.6487133" lon="9.31099"><ele>494.6666666666667</ele><time>2026-04-04T12:22:20.601Z</time></trkpt><trkpt lat="44.6486317" lon="9.3110083"><ele>495.33333333333337</ele><time>2026-04-04T12:22:21.6Z</time></trkpt><trkpt lat="44.648555" lon="9.3110267"><ele>496.0</ele><time>2026-04-04T12:22:22.6Z</time></trkpt><trkpt lat="44.6484767" lon="9.31101"><ele>496.0</ele><time>2026-04-04T12:22:23.599Z</time></trkpt><trkpt lat="44.648405" lon="9.3109567"><ele>496.0</ele><time>2026-04-04T12:22:24.601Z</time></trkpt><trkpt lat="44.6483567" lon="9.3108633"><ele>496.0</ele><time>2026-04-04T12:22:25.601Z</time></trkpt><trkpt lat="44.6483333" lon="9.3107267"><ele>496.0</ele><time>2026-04-04T12:22:26.6Z</time></trkpt><trkpt lat="44.6483317" lon="9.310545"><ele>496.0</ele><time>2026-04-04T12:22:27.6Z</time></trkpt><trkpt lat="44.6483267" lon="9.3103617"><ele>493.6</ele><time>2026-04-04T12:22:28.6Z</time></trkpt><trkpt lat="44.6483183" lon="9.310185"><ele>491.20000000000005</ele><time>2026-04-04T12:22:29.6Z</time></trkpt><trkpt lat="44.6483" lon="9.310025"><ele>488.79999999999995</ele><time>2026-04-04T12:22:30.601Z</time></trkpt><trkpt lat="44.6482567" lon="9.3099"><ele>486.4</ele><time>2026-04-04T12:22:31.601Z</time></trkpt><trkpt lat="44.6482017" lon="9.3098167"><ele>484.0</ele><time>2026-04-04T12:22:32.601Z</time></trkpt><trkpt lat="44.64813" lon="9.3097767"><ele>484.0</ele><time>2026-04-04T12:22:33.599Z</time></trkpt><trkpt lat="44.6480583" lon="9.309755"><ele>484.0</ele><time>2026-04-04T12:22:34.601Z</time></trkpt><trkpt lat="44.6479567" lon="9.3097633"><ele>484.0</ele><time>2026-04-04T12:22:35.6Z</time></trkpt><trkpt lat="44.6478433" lon="9.3097583"><ele>484.0</ele><time>2026-04-04T12:22:36.601Z</time></trkpt><trkpt lat="44.6477217" lon="9.309735"><ele>484.0</ele><time>2026-04-04T12:22:37.6Z</time></trkpt><trkpt lat="44.6476083" lon="9.3096917"><ele>482.25</ele><time>2026-04-04T12:22:38.6Z</time></trkpt><trkpt lat="44.6475117" lon="9.3096167"><ele>480.5</ele><time>2026-04-04T12:22:39.599Z</time></trkpt><trkpt lat="44.6474133" lon="9.3095283"><ele>478.75</ele><time>2026-04-04T12:22:40.601Z</time></trkpt><trkpt lat="44.6473167" lon="9.3094233"><ele>477.0</ele><time>2026-04-04T12:22:41.601Z</time></trkpt><trkpt lat="44.6472183" lon="9.3093217"><ele>477.0</ele><time>2026-04-04T12:22:42.599Z</time></trkpt><trkpt lat="44.6471233" lon="9.3092217"><ele>477.00000000000006</ele><time>2026-04-04T12:22:43.6Z</time></trkpt><trkpt lat="44.647035" lon="9.309125"><ele>477.00000000000006</ele><time>2026-04-04T12:22:44.601Z</time></trkpt><trkpt lat="44.64695" lon="9.3090383"><ele>477.0</ele><time>2026-04-04T12:22:45.6Z</time></trkpt><trkpt lat="44.6468683" lon="9.3089583"><ele>477.0</ele><time>2026-04-04T12:22:46.6Z</time></trkpt><trkpt lat="44.6467867" lon="9.308865"><ele>476.0</ele><time>2026-04-04T12:22:47.6Z</time></trkpt><trkpt lat="44.6467033" lon="9.308765"><ele>475.00000000000006</ele><time>2026-04-04T12:22:48.6Z</time></trkpt><trkpt lat="44.6466233" lon="9.30867"><ele>474.00000000000006</ele><time>2026-04-04T12:22:49.6Z</time></trkpt><trkpt lat="44.6465367" lon="9.3085783"><ele>473.0</ele><time>2026-04-04T12:22:50.6Z</time></trkpt><trkpt lat="44.64645" lon="9.30849"><ele>472.0</ele><time>2026-04-04T12:22:51.601Z</time></trkpt><trkpt lat="44.6463667" lon="9.30841"><ele>472.0</ele><time>2026-04-04T12:22:52.599Z</time></trkpt><trkpt lat="44.6462883" lon="9.3083367"><ele>472.00000000000006</ele><time>2026-04-04T12:22:53.601Z</time></trkpt><trkpt lat="44.646235" lon="9.308255"><ele>472.00000000000006</ele><time>2026-04-04T12:22:54.601Z</time></trkpt><trkpt lat="44.646205" lon="9.3081483"><ele>472.0</ele><time>2026-04-04T12:22:55.6Z</time></trkpt><trkpt lat="44.6462" lon="9.3080083"><ele>472.0</ele><time>2026-04-04T12:22:56.601Z</time></trkpt><trkpt lat="44.6462167" lon="9.30783"><ele>469.5</ele><time>2026-04-04T12:22:57.601Z</time></trkpt><trkpt lat="44.646235" lon="9.3076533"><ele>467.0</ele><time>2026-04-04T12:22:58.599Z</time></trkpt><trkpt lat="44.6462433" lon="9.30749"><ele>464.5</ele><time>2026-04-04T12:22:59.601Z</time></trkpt><trkpt lat="44.64623" lon="9.3073333"><ele>462.0</ele><time>2026-04-04T12:23:00.601Z</time></trkpt><trkpt lat="44.6462017" lon="9.3071833"><ele>463.20000000000005</ele><time>2026-04-04T12:23:01.6Z</time></trkpt><trkpt lat="44.6461683" lon="9.3070383"><ele>464.40000000000003</ele><time>2026-04-04T12:23:02.601Z</time></trkpt><trkpt lat="44.6461367" lon="9.3068967"><ele>465.59999999999997</ele><time>2026-04-04T12:23:03.6Z</time></trkpt><trkpt lat="44.6460933" lon="9.3067633"><ele>466.79999999999995</ele><time>2026-04-04T12:23:04.599Z</time></trkpt><trkpt lat="44.6460333" lon="9.30665"><ele>468.0</ele><time>2026-04-04T12:23:05.6Z</time></trkpt><trkpt lat="44.6459483" lon="9.30656"><ele>468.0</ele><time>2026-04-04T12:23:06.601Z</time></trkpt><trkpt lat="44.64585" lon="9.30648"><ele>468.0</ele><time>2026-04-04T12:23:07.599Z</time></trkpt><trkpt lat="44.6457517" lon="9.3063933"><ele>468.0</ele><time>2026-04-04T12:23:08.6Z</time></trkpt><trkpt lat="44.6456617" lon="9.30629"><ele>468.0</ele><time>2026-04-04T12:23:09.6Z</time></trkpt><trkpt lat="44.645565" lon="9.30619"><ele>469.25</ele><time>2026-04-04T12:23:10.601Z</time></trkpt><trkpt lat="44.6454583" lon="9.3061167"><ele>470.5</ele><time>2026-04-04T12:23:11.6Z</time></trkpt><trkpt lat="44.6453467" lon="9.3060583"><ele>471.75</ele><time>2026-04-04T12:23:12.601Z</time></trkpt><trkpt lat="44.6452367" lon="9.30601"><ele>473.0</ele><time>2026-04-04T12:23:13.601Z</time></trkpt><trkpt lat="44.6451383" lon="9.30595"><ele>473.0</ele><time>2026-04-04T12:23:14.601Z</time></trkpt><trkpt lat="44.6450433" lon="9.30588"><ele>472.99999999999994</ele><time>2026-04-04T12:23:15.6Z</time></trkpt><trkpt lat="44.6449567" lon="9.3057983"><ele>472.99999999999994</ele><time>2026-04-04T12:23:16.6Z</time></trkpt><trkpt lat="44.6448833" lon="9.305705"><ele>473.0</ele><time>2026-04-04T12:23:17.601Z</time></trkpt><trkpt lat="44.6448183" lon="9.3056017"><ele>473.0</ele><time>2026-04-04T12:23:18.599Z</time></trkpt><trkpt lat="44.644765" lon="9.3054933"><ele>468.59999999999997</ele><time>2026-04-04T12:23:19.601Z</time></trkpt><trkpt lat="44.6447217" lon="9.305385"><ele>464.19999999999993</ele><time>2026-04-04T12:23:20.601Z</time></trkpt><trkpt lat="44.644695" lon="9.3052667"><ele>459.8</ele><time>2026-04-04T12:23:21.6Z</time></trkpt><trkpt lat="44.64469" lon="9.30514"><ele>455.4</ele><time>2026-04-04T12:23:22.602Z</time></trkpt><trkpt lat="44.6447067" lon="9.3050117"><ele>451.0</ele><time>2026-04-04T12:23:23.6Z</time></trkpt><trkpt lat="44.6447433" lon="9.3048933"><ele>451.00000000000006</ele><time>2026-04-04T12:23:24.601Z</time></trkpt><trkpt lat="44.644785" lon="9.3047933"><ele>451.0</ele><time>2026-04-04T12:23:25.601Z</time></trkpt><trkpt lat="44.644825" lon="9.3047167"><ele>451.0</ele><time>2026-04-04T12:23:26.601Z</time></trkpt><trkpt lat="44.6449083" lon="9.3046317"><ele>451.0</ele><time>2026-04-04T12:23:28.6Z</time></trkpt><trkpt lat="44.64497" lon="9.3046117"><ele>451.00000000000006</ele><time>2026-04-04T12:23:30.6Z</time></trkpt><trkpt lat="44.6450383" lon="9.304605"><ele>451.0</ele><time>2026-04-04T12:23:33.6Z</time></trkpt><trkpt lat="44.6451033" lon="9.30459"><ele>451.00000000000006</ele><time>2026-04-04T12:23:36.6Z</time></trkpt><trkpt lat="44.6451617" lon="9.30464"><ele>451.0</ele><time>2026-04-04T12:24:16.599Z</time></trkpt><trkpt lat="44.6452183" lon="9.3047267"><ele>451.0</ele><time>2026-04-04T12:24:18.6Z</time></trkpt><trkpt lat="44.6452767" lon="9.304775"><ele>451.0</ele><time>2026-04-04T12:24:19.602Z</time></trkpt><trkpt lat="44.6453517" lon="9.30482"><ele>451.00000000000006</ele><time>2026-04-04T12:24:20.6Z</time></trkpt><trkpt lat="44.64544" lon="9.304865"><ele>451.0</ele><time>2026-04-04T12:24:21.6Z</time></trkpt><trkpt lat="44.6455333" lon="9.3049133"><ele>453.8</ele><time>2026-04-04T12:24:22.601Z</time></trkpt><trkpt lat="44.6456283" lon="9.3049633"><ele>456.6</ele><time>2026-04-04T12:24:23.601Z</time></trkpt><trkpt lat="44.6457217" lon="9.3050133"><ele>459.4</ele><time>2026-04-04T12:24:24.6Z</time></trkpt><trkpt lat="44.6458183" lon="9.305065"><ele>462.2</ele><time>2026-04-04T12:24:25.601Z</time></trkpt><trkpt lat="44.6459167" lon="9.3051167"><ele>465.0</ele><time>2026-04-04T12:24:26.6Z</time></trkpt><trkpt lat="44.6460167" lon="9.30517"><ele>468.4</ele><time>2026-04-04T12:24:27.6Z</time></trkpt><trkpt lat="44.6461283" lon="9.305225"><ele>471.8</ele><time>2026-04-04T12:24:28.601Z</time></trkpt><trkpt lat="44.64624" lon="9.3052733"><ele>475.20000000000005</ele><time>2026-04-04T12:24:29.601Z</time></trkpt><trkpt lat="44.646345" lon="9.3053133"><ele>478.6</ele><time>2026-04-04T12:24:30.601Z</time></trkpt><trkpt lat="44.6464483" lon="9.3053417"><ele>482.0</ele><time>2026-04-04T12:24:31.6Z</time></trkpt><trkpt lat="44.6465483" lon="9.3053683"><ele>482.0</ele><time>2026-04-04T12:24:32.601Z</time></trkpt><trkpt lat="44.6466467" lon="9.3053967"><ele>482.00000000000006</ele><time>2026-04-04T12:24:33.601Z</time></trkpt><trkpt lat="44.6467517" lon="9.305435"><ele>482.00000000000006</ele><time>2026-04-04T12:24:34.601Z</time></trkpt><trkpt lat="44.6468583" lon="9.3054733"><ele>482.0</ele><time>2026-04-04T12:24:35.6Z</time></trkpt><trkpt lat="44.6469667" lon="9.30551"><ele>482.0</ele><time>2026-04-04T12:24:36.603Z</time></trkpt><trkpt lat="44.6470767" lon="9.3055333"><ele>486.25</ele><time>2026-04-04T12:24:37.599Z</time></trkpt><trkpt lat="44.6471833" lon="9.3055383"><ele>490.5</ele><time>2026-04-04T12:24:38.601Z</time></trkpt><trkpt lat="44.647295" lon="9.30553"><ele>494.75</ele><time>2026-04-04T12:24:39.6Z</time></trkpt><trkpt lat="44.6474117" lon="9.3055333"><ele>499.0</ele><time>2026-04-04T12:24:40.6Z</time></trkpt><trkpt lat="44.6475283" lon="9.305545"><ele>499.0</ele><time>2026-04-04T12:24:41.601Z</time></trkpt><trkpt lat="44.647645" lon="9.305555"><ele>499.0</ele><time>2026-04-04T12:24:42.601Z</time></trkpt><trkpt lat="44.64776" lon="9.305555"><ele>499.0</ele><time>2026-04-04T12:24:43.601Z</time></trkpt><trkpt lat="44.647865" lon="9.3055433"><ele>499.0</ele><time>2026-04-04T12:24:44.601Z</time></trkpt><trkpt lat="44.6479667" lon="9.3055217"><ele>499.0</ele><time>2026-04-04T12:24:45.601Z</time></trkpt><trkpt lat="44.648065" lon="9.3054983"><ele>501.1666666666667</ele><time>2026-04-04T12:24:46.601Z</time></trkpt><trkpt lat="44.6481567" lon="9.3054883"><ele>503.33333333333337</ele><time>2026-04-04T12:24:47.601Z</time></trkpt><trkpt lat="44.6482433" lon="9.30549"><ele>505.5</ele><time>2026-04-04T12:24:48.601Z</time></trkpt><trkpt lat="44.6483233" lon="9.305505"><ele>507.66666666666663</ele><time>2026-04-04T12:24:49.6Z</time></trkpt><trkpt lat="44.6483933" lon="9.3055233"><ele>509.8333333333333</ele><time>2026-04-04T12:24:50.6Z</time></trkpt><trkpt lat="44.6485" lon="9.3055317"><ele>512.0</ele><time>2026-04-04T12:24:52.601Z</time></trkpt><trkpt lat="44.6484467" lon="9.3054417"><ele>511.99999999999994</ele><time>2026-04-04T12:24:55.601Z</time></trkpt><trkpt lat="44.6483767" lon="9.3054183"><ele>512.0</ele><time>2026-04-04T12:24:56.601Z</time></trkpt><trkpt lat="44.6483" lon="9.305405"><ele>512.0</ele><time>2026-04-04T12:24:57.599Z</time></trkpt><trkpt lat="44.6482167" lon="9.305385"><ele>512.0</ele><time>2026-04-04T12:24:58.6Z</time></trkpt><trkpt lat="44.6481233" lon="9.30535"><ele>511.99999999999994</ele><time>2026-04-04T12:24:59.6Z</time></trkpt><trkpt lat="44.6480183" lon="9.3053067"><ele>512.0</ele><time>2026-04-04T12:25:00.6Z</time></trkpt><trkpt lat="44.6479133" lon="9.30525"><ele>512.0</ele><time>2026-04-04T12:25:01.601Z</time></trkpt><trkpt lat="44.6478117" lon="9.3051933"><ele>512.0</ele><time>2026-04-04T12:25:02.6Z</time></trkpt><trkpt lat="44.64771" lon="9.3051333"><ele>512.0</ele><time>2026-04-04T12:25:03.601Z</time></trkpt><trkpt lat="44.6476" lon="9.3050683"><ele>512.0</ele><time>2026-04-04T12:25:04.6Z</time></trkpt><trkpt lat="44.647485" lon="9.3049967"><ele>508.75</ele><time>2026-04-04T12:25:05.601Z</time></trkpt><trkpt lat="44.6473633" lon="9.3049217"><ele>505.5</ele><time>2026-04-04T12:25:06.6Z</time></trkpt><trkpt lat="44.6472417" lon="9.30485"><ele>502.25</ele><time>2026-04-04T12:25:07.6Z</time></trkpt><trkpt lat="44.6471233" lon="9.304785"><ele>499.0</ele><time>2026-04-04T12:25:08.602Z</time></trkpt><trkpt lat="44.6470033" lon="9.3047217"><ele>502.25</ele><time>2026-04-04T12:25:09.6Z</time></trkpt><trkpt lat="44.6468817" lon="9.304655"><ele>505.5</ele><time>2026-04-04T12:25:10.603Z</time></trkpt><trkpt lat="44.6467583" lon="9.30459"><ele>508.75</ele><time>2026-04-04T12:25:11.601Z</time></trkpt><trkpt lat="44.646635" lon="9.3045233"><ele>512.0</ele><time>2026-04-04T12:25:12.6Z</time></trkpt><trkpt lat="44.6465133" lon="9.3044633"><ele>512.0</ele><time>2026-04-04T12:25:13.601Z</time></trkpt><trkpt lat="44.6463917" lon="9.30439"><ele>512.0</ele><time>2026-04-04T12:25:14.601Z</time></trkpt><trkpt lat="44.64628" lon="9.3043133"><ele>512.0</ele><time>2026-04-04T12:25:15.6Z</time></trkpt><trkpt lat="44.64618" lon="9.3042383"><ele>512.0</ele><time>2026-04-04T12:25:16.6Z</time></trkpt><trkpt lat="44.646085" lon="9.30415"><ele>512.0</ele><time>2026-04-04T12:25:17.6Z</time></trkpt><trkpt lat="44.6459983" lon="9.304065"><ele>512.0</ele><time>2026-04-04T12:25:18.601Z</time></trkpt><trkpt lat="44.6459233" lon="9.303985"><ele>512.0</ele><time>2026-04-04T12:25:19.6Z</time></trkpt><trkpt lat="44.645855" lon="9.3039083"><ele>512.0</ele><time>2026-04-04T12:25:20.6Z</time></trkpt><trkpt lat="44.6457967" lon="9.3038217"><ele>512.0</ele><time>2026-04-04T12:25:21.6Z</time></trkpt><trkpt lat="44.6457483" lon="9.3037133"><ele>512.0</ele><time>2026-04-04T12:25:22.602Z</time></trkpt><trkpt lat="44.64572" lon="9.3035833"><ele>512.0</ele><time>2026-04-04T12:25:23.601Z</time></trkpt><trkpt lat="44.6457167" lon="9.3034433"><ele>512.0</ele><time>2026-04-04T12:25:24.601Z</time></trkpt><trkpt lat="44.645735" lon="9.3032867"><ele>512.0</ele><time>2026-04-04T12:25:25.601Z</time></trkpt><trkpt lat="44.6457633" lon="9.3031233"><ele>512.0</ele><time>2026-04-04T12:25:26.601Z</time></trkpt><trkpt lat="44.6457867" lon="9.302965"><ele>511.8</ele><time>2026-04-04T12:25:27.601Z</time></trkpt><trkpt lat="44.645795" lon="9.3028117"><ele>511.6</ele><time>2026-04-04T12:25:28.601Z</time></trkpt><trkpt lat="44.645785" lon="9.3026717"><ele>511.40000000000003</ele><time>2026-04-04T12:25:29.6Z</time></trkpt><trkpt lat="44.64577" lon="9.3025433"><ele>511.20000000000005</ele><time>2026-04-04T12:25:30.601Z</time></trkpt><trkpt lat="44.64576" lon="9.3024167"><ele>511.0</ele><time>2026-04-04T12:25:31.6Z</time></trkpt><trkpt lat="44.64577" lon="9.3022933"><ele>510.20000000000005</ele><time>2026-04-04T12:25:32.6Z</time></trkpt><trkpt lat="44.64581" lon="9.3021683"><ele>509.40000000000003</ele><time>2026-04-04T12:25:33.603Z</time></trkpt><trkpt lat="44.6458783" lon="9.30204"><ele>508.6</ele><time>2026-04-04T12:25:34.601Z</time></trkpt><trkpt lat="44.6459617" lon="9.3019267"><ele>507.8</ele><time>2026-04-04T12:25:35.6Z</time></trkpt><trkpt lat="44.6460517" lon="9.3018433"><ele>507.0</ele><time>2026-04-04T12:25:36.599Z</time></trkpt><trkpt lat="44.64614" lon="9.301805"><ele>510.6666666666667</ele><time>2026-04-04T12:25:37.601Z</time></trkpt><trkpt lat="44.646225" lon="9.30178"><ele>514.3333333333334</ele><time>2026-04-04T12:25:38.601Z</time></trkpt><trkpt lat="44.6463" lon="9.3017483"><ele>518.0</ele><time>2026-04-04T12:25:39.6Z</time></trkpt><trkpt lat="44.6463583" lon="9.301695"><ele>521.6666666666667</ele><time>2026-04-04T12:25:40.601Z</time></trkpt><trkpt lat="44.6464" lon="9.30162"><ele>525.3333333333334</ele><time>2026-04-04T12:25:41.601Z</time></trkpt><trkpt lat="44.6464083" lon="9.30152"><ele>529.0</ele><time>2026-04-04T12:25:42.601Z</time></trkpt><trkpt lat="44.64638" lon="9.301415"><ele>529.6666666666667</ele><time>2026-04-04T12:25:43.601Z</time></trkpt><trkpt lat="44.6463233" lon="9.301325"><ele>530.3333333333334</ele><time>2026-04-04T12:25:44.601Z</time></trkpt><trkpt lat="44.6462817" lon="9.3012367"><ele>531.0</ele><time>2026-04-04T12:25:45.601Z</time></trkpt><trkpt lat="44.6462483" lon="9.30115"><ele>531.6666666666666</ele><time>2026-04-04T12:25:46.601Z</time></trkpt><trkpt lat="44.6462317" lon="9.3010517"><ele>532.3333333333333</ele><time>2026-04-04T12:25:47.6Z</time></trkpt><trkpt lat="44.6462217" lon="9.3009483"><ele>533.0</ele><time>2026-04-04T12:25:48.601Z</time></trkpt><trkpt lat="44.6462233" lon="9.300835"><ele>533.0</ele><time>2026-04-04T12:25:49.599Z</time></trkpt><trkpt lat="44.646225" lon="9.3007133"><ele>533.0</ele><time>2026-04-04T12:25:50.603Z</time></trkpt><trkpt lat="44.6462267" lon="9.3005983"><ele>533.0</ele><time>2026-04-04T12:25:51.6Z</time></trkpt><trkpt lat="44.6462283" lon="9.3004717"><ele>533.0</ele><time>2026-04-04T12:25:52.601Z</time></trkpt><trkpt lat="44.6462333" lon="9.3003467"><ele>533.0</ele><time>2026-04-04T12:25:53.602Z</time></trkpt><trkpt lat="44.6462417" lon="9.30022"><ele>533.0</ele><time>2026-04-04T12:25:54.6Z</time></trkpt><trkpt lat="44.6462633" lon="9.30009"><ele>532.3333333333333</ele><time>2026-04-04T12:25:55.601Z</time></trkpt><trkpt lat="44.6462817" lon="9.2999583"><ele>531.6666666666666</ele><time>2026-04-04T12:25:56.601Z</time></trkpt><trkpt lat="44.6463033" lon="9.2998217"><ele>531.0</ele><time>2026-04-04T12:25:57.6Z</time></trkpt><trkpt lat="44.64632" lon="9.299705"><ele>530.3333333333334</ele><time>2026-04-04T12:25:58.601Z</time></trkpt><trkpt lat="44.64634" lon="9.29959"><ele>529.6666666666667</ele><time>2026-04-04T12:25:59.603Z</time></trkpt><trkpt lat="44.6463683" lon="9.2994917"><ele>529.0</ele><time>2026-04-04T12:26:00.6Z</time></trkpt><trkpt lat="44.64641" lon="9.29942"><ele>528.0</ele><time>2026-04-04T12:26:01.6Z</time></trkpt><trkpt lat="44.6465267" lon="9.2993733"><ele>527.0</ele><time>2026-04-04T12:26:03.602Z</time></trkpt><trkpt lat="44.6465967" lon="9.2993967"><ele>526.0</ele><time>2026-04-04T12:26:04.601Z</time></trkpt><trkpt lat="44.646675" lon="9.29942"><ele>525.0</ele><time>2026-04-04T12:26:05.6Z</time></trkpt><trkpt lat="44.646745" lon="9.2994283"><ele>524.0</ele><time>2026-04-04T12:26:06.601Z</time></trkpt><trkpt lat="44.6468183" lon="9.29944"><ele>523.0</ele><time>2026-04-04T12:26:07.601Z</time></trkpt><trkpt lat="44.64688" lon="9.2993633"><ele>523.0</ele><time>2026-04-04T12:26:09.603Z</time></trkpt><trkpt lat="44.6468383" lon="9.2992217"><ele>523.0</ele><time>2026-04-04T12:26:11.6Z</time></trkpt><trkpt lat="44.6467917" lon="9.29911"><ele>523.0</ele><time>2026-04-04T12:26:12.6Z</time></trkpt><trkpt lat="44.6467533" lon="9.2989867"><ele>523.0</ele><time>2026-04-04T12:26:13.6Z</time></trkpt><trkpt lat="44.646715" lon="9.29887"><ele>523.0</ele><time>2026-04-04T12:26:14.602Z</time></trkpt><trkpt lat="44.6466983" lon="9.298765"><ele>522.0</ele><time>2026-04-04T12:26:15.6Z</time></trkpt><trkpt lat="44.6467067" lon="9.2986633"><ele>521.0</ele><time>2026-04-04T12:26:16.601Z</time></trkpt><trkpt lat="44.646745" lon="9.29857"><ele>520.0</ele><time>2026-04-04T12:26:17.601Z</time></trkpt><trkpt lat="44.6468083" lon="9.2984833"><ele>519.0</ele><time>2026-04-04T12:26:18.601Z</time></trkpt><trkpt lat="44.6468567" lon="9.2984033"><ele>518.0</ele><time>2026-04-04T12:26:19.601Z</time></trkpt><trkpt lat="44.6468883" lon="9.29832"><ele>517.0</ele><time>2026-04-04T12:26:20.6Z</time></trkpt><trkpt lat="44.646905" lon="9.2981967"><ele>517.0</ele><time>2026-04-04T12:26:22.602Z</time></trkpt><trkpt lat="44.6467933" lon="9.2981183"><ele>517.0</ele><time>2026-04-04T12:26:24.601Z</time></trkpt><trkpt lat="44.6467217" lon="9.2980517"><ele>517.0</ele><time>2026-04-04T12:26:25.601Z</time></trkpt><trkpt lat="44.6466583" lon="9.297975"><ele>517.0</ele><time>2026-04-04T12:26:26.602Z</time></trkpt><trkpt lat="44.6466167" lon="9.2978933"><ele>517.0</ele><time>2026-04-04T12:26:27.6Z</time></trkpt><trkpt lat="44.6465867" lon="9.297805"><ele>517.0</ele><time>2026-04-04T12:26:28.6Z</time></trkpt><trkpt lat="44.6465583" lon="9.2976683"><ele>518.0</ele><time>2026-04-04T12:26:30.601Z</time></trkpt><trkpt lat="44.6465283" lon="9.297525"><ele>519.0</ele><time>2026-04-04T12:27:34.601Z</time></trkpt><trkpt lat="44.6466033" lon="9.297425"><ele>520.0</ele><time>2026-04-04T12:27:37.6Z</time></trkpt><trkpt lat="44.6467083" lon="9.29731"><ele>521.0</ele><time>2026-04-04T12:27:39.6Z</time></trkpt><trkpt lat="44.6467683" lon="9.2972383"><ele>522.0</ele><time>2026-04-04T12:27:40.601Z</time></trkpt><trkpt lat="44.64682" lon="9.2971767"><ele>522.0</ele><time>2026-04-04T12:27:41.601Z</time></trkpt><trkpt lat="44.6468783" lon="9.2971133"><ele>522.0</ele><time>2026-04-04T12:27:42.601Z</time></trkpt><trkpt lat="44.6469383" lon="9.2970467"><ele>522.0</ele><time>2026-04-04T12:27:43.6Z</time></trkpt><trkpt lat="44.6469983" lon="9.2969717"><ele>522.0</ele><time>2026-04-04T12:27:44.6Z</time></trkpt><trkpt lat="44.64705" lon="9.296905"><ele>522.0</ele><time>2026-04-04T12:27:45.601Z</time></trkpt><trkpt lat="44.647105" lon="9.2968483"><ele>522.0</ele><time>2026-04-04T12:27:46.601Z</time></trkpt><trkpt lat="44.64716" lon="9.296795"><ele>522.0</ele><time>2026-04-04T12:27:47.6Z</time></trkpt><trkpt lat="44.6472133" lon="9.296745"><ele>524.5</ele><time>2026-04-04T12:27:48.601Z</time></trkpt><trkpt lat="44.6472667" lon="9.2966967"><ele>527.0</ele><time>2026-04-04T12:27:49.601Z</time></trkpt><trkpt lat="44.6473833" lon="9.29663"><ele>529.5</ele><time>2026-04-04T12:27:51.6Z</time></trkpt><trkpt lat="44.6474533" lon="9.2965767"><ele>532.0</ele><time>2026-04-04T12:27:52.6Z</time></trkpt><trkpt lat="44.6475167" lon="9.2965267"><ele>534.5</ele><time>2026-04-04T12:27:53.601Z</time></trkpt><trkpt lat="44.6475983" lon="9.2964733"><ele>537.0</ele><time>2026-04-04T12:27:54.601Z</time></trkpt><trkpt lat="44.6476883" lon="9.296415"><ele>537.0</ele><time>2026-04-04T12:27:55.6Z</time></trkpt><trkpt lat="44.6477583" lon="9.2963717"><ele>537.0</ele><time>2026-04-04T12:27:56.602Z</time></trkpt><trkpt lat="44.6478267" lon="9.2963417"><ele>537.0</ele><time>2026-04-04T12:27:57.601Z</time></trkpt><trkpt lat="44.6479017" lon="9.296305"><ele>537.0</ele><time>2026-04-04T12:27:58.601Z</time></trkpt><trkpt lat="44.6479733" lon="9.2962683"><ele>537.0</ele><time>2026-04-04T12:27:59.606Z</time></trkpt><trkpt lat="44.6480533" lon="9.2962267"><ele>537.0</ele><time>2026-04-04T12:28:00.601Z</time></trkpt><trkpt lat="44.64813" lon="9.2962017"><ele>539.3333333333334</ele><time>2026-04-04T12:28:01.601Z</time></trkpt><trkpt lat="44.6482033" lon="9.2961733"><ele>541.6666666666666</ele><time>2026-04-04T12:28:02.602Z</time></trkpt><trkpt lat="44.6482717" lon="9.2961567"><ele>544.0</ele><time>2026-04-04T12:28:03.602Z</time></trkpt><trkpt lat="44.6483717" lon="9.2961333"><ele>546.3333333333333</ele><time>2026-04-04T12:28:05.601Z</time></trkpt><trkpt lat="44.648435" lon="9.2960817"><ele>548.6666666666666</ele><time>2026-04-04T12:28:07.601Z</time></trkpt><trkpt lat="44.6484867" lon="9.2959967"><ele>551.0</ele><time>2026-04-04T12:28:09.602Z</time></trkpt><trkpt lat="44.6485633" lon="9.2959317"><ele>554.1666666666666</ele><time>2026-04-04T12:28:11.601Z</time></trkpt><trkpt lat="44.6486517" lon="9.2959167"><ele>557.3333333333333</ele><time>2026-04-04T12:28:13.6Z</time></trkpt><trkpt lat="44.6487117" lon="9.2959533"><ele>560.5</ele><time>2026-04-04T12:28:15.601Z</time></trkpt><trkpt lat="44.6487583" lon="9.2960883"><ele>563.6666666666666</ele><time>2026-04-04T12:28:17.601Z</time></trkpt><trkpt lat="44.6487833" lon="9.2961917"><ele>566.8333333333334</ele><time>2026-04-04T12:28:18.601Z</time></trkpt><trkpt lat="44.6488133" lon="9.2963"><ele>570.0</ele><time>2026-04-04T12:28:19.602Z</time></trkpt><trkpt lat="44.6488417" lon="9.296415"><ele>569.5</ele><time>2026-04-04T12:28:20.602Z</time></trkpt><trkpt lat="44.6488633" lon="9.2965267"><ele>569.0</ele><time>2026-04-04T12:28:21.6Z</time></trkpt><trkpt lat="44.648875" lon="9.296635"><ele>568.5</ele><time>2026-04-04T12:28:22.601Z</time></trkpt><trkpt lat="44.64887" lon="9.2967267"><ele>568.0</ele><time>2026-04-04T12:28:23.602Z</time></trkpt><trkpt lat="44.6488717" lon="9.2968633"><ele>567.5</ele><time>2026-04-04T12:28:25.601Z</time></trkpt><trkpt lat="44.648955" lon="9.2968217"><ele>567.0</ele><time>2026-04-04T12:28:28.601Z</time></trkpt><trkpt lat="44.6490017" lon="9.2967367"><ele>567.0</ele><time>2026-04-04T12:28:29.601Z</time></trkpt><trkpt lat="44.649045" lon="9.29663"><ele>567.0</ele><time>2026-04-04T12:28:30.601Z</time></trkpt><trkpt lat="44.64907" lon="9.2965167"><ele>567.0</ele><time>2026-04-04T12:28:31.601Z</time></trkpt><trkpt lat="44.649085" lon="9.2964017"><ele>567.0</ele><time>2026-04-04T12:28:32.602Z</time></trkpt><trkpt lat="44.6490883" lon="9.2962867"><ele>567.0</ele><time>2026-04-04T12:28:33.601Z</time></trkpt><trkpt lat="44.64908" lon="9.29618"><ele>567.0</ele><time>2026-04-04T12:28:34.601Z</time></trkpt><trkpt lat="44.6490667" lon="9.29609"><ele>567.5</ele><time>2026-04-04T12:28:35.602Z</time></trkpt><trkpt lat="44.649035" lon="9.29594"><ele>568.0</ele><time>2026-04-04T12:28:37.601Z</time></trkpt><trkpt lat="44.6490217" lon="9.2958083"><ele>568.5</ele><time>2026-04-04T12:28:39.601Z</time></trkpt><trkpt lat="44.6490733" lon="9.2957233"><ele>569.0</ele><time>2026-04-04T12:28:41.602Z</time></trkpt><trkpt lat="44.6491433" lon="9.2958033"><ele>569.5</ele><time>2026-04-04T12:28:43.602Z</time></trkpt><trkpt lat="44.649165" lon="9.2958983"><ele>570.0</ele><time>2026-04-04T12:28:44.602Z</time></trkpt><trkpt lat="44.6491783" lon="9.2960083"><ele>570.0</ele><time>2026-04-04T12:28:45.6Z</time></trkpt><trkpt lat="44.6491867" lon="9.2961067"><ele>570.0</ele><time>2026-04-04T12:28:46.602Z</time></trkpt><trkpt lat="44.6492033" lon="9.29622"><ele>570.0</ele><time>2026-04-04T12:28:48.6Z</time></trkpt><trkpt lat="44.64925" lon="9.2963283"><ele>570.0</ele><time>2026-04-04T12:29:30.599Z</time></trkpt><trkpt lat="44.6492717" lon="9.2964383"><ele>570.0</ele><time>2026-04-04T12:29:31.601Z</time></trkpt><trkpt lat="44.6492933" lon="9.2965567"><ele>570.0</ele><time>2026-04-04T12:29:32.602Z</time></trkpt><trkpt lat="44.649315" lon="9.29667"><ele>569.4</ele><time>2026-04-04T12:29:33.601Z</time></trkpt><trkpt lat="44.6493367" lon="9.2967817"><ele>568.8</ele><time>2026-04-04T12:29:34.601Z</time></trkpt><trkpt lat="44.6493583" lon="9.2968933"><ele>568.2</ele><time>2026-04-04T12:29:35.599Z</time></trkpt><trkpt lat="44.6493883" lon="9.297015"><ele>567.6</ele><time>2026-04-04T12:29:36.601Z</time></trkpt><trkpt lat="44.64943" lon="9.2971467"><ele>567.0</ele><time>2026-04-04T12:29:37.601Z</time></trkpt><trkpt lat="44.649475" lon="9.2972767"><ele>570.1666666666666</ele><time>2026-04-04T12:29:38.602Z</time></trkpt><trkpt lat="44.6495217" lon="9.29739"><ele>573.3333333333334</ele><time>2026-04-04T12:29:39.601Z</time></trkpt><trkpt lat="44.6495617" lon="9.2974933"><ele>576.5</ele><time>2026-04-04T12:29:40.601Z</time></trkpt><trkpt lat="44.6495983" lon="9.2975983"><ele>579.6666666666667</ele><time>2026-04-04T12:29:41.6Z</time></trkpt><trkpt lat="44.64963" lon="9.2977117"><ele>582.8333333333334</ele><time>2026-04-04T12:29:42.601Z</time></trkpt><trkpt lat="44.6496533" lon="9.29783"><ele>586.0</ele><time>2026-04-04T12:29:43.6Z</time></trkpt><trkpt lat="44.6496667" lon="9.297965"><ele>586.75</ele><time>2026-04-04T12:29:44.6Z</time></trkpt><trkpt lat="44.6496767" lon="9.298115"><ele>587.5</ele><time>2026-04-04T12:29:45.601Z</time></trkpt><trkpt lat="44.64969" lon="9.2982833"><ele>588.25</ele><time>2026-04-04T12:29:46.6Z</time></trkpt><trkpt lat="44.6497017" lon="9.2984567"><ele>589.0</ele><time>2026-04-04T12:29:47.601Z</time></trkpt><trkpt lat="44.649715" lon="9.298615"><ele>589.0</ele><time>2026-04-04T12:29:48.599Z</time></trkpt><trkpt lat="44.6497333" lon="9.29876"><ele>589.0</ele><time>2026-04-04T12:29:49.601Z</time></trkpt><trkpt lat="44.6497617" lon="9.2988983"><ele>589.0</ele><time>2026-04-04T12:29:50.6Z</time></trkpt><trkpt lat="44.6498017" lon="9.2990433"><ele>589.0</ele><time>2026-04-04T12:29:51.6Z</time></trkpt><trkpt lat="44.6498533" lon="9.2991967"><ele>589.0</ele><time>2026-04-04T12:29:52.599Z</time></trkpt><trkpt lat="44.6499067" lon="9.2993517"><ele>589.25</ele><time>2026-04-04T12:29:53.6Z</time></trkpt><trkpt lat="44.649955" lon="9.299515"><ele>589.5</ele><time>2026-04-04T12:29:54.6Z</time></trkpt><trkpt lat="44.6499983" lon="9.2996917"><ele>589.75</ele><time>2026-04-04T12:29:55.601Z</time></trkpt><trkpt lat="44.6500367" lon="9.299875"><ele>590.0</ele><time>2026-04-04T12:29:56.601Z</time></trkpt><trkpt lat="44.650075" lon="9.3000633"><ele>588.75</ele><time>2026-04-04T12:29:57.601Z</time></trkpt><trkpt lat="44.6501033" lon="9.3002533"><ele>587.5</ele><time>2026-04-04T12:29:58.601Z</time></trkpt><trkpt lat="44.650125" lon="9.300425"><ele>586.25</ele><time>2026-04-04T12:29:59.601Z</time></trkpt><trkpt lat="44.6501383" lon="9.3005783"><ele>585.0</ele><time>2026-04-04T12:30:00.601Z</time></trkpt><trkpt lat="44.6501483" lon="9.3007133"><ele>584.6</ele><time>2026-04-04T12:30:01.6Z</time></trkpt><trkpt lat="44.650165" lon="9.3008317"><ele>584.2</ele><time>2026-04-04T12:30:02.602Z</time></trkpt><trkpt lat="44.6501917" lon="9.3009483"><ele>583.8</ele><time>2026-04-04T12:30:03.6Z</time></trkpt><trkpt lat="44.65023" lon="9.30107"><ele>583.4</ele><time>2026-04-04T12:30:04.6Z</time></trkpt><trkpt lat="44.650285" lon="9.3011967"><ele>583.0</ele><time>2026-04-04T12:30:05.6Z</time></trkpt><trkpt lat="44.6503467" lon="9.3013317"><ele>589.0</ele><time>2026-04-04T12:30:06.6Z</time></trkpt><trkpt lat="44.650415" lon="9.30148"><ele>595.0</ele><time>2026-04-04T12:30:07.601Z</time></trkpt><trkpt lat="44.6504833" lon="9.3016417"><ele>601.0</ele><time>2026-04-04T12:30:08.6Z</time></trkpt><trkpt lat="44.65054" lon="9.3018167"><ele>607.0</ele><time>2026-04-04T12:30:09.6Z</time></trkpt><trkpt lat="44.6505817" lon="9.3020017"><ele>607.0</ele><time>2026-04-04T12:30:10.601Z</time></trkpt><trkpt lat="44.6506083" lon="9.3021867"><ele>607.0</ele><time>2026-04-04T12:30:11.601Z</time></trkpt><trkpt lat="44.6506333" lon="9.30237"><ele>607.0</ele><time>2026-04-04T12:30:12.602Z</time></trkpt><trkpt lat="44.6506533" lon="9.3025483"><ele>607.0</ele><time>2026-04-04T12:30:13.601Z</time></trkpt><trkpt lat="44.650675" lon="9.302725"><ele>606.6</ele><time>2026-04-04T12:30:14.606Z</time></trkpt><trkpt lat="44.650695" lon="9.30289"><ele>606.2</ele><time>2026-04-04T12:30:15.601Z</time></trkpt><trkpt lat="44.6507067" lon="9.3030383"><ele>605.8</ele><time>2026-04-04T12:30:16.602Z</time></trkpt><trkpt lat="44.6507167" lon="9.303165"><ele>605.4</ele><time>2026-04-04T12:30:17.601Z</time></trkpt><trkpt lat="44.6507283" lon="9.303275"><ele>605.0</ele><time>2026-04-04T12:30:18.6Z</time></trkpt><trkpt lat="44.6507567" lon="9.303405"><ele>604.0</ele><time>2026-04-04T12:30:20.6Z</time></trkpt><trkpt lat="44.6507767" lon="9.3035133"><ele>603.0</ele><time>2026-04-04T12:30:24.6Z</time></trkpt><trkpt lat="44.6507883" lon="9.3036333"><ele>602.0</ele><time>2026-04-04T12:30:27.6Z</time></trkpt><trkpt lat="44.6508333" lon="9.303735"><ele>601.0</ele><time>2026-04-04T12:30:29.6Z</time></trkpt><trkpt lat="44.6508883" lon="9.3037983"><ele>600.0</ele><time>2026-04-04T12:30:31.601Z</time></trkpt><trkpt lat="44.6509733" lon="9.30378"><ele>599.0</ele><time>2026-04-04T12:30:48.6Z</time></trkpt><trkpt lat="44.6510533" lon="9.3037483"><ele>603.0</ele><time>2026-04-04T12:30:50.602Z</time></trkpt><trkpt lat="44.65113" lon="9.3037183"><ele>607.0</ele><time>2026-04-04T12:30:52.602Z</time></trkpt><trkpt lat="44.6511883" lon="9.3036717"><ele>611.0</ele><time>2026-04-04T12:30:54.601Z</time></trkpt><trkpt lat="44.6512333" lon="9.3035783"><ele>615.0</ele><time>2026-04-04T12:30:57.601Z</time></trkpt><trkpt lat="44.6513067" lon="9.30357"><ele>619.0</ele><time>2026-04-04T12:31:01.601Z</time></trkpt><trkpt lat="44.651395" lon="9.3035233"><ele>623.0</ele><time>2026-04-04T12:31:05.6Z</time></trkpt><trkpt lat="44.6514517" lon="9.3034667"><ele>623.0</ele><time>2026-04-04T12:31:07.602Z</time></trkpt><trkpt lat="44.6515233" lon="9.3034283"><ele>623.0</ele><time>2026-04-04T12:31:10.6Z</time></trkpt><trkpt lat="44.6516133" lon="9.3034383"><ele>623.0</ele><time>2026-04-04T12:31:13.601Z</time></trkpt><trkpt lat="44.651695" lon="9.3034117"><ele>623.0</ele><time>2026-04-04T12:31:15.6Z</time></trkpt><trkpt lat="44.6517767" lon="9.3033633"><ele>623.0</ele><time>2026-04-04T12:31:17.6Z</time></trkpt><trkpt lat="44.651875" lon="9.3033517"><ele>623.0</ele><time>2026-04-04T12:31:19.6Z</time></trkpt><trkpt lat="44.6519917" lon="9.3033383"><ele>625.0</ele><time>2026-04-04T12:31:21.601Z</time></trkpt><trkpt lat="44.6520583" lon="9.3033233"><ele>627.0</ele><time>2026-04-04T12:31:22.601Z</time></trkpt><trkpt lat="44.65217" lon="9.3032817"><ele>629.0</ele><time>2026-04-04T12:31:24.6Z</time></trkpt><trkpt lat="44.6522467" lon="9.3032083"><ele>631.0</ele><time>2026-04-04T12:31:26.602Z</time></trkpt><trkpt lat="44.6522945" lon="9.3031146"><ele>633.0</ele><time>2026-04-04T12:31:28.601Z</time></trkpt><trkpt lat="44.6523901" lon="9.3030324"><ele>635.4285714285714</ele><time>2026-04-04T12:31:30.6Z</time></trkpt><trkpt lat="44.6524574" lon="9.3029892"><ele>637.8571428571429</ele><time>2026-04-04T12:31:31.601Z</time></trkpt><trkpt lat="44.6525285" lon="9.3029448"><ele>640.2857142857142</ele><time>2026-04-04T12:31:32.602Z</time></trkpt><trkpt lat="44.652601" lon="9.3029035"><ele>642.7142857142858</ele><time>2026-04-04T12:31:33.601Z</time></trkpt><trkpt lat="44.6526705" lon="9.3028644"><ele>645.1428571428572</ele><time>2026-04-04T12:31:34.6Z</time></trkpt><trkpt lat="44.652736" lon="9.3028229"><ele>647.5714285714286</ele><time>2026-04-04T12:31:35.602Z</time></trkpt><trkpt lat="44.6528001" lon="9.3027845"><ele>650.0</ele><time>2026-04-04T12:31:36.602Z</time></trkpt><trkpt lat="44.6528594" lon="9.3027477"><ele>650.0</ele><time>2026-04-04T12:31:37.601Z</time></trkpt><trkpt lat="44.6529345" lon="9.3026506"><ele>650.0</ele><time>2026-04-04T12:31:39.601Z</time></trkpt><trkpt lat="44.6529771" lon="9.3025144"><ele>650.0</ele><time>2026-04-04T12:31:41.601Z</time></trkpt><trkpt lat="44.6530119" lon="9.3023635"><ele>650.0</ele><time>2026-04-04T12:31:43.601Z</time></trkpt><trkpt lat="44.6530678" lon="9.3022252"><ele>650.0</ele><time>2026-04-04T12:31:45.601Z</time></trkpt><trkpt lat="44.6530984" lon="9.3021412"><ele>653.8571428571428</ele><time>2026-04-04T12:31:46.601Z</time></trkpt><trkpt lat="44.65313" lon="9.3020517"><ele>657.7142857142858</ele><time>2026-04-04T12:31:47.6Z</time></trkpt><trkpt lat="44.6531683" lon="9.3019683"><ele>661.5714285714286</ele><time>2026-04-04T12:31:48.599Z</time></trkpt><trkpt lat="44.653215" lon="9.301895"><ele>665.4285714285713</ele><time>2026-04-04T12:31:49.601Z</time></trkpt><trkpt lat="44.653265" lon="9.30183"><ele>669.2857142857142</ele><time>2026-04-04T12:31:50.602Z</time></trkpt><trkpt lat="44.6533167" lon="9.3017683"><ele>673.1428571428571</ele><time>2026-04-04T12:31:51.601Z</time></trkpt><trkpt lat="44.6533717" lon="9.30171"><ele>677.0</ele><time>2026-04-04T12:31:52.601Z</time></trkpt><trkpt lat="44.6534333" lon="9.30165"><ele>677.0</ele><time>2026-04-04T12:31:53.6Z</time></trkpt><trkpt lat="44.6535033" lon="9.3015867"><ele>677.0</ele><time>2026-04-04T12:31:54.601Z</time></trkpt><trkpt lat="44.6535733" lon="9.3015233"><ele>677.0</ele><time>2026-04-04T12:31:55.601Z</time></trkpt><trkpt lat="44.6536483" lon="9.30145"><ele>677.0</ele><time>2026-04-04T12:31:56.602Z</time></trkpt><trkpt lat="44.65373" lon="9.30136"><ele>677.0</ele><time>2026-04-04T12:31:57.6Z</time></trkpt><trkpt lat="44.6538133" lon="9.3012617"><ele>682.8</ele><time>2026-04-04T12:31:58.603Z</time></trkpt><trkpt lat="44.6538983" lon="9.3011617"><ele>688.6</ele><time>2026-04-04T12:31:59.602Z</time></trkpt><trkpt lat="44.6539833" lon="9.301065"><ele>694.4</ele><time>2026-04-04T12:32:00.604Z</time></trkpt><trkpt lat="44.65407" lon="9.3009683"><ele>700.1999999999999</ele><time>2026-04-04T12:32:01.603Z</time></trkpt><trkpt lat="44.6541467" lon="9.3008767"><ele>706.0</ele><time>2026-04-04T12:32:02.604Z</time></trkpt><trkpt lat="44.65422" lon="9.300795"><ele>706.0</ele><time>2026-04-04T12:32:03.603Z</time></trkpt><trkpt lat="44.654295" lon="9.3007183"><ele>706.0</ele><time>2026-04-04T12:32:04.602Z</time></trkpt><trkpt lat="44.65437" lon="9.30065"><ele>706.0</ele><time>2026-04-04T12:32:05.603Z</time></trkpt><trkpt lat="44.6544417" lon="9.30059"><ele>706.0</ele><time>2026-04-04T12:32:06.602Z</time></trkpt><trkpt lat="44.6545117" lon="9.30054"><ele>706.0</ele><time>2026-04-04T12:32:07.603Z</time></trkpt><trkpt lat="44.6545867" lon="9.300495"><ele>706.0</ele><time>2026-04-04T12:32:08.603Z</time></trkpt><trkpt lat="44.6546559" lon="9.3004429"><ele>710.6666666666667</ele><time>2026-04-04T12:32:09.603Z</time></trkpt><trkpt lat="44.6547173" lon="9.3003744"><ele>715.3333333333334</ele><time>2026-04-04T12:32:10.603Z</time></trkpt><trkpt lat="44.6547778" lon="9.3002913"><ele>720.0</ele><time>2026-04-04T12:32:11.601Z</time></trkpt><trkpt lat="44.6548368" lon="9.3002027"><ele>724.6666666666666</ele><time>2026-04-04T12:32:12.601Z</time></trkpt><trkpt lat="44.6548936" lon="9.3001242"><ele>729.3333333333333</ele><time>2026-04-04T12:32:13.601Z</time></trkpt><trkpt lat="44.6549482" lon="9.300067"><ele>734.0</ele><time>2026-04-04T12:32:14.601Z</time></trkpt><trkpt lat="44.6550106" lon="9.3000173"><ele>734.0</ele><time>2026-04-04T12:32:15.601Z</time></trkpt><trkpt lat="44.6550742" lon="9.2999701"><ele>734.0</ele><time>2026-04-04T12:32:16.6Z</time></trkpt><trkpt lat="44.6551681" lon="9.2999045"><ele>734.0</ele><time>2026-04-04T12:32:18.6Z</time></trkpt><trkpt lat="44.6552957" lon="9.2998633"><ele>734.0</ele><time>2026-04-04T12:32:20.601Z</time></trkpt><trkpt lat="44.6553776" lon="9.2998512"><ele>734.0</ele><time>2026-04-04T12:32:21.6Z</time></trkpt><trkpt lat="44.6554581" lon="9.2998404"><ele>735.0</ele><time>2026-04-04T12:32:22.601Z</time></trkpt><trkpt lat="44.655532" lon="9.299826"><ele>736.0</ele><time>2026-04-04T12:32:23.6Z</time></trkpt><trkpt lat="44.655599" lon="9.2998055"><ele>737.0</ele><time>2026-04-04T12:32:24.601Z</time></trkpt><trkpt lat="44.6556625" lon="9.2997956"><ele>738.0</ele><time>2026-04-04T12:32:25.603Z</time></trkpt><trkpt lat="44.6557676" lon="9.299781"><ele>739.0</ele><time>2026-04-04T12:32:27.601Z</time></trkpt><trkpt lat="44.6558414" lon="9.2997216"><ele>740.0</ele><time>2026-04-04T12:32:29.601Z</time></trkpt><trkpt lat="44.6558699" lon="9.2996301"><ele>743.5</ele><time>2026-04-04T12:32:31.602Z</time></trkpt><trkpt lat="44.6558539" lon="9.299528"><ele>747.0</ele><time>2026-04-04T12:32:36.602Z</time></trkpt><trkpt lat="44.6559" lon="9.2994661"><ele>750.5</ele><time>2026-04-04T12:32:38.601Z</time></trkpt><trkpt lat="44.655947" lon="9.2993916"><ele>754.0</ele><time>2026-04-04T12:32:40.601Z</time></trkpt><trkpt lat="44.6559977" lon="9.2992398"><ele>757.5</ele><time>2026-04-04T12:32:42.601Z</time></trkpt><trkpt lat="44.6560238" lon="9.2991497"><ele>761.0</ele><time>2026-04-04T12:32:43.601Z</time></trkpt><trkpt lat="44.6560428" lon="9.2990607"><ele>761.0</ele><time>2026-04-04T12:32:44.601Z</time></trkpt><trkpt lat="44.656057" lon="9.298971"><ele>761.0</ele><time>2026-04-04T12:32:45.601Z</time></trkpt><trkpt lat="44.6560839" lon="9.2988786"><ele>761.0</ele><time>2026-04-04T12:32:46.601Z</time></trkpt><trkpt lat="44.6561317" lon="9.2987817"><ele>761.0</ele><time>2026-04-04T12:32:47.601Z</time></trkpt><trkpt lat="44.6561783" lon="9.2987017"><ele>761.0</ele><time>2026-04-04T12:32:48.601Z</time></trkpt><trkpt lat="44.6562433" lon="9.2985917"><ele>761.0</ele><time>2026-04-04T12:32:50.601Z</time></trkpt><trkpt lat="44.6562717" lon="9.2985117"><ele>760.1666666666666</ele><time>2026-04-04T12:32:52.601Z</time></trkpt><trkpt lat="44.6563117" lon="9.29843"><ele>759.3333333333333</ele><time>2026-04-04T12:32:55.601Z</time></trkpt><trkpt lat="44.6563433" lon="9.2983083"><ele>758.5</ele><time>2026-04-04T12:32:58.601Z</time></trkpt><trkpt lat="44.6563667" lon="9.2982167"><ele>757.6666666666666</ele><time>2026-04-04T12:33:00.601Z</time></trkpt><trkpt lat="44.65635" lon="9.2980967"><ele>756.8333333333334</ele><time>2026-04-04T12:33:03.601Z</time></trkpt><trkpt lat="44.6563783" lon="9.29798"><ele>756.0</ele><time>2026-04-04T12:33:06.601Z</time></trkpt><trkpt lat="44.6564017" lon="9.2978433"><ele>758.8</ele><time>2026-04-04T12:33:09.6Z</time></trkpt><trkpt lat="44.6564167" lon="9.2977"><ele>761.5999999999999</ele><time>2026-04-04T12:33:11.601Z</time></trkpt><trkpt lat="44.65646" lon="9.2975617"><ele>764.4</ele><time>2026-04-04T12:33:13.601Z</time></trkpt><trkpt lat="44.6565017" lon="9.2974383"><ele>767.2</ele><time>2026-04-04T12:33:15.6Z</time></trkpt><trkpt lat="44.6565417" lon="9.29733"><ele>770.0</ele><time>2026-04-04T12:33:17.601Z</time></trkpt><trkpt lat="44.65659" lon="9.2972717"><ele>772.4</ele><time>2026-04-04T12:33:19.601Z</time></trkpt><trkpt lat="44.65664" lon="9.2971633"><ele>774.8</ele><time>2026-04-04T12:33:21.6Z</time></trkpt><trkpt lat="44.6566867" lon="9.29703"><ele>777.2</ele><time>2026-04-04T12:33:23.6Z</time></trkpt><trkpt lat="44.6567483" lon="9.2969083"><ele>779.6</ele><time>2026-04-04T12:33:25.6Z</time></trkpt><trkpt lat="44.6568067" lon="9.296765"><ele>782.0</ele><time>2026-04-04T12:33:27.601Z</time></trkpt><trkpt lat="44.6568383" lon="9.296685"><ele>782.0</ele><time>2026-04-04T12:33:28.601Z</time></trkpt><trkpt lat="44.6569033" lon="9.296545"><ele>782.0</ele><time>2026-04-04T12:33:30.6Z</time></trkpt><trkpt lat="44.6569717" lon="9.2964117"><ele>782.0</ele><time>2026-04-04T12:33:32.602Z</time></trkpt><trkpt lat="44.6570067" lon="9.2962767"><ele>782.0</ele><time>2026-04-04T12:33:34.601Z</time></trkpt><trkpt lat="44.6570583" lon="9.296135"><ele>782.2</ele><time>2026-04-04T12:33:36.601Z</time></trkpt><trkpt lat="44.6571283" lon="9.2959867"><ele>782.4000000000001</ele><time>2026-04-04T12:33:38.601Z</time></trkpt><trkpt lat="44.6572" lon="9.2958883"><ele>782.5999999999999</ele><time>2026-04-04T12:33:40.6Z</time></trkpt><trkpt lat="44.6572433" lon="9.295795"><ele>782.8</ele><time>2026-04-04T12:33:42.6Z</time></trkpt><trkpt lat="44.657295" lon="9.2957167"><ele>783.0</ele><time>2026-04-04T12:33:44.6Z</time></trkpt><trkpt lat="44.6573533" lon="9.2956317"><ele>784.0</ele><time>2026-04-04T12:33:46.6Z</time></trkpt><trkpt lat="44.6573933" lon="9.2955517"><ele>785.0</ele><time>2026-04-04T12:33:48.601Z</time></trkpt><trkpt lat="44.6574517" lon="9.2954267"><ele>786.0</ele><time>2026-04-04T12:33:51.602Z</time></trkpt><trkpt lat="44.6575117" lon="9.2953483"><ele>787.0</ele><time>2026-04-04T12:33:53.6Z</time></trkpt><trkpt lat="44.6575933" lon="9.2952883"><ele>788.0</ele><time>2026-04-04T12:33:55.601Z</time></trkpt><trkpt lat="44.657665" lon="9.2952533"><ele>789.0</ele><time>2026-04-04T12:33:57.599Z</time></trkpt><trkpt lat="44.65773" lon="9.2952117"><ele>789.5714285714286</ele><time>2026-04-04T12:33:59.602Z</time></trkpt><trkpt lat="44.6577983" lon="9.2951733"><ele>790.1428571428571</ele><time>2026-04-04T12:34:02.601Z</time></trkpt><trkpt lat="44.65786" lon="9.29513"><ele>790.7142857142858</ele><time>2026-04-04T12:34:05.6Z</time></trkpt><trkpt lat="44.6579317" lon="9.2950883"><ele>791.2857142857142</ele><time>2026-04-04T12:34:09.601Z</time></trkpt><trkpt lat="44.6580083" lon="9.2950133"><ele>791.8571428571429</ele><time>2026-04-04T12:34:12.601Z</time></trkpt><trkpt lat="44.6580683" lon="9.2949833"><ele>792.4285714285714</ele><time>2026-04-04T12:34:15.602Z</time></trkpt><trkpt lat="44.65814" lon="9.294975"><ele>793.0</ele><time>2026-04-04T12:34:19.602Z</time></trkpt><trkpt lat="44.65821" lon="9.2949833"><ele>792.9999999999999</ele><time>2026-04-04T12:34:21.6Z</time></trkpt><trkpt lat="44.658285" lon="9.2949733"><ele>793.0</ele><time>2026-04-04T12:34:23.601Z</time></trkpt><trkpt lat="44.658365" lon="9.2949367"><ele>793.0</ele><time>2026-04-04T12:34:26.602Z</time></trkpt><trkpt lat="44.6584283" lon="9.29489"><ele>793.0</ele><time>2026-04-04T12:34:29.6Z</time></trkpt><trkpt lat="44.6584867" lon="9.2948483"><ele>792.9999999999999</ele><time>2026-04-04T12:34:31.602Z</time></trkpt><trkpt lat="44.6585783" lon="9.2947617"><ele>793.0</ele><time>2026-04-04T12:34:43.602Z</time></trkpt><trkpt lat="44.6586417" lon="9.2947617"><ele>793.8333333333333</ele><time>2026-04-04T12:34:45.601Z</time></trkpt><trkpt lat="44.658735" lon="9.2947733"><ele>794.6666666666666</ele><time>2026-04-04T12:34:48.601Z</time></trkpt><trkpt lat="44.658805" lon="9.29477"><ele>795.5</ele><time>2026-04-04T12:34:50.601Z</time></trkpt><trkpt lat="44.65886" lon="9.2947233"><ele>796.3333333333333</ele><time>2026-04-04T12:34:53.602Z</time></trkpt><trkpt lat="44.6589433" lon="9.294715"><ele>797.1666666666666</ele><time>2026-04-04T12:35:09.601Z</time></trkpt><trkpt lat="44.65902" lon="9.29469"><ele>798.0</ele><time>2026-04-04T12:35:17.601Z</time></trkpt><trkpt lat="44.6590933" lon="9.294685"><ele>799.5</ele><time>2026-04-04T12:35:19.603Z</time></trkpt><trkpt lat="44.6591617" lon="9.2946533"><ele>801.0</ele><time>2026-04-04T12:35:21.601Z</time></trkpt><trkpt lat="44.6592367" lon="9.2946133"><ele>802.5</ele><time>2026-04-04T12:35:23.601Z</time></trkpt><trkpt lat="44.6592983" lon="9.2945733"><ele>804.0</ele><time>2026-04-04T12:35:25.602Z</time></trkpt><trkpt lat="44.65937" lon="9.294545"><ele>805.5</ele><time>2026-04-04T12:35:27.601Z</time></trkpt><trkpt lat="44.659445" lon="9.294475"><ele>807.0</ele><time>2026-04-04T12:35:29.601Z</time></trkpt><trkpt lat="44.659505" lon="9.2944333"><ele>808.2</ele><time>2026-04-04T12:35:31.601Z</time></trkpt><trkpt lat="44.6596033" lon="9.2944367"><ele>809.4000000000001</ele><time>2026-04-04T12:35:34.602Z</time></trkpt><trkpt lat="44.6597083" lon="9.2944583"><ele>810.5999999999999</ele><time>2026-04-04T12:35:36.602Z</time></trkpt><trkpt lat="44.659805" lon="9.2944333"><ele>811.8</ele><time>2026-04-04T12:35:38.602Z</time></trkpt><trkpt lat="44.65987" lon="9.2943833"><ele>813.0</ele><time>2026-04-04T12:35:40.601Z</time></trkpt><trkpt lat="44.6599517" lon="9.2943833"><ele>813.0</ele><time>2026-04-04T12:35:43.6Z</time></trkpt><trkpt lat="44.6600652" lon="9.2943316"><ele>813.0</ele><time>2026-04-04T12:42:37.6Z</time></trkpt><trkpt lat="44.6599953" lon="9.2943861"><ele>813.0</ele><time>2026-04-04T12:43:55.698Z</time></trkpt><trkpt lat="44.660059" lon="9.2943519"><ele>813.0</ele><time>2026-04-04T12:46:22.596Z</time></trkpt><trkpt lat="44.6600044" lon="9.2942755"><ele>813.0</ele><time>2026-04-04T12:46:25.665Z</time></trkpt><trkpt lat="44.6599489" lon="9.2943471"><ele>813.0</ele><time>2026-04-04T12:46:27.642Z</time></trkpt><trkpt lat="44.6598312" lon="9.2944845"><ele>813.0</ele><time>2026-04-04T12:46:39.601Z</time></trkpt><trkpt lat="44.6597418" lon="9.2944148"><ele>813.0</ele><time>2026-04-04T12:46:44.601Z</time></trkpt><trkpt lat="44.6597131" lon="9.2943226"><ele>813.0</ele><time>2026-04-04T12:46:46.577Z</time></trkpt><trkpt lat="44.6597689" lon="9.2942305"><ele>813.0</ele><time>2026-04-04T12:46:49.69Z</time></trkpt><trkpt lat="44.6598016" lon="9.2941526"><ele>813.0</ele><time>2026-04-04T12:46:50.625Z</time></trkpt><trkpt lat="44.6598498" lon="9.2940923"><ele>813.0</ele><time>2026-04-04T12:46:52.576Z</time></trkpt><trkpt lat="44.659781" lon="9.2940434"><ele>813.0</ele><time>2026-04-04T12:46:56.658Z</time></trkpt><trkpt lat="44.6597242" lon="9.2939629"><ele>813.0</ele><time>2026-04-04T12:46:59.674Z</time></trkpt><trkpt lat="44.6597186" lon="9.2938588"><ele>813.0</ele><time>2026-04-04T12:47:01.62Z</time></trkpt><trkpt lat="44.6596492" lon="9.2938084"><ele>813.0</ele><time>2026-04-04T12:47:03.625Z</time></trkpt><trkpt lat="44.6596871" lon="9.2937047"><ele>813.0</ele><time>2026-04-04T12:47:06.642Z</time></trkpt><trkpt lat="44.6597718" lon="9.2936798"><ele>813.0</ele><time>2026-04-04T12:47:08.697Z</time></trkpt><trkpt lat="44.6598585" lon="9.2936188"><ele>808.6666666666666</ele><time>2026-04-04T12:47:10.601Z</time></trkpt><trkpt lat="44.6599563" lon="9.2935901"><ele>804.3333333333333</ele><time>2026-04-04T12:47:12.6Z</time></trkpt><trkpt lat="44.6600701" lon="9.2936223"><ele>800.0</ele><time>2026-04-04T12:47:14.6Z</time></trkpt><trkpt lat="44.6601367" lon="9.293646"><ele>795.6666666666666</ele><time>2026-04-04T12:47:15.599Z</time></trkpt><trkpt lat="44.6602085" lon="9.2936711"><ele>791.3333333333333</ele><time>2026-04-04T12:47:16.6Z</time></trkpt><trkpt lat="44.6602825" lon="9.2937027"><ele>787.0</ele><time>2026-04-04T12:47:17.6Z</time></trkpt><trkpt lat="44.6603582" lon="9.2937416"><ele>783.6666666666666</ele><time>2026-04-04T12:47:18.6Z</time></trkpt><trkpt lat="44.6604377" lon="9.2937746"><ele>780.3333333333333</ele><time>2026-04-04T12:47:19.601Z</time></trkpt><trkpt lat="44.660514" lon="9.2937984"><ele>777.0</ele><time>2026-04-04T12:47:20.601Z</time></trkpt><trkpt lat="44.6605877" lon="9.2938184"><ele>773.6666666666666</ele><time>2026-04-04T12:47:21.599Z</time></trkpt><trkpt lat="44.6606635" lon="9.2938404"><ele>770.3333333333333</ele><time>2026-04-04T12:47:22.6Z</time></trkpt><trkpt lat="44.6607382" lon="9.2938605"><ele>767.0</ele><time>2026-04-04T12:47:23.601Z</time></trkpt><trkpt lat="44.6608104" lon="9.293888"><ele>767.0</ele><time>2026-04-04T12:47:24.6Z</time></trkpt><trkpt lat="44.6608738" lon="9.2939184"><ele>767.0</ele><time>2026-04-04T12:47:25.599Z</time></trkpt><trkpt lat="44.6609324" lon="9.2939512"><ele>767.0</ele><time>2026-04-04T12:47:26.601Z</time></trkpt><trkpt lat="44.6609927" lon="9.2939803"><ele>767.0</ele><time>2026-04-04T12:47:27.6Z</time></trkpt><trkpt lat="44.661059" lon="9.2940134"><ele>767.0</ele><time>2026-04-04T12:47:28.599Z</time></trkpt><trkpt lat="44.6611295" lon="9.2940481"><ele>767.0</ele><time>2026-04-04T12:47:29.602Z</time></trkpt><trkpt lat="44.6611982" lon="9.2940745"><ele>767.0</ele><time>2026-04-04T12:47:30.601Z</time></trkpt><trkpt lat="44.6613076" lon="9.2941368"><ele>769.1666666666666</ele><time>2026-04-04T12:47:32.602Z</time></trkpt><trkpt lat="44.6613594" lon="9.2941889"><ele>771.3333333333333</ele><time>2026-04-04T12:47:33.6Z</time></trkpt><trkpt lat="44.6614159" lon="9.2942533"><ele>773.5</ele><time>2026-04-04T12:47:34.601Z</time></trkpt><trkpt lat="44.6614728" lon="9.2943241"><ele>775.6666666666666</ele><time>2026-04-04T12:47:35.601Z</time></trkpt><trkpt lat="44.6615322" lon="9.2943872"><ele>777.8333333333334</ele><time>2026-04-04T12:47:36.601Z</time></trkpt><trkpt lat="44.6615911" lon="9.2944367"><ele>780.0</ele><time>2026-04-04T12:47:37.6Z</time></trkpt><trkpt lat="44.6617006" lon="9.2944786"><ele>780.0</ele><time>2026-04-04T12:47:39.6Z</time></trkpt><trkpt lat="44.6617945" lon="9.2944772"><ele>780.0</ele><time>2026-04-04T12:47:41.599Z</time></trkpt><trkpt lat="44.6618846" lon="9.2945099"><ele>780.0</ele><time>2026-04-04T12:47:43.601Z</time></trkpt><trkpt lat="44.6618707" lon="9.2946174"><ele>780.0</ele><time>2026-04-04T12:47:58.599Z</time></trkpt><trkpt lat="44.661909" lon="9.2947114"><ele>780.0</ele><time>2026-04-04T12:48:01.6Z</time></trkpt><trkpt lat="44.6619929" lon="9.2947379"><ele>780.0</ele><time>2026-04-04T12:48:04.6Z</time></trkpt><trkpt lat="44.6620791" lon="9.2947714"><ele>782.8</ele><time>2026-04-04T12:48:06.6Z</time></trkpt><trkpt lat="44.6621998" lon="9.294789"><ele>785.6</ele><time>2026-04-04T12:48:08.601Z</time></trkpt><trkpt lat="44.6622674" lon="9.294803"><ele>788.4000000000001</ele><time>2026-04-04T12:48:09.6Z</time></trkpt><trkpt lat="44.6623852" lon="9.2948572"><ele>791.2</ele><time>2026-04-04T12:48:11.6Z</time></trkpt><trkpt lat="44.6624465" lon="9.2948947"><ele>794.0</ele><time>2026-04-04T12:48:12.6Z</time></trkpt><trkpt lat="44.6625165" lon="9.2949289"><ele>794.0000000000001</ele><time>2026-04-04T12:48:13.601Z</time></trkpt><trkpt lat="44.6625884" lon="9.2949583"><ele>794.0</ele><time>2026-04-04T12:48:14.601Z</time></trkpt><trkpt lat="44.6626662" lon="9.2949909"><ele>794.0</ele><time>2026-04-04T12:48:15.601Z</time></trkpt><trkpt lat="44.6627438" lon="9.2950232"><ele>794.0</ele><time>2026-04-04T12:48:16.599Z</time></trkpt><trkpt lat="44.6628127" lon="9.2950497"><ele>794.0000000000001</ele><time>2026-04-04T12:48:17.601Z</time></trkpt><trkpt lat="44.6629304" lon="9.2950799"><ele>794.0</ele><time>2026-04-04T12:48:19.6Z</time></trkpt><trkpt lat="44.6630172" lon="9.2950956"><ele>798.2</ele><time>2026-04-04T12:48:21.601Z</time></trkpt><trkpt lat="44.66309" lon="9.2951144"><ele>802.4000000000001</ele><time>2026-04-04T12:48:23.601Z</time></trkpt><trkpt lat="44.66319" lon="9.2951175"><ele>806.6</ele><time>2026-04-04T12:48:25.601Z</time></trkpt><trkpt lat="44.6632942" lon="9.2951186"><ele>810.8</ele><time>2026-04-04T12:48:27.599Z</time></trkpt><trkpt lat="44.6634102" lon="9.2951206"><ele>815.0</ele><time>2026-04-04T12:48:29.6Z</time></trkpt><trkpt lat="44.6634809" lon="9.2951265"><ele>815.0000000000001</ele><time>2026-04-04T12:48:30.6Z</time></trkpt><trkpt lat="44.663547" lon="9.2951239"><ele>815.0</ele><time>2026-04-04T12:48:31.6Z</time></trkpt><trkpt lat="44.6636696" lon="9.2950715"><ele>815.0</ele><time>2026-04-04T12:48:33.601Z</time></trkpt><trkpt lat="44.6637379" lon="9.295036"><ele>815.0</ele><time>2026-04-04T12:48:34.6Z</time></trkpt><trkpt lat="44.6638098" lon="9.2950094"><ele>815.0000000000001</ele><time>2026-04-04T12:48:35.601Z</time></trkpt><trkpt lat="44.6638821" lon="9.29499"><ele>815.0</ele><time>2026-04-04T12:48:36.599Z</time></trkpt><trkpt lat="44.6639554" lon="9.2949787"><ele>818.2857142857142</ele><time>2026-04-04T12:48:37.603Z</time></trkpt><trkpt lat="44.6640249" lon="9.2949677"><ele>821.5714285714286</ele><time>2026-04-04T12:48:38.6Z</time></trkpt><trkpt lat="44.6641013" lon="9.2949529"><ele>824.8571428571429</ele><time>2026-04-04T12:48:39.6Z</time></trkpt><trkpt lat="44.6641746" lon="9.2949405"><ele>828.1428571428571</ele><time>2026-04-04T12:48:40.6Z</time></trkpt><trkpt lat="44.6642449" lon="9.2949319"><ele>831.4285714285714</ele><time>2026-04-04T12:48:41.6Z</time></trkpt><trkpt lat="44.6643103" lon="9.2949254"><ele>834.7142857142857</ele><time>2026-04-04T12:48:42.599Z</time></trkpt><trkpt lat="44.664378" lon="9.2949189"><ele>838.0</ele><time>2026-04-04T12:48:43.601Z</time></trkpt><trkpt lat="44.6644546" lon="9.2949151"><ele>842.6666666666666</ele><time>2026-04-04T12:48:44.603Z</time></trkpt><trkpt lat="44.6645304" lon="9.2949174"><ele>847.3333333333333</ele><time>2026-04-04T12:48:45.6Z</time></trkpt><trkpt lat="44.6646043" lon="9.2949243"><ele>852.0</ele><time>2026-04-04T12:48:46.601Z</time></trkpt><trkpt lat="44.6646733" lon="9.2949313"><ele>856.6666666666667</ele><time>2026-04-04T12:48:47.601Z</time></trkpt><trkpt lat="44.664791" lon="9.2949311"><ele>861.3333333333334</ele><time>2026-04-04T12:48:49.602Z</time></trkpt><trkpt lat="44.6648902" lon="9.2949276"><ele>866.0</ele><time>2026-04-04T12:48:51.599Z</time></trkpt><trkpt lat="44.664998" lon="9.2949372"><ele>866.0000000000001</ele><time>2026-04-04T12:48:53.602Z</time></trkpt><trkpt lat="44.6651202" lon="9.2949443"><ele>866.0</ele><time>2026-04-04T12:48:55.601Z</time></trkpt><trkpt lat="44.6651907" lon="9.2949525"><ele>866.0</ele><time>2026-04-04T12:48:56.601Z</time></trkpt><trkpt lat="44.6652616" lon="9.2949635"><ele>866.0</ele><time>2026-04-04T12:48:57.6Z</time></trkpt><trkpt lat="44.6653268" lon="9.294967"><ele>866.0000000000001</ele><time>2026-04-04T12:48:58.6Z</time></trkpt><trkpt lat="44.66544" lon="9.2949762"><ele>866.0</ele><time>2026-04-04T12:49:00.6Z</time></trkpt><trkpt lat="44.6655314" lon="9.2950076"><ele>871.5999999999999</ele><time>2026-04-04T12:49:02.601Z</time></trkpt><trkpt lat="44.6656207" lon="9.2950529"><ele>877.1999999999999</ele><time>2026-04-04T12:49:04.6Z</time></trkpt><trkpt lat="44.66571" lon="9.2950817"><ele>882.8000000000001</ele><time>2026-04-04T12:49:06.6Z</time></trkpt><trkpt lat="44.6658058" lon="9.2950507"><ele>888.4000000000001</ele><time>2026-04-04T12:49:08.6Z</time></trkpt><trkpt lat="44.6659194" lon="9.2950136"><ele>894.0</ele><time>2026-04-04T12:49:10.6Z</time></trkpt><trkpt lat="44.6659845" lon="9.2950019"><ele>894.0</ele><time>2026-04-04T12:49:11.6Z</time></trkpt><trkpt lat="44.6660503" lon="9.2949938"><ele>894.0</ele><time>2026-04-04T12:49:12.6Z</time></trkpt><trkpt lat="44.6661154" lon="9.294991"><ele>894.0</ele><time>2026-04-04T12:49:13.602Z</time></trkpt><trkpt lat="44.6661799" lon="9.2949976"><ele>894.0</ele><time>2026-04-04T12:49:14.601Z</time></trkpt><trkpt lat="44.6662924" lon="9.2950042"><ele>894.0</ele><time>2026-04-04T12:49:16.6Z</time></trkpt><trkpt lat="44.6663835" lon="9.2950003"><ele>894.0</ele><time>2026-04-04T12:49:18.6Z</time></trkpt><trkpt lat="44.6664693" lon="9.2950244"><ele>900.4000000000001</ele><time>2026-04-04T12:49:20.603Z</time></trkpt><trkpt lat="44.6665626" lon="9.29506"><ele>906.8000000000001</ele><time>2026-04-04T12:49:22.602Z</time></trkpt><trkpt lat="44.6666648" lon="9.2951027"><ele>913.1999999999999</ele><time>2026-04-04T12:49:24.601Z</time></trkpt><trkpt lat="44.6667543" lon="9.2951366"><ele>919.5999999999999</ele><time>2026-04-04T12:49:26.602Z</time></trkpt><trkpt lat="44.6668438" lon="9.2951518"><ele>926.0</ele><time>2026-04-04T12:49:28.601Z</time></trkpt><trkpt lat="44.6669416" lon="9.2951767"><ele>928.0000000000001</ele><time>2026-04-04T12:49:30.601Z</time></trkpt><trkpt lat="44.6670389" lon="9.295227"><ele>930.0</ele><time>2026-04-04T12:49:32.602Z</time></trkpt><trkpt lat="44.6671262" lon="9.2952763"><ele>932.0</ele><time>2026-04-04T12:49:34.601Z</time></trkpt><trkpt lat="44.6671928" lon="9.2953405"><ele>934.0</ele><time>2026-04-04T12:49:36.601Z</time></trkpt><trkpt lat="44.6672524" lon="9.2953712"><ele>936.0000000000001</ele><time>2026-04-04T12:49:38.601Z</time></trkpt><trkpt lat="44.667317" lon="9.2953554"><ele>938.0</ele><time>2026-04-04T12:49:40.601Z</time></trkpt><trkpt lat="44.6673133" lon="9.29525"><ele>938.0</ele><time>2026-04-04T12:52:13.602Z</time></trkpt><trkpt lat="44.66732" lon="9.2951533"><ele>938.0</ele><time>2026-04-04T12:52:15.6Z</time></trkpt><trkpt lat="44.667355" lon="9.2950617"><ele>938.0</ele><time>2026-04-04T12:52:19.601Z</time></trkpt><trkpt lat="44.6673983" lon="9.2949933"><ele>938.0</ele><time>2026-04-04T12:52:21.6Z</time></trkpt><trkpt lat="44.6674433" lon="9.2948983"><ele>938.0</ele><time>2026-04-04T12:52:23.6Z</time></trkpt><trkpt lat="44.667485" lon="9.2948083"><ele>938.0</ele><time>2026-04-04T12:52:25.601Z</time></trkpt><trkpt lat="44.6675367" lon="9.294725"><ele>938.0</ele><time>2026-04-04T12:52:27.601Z</time></trkpt><trkpt lat="44.66758" lon="9.2946367"><ele>938.3333333333334</ele><time>2026-04-04T12:52:29.602Z</time></trkpt><trkpt lat="44.6676333" lon="9.2945617"><ele>938.6666666666667</ele><time>2026-04-04T12:52:31.602Z</time></trkpt><trkpt lat="44.667705" lon="9.29448"><ele>939.0</ele><time>2026-04-04T12:52:33.601Z</time></trkpt><trkpt lat="44.6677883" lon="9.2944017"><ele>939.3333333333333</ele><time>2026-04-04T12:52:35.6Z</time></trkpt><trkpt lat="44.66785" lon="9.2943333"><ele>939.6666666666666</ele><time>2026-04-04T12:52:37.6Z</time></trkpt><trkpt lat="44.6678883" lon="9.2942383"><ele>940.0</ele><time>2026-04-04T12:52:39.601Z</time></trkpt><trkpt lat="44.667925" lon="9.2941133"><ele>939.1666666666666</ele><time>2026-04-04T12:52:41.6Z</time></trkpt><trkpt lat="44.6679717" lon="9.2939467"><ele>938.3333333333333</ele><time>2026-04-04T12:52:43.601Z</time></trkpt><trkpt lat="44.6680017" lon="9.2938617"><ele>937.5</ele><time>2026-04-04T12:52:44.601Z</time></trkpt><trkpt lat="44.6680333" lon="9.29378"><ele>936.6666666666667</ele><time>2026-04-04T12:52:45.6Z</time></trkpt><trkpt lat="44.6680633" lon="9.2936967"><ele>935.8333333333334</ele><time>2026-04-04T12:52:46.6Z</time></trkpt><trkpt lat="44.6680917" lon="9.2936167"><ele>935.0</ele><time>2026-04-04T12:52:47.601Z</time></trkpt><trkpt lat="44.6681233" lon="9.2935317"><ele>935.0000000000001</ele><time>2026-04-04T12:52:48.601Z</time></trkpt><trkpt lat="44.6681617" lon="9.2934517"><ele>935.0</ele><time>2026-04-04T12:52:49.601Z</time></trkpt><trkpt lat="44.6682067" lon="9.2933867"><ele>935.0000000000001</ele><time>2026-04-04T12:52:50.601Z</time></trkpt><trkpt lat="44.6682617" lon="9.293335"><ele>935.0000000000001</ele><time>2026-04-04T12:52:51.599Z</time></trkpt><trkpt lat="44.668325" lon="9.2932833"><ele>935.0</ele><time>2026-04-04T12:52:52.601Z</time></trkpt><trkpt lat="44.66839" lon="9.29324"><ele>935.0000000000001</ele><time>2026-04-04T12:52:53.6Z</time></trkpt><trkpt lat="44.6684517" lon="9.2931983"><ele>935.0000000000001</ele><time>2026-04-04T12:52:54.6Z</time></trkpt><trkpt lat="44.6685383" lon="9.2931233"><ele>934.5714285714287</ele><time>2026-04-04T12:52:56.601Z</time></trkpt><trkpt lat="44.66858" lon="9.2930333"><ele>934.1428571428571</ele><time>2026-04-04T12:52:58.6Z</time></trkpt><trkpt lat="44.6686017" lon="9.2929417"><ele>933.7142857142858</ele><time>2026-04-04T12:53:00.601Z</time></trkpt><trkpt lat="44.66863" lon="9.29285"><ele>933.2857142857143</ele><time>2026-04-04T12:53:02.601Z</time></trkpt><trkpt lat="44.6686633" lon="9.2927483"><ele>932.8571428571429</ele><time>2026-04-04T12:53:05.6Z</time></trkpt><trkpt lat="44.6686817" lon="9.2926383"><ele>932.4285714285714</ele><time>2026-04-04T12:53:10.601Z</time></trkpt><trkpt lat="44.668655" lon="9.2925567"><ele>932.0</ele><time>2026-04-04T12:53:13.603Z</time></trkpt><trkpt lat="44.668615" lon="9.292435"><ele>932.0</ele><time>2026-04-04T12:53:16.601Z</time></trkpt><trkpt lat="44.6686033" lon="9.2923133"><ele>932.0</ele><time>2026-04-04T12:53:18.604Z</time></trkpt><trkpt lat="44.6686167" lon="9.2921767"><ele>932.0</ele><time>2026-04-04T12:53:20.602Z</time></trkpt><trkpt lat="44.6686367" lon="9.292045"><ele>932.0</ele><time>2026-04-04T12:53:22.601Z</time></trkpt><trkpt lat="44.6686233" lon="9.29192"><ele>932.0</ele><time>2026-04-04T12:53:24.601Z</time></trkpt><trkpt lat="44.6686017" lon="9.2918117"><ele>930.4000000000001</ele><time>2026-04-04T12:53:26.602Z</time></trkpt><trkpt lat="44.6686" lon="9.2916783"><ele>928.8000000000001</ele><time>2026-04-04T12:53:28.601Z</time></trkpt><trkpt lat="44.668615" lon="9.29154"><ele>927.2</ele><time>2026-04-04T12:53:30.601Z</time></trkpt><trkpt lat="44.6686083" lon="9.2914"><ele>925.6</ele><time>2026-04-04T12:53:32.601Z</time></trkpt><trkpt lat="44.6685717" lon="9.2912867"><ele>924.0</ele><time>2026-04-04T12:53:34.601Z</time></trkpt><trkpt lat="44.6685433" lon="9.29116"><ele>922.8333333333334</ele><time>2026-04-04T12:53:36.602Z</time></trkpt><trkpt lat="44.668555" lon="9.291"><ele>921.6666666666667</ele><time>2026-04-04T12:53:38.601Z</time></trkpt><trkpt lat="44.66855" lon="9.290885"><ele>920.5</ele><time>2026-04-04T12:53:40.601Z</time></trkpt><trkpt lat="44.6684917" lon="9.2908133"><ele>919.3333333333334</ele><time>2026-04-04T12:53:42.601Z</time></trkpt><trkpt lat="44.668425" lon="9.2907033"><ele>918.1666666666667</ele><time>2026-04-04T12:53:44.601Z</time></trkpt><trkpt lat="44.6684" lon="9.2906167"><ele>917.0</ele><time>2026-04-04T12:53:45.599Z</time></trkpt><trkpt lat="44.6683783" lon="9.290525"><ele>917.0</ele><time>2026-04-04T12:53:46.602Z</time></trkpt><trkpt lat="44.6683167" lon="9.290395"><ele>917.0</ele><time>2026-04-04T12:53:48.601Z</time></trkpt><trkpt lat="44.6682467" lon="9.290265"><ele>917.0</ele><time>2026-04-04T12:53:50.6Z</time></trkpt><trkpt lat="44.6681783" lon="9.290135"><ele>917.0</ele><time>2026-04-04T12:53:52.601Z</time></trkpt><trkpt lat="44.6681267" lon="9.289995"><ele>917.0</ele><time>2026-04-04T12:53:54.6Z</time></trkpt><trkpt lat="44.6680633" lon="9.289835"><ele>917.0</ele><time>2026-04-04T12:53:56.602Z</time></trkpt><trkpt lat="44.6680267" lon="9.28976"><ele>917.0</ele><time>2026-04-04T12:53:57.6Z</time></trkpt><trkpt lat="44.6679383" lon="9.2896333"><ele>917.0</ele><time>2026-04-04T12:53:59.6Z</time></trkpt><trkpt lat="44.667855" lon="9.2895183"><ele>917.0</ele><time>2026-04-04T12:54:01.599Z</time></trkpt><trkpt lat="44.6677917" lon="9.289435"><ele>911.4000000000001</ele><time>2026-04-04T12:54:03.6Z</time></trkpt><trkpt lat="44.6677333" lon="9.289345"><ele>905.8000000000001</ele><time>2026-04-04T12:54:05.602Z</time></trkpt><trkpt lat="44.6676867" lon="9.289235"><ele>900.2</ele><time>2026-04-04T12:54:07.601Z</time></trkpt><trkpt lat="44.6676317" lon="9.2891317"><ele>894.6</ele><time>2026-04-04T12:54:09.601Z</time></trkpt><trkpt lat="44.667565" lon="9.28904"><ele>889.0</ele><time>2026-04-04T12:54:11.6Z</time></trkpt><trkpt lat="44.6675067" lon="9.288925"><ele>888.9999999999999</ele><time>2026-04-04T12:54:13.601Z</time></trkpt><trkpt lat="44.6674767" lon="9.2887983"><ele>889.0</ele><time>2026-04-04T12:54:15.6Z</time></trkpt><trkpt lat="44.667475" lon="9.2886733"><ele>889.0</ele><time>2026-04-04T12:54:17.601Z</time></trkpt><trkpt lat="44.66747" lon="9.28855"><ele>889.0</ele><time>2026-04-04T12:54:20.601Z</time></trkpt><trkpt lat="44.6674683" lon="9.288435"><ele>888.9999999999999</ele><time>2026-04-04T12:54:22.601Z</time></trkpt><trkpt lat="44.6674567" lon="9.288325"><ele>889.0</ele><time>2026-04-04T12:54:24.601Z</time></trkpt><trkpt lat="44.6674333" lon="9.2882367"><ele>888.9999999999999</ele><time>2026-04-04T12:54:26.602Z</time></trkpt><trkpt lat="44.66741" lon="9.2881383"><ele>889.0</ele><time>2026-04-04T12:54:28.601Z</time></trkpt><trkpt lat="44.667385" lon="9.2880033"><ele>889.0</ele><time>2026-04-04T12:54:30.6Z</time></trkpt><trkpt lat="44.6673633" lon="9.28787"><ele>889.0</ele><time>2026-04-04T12:54:32.602Z</time></trkpt><trkpt lat="44.66737" lon="9.2877683"><ele>888.9999999999999</ele><time>2026-04-04T12:54:34.6Z</time></trkpt><trkpt lat="44.66741" lon="9.2876683"><ele>889.0</ele><time>2026-04-04T12:54:36.599Z</time></trkpt><trkpt lat="44.6674467" lon="9.2875717"><ele>888.8000000000001</ele><time>2026-04-04T12:54:38.602Z</time></trkpt><trkpt lat="44.667465" lon="9.2874567"><ele>888.6000000000001</ele><time>2026-04-04T12:54:40.601Z</time></trkpt><trkpt lat="44.6674817" lon="9.2873267"><ele>888.4</ele><time>2026-04-04T12:54:42.601Z</time></trkpt><trkpt lat="44.667495" lon="9.2871883"><ele>888.2</ele><time>2026-04-04T12:54:44.6Z</time></trkpt><trkpt lat="44.66752" lon="9.2870267"><ele>888.0</ele><time>2026-04-04T12:54:46.6Z</time></trkpt><trkpt lat="44.667545" lon="9.2868733"><ele>887.8</ele><time>2026-04-04T12:54:48.6Z</time></trkpt><trkpt lat="44.6675733" lon="9.2867333"><ele>887.5999999999999</ele><time>2026-04-04T12:54:50.601Z</time></trkpt><trkpt lat="44.66758" lon="9.2866183"><ele>887.4000000000001</ele><time>2026-04-04T12:54:52.601Z</time></trkpt><trkpt lat="44.6675433" lon="9.2865067"><ele>887.2</ele><time>2026-04-04T12:54:54.601Z</time></trkpt><trkpt lat="44.6674917" lon="9.2863583"><ele>887.0</ele><time>2026-04-04T12:54:56.601Z</time></trkpt><trkpt lat="44.6674383" lon="9.286225"><ele>887.4000000000001</ele><time>2026-04-04T12:54:58.601Z</time></trkpt><trkpt lat="44.6673983" lon="9.2860767"><ele>887.8000000000001</ele><time>2026-04-04T12:55:00.599Z</time></trkpt><trkpt lat="44.6673767" lon="9.2859917"><ele>888.2</ele><time>2026-04-04T12:55:01.601Z</time></trkpt><trkpt lat="44.6673483" lon="9.28591"><ele>888.6</ele><time>2026-04-04T12:55:02.601Z</time></trkpt><trkpt lat="44.66728" lon="9.2857917"><ele>889.0</ele><time>2026-04-04T12:55:04.601Z</time></trkpt><trkpt lat="44.6672417" lon="9.28565"><ele>888.4000000000001</ele><time>2026-04-04T12:55:06.601Z</time></trkpt><trkpt lat="44.6672367" lon="9.285495"><ele>887.8000000000001</ele><time>2026-04-04T12:55:08.602Z</time></trkpt><trkpt lat="44.6672533" lon="9.285335"><ele>887.1999999999999</ele><time>2026-04-04T12:55:10.602Z</time></trkpt><trkpt lat="44.6673033" lon="9.2851883"><ele>886.5999999999999</ele><time>2026-04-04T12:55:12.601Z</time></trkpt><trkpt lat="44.667345" lon="9.2850483"><ele>886.0</ele><time>2026-04-04T12:55:14.602Z</time></trkpt><trkpt lat="44.6674217" lon="9.28492"><ele>886.0</ele><time>2026-04-04T12:55:16.601Z</time></trkpt><trkpt lat="44.667475" lon="9.2848067"><ele>885.9999999999999</ele><time>2026-04-04T12:55:18.601Z</time></trkpt><trkpt lat="44.6675133" lon="9.284705"><ele>885.9999999999999</ele><time>2026-04-04T12:55:20.602Z</time></trkpt><trkpt lat="44.6675217" lon="9.284575"><ele>886.0</ele><time>2026-04-04T12:55:22.601Z</time></trkpt><trkpt lat="44.6675167" lon="9.28442"><ele>886.0</ele><time>2026-04-04T12:55:26.601Z</time></trkpt><trkpt lat="44.667505" lon="9.2843133"><ele>886.1999999999999</ele><time>2026-04-04T12:55:28.6Z</time></trkpt><trkpt lat="44.6674967" lon="9.2841983"><ele>886.3999999999999</ele><time>2026-04-04T12:55:30.602Z</time></trkpt><trkpt lat="44.6674667" lon="9.2840717"><ele>886.6</ele><time>2026-04-04T12:55:32.601Z</time></trkpt><trkpt lat="44.6674283" lon="9.2839283"><ele>886.8</ele><time>2026-04-04T12:55:34.601Z</time></trkpt><trkpt lat="44.6674233" lon="9.2837833"><ele>887.0</ele><time>2026-04-04T12:55:36.6Z</time></trkpt><trkpt lat="44.66747" lon="9.2836017"><ele>887.2</ele><time>2026-04-04T12:55:38.602Z</time></trkpt><trkpt lat="44.667505" lon="9.2834833"><ele>887.4000000000001</ele><time>2026-04-04T12:55:39.6Z</time></trkpt><trkpt lat="44.667535" lon="9.283345"><ele>887.5999999999999</ele><time>2026-04-04T12:55:40.601Z</time></trkpt><trkpt lat="44.6675533" lon="9.28319"><ele>887.8</ele><time>2026-04-04T12:55:41.601Z</time></trkpt><trkpt lat="44.6675617" lon="9.2830333"><ele>888.0</ele><time>2026-04-04T12:55:42.6Z</time></trkpt><trkpt lat="44.667555" lon="9.2828917"><ele>887.3333333333334</ele><time>2026-04-04T12:55:43.601Z</time></trkpt><trkpt lat="44.6675433" lon="9.2827667"><ele>886.6666666666667</ele><time>2026-04-04T12:55:44.601Z</time></trkpt><trkpt lat="44.667535" lon="9.2826617"><ele>886.0</ele><time>2026-04-04T12:55:45.601Z</time></trkpt><trkpt lat="44.6675517" lon="9.2825433"><ele>885.3333333333334</ele><time>2026-04-04T12:55:47.602Z</time></trkpt><trkpt lat="44.66764" lon="9.2826067"><ele>884.6666666666667</ele><time>2026-04-04T12:55:50.601Z</time></trkpt><trkpt lat="44.667665" lon="9.28271"><ele>884.0</ele><time>2026-04-04T12:55:51.601Z</time></trkpt><trkpt lat="44.6676933" lon="9.2828283"><ele>884.0000000000001</ele><time>2026-04-04T12:55:52.599Z</time></trkpt><trkpt lat="44.66773" lon="9.2829483"><ele>884.0</ele><time>2026-04-04T12:55:53.601Z</time></trkpt><trkpt lat="44.6677633" lon="9.28306"><ele>884.0</ele><time>2026-04-04T12:55:54.601Z</time></trkpt><trkpt lat="44.6677867" lon="9.2831683"><ele>884.0</ele><time>2026-04-04T12:55:55.6Z</time></trkpt><trkpt lat="44.6678" lon="9.2832717"><ele>884.0000000000001</ele><time>2026-04-04T12:55:56.601Z</time></trkpt><trkpt lat="44.6678067" lon="9.28336"><ele>884.0</ele><time>2026-04-04T12:55:57.6Z</time></trkpt><trkpt lat="44.6678333" lon="9.2835117"><ele>888.3333333333334</ele><time>2026-04-04T12:55:59.602Z</time></trkpt><trkpt lat="44.6679033" lon="9.2835817"><ele>892.6666666666667</ele><time>2026-04-04T12:56:01.602Z</time></trkpt><trkpt lat="44.66794" lon="9.283435"><ele>897.0</ele><time>2026-04-04T12:56:03.601Z</time></trkpt><trkpt lat="44.6679433" lon="9.283335"><ele>901.3333333333333</ele><time>2026-04-04T12:56:04.602Z</time></trkpt><trkpt lat="44.667945" lon="9.2832233"><ele>905.6666666666666</ele><time>2026-04-04T12:56:05.602Z</time></trkpt><trkpt lat="44.6679483" lon="9.2831233"><ele>910.0</ele><time>2026-04-04T12:56:06.602Z</time></trkpt><trkpt lat="44.66795" lon="9.2830317"><ele>909.9999999999999</ele><time>2026-04-04T12:56:07.602Z</time></trkpt><trkpt lat="44.6679833" lon="9.2828867"><ele>910.0</ele><time>2026-04-04T12:56:09.601Z</time></trkpt><trkpt lat="44.6680617" lon="9.282775"><ele>910.0</ele><time>2026-04-04T12:56:11.602Z</time></trkpt><trkpt lat="44.6681133" lon="9.2827233"><ele>910.0</ele><time>2026-04-04T12:56:12.601Z</time></trkpt><trkpt lat="44.6681683" lon="9.2826733"><ele>909.9999999999999</ele><time>2026-04-04T12:56:13.601Z</time></trkpt><trkpt lat="44.6682233" lon="9.2826233"><ele>910.0</ele><time>2026-04-04T12:56:14.602Z</time></trkpt><trkpt lat="44.6682767" lon="9.2825617"><ele>909.9999999999999</ele><time>2026-04-04T12:56:15.601Z</time></trkpt><trkpt lat="44.6683333" lon="9.2824883"><ele>910.0</ele><time>2026-04-04T12:56:16.6Z</time></trkpt><trkpt lat="44.668395" lon="9.2824067"><ele>910.0</ele><time>2026-04-04T12:56:17.601Z</time></trkpt><trkpt lat="44.6684633" lon="9.2823217"><ele>910.0</ele><time>2026-04-04T12:56:18.601Z</time></trkpt><trkpt lat="44.668535" lon="9.2822433"><ele>909.9999999999999</ele><time>2026-04-04T12:56:19.602Z</time></trkpt><trkpt lat="44.66861" lon="9.282175"><ele>910.0</ele><time>2026-04-04T12:56:20.603Z</time></trkpt><trkpt lat="44.6686833" lon="9.282115"><ele>912.9999999999999</ele><time>2026-04-04T12:56:21.601Z</time></trkpt><trkpt lat="44.668755" lon="9.2820633"><ele>916.0</ele><time>2026-04-04T12:56:22.601Z</time></trkpt><trkpt lat="44.6688267" lon="9.2820133"><ele>919.0</ele><time>2026-04-04T12:56:23.601Z</time></trkpt><trkpt lat="44.6688983" lon="9.2819633"><ele>922.0</ele><time>2026-04-04T12:56:24.6Z</time></trkpt><trkpt lat="44.6689733" lon="9.281905"><ele>924.9999999999999</ele><time>2026-04-04T12:56:25.599Z</time></trkpt><trkpt lat="44.6690483" lon="9.2818333"><ele>928.0</ele><time>2026-04-04T12:56:26.601Z</time></trkpt><trkpt lat="44.669115" lon="9.2817583"><ele>928.0</ele><time>2026-04-04T12:56:27.599Z</time></trkpt><trkpt lat="44.66918" lon="9.2816867"><ele>928.0</ele><time>2026-04-04T12:56:28.6Z</time></trkpt><trkpt lat="44.66925" lon="9.28161"><ele>928.0</ele><time>2026-04-04T12:56:29.6Z</time></trkpt><trkpt lat="44.6693217" lon="9.281525"><ele>928.0</ele><time>2026-04-04T12:56:30.6Z</time></trkpt><trkpt lat="44.6693883" lon="9.2814283"><ele>928.0</ele><time>2026-04-04T12:56:31.6Z</time></trkpt><trkpt lat="44.66944" lon="9.2813233"><ele>931.2</ele><time>2026-04-04T12:56:32.6Z</time></trkpt><trkpt lat="44.6695017" lon="9.2812317"><ele>934.4</ele><time>2026-04-04T12:56:33.601Z</time></trkpt><trkpt lat="44.669565" lon="9.2811567"><ele>937.6000000000001</ele><time>2026-04-04T12:56:34.601Z</time></trkpt><trkpt lat="44.6696483" lon="9.2810883"><ele>940.8000000000001</ele><time>2026-04-04T12:56:35.599Z</time></trkpt><trkpt lat="44.669735" lon="9.2810167"><ele>944.0</ele><time>2026-04-04T12:56:36.6Z</time></trkpt><trkpt lat="44.66982" lon="9.2809367"><ele>944.0</ele><time>2026-04-04T12:56:37.6Z</time></trkpt><trkpt lat="44.669905" lon="9.2808533"><ele>944.0000000000001</ele><time>2026-04-04T12:56:38.602Z</time></trkpt><trkpt lat="44.6699883" lon="9.2807683"><ele>944.0000000000001</ele><time>2026-04-04T12:56:39.599Z</time></trkpt><trkpt lat="44.670065" lon="9.28069"><ele>944.0</ele><time>2026-04-04T12:56:40.6Z</time></trkpt><trkpt lat="44.6701367" lon="9.28062"><ele>944.0</ele><time>2026-04-04T12:56:41.6Z</time></trkpt><trkpt lat="44.670205" lon="9.2805667"><ele>946.6666666666667</ele><time>2026-04-04T12:56:42.601Z</time></trkpt><trkpt lat="44.6702933" lon="9.2805033"><ele>949.3333333333334</ele><time>2026-04-04T12:56:44.6Z</time></trkpt><trkpt lat="44.67037" lon="9.2805133"><ele>952.0</ele><time>2026-04-04T12:56:47.601Z</time></trkpt><trkpt lat="44.670445" lon="9.2805267"><ele>954.6666666666667</ele><time>2026-04-04T12:56:49.601Z</time></trkpt><trkpt lat="44.670525" lon="9.28052"><ele>957.3333333333334</ele><time>2026-04-04T12:56:52.6Z</time></trkpt><trkpt lat="44.6706233" lon="9.2805633"><ele>960.0</ele><time>2026-04-04T12:58:28.6Z</time></trkpt><trkpt lat="44.670705" lon="9.2805583"><ele>960.0</ele><time>2026-04-04T12:58:31.6Z</time></trkpt><trkpt lat="44.6707883" lon="9.2805217"><ele>960.0</ele><time>2026-04-04T12:58:34.601Z</time></trkpt><trkpt lat="44.6708617" lon="9.2805067"><ele>960.0</ele><time>2026-04-04T12:58:36.6Z</time></trkpt><trkpt lat="44.6709417" lon="9.2805267"><ele>960.0</ele><time>2026-04-04T12:58:38.601Z</time></trkpt><trkpt lat="44.6710367" lon="9.2805633"><ele>960.0</ele><time>2026-04-04T12:58:40.601Z</time></trkpt><trkpt lat="44.6711367" lon="9.2806233"><ele>964.8</ele><time>2026-04-04T12:58:42.601Z</time></trkpt><trkpt lat="44.6711967" lon="9.280655"><ele>969.6</ele><time>2026-04-04T12:58:43.601Z</time></trkpt><trkpt lat="44.6712833" lon="9.2807133"><ele>974.4000000000001</ele><time>2026-04-04T12:58:45.602Z</time></trkpt><trkpt lat="44.6713767" lon="9.280755"><ele>979.2</ele><time>2026-04-04T12:58:47.602Z</time></trkpt><trkpt lat="44.671465" lon="9.28083"><ele>984.0</ele><time>2026-04-04T12:58:49.601Z</time></trkpt><trkpt lat="44.6715367" lon="9.28091"><ele>984.0</ele><time>2026-04-04T12:58:51.601Z</time></trkpt><trkpt lat="44.6715932" lon="9.2809731"><ele>984.0</ele><time>2026-04-04T12:58:53.601Z</time></trkpt><trkpt lat="44.6716572" lon="9.2810346"><ele>984.0</ele><time>2026-04-04T12:58:55.601Z</time></trkpt><trkpt lat="44.6717299" lon="9.281111"><ele>984.0</ele><time>2026-04-04T12:58:57.6Z</time></trkpt><trkpt lat="44.671809" lon="9.2811652"><ele>984.0</ele><time>2026-04-04T12:58:59.6Z</time></trkpt><trkpt lat="44.6719071" lon="9.2811969"><ele>984.0</ele><time>2026-04-04T12:59:02.354Z</time></trkpt><trkpt lat="44.6720241" lon="9.2812236"><ele>989.1666666666666</ele><time>2026-04-04T12:59:04.681Z</time></trkpt><trkpt lat="44.6721057" lon="9.281256"><ele>994.3333333333333</ele><time>2026-04-04T12:59:06.658Z</time></trkpt><trkpt lat="44.6721653" lon="9.2813328"><ele>999.5</ele><time>2026-04-04T12:59:08.634Z</time></trkpt><trkpt lat="44.6721952" lon="9.2814292"><ele>1004.6666666666666</ele><time>2026-04-04T12:59:10.61Z</time></trkpt><trkpt lat="44.6721526" lon="9.281532"><ele>1009.8333333333333</ele><time>2026-04-04T12:59:14.614Z</time></trkpt><trkpt lat="44.6720783" lon="9.2815638"><ele>1015.0</ele><time>2026-04-04T12:59:16.556Z</time></trkpt><trkpt lat="44.6720147" lon="9.2816332"><ele>1015.1666666666666</ele><time>2026-04-04T12:59:18.6Z</time></trkpt><trkpt lat="44.6719598" lon="9.2817053"><ele>1015.3333333333333</ele><time>2026-04-04T12:59:20.602Z</time></trkpt><trkpt lat="44.6718852" lon="9.2818214"><ele>1015.5</ele><time>2026-04-04T12:59:22.6Z</time></trkpt><trkpt lat="44.6718256" lon="9.2819221"><ele>1015.6666666666667</ele><time>2026-04-04T12:59:24.601Z</time></trkpt><trkpt lat="44.6717932" lon="9.2820105"><ele>1015.8333333333334</ele><time>2026-04-04T12:59:26.601Z</time></trkpt><trkpt lat="44.6718334" lon="9.2821037"><ele>1016.0</ele><time>2026-04-04T12:59:29.6Z</time></trkpt><trkpt lat="44.6719082" lon="9.2821519"><ele>1016.0000000000001</ele><time>2026-04-04T12:59:31.6Z</time></trkpt><trkpt lat="44.6719899" lon="9.2821901"><ele>1016.0</ele><time>2026-04-04T12:59:33.601Z</time></trkpt><trkpt lat="44.6720695" lon="9.282232"><ele>1016.0</ele><time>2026-04-04T12:59:35.6Z</time></trkpt><trkpt lat="44.6721314" lon="9.2822623"><ele>1016.0</ele><time>2026-04-04T12:59:37.633Z</time></trkpt><trkpt lat="44.6721863" lon="9.282315"><ele>1016.0000000000001</ele><time>2026-04-04T12:59:39.626Z</time></trkpt><trkpt lat="44.672227" lon="9.2823964"><ele>1016.0</ele><time>2026-04-04T12:59:41.602Z</time></trkpt><trkpt lat="44.6722209" lon="9.2825026"><ele>1019.0000000000001</ele><time>2026-04-04T12:59:44.618Z</time></trkpt><trkpt lat="44.6721603" lon="9.2826283"><ele>1022.0</ele><time>2026-04-04T12:59:47.634Z</time></trkpt><trkpt lat="44.6721339" lon="9.2827175"><ele>1025.0</ele><time>2026-04-04T12:59:48.601Z</time></trkpt><trkpt lat="44.6720996" lon="9.2828061"><ele>1028.0</ele><time>2026-04-04T12:59:49.603Z</time></trkpt><trkpt lat="44.672064" lon="9.2828896"><ele>1031.0</ele><time>2026-04-04T12:59:50.602Z</time></trkpt><trkpt lat="44.6720264" lon="9.2830349"><ele>1034.0</ele><time>2026-04-04T12:59:52.601Z</time></trkpt><trkpt lat="44.6720232" lon="9.2831313"><ele>1037.5</ele><time>2026-04-04T12:59:54.6Z</time></trkpt><trkpt lat="44.6720899" lon="9.2831684"><ele>1041.0</ele><time>2026-04-04T12:59:58.602Z</time></trkpt><trkpt lat="44.6721657" lon="9.2832232"><ele>1044.5</ele><time>2026-04-04T13:00:01.602Z</time></trkpt><trkpt lat="44.6722534" lon="9.2832858"><ele>1048.0</ele><time>2026-04-04T13:00:04.694Z</time></trkpt><trkpt lat="44.6723305" lon="9.2832312"><ele>1051.5</ele><time>2026-04-04T13:00:07.606Z</time></trkpt><trkpt lat="44.6724177" lon="9.2832189"><ele>1055.0</ele><time>2026-04-04T13:00:09.563Z</time></trkpt><trkpt lat="44.6724754" lon="9.2831676"><ele>1055.0</ele><time>2026-04-04T13:00:11.662Z</time></trkpt><trkpt lat="44.6725425" lon="9.2831163"><ele>1055.0</ele><time>2026-04-04T13:00:14.677Z</time></trkpt><trkpt lat="44.6726134" lon="9.2830785"><ele>1055.0</ele><time>2026-04-04T13:00:16.6Z</time></trkpt><trkpt lat="44.6726749" lon="9.2830465"><ele>1055.0</ele><time>2026-04-04T13:00:17.601Z</time></trkpt><trkpt lat="44.6727628" lon="9.2830203"><ele>1055.0</ele><time>2026-04-04T13:00:20.654Z</time></trkpt><trkpt lat="44.6728572" lon="9.2829524"><ele>1055.0</ele><time>2026-04-04T13:00:22.613Z</time></trkpt><trkpt lat="44.6729329" lon="9.2828898"><ele>1057.8333333333335</ele><time>2026-04-04T13:00:24.605Z</time></trkpt><trkpt lat="44.6730138" lon="9.282825"><ele>1060.6666666666667</ele><time>2026-04-04T13:00:26.6Z</time></trkpt><trkpt lat="44.6730944" lon="9.2827586"><ele>1063.5</ele><time>2026-04-04T13:00:28.6Z</time></trkpt><trkpt lat="44.6731541" lon="9.2827002"><ele>1066.3333333333333</ele><time>2026-04-04T13:00:30.658Z</time></trkpt><trkpt lat="44.6732271" lon="9.2826138"><ele>1069.1666666666665</ele><time>2026-04-04T13:00:32.6Z</time></trkpt><trkpt lat="44.6732819" lon="9.282569"><ele>1072.0</ele><time>2026-04-04T13:00:34.609Z</time></trkpt><trkpt lat="44.6733426" lon="9.2825207"><ele>1072.0</ele><time>2026-04-04T13:00:36.536Z</time></trkpt><trkpt lat="44.673418" lon="9.2824805"><ele>1072.0</ele><time>2026-04-04T13:00:39.656Z</time></trkpt><trkpt lat="44.6734733" lon="9.2824017"><ele>1072.0</ele><time>2026-04-04T13:00:42.602Z</time></trkpt><trkpt lat="44.6735333" lon="9.2823567"><ele>1072.0</ele><time>2026-04-04T13:00:44.6Z</time></trkpt><trkpt lat="44.6736217" lon="9.282315"><ele>1072.0</ele><time>2026-04-04T13:00:46.601Z</time></trkpt><trkpt lat="44.673695" lon="9.28228"><ele>1072.0</ele><time>2026-04-04T13:00:48.6Z</time></trkpt><trkpt lat="44.673775" lon="9.2822617"><ele>1075.6</ele><time>2026-04-04T13:00:50.601Z</time></trkpt><trkpt lat="44.673885" lon="9.2822317"><ele>1079.2</ele><time>2026-04-04T13:00:52.6Z</time></trkpt><trkpt lat="44.67399" lon="9.28222"><ele>1082.8</ele><time>2026-04-04T13:00:54.601Z</time></trkpt><trkpt lat="44.6740967" lon="9.282225"><ele>1086.4</ele><time>2026-04-04T13:00:56.602Z</time></trkpt><trkpt lat="44.6742033" lon="9.282225"><ele>1090.0</ele><time>2026-04-04T13:00:58.601Z</time></trkpt><trkpt lat="44.6742867" lon="9.282235"><ele>1097.6</ele><time>2026-04-04T13:01:00.602Z</time></trkpt><trkpt lat="44.6744467" lon="9.282275"><ele>1105.2</ele><time>2026-04-04T13:01:21.601Z</time></trkpt><trkpt lat="44.6745167" lon="9.282335"><ele>1112.8</ele><time>2026-04-04T13:01:24.602Z</time></trkpt><trkpt lat="44.6746083" lon="9.2824"><ele>1120.4</ele><time>2026-04-04T13:01:27.6Z</time></trkpt><trkpt lat="44.674705" lon="9.282415"><ele>1128.0</ele><time>2026-04-04T13:01:29.601Z</time></trkpt><trkpt lat="44.6747783" lon="9.2823883"><ele>1128.0</ele><time>2026-04-04T13:01:31.601Z</time></trkpt><trkpt lat="44.6748517" lon="9.28238"><ele>1128.0</ele><time>2026-04-04T13:01:33.601Z</time></trkpt><trkpt lat="44.6749267" lon="9.2823567"><ele>1128.0</ele><time>2026-04-04T13:01:35.601Z</time></trkpt><trkpt lat="44.675" lon="9.2823183"><ele>1128.0</ele><time>2026-04-04T13:01:37.602Z</time></trkpt><trkpt lat="44.675085" lon="9.2822583"><ele>1128.0</ele><time>2026-04-04T13:01:39.601Z</time></trkpt><trkpt lat="44.6751667" lon="9.2821917"><ele>1128.0</ele><time>2026-04-04T13:01:41.601Z</time></trkpt><trkpt lat="44.6752383" lon="9.2821283"><ele>1130.2</ele><time>2026-04-04T13:01:43.601Z</time></trkpt><trkpt lat="44.6753167" lon="9.28207"><ele>1132.4</ele><time>2026-04-04T13:01:45.603Z</time></trkpt><trkpt lat="44.6753961" lon="9.2820441"><ele>1134.6000000000001</ele><time>2026-04-04T13:01:47.601Z</time></trkpt><trkpt lat="44.6754815" lon="9.2819963"><ele>1136.8</ele><time>2026-04-04T13:01:49.6Z</time></trkpt><trkpt lat="44.6755573" lon="9.281923"><ele>1139.0</ele><time>2026-04-04T13:01:51.601Z</time></trkpt><trkpt lat="44.6756428" lon="9.2818264"><ele>1139.0</ele><time>2026-04-04T13:01:53.601Z</time></trkpt><trkpt lat="44.6757419" lon="9.2817506"><ele>1139.0</ele><time>2026-04-04T13:01:55.601Z</time></trkpt><trkpt lat="44.675823" lon="9.2816717"><ele>1139.0</ele><time>2026-04-04T13:01:57.6Z</time></trkpt><trkpt lat="44.6758811" lon="9.2816352"><ele>1139.0</ele><time>2026-04-04T13:01:59.601Z</time></trkpt><trkpt lat="44.6759497" lon="9.281585"><ele>1139.0</ele><time>2026-04-04T13:02:01.601Z</time></trkpt><trkpt lat="44.6760033" lon="9.2815268"><ele>1139.0</ele><time>2026-04-04T13:02:03.599Z</time></trkpt><trkpt lat="44.6760807" lon="9.2815073"><ele>1144.3333333333335</ele><time>2026-04-04T13:02:05.601Z</time></trkpt><trkpt lat="44.6761575" lon="9.2814879"><ele>1149.6666666666667</ele><time>2026-04-04T13:02:07.6Z</time></trkpt><trkpt lat="44.6762216" lon="9.2814211"><ele>1155.0</ele><time>2026-04-04T13:02:09.601Z</time></trkpt><trkpt lat="44.6762888" lon="9.2813274"><ele>1160.3333333333333</ele><time>2026-04-04T13:02:11.601Z</time></trkpt><trkpt lat="44.6763802" lon="9.2812464"><ele>1165.6666666666665</ele><time>2026-04-04T13:02:13.6Z</time></trkpt><trkpt lat="44.6764585" lon="9.2812007"><ele>1171.0</ele><time>2026-04-04T13:02:15.601Z</time></trkpt><trkpt lat="44.6765235" lon="9.2812039"><ele>1171.0</ele><time>2026-04-04T13:02:17.6Z</time></trkpt><trkpt lat="44.6766075" lon="9.281242"><ele>1171.0</ele><time>2026-04-04T13:02:20.601Z</time></trkpt><trkpt lat="44.6766814" lon="9.2812551"><ele>1171.0</ele><time>2026-04-04T13:02:22.6Z</time></trkpt><trkpt lat="44.6767485" lon="9.2812698"><ele>1171.0</ele><time>2026-04-04T13:02:24.601Z</time></trkpt><trkpt lat="44.6768242" lon="9.2812337"><ele>1171.0</ele><time>2026-04-04T13:02:28.6Z</time></trkpt><trkpt lat="44.6768525" lon="9.2811365"><ele>1171.0</ele><time>2026-04-04T13:02:31.601Z</time></trkpt><trkpt lat="44.676841" lon="9.2810257"><ele>1171.0</ele><time>2026-04-04T13:02:34.6Z</time></trkpt><trkpt lat="44.6768292" lon="9.2809183"><ele>1171.0</ele><time>2026-04-04T13:02:37.6Z</time></trkpt><trkpt lat="44.6768189" lon="9.2808216"><ele>1171.0</ele><time>2026-04-04T13:02:39.601Z</time></trkpt><trkpt lat="44.6768137" lon="9.2807113"><ele>1171.0</ele><time>2026-04-04T13:02:41.601Z</time></trkpt><trkpt lat="44.6768405" lon="9.2806235"><ele>1171.0</ele><time>2026-04-04T13:02:43.599Z</time></trkpt><trkpt lat="44.676899" lon="9.2805157"><ele>1171.0</ele><time>2026-04-04T13:02:45.601Z</time></trkpt><trkpt lat="44.6769866" lon="9.2804433"><ele>1177.6</ele><time>2026-04-04T13:02:47.599Z</time></trkpt><trkpt lat="44.6770912" lon="9.2804145"><ele>1184.1999999999998</ele><time>2026-04-04T13:02:49.6Z</time></trkpt><trkpt lat="44.677206" lon="9.2803792"><ele>1190.8000000000002</ele><time>2026-04-04T13:02:51.601Z</time></trkpt><trkpt lat="44.6773162" lon="9.2803222"><ele>1197.4</ele><time>2026-04-04T13:02:53.601Z</time></trkpt><trkpt lat="44.6773953" lon="9.2802829"><ele>1204.0</ele><time>2026-04-04T13:02:55.601Z</time></trkpt><trkpt lat="44.6774584" lon="9.2802607"><ele>1204.0</ele><time>2026-04-04T13:02:57.599Z</time></trkpt><trkpt lat="44.6775283" lon="9.2802191"><ele>1204.0</ele><time>2026-04-04T13:02:59.602Z</time></trkpt><trkpt lat="44.6776253" lon="9.2801863"><ele>1204.0</ele><time>2026-04-04T13:03:01.601Z</time></trkpt><trkpt lat="44.6777386" lon="9.2801818"><ele>1204.0</ele><time>2026-04-04T13:03:03.601Z</time></trkpt><trkpt lat="44.677825" lon="9.2801974"><ele>1204.0</ele><time>2026-04-04T13:03:05.6Z</time></trkpt><trkpt lat="44.6779227" lon="9.280178"><ele>1208.6000000000001</ele><time>2026-04-04T13:03:07.6Z</time></trkpt><trkpt lat="44.678033" lon="9.2801239"><ele>1213.2</ele><time>2026-04-04T13:03:09.6Z</time></trkpt><trkpt lat="44.6781416" lon="9.2800682"><ele>1217.8000000000002</ele><time>2026-04-04T13:03:11.6Z</time></trkpt><trkpt lat="44.6782409" lon="9.2800236"><ele>1222.4</ele><time>2026-04-04T13:03:13.601Z</time></trkpt><trkpt lat="44.6783377" lon="9.2800214"><ele>1227.0</ele><time>2026-04-04T13:03:16.601Z</time></trkpt><trkpt lat="44.6784261" lon="9.2800207"><ele>1227.0</ele><time>2026-04-04T13:03:18.6Z</time></trkpt><trkpt lat="44.6784979" lon="9.2800145"><ele>1227.0</ele><time>2026-04-04T13:03:20.602Z</time></trkpt><trkpt lat="44.6785754" lon="9.2799896"><ele>1227.0</ele><time>2026-04-04T13:03:22.601Z</time></trkpt><trkpt lat="44.678691" lon="9.2799453"><ele>1227.0</ele><time>2026-04-04T13:03:24.6Z</time></trkpt><trkpt lat="44.6787993" lon="9.2799013"><ele>1227.0</ele><time>2026-04-04T13:03:26.601Z</time></trkpt><trkpt lat="44.6789001" lon="9.2798775"><ele>1229.8333333333333</ele><time>2026-04-04T13:03:28.602Z</time></trkpt><trkpt lat="44.6789921" lon="9.2798795"><ele>1232.6666666666667</ele><time>2026-04-04T13:03:30.601Z</time></trkpt><trkpt lat="44.6790735" lon="9.2798912"><ele>1235.5</ele><time>2026-04-04T13:03:32.6Z</time></trkpt><trkpt lat="44.6791511" lon="9.2799203"><ele>1238.3333333333335</ele><time>2026-04-04T13:03:34.601Z</time></trkpt><trkpt lat="44.6792237" lon="9.2799351"><ele>1241.1666666666667</ele><time>2026-04-04T13:03:37.6Z</time></trkpt><trkpt lat="44.6792938" lon="9.279927"><ele>1244.0</ele><time>2026-04-04T13:03:41.6Z</time></trkpt><trkpt lat="44.6793556" lon="9.2799071"><ele>1244.0</ele><time>2026-04-04T13:03:44.6Z</time></trkpt><trkpt lat="44.6793242" lon="9.2798054"><ele>1244.0</ele><time>2026-04-04T13:05:42.6Z</time></trkpt><trkpt lat="44.6792783" lon="9.2796577"><ele>1244.0</ele><time>2026-04-04T13:05:44.601Z</time></trkpt><trkpt lat="44.6792437" lon="9.2795808"><ele>1244.0</ele><time>2026-04-04T13:05:45.6Z</time></trkpt><trkpt lat="44.6792035" lon="9.2795003"><ele>1244.0</ele><time>2026-04-04T13:05:46.601Z</time></trkpt><trkpt lat="44.6791538" lon="9.2794206"><ele>1244.0</ele><time>2026-04-04T13:05:47.6Z</time></trkpt><trkpt lat="44.6791037" lon="9.2793326"><ele>1248.1666666666667</ele><time>2026-04-04T13:05:48.601Z</time></trkpt><trkpt lat="44.6790491" lon="9.2792403"><ele>1252.3333333333335</ele><time>2026-04-04T13:05:49.601Z</time></trkpt><trkpt lat="44.6789949" lon="9.279139"><ele>1256.5</ele><time>2026-04-04T13:05:50.6Z</time></trkpt><trkpt lat="44.6789417" lon="9.2790465"><ele>1260.6666666666667</ele><time>2026-04-04T13:05:51.6Z</time></trkpt><trkpt lat="44.6788902" lon="9.2789568"><ele>1264.8333333333333</ele><time>2026-04-04T13:05:52.601Z</time></trkpt><trkpt lat="44.6788403" lon="9.2788712"><ele>1269.0</ele><time>2026-04-04T13:05:53.601Z</time></trkpt><trkpt lat="44.6787906" lon="9.2787908"><ele>1268.6666666666667</ele><time>2026-04-04T13:05:54.6Z</time></trkpt><trkpt lat="44.6787409" lon="9.2787175"><ele>1268.3333333333333</ele><time>2026-04-04T13:05:55.601Z</time></trkpt><trkpt lat="44.6786978" lon="9.2786528"><ele>1268.0</ele><time>2026-04-04T13:05:56.603Z</time></trkpt><trkpt lat="44.6786164" lon="9.2785531"><ele>1267.6666666666665</ele><time>2026-04-04T13:05:58.602Z</time></trkpt><trkpt lat="44.6785498" lon="9.2784693"><ele>1267.3333333333333</ele><time>2026-04-04T13:06:00.602Z</time></trkpt><trkpt lat="44.6785523" lon="9.2783545"><ele>1267.0</ele><time>2026-04-04T13:06:03.601Z</time></trkpt><trkpt lat="44.6786406" lon="9.2783747"><ele>1275.3333333333333</ele><time>2026-04-04T13:06:05.602Z</time></trkpt><trkpt lat="44.6787026" lon="9.2784272"><ele>1283.6666666666665</ele><time>2026-04-04T13:06:06.601Z</time></trkpt><trkpt lat="44.6787726" lon="9.2784999"><ele>1292.0</ele><time>2026-04-04T13:06:07.602Z</time></trkpt><trkpt lat="44.678849" lon="9.2785687"><ele>1300.3333333333333</ele><time>2026-04-04T13:06:08.601Z</time></trkpt><trkpt lat="44.6789301" lon="9.2786299"><ele>1308.6666666666667</ele><time>2026-04-04T13:06:09.601Z</time></trkpt><trkpt lat="44.6790144" lon="9.2786896"><ele>1317.0</ele><time>2026-04-04T13:06:10.601Z</time></trkpt><trkpt lat="44.6790993" lon="9.2787421"><ele>1317.0</ele><time>2026-04-04T13:06:11.601Z</time></trkpt><trkpt lat="44.679185" lon="9.2787886"><ele>1317.0</ele><time>2026-04-04T13:06:12.6Z</time></trkpt><trkpt lat="44.6792692" lon="9.2788357"><ele>1317.0</ele><time>2026-04-04T13:06:13.601Z</time></trkpt><trkpt lat="44.6793512" lon="9.2788766"><ele>1317.0</ele><time>2026-04-04T13:06:14.6Z</time></trkpt><trkpt lat="44.6794235" lon="9.2789171"><ele>1317.0</ele><time>2026-04-04T13:06:15.6Z</time></trkpt><trkpt lat="44.679489" lon="9.2789515"><ele>1317.0</ele><time>2026-04-04T13:06:16.601Z</time></trkpt><trkpt lat="44.6795464" lon="9.2789879"><ele>1312.0</ele><time>2026-04-04T13:06:17.6Z</time></trkpt><trkpt lat="44.679645" lon="9.2790433"><ele>1307.0</ele><time>2026-04-04T13:06:19.601Z</time></trkpt><trkpt lat="44.6797583" lon="9.2790967"><ele>1302.0</ele><time>2026-04-04T13:06:21.602Z</time></trkpt><trkpt lat="44.6798783" lon="9.2791567"><ele>1297.0</ele><time>2026-04-04T13:06:23.6Z</time></trkpt><trkpt lat="44.6799483" lon="9.2791733"><ele>1292.0</ele><time>2026-04-04T13:06:24.601Z</time></trkpt><trkpt lat="44.6800267" lon="9.27919"><ele>1292.0</ele><time>2026-04-04T13:06:25.601Z</time></trkpt><trkpt lat="44.6801067" lon="9.279205"><ele>1292.0</ele><time>2026-04-04T13:06:26.602Z</time></trkpt><trkpt lat="44.6801767" lon="9.2792133"><ele>1292.0</ele><time>2026-04-04T13:06:27.601Z</time></trkpt><trkpt lat="44.680295" lon="9.2792183"><ele>1292.0</ele><time>2026-04-04T13:06:29.6Z</time></trkpt><trkpt lat="44.6803967" lon="9.2792283"><ele>1292.0</ele><time>2026-04-04T13:06:31.601Z</time></trkpt><trkpt lat="44.6804917" lon="9.279245"><ele>1291.6666666666667</ele><time>2026-04-04T13:06:33.6Z</time></trkpt><trkpt lat="44.68056" lon="9.2792333"><ele>1291.3333333333335</ele><time>2026-04-04T13:06:35.602Z</time></trkpt><trkpt lat="44.68063" lon="9.2792083"><ele>1291.0</ele><time>2026-04-04T13:06:38.602Z</time></trkpt><trkpt lat="44.6806383" lon="9.2791133"><ele>1290.6666666666667</ele><time>2026-04-04T13:07:16.601Z</time></trkpt><trkpt lat="44.6805883" lon="9.2790167"><ele>1290.3333333333333</ele><time>2026-04-04T13:07:18.6Z</time></trkpt><trkpt lat="44.6805483" lon="9.278885"><ele>1290.0</ele><time>2026-04-04T13:07:20.602Z</time></trkpt><trkpt lat="44.6805117" lon="9.2787117"><ele>1290.0</ele><time>2026-04-04T13:07:22.601Z</time></trkpt><trkpt lat="44.6804933" lon="9.2786167"><ele>1290.0</ele><time>2026-04-04T13:07:23.6Z</time></trkpt><trkpt lat="44.680475" lon="9.2785083"><ele>1290.0</ele><time>2026-04-04T13:07:24.602Z</time></trkpt><trkpt lat="44.6804483" lon="9.2783733"><ele>1290.0</ele><time>2026-04-04T13:07:25.601Z</time></trkpt><trkpt lat="44.6804183" lon="9.2782317"><ele>1290.0</ele><time>2026-04-04T13:07:26.601Z</time></trkpt><trkpt lat="44.6803883" lon="9.2780983"><ele>1296.0</ele><time>2026-04-04T13:07:27.601Z</time></trkpt><trkpt lat="44.68037" lon="9.2779617"><ele>1302.0</ele><time>2026-04-04T13:07:28.601Z</time></trkpt><trkpt lat="44.6803467" lon="9.2778283"><ele>1308.0</ele><time>2026-04-04T13:07:29.6Z</time></trkpt><trkpt lat="44.6803267" lon="9.2777167"><ele>1314.0</ele><time>2026-04-04T13:07:30.6Z</time></trkpt><trkpt lat="44.6803267" lon="9.277615"><ele>1320.0</ele><time>2026-04-04T13:07:31.6Z</time></trkpt><trkpt lat="44.6803267" lon="9.2774633"><ele>1320.0</ele><time>2026-04-04T13:07:33.6Z</time></trkpt><trkpt lat="44.6803933" lon="9.2773417"><ele>1320.0</ele><time>2026-04-04T13:07:35.603Z</time></trkpt><trkpt lat="44.6804633" lon="9.277275"><ele>1320.0</ele><time>2026-04-04T13:07:36.6Z</time></trkpt><trkpt lat="44.68055" lon="9.2772133"><ele>1320.0</ele><time>2026-04-04T13:07:37.602Z</time></trkpt><trkpt lat="44.680635" lon="9.2771367"><ele>1320.0</ele><time>2026-04-04T13:07:38.602Z</time></trkpt><trkpt lat="44.680725" lon="9.2770667"><ele>1323.0</ele><time>2026-04-04T13:07:39.601Z</time></trkpt><trkpt lat="44.6808117" lon="9.277005"><ele>1326.0</ele><time>2026-04-04T13:07:40.602Z</time></trkpt><trkpt lat="44.6808917" lon="9.2769383"><ele>1329.0</ele><time>2026-04-04T13:07:41.601Z</time></trkpt><trkpt lat="44.680965" lon="9.276865"><ele>1332.0</ele><time>2026-04-04T13:07:42.601Z</time></trkpt><trkpt lat="44.6810217" lon="9.2767767"><ele>1335.0</ele><time>2026-04-04T13:07:43.6Z</time></trkpt><trkpt lat="44.681065" lon="9.2767083"><ele>1338.0</ele><time>2026-04-04T13:07:44.6Z</time></trkpt><trkpt lat="44.6811733" lon="9.2766083"><ele>1338.0</ele><time>2026-04-04T13:07:46.6Z</time></trkpt><trkpt lat="44.6812483" lon="9.27665"><ele>1338.0</ele><time>2026-04-04T13:07:47.601Z</time></trkpt><trkpt lat="44.681315" lon="9.2766883"><ele>1338.0</ele><time>2026-04-04T13:07:48.6Z</time></trkpt><trkpt lat="44.681385" lon="9.2767017"><ele>1338.0</ele><time>2026-04-04T13:07:49.6Z</time></trkpt><trkpt lat="44.681465" lon="9.2767217"><ele>1338.0</ele><time>2026-04-04T13:07:50.6Z</time></trkpt><trkpt lat="44.681555" lon="9.2767183"><ele>1338.0</ele><time>2026-04-04T13:07:51.6Z</time></trkpt><trkpt lat="44.681655" lon="9.2766967"><ele>1338.0</ele><time>2026-04-04T13:07:52.6Z</time></trkpt><trkpt lat="44.6817517" lon="9.2766683"><ele>1338.0</ele><time>2026-04-04T13:07:53.602Z</time></trkpt><trkpt lat="44.681835" lon="9.2766367"><ele>1338.0</ele><time>2026-04-04T13:07:54.601Z</time></trkpt><trkpt lat="44.6819067" lon="9.2766133"><ele>1338.0</ele><time>2026-04-04T13:07:55.6Z</time></trkpt><trkpt lat="44.6820067" lon="9.2765183"><ele>1338.0</ele><time>2026-04-04T13:07:57.601Z</time></trkpt><trkpt lat="44.6820533" lon="9.2764483"><ele>1338.0</ele><time>2026-04-04T13:07:58.601Z</time></trkpt><trkpt lat="44.6820967" lon="9.276355"><ele>1341.2</ele><time>2026-04-04T13:07:59.602Z</time></trkpt><trkpt lat="44.6821383" lon="9.2762633"><ele>1344.4</ele><time>2026-04-04T13:08:00.6Z</time></trkpt><trkpt lat="44.68218" lon="9.27619"><ele>1347.6000000000001</ele><time>2026-04-04T13:08:01.599Z</time></trkpt><trkpt lat="44.6822633" lon="9.2760933"><ele>1350.8000000000002</ele><time>2026-04-04T13:08:03.6Z</time></trkpt><trkpt lat="44.6823667" lon="9.275995"><ele>1354.0</ele><time>2026-04-04T13:08:05.601Z</time></trkpt><trkpt lat="44.6824167" lon="9.2759167"><ele>1354.0</ele><time>2026-04-04T13:08:06.6Z</time></trkpt><trkpt lat="44.682465" lon="9.275845"><ele>1354.0</ele><time>2026-04-04T13:08:07.601Z</time></trkpt><trkpt lat="44.6825233" lon="9.2757733"><ele>1354.0</ele><time>2026-04-04T13:08:08.601Z</time></trkpt><trkpt lat="44.68258" lon="9.2757133"><ele>1354.0</ele><time>2026-04-04T13:08:09.6Z</time></trkpt><trkpt lat="44.6826617" lon="9.27559"><ele>1354.0</ele><time>2026-04-04T13:08:11.6Z</time></trkpt><trkpt lat="44.6826617" lon="9.275455"><ele>1354.0</ele><time>2026-04-04T13:08:13.599Z</time></trkpt><trkpt lat="44.68263" lon="9.2753067"><ele>1357.6</ele><time>2026-04-04T13:08:15.599Z</time></trkpt><trkpt lat="44.6826217" lon="9.27515"><ele>1361.2</ele><time>2026-04-04T13:08:17.6Z</time></trkpt><trkpt lat="44.6826367" lon="9.2749917"><ele>1364.8</ele><time>2026-04-04T13:08:19.6Z</time></trkpt><trkpt lat="44.6826383" lon="9.2748333"><ele>1368.3999999999999</ele><time>2026-04-04T13:08:21.601Z</time></trkpt><trkpt lat="44.6826283" lon="9.2747083"><ele>1372.0</ele><time>2026-04-04T13:08:23.6Z</time></trkpt><trkpt lat="44.6826267" lon="9.2746"><ele>1372.1999999999998</ele><time>2026-04-04T13:08:25.601Z</time></trkpt><trkpt lat="44.6826583" lon="9.274445"><ele>1372.4</ele><time>2026-04-04T13:08:27.601Z</time></trkpt><trkpt lat="44.6827083" lon="9.2742917"><ele>1372.6</ele><time>2026-04-04T13:08:29.602Z</time></trkpt><trkpt lat="44.6827283" lon="9.2741667"><ele>1372.8000000000002</ele><time>2026-04-04T13:08:31.601Z</time></trkpt><trkpt lat="44.6826867" lon="9.2740717"><ele>1373.0</ele><time>2026-04-04T13:08:33.6Z</time></trkpt><trkpt lat="44.68263" lon="9.274"><ele>1373.0</ele><time>2026-04-04T13:08:35.601Z</time></trkpt><trkpt lat="44.682565" lon="9.27394"><ele>1373.0</ele><time>2026-04-04T13:08:38.601Z</time></trkpt><trkpt lat="44.682545" lon="9.27377"><ele>1373.0</ele><time>2026-04-04T13:09:56.602Z</time></trkpt><trkpt lat="44.6824783" lon="9.273635"><ele>1373.0</ele><time>2026-04-04T13:09:58.6Z</time></trkpt><trkpt lat="44.682435" lon="9.27353"><ele>1373.0</ele><time>2026-04-04T13:09:59.6Z</time></trkpt><trkpt lat="44.6823967" lon="9.2734217"><ele>1372.0</ele><time>2026-04-04T13:10:00.601Z</time></trkpt><trkpt lat="44.6823567" lon="9.2733233"><ele>1371.0</ele><time>2026-04-04T13:10:01.602Z</time></trkpt><trkpt lat="44.6823033" lon="9.2732233"><ele>1370.0</ele><time>2026-04-04T13:10:02.601Z</time></trkpt><trkpt lat="44.682255" lon="9.2731483"><ele>1369.0</ele><time>2026-04-04T13:10:03.6Z</time></trkpt><trkpt lat="44.682215" lon="9.2730667"><ele>1368.0</ele><time>2026-04-04T13:10:04.601Z</time></trkpt><trkpt lat="44.6821833" lon="9.2729767"><ele>1367.0</ele><time>2026-04-04T13:10:05.6Z</time></trkpt><trkpt lat="44.6821683" lon="9.2728833"><ele>1365.4285714285716</ele><time>2026-04-04T13:10:06.6Z</time></trkpt><trkpt lat="44.6821533" lon="9.2727867"><ele>1363.8571428571427</ele><time>2026-04-04T13:10:07.601Z</time></trkpt><trkpt lat="44.68215" lon="9.272665"><ele>1362.2857142857142</ele><time>2026-04-04T13:10:08.602Z</time></trkpt><trkpt lat="44.6821417" lon="9.272555"><ele>1360.7142857142858</ele><time>2026-04-04T13:10:09.601Z</time></trkpt><trkpt lat="44.6821217" lon="9.272455"><ele>1359.1428571428573</ele><time>2026-04-04T13:10:10.601Z</time></trkpt><trkpt lat="44.682095" lon="9.27236"><ele>1357.5714285714284</ele><time>2026-04-04T13:10:11.601Z</time></trkpt><trkpt lat="44.6820767" lon="9.27227"><ele>1356.0</ele><time>2026-04-04T13:10:12.601Z</time></trkpt><trkpt lat="44.6820833" lon="9.2721017"><ele>1355.6666666666667</ele><time>2026-04-04T13:10:14.606Z</time></trkpt><trkpt lat="44.6820933" lon="9.2719267"><ele>1355.3333333333333</ele><time>2026-04-04T13:10:16.601Z</time></trkpt><trkpt lat="44.68207" lon="9.2718433"><ele>1355.0</ele><time>2026-04-04T13:10:17.601Z</time></trkpt><trkpt lat="44.6820383" lon="9.2717467"><ele>1354.6666666666665</ele><time>2026-04-04T13:10:18.601Z</time></trkpt><trkpt lat="44.6820117" lon="9.2716433"><ele>1354.3333333333333</ele><time>2026-04-04T13:10:19.601Z</time></trkpt><trkpt lat="44.6819933" lon="9.27153"><ele>1354.0</ele><time>2026-04-04T13:10:20.602Z</time></trkpt><trkpt lat="44.6819817" lon="9.27142"><ele>1354.0</ele><time>2026-04-04T13:10:21.602Z</time></trkpt><trkpt lat="44.6819783" lon="9.2713133"><ele>1354.0</ele><time>2026-04-04T13:10:22.6Z</time></trkpt><trkpt lat="44.6819833" lon="9.2712217"><ele>1354.0</ele><time>2026-04-04T13:10:23.601Z</time></trkpt><trkpt lat="44.68201" lon="9.27114"><ele>1354.0</ele><time>2026-04-04T13:10:24.601Z</time></trkpt><trkpt lat="44.6820467" lon="9.2710567"><ele>1354.0</ele><time>2026-04-04T13:10:25.601Z</time></trkpt><trkpt lat="44.6821033" lon="9.2709667"><ele>1354.0</ele><time>2026-04-04T13:10:26.601Z</time></trkpt><trkpt lat="44.682175" lon="9.2708617"><ele>1354.0</ele><time>2026-04-04T13:10:27.601Z</time></trkpt><trkpt lat="44.682245" lon="9.2707567"><ele>1354.0</ele><time>2026-04-04T13:10:28.601Z</time></trkpt><trkpt lat="44.6823083" lon="9.2706517"><ele>1354.0</ele><time>2026-04-04T13:10:29.602Z</time></trkpt><trkpt lat="44.6823683" lon="9.27054"><ele>1354.0</ele><time>2026-04-04T13:10:30.6Z</time></trkpt><trkpt lat="44.6824317" lon="9.270425"><ele>1354.0</ele><time>2026-04-04T13:10:31.604Z</time></trkpt><trkpt lat="44.682485" lon="9.270305"><ele>1354.8000000000002</ele><time>2026-04-04T13:10:32.602Z</time></trkpt><trkpt lat="44.68254" lon="9.270175"><ele>1355.6000000000001</ele><time>2026-04-04T13:10:33.6Z</time></trkpt><trkpt lat="44.682595" lon="9.2700383"><ele>1356.4</ele><time>2026-04-04T13:10:34.602Z</time></trkpt><trkpt lat="44.6826433" lon="9.2698983"><ele>1357.2</ele><time>2026-04-04T13:10:35.6Z</time></trkpt><trkpt lat="44.6826917" lon="9.2697467"><ele>1358.0</ele><time>2026-04-04T13:10:36.601Z</time></trkpt><trkpt lat="44.6827367" lon="9.2696117"><ele>1356.4</ele><time>2026-04-04T13:10:37.601Z</time></trkpt><trkpt lat="44.6827783" lon="9.2694767"><ele>1354.8000000000002</ele><time>2026-04-04T13:10:38.602Z</time></trkpt><trkpt lat="44.682815" lon="9.2693483"><ele>1353.2</ele><time>2026-04-04T13:10:39.601Z</time></trkpt><trkpt lat="44.6828433" lon="9.26922"><ele>1351.6</ele><time>2026-04-04T13:10:40.601Z</time></trkpt><trkpt lat="44.68287" lon="9.269095"><ele>1350.0</ele><time>2026-04-04T13:10:41.6Z</time></trkpt><trkpt lat="44.68289" lon="9.2689633"><ele>1351.8333333333333</ele><time>2026-04-04T13:10:42.601Z</time></trkpt><trkpt lat="44.6829067" lon="9.2688317"><ele>1353.6666666666667</ele><time>2026-04-04T13:10:43.6Z</time></trkpt><trkpt lat="44.682925" lon="9.268705"><ele>1355.5</ele><time>2026-04-04T13:10:44.6Z</time></trkpt><trkpt lat="44.6829367" lon="9.2685783"><ele>1357.3333333333335</ele><time>2026-04-04T13:10:45.6Z</time></trkpt><trkpt lat="44.6829483" lon="9.2684633"><ele>1359.1666666666667</ele><time>2026-04-04T13:10:46.601Z</time></trkpt><trkpt lat="44.6829583" lon="9.268355"><ele>1361.0</ele><time>2026-04-04T13:10:47.601Z</time></trkpt><trkpt lat="44.682975" lon="9.268255"><ele>1361.0</ele><time>2026-04-04T13:10:48.601Z</time></trkpt><trkpt lat="44.6829983" lon="9.2681617"><ele>1361.0</ele><time>2026-04-04T13:10:49.601Z</time></trkpt><trkpt lat="44.68303" lon="9.2680667"><ele>1361.0</ele><time>2026-04-04T13:10:50.601Z</time></trkpt><trkpt lat="44.6830633" lon="9.267975"><ele>1361.0</ele><time>2026-04-04T13:10:51.6Z</time></trkpt><trkpt lat="44.6831083" lon="9.26789"><ele>1361.0</ele><time>2026-04-04T13:10:52.602Z</time></trkpt><trkpt lat="44.6831583" lon="9.267805"><ele>1361.0</ele><time>2026-04-04T13:10:53.601Z</time></trkpt><trkpt lat="44.6832083" lon="9.2677183"><ele>1361.5</ele><time>2026-04-04T13:10:54.605Z</time></trkpt><trkpt lat="44.6832617" lon="9.2676317"><ele>1362.0</ele><time>2026-04-04T13:10:55.601Z</time></trkpt><trkpt lat="44.6833133" lon="9.2675417"><ele>1362.5</ele><time>2026-04-04T13:10:56.601Z</time></trkpt><trkpt lat="44.6833617" lon="9.2674617"><ele>1363.0</ele><time>2026-04-04T13:10:57.6Z</time></trkpt><trkpt lat="44.68341" lon="9.2673833"><ele>1363.5</ele><time>2026-04-04T13:10:58.601Z</time></trkpt><trkpt lat="44.6834617" lon="9.2673017"><ele>1364.0</ele><time>2026-04-04T13:10:59.601Z</time></trkpt><trkpt lat="44.68352" lon="9.2672133"><ele>1362.4</ele><time>2026-04-04T13:11:00.601Z</time></trkpt><trkpt lat="44.68358" lon="9.2671233"><ele>1360.8000000000002</ele><time>2026-04-04T13:11:01.601Z</time></trkpt><trkpt lat="44.6836483" lon="9.267025"><ele>1359.1999999999998</ele><time>2026-04-04T13:11:02.601Z</time></trkpt><trkpt lat="44.6837117" lon="9.26693"><ele>1357.6</ele><time>2026-04-04T13:11:03.601Z</time></trkpt><trkpt lat="44.6837733" lon="9.2668367"><ele>1356.0</ele><time>2026-04-04T13:11:04.6Z</time></trkpt><trkpt lat="44.6838333" lon="9.266745"><ele>1356.0</ele><time>2026-04-04T13:11:05.601Z</time></trkpt><trkpt lat="44.6838917" lon="9.2666483"><ele>1356.0</ele><time>2026-04-04T13:11:06.6Z</time></trkpt><trkpt lat="44.6839517" lon="9.2665567"><ele>1356.0</ele><time>2026-04-04T13:11:07.601Z</time></trkpt><trkpt lat="44.6840133" lon="9.2664617"><ele>1356.0</ele><time>2026-04-04T13:11:08.6Z</time></trkpt><trkpt lat="44.684075" lon="9.266365"><ele>1356.0</ele><time>2026-04-04T13:11:09.601Z</time></trkpt><trkpt lat="44.6841367" lon="9.2662717"><ele>1358.1666666666667</ele><time>2026-04-04T13:11:10.601Z</time></trkpt><trkpt lat="44.6842" lon="9.2661833"><ele>1360.3333333333333</ele><time>2026-04-04T13:11:11.601Z</time></trkpt><trkpt lat="44.6842617" lon="9.2660967"><ele>1362.5</ele><time>2026-04-04T13:11:12.6Z</time></trkpt><trkpt lat="44.6843217" lon="9.2660217"><ele>1364.6666666666665</ele><time>2026-04-04T13:11:13.601Z</time></trkpt><trkpt lat="44.6843783" lon="9.265945"><ele>1366.8333333333333</ele><time>2026-04-04T13:11:14.601Z</time></trkpt><trkpt lat="44.68443" lon="9.2658583"><ele>1369.0</ele><time>2026-04-04T13:11:15.601Z</time></trkpt><trkpt lat="44.68447" lon="9.265745"><ele>1365.8333333333333</ele><time>2026-04-04T13:11:16.602Z</time></trkpt><trkpt lat="44.684505" lon="9.2656233"><ele>1362.6666666666665</ele><time>2026-04-04T13:11:17.6Z</time></trkpt><trkpt lat="44.68454" lon="9.2655017"><ele>1359.5</ele><time>2026-04-04T13:11:18.6Z</time></trkpt><trkpt lat="44.68457" lon="9.2653967"><ele>1356.3333333333333</ele><time>2026-04-04T13:11:19.601Z</time></trkpt><trkpt lat="44.6845983" lon="9.2652933"><ele>1353.1666666666667</ele><time>2026-04-04T13:11:20.602Z</time></trkpt><trkpt lat="44.684625" lon="9.2651767"><ele>1350.0</ele><time>2026-04-04T13:11:21.601Z</time></trkpt><trkpt lat="44.6846417" lon="9.2650717"><ele>1350.0</ele><time>2026-04-04T13:11:22.601Z</time></trkpt><trkpt lat="44.6846717" lon="9.2649683"><ele>1350.0</ele><time>2026-04-04T13:11:23.601Z</time></trkpt><trkpt lat="44.6847033" lon="9.26487"><ele>1350.0</ele><time>2026-04-04T13:11:24.6Z</time></trkpt><trkpt lat="44.684725" lon="9.2647817"><ele>1350.0</ele><time>2026-04-04T13:11:25.601Z</time></trkpt><trkpt lat="44.684715" lon="9.2646667"><ele>1350.0</ele><time>2026-04-04T13:11:27.601Z</time></trkpt><trkpt lat="44.684645" lon="9.2646"><ele>1350.0</ele><time>2026-04-04T13:11:30.601Z</time></trkpt><trkpt lat="44.6845917" lon="9.2644867"><ele>1351.0</ele><time>2026-04-04T13:11:33.601Z</time></trkpt><trkpt lat="44.6845617" lon="9.2643967"><ele>1352.0</ele><time>2026-04-04T13:11:35.601Z</time></trkpt><trkpt lat="44.684545" lon="9.26429"><ele>1353.0</ele><time>2026-04-04T13:11:37.602Z</time></trkpt><trkpt lat="44.6845967" lon="9.264095"><ele>1354.0</ele><time>2026-04-04T13:11:51.6Z</time></trkpt><trkpt lat="44.6847317" lon="9.26399"><ele>1355.8000000000002</ele><time>2026-04-04T13:12:50.605Z</time></trkpt><trkpt lat="44.6848433" lon="9.2639433"><ele>1357.6000000000001</ele><time>2026-04-04T13:12:52.602Z</time></trkpt><trkpt lat="44.6849567" lon="9.2639117"><ele>1359.4</ele><time>2026-04-04T13:12:54.604Z</time></trkpt><trkpt lat="44.6850183" lon="9.2638917"><ele>1361.2</ele><time>2026-04-04T13:12:55.605Z</time></trkpt><trkpt lat="44.685095" lon="9.2638733"><ele>1363.0</ele><time>2026-04-04T13:12:56.604Z</time></trkpt><trkpt lat="44.6851733" lon="9.2638533"><ele>1363.0</ele><time>2026-04-04T13:12:57.605Z</time></trkpt><trkpt lat="44.6852533" lon="9.2638317"><ele>1363.0</ele><time>2026-04-04T13:12:58.605Z</time></trkpt><trkpt lat="44.6853333" lon="9.2638167"><ele>1363.0</ele><time>2026-04-04T13:12:59.606Z</time></trkpt><trkpt lat="44.6854117" lon="9.2638"><ele>1363.0</ele><time>2026-04-04T13:13:00.605Z</time></trkpt><trkpt lat="44.6855417" lon="9.2637183"><ele>1363.0</ele><time>2026-04-04T13:13:02.604Z</time></trkpt><trkpt lat="44.6856083" lon="9.2636683"><ele>1362.4</ele><time>2026-04-04T13:13:03.603Z</time></trkpt><trkpt lat="44.6856783" lon="9.263635"><ele>1361.8000000000002</ele><time>2026-04-04T13:13:04.603Z</time></trkpt><trkpt lat="44.6857983" lon="9.2636183"><ele>1361.2</ele><time>2026-04-04T13:13:06.603Z</time></trkpt><trkpt lat="44.68587" lon="9.2636183"><ele>1360.6</ele><time>2026-04-04T13:13:08.603Z</time></trkpt><trkpt lat="44.68595" lon="9.2635383"><ele>1360.0</ele><time>2026-04-04T13:13:19.604Z</time></trkpt><trkpt lat="44.6860283" lon="9.263465"><ele>1358.5</ele><time>2026-04-04T13:13:21.604Z</time></trkpt><trkpt lat="44.68616" lon="9.2634533"><ele>1357.0</ele><time>2026-04-04T13:13:23.605Z</time></trkpt><trkpt lat="44.6862767" lon="9.2634817"><ele>1355.5</ele><time>2026-04-04T13:13:24.603Z</time></trkpt><trkpt lat="44.6863833" lon="9.2635217"><ele>1354.0</ele><time>2026-04-04T13:13:25.603Z</time></trkpt><trkpt lat="44.68648" lon="9.263565"><ele>1354.0</ele><time>2026-04-04T13:13:26.604Z</time></trkpt><trkpt lat="44.686575" lon="9.26359"><ele>1354.0</ele><time>2026-04-04T13:13:27.604Z</time></trkpt><trkpt lat="44.6866783" lon="9.2636067"><ele>1354.0</ele><time>2026-04-04T13:13:28.603Z</time></trkpt><trkpt lat="44.6867633" lon="9.263605"><ele>1354.0</ele><time>2026-04-04T13:13:29.602Z</time></trkpt><trkpt lat="44.6868483" lon="9.2635833"><ele>1354.0</ele><time>2026-04-04T13:13:30.603Z</time></trkpt><trkpt lat="44.6869233" lon="9.2635433"><ele>1351.6666666666665</ele><time>2026-04-04T13:13:31.603Z</time></trkpt><trkpt lat="44.6869867" lon="9.2635033"><ele>1349.3333333333333</ele><time>2026-04-04T13:13:32.603Z</time></trkpt><trkpt lat="44.6870833" lon="9.263455"><ele>1347.0</ele><time>2026-04-04T13:13:34.603Z</time></trkpt><trkpt lat="44.687145" lon="9.2633967"><ele>1344.6666666666667</ele><time>2026-04-04T13:13:36.603Z</time></trkpt><trkpt lat="44.6872083" lon="9.2633267"><ele>1342.3333333333335</ele><time>2026-04-04T13:13:38.602Z</time></trkpt><trkpt lat="44.6872833" lon="9.2632533"><ele>1340.0</ele><time>2026-04-04T13:13:40.603Z</time></trkpt><trkpt lat="44.6873817" lon="9.263165"><ele>1343.2</ele><time>2026-04-04T13:13:42.603Z</time></trkpt><trkpt lat="44.687505" lon="9.2630917"><ele>1346.4</ele><time>2026-04-04T13:13:44.603Z</time></trkpt><trkpt lat="44.6875883" lon="9.2630783"><ele>1349.6</ele><time>2026-04-04T13:13:45.604Z</time></trkpt><trkpt lat="44.6876933" lon="9.263075"><ele>1352.8</ele><time>2026-04-04T13:13:46.605Z</time></trkpt><trkpt lat="44.6878017" lon="9.2630783"><ele>1356.0</ele><time>2026-04-04T13:13:47.604Z</time></trkpt><trkpt lat="44.6879017" lon="9.263085"><ele>1349.75</ele><time>2026-04-04T13:13:48.605Z</time></trkpt><trkpt lat="44.688025" lon="9.263115"><ele>1343.5</ele><time>2026-04-04T13:13:49.603Z</time></trkpt><trkpt lat="44.6881583" lon="9.2631767"><ele>1337.25</ele><time>2026-04-04T13:13:50.602Z</time></trkpt><trkpt lat="44.6882633" lon="9.2632183"><ele>1331.0</ele><time>2026-04-04T13:13:51.603Z</time></trkpt><trkpt lat="44.6883583" lon="9.2632467"><ele>1331.0</ele><time>2026-04-04T13:13:52.603Z</time></trkpt><trkpt lat="44.6884467" lon="9.2632617"><ele>1331.0</ele><time>2026-04-04T13:13:53.603Z</time></trkpt><trkpt lat="44.6885417" lon="9.2632633"><ele>1331.0</ele><time>2026-04-04T13:13:54.602Z</time></trkpt><trkpt lat="44.6886433" lon="9.2632467"><ele>1331.0</ele><time>2026-04-04T13:13:55.603Z</time></trkpt><trkpt lat="44.688755" lon="9.2632117"><ele>1331.0</ele><time>2026-04-04T13:13:56.605Z</time></trkpt><trkpt lat="44.6888633" lon="9.2631667"><ele>1332.6</ele><time>2026-04-04T13:13:57.602Z</time></trkpt><trkpt lat="44.6889617" lon="9.2631233"><ele>1334.1999999999998</ele><time>2026-04-04T13:13:58.603Z</time></trkpt><trkpt lat="44.6890567" lon="9.2630717"><ele>1335.8000000000002</ele><time>2026-04-04T13:13:59.603Z</time></trkpt><trkpt lat="44.6891467" lon="9.2630167"><ele>1337.4</ele><time>2026-04-04T13:14:00.604Z</time></trkpt><trkpt lat="44.689225" lon="9.2629483"><ele>1339.0</ele><time>2026-04-04T13:14:01.604Z</time></trkpt><trkpt lat="44.689295" lon="9.26287"><ele>1339.0</ele><time>2026-04-04T13:14:02.602Z</time></trkpt><trkpt lat="44.6893467" lon="9.2627667"><ele>1339.0</ele><time>2026-04-04T13:14:03.604Z</time></trkpt><trkpt lat="44.689395" lon="9.26265"><ele>1339.0</ele><time>2026-04-04T13:14:04.605Z</time></trkpt><trkpt lat="44.68944" lon="9.2625267"><ele>1339.0</ele><time>2026-04-04T13:14:05.604Z</time></trkpt><trkpt lat="44.6894733" lon="9.2624117"><ele>1339.0</ele><time>2026-04-04T13:14:06.605Z</time></trkpt><trkpt lat="44.6895067" lon="9.262315"><ele>1339.0</ele><time>2026-04-04T13:14:07.605Z</time></trkpt><trkpt lat="44.689585" lon="9.2622233"><ele>1336.4</ele><time>2026-04-04T13:14:09.605Z</time></trkpt><trkpt lat="44.6896967" lon="9.26227"><ele>1333.8000000000002</ele><time>2026-04-04T13:14:11.603Z</time></trkpt><trkpt lat="44.6897733" lon="9.262365"><ele>1331.1999999999998</ele><time>2026-04-04T13:14:12.604Z</time></trkpt><trkpt lat="44.6898517" lon="9.26248"><ele>1328.6</ele><time>2026-04-04T13:14:13.602Z</time></trkpt><trkpt lat="44.6899317" lon="9.2625783"><ele>1326.0</ele><time>2026-04-04T13:14:14.603Z</time></trkpt><trkpt lat="44.6900183" lon="9.2626667"><ele>1326.0</ele><time>2026-04-04T13:14:15.604Z</time></trkpt><trkpt lat="44.6901017" lon="9.262735"><ele>1326.0</ele><time>2026-04-04T13:14:16.604Z</time></trkpt><trkpt lat="44.6901933" lon="9.2627733"><ele>1326.0</ele><time>2026-04-04T13:14:17.603Z</time></trkpt><trkpt lat="44.690285" lon="9.2627917"><ele>1326.0</ele><time>2026-04-04T13:14:18.605Z</time></trkpt><trkpt lat="44.69038" lon="9.2628"><ele>1326.0</ele><time>2026-04-04T13:14:19.604Z</time></trkpt><trkpt lat="44.6904817" lon="9.2628017"><ele>1325.1999999999998</ele><time>2026-04-04T13:14:20.603Z</time></trkpt><trkpt lat="44.6906" lon="9.2627967"><ele>1324.3999999999999</ele><time>2026-04-04T13:14:21.605Z</time></trkpt><trkpt lat="44.6907067" lon="9.2627967"><ele>1323.6</ele><time>2026-04-04T13:14:22.603Z</time></trkpt><trkpt lat="44.6908133" lon="9.2627967"><ele>1322.8</ele><time>2026-04-04T13:14:23.605Z</time></trkpt><trkpt lat="44.69091" lon="9.2628117"><ele>1322.0</ele><time>2026-04-04T13:14:24.604Z</time></trkpt><trkpt lat="44.6909983" lon="9.2628317"><ele>1322.0</ele><time>2026-04-04T13:14:25.603Z</time></trkpt><trkpt lat="44.69108" lon="9.26285"><ele>1322.0</ele><time>2026-04-04T13:14:26.605Z</time></trkpt><trkpt lat="44.6911467" lon="9.262875"><ele>1322.0</ele><time>2026-04-04T13:14:27.604Z</time></trkpt><trkpt lat="44.6912417" lon="9.2629117"><ele>1322.0</ele><time>2026-04-04T13:14:29.603Z</time></trkpt><trkpt lat="44.6912983" lon="9.26287"><ele>1322.0</ele><time>2026-04-04T13:14:31.602Z</time></trkpt><trkpt lat="44.6913733" lon="9.26276"><ele>1322.0</ele><time>2026-04-04T13:14:33.604Z</time></trkpt><trkpt lat="44.6914183" lon="9.26267"><ele>1324.3999999999999</ele><time>2026-04-04T13:14:34.603Z</time></trkpt><trkpt lat="44.6914717" lon="9.2625633"><ele>1326.8</ele><time>2026-04-04T13:14:35.604Z</time></trkpt><trkpt lat="44.691535" lon="9.2624483"><ele>1329.2</ele><time>2026-04-04T13:14:36.601Z</time></trkpt><trkpt lat="44.6916" lon="9.262325"><ele>1331.6</ele><time>2026-04-04T13:14:37.603Z</time></trkpt><trkpt lat="44.69167" lon="9.2621933"><ele>1334.0</ele><time>2026-04-04T13:14:38.606Z</time></trkpt><trkpt lat="44.6917233" lon="9.2620933"><ele>1334.0</ele><time>2026-04-04T13:14:39.603Z</time></trkpt><trkpt lat="44.6917733" lon="9.2620067"><ele>1334.0</ele><time>2026-04-04T13:14:40.603Z</time></trkpt><trkpt lat="44.6918267" lon="9.2619233"><ele>1334.0</ele><time>2026-04-04T13:14:41.602Z</time></trkpt><trkpt lat="44.691925" lon="9.2618183"><ele>1334.0</ele><time>2026-04-04T13:14:43.603Z</time></trkpt><trkpt lat="44.691985" lon="9.2617617"><ele>1334.0</ele><time>2026-04-04T13:14:44.605Z</time></trkpt><trkpt lat="44.6920533" lon="9.2617133"><ele>1334.0</ele><time>2026-04-04T13:14:45.605Z</time></trkpt><trkpt lat="44.69212" lon="9.2616583"><ele>1335.6</ele><time>2026-04-04T13:14:46.603Z</time></trkpt><trkpt lat="44.69221" lon="9.26159"><ele>1337.2</ele><time>2026-04-04T13:14:47.604Z</time></trkpt><trkpt lat="44.6922767" lon="9.2615317"><ele>1338.8</ele><time>2026-04-04T13:14:48.605Z</time></trkpt><trkpt lat="44.692355" lon="9.261435"><ele>1340.3999999999999</ele><time>2026-04-04T13:14:50.605Z</time></trkpt><trkpt lat="44.6924167" lon="9.2613133"><ele>1342.0</ele><time>2026-04-04T13:14:52.604Z</time></trkpt><trkpt lat="44.69245" lon="9.2612217"><ele>1342.0</ele><time>2026-04-04T13:14:53.605Z</time></trkpt><trkpt lat="44.6925" lon="9.2611333"><ele>1342.0</ele><time>2026-04-04T13:14:54.605Z</time></trkpt><trkpt lat="44.6925433" lon="9.2610467"><ele>1342.0</ele><time>2026-04-04T13:14:55.602Z</time></trkpt><trkpt lat="44.6925967" lon="9.26097"><ele>1342.0</ele><time>2026-04-04T13:14:56.604Z</time></trkpt><trkpt lat="44.6926367" lon="9.260895"><ele>1342.0</ele><time>2026-04-04T13:14:57.603Z</time></trkpt><trkpt lat="44.69268" lon="9.26082"><ele>1342.0</ele><time>2026-04-04T13:14:58.604Z</time></trkpt><trkpt lat="44.69271" lon="9.2607317"><ele>1342.0</ele><time>2026-04-04T13:14:59.606Z</time></trkpt><trkpt lat="44.6927483" lon="9.2606583"><ele>1339.5</ele><time>2026-04-04T13:15:00.606Z</time></trkpt><trkpt lat="44.6928033" lon="9.2605867"><ele>1337.0</ele><time>2026-04-04T13:15:01.605Z</time></trkpt><trkpt lat="44.6928517" lon="9.2605233"><ele>1334.5</ele><time>2026-04-04T13:15:02.607Z</time></trkpt><trkpt lat="44.69292" lon="9.260465"><ele>1332.0</ele><time>2026-04-04T13:15:03.603Z</time></trkpt><trkpt lat="44.6929817" lon="9.2603917"><ele>1329.5</ele><time>2026-04-04T13:15:04.605Z</time></trkpt><trkpt lat="44.6930633" lon="9.2603217"><ele>1327.0</ele><time>2026-04-04T13:15:05.604Z</time></trkpt><trkpt lat="44.6931417" lon="9.2602483"><ele>1327.0</ele><time>2026-04-04T13:15:06.605Z</time></trkpt><trkpt lat="44.6932233" lon="9.2601783"><ele>1327.0</ele><time>2026-04-04T13:15:07.605Z</time></trkpt><trkpt lat="44.693315" lon="9.2601083"><ele>1327.0</ele><time>2026-04-04T13:15:08.604Z</time></trkpt><trkpt lat="44.69339" lon="9.2600567"><ele>1327.0</ele><time>2026-04-04T13:15:09.604Z</time></trkpt><trkpt lat="44.6934667" lon="9.260015"><ele>1327.0</ele><time>2026-04-04T13:15:10.605Z</time></trkpt><trkpt lat="44.6935433" lon="9.259975"><ele>1327.0</ele><time>2026-04-04T13:15:11.603Z</time></trkpt><trkpt lat="44.6936233" lon="9.2599317"><ele>1325.3333333333333</ele><time>2026-04-04T13:15:12.603Z</time></trkpt><trkpt lat="44.6937033" lon="9.259895"><ele>1323.6666666666665</ele><time>2026-04-04T13:15:13.605Z</time></trkpt><trkpt lat="44.6937783" lon="9.2598517"><ele>1322.0</ele><time>2026-04-04T13:15:14.605Z</time></trkpt><trkpt lat="44.6938433" lon="9.2597983"><ele>1320.3333333333333</ele><time>2026-04-04T13:15:15.604Z</time></trkpt><trkpt lat="44.693915" lon="9.2597417"><ele>1318.6666666666667</ele><time>2026-04-04T13:15:16.603Z</time></trkpt><trkpt lat="44.693985" lon="9.2596867"><ele>1317.0</ele><time>2026-04-04T13:15:17.604Z</time></trkpt><trkpt lat="44.69404" lon="9.25962"><ele>1317.0</ele><time>2026-04-04T13:15:18.603Z</time></trkpt><trkpt lat="44.69408" lon="9.259545"><ele>1317.0</ele><time>2026-04-04T13:15:19.602Z</time></trkpt><trkpt lat="44.69414" lon="9.2594033"><ele>1317.0</ele><time>2026-04-04T13:15:21.606Z</time></trkpt><trkpt lat="44.6941817" lon="9.2592767"><ele>1317.0</ele><time>2026-04-04T13:15:23.601Z</time></trkpt><trkpt lat="44.69422" lon="9.2591733"><ele>1317.0</ele><time>2026-04-04T13:15:25.602Z</time></trkpt><trkpt lat="44.694255" lon="9.2590783"><ele>1317.0</ele><time>2026-04-04T13:15:27.603Z</time></trkpt><trkpt lat="44.6942833" lon="9.2589783"><ele>1320.1999999999998</ele><time>2026-04-04T13:15:29.602Z</time></trkpt><trkpt lat="44.694315" lon="9.2588967"><ele>1323.4</ele><time>2026-04-04T13:15:31.602Z</time></trkpt><trkpt lat="44.6943633" lon="9.2588317"><ele>1326.6</ele><time>2026-04-04T13:15:33.602Z</time></trkpt><trkpt lat="44.6944317" lon="9.258735"><ele>1329.8000000000002</ele><time>2026-04-04T13:15:35.605Z</time></trkpt><trkpt lat="44.6945217" lon="9.25863"><ele>1333.0</ele><time>2026-04-04T13:15:37.604Z</time></trkpt><trkpt lat="44.694625" lon="9.2585383"><ele>1327.6666666666665</ele><time>2026-04-04T13:15:39.601Z</time></trkpt><trkpt lat="44.6946967" lon="9.2584367"><ele>1322.3333333333333</ele><time>2026-04-04T13:15:41.602Z</time></trkpt><trkpt lat="44.6947567" lon="9.2583483"><ele>1317.0</ele><time>2026-04-04T13:15:43.602Z</time></trkpt><trkpt lat="44.694835" lon="9.2583017"><ele>1311.6666666666667</ele><time>2026-04-04T13:15:45.602Z</time></trkpt><trkpt lat="44.69491" lon="9.258315"><ele>1306.3333333333335</ele><time>2026-04-04T13:15:47.602Z</time></trkpt><trkpt lat="44.6949783" lon="9.258345"><ele>1301.0</ele><time>2026-04-04T13:15:49.604Z</time></trkpt><trkpt lat="44.6950567" lon="9.2584083"><ele>1301.0</ele><time>2026-04-04T13:15:52.603Z</time></trkpt><trkpt lat="44.695125" lon="9.2584217"><ele>1301.0</ele><time>2026-04-04T13:15:54.603Z</time></trkpt><trkpt lat="44.6952033" lon="9.2584117"><ele>1301.0</ele><time>2026-04-04T13:15:56.605Z</time></trkpt><trkpt lat="44.6952783" lon="9.2583817"><ele>1301.0</ele><time>2026-04-04T13:15:58.603Z</time></trkpt><trkpt lat="44.6953667" lon="9.2583333"><ele>1301.0</ele><time>2026-04-04T13:16:00.602Z</time></trkpt><trkpt lat="44.69547" lon="9.2582833"><ele>1301.0</ele><time>2026-04-04T13:16:02.601Z</time></trkpt><trkpt lat="44.6955567" lon="9.2582283"><ele>1301.4</ele><time>2026-04-04T13:16:04.602Z</time></trkpt><trkpt lat="44.6956533" lon="9.2581867"><ele>1301.8</ele><time>2026-04-04T13:16:06.602Z</time></trkpt><trkpt lat="44.695765" lon="9.2581383"><ele>1302.2</ele><time>2026-04-04T13:16:08.603Z</time></trkpt><trkpt lat="44.6958667" lon="9.258095"><ele>1302.6000000000001</ele><time>2026-04-04T13:16:10.603Z</time></trkpt><trkpt lat="44.695975" lon="9.2580467"><ele>1303.0</ele><time>2026-04-04T13:16:12.603Z</time></trkpt><trkpt lat="44.6960383" lon="9.2580283"><ele>1296.8000000000002</ele><time>2026-04-04T13:16:13.602Z</time></trkpt><trkpt lat="44.6961033" lon="9.2580067"><ele>1290.6000000000001</ele><time>2026-04-04T13:16:14.602Z</time></trkpt><trkpt lat="44.69622" lon="9.2579717"><ele>1284.4</ele><time>2026-04-04T13:16:16.602Z</time></trkpt><trkpt lat="44.6963317" lon="9.2579417"><ele>1278.2</ele><time>2026-04-04T13:16:18.604Z</time></trkpt><trkpt lat="44.696395" lon="9.2579233"><ele>1272.0</ele><time>2026-04-04T13:16:19.604Z</time></trkpt><trkpt lat="44.6965283" lon="9.2578783"><ele>1272.0</ele><time>2026-04-04T13:16:21.604Z</time></trkpt><trkpt lat="44.6965967" lon="9.2578483"><ele>1272.0</ele><time>2026-04-04T13:16:22.604Z</time></trkpt><trkpt lat="44.69667" lon="9.2578233"><ele>1272.0</ele><time>2026-04-04T13:16:23.604Z</time></trkpt><trkpt lat="44.6967383" lon="9.2578133"><ele>1272.0</ele><time>2026-04-04T13:16:24.605Z</time></trkpt><trkpt lat="44.6968133" lon="9.2578317"><ele>1272.0</ele><time>2026-04-04T13:16:25.604Z</time></trkpt><trkpt lat="44.696885" lon="9.25786"><ele>1272.0</ele><time>2026-04-04T13:16:26.604Z</time></trkpt><trkpt lat="44.6969567" lon="9.2579033"><ele>1272.0</ele><time>2026-04-04T13:16:27.602Z</time></trkpt><trkpt lat="44.6970367" lon="9.2579417"><ele>1270.6666666666667</ele><time>2026-04-04T13:16:28.604Z</time></trkpt><trkpt lat="44.69712" lon="9.2579767"><ele>1269.3333333333333</ele><time>2026-04-04T13:16:29.603Z</time></trkpt><trkpt lat="44.6972" lon="9.258015"><ele>1268.0</ele><time>2026-04-04T13:16:30.601Z</time></trkpt><trkpt lat="44.6972817" lon="9.2580517"><ele>1266.6666666666665</ele><time>2026-04-04T13:16:31.604Z</time></trkpt><trkpt lat="44.6973517" lon="9.2580833"><ele>1265.3333333333333</ele><time>2026-04-04T13:16:32.602Z</time></trkpt><trkpt lat="44.6974183" lon="9.258135"><ele>1264.0</ele><time>2026-04-04T13:16:34.602Z</time></trkpt><trkpt lat="44.6973533" lon="9.2582133"><ele>1259.6000000000001</ele><time>2026-04-04T13:16:38.603Z</time></trkpt><trkpt lat="44.69726" lon="9.2582483"><ele>1255.2</ele><time>2026-04-04T13:16:40.602Z</time></trkpt><trkpt lat="44.6971683" lon="9.2583117"><ele>1250.8000000000002</ele><time>2026-04-04T13:16:42.601Z</time></trkpt><trkpt lat="44.69708" lon="9.2584"><ele>1246.4</ele><time>2026-04-04T13:16:44.602Z</time></trkpt><trkpt lat="44.6969817" lon="9.2585083"><ele>1242.0</ele><time>2026-04-04T13:16:46.603Z</time></trkpt><trkpt lat="44.6969167" lon="9.2585517"><ele>1242.0</ele><time>2026-04-04T13:16:47.603Z</time></trkpt><trkpt lat="44.6968483" lon="9.2585917"><ele>1242.0</ele><time>2026-04-04T13:16:48.601Z</time></trkpt><trkpt lat="44.69678" lon="9.25863"><ele>1242.0</ele><time>2026-04-04T13:16:49.601Z</time></trkpt><trkpt lat="44.6967083" lon="9.2586667"><ele>1242.0</ele><time>2026-04-04T13:16:50.604Z</time></trkpt><trkpt lat="44.6966367" lon="9.2587083"><ele>1242.0</ele><time>2026-04-04T13:16:51.603Z</time></trkpt><trkpt lat="44.6965667" lon="9.2587483"><ele>1242.0</ele><time>2026-04-04T13:16:52.603Z</time></trkpt><trkpt lat="44.696495" lon="9.25879"><ele>1242.0</ele><time>2026-04-04T13:16:53.602Z</time></trkpt><trkpt lat="44.6964233" lon="9.25884"><ele>1242.0</ele><time>2026-04-04T13:16:54.604Z</time></trkpt><trkpt lat="44.6963467" lon="9.2589033"><ele>1242.0</ele><time>2026-04-04T13:16:55.602Z</time></trkpt><trkpt lat="44.6962783" lon="9.2589817"><ele>1242.0</ele><time>2026-04-04T13:16:56.601Z</time></trkpt><trkpt lat="44.696215" lon="9.259065"><ele>1242.0</ele><time>2026-04-04T13:16:57.603Z</time></trkpt><trkpt lat="44.6961517" lon="9.259145"><ele>1242.0</ele><time>2026-04-04T13:16:58.602Z</time></trkpt><trkpt lat="44.6960833" lon="9.2592167"><ele>1239.8333333333333</ele><time>2026-04-04T13:16:59.604Z</time></trkpt><trkpt lat="44.6960217" lon="9.2592817"><ele>1237.6666666666667</ele><time>2026-04-04T13:17:00.601Z</time></trkpt><trkpt lat="44.6959583" lon="9.259355"><ele>1235.5</ele><time>2026-04-04T13:17:01.603Z</time></trkpt><trkpt lat="44.6958967" lon="9.2594367"><ele>1233.3333333333335</ele><time>2026-04-04T13:17:02.603Z</time></trkpt><trkpt lat="44.69584" lon="9.2595217"><ele>1231.1666666666667</ele><time>2026-04-04T13:17:03.602Z</time></trkpt><trkpt lat="44.6957883" lon="9.2596117"><ele>1229.0</ele><time>2026-04-04T13:17:04.602Z</time></trkpt><trkpt lat="44.695745" lon="9.2597"><ele>1226.0000000000002</ele><time>2026-04-04T13:17:05.603Z</time></trkpt><trkpt lat="44.69571" lon="9.259785"><ele>1223.0</ele><time>2026-04-04T13:17:06.603Z</time></trkpt><trkpt lat="44.6956783" lon="9.2598683"><ele>1220.0</ele><time>2026-04-04T13:17:07.602Z</time></trkpt><trkpt lat="44.69565" lon="9.2599567"><ele>1217.0</ele><time>2026-04-04T13:17:08.602Z</time></trkpt><trkpt lat="44.69563" lon="9.26005"><ele>1214.0</ele><time>2026-04-04T13:17:09.603Z</time></trkpt><trkpt lat="44.695615" lon="9.26014"><ele>1211.0000000000002</ele><time>2026-04-04T13:17:10.601Z</time></trkpt><trkpt lat="44.6956183" lon="9.2602383"><ele>1208.0</ele><time>2026-04-04T13:17:11.602Z</time></trkpt><trkpt lat="44.6956167" lon="9.2603417"><ele>1208.0</ele><time>2026-04-04T13:17:12.603Z</time></trkpt><trkpt lat="44.6956067" lon="9.26045"><ele>1208.0</ele><time>2026-04-04T13:17:13.602Z</time></trkpt><trkpt lat="44.69561" lon="9.2605617"><ele>1208.0</ele><time>2026-04-04T13:17:14.603Z</time></trkpt><trkpt lat="44.6956217" lon="9.2606667"><ele>1208.0</ele><time>2026-04-04T13:17:15.6Z</time></trkpt><trkpt lat="44.6956217" lon="9.2607717"><ele>1208.0</ele><time>2026-04-04T13:17:16.603Z</time></trkpt><trkpt lat="44.69562" lon="9.2608817"><ele>1208.0</ele><time>2026-04-04T13:17:17.603Z</time></trkpt><trkpt lat="44.6956217" lon="9.2610067"><ele>1206.4</ele><time>2026-04-04T13:17:18.602Z</time></trkpt><trkpt lat="44.6956183" lon="9.2611283"><ele>1204.8</ele><time>2026-04-04T13:17:19.605Z</time></trkpt><trkpt lat="44.6956183" lon="9.2612533"><ele>1203.2</ele><time>2026-04-04T13:17:20.605Z</time></trkpt><trkpt lat="44.6956083" lon="9.261375"><ele>1201.6</ele><time>2026-04-04T13:17:21.604Z</time></trkpt><trkpt lat="44.6956" lon="9.261505"><ele>1200.0</ele><time>2026-04-04T13:17:22.603Z</time></trkpt><trkpt lat="44.695585" lon="9.2616467"><ele>1198.6</ele><time>2026-04-04T13:17:23.601Z</time></trkpt><trkpt lat="44.6955633" lon="9.261785"><ele>1197.2</ele><time>2026-04-04T13:17:24.604Z</time></trkpt><trkpt lat="44.6955383" lon="9.2619133"><ele>1195.8</ele><time>2026-04-04T13:17:25.602Z</time></trkpt><trkpt lat="44.695515" lon="9.2620533"><ele>1194.4</ele><time>2026-04-04T13:17:26.602Z</time></trkpt><trkpt lat="44.6954917" lon="9.2621883"><ele>1193.0</ele><time>2026-04-04T13:17:27.603Z</time></trkpt><trkpt lat="44.6954583" lon="9.2623067"><ele>1191.8</ele><time>2026-04-04T13:17:28.602Z</time></trkpt><trkpt lat="44.6954233" lon="9.262425"><ele>1190.6</ele><time>2026-04-04T13:17:29.602Z</time></trkpt><trkpt lat="44.6953833" lon="9.2625433"><ele>1189.4</ele><time>2026-04-04T13:17:30.605Z</time></trkpt><trkpt lat="44.69536" lon="9.2626533"><ele>1188.2</ele><time>2026-04-04T13:17:31.602Z</time></trkpt><trkpt lat="44.6953483" lon="9.26281"><ele>1187.0</ele><time>2026-04-04T13:17:33.603Z</time></trkpt><trkpt lat="44.695365" lon="9.2629483"><ele>1187.0</ele><time>2026-04-04T13:17:35.601Z</time></trkpt><trkpt lat="44.6953567" lon="9.2630383"><ele>1187.0</ele><time>2026-04-04T13:17:36.603Z</time></trkpt><trkpt lat="44.69532" lon="9.26313"><ele>1187.0</ele><time>2026-04-04T13:17:37.605Z</time></trkpt><trkpt lat="44.6952833" lon="9.2632267"><ele>1187.0</ele><time>2026-04-04T13:17:38.604Z</time></trkpt><trkpt lat="44.6952517" lon="9.2633383"><ele>1187.0</ele><time>2026-04-04T13:17:39.604Z</time></trkpt><trkpt lat="44.6952267" lon="9.2634583"><ele>1187.0</ele><time>2026-04-04T13:17:40.602Z</time></trkpt><trkpt lat="44.6952183" lon="9.2635767"><ele>1187.8333333333335</ele><time>2026-04-04T13:17:41.604Z</time></trkpt><trkpt lat="44.6952233" lon="9.26369"><ele>1188.6666666666667</ele><time>2026-04-04T13:17:42.603Z</time></trkpt><trkpt lat="44.6952467" lon="9.263795"><ele>1189.5</ele><time>2026-04-04T13:17:43.604Z</time></trkpt><trkpt lat="44.695285" lon="9.2638883"><ele>1190.3333333333333</ele><time>2026-04-04T13:17:44.603Z</time></trkpt><trkpt lat="44.6953433" lon="9.26396"><ele>1191.1666666666665</ele><time>2026-04-04T13:17:45.601Z</time></trkpt><trkpt lat="44.69541" lon="9.2640067"><ele>1192.0</ele><time>2026-04-04T13:17:46.601Z</time></trkpt><trkpt lat="44.6954817" lon="9.2640217"><ele>1190.1666666666665</ele><time>2026-04-04T13:17:47.602Z</time></trkpt><trkpt lat="44.6955583" lon="9.264"><ele>1188.3333333333333</ele><time>2026-04-04T13:17:48.603Z</time></trkpt><trkpt lat="44.69563" lon="9.26395"><ele>1186.5</ele><time>2026-04-04T13:17:49.603Z</time></trkpt><trkpt lat="44.6957017" lon="9.2638783"><ele>1184.6666666666667</ele><time>2026-04-04T13:17:50.604Z</time></trkpt><trkpt lat="44.6957767" lon="9.2637833"><ele>1182.8333333333335</ele><time>2026-04-04T13:17:51.601Z</time></trkpt><trkpt lat="44.6958483" lon="9.263685"><ele>1181.0</ele><time>2026-04-04T13:17:52.603Z</time></trkpt><trkpt lat="44.6959167" lon="9.2635883"><ele>1181.0</ele><time>2026-04-04T13:17:53.604Z</time></trkpt><trkpt lat="44.6959783" lon="9.2634917"><ele>1181.0</ele><time>2026-04-04T13:17:54.603Z</time></trkpt><trkpt lat="44.6960367" lon="9.2633967"><ele>1181.0</ele><time>2026-04-04T13:17:55.603Z</time></trkpt><trkpt lat="44.69609" lon="9.263305"><ele>1181.0</ele><time>2026-04-04T13:17:56.603Z</time></trkpt><trkpt lat="44.6961417" lon="9.2632217"><ele>1181.0</ele><time>2026-04-04T13:17:57.602Z</time></trkpt><trkpt lat="44.6961883" lon="9.26314"><ele>1181.0</ele><time>2026-04-04T13:17:58.602Z</time></trkpt><trkpt lat="44.696235" lon="9.2630583"><ele>1179.6666666666667</ele><time>2026-04-04T13:17:59.604Z</time></trkpt><trkpt lat="44.6962867" lon="9.2629733"><ele>1178.3333333333335</ele><time>2026-04-04T13:18:00.604Z</time></trkpt><trkpt lat="44.6963417" lon="9.2628833"><ele>1177.0</ele><time>2026-04-04T13:18:01.603Z</time></trkpt><trkpt lat="44.696405" lon="9.2627983"><ele>1175.6666666666667</ele><time>2026-04-04T13:18:02.606Z</time></trkpt><trkpt lat="44.696475" lon="9.26273"><ele>1174.3333333333333</ele><time>2026-04-04T13:18:03.603Z</time></trkpt><trkpt lat="44.6965517" lon="9.262685"><ele>1173.0</ele><time>2026-04-04T13:18:04.602Z</time></trkpt><trkpt lat="44.69664" lon="9.26266"><ele>1173.0</ele><time>2026-04-04T13:18:05.602Z</time></trkpt><trkpt lat="44.696735" lon="9.262655"><ele>1173.0</ele><time>2026-04-04T13:18:06.601Z</time></trkpt><trkpt lat="44.696825" lon="9.2626767"><ele>1173.0</ele><time>2026-04-04T13:18:07.602Z</time></trkpt><trkpt lat="44.696905" lon="9.2627267"><ele>1173.0</ele><time>2026-04-04T13:18:08.601Z</time></trkpt><trkpt lat="44.6969683" lon="9.262815"><ele>1173.0</ele><time>2026-04-04T13:18:09.602Z</time></trkpt><trkpt lat="44.6969917" lon="9.2629283"><ele>1173.0</ele><time>2026-04-04T13:18:10.604Z</time></trkpt><trkpt lat="44.6969817" lon="9.2630367"><ele>1172.3333333333333</ele><time>2026-04-04T13:18:11.603Z</time></trkpt><trkpt lat="44.6969383" lon="9.26312"><ele>1171.6666666666667</ele><time>2026-04-04T13:18:12.604Z</time></trkpt><trkpt lat="44.69687" lon="9.2631733"><ele>1171.0</ele><time>2026-04-04T13:18:13.604Z</time></trkpt><trkpt lat="44.696815" lon="9.2632317"><ele>1170.3333333333335</ele><time>2026-04-04T13:18:14.604Z</time></trkpt><trkpt lat="44.6967767" lon="9.2633733"><ele>1169.6666666666667</ele><time>2026-04-04T13:18:16.602Z</time></trkpt><trkpt lat="44.69683" lon="9.2634267"><ele>1169.0</ele><time>2026-04-04T13:18:17.602Z</time></trkpt><trkpt lat="44.6968967" lon="9.2634567"><ele>1165.2</ele><time>2026-04-04T13:18:18.602Z</time></trkpt><trkpt lat="44.69698" lon="9.2634667"><ele>1161.4</ele><time>2026-04-04T13:18:19.601Z</time></trkpt><trkpt lat="44.6970683" lon="9.26345"><ele>1157.6</ele><time>2026-04-04T13:18:20.601Z</time></trkpt><trkpt lat="44.6971567" lon="9.263395"><ele>1153.8</ele><time>2026-04-04T13:18:21.602Z</time></trkpt><trkpt lat="44.697245" lon="9.26331"><ele>1150.0</ele><time>2026-04-04T13:18:22.602Z</time></trkpt><trkpt lat="44.6973233" lon="9.2632017"><ele>1152.0</ele><time>2026-04-04T13:18:23.602Z</time></trkpt><trkpt lat="44.6973967" lon="9.2630733"><ele>1154.0</ele><time>2026-04-04T13:18:24.601Z</time></trkpt><trkpt lat="44.6974633" lon="9.2629283"><ele>1156.0</ele><time>2026-04-04T13:18:25.602Z</time></trkpt><trkpt lat="44.6975217" lon="9.2627783"><ele>1158.0</ele><time>2026-04-04T13:18:26.603Z</time></trkpt><trkpt lat="44.6975717" lon="9.2626283"><ele>1158.0</ele><time>2026-04-04T13:18:27.602Z</time></trkpt><trkpt lat="44.69762" lon="9.2624817"><ele>1158.0</ele><time>2026-04-04T13:18:28.603Z</time></trkpt><trkpt lat="44.69767" lon="9.26234"><ele>1158.0</ele><time>2026-04-04T13:18:29.601Z</time></trkpt><trkpt lat="44.69772" lon="9.2622"><ele>1158.0</ele><time>2026-04-04T13:18:30.603Z</time></trkpt><trkpt lat="44.6977617" lon="9.2620617"><ele>1158.0</ele><time>2026-04-04T13:18:31.603Z</time></trkpt><trkpt lat="44.6977967" lon="9.2619233"><ele>1157.2</ele><time>2026-04-04T13:18:32.603Z</time></trkpt><trkpt lat="44.6978283" lon="9.261785"><ele>1156.4</ele><time>2026-04-04T13:18:33.602Z</time></trkpt><trkpt lat="44.69786" lon="9.26166"><ele>1155.6000000000001</ele><time>2026-04-04T13:18:34.601Z</time></trkpt><trkpt lat="44.697895" lon="9.261565"><ele>1154.8</ele><time>2026-04-04T13:18:35.601Z</time></trkpt><trkpt lat="44.6979417" lon="9.2614967"><ele>1154.0</ele><time>2026-04-04T13:18:36.603Z</time></trkpt><trkpt lat="44.6980583" lon="9.2615417"><ele>1154.0</ele><time>2026-04-04T13:18:38.605Z</time></trkpt><trkpt lat="44.6981217" lon="9.2616083"><ele>1154.0</ele><time>2026-04-04T13:18:39.602Z</time></trkpt><trkpt lat="44.698205" lon="9.26171"><ele>1154.0</ele><time>2026-04-04T13:18:40.605Z</time></trkpt><trkpt lat="44.6982933" lon="9.261815"><ele>1154.0</ele><time>2026-04-04T13:18:41.603Z</time></trkpt><trkpt lat="44.6983933" lon="9.2619183"><ele>1154.0</ele><time>2026-04-04T13:18:42.603Z</time></trkpt><trkpt lat="44.6984933" lon="9.2620167"><ele>1152.6000000000001</ele><time>2026-04-04T13:18:43.603Z</time></trkpt><trkpt lat="44.6985967" lon="9.2621067"><ele>1151.2</ele><time>2026-04-04T13:18:44.604Z</time></trkpt><trkpt lat="44.6986983" lon="9.262175"><ele>1149.8000000000002</ele><time>2026-04-04T13:18:45.603Z</time></trkpt><trkpt lat="44.6988" lon="9.262215"><ele>1148.4</ele><time>2026-04-04T13:18:46.602Z</time></trkpt><trkpt lat="44.6988917" lon="9.2622433"><ele>1147.0</ele><time>2026-04-04T13:18:47.603Z</time></trkpt><trkpt lat="44.6989633" lon="9.2622783"><ele>1144.0</ele><time>2026-04-04T13:18:48.602Z</time></trkpt><trkpt lat="44.6990183" lon="9.2623333"><ele>1141.0</ele><time>2026-04-04T13:18:49.603Z</time></trkpt><trkpt lat="44.6990583" lon="9.2624067"><ele>1138.0</ele><time>2026-04-04T13:18:50.603Z</time></trkpt><trkpt lat="44.6990483" lon="9.262495"><ele>1135.0</ele><time>2026-04-04T13:18:51.601Z</time></trkpt><trkpt lat="44.6990217" lon="9.26259"><ele>1132.0</ele><time>2026-04-04T13:18:52.602Z</time></trkpt><trkpt lat="44.698965" lon="9.2627083"><ele>1129.0</ele><time>2026-04-04T13:18:53.602Z</time></trkpt><trkpt lat="44.69889" lon="9.2628317"><ele>1129.0</ele><time>2026-04-04T13:18:54.602Z</time></trkpt><trkpt lat="44.6988133" lon="9.26295"><ele>1129.0</ele><time>2026-04-04T13:18:55.603Z</time></trkpt><trkpt lat="44.6987417" lon="9.2630633"><ele>1129.0</ele><time>2026-04-04T13:18:56.604Z</time></trkpt><trkpt lat="44.6986867" lon="9.2631783"><ele>1129.0</ele><time>2026-04-04T13:18:57.604Z</time></trkpt><trkpt lat="44.698655" lon="9.2632983"><ele>1129.0</ele><time>2026-04-04T13:18:58.605Z</time></trkpt><trkpt lat="44.6986483" lon="9.2634183"><ele>1127.5</ele><time>2026-04-04T13:18:59.603Z</time></trkpt><trkpt lat="44.6986617" lon="9.2635267"><ele>1126.0</ele><time>2026-04-04T13:19:00.602Z</time></trkpt><trkpt lat="44.69872" lon="9.2635917"><ele>1124.5</ele><time>2026-04-04T13:19:01.602Z</time></trkpt><trkpt lat="44.698785" lon="9.2636183"><ele>1123.0</ele><time>2026-04-04T13:19:02.603Z</time></trkpt><trkpt lat="44.69886" lon="9.263615"><ele>1121.5</ele><time>2026-04-04T13:19:03.603Z</time></trkpt><trkpt lat="44.6989517" lon="9.263575"><ele>1120.0</ele><time>2026-04-04T13:19:04.601Z</time></trkpt><trkpt lat="44.6990483" lon="9.2635017"><ele>1120.0</ele><time>2026-04-04T13:19:05.602Z</time></trkpt><trkpt lat="44.699125" lon="9.263415"><ele>1120.0</ele><time>2026-04-04T13:19:06.602Z</time></trkpt><trkpt lat="44.6991817" lon="9.2633083"><ele>1120.0</ele><time>2026-04-04T13:19:07.602Z</time></trkpt><trkpt lat="44.6992283" lon="9.2631717"><ele>1120.0</ele><time>2026-04-04T13:19:08.603Z</time></trkpt><trkpt lat="44.699265" lon="9.2630383"><ele>1120.0</ele><time>2026-04-04T13:19:09.601Z</time></trkpt><trkpt lat="44.6992967" lon="9.2629117"><ele>1121.5</ele><time>2026-04-04T13:19:10.602Z</time></trkpt><trkpt lat="44.6993317" lon="9.2627967"><ele>1123.0</ele><time>2026-04-04T13:19:11.603Z</time></trkpt><trkpt lat="44.6993683" lon="9.262705"><ele>1124.5</ele><time>2026-04-04T13:19:12.603Z</time></trkpt><trkpt lat="44.6994117" lon="9.2626383"><ele>1126.0</ele><time>2026-04-04T13:19:13.602Z</time></trkpt><trkpt lat="44.6994933" lon="9.2625583"><ele>1127.5</ele><time>2026-04-04T13:19:15.602Z</time></trkpt><trkpt lat="44.6995917" lon="9.2624617"><ele>1129.0</ele><time>2026-04-04T13:19:17.601Z</time></trkpt><trkpt lat="44.699655" lon="9.2624167"><ele>1125.5</ele><time>2026-04-04T13:19:18.603Z</time></trkpt><trkpt lat="44.6997167" lon="9.26238"><ele>1122.0</ele><time>2026-04-04T13:19:19.603Z</time></trkpt><trkpt lat="44.6997883" lon="9.2623717"><ele>1118.5</ele><time>2026-04-04T13:19:20.603Z</time></trkpt><trkpt lat="44.699855" lon="9.26238"><ele>1115.0</ele><time>2026-04-04T13:19:21.603Z</time></trkpt><trkpt lat="44.699975" lon="9.2624083"><ele>1111.5</ele><time>2026-04-04T13:19:23.603Z</time></trkpt><trkpt lat="44.700045" lon="9.2624133"><ele>1108.0</ele><time>2026-04-04T13:19:24.601Z</time></trkpt><trkpt lat="44.700125" lon="9.2624167"><ele>1108.0</ele><time>2026-04-04T13:19:25.602Z</time></trkpt><trkpt lat="44.7002133" lon="9.2624267"><ele>1108.0</ele><time>2026-04-04T13:19:26.603Z</time></trkpt><trkpt lat="44.7003033" lon="9.2624367"><ele>1108.0</ele><time>2026-04-04T13:19:27.6Z</time></trkpt><trkpt lat="44.700395" lon="9.2624433"><ele>1108.0</ele><time>2026-04-04T13:19:28.603Z</time></trkpt><trkpt lat="44.7004867" lon="9.2624483"><ele>1108.0</ele><time>2026-04-04T13:19:29.601Z</time></trkpt><trkpt lat="44.7005717" lon="9.2624467"><ele>1108.0</ele><time>2026-04-04T13:19:30.603Z</time></trkpt><trkpt lat="44.7006467" lon="9.2624283"><ele>1106.0</ele><time>2026-04-04T13:19:31.602Z</time></trkpt><trkpt lat="44.7007217" lon="9.2623983"><ele>1104.0</ele><time>2026-04-04T13:19:32.602Z</time></trkpt><trkpt lat="44.7007917" lon="9.2623767"><ele>1102.0</ele><time>2026-04-04T13:19:33.602Z</time></trkpt><trkpt lat="44.7008567" lon="9.2623783"><ele>1100.0</ele><time>2026-04-04T13:19:34.602Z</time></trkpt><trkpt lat="44.7009783" lon="9.26241"><ele>1098.0</ele><time>2026-04-04T13:19:36.602Z</time></trkpt><trkpt lat="44.7010417" lon="9.262435"><ele>1096.0</ele><time>2026-04-04T13:19:37.602Z</time></trkpt><trkpt lat="44.7011083" lon="9.2624533"><ele>1094.1666666666665</ele><time>2026-04-04T13:19:38.602Z</time></trkpt><trkpt lat="44.701175" lon="9.2624833"><ele>1092.3333333333333</ele><time>2026-04-04T13:19:39.603Z</time></trkpt><trkpt lat="44.7012333" lon="9.26252"><ele>1090.5</ele><time>2026-04-04T13:19:40.602Z</time></trkpt><trkpt lat="44.7013417" lon="9.26258"><ele>1088.6666666666667</ele><time>2026-04-04T13:19:42.602Z</time></trkpt><trkpt lat="44.70144" lon="9.2625983"><ele>1086.8333333333335</ele><time>2026-04-04T13:19:44.602Z</time></trkpt><trkpt lat="44.7015317" lon="9.26257"><ele>1085.0</ele><time>2026-04-04T13:19:46.602Z</time></trkpt><trkpt lat="44.7016233" lon="9.2625267"><ele>1085.0</ele><time>2026-04-04T13:19:48.602Z</time></trkpt><trkpt lat="44.7017267" lon="9.2624733"><ele>1085.0</ele><time>2026-04-04T13:19:50.601Z</time></trkpt><trkpt lat="44.7018383" lon="9.26244"><ele>1085.0</ele><time>2026-04-04T13:19:52.603Z</time></trkpt><trkpt lat="44.701955" lon="9.2624367"><ele>1085.0</ele><time>2026-04-04T13:19:54.601Z</time></trkpt><trkpt lat="44.7020467" lon="9.2624483"><ele>1085.0</ele><time>2026-04-04T13:19:56.604Z</time></trkpt><trkpt lat="44.702145" lon="9.2624817"><ele>1081.25</ele><time>2026-04-04T13:19:58.602Z</time></trkpt><trkpt lat="44.7022467" lon="9.2624967"><ele>1077.5</ele><time>2026-04-04T13:20:00.603Z</time></trkpt><trkpt lat="44.702365" lon="9.2625117"><ele>1073.75</ele><time>2026-04-04T13:20:02.604Z</time></trkpt><trkpt lat="44.7024817" lon="9.26255"><ele>1070.0</ele><time>2026-04-04T13:20:04.603Z</time></trkpt><trkpt lat="44.7025933" lon="9.2625883"><ele>1070.0</ele><time>2026-04-04T13:20:06.602Z</time></trkpt><trkpt lat="44.7027051" lon="9.2626299"><ele>1070.0</ele><time>2026-04-04T13:20:08.604Z</time></trkpt><trkpt lat="44.7028265" lon="9.2626605"><ele>1070.0</ele><time>2026-04-04T13:20:10.606Z</time></trkpt><trkpt lat="44.7028916" lon="9.2626803"><ele>1070.0</ele><time>2026-04-04T13:20:11.604Z</time></trkpt><trkpt lat="44.7029524" lon="9.2627077"><ele>1070.0</ele><time>2026-04-04T13:20:12.604Z</time></trkpt><trkpt lat="44.7030114" lon="9.2627429"><ele>1070.0</ele><time>2026-04-04T13:20:13.605Z</time></trkpt><trkpt lat="44.7031173" lon="9.2628077"><ele>1068.8</ele><time>2026-04-04T13:20:15.605Z</time></trkpt><trkpt lat="44.7032191" lon="9.2628739"><ele>1067.6</ele><time>2026-04-04T13:20:17.604Z</time></trkpt><trkpt lat="44.703323" lon="9.2629333"><ele>1066.4</ele><time>2026-04-04T13:20:19.604Z</time></trkpt><trkpt lat="44.7034373" lon="9.2629981"><ele>1065.2</ele><time>2026-04-04T13:20:21.604Z</time></trkpt><trkpt lat="44.7034953" lon="9.2630337"><ele>1064.0</ele><time>2026-04-04T13:20:22.604Z</time></trkpt><trkpt lat="44.7035548" lon="9.2630675"><ele>1064.4</ele><time>2026-04-04T13:20:23.602Z</time></trkpt><trkpt lat="44.7036186" lon="9.2631001"><ele>1064.8000000000002</ele><time>2026-04-04T13:20:24.602Z</time></trkpt><trkpt lat="44.7037242" lon="9.2631657"><ele>1065.1999999999998</ele><time>2026-04-04T13:20:26.603Z</time></trkpt><trkpt lat="44.7038048" lon="9.2632222"><ele>1065.6</ele><time>2026-04-04T13:20:28.602Z</time></trkpt><trkpt lat="44.7039023" lon="9.2632793"><ele>1066.0</ele><time>2026-04-04T13:20:30.603Z</time></trkpt><trkpt lat="44.7039746" lon="9.2633189"><ele>1060.6666666666665</ele><time>2026-04-04T13:20:31.604Z</time></trkpt><trkpt lat="44.7040481" lon="9.2633564"><ele>1055.3333333333333</ele><time>2026-04-04T13:20:32.603Z</time></trkpt><trkpt lat="44.7041286" lon="9.2633932"><ele>1050.0</ele><time>2026-04-04T13:20:33.603Z</time></trkpt><trkpt lat="44.7042069" lon="9.2634402"><ele>1044.6666666666667</ele><time>2026-04-04T13:20:34.602Z</time></trkpt><trkpt lat="44.7042762" lon="9.2634914"><ele>1039.3333333333335</ele><time>2026-04-04T13:20:35.601Z</time></trkpt><trkpt lat="44.7043393" lon="9.2635383"><ele>1034.0</ele><time>2026-04-04T13:20:36.604Z</time></trkpt><trkpt lat="44.7044031" lon="9.2635903"><ele>1034.8333333333335</ele><time>2026-04-04T13:20:37.601Z</time></trkpt><trkpt lat="44.7044622" lon="9.2636484"><ele>1035.6666666666667</ele><time>2026-04-04T13:20:38.602Z</time></trkpt><trkpt lat="44.704518" lon="9.263705"><ele>1036.5</ele><time>2026-04-04T13:20:39.601Z</time></trkpt><trkpt lat="44.7045807" lon="9.263749"><ele>1037.3333333333333</ele><time>2026-04-04T13:20:40.602Z</time></trkpt><trkpt lat="44.7046525" lon="9.263793"><ele>1038.1666666666665</ele><time>2026-04-04T13:20:41.602Z</time></trkpt><trkpt lat="44.704731" lon="9.2638485"><ele>1039.0</ele><time>2026-04-04T13:20:42.603Z</time></trkpt><trkpt lat="44.7048062" lon="9.2639125"><ele>1035.3333333333333</ele><time>2026-04-04T13:20:43.603Z</time></trkpt><trkpt lat="44.7048769" lon="9.263974"><ele>1031.6666666666665</ele><time>2026-04-04T13:20:44.603Z</time></trkpt><trkpt lat="44.7049388" lon="9.2640278"><ele>1028.0</ele><time>2026-04-04T13:20:45.602Z</time></trkpt><trkpt lat="44.705011" lon="9.2641098"><ele>1024.3333333333333</ele><time>2026-04-04T13:20:47.603Z</time></trkpt><trkpt lat="44.7050463" lon="9.2642369"><ele>1020.6666666666666</ele><time>2026-04-04T13:20:50.603Z</time></trkpt><trkpt lat="44.7051003" lon="9.2643505"><ele>1017.0</ele><time>2026-04-04T13:20:52.602Z</time></trkpt><trkpt lat="44.7051631" lon="9.2644647"><ele>1017.0</ele><time>2026-04-04T13:20:54.605Z</time></trkpt><trkpt lat="44.7052272" lon="9.2645687"><ele>1017.0</ele><time>2026-04-04T13:20:56.603Z</time></trkpt><trkpt lat="44.7053189" lon="9.2646802"><ele>1017.0</ele><time>2026-04-04T13:20:58.603Z</time></trkpt><trkpt lat="44.7053764" lon="9.264746"><ele>1017.0</ele><time>2026-04-04T13:20:59.602Z</time></trkpt><trkpt lat="44.7054428" lon="9.264819"><ele>1017.0</ele><time>2026-04-04T13:21:00.603Z</time></trkpt><trkpt lat="44.7055173" lon="9.2648972"><ele>1015.6</ele><time>2026-04-04T13:21:01.602Z</time></trkpt><trkpt lat="44.7055989" lon="9.2649748"><ele>1014.2</ele><time>2026-04-04T13:21:02.603Z</time></trkpt><trkpt lat="44.7056816" lon="9.2650478"><ele>1012.8</ele><time>2026-04-04T13:21:03.603Z</time></trkpt><trkpt lat="44.705761" lon="9.2651153"><ele>1011.4</ele><time>2026-04-04T13:21:04.602Z</time></trkpt><trkpt lat="44.7058309" lon="9.2651799"><ele>1010.0</ele><time>2026-04-04T13:21:05.603Z</time></trkpt><trkpt lat="44.7058942" lon="9.2652431"><ele>1010.0000000000001</ele><time>2026-04-04T13:21:06.603Z</time></trkpt><trkpt lat="44.705954" lon="9.2653105"><ele>1010.0</ele><time>2026-04-04T13:21:07.603Z</time></trkpt><trkpt lat="44.7060121" lon="9.2653781"><ele>1010.0</ele><time>2026-04-04T13:21:08.605Z</time></trkpt><trkpt lat="44.70607" lon="9.2654508"><ele>1010.0</ele><time>2026-04-04T13:21:09.603Z</time></trkpt><trkpt lat="44.7061268" lon="9.2655274"><ele>1010.0000000000001</ele><time>2026-04-04T13:21:10.601Z</time></trkpt><trkpt lat="44.7061817" lon="9.2656072"><ele>1010.0</ele><time>2026-04-04T13:21:11.601Z</time></trkpt><trkpt lat="44.7062337" lon="9.2656833"><ele>1008.0000000000001</ele><time>2026-04-04T13:21:12.603Z</time></trkpt><trkpt lat="44.7062894" lon="9.2657568"><ele>1006.0</ele><time>2026-04-04T13:21:13.602Z</time></trkpt><trkpt lat="44.7063548" lon="9.26583"><ele>1004.0</ele><time>2026-04-04T13:21:14.602Z</time></trkpt><trkpt lat="44.7064328" lon="9.2658959"><ele>1002.0</ele><time>2026-04-04T13:21:15.601Z</time></trkpt><trkpt lat="44.7065196" lon="9.2659531"><ele>1000.0000000000001</ele><time>2026-04-04T13:21:16.601Z</time></trkpt><trkpt lat="44.7066074" lon="9.2659998"><ele>998.0</ele><time>2026-04-04T13:21:17.601Z</time></trkpt><trkpt lat="44.7066935" lon="9.2660478"><ele>998.0000000000001</ele><time>2026-04-04T13:21:18.601Z</time></trkpt><trkpt lat="44.7067716" lon="9.2661107"><ele>998.0</ele><time>2026-04-04T13:21:19.601Z</time></trkpt><trkpt lat="44.7068374" lon="9.2661957"><ele>998.0</ele><time>2026-04-04T13:21:20.602Z</time></trkpt><trkpt lat="44.7068939" lon="9.266296"><ele>998.0</ele><time>2026-04-04T13:21:21.603Z</time></trkpt><trkpt lat="44.7069465" lon="9.2664024"><ele>998.0000000000001</ele><time>2026-04-04T13:21:22.603Z</time></trkpt><trkpt lat="44.7069964" lon="9.2665004"><ele>998.0</ele><time>2026-04-04T13:21:23.601Z</time></trkpt><trkpt lat="44.7070399" lon="9.2665837"><ele>996.2</ele><time>2026-04-04T13:21:24.602Z</time></trkpt><trkpt lat="44.7070928" lon="9.266713"><ele>994.4</ele><time>2026-04-04T13:21:26.604Z</time></trkpt><trkpt lat="44.7071058" lon="9.2668109"><ele>992.6000000000001</ele><time>2026-04-04T13:21:28.602Z</time></trkpt><trkpt lat="44.7071307" lon="9.2669052"><ele>990.8000000000001</ele><time>2026-04-04T13:21:30.601Z</time></trkpt><trkpt lat="44.7071925" lon="9.2669999"><ele>989.0</ele><time>2026-04-04T13:21:32.605Z</time></trkpt><trkpt lat="44.7072825" lon="9.267109"><ele>989.0000000000001</ele><time>2026-04-04T13:21:34.603Z</time></trkpt><trkpt lat="44.707342" lon="9.2672266"><ele>989.0</ele><time>2026-04-04T13:21:36.605Z</time></trkpt><trkpt lat="44.7073617" lon="9.2673367"><ele>989.0</ele><time>2026-04-04T13:21:39.605Z</time></trkpt><trkpt lat="44.70739" lon="9.2674417"><ele>989.0</ele><time>2026-04-04T13:21:41.602Z</time></trkpt><trkpt lat="44.7074217" lon="9.26752"><ele>989.0000000000001</ele><time>2026-04-04T13:21:43.603Z</time></trkpt><trkpt lat="44.7074883" lon="9.267575"><ele>989.0</ele><time>2026-04-04T13:21:46.605Z</time></trkpt><trkpt lat="44.707535" lon="9.2676467"><ele>986.0</ele><time>2026-04-04T13:21:48.603Z</time></trkpt><trkpt lat="44.7075567" lon="9.2677667"><ele>983.0000000000001</ele><time>2026-04-04T13:21:50.602Z</time></trkpt><trkpt lat="44.7076" lon="9.2679"><ele>980.0000000000001</ele><time>2026-04-04T13:21:52.602Z</time></trkpt><trkpt lat="44.70765" lon="9.2680167"><ele>977.0</ele><time>2026-04-04T13:21:54.601Z</time></trkpt><trkpt lat="44.7077067" lon="9.2681133"><ele>974.0</ele><time>2026-04-04T13:21:56.602Z</time></trkpt><trkpt lat="44.7077783" lon="9.2682083"><ele>973.0</ele><time>2026-04-04T13:21:58.602Z</time></trkpt><trkpt lat="44.707855" lon="9.268305"><ele>972.0</ele><time>2026-04-04T13:22:00.603Z</time></trkpt><trkpt lat="44.707935" lon="9.268425"><ele>971.0</ele><time>2026-04-04T13:22:02.603Z</time></trkpt><trkpt lat="44.7080183" lon="9.2685333"><ele>970.0</ele><time>2026-04-04T13:22:04.602Z</time></trkpt><trkpt lat="44.7081133" lon="9.2686583"><ele>969.9999999999999</ele><time>2026-04-04T13:22:06.602Z</time></trkpt><trkpt lat="44.708165" lon="9.268725"><ele>970.0</ele><time>2026-04-04T13:22:07.602Z</time></trkpt><trkpt lat="44.7082133" lon="9.2687867"><ele>970.0</ele><time>2026-04-04T13:22:08.604Z</time></trkpt><trkpt lat="44.7082617" lon="9.2688467"><ele>970.0</ele><time>2026-04-04T13:22:09.601Z</time></trkpt><trkpt lat="44.708325" lon="9.26895"><ele>969.9999999999999</ele><time>2026-04-04T13:22:11.602Z</time></trkpt><trkpt lat="44.7083783" lon="9.269055"><ele>970.0</ele><time>2026-04-04T13:22:13.602Z</time></trkpt><trkpt lat="44.7084417" lon="9.2691733"><ele>967.0</ele><time>2026-04-04T13:22:15.602Z</time></trkpt><trkpt lat="44.7085417" lon="9.269295"><ele>964.0</ele><time>2026-04-04T13:22:17.601Z</time></trkpt><trkpt lat="44.7086317" lon="9.2693717"><ele>961.0</ele><time>2026-04-04T13:22:18.602Z</time></trkpt><trkpt lat="44.70875" lon="9.2694717"><ele>958.0</ele><time>2026-04-04T13:22:19.601Z</time></trkpt><trkpt lat="44.7088617" lon="9.2695683"><ele>958.0</ele><time>2026-04-04T13:22:20.603Z</time></trkpt><trkpt lat="44.70897" lon="9.2696717"><ele>958.0</ele><time>2026-04-04T13:22:21.602Z</time></trkpt><trkpt lat="44.7090717" lon="9.26979"><ele>958.0</ele><time>2026-04-04T13:22:22.602Z</time></trkpt><trkpt lat="44.70916" lon="9.2699117"><ele>958.0</ele><time>2026-04-04T13:22:23.601Z</time></trkpt><trkpt lat="44.7092383" lon="9.2700367"><ele>958.4</ele><time>2026-04-04T13:22:24.602Z</time></trkpt><trkpt lat="44.7093067" lon="9.2701683"><ele>958.8</ele><time>2026-04-04T13:22:25.602Z</time></trkpt><trkpt lat="44.7093667" lon="9.270305"><ele>959.2</ele><time>2026-04-04T13:22:26.602Z</time></trkpt><trkpt lat="44.70941" lon="9.2704433"><ele>959.6</ele><time>2026-04-04T13:22:27.601Z</time></trkpt><trkpt lat="44.7094433" lon="9.270585"><ele>960.0</ele><time>2026-04-04T13:22:28.601Z</time></trkpt><trkpt lat="44.7094833" lon="9.27072"><ele>957.6666666666666</ele><time>2026-04-04T13:22:29.603Z</time></trkpt><trkpt lat="44.7095283" lon="9.270845"><ele>955.3333333333333</ele><time>2026-04-04T13:22:30.602Z</time></trkpt><trkpt lat="44.7095783" lon="9.2709533"><ele>953.0</ele><time>2026-04-04T13:22:31.602Z</time></trkpt><trkpt lat="44.7096167" lon="9.27106"><ele>950.6666666666666</ele><time>2026-04-04T13:22:32.603Z</time></trkpt><trkpt lat="44.7096367" lon="9.2711667"><ele>948.3333333333333</ele><time>2026-04-04T13:22:33.6Z</time></trkpt><trkpt lat="44.7096417" lon="9.2712783"><ele>946.0</ele><time>2026-04-04T13:22:34.601Z</time></trkpt><trkpt lat="44.7096167" lon="9.2713933"><ele>945.0</ele><time>2026-04-04T13:22:35.6Z</time></trkpt><trkpt lat="44.7095767" lon="9.27152"><ele>943.9999999999999</ele><time>2026-04-04T13:22:36.6Z</time></trkpt><trkpt lat="44.7095333" lon="9.2716517"><ele>942.9999999999999</ele><time>2026-04-04T13:22:37.602Z</time></trkpt><trkpt lat="44.70949" lon="9.2717817"><ele>942.0</ele><time>2026-04-04T13:22:38.603Z</time></trkpt><trkpt lat="44.7094517" lon="9.2719133"><ele>941.0</ele><time>2026-04-04T13:22:39.602Z</time></trkpt><trkpt lat="44.70941" lon="9.2720383"><ele>936.8</ele><time>2026-04-04T13:22:40.6Z</time></trkpt><trkpt lat="44.7093733" lon="9.27216"><ele>932.5999999999999</ele><time>2026-04-04T13:22:41.602Z</time></trkpt><trkpt lat="44.7093383" lon="9.2722867"><ele>928.4</ele><time>2026-04-04T13:22:42.602Z</time></trkpt><trkpt lat="44.709305" lon="9.2724283"><ele>924.2</ele><time>2026-04-04T13:22:43.602Z</time></trkpt><trkpt lat="44.7092717" lon="9.27257"><ele>920.0</ele><time>2026-04-04T13:22:44.603Z</time></trkpt><trkpt lat="44.7092417" lon="9.272705"><ele>920.0</ele><time>2026-04-04T13:22:45.603Z</time></trkpt><trkpt lat="44.7092183" lon="9.2728417"><ele>920.0</ele><time>2026-04-04T13:22:46.602Z</time></trkpt><trkpt lat="44.7092017" lon="9.2729817"><ele>920.0</ele><time>2026-04-04T13:22:47.602Z</time></trkpt><trkpt lat="44.7091983" lon="9.2731217"><ele>920.0</ele><time>2026-04-04T13:22:48.605Z</time></trkpt><trkpt lat="44.7092017" lon="9.2732517"><ele>920.0</ele><time>2026-04-04T13:22:49.604Z</time></trkpt><trkpt lat="44.7092183" lon="9.2733733"><ele>920.0000000000001</ele><time>2026-04-04T13:22:50.605Z</time></trkpt><trkpt lat="44.709245" lon="9.27349"><ele>920.0</ele><time>2026-04-04T13:22:51.603Z</time></trkpt><trkpt lat="44.7092767" lon="9.2735983"><ele>920.0</ele><time>2026-04-04T13:22:52.602Z</time></trkpt><trkpt lat="44.70932" lon="9.2736883"><ele>920.0</ele><time>2026-04-04T13:22:53.604Z</time></trkpt><trkpt lat="44.7093783" lon="9.2737633"><ele>920.0000000000001</ele><time>2026-04-04T13:22:54.603Z</time></trkpt><trkpt lat="44.7094633" lon="9.2738133"><ele>920.0</ele><time>2026-04-04T13:22:55.601Z</time></trkpt><trkpt lat="44.709585" lon="9.27385"><ele>920.5</ele><time>2026-04-04T13:22:56.602Z</time></trkpt><trkpt lat="44.70972" lon="9.2738933"><ele>921.0</ele><time>2026-04-04T13:22:57.601Z</time></trkpt><trkpt lat="44.70985" lon="9.2739433"><ele>921.5</ele><time>2026-04-04T13:22:58.602Z</time></trkpt><trkpt lat="44.7099733" lon="9.2739933"><ele>922.0</ele><time>2026-04-04T13:22:59.601Z</time></trkpt><trkpt lat="44.71009" lon="9.2740367"><ele>922.0</ele><time>2026-04-04T13:23:00.6Z</time></trkpt><trkpt lat="44.7101983" lon="9.2740767"><ele>922.0</ele><time>2026-04-04T13:23:01.602Z</time></trkpt><trkpt lat="44.7103117" lon="9.2741217"><ele>922.0</ele><time>2026-04-04T13:23:02.604Z</time></trkpt><trkpt lat="44.710425" lon="9.2741683"><ele>922.0</ele><time>2026-04-04T13:23:03.601Z</time></trkpt><trkpt lat="44.710525" lon="9.2742233"><ele>926.4000000000001</ele><time>2026-04-04T13:23:04.602Z</time></trkpt><trkpt lat="44.7105983" lon="9.27427"><ele>930.8000000000001</ele><time>2026-04-04T13:23:05.602Z</time></trkpt><trkpt lat="44.710685" lon="9.274335"><ele>935.2</ele><time>2026-04-04T13:23:07.603Z</time></trkpt><trkpt lat="44.7107783" lon="9.2743267"><ele>939.6</ele><time>2026-04-04T13:23:10.602Z</time></trkpt><trkpt lat="44.71089" lon="9.274375"><ele>944.0</ele><time>2026-04-04T13:23:12.602Z</time></trkpt><trkpt lat="44.710965" lon="9.27441"><ele>944.0</ele><time>2026-04-04T13:23:13.601Z</time></trkpt><trkpt lat="44.71107" lon="9.274475"><ele>944.0</ele><time>2026-04-04T13:23:14.601Z</time></trkpt><trkpt lat="44.7111733" lon="9.2745867"><ele>944.0</ele><time>2026-04-04T13:23:15.602Z</time></trkpt><trkpt lat="44.711255" lon="9.2747133"><ele>944.0</ele><time>2026-04-04T13:23:16.602Z</time></trkpt><trkpt lat="44.711325" lon="9.2748367"><ele>945.5000000000001</ele><time>2026-04-04T13:23:17.605Z</time></trkpt><trkpt lat="44.7113833" lon="9.2749483"><ele>947.0</ele><time>2026-04-04T13:23:18.603Z</time></trkpt><trkpt lat="44.7114367" lon="9.275045"><ele>948.5</ele><time>2026-04-04T13:23:19.604Z</time></trkpt><trkpt lat="44.7114917" lon="9.2751217"><ele>950.0</ele><time>2026-04-04T13:23:20.606Z</time></trkpt><trkpt lat="44.71156" lon="9.2751767"><ele>951.5000000000001</ele><time>2026-04-04T13:23:21.602Z</time></trkpt><trkpt lat="44.71164" lon="9.2752117"><ele>953.0</ele><time>2026-04-04T13:23:22.602Z</time></trkpt><trkpt lat="44.7117067" lon="9.275235"><ele>953.0000000000001</ele><time>2026-04-04T13:23:23.602Z</time></trkpt><trkpt lat="44.7117817" lon="9.275255"><ele>953.0</ele><time>2026-04-04T13:23:24.605Z</time></trkpt><trkpt lat="44.71186" lon="9.2752933"><ele>953.0</ele><time>2026-04-04T13:23:25.603Z</time></trkpt><trkpt lat="44.71194" lon="9.27534"><ele>953.0</ele><time>2026-04-04T13:23:26.603Z</time></trkpt><trkpt lat="44.71202" lon="9.27539"><ele>953.0000000000001</ele><time>2026-04-04T13:23:27.602Z</time></trkpt><trkpt lat="44.7120917" lon="9.275445"><ele>953.0</ele><time>2026-04-04T13:23:28.602Z</time></trkpt><trkpt lat="44.7121533" lon="9.275515"><ele>955.5000000000001</ele><time>2026-04-04T13:23:29.602Z</time></trkpt><trkpt lat="44.7122" lon="9.2755833"><ele>958.0</ele><time>2026-04-04T13:23:30.601Z</time></trkpt><trkpt lat="44.7122633" lon="9.2757333"><ele>960.5</ele><time>2026-04-04T13:23:32.602Z</time></trkpt><trkpt lat="44.7123167" lon="9.2758867"><ele>963.0</ele><time>2026-04-04T13:23:34.602Z</time></trkpt><trkpt lat="44.712345" lon="9.27597"><ele>965.5000000000001</ele><time>2026-04-04T13:23:35.603Z</time></trkpt><trkpt lat="44.71237" lon="9.27606"><ele>968.0</ele><time>2026-04-04T13:23:36.602Z</time></trkpt><trkpt lat="44.7124217" lon="9.27622"><ele>968.0</ele><time>2026-04-04T13:23:38.603Z</time></trkpt><trkpt lat="44.7124783" lon="9.276365"><ele>968.0</ele><time>2026-04-04T13:23:40.602Z</time></trkpt><trkpt lat="44.7125283" lon="9.2764883"><ele>968.0</ele><time>2026-04-04T13:23:42.601Z</time></trkpt><trkpt lat="44.712585" lon="9.276585"><ele>968.0</ele><time>2026-04-04T13:23:44.602Z</time></trkpt><trkpt lat="44.7126533" lon="9.2766717"><ele>968.0</ele><time>2026-04-04T13:23:46.602Z</time></trkpt><trkpt lat="44.71273" lon="9.2767383"><ele>968.0</ele><time>2026-04-04T13:23:48.604Z</time></trkpt><trkpt lat="44.7127983" lon="9.27667"><ele>968.0</ele><time>2026-04-04T13:23:51.603Z</time></trkpt><trkpt lat="44.7128183" lon="9.2765417"><ele>968.0</ele><time>2026-04-04T13:23:53.602Z</time></trkpt><trkpt lat="44.7128" lon="9.2764083"><ele>968.0</ele><time>2026-04-04T13:23:55.602Z</time></trkpt><trkpt lat="44.7127617" lon="9.2762533"><ele>968.0</ele><time>2026-04-04T13:23:57.603Z</time></trkpt><trkpt lat="44.7127583" lon="9.2761083"><ele>968.0</ele><time>2026-04-04T13:23:59.603Z</time></trkpt><trkpt lat="44.7127783" lon="9.27595"><ele>968.0</ele><time>2026-04-04T13:24:01.601Z</time></trkpt><trkpt lat="44.7128145" lon="9.2757871"><ele>968.0</ele><time>2026-04-04T13:24:03.602Z</time></trkpt><trkpt lat="44.7128489" lon="9.2757043"><ele>968.0</ele><time>2026-04-04T13:24:04.602Z</time></trkpt><trkpt lat="44.7129251" lon="9.2756075"><ele>968.0</ele><time>2026-04-04T13:24:06.602Z</time></trkpt><trkpt lat="44.7130239" lon="9.2755357"><ele>970.4</ele><time>2026-04-04T13:24:08.602Z</time></trkpt><trkpt lat="44.7131146" lon="9.275446"><ele>972.8</ele><time>2026-04-04T13:24:10.602Z</time></trkpt><trkpt lat="44.7132109" lon="9.2753228"><ele>975.2</ele><time>2026-04-04T13:24:12.602Z</time></trkpt><trkpt lat="44.7132663" lon="9.275257"><ele>977.6</ele><time>2026-04-04T13:24:13.601Z</time></trkpt><trkpt lat="44.7133246" lon="9.2751864"><ele>980.0</ele><time>2026-04-04T13:24:14.602Z</time></trkpt><trkpt lat="44.7133791" lon="9.2751107"><ele>980.0000000000001</ele><time>2026-04-04T13:24:15.603Z</time></trkpt><trkpt lat="44.7134266" lon="9.2750332"><ele>980.0</ele><time>2026-04-04T13:24:16.602Z</time></trkpt><trkpt lat="44.7134634" lon="9.2749499"><ele>980.0</ele><time>2026-04-04T13:24:17.602Z</time></trkpt><trkpt lat="44.7134963" lon="9.2748521"><ele>980.0</ele><time>2026-04-04T13:24:18.604Z</time></trkpt><trkpt lat="44.7135278" lon="9.2747469"><ele>980.0000000000001</ele><time>2026-04-04T13:24:19.603Z</time></trkpt><trkpt lat="44.713573" lon="9.2746436"><ele>980.0</ele><time>2026-04-04T13:24:20.602Z</time></trkpt><trkpt lat="44.7136276" lon="9.2745537"><ele>980.2857142857142</ele><time>2026-04-04T13:24:21.603Z</time></trkpt><trkpt lat="44.7136807" lon="9.2744766"><ele>980.5714285714286</ele><time>2026-04-04T13:24:22.603Z</time></trkpt><trkpt lat="44.7137292" lon="9.2744016"><ele>980.8571428571429</ele><time>2026-04-04T13:24:23.602Z</time></trkpt><trkpt lat="44.7137765" lon="9.2743234"><ele>981.1428571428571</ele><time>2026-04-04T13:24:24.602Z</time></trkpt><trkpt lat="44.713818" lon="9.274246"><ele>981.4285714285713</ele><time>2026-04-04T13:24:25.601Z</time></trkpt><trkpt lat="44.7138501" lon="9.2741674"><ele>981.7142857142857</ele><time>2026-04-04T13:24:26.603Z</time></trkpt><trkpt lat="44.7138798" lon="9.2740799"><ele>982.0</ele><time>2026-04-04T13:24:27.601Z</time></trkpt><trkpt lat="44.7139027" lon="9.2739793"><ele>984.9999999999999</ele><time>2026-04-04T13:24:28.602Z</time></trkpt><trkpt lat="44.713921" lon="9.2738662"><ele>988.0</ele><time>2026-04-04T13:24:29.601Z</time></trkpt><trkpt lat="44.7139442" lon="9.2737549"><ele>991.0</ele><time>2026-04-04T13:24:30.601Z</time></trkpt><trkpt lat="44.7139724" lon="9.2736513"><ele>994.0</ele><time>2026-04-04T13:24:31.602Z</time></trkpt><trkpt lat="44.7140034" lon="9.2735518"><ele>996.9999999999999</ele><time>2026-04-04T13:24:32.604Z</time></trkpt><trkpt lat="44.7140413" lon="9.273461"><ele>1000.0</ele><time>2026-04-04T13:24:33.602Z</time></trkpt><trkpt lat="44.7140844" lon="9.2733724"><ele>999.9999999999999</ele><time>2026-04-04T13:24:34.602Z</time></trkpt><trkpt lat="44.7141389" lon="9.2732806"><ele>1000.0</ele><time>2026-04-04T13:24:35.601Z</time></trkpt><trkpt lat="44.7141957" lon="9.2731955"><ele>1000.0</ele><time>2026-04-04T13:24:36.602Z</time></trkpt><trkpt lat="44.7142498" lon="9.2731182"><ele>1000.0</ele><time>2026-04-04T13:24:37.602Z</time></trkpt><trkpt lat="44.714304" lon="9.2730465"><ele>999.9999999999999</ele><time>2026-04-04T13:24:38.605Z</time></trkpt><trkpt lat="44.7143577" lon="9.2729796"><ele>1000.0</ele><time>2026-04-04T13:24:39.601Z</time></trkpt><trkpt lat="44.7144083" lon="9.2729202"><ele>998.6666666666666</ele><time>2026-04-04T13:24:40.601Z</time></trkpt><trkpt lat="44.7144612" lon="9.2728606"><ele>997.3333333333333</ele><time>2026-04-04T13:24:41.602Z</time></trkpt><trkpt lat="44.7145257" lon="9.272788"><ele>996.0</ele><time>2026-04-04T13:24:42.602Z</time></trkpt><trkpt lat="44.7145948" lon="9.2727036"><ele>994.6666666666667</ele><time>2026-04-04T13:24:43.602Z</time></trkpt><trkpt lat="44.7146615" lon="9.27261"><ele>993.3333333333334</ele><time>2026-04-04T13:24:44.603Z</time></trkpt><trkpt lat="44.7147258" lon="9.2725005"><ele>992.0</ele><time>2026-04-04T13:24:45.603Z</time></trkpt><trkpt lat="44.7147851" lon="9.2723695"><ele>994.0</ele><time>2026-04-04T13:24:46.602Z</time></trkpt><trkpt lat="44.7148472" lon="9.2722247"><ele>996.0</ele><time>2026-04-04T13:24:47.603Z</time></trkpt><trkpt lat="44.7149087" lon="9.2720781"><ele>998.0</ele><time>2026-04-04T13:24:48.603Z</time></trkpt><trkpt lat="44.7149663" lon="9.2719398"><ele>1000.0</ele><time>2026-04-04T13:24:49.604Z</time></trkpt><trkpt lat="44.715023" lon="9.2718153"><ele>1000.0</ele><time>2026-04-04T13:24:50.603Z</time></trkpt><trkpt lat="44.7150834" lon="9.2717101"><ele>1000.0</ele><time>2026-04-04T13:24:51.603Z</time></trkpt><trkpt lat="44.7151518" lon="9.271607"><ele>1000.0</ele><time>2026-04-04T13:24:52.603Z</time></trkpt><trkpt lat="44.7152301" lon="9.2715002"><ele>1000.0</ele><time>2026-04-04T13:24:53.603Z</time></trkpt><trkpt lat="44.7153121" lon="9.2713893"><ele>1000.0</ele><time>2026-04-04T13:24:54.603Z</time></trkpt><trkpt lat="44.7153904" lon="9.2712787"><ele>999.1666666666666</ele><time>2026-04-04T13:24:55.603Z</time></trkpt><trkpt lat="44.7154664" lon="9.271176"><ele>998.3333333333333</ele><time>2026-04-04T13:24:56.602Z</time></trkpt><trkpt lat="44.7155291" lon="9.2710805"><ele>997.5</ele><time>2026-04-04T13:24:57.601Z</time></trkpt><trkpt lat="44.7155864" lon="9.2709874"><ele>996.6666666666667</ele><time>2026-04-04T13:24:58.602Z</time></trkpt><trkpt lat="44.7156408" lon="9.2709052"><ele>995.8333333333334</ele><time>2026-04-04T13:24:59.604Z</time></trkpt><trkpt lat="44.7156934" lon="9.2708337"><ele>995.0</ele><time>2026-04-04T13:25:00.602Z</time></trkpt><trkpt lat="44.7157435" lon="9.2707739"><ele>995.0</ele><time>2026-04-04T13:25:01.601Z</time></trkpt><trkpt lat="44.7158335" lon="9.2706919"><ele>995.0</ele><time>2026-04-04T13:25:03.602Z</time></trkpt><trkpt lat="44.7159011" lon="9.2706207"><ele>995.0</ele><time>2026-04-04T13:25:05.602Z</time></trkpt><trkpt lat="44.7159636" lon="9.2704893"><ele>995.0</ele><time>2026-04-04T13:25:07.602Z</time></trkpt><trkpt lat="44.7160364" lon="9.2703489"><ele>995.0</ele><time>2026-04-04T13:25:09.603Z</time></trkpt><trkpt lat="44.7161516" lon="9.2702914"><ele>997.0000000000001</ele><time>2026-04-04T13:25:11.602Z</time></trkpt><trkpt lat="44.7162163" lon="9.2702904"><ele>999.0</ele><time>2026-04-04T13:25:12.601Z</time></trkpt><trkpt lat="44.7162899" lon="9.2703081"><ele>1001.0</ele><time>2026-04-04T13:25:13.6Z</time></trkpt><trkpt lat="44.7163702" lon="9.2703368"><ele>1003.0</ele><time>2026-04-04T13:25:14.601Z</time></trkpt><trkpt lat="44.7164504" lon="9.27037"><ele>1005.0000000000001</ele><time>2026-04-04T13:25:15.603Z</time></trkpt><trkpt lat="44.7165254" lon="9.2704031"><ele>1007.0</ele><time>2026-04-04T13:25:16.602Z</time></trkpt><trkpt lat="44.7165926" lon="9.270431"><ele>1007.0</ele><time>2026-04-04T13:25:17.603Z</time></trkpt><trkpt lat="44.7167033" lon="9.27049"><ele>1007.0</ele><time>2026-04-04T13:25:19.604Z</time></trkpt><trkpt lat="44.7168105" lon="9.2705781"><ele>1007.0</ele><time>2026-04-04T13:25:21.604Z</time></trkpt><trkpt lat="44.7168912" lon="9.2706858"><ele>1007.0</ele><time>2026-04-04T13:25:23.603Z</time></trkpt><trkpt lat="44.7169657" lon="9.2707329"><ele>1007.0</ele><time>2026-04-04T13:25:25.601Z</time></trkpt><trkpt lat="44.7171052" lon="9.270737"><ele>1002.6</ele><time>2026-04-04T13:25:27.603Z</time></trkpt><trkpt lat="44.7172042" lon="9.2707299"><ele>998.2</ele><time>2026-04-04T13:25:28.602Z</time></trkpt><trkpt lat="44.7173172" lon="9.2707305"><ele>993.8</ele><time>2026-04-04T13:25:29.602Z</time></trkpt><trkpt lat="44.7174205" lon="9.270723"><ele>989.4</ele><time>2026-04-04T13:25:30.601Z</time></trkpt><trkpt lat="44.7175076" lon="9.2706934"><ele>985.0</ele><time>2026-04-04T13:25:31.602Z</time></trkpt><trkpt lat="44.7175757" lon="9.2706418"><ele>987.0</ele><time>2026-04-04T13:25:32.603Z</time></trkpt><trkpt lat="44.7176303" lon="9.2705699"><ele>989.0</ele><time>2026-04-04T13:25:33.602Z</time></trkpt><trkpt lat="44.7176764" lon="9.2704708"><ele>991.0</ele><time>2026-04-04T13:25:34.602Z</time></trkpt><trkpt lat="44.7177166" lon="9.2703527"><ele>993.0</ele><time>2026-04-04T13:25:35.601Z</time></trkpt><trkpt lat="44.7177456" lon="9.2702166"><ele>995.0</ele><time>2026-04-04T13:25:36.603Z</time></trkpt><trkpt lat="44.7177797" lon="9.2700831"><ele>996.0</ele><time>2026-04-04T13:25:37.603Z</time></trkpt><trkpt lat="44.7178293" lon="9.26995"><ele>997.0</ele><time>2026-04-04T13:25:38.603Z</time></trkpt><trkpt lat="44.7178924" lon="9.2698343"><ele>998.0</ele><time>2026-04-04T13:25:39.603Z</time></trkpt><trkpt lat="44.7179634" lon="9.2697401"><ele>999.0</ele><time>2026-04-04T13:25:40.603Z</time></trkpt><trkpt lat="44.7180361" lon="9.2696645"><ele>1000.0</ele><time>2026-04-04T13:25:41.604Z</time></trkpt><trkpt lat="44.7181193" lon="9.2696079"><ele>999.8</ele><time>2026-04-04T13:25:42.604Z</time></trkpt><trkpt lat="44.7182178" lon="9.2695761"><ele>999.6</ele><time>2026-04-04T13:25:43.604Z</time></trkpt><trkpt lat="44.7183206" lon="9.2695537"><ele>999.4000000000001</ele><time>2026-04-04T13:25:44.605Z</time></trkpt><trkpt lat="44.7184161" lon="9.2695318"><ele>999.2</ele><time>2026-04-04T13:25:45.604Z</time></trkpt><trkpt lat="44.7184964" lon="9.2695035"><ele>999.0</ele><time>2026-04-04T13:25:46.604Z</time></trkpt><trkpt lat="44.7185708" lon="9.2694746"><ele>999.0</ele><time>2026-04-04T13:25:47.602Z</time></trkpt><trkpt lat="44.7186539" lon="9.2694451"><ele>999.0000000000001</ele><time>2026-04-04T13:25:48.602Z</time></trkpt><trkpt lat="44.7187424" lon="9.2694113"><ele>999.0000000000001</ele><time>2026-04-04T13:25:49.603Z</time></trkpt><trkpt lat="44.7188391" lon="9.2693686"><ele>999.0</ele><time>2026-04-04T13:25:50.604Z</time></trkpt><trkpt lat="44.7189389" lon="9.2693165"><ele>999.0</ele><time>2026-04-04T13:25:51.601Z</time></trkpt><trkpt lat="44.7190319" lon="9.2692598"><ele>999.0</ele><time>2026-04-04T13:25:52.603Z</time></trkpt><trkpt lat="44.7191202" lon="9.2692028"><ele>999.0000000000001</ele><time>2026-04-04T13:25:53.602Z</time></trkpt><trkpt lat="44.7192058" lon="9.2691525"><ele>999.0000000000001</ele><time>2026-04-04T13:25:54.602Z</time></trkpt><trkpt lat="44.7192961" lon="9.2691049"><ele>999.0</ele><time>2026-04-04T13:25:55.603Z</time></trkpt><trkpt lat="44.7193799" lon="9.2690518"><ele>999.0</ele><time>2026-04-04T13:25:56.603Z</time></trkpt><trkpt lat="44.7194689" lon="9.2690159"><ele>999.2</ele><time>2026-04-04T13:25:57.601Z</time></trkpt><trkpt lat="44.719557" lon="9.2689974"><ele>999.4000000000001</ele><time>2026-04-04T13:25:58.603Z</time></trkpt><trkpt lat="44.7196395" lon="9.2689889"><ele>999.6</ele><time>2026-04-04T13:25:59.602Z</time></trkpt><trkpt lat="44.7197257" lon="9.2689876"><ele>999.8</ele><time>2026-04-04T13:26:00.602Z</time></trkpt><trkpt lat="44.7198192" lon="9.2689906"><ele>1000.0</ele><time>2026-04-04T13:26:01.602Z</time></trkpt><trkpt lat="44.7199183" lon="9.2689965"><ele>1000.0</ele><time>2026-04-04T13:26:02.602Z</time></trkpt><trkpt lat="44.7200184" lon="9.2689919"><ele>1000.0</ele><time>2026-04-04T13:26:03.602Z</time></trkpt><trkpt lat="44.7201162" lon="9.2689902"><ele>1000.0</ele><time>2026-04-04T13:26:04.602Z</time></trkpt><trkpt lat="44.7202116" lon="9.2690029"><ele>1000.0</ele><time>2026-04-04T13:26:05.602Z</time></trkpt><trkpt lat="44.7203073" lon="9.2690368"><ele>1000.0</ele><time>2026-04-04T13:26:06.601Z</time></trkpt><trkpt lat="44.720394" lon="9.2690821"><ele>1003.4</ele><time>2026-04-04T13:26:07.603Z</time></trkpt><trkpt lat="44.7204752" lon="9.269151"><ele>1006.8</ele><time>2026-04-04T13:26:08.601Z</time></trkpt><trkpt lat="44.7205468" lon="9.2692304"><ele>1010.2</ele><time>2026-04-04T13:26:09.604Z</time></trkpt><trkpt lat="44.720602" lon="9.2693255"><ele>1013.6</ele><time>2026-04-04T13:26:10.602Z</time></trkpt><trkpt lat="44.7206379" lon="9.2694443"><ele>1017.0</ele><time>2026-04-04T13:26:11.603Z</time></trkpt><trkpt lat="44.7206758" lon="9.2695666"><ele>1017.0</ele><time>2026-04-04T13:26:12.602Z</time></trkpt><trkpt lat="44.7207195" lon="9.2696783"><ele>1017.0</ele><time>2026-04-04T13:26:13.603Z</time></trkpt><trkpt lat="44.720768" lon="9.2697777"><ele>1017.0</ele><time>2026-04-04T13:26:14.603Z</time></trkpt><trkpt lat="44.7208149" lon="9.2698794"><ele>1017.0</ele><time>2026-04-04T13:26:15.603Z</time></trkpt><trkpt lat="44.7208586" lon="9.2699937"><ele>1017.0</ele><time>2026-04-04T13:26:16.604Z</time></trkpt><trkpt lat="44.7208992" lon="9.2701217"><ele>1015.2</ele><time>2026-04-04T13:26:17.604Z</time></trkpt><trkpt lat="44.7209471" lon="9.2702551"><ele>1013.4000000000001</ele><time>2026-04-04T13:26:18.602Z</time></trkpt><trkpt lat="44.7209958" lon="9.2703854"><ele>1011.5999999999999</ele><time>2026-04-04T13:26:19.603Z</time></trkpt><trkpt lat="44.7210471" lon="9.2705076"><ele>1009.8</ele><time>2026-04-04T13:26:20.603Z</time></trkpt><trkpt lat="44.7211059" lon="9.2706124"><ele>1008.0</ele><time>2026-04-04T13:26:21.603Z</time></trkpt><trkpt lat="44.7211743" lon="9.270704"><ele>1011.0</ele><time>2026-04-04T13:26:22.603Z</time></trkpt><trkpt lat="44.7212488" lon="9.2707753"><ele>1014.0</ele><time>2026-04-04T13:26:23.601Z</time></trkpt><trkpt lat="44.7213233" lon="9.270839"><ele>1017.0</ele><time>2026-04-04T13:26:24.603Z</time></trkpt><trkpt lat="44.721401" lon="9.2708946"><ele>1020.0</ele><time>2026-04-04T13:26:25.603Z</time></trkpt><trkpt lat="44.7214812" lon="9.2709461"><ele>1023.0</ele><time>2026-04-04T13:26:26.603Z</time></trkpt><trkpt lat="44.7215634" lon="9.2709922"><ele>1026.0</ele><time>2026-04-04T13:26:27.601Z</time></trkpt><trkpt lat="44.721634" lon="9.2710258"><ele>1026.0</ele><time>2026-04-04T13:26:28.602Z</time></trkpt><trkpt lat="44.7217027" lon="9.2710431"><ele>1026.0</ele><time>2026-04-04T13:26:29.602Z</time></trkpt><trkpt lat="44.7217776" lon="9.2710548"><ele>1026.0</ele><time>2026-04-04T13:26:30.602Z</time></trkpt><trkpt lat="44.7218623" lon="9.271069"><ele>1026.0</ele><time>2026-04-04T13:26:31.601Z</time></trkpt><trkpt lat="44.7219532" lon="9.2710783"><ele>1026.0</ele><time>2026-04-04T13:26:32.601Z</time></trkpt><trkpt lat="44.7220526" lon="9.271085"><ele>1026.0</ele><time>2026-04-04T13:26:33.602Z</time></trkpt><trkpt lat="44.7221497" lon="9.2710881"><ele>1026.0</ele><time>2026-04-04T13:26:34.601Z</time></trkpt><trkpt lat="44.7222464" lon="9.2710886"><ele>1026.0</ele><time>2026-04-04T13:26:35.602Z</time></trkpt><trkpt lat="44.7223445" lon="9.2710935"><ele>1026.0</ele><time>2026-04-04T13:26:36.602Z</time></trkpt><trkpt lat="44.7224402" lon="9.2711104"><ele>1026.0</ele><time>2026-04-04T13:26:37.602Z</time></trkpt><trkpt lat="44.7225315" lon="9.2711225"><ele>1026.0</ele><time>2026-04-04T13:26:38.602Z</time></trkpt><trkpt lat="44.7226203" lon="9.2711156"><ele>1026.0</ele><time>2026-04-04T13:26:39.603Z</time></trkpt><trkpt lat="44.7226997" lon="9.2710828"><ele>1026.0</ele><time>2026-04-04T13:26:40.602Z</time></trkpt><trkpt lat="44.7227887" lon="9.271021"><ele>1026.0</ele><time>2026-04-04T13:26:41.603Z</time></trkpt><trkpt lat="44.7228856" lon="9.2709506"><ele>1026.0</ele><time>2026-04-04T13:26:42.603Z</time></trkpt><trkpt lat="44.7229956" lon="9.2708914"><ele>1026.0</ele><time>2026-04-04T13:26:43.601Z</time></trkpt><trkpt lat="44.7231232" lon="9.2708469"><ele>1025.3333333333333</ele><time>2026-04-04T13:26:44.603Z</time></trkpt><trkpt lat="44.7232699" lon="9.2708169"><ele>1024.6666666666665</ele><time>2026-04-04T13:26:45.602Z</time></trkpt><trkpt lat="44.7234318" lon="9.2707983"><ele>1024.0</ele><time>2026-04-04T13:26:46.602Z</time></trkpt><trkpt lat="44.7235957" lon="9.2707894"><ele>1025.0</ele><time>2026-04-04T13:26:47.603Z</time></trkpt><trkpt lat="44.7237521" lon="9.2707901"><ele>1026.0</ele><time>2026-04-04T13:26:48.601Z</time></trkpt><trkpt lat="44.7239022" lon="9.270802"><ele>1027.0</ele><time>2026-04-04T13:26:49.602Z</time></trkpt><trkpt lat="44.7240425" lon="9.2708128"><ele>1028.0</ele><time>2026-04-04T13:26:50.602Z</time></trkpt><trkpt lat="44.7241724" lon="9.2708265"><ele>1028.0</ele><time>2026-04-04T13:26:51.603Z</time></trkpt><trkpt lat="44.7242987" lon="9.2708484"><ele>1028.0</ele><time>2026-04-04T13:26:52.602Z</time></trkpt><trkpt lat="44.7244196" lon="9.2708721"><ele>1028.0</ele><time>2026-04-04T13:26:53.604Z</time></trkpt><trkpt lat="44.724531" lon="9.2708893"><ele>1028.0</ele><time>2026-04-04T13:26:54.601Z</time></trkpt><trkpt lat="44.7246365" lon="9.2708938"><ele>1031.0</ele><time>2026-04-04T13:26:55.601Z</time></trkpt><trkpt lat="44.7247349" lon="9.2708845"><ele>1034.0</ele><time>2026-04-04T13:26:56.601Z</time></trkpt><trkpt lat="44.7248254" lon="9.2708825"><ele>1037.0</ele><time>2026-04-04T13:26:57.603Z</time></trkpt><trkpt lat="44.7249116" lon="9.2708934"><ele>1040.0</ele><time>2026-04-04T13:26:58.602Z</time></trkpt><trkpt lat="44.7249937" lon="9.2709208"><ele>1043.0</ele><time>2026-04-04T13:26:59.602Z</time></trkpt><trkpt lat="44.7250669" lon="9.2709629"><ele>1046.0</ele><time>2026-04-04T13:27:00.602Z</time></trkpt><trkpt lat="44.7251405" lon="9.2710276"><ele>1046.0</ele><time>2026-04-04T13:27:01.602Z</time></trkpt><trkpt lat="44.7252174" lon="9.2711005"><ele>1046.0</ele><time>2026-04-04T13:27:02.604Z</time></trkpt><trkpt lat="44.7252991" lon="9.271164"><ele>1046.0</ele><time>2026-04-04T13:27:03.603Z</time></trkpt><trkpt lat="44.7253873" lon="9.2712101"><ele>1046.0</ele><time>2026-04-04T13:27:04.604Z</time></trkpt><trkpt lat="44.7254733" lon="9.2712484"><ele>1046.0</ele><time>2026-04-04T13:27:05.602Z</time></trkpt><trkpt lat="44.7255585" lon="9.2712909"><ele>1048.3333333333335</ele><time>2026-04-04T13:27:06.603Z</time></trkpt><trkpt lat="44.7256422" lon="9.2713415"><ele>1050.6666666666667</ele><time>2026-04-04T13:27:07.601Z</time></trkpt><trkpt lat="44.7257202" lon="9.2713931"><ele>1053.0</ele><time>2026-04-04T13:27:08.602Z</time></trkpt><trkpt lat="44.7257943" lon="9.2714319"><ele>1055.3333333333333</ele><time>2026-04-04T13:27:09.603Z</time></trkpt><trkpt lat="44.7258635" lon="9.2714616"><ele>1057.6666666666665</ele><time>2026-04-04T13:27:10.602Z</time></trkpt><trkpt lat="44.7259355" lon="9.2714816"><ele>1060.0</ele><time>2026-04-04T13:27:11.603Z</time></trkpt><trkpt lat="44.7260096" lon="9.2714919"><ele>1060.5</ele><time>2026-04-04T13:27:12.602Z</time></trkpt><trkpt lat="44.7260805" lon="9.2714892"><ele>1061.0</ele><time>2026-04-04T13:27:13.601Z</time></trkpt><trkpt lat="44.7261494" lon="9.2714798"><ele>1061.5</ele><time>2026-04-04T13:27:14.604Z</time></trkpt><trkpt lat="44.7262144" lon="9.2714688"><ele>1062.0</ele><time>2026-04-04T13:27:15.602Z</time></trkpt><trkpt lat="44.7262849" lon="9.271471"><ele>1062.5</ele><time>2026-04-04T13:27:16.603Z</time></trkpt><trkpt lat="44.7263707" lon="9.2714953"><ele>1063.0</ele><time>2026-04-04T13:27:17.601Z</time></trkpt><trkpt lat="44.726473" lon="9.2715379"><ele>1063.0</ele><time>2026-04-04T13:27:18.602Z</time></trkpt><trkpt lat="44.7265852" lon="9.2715868"><ele>1063.0</ele><time>2026-04-04T13:27:19.605Z</time></trkpt><trkpt lat="44.7266942" lon="9.2716319"><ele>1063.0</ele><time>2026-04-04T13:27:20.605Z</time></trkpt><trkpt lat="44.726792" lon="9.2716555"><ele>1063.0</ele><time>2026-04-04T13:27:21.605Z</time></trkpt><trkpt lat="44.726878" lon="9.2716555"><ele>1063.0</ele><time>2026-04-04T13:27:22.604Z</time></trkpt><trkpt lat="44.726959" lon="9.2716421"><ele>1063.0</ele><time>2026-04-04T13:27:23.605Z</time></trkpt><trkpt lat="44.7270412" lon="9.2716209"><ele>1063.0</ele><time>2026-04-04T13:27:24.604Z</time></trkpt><trkpt lat="44.727128" lon="9.2715959"><ele>1063.0</ele><time>2026-04-04T13:27:25.606Z</time></trkpt><trkpt lat="44.727214" lon="9.2715682"><ele>1063.0</ele><time>2026-04-04T13:27:26.605Z</time></trkpt><trkpt lat="44.7272979" lon="9.271531"><ele>1063.0</ele><time>2026-04-04T13:27:27.603Z</time></trkpt><trkpt lat="44.7273852" lon="9.2714859"><ele>1063.0</ele><time>2026-04-04T13:27:28.602Z</time></trkpt><trkpt lat="44.7274724" lon="9.2714393"><ele>1064.1666666666665</ele><time>2026-04-04T13:27:29.603Z</time></trkpt><trkpt lat="44.7275495" lon="9.271379"><ele>1065.3333333333333</ele><time>2026-04-04T13:27:30.602Z</time></trkpt><trkpt lat="44.7276207" lon="9.2713134"><ele>1066.5</ele><time>2026-04-04T13:27:31.602Z</time></trkpt><trkpt lat="44.727693" lon="9.2712531"><ele>1067.6666666666667</ele><time>2026-04-04T13:27:32.603Z</time></trkpt><trkpt lat="44.7277672" lon="9.2711915"><ele>1068.8333333333335</ele><time>2026-04-04T13:27:33.601Z</time></trkpt><trkpt lat="44.7278417" lon="9.2711248"><ele>1070.0</ele><time>2026-04-04T13:27:34.6Z</time></trkpt><trkpt lat="44.7279294" lon="9.2710591"><ele>1070.8</ele><time>2026-04-04T13:27:35.602Z</time></trkpt><trkpt lat="44.7280294" lon="9.2710036"><ele>1071.6</ele><time>2026-04-04T13:27:36.602Z</time></trkpt><trkpt lat="44.7281355" lon="9.2709628"><ele>1072.4</ele><time>2026-04-04T13:27:37.603Z</time></trkpt><trkpt lat="44.728241" lon="9.2709405"><ele>1073.2</ele><time>2026-04-04T13:27:38.604Z</time></trkpt><trkpt lat="44.7283455" lon="9.2709435"><ele>1074.0</ele><time>2026-04-04T13:27:39.602Z</time></trkpt><trkpt lat="44.7284473" lon="9.2709606"><ele>1074.75</ele><time>2026-04-04T13:27:40.601Z</time></trkpt><trkpt lat="44.7285608" lon="9.2709735"><ele>1075.5</ele><time>2026-04-04T13:27:41.602Z</time></trkpt><trkpt lat="44.7286773" lon="9.2709896"><ele>1076.25</ele><time>2026-04-04T13:27:42.601Z</time></trkpt><trkpt lat="44.7287888" lon="9.271022"><ele>1077.0</ele><time>2026-04-04T13:27:43.601Z</time></trkpt><trkpt lat="44.7288974" lon="9.2710626"><ele>1077.0</ele><time>2026-04-04T13:27:44.601Z</time></trkpt><trkpt lat="44.7290014" lon="9.2711087"><ele>1077.0</ele><time>2026-04-04T13:27:45.6Z</time></trkpt><trkpt lat="44.7294903" lon="9.2715153"><ele>1076.4</ele><time>2026-04-04T13:27:50.19Z</time></trkpt><trkpt lat="44.7295598" lon="9.271613"><ele>1075.8000000000002</ele><time>2026-04-04T13:27:51.6Z</time></trkpt><trkpt lat="44.7296038" lon="9.2716935"><ele>1075.2</ele><time>2026-04-04T13:27:52.601Z</time></trkpt><trkpt lat="44.7296746" lon="9.2718261"><ele>1074.6000000000001</ele><time>2026-04-04T13:27:54.103Z</time></trkpt><trkpt lat="44.7297558" lon="9.2719238"><ele>1074.0</ele><time>2026-04-04T13:27:55.603Z</time></trkpt><trkpt lat="44.7298307" lon="9.2719633"><ele>1074.0</ele><time>2026-04-04T13:27:56.604Z</time></trkpt><trkpt lat="44.7299335" lon="9.271987"><ele>1074.0</ele><time>2026-04-04T13:27:57.603Z</time></trkpt><trkpt lat="44.7300569" lon="9.2720144"><ele>1074.0</ele><time>2026-04-04T13:27:58.602Z</time></trkpt><trkpt lat="44.7301721" lon="9.2720439"><ele>1074.0</ele><time>2026-04-04T13:27:59.602Z</time></trkpt><trkpt lat="44.7302835" lon="9.2720824"><ele>1077.2</ele><time>2026-04-04T13:28:00.603Z</time></trkpt><trkpt lat="44.730396" lon="9.2721267"><ele>1080.4</ele><time>2026-04-04T13:28:01.604Z</time></trkpt><trkpt lat="44.7305028" lon="9.2721714"><ele>1083.6</ele><time>2026-04-04T13:28:02.601Z</time></trkpt><trkpt lat="44.7306051" lon="9.2722072"><ele>1086.8</ele><time>2026-04-04T13:28:03.604Z</time></trkpt><trkpt lat="44.730704" lon="9.2722264"><ele>1090.0</ele><time>2026-04-04T13:28:04.604Z</time></trkpt><trkpt lat="44.7308035" lon="9.2722294"><ele>1090.0</ele><time>2026-04-04T13:28:05.605Z</time></trkpt><trkpt lat="44.7308993" lon="9.2722257"><ele>1090.0</ele><time>2026-04-04T13:28:06.604Z</time></trkpt><trkpt lat="44.7309901" lon="9.2722302"><ele>1090.0</ele><time>2026-04-04T13:28:07.606Z</time></trkpt><trkpt lat="44.7310715" lon="9.2722485"><ele>1090.0</ele><time>2026-04-04T13:28:08.605Z</time></trkpt><trkpt lat="44.7311484" lon="9.2722904"><ele>1090.0</ele><time>2026-04-04T13:28:09.605Z</time></trkpt><trkpt lat="44.7312204" lon="9.2723643"><ele>1090.0</ele><time>2026-04-04T13:28:10.605Z</time></trkpt><trkpt lat="44.731291" lon="9.2724469"><ele>1088.5</ele><time>2026-04-04T13:28:11.605Z</time></trkpt><trkpt lat="44.7313606" lon="9.2725176"><ele>1087.0</ele><time>2026-04-04T13:28:12.602Z</time></trkpt><trkpt lat="44.7314369" lon="9.2725692"><ele>1085.5</ele><time>2026-04-04T13:28:13.604Z</time></trkpt><trkpt lat="44.7315121" lon="9.2726022"><ele>1084.0</ele><time>2026-04-04T13:28:14.602Z</time></trkpt><trkpt lat="44.7315822" lon="9.2726249"><ele>1082.5</ele><time>2026-04-04T13:28:15.603Z</time></trkpt><trkpt lat="44.7316816" lon="9.272663"><ele>1081.0</ele><time>2026-04-04T13:28:17.604Z</time></trkpt><trkpt lat="44.7317428" lon="9.2727115"><ele>1080.9999999999998</ele><time>2026-04-04T13:28:19.602Z</time></trkpt><trkpt lat="44.7318046" lon="9.2727525"><ele>1081.0</ele><time>2026-04-04T13:28:21.602Z</time></trkpt><trkpt lat="44.731848" lon="9.2728173"><ele>1081.0</ele><time>2026-04-04T13:28:24.626Z</time></trkpt><trkpt lat="44.7318273" lon="9.2729232"><ele>1081.0</ele><time>2026-04-04T13:28:26.705Z</time></trkpt><trkpt lat="44.7318025" lon="9.2730232"><ele>1081.0</ele><time>2026-04-04T13:28:28.682Z</time></trkpt><trkpt lat="44.7317603" lon="9.2730932"><ele>1080.9999999999998</ele><time>2026-04-04T13:28:30.742Z</time></trkpt><trkpt lat="44.7318" lon="9.2731993"><ele>1081.0</ele><time>2026-04-04T13:28:33.674Z</time></trkpt><trkpt lat="44.7318775" lon="9.2732575"><ele>1077.5</ele><time>2026-04-04T13:28:35.65Z</time></trkpt><trkpt lat="44.7319387" lon="9.2733204"><ele>1074.0</ele><time>2026-04-04T13:28:37.625Z</time></trkpt><trkpt lat="44.7320058" lon="9.2733868"><ele>1070.5</ele><time>2026-04-04T13:28:39.706Z</time></trkpt><trkpt lat="44.7320393" lon="9.2734832"><ele>1067.0</ele><time>2026-04-04T13:28:41.682Z</time></trkpt><trkpt lat="44.7320979" lon="9.2734297"><ele>1063.5</ele><time>2026-04-04T13:28:43.658Z</time></trkpt><trkpt lat="44.7321657" lon="9.2733303"><ele>1060.0</ele><time>2026-04-04T13:28:45.634Z</time></trkpt><trkpt lat="44.7322539" lon="9.2732777"><ele>1060.0</ele><time>2026-04-04T13:28:47.713Z</time></trkpt><trkpt lat="44.7323459" lon="9.2732776"><ele>1060.0</ele><time>2026-04-04T13:28:49.604Z</time></trkpt><trkpt lat="44.7324567" lon="9.273255"><ele>1060.0</ele><time>2026-04-04T13:28:51.602Z</time></trkpt><trkpt lat="44.7325601" lon="9.2732426"><ele>1060.0</ele><time>2026-04-04T13:28:53.601Z</time></trkpt><trkpt lat="44.732654" lon="9.2732398"><ele>1060.0</ele><time>2026-04-04T13:28:55.602Z</time></trkpt><trkpt lat="44.7327601" lon="9.2732249"><ele>1058.8</ele><time>2026-04-04T13:28:57.602Z</time></trkpt><trkpt lat="44.7328709" lon="9.2731888"><ele>1057.6</ele><time>2026-04-04T13:28:59.602Z</time></trkpt><trkpt lat="44.7329863" lon="9.2731596"><ele>1056.4</ele><time>2026-04-04T13:29:01.603Z</time></trkpt><trkpt lat="44.7331118" lon="9.273155"><ele>1055.2</ele><time>2026-04-04T13:29:03.603Z</time></trkpt><trkpt lat="44.7331774" lon="9.2731601"><ele>1054.0</ele><time>2026-04-04T13:29:04.601Z</time></trkpt><trkpt lat="44.733291" lon="9.2731826"><ele>1054.0</ele><time>2026-04-04T13:29:06.603Z</time></trkpt><trkpt lat="44.7333769" lon="9.2732051"><ele>1054.0</ele><time>2026-04-04T13:29:08.601Z</time></trkpt><trkpt lat="44.7334799" lon="9.2731826"><ele>1054.0</ele><time>2026-04-04T13:29:10.603Z</time></trkpt><trkpt lat="44.7335503" lon="9.2731305"><ele>1054.0</ele><time>2026-04-04T13:29:11.601Z</time></trkpt><trkpt lat="44.7336483" lon="9.2730528"><ele>1054.0</ele><time>2026-04-04T13:29:12.604Z</time></trkpt><trkpt lat="44.7337583" lon="9.2729898"><ele>1056.5</ele><time>2026-04-04T13:29:13.602Z</time></trkpt><trkpt lat="44.733869" lon="9.2729463"><ele>1059.0</ele><time>2026-04-04T13:29:14.602Z</time></trkpt><trkpt lat="44.7339696" lon="9.2729225"><ele>1061.5</ele><time>2026-04-04T13:29:15.601Z</time></trkpt><trkpt lat="44.7340582" lon="9.2729085"><ele>1064.0</ele><time>2026-04-04T13:29:16.602Z</time></trkpt><trkpt lat="44.734132" lon="9.2728836"><ele>1066.5</ele><time>2026-04-04T13:29:17.604Z</time></trkpt><trkpt lat="44.7341843" lon="9.2728323"><ele>1069.0</ele><time>2026-04-04T13:29:18.603Z</time></trkpt><trkpt lat="44.7342222" lon="9.272706"><ele>1069.0</ele><time>2026-04-04T13:29:20.604Z</time></trkpt><trkpt lat="44.7342438" lon="9.2726187"><ele>1069.0</ele><time>2026-04-04T13:29:22.604Z</time></trkpt><trkpt lat="44.7343083" lon="9.27268"><ele>1069.0</ele><time>2026-04-04T13:29:26.602Z</time></trkpt><trkpt lat="44.7343217" lon="9.27278"><ele>1069.0</ele><time>2026-04-04T13:29:28.602Z</time></trkpt><trkpt lat="44.7343467" lon="9.27287"><ele>1069.0</ele><time>2026-04-04T13:29:30.602Z</time></trkpt><trkpt lat="44.7343917" lon="9.2729583"><ele>1069.0</ele><time>2026-04-04T13:29:32.603Z</time></trkpt><trkpt lat="44.73446" lon="9.2730383"><ele>1065.1666666666665</ele><time>2026-04-04T13:29:35.602Z</time></trkpt><trkpt lat="44.7345383" lon="9.2730967"><ele>1061.3333333333333</ele><time>2026-04-04T13:29:38.604Z</time></trkpt><trkpt lat="44.7346233" lon="9.2731533"><ele>1057.5</ele><time>2026-04-04T13:29:41.604Z</time></trkpt><trkpt lat="44.734685" lon="9.27318"><ele>1053.6666666666667</ele><time>2026-04-04T13:29:43.604Z</time></trkpt><trkpt lat="44.7347717" lon="9.2732033"><ele>1049.8333333333335</ele><time>2026-04-04T13:29:45.602Z</time></trkpt><trkpt lat="44.7348567" lon="9.2732717"><ele>1046.0</ele><time>2026-04-04T13:29:47.603Z</time></trkpt><trkpt lat="44.7349467" lon="9.2733467"><ele>1045.1666666666667</ele><time>2026-04-04T13:29:49.6Z</time></trkpt><trkpt lat="44.73501" lon="9.2733767"><ele>1044.3333333333335</ele><time>2026-04-04T13:29:50.603Z</time></trkpt><trkpt lat="44.7351117" lon="9.2734517"><ele>1043.5</ele><time>2026-04-04T13:29:52.603Z</time></trkpt><trkpt lat="44.7351933" lon="9.273545"><ele>1042.6666666666667</ele><time>2026-04-04T13:29:54.603Z</time></trkpt><trkpt lat="44.7352633" lon="9.273585"><ele>1041.8333333333333</ele><time>2026-04-04T13:29:56.602Z</time></trkpt><trkpt lat="44.7353467" lon="9.2735983"><ele>1041.0</ele><time>2026-04-04T13:29:58.603Z</time></trkpt><trkpt lat="44.7354317" lon="9.273575"><ele>1037.5</ele><time>2026-04-04T13:30:00.601Z</time></trkpt><trkpt lat="44.7355033" lon="9.2735467"><ele>1034.0</ele><time>2026-04-04T13:30:02.603Z</time></trkpt><trkpt lat="44.7355767" lon="9.2735183"><ele>1030.5</ele><time>2026-04-04T13:30:04.602Z</time></trkpt><trkpt lat="44.7356517" lon="9.2734817"><ele>1027.0</ele><time>2026-04-04T13:30:06.602Z</time></trkpt><trkpt lat="44.7357133" lon="9.2734383"><ele>1023.5</ele><time>2026-04-04T13:30:08.602Z</time></trkpt><trkpt lat="44.7357533" lon="9.273305"><ele>1020.0</ele><time>2026-04-04T13:30:11.603Z</time></trkpt><trkpt lat="44.7357333" lon="9.2732083"><ele>1019.6</ele><time>2026-04-04T13:30:12.601Z</time></trkpt><trkpt lat="44.73569" lon="9.27308"><ele>1019.2</ele><time>2026-04-04T13:30:13.601Z</time></trkpt><trkpt lat="44.7356517" lon="9.2729483"><ele>1018.8</ele><time>2026-04-04T13:30:14.603Z</time></trkpt><trkpt lat="44.7356433" lon="9.2728167"><ele>1018.4</ele><time>2026-04-04T13:30:15.601Z</time></trkpt><trkpt lat="44.735655" lon="9.2726733"><ele>1018.0</ele><time>2026-04-04T13:30:16.602Z</time></trkpt><trkpt lat="44.7356833" lon="9.2725283"><ele>1018.0</ele><time>2026-04-04T13:30:17.602Z</time></trkpt><trkpt lat="44.7357183" lon="9.2724"><ele>1018.0</ele><time>2026-04-04T13:30:18.602Z</time></trkpt><trkpt lat="44.7357533" lon="9.2722983"><ele>1018.0</ele><time>2026-04-04T13:30:19.602Z</time></trkpt><trkpt lat="44.7357917" lon="9.27222"><ele>1018.0</ele><time>2026-04-04T13:30:20.604Z</time></trkpt><trkpt lat="44.735875" lon="9.2721717"><ele>1018.0</ele><time>2026-04-04T13:30:22.601Z</time></trkpt><trkpt lat="44.73593" lon="9.2723233"><ele>1017.9999999999999</ele><time>2026-04-04T13:30:24.601Z</time></trkpt><trkpt lat="44.7359267" lon="9.2724217"><ele>1018.0</ele><time>2026-04-04T13:30:25.603Z</time></trkpt><trkpt lat="44.7359" lon="9.2725267"><ele>1018.0</ele><time>2026-04-04T13:30:26.602Z</time></trkpt><trkpt lat="44.7358683" lon="9.27264"><ele>1018.0</ele><time>2026-04-04T13:30:27.602Z</time></trkpt><trkpt lat="44.7358533" lon="9.27275"><ele>1017.9999999999999</ele><time>2026-04-04T13:30:28.601Z</time></trkpt><trkpt lat="44.7358533" lon="9.27286"><ele>1018.0</ele><time>2026-04-04T13:30:29.602Z</time></trkpt><trkpt lat="44.735885" lon="9.2729583"><ele>1017.9999999999999</ele><time>2026-04-04T13:30:30.603Z</time></trkpt><trkpt lat="44.73593" lon="9.2730483"><ele>1018.0</ele><time>2026-04-04T13:30:31.603Z</time></trkpt><trkpt lat="44.73598" lon="9.2731267"><ele>1017.9999999999999</ele><time>2026-04-04T13:30:32.603Z</time></trkpt><trkpt lat="44.7360383" lon="9.2731967"><ele>1017.9999999999999</ele><time>2026-04-04T13:30:33.603Z</time></trkpt><trkpt lat="44.7360917" lon="9.2732667"><ele>1018.0</ele><time>2026-04-04T13:30:34.603Z</time></trkpt><trkpt lat="44.7361433" lon="9.2733417"><ele>1017.9999999999999</ele><time>2026-04-04T13:30:35.602Z</time></trkpt><trkpt lat="44.7361883" lon="9.2734167"><ele>1017.9999999999999</ele><time>2026-04-04T13:30:36.603Z</time></trkpt><trkpt lat="44.7362283" lon="9.273495"><ele>1015.8571428571427</ele><time>2026-04-04T13:30:37.603Z</time></trkpt><trkpt lat="44.7362617" lon="9.273575"><ele>1013.7142857142857</ele><time>2026-04-04T13:30:38.604Z</time></trkpt><trkpt lat="44.736295" lon="9.2736583"><ele>1011.5714285714284</ele><time>2026-04-04T13:30:39.602Z</time></trkpt><trkpt lat="44.7363167" lon="9.2737483"><ele>1009.4285714285713</ele><time>2026-04-04T13:30:40.602Z</time></trkpt><trkpt lat="44.7363233" lon="9.2738433"><ele>1007.2857142857142</ele><time>2026-04-04T13:30:41.602Z</time></trkpt><trkpt lat="44.7363217" lon="9.273945"><ele>1005.1428571428571</ele><time>2026-04-04T13:30:42.603Z</time></trkpt><trkpt lat="44.7363067" lon="9.274045"><ele>1003.0</ele><time>2026-04-04T13:30:43.603Z</time></trkpt><trkpt lat="44.7362767" lon="9.2741433"><ele>1002.3333333333333</ele><time>2026-04-04T13:30:44.602Z</time></trkpt><trkpt lat="44.7362267" lon="9.274235"><ele>1001.6666666666666</ele><time>2026-04-04T13:30:45.603Z</time></trkpt><trkpt lat="44.73617" lon="9.274325"><ele>1001.0</ele><time>2026-04-04T13:30:46.603Z</time></trkpt><trkpt lat="44.736105" lon="9.2744117"><ele>1000.3333333333333</ele><time>2026-04-04T13:30:47.603Z</time></trkpt><trkpt lat="44.7360283" lon="9.2744933"><ele>999.6666666666666</ele><time>2026-04-04T13:30:48.603Z</time></trkpt><trkpt lat="44.73595" lon="9.2745633"><ele>999.0</ele><time>2026-04-04T13:30:49.602Z</time></trkpt><trkpt lat="44.7358733" lon="9.274625"><ele>999.8333333333334</ele><time>2026-04-04T13:30:50.603Z</time></trkpt><trkpt lat="44.7358" lon="9.2746833"><ele>1000.6666666666667</ele><time>2026-04-04T13:30:51.603Z</time></trkpt><trkpt lat="44.73574" lon="9.27475"><ele>1001.5</ele><time>2026-04-04T13:30:52.602Z</time></trkpt><trkpt lat="44.7356917" lon="9.274835"><ele>1002.3333333333334</ele><time>2026-04-04T13:30:53.602Z</time></trkpt><trkpt lat="44.7356633" lon="9.2749417"><ele>1003.1666666666667</ele><time>2026-04-04T13:30:54.602Z</time></trkpt><trkpt lat="44.7356483" lon="9.2750567"><ele>1004.0</ele><time>2026-04-04T13:30:55.603Z</time></trkpt><trkpt lat="44.7356617" lon="9.2751683"><ele>1004.0000000000001</ele><time>2026-04-04T13:30:56.602Z</time></trkpt><trkpt lat="44.73571" lon="9.2752733"><ele>1004.0</ele><time>2026-04-04T13:30:57.603Z</time></trkpt><trkpt lat="44.7357683" lon="9.275365"><ele>1004.0</ele><time>2026-04-04T13:30:58.603Z</time></trkpt><trkpt lat="44.7358317" lon="9.2754533"><ele>1004.0</ele><time>2026-04-04T13:30:59.601Z</time></trkpt><trkpt lat="44.7358917" lon="9.2755417"><ele>1004.0000000000001</ele><time>2026-04-04T13:31:00.604Z</time></trkpt><trkpt lat="44.7359333" lon="9.275635"><ele>1004.0</ele><time>2026-04-04T13:31:01.602Z</time></trkpt><trkpt lat="44.7359583" lon="9.275735"><ele>1002.4000000000001</ele><time>2026-04-04T13:31:02.604Z</time></trkpt><trkpt lat="44.73597" lon="9.2758433"><ele>1000.8000000000001</ele><time>2026-04-04T13:31:03.602Z</time></trkpt><trkpt lat="44.7359683" lon="9.275955"><ele>999.1999999999999</ele><time>2026-04-04T13:31:04.602Z</time></trkpt><trkpt lat="44.7359617" lon="9.2760833"><ele>997.5999999999999</ele><time>2026-04-04T13:31:05.603Z</time></trkpt><trkpt lat="44.7359483" lon="9.2762283"><ele>996.0</ele><time>2026-04-04T13:31:06.604Z</time></trkpt><trkpt lat="44.7359317" lon="9.2763717"><ele>994.8</ele><time>2026-04-04T13:31:07.603Z</time></trkpt><trkpt lat="44.735915" lon="9.2764967"><ele>993.5999999999999</ele><time>2026-04-04T13:31:08.603Z</time></trkpt><trkpt lat="44.7359" lon="9.2766017"><ele>992.4</ele><time>2026-04-04T13:31:09.603Z</time></trkpt><trkpt lat="44.7359033" lon="9.2767733"><ele>991.2</ele><time>2026-04-04T13:31:11.603Z</time></trkpt><trkpt lat="44.735935" lon="9.2769417"><ele>990.0</ele><time>2026-04-04T13:31:13.603Z</time></trkpt><trkpt lat="44.735955" lon="9.2770417"><ele>990.0</ele><time>2026-04-04T13:31:14.604Z</time></trkpt><trkpt lat="44.7359767" lon="9.2771583"><ele>990.0</ele><time>2026-04-04T13:31:15.604Z</time></trkpt><trkpt lat="44.736" lon="9.277285"><ele>990.0</ele><time>2026-04-04T13:31:16.602Z</time></trkpt><trkpt lat="44.736025" lon="9.277425"><ele>990.0</ele><time>2026-04-04T13:31:17.603Z</time></trkpt><trkpt lat="44.73605" lon="9.2775683"><ele>990.0</ele><time>2026-04-04T13:31:18.602Z</time></trkpt><trkpt lat="44.7360817" lon="9.2777067"><ele>986.4</ele><time>2026-04-04T13:31:19.603Z</time></trkpt><trkpt lat="44.7361217" lon="9.27784"><ele>982.8</ele><time>2026-04-04T13:31:20.604Z</time></trkpt><trkpt lat="44.73618" lon="9.277955"><ele>979.2</ele><time>2026-04-04T13:31:21.603Z</time></trkpt><trkpt lat="44.7362483" lon="9.2780583"><ele>975.6</ele><time>2026-04-04T13:31:22.601Z</time></trkpt><trkpt lat="44.736315" lon="9.27816"><ele>972.0</ele><time>2026-04-04T13:31:23.602Z</time></trkpt><trkpt lat="44.7363833" lon="9.2782633"><ele>972.0</ele><time>2026-04-04T13:31:24.604Z</time></trkpt><trkpt lat="44.7364583" lon="9.2783667"><ele>972.0</ele><time>2026-04-04T13:31:25.603Z</time></trkpt><trkpt lat="44.7365317" lon="9.278465"><ele>972.0</ele><time>2026-04-04T13:31:26.605Z</time></trkpt><trkpt lat="44.736605" lon="9.2785583"><ele>972.0</ele><time>2026-04-04T13:31:27.603Z</time></trkpt><trkpt lat="44.736685" lon="9.27864"><ele>972.0</ele><time>2026-04-04T13:31:28.603Z</time></trkpt><trkpt lat="44.7367733" lon="9.2787083"><ele>972.0</ele><time>2026-04-04T13:31:29.604Z</time></trkpt><trkpt lat="44.736875" lon="9.2787567"><ele>972.0</ele><time>2026-04-04T13:31:30.604Z</time></trkpt><trkpt lat="44.7369817" lon="9.278775"><ele>972.0</ele><time>2026-04-04T13:31:31.605Z</time></trkpt><trkpt lat="44.7370833" lon="9.27878"><ele>972.0</ele><time>2026-04-04T13:31:32.605Z</time></trkpt><trkpt lat="44.7371717" lon="9.27881"><ele>972.0</ele><time>2026-04-04T13:31:33.603Z</time></trkpt><trkpt lat="44.7372383" lon="9.2788767"><ele>969.2</ele><time>2026-04-04T13:31:34.603Z</time></trkpt><trkpt lat="44.7372767" lon="9.27898"><ele>966.4000000000001</ele><time>2026-04-04T13:31:35.604Z</time></trkpt><trkpt lat="44.737305" lon="9.2791067"><ele>963.5999999999999</ele><time>2026-04-04T13:31:36.603Z</time></trkpt><trkpt lat="44.7373317" lon="9.279235"><ele>960.8</ele><time>2026-04-04T13:31:37.604Z</time></trkpt><trkpt lat="44.7373617" lon="9.27936"><ele>958.0</ele><time>2026-04-04T13:31:38.604Z</time></trkpt><trkpt lat="44.7373917" lon="9.2794817"><ele>957.9999999999999</ele><time>2026-04-04T13:31:39.605Z</time></trkpt><trkpt lat="44.7374233" lon="9.279595"><ele>958.0</ele><time>2026-04-04T13:31:40.604Z</time></trkpt><trkpt lat="44.73746" lon="9.2797033"><ele>958.0</ele><time>2026-04-04T13:31:41.615Z</time></trkpt><trkpt lat="44.7375033" lon="9.2798033"><ele>958.0</ele><time>2026-04-04T13:31:42.603Z</time></trkpt><trkpt lat="44.7375583" lon="9.279895"><ele>957.9999999999999</ele><time>2026-04-04T13:31:43.606Z</time></trkpt><trkpt lat="44.7376167" lon="9.2799833"><ele>958.0</ele><time>2026-04-04T13:31:44.607Z</time></trkpt><trkpt lat="44.73767" lon="9.28007"><ele>957.9999999999999</ele><time>2026-04-04T13:31:45.605Z</time></trkpt><trkpt lat="44.7377167" lon="9.28016"><ele>958.0</ele><time>2026-04-04T13:31:46.602Z</time></trkpt><trkpt lat="44.73776" lon="9.2802533"><ele>958.0</ele><time>2026-04-04T13:31:47.601Z</time></trkpt><trkpt lat="44.7378083" lon="9.28035"><ele>958.0</ele><time>2026-04-04T13:31:48.602Z</time></trkpt><trkpt lat="44.737855" lon="9.280455"><ele>957.9999999999999</ele><time>2026-04-04T13:31:49.602Z</time></trkpt><trkpt lat="44.737905" lon="9.280555"><ele>958.0</ele><time>2026-04-04T13:31:50.601Z</time></trkpt><trkpt lat="44.7379533" lon="9.2806483"><ele>956.9999999999999</ele><time>2026-04-04T13:31:51.601Z</time></trkpt><trkpt lat="44.7380017" lon="9.2807233"><ele>956.0</ele><time>2026-04-04T13:31:52.601Z</time></trkpt><trkpt lat="44.7380733" lon="9.2808133"><ele>955.0</ele><time>2026-04-04T13:31:54.603Z</time></trkpt><trkpt lat="44.738125" lon="9.2808683"><ele>954.0</ele><time>2026-04-04T13:31:56.603Z</time></trkpt><trkpt lat="44.7381567" lon="9.28096"><ele>952.9999999999999</ele><time>2026-04-04T13:31:58.603Z</time></trkpt><trkpt lat="44.7381717" lon="9.281115"><ele>952.0</ele><time>2026-04-04T13:32:00.604Z</time></trkpt><trkpt lat="44.7381933" lon="9.28121"><ele>952.0</ele><time>2026-04-04T13:32:01.603Z</time></trkpt><trkpt lat="44.7382317" lon="9.281305"><ele>952.0</ele><time>2026-04-04T13:32:02.603Z</time></trkpt><trkpt lat="44.7382883" lon="9.281415"><ele>952.0</ele><time>2026-04-04T13:32:03.603Z</time></trkpt><trkpt lat="44.7383567" lon="9.2815433"><ele>952.0</ele><time>2026-04-04T13:32:04.603Z</time></trkpt><trkpt lat="44.7384333" lon="9.2816633"><ele>952.0</ele><time>2026-04-04T13:32:05.603Z</time></trkpt><trkpt lat="44.7385233" lon="9.2817833"><ele>952.75</ele><time>2026-04-04T13:32:06.604Z</time></trkpt><trkpt lat="44.73862" lon="9.2818933"><ele>953.5</ele><time>2026-04-04T13:32:07.604Z</time></trkpt><trkpt lat="44.7387133" lon="9.2820067"><ele>954.25</ele><time>2026-04-04T13:32:08.604Z</time></trkpt><trkpt lat="44.7387917" lon="9.282125"><ele>955.0</ele><time>2026-04-04T13:32:09.605Z</time></trkpt><trkpt lat="44.7388533" lon="9.2822633"><ele>956.6</ele><time>2026-04-04T13:32:10.604Z</time></trkpt><trkpt lat="44.73891" lon="9.28241"><ele>958.2</ele><time>2026-04-04T13:32:11.604Z</time></trkpt><trkpt lat="44.7389533" lon="9.282555"><ele>959.8</ele><time>2026-04-04T13:32:12.603Z</time></trkpt><trkpt lat="44.7389833" lon="9.2827017"><ele>961.4</ele><time>2026-04-04T13:32:13.603Z</time></trkpt><trkpt lat="44.7390067" lon="9.2828383"><ele>963.0</ele><time>2026-04-04T13:32:14.605Z</time></trkpt><trkpt lat="44.7390417" lon="9.2829667"><ele>964.25</ele><time>2026-04-04T13:32:15.604Z</time></trkpt><trkpt lat="44.7390783" lon="9.2831067"><ele>965.5</ele><time>2026-04-04T13:32:16.604Z</time></trkpt><trkpt lat="44.73913" lon="9.2832583"><ele>966.75</ele><time>2026-04-04T13:32:17.603Z</time></trkpt><trkpt lat="44.7391883" lon="9.2833983"><ele>968.0</ele><time>2026-04-04T13:32:18.603Z</time></trkpt><trkpt lat="44.739245" lon="9.2835367"><ele>968.0</ele><time>2026-04-04T13:32:19.604Z</time></trkpt><trkpt lat="44.7393" lon="9.2836817"><ele>968.0</ele><time>2026-04-04T13:32:20.604Z</time></trkpt><trkpt lat="44.7393517" lon="9.2838317"><ele>968.0</ele><time>2026-04-04T13:32:21.603Z</time></trkpt><trkpt lat="44.7393983" lon="9.2839817"><ele>968.0</ele><time>2026-04-04T13:32:22.603Z</time></trkpt><trkpt lat="44.7394417" lon="9.28413"><ele>972.4</ele><time>2026-04-04T13:32:23.604Z</time></trkpt><trkpt lat="44.739485" lon="9.2842717"><ele>976.8</ele><time>2026-04-04T13:32:24.604Z</time></trkpt><trkpt lat="44.7395317" lon="9.2844117"><ele>981.2</ele><time>2026-04-04T13:32:25.604Z</time></trkpt><trkpt lat="44.7395833" lon="9.2845483"><ele>985.6</ele><time>2026-04-04T13:32:26.604Z</time></trkpt><trkpt lat="44.7396433" lon="9.2846633"><ele>990.0</ele><time>2026-04-04T13:32:27.603Z</time></trkpt><trkpt lat="44.7397083" lon="9.28477"><ele>991.0</ele><time>2026-04-04T13:32:28.604Z</time></trkpt><trkpt lat="44.73977" lon="9.2848717"><ele>992.0</ele><time>2026-04-04T13:32:29.602Z</time></trkpt><trkpt lat="44.73984" lon="9.2849717"><ele>993.0</ele><time>2026-04-04T13:32:30.604Z</time></trkpt><trkpt lat="44.7399083" lon="9.2850717"><ele>994.0</ele><time>2026-04-04T13:32:31.605Z</time></trkpt><trkpt lat="44.7399783" lon="9.2851583"><ele>995.0</ele><time>2026-04-04T13:32:32.604Z</time></trkpt><trkpt lat="44.7400533" lon="9.285235"><ele>995.0</ele><time>2026-04-04T13:32:33.604Z</time></trkpt><trkpt lat="44.7401317" lon="9.28531"><ele>995.0</ele><time>2026-04-04T13:32:34.604Z</time></trkpt><trkpt lat="44.7402017" lon="9.285385"><ele>995.0</ele><time>2026-04-04T13:32:35.603Z</time></trkpt><trkpt lat="44.740275" lon="9.2854767"><ele>995.0</ele><time>2026-04-04T13:32:36.604Z</time></trkpt><trkpt lat="44.7403633" lon="9.2855717"><ele>995.0</ele><time>2026-04-04T13:32:37.603Z</time></trkpt><trkpt lat="44.7404467" lon="9.285655"><ele>997.8</ele><time>2026-04-04T13:32:38.603Z</time></trkpt><trkpt lat="44.740535" lon="9.28573"><ele>1000.6</ele><time>2026-04-04T13:32:39.604Z</time></trkpt><trkpt lat="44.7406283" lon="9.2858117"><ele>1003.4000000000001</ele><time>2026-04-04T13:32:40.603Z</time></trkpt><trkpt lat="44.7407083" lon="9.2858867"><ele>1006.2</ele><time>2026-04-04T13:32:41.602Z</time></trkpt><trkpt lat="44.7407967" lon="9.28597"><ele>1009.0</ele><time>2026-04-04T13:32:42.603Z</time></trkpt><trkpt lat="44.7408633" lon="9.2860583"><ele>1009.0</ele><time>2026-04-04T13:32:43.602Z</time></trkpt><trkpt lat="44.740925" lon="9.2861683"><ele>1009.0000000000001</ele><time>2026-04-04T13:32:44.602Z</time></trkpt><trkpt lat="44.7409817" lon="9.2862917"><ele>1009.0000000000001</ele><time>2026-04-04T13:32:45.603Z</time></trkpt><trkpt lat="44.7410333" lon="9.2864133"><ele>1009.0</ele><time>2026-04-04T13:32:46.6Z</time></trkpt><trkpt lat="44.741085" lon="9.2865317"><ele>1009.0</ele><time>2026-04-04T13:32:47.603Z</time></trkpt><trkpt lat="44.7411433" lon="9.2866417"><ele>1009.8000000000001</ele><time>2026-04-04T13:32:48.603Z</time></trkpt><trkpt lat="44.7411967" lon="9.286755"><ele>1010.6000000000001</ele><time>2026-04-04T13:32:49.602Z</time></trkpt><trkpt lat="44.74125" lon="9.28688"><ele>1011.4</ele><time>2026-04-04T13:32:50.603Z</time></trkpt><trkpt lat="44.74131" lon="9.2869983"><ele>1012.2</ele><time>2026-04-04T13:32:51.604Z</time></trkpt><trkpt lat="44.7413617" lon="9.28713"><ele>1013.0</ele><time>2026-04-04T13:32:52.601Z</time></trkpt><trkpt lat="44.741405" lon="9.2872733"><ele>1017.25</ele><time>2026-04-04T13:32:53.602Z</time></trkpt><trkpt lat="44.741445" lon="9.2874283"><ele>1021.5</ele><time>2026-04-04T13:32:54.603Z</time></trkpt><trkpt lat="44.7414933" lon="9.2875967"><ele>1025.75</ele><time>2026-04-04T13:32:55.603Z</time></trkpt><trkpt lat="44.7415467" lon="9.2877617"><ele>1030.0</ele><time>2026-04-04T13:32:56.603Z</time></trkpt><trkpt lat="44.741605" lon="9.2879383"><ele>1031.75</ele><time>2026-04-04T13:32:57.602Z</time></trkpt><trkpt lat="44.7416667" lon="9.2881167"><ele>1033.5</ele><time>2026-04-04T13:32:58.602Z</time></trkpt><trkpt lat="44.7417267" lon="9.2883"><ele>1035.25</ele><time>2026-04-04T13:32:59.603Z</time></trkpt><trkpt lat="44.741785" lon="9.2884783"><ele>1037.0</ele><time>2026-04-04T13:33:00.603Z</time></trkpt><trkpt lat="44.741845" lon="9.2886483"><ele>1039.0</ele><time>2026-04-04T13:33:01.602Z</time></trkpt><trkpt lat="44.741905" lon="9.28882"><ele>1041.0</ele><time>2026-04-04T13:33:02.603Z</time></trkpt><trkpt lat="44.7419617" lon="9.2889883"><ele>1043.0</ele><time>2026-04-04T13:33:03.602Z</time></trkpt><trkpt lat="44.7420267" lon="9.2891483"><ele>1045.0</ele><time>2026-04-04T13:33:04.602Z</time></trkpt><trkpt lat="44.7421017" lon="9.289305"><ele>1045.0</ele><time>2026-04-04T13:33:05.601Z</time></trkpt><trkpt lat="44.74219" lon="9.2894517"><ele>1045.0</ele><time>2026-04-04T13:33:06.602Z</time></trkpt><trkpt lat="44.74227" lon="9.2895883"><ele>1045.0</ele><time>2026-04-04T13:33:07.6Z</time></trkpt><trkpt lat="44.7423533" lon="9.2897217"><ele>1045.0</ele><time>2026-04-04T13:33:08.603Z</time></trkpt><trkpt lat="44.7424367" lon="9.2898517"><ele>1045.5</ele><time>2026-04-04T13:33:09.603Z</time></trkpt><trkpt lat="44.7425183" lon="9.2899717"><ele>1046.0</ele><time>2026-04-04T13:33:10.601Z</time></trkpt><trkpt lat="44.7425983" lon="9.2900917"><ele>1046.5</ele><time>2026-04-04T13:33:11.6Z</time></trkpt><trkpt lat="44.7426867" lon="9.2902117"><ele>1047.0</ele><time>2026-04-04T13:33:12.6Z</time></trkpt><trkpt lat="44.74277" lon="9.290335"><ele>1047.0</ele><time>2026-04-04T13:33:13.6Z</time></trkpt><trkpt lat="44.7428433" lon="9.2904567"><ele>1047.0</ele><time>2026-04-04T13:33:14.603Z</time></trkpt><trkpt lat="44.7429083" lon="9.2905733"><ele>1047.0</ele><time>2026-04-04T13:33:15.602Z</time></trkpt><trkpt lat="44.742985" lon="9.2907017"><ele>1047.0</ele><time>2026-04-04T13:33:16.601Z</time></trkpt><trkpt lat="44.7430717" lon="9.2908267"><ele>1049.75</ele><time>2026-04-04T13:33:17.601Z</time></trkpt><trkpt lat="44.7431633" lon="9.2909383"><ele>1052.5</ele><time>2026-04-04T13:33:18.602Z</time></trkpt><trkpt lat="44.7432567" lon="9.291045"><ele>1055.25</ele><time>2026-04-04T13:33:19.603Z</time></trkpt><trkpt lat="44.743355" lon="9.2911583"><ele>1058.0</ele><time>2026-04-04T13:33:20.602Z</time></trkpt><trkpt lat="44.74346" lon="9.2912783"><ele>1060.0</ele><time>2026-04-04T13:33:21.604Z</time></trkpt><trkpt lat="44.74356" lon="9.291385"><ele>1062.0</ele><time>2026-04-04T13:33:22.602Z</time></trkpt><trkpt lat="44.7436633" lon="9.29147"><ele>1064.0</ele><time>2026-04-04T13:33:23.602Z</time></trkpt><trkpt lat="44.7437617" lon="9.291535"><ele>1066.0</ele><time>2026-04-04T13:33:24.602Z</time></trkpt><trkpt lat="44.7438617" lon="9.2915867"><ele>1066.0</ele><time>2026-04-04T13:33:25.603Z</time></trkpt><trkpt lat="44.743965" lon="9.2916417"><ele>1066.0</ele><time>2026-04-04T13:33:26.604Z</time></trkpt><trkpt lat="44.744055" lon="9.2917117"><ele>1066.0</ele><time>2026-04-04T13:33:27.604Z</time></trkpt><trkpt lat="44.7441383" lon="9.2918133"><ele>1066.0</ele><time>2026-04-04T13:33:28.601Z</time></trkpt><trkpt lat="44.74421" lon="9.2919483"><ele>1066.0</ele><time>2026-04-04T13:33:29.602Z</time></trkpt><trkpt lat="44.7442767" lon="9.292105"><ele>1068.25</ele><time>2026-04-04T13:33:30.601Z</time></trkpt><trkpt lat="44.74434" lon="9.2922633"><ele>1070.5</ele><time>2026-04-04T13:33:31.602Z</time></trkpt><trkpt lat="44.7444167" lon="9.2924117"><ele>1072.75</ele><time>2026-04-04T13:33:32.602Z</time></trkpt><trkpt lat="44.744495" lon="9.2925367"><ele>1075.0</ele><time>2026-04-04T13:33:33.601Z</time></trkpt><trkpt lat="44.7445833" lon="9.2926617"><ele>1076.25</ele><time>2026-04-04T13:33:34.601Z</time></trkpt><trkpt lat="44.74468" lon="9.2927617"><ele>1077.5</ele><time>2026-04-04T13:33:35.601Z</time></trkpt><trkpt lat="44.744785" lon="9.2928583"><ele>1078.75</ele><time>2026-04-04T13:33:36.603Z</time></trkpt><trkpt lat="44.7448867" lon="9.292945"><ele>1080.0</ele><time>2026-04-04T13:33:37.603Z</time></trkpt><trkpt lat="44.7449767" lon="9.2930533"><ele>1080.0</ele><time>2026-04-04T13:33:38.602Z</time></trkpt><trkpt lat="44.74507" lon="9.2931667"><ele>1080.0</ele><time>2026-04-04T13:33:39.603Z</time></trkpt><trkpt lat="44.7451417" lon="9.2932983"><ele>1080.0</ele><time>2026-04-04T13:33:40.602Z</time></trkpt><trkpt lat="44.74519" lon="9.2934267"><ele>1080.0</ele><time>2026-04-04T13:33:41.603Z</time></trkpt><trkpt lat="44.745225" lon="9.2935433"><ele>1080.0</ele><time>2026-04-04T13:33:42.601Z</time></trkpt><trkpt lat="44.7452467" lon="9.293645"><ele>1080.5714285714284</ele><time>2026-04-04T13:33:43.601Z</time></trkpt><trkpt lat="44.7452533" lon="9.2937417"><ele>1081.142857142857</ele><time>2026-04-04T13:33:44.601Z</time></trkpt><trkpt lat="44.74525" lon="9.29384"><ele>1081.7142857142858</ele><time>2026-04-04T13:33:45.601Z</time></trkpt><trkpt lat="44.745225" lon="9.29393"><ele>1082.2857142857142</ele><time>2026-04-04T13:33:46.6Z</time></trkpt><trkpt lat="44.745185" lon="9.2940133"><ele>1082.857142857143</ele><time>2026-04-04T13:33:47.604Z</time></trkpt><trkpt lat="44.74512" lon="9.294085"><ele>1083.4285714285713</ele><time>2026-04-04T13:33:48.602Z</time></trkpt><trkpt lat="44.7450633" lon="9.2941567"><ele>1084.0</ele><time>2026-04-04T13:33:49.603Z</time></trkpt><trkpt lat="44.744995" lon="9.29423"><ele>1084.0</ele><time>2026-04-04T13:33:50.604Z</time></trkpt><trkpt lat="44.7449233" lon="9.29432"><ele>1084.0</ele><time>2026-04-04T13:33:51.602Z</time></trkpt><trkpt lat="44.74485" lon="9.294435"><ele>1084.0</ele><time>2026-04-04T13:33:52.602Z</time></trkpt><trkpt lat="44.7448017" lon="9.2945683"><ele>1084.0</ele><time>2026-04-04T13:33:53.601Z</time></trkpt><trkpt lat="44.7447783" lon="9.2947183"><ele>1084.0</ele><time>2026-04-04T13:33:54.603Z</time></trkpt><trkpt lat="44.744765" lon="9.2948983"><ele>1084.0</ele><time>2026-04-04T13:33:55.604Z</time></trkpt><trkpt lat="44.7447567" lon="9.2950783"><ele>1084.0</ele><time>2026-04-04T13:33:56.603Z</time></trkpt><trkpt lat="44.744735" lon="9.2952517"><ele>1084.0</ele><time>2026-04-04T13:33:57.604Z</time></trkpt><trkpt lat="44.7447117" lon="9.2954117"><ele>1084.0</ele><time>2026-04-04T13:33:58.603Z</time></trkpt><trkpt lat="44.7446983" lon="9.2955617"><ele>1084.2</ele><time>2026-04-04T13:33:59.602Z</time></trkpt><trkpt lat="44.7446933" lon="9.2957017"><ele>1084.4</ele><time>2026-04-04T13:34:00.601Z</time></trkpt><trkpt lat="44.74469" lon="9.2958483"><ele>1084.6</ele><time>2026-04-04T13:34:01.603Z</time></trkpt><trkpt lat="44.7447033" lon="9.2960067"><ele>1084.8</ele><time>2026-04-04T13:34:02.603Z</time></trkpt><trkpt lat="44.7447217" lon="9.2961667"><ele>1085.0</ele><time>2026-04-04T13:34:03.603Z</time></trkpt><trkpt lat="44.7447617" lon="9.2963333"><ele>1083.75</ele><time>2026-04-04T13:34:04.603Z</time></trkpt><trkpt lat="44.7448167" lon="9.2965"><ele>1082.5</ele><time>2026-04-04T13:34:05.603Z</time></trkpt><trkpt lat="44.7448717" lon="9.2966533"><ele>1081.25</ele><time>2026-04-04T13:34:06.603Z</time></trkpt><trkpt lat="44.74494" lon="9.2968017"><ele>1080.0</ele><time>2026-04-04T13:34:07.603Z</time></trkpt><trkpt lat="44.7449867" lon="9.2969417"><ele>1080.0</ele><time>2026-04-04T13:34:08.602Z</time></trkpt><trkpt lat="44.7450333" lon="9.2970867"><ele>1080.0</ele><time>2026-04-04T13:34:09.602Z</time></trkpt><trkpt lat="44.7450783" lon="9.2972217"><ele>1080.0</ele><time>2026-04-04T13:34:10.602Z</time></trkpt><trkpt lat="44.745125" lon="9.297355"><ele>1080.0</ele><time>2026-04-04T13:34:11.6Z</time></trkpt><trkpt lat="44.74518" lon="9.2975017"><ele>1080.0</ele><time>2026-04-04T13:34:12.603Z</time></trkpt><trkpt lat="44.7452283" lon="9.29765"><ele>1080.5</ele><time>2026-04-04T13:34:13.603Z</time></trkpt><trkpt lat="44.7452567" lon="9.297805"><ele>1081.0</ele><time>2026-04-04T13:34:14.603Z</time></trkpt><trkpt lat="44.7452817" lon="9.2979783"><ele>1081.5</ele><time>2026-04-04T13:34:15.602Z</time></trkpt><trkpt lat="44.7453" lon="9.2981633"><ele>1082.0</ele><time>2026-04-04T13:34:16.602Z</time></trkpt><trkpt lat="44.7453233" lon="9.2983583"><ele>1082.0</ele><time>2026-04-04T13:34:17.601Z</time></trkpt><trkpt lat="44.7453433" lon="9.29853"><ele>1082.0</ele><time>2026-04-04T13:34:18.603Z</time></trkpt><trkpt lat="44.7453567" lon="9.298695"><ele>1082.0</ele><time>2026-04-04T13:34:19.601Z</time></trkpt><trkpt lat="44.745375" lon="9.298845"><ele>1082.0</ele><time>2026-04-04T13:34:20.603Z</time></trkpt><trkpt lat="44.7453967" lon="9.2990017"><ele>1081.8</ele><time>2026-04-04T13:34:21.604Z</time></trkpt><trkpt lat="44.7454283" lon="9.299165"><ele>1081.6</ele><time>2026-04-04T13:34:22.603Z</time></trkpt><trkpt lat="44.745475" lon="9.299315"><ele>1081.3999999999999</ele><time>2026-04-04T13:34:23.603Z</time></trkpt><trkpt lat="44.7455183" lon="9.2994517"><ele>1081.2</ele><time>2026-04-04T13:34:24.601Z</time></trkpt><trkpt lat="44.7455617" lon="9.299585"><ele>1081.0</ele><time>2026-04-04T13:34:25.603Z</time></trkpt><trkpt lat="44.7456033" lon="9.2997083"><ele>1080.2</ele><time>2026-04-04T13:34:26.601Z</time></trkpt><trkpt lat="44.7456367" lon="9.2998167"><ele>1079.3999999999999</ele><time>2026-04-04T13:34:27.601Z</time></trkpt><trkpt lat="44.7456617" lon="9.2999317"><ele>1078.6</ele><time>2026-04-04T13:34:28.602Z</time></trkpt><trkpt lat="44.7456783" lon="9.3000567"><ele>1077.8</ele><time>2026-04-04T13:34:29.602Z</time></trkpt><trkpt lat="44.74569" lon="9.30019"><ele>1077.0</ele><time>2026-04-04T13:34:30.604Z</time></trkpt><trkpt lat="44.7456967" lon="9.3003417"><ele>1077.0</ele><time>2026-04-04T13:34:31.602Z</time></trkpt><trkpt lat="44.7457067" lon="9.3004867"><ele>1077.0</ele><time>2026-04-04T13:34:32.602Z</time></trkpt><trkpt lat="44.7457017" lon="9.3006467"><ele>1077.0</ele><time>2026-04-04T13:34:33.603Z</time></trkpt><trkpt lat="44.7456967" lon="9.300805"><ele>1077.0</ele><time>2026-04-04T13:34:34.603Z</time></trkpt><trkpt lat="44.7456867" lon="9.3009517"><ele>1077.0</ele><time>2026-04-04T13:34:35.603Z</time></trkpt><trkpt lat="44.7456867" lon="9.3010967"><ele>1076.75</ele><time>2026-04-04T13:34:36.601Z</time></trkpt><trkpt lat="44.7456983" lon="9.3012483"><ele>1076.5</ele><time>2026-04-04T13:34:37.601Z</time></trkpt><trkpt lat="44.7457267" lon="9.3014167"><ele>1076.25</ele><time>2026-04-04T13:34:38.603Z</time></trkpt><trkpt lat="44.7457583" lon="9.3015783"><ele>1076.0</ele><time>2026-04-04T13:34:39.603Z</time></trkpt><trkpt lat="44.7457967" lon="9.3017467"><ele>1074.75</ele><time>2026-04-04T13:34:40.603Z</time></trkpt><trkpt lat="44.7458383" lon="9.3019283"><ele>1073.5</ele><time>2026-04-04T13:34:41.602Z</time></trkpt><trkpt lat="44.745875" lon="9.3021"><ele>1072.25</ele><time>2026-04-04T13:34:42.603Z</time></trkpt><trkpt lat="44.7459033" lon="9.3022567"><ele>1071.0</ele><time>2026-04-04T13:34:43.603Z</time></trkpt><trkpt lat="44.7459233" lon="9.3024017"><ele>1070.3999999999999</ele><time>2026-04-04T13:34:44.603Z</time></trkpt><trkpt lat="44.745945" lon="9.30254"><ele>1069.8</ele><time>2026-04-04T13:34:45.602Z</time></trkpt><trkpt lat="44.7459683" lon="9.302685"><ele>1069.1999999999998</ele><time>2026-04-04T13:34:46.603Z</time></trkpt><trkpt lat="44.7460017" lon="9.3028433"><ele>1068.6</ele><time>2026-04-04T13:34:47.603Z</time></trkpt><trkpt lat="44.7460467" lon="9.303005"><ele>1068.0</ele><time>2026-04-04T13:34:48.602Z</time></trkpt><trkpt lat="44.7460867" lon="9.30317"><ele>1067.5</ele><time>2026-04-04T13:34:49.603Z</time></trkpt><trkpt lat="44.74612" lon="9.3033433"><ele>1067.0</ele><time>2026-04-04T13:34:50.603Z</time></trkpt><trkpt lat="44.7461467" lon="9.3035183"><ele>1066.5</ele><time>2026-04-04T13:34:51.603Z</time></trkpt><trkpt lat="44.7461733" lon="9.303695"><ele>1066.0</ele><time>2026-04-04T13:34:52.602Z</time></trkpt><trkpt lat="44.746205" lon="9.3038767"><ele>1066.25</ele><time>2026-04-04T13:34:53.604Z</time></trkpt><trkpt lat="44.7462383" lon="9.3040467"><ele>1066.5</ele><time>2026-04-04T13:34:54.603Z</time></trkpt><trkpt lat="44.746275" lon="9.3042067"><ele>1066.75</ele><time>2026-04-04T13:34:55.603Z</time></trkpt><trkpt lat="44.7463233" lon="9.3043683"><ele>1067.0</ele><time>2026-04-04T13:34:56.604Z</time></trkpt><trkpt lat="44.746375" lon="9.3045333"><ele>1067.0</ele><time>2026-04-04T13:34:57.602Z</time></trkpt><trkpt lat="44.7464267" lon="9.3046933"><ele>1067.0</ele><time>2026-04-04T13:34:58.602Z</time></trkpt><trkpt lat="44.74649" lon="9.3048517"><ele>1067.0</ele><time>2026-04-04T13:34:59.602Z</time></trkpt><trkpt lat="44.7465617" lon="9.3050083"><ele>1067.0</ele><time>2026-04-04T13:35:00.602Z</time></trkpt><trkpt lat="44.74662" lon="9.3051617"><ele>1067.5</ele><time>2026-04-04T13:35:01.603Z</time></trkpt><trkpt lat="44.7466567" lon="9.3053183"><ele>1068.0</ele><time>2026-04-04T13:35:02.603Z</time></trkpt><trkpt lat="44.7466767" lon="9.305485"><ele>1068.5</ele><time>2026-04-04T13:35:03.602Z</time></trkpt><trkpt lat="44.74668" lon="9.3056633"><ele>1069.0</ele><time>2026-04-04T13:35:04.603Z</time></trkpt><trkpt lat="44.7466783" lon="9.305845"><ele>1069.0</ele><time>2026-04-04T13:35:05.603Z</time></trkpt><trkpt lat="44.7466817" lon="9.30601"><ele>1069.0</ele><time>2026-04-04T13:35:06.602Z</time></trkpt><trkpt lat="44.746695" lon="9.3061733"><ele>1069.0</ele><time>2026-04-04T13:35:07.603Z</time></trkpt><trkpt lat="44.7467167" lon="9.3063233"><ele>1069.0</ele><time>2026-04-04T13:35:08.601Z</time></trkpt><trkpt lat="44.7467383" lon="9.30646"><ele>1069.0</ele><time>2026-04-04T13:35:09.601Z</time></trkpt><trkpt lat="44.746745" lon="9.306595"><ele>1070.4</ele><time>2026-04-04T13:35:10.603Z</time></trkpt><trkpt lat="44.7467333" lon="9.3067383"><ele>1071.8000000000002</ele><time>2026-04-04T13:35:11.602Z</time></trkpt><trkpt lat="44.7467033" lon="9.3068867"><ele>1073.1999999999998</ele><time>2026-04-04T13:35:12.603Z</time></trkpt><trkpt lat="44.7466583" lon="9.3070367"><ele>1074.6</ele><time>2026-04-04T13:35:13.603Z</time></trkpt><trkpt lat="44.7466117" lon="9.3071883"><ele>1076.0</ele><time>2026-04-04T13:35:14.604Z</time></trkpt><trkpt lat="44.7465767" lon="9.3073467"><ele>1077.75</ele><time>2026-04-04T13:35:15.6Z</time></trkpt><trkpt lat="44.74656" lon="9.307515"><ele>1079.5</ele><time>2026-04-04T13:35:16.602Z</time></trkpt><trkpt lat="44.7465483" lon="9.3076867"><ele>1081.25</ele><time>2026-04-04T13:35:17.603Z</time></trkpt><trkpt lat="44.746535" lon="9.30786"><ele>1083.0</ele><time>2026-04-04T13:35:18.603Z</time></trkpt><trkpt lat="44.746525" lon="9.3080333"><ele>1084.5</ele><time>2026-04-04T13:35:19.603Z</time></trkpt><trkpt lat="44.7465217" lon="9.3082"><ele>1086.0</ele><time>2026-04-04T13:35:20.603Z</time></trkpt><trkpt lat="44.7465317" lon="9.3083633"><ele>1087.5</ele><time>2026-04-04T13:35:21.602Z</time></trkpt><trkpt lat="44.74654" lon="9.3085233"><ele>1089.0</ele><time>2026-04-04T13:35:22.601Z</time></trkpt><trkpt lat="44.746545" lon="9.3086733"><ele>1089.0</ele><time>2026-04-04T13:35:23.604Z</time></trkpt><trkpt lat="44.7465483" lon="9.308815"><ele>1089.0</ele><time>2026-04-04T13:35:24.602Z</time></trkpt><trkpt lat="44.7465533" lon="9.30895"><ele>1089.0</ele><time>2026-04-04T13:35:25.602Z</time></trkpt><trkpt lat="44.7465683" lon="9.3090817"><ele>1089.0</ele><time>2026-04-04T13:35:26.603Z</time></trkpt><trkpt lat="44.7465667" lon="9.3092067"><ele>1089.0</ele><time>2026-04-04T13:35:27.601Z</time></trkpt><trkpt lat="44.7465567" lon="9.3093217"><ele>1089.3333333333333</ele><time>2026-04-04T13:35:28.604Z</time></trkpt><trkpt lat="44.746535" lon="9.30943"><ele>1089.6666666666667</ele><time>2026-04-04T13:35:29.604Z</time></trkpt><trkpt lat="44.7465117" lon="9.30953"><ele>1090.0</ele><time>2026-04-04T13:35:30.603Z</time></trkpt><trkpt lat="44.7464867" lon="9.3096283"><ele>1090.3333333333335</ele><time>2026-04-04T13:35:31.603Z</time></trkpt><trkpt lat="44.746465" lon="9.309735"><ele>1090.6666666666667</ele><time>2026-04-04T13:35:32.603Z</time></trkpt><trkpt lat="44.7464567" lon="9.3098517"><ele>1091.0</ele><time>2026-04-04T13:35:33.602Z</time></trkpt><trkpt lat="44.7464483" lon="9.309975"><ele>1091.0</ele><time>2026-04-04T13:35:34.601Z</time></trkpt><trkpt lat="44.74644" lon="9.3101"><ele>1091.0</ele><time>2026-04-04T13:35:35.603Z</time></trkpt><trkpt lat="44.7464267" lon="9.3102233"><ele>1091.0</ele><time>2026-04-04T13:35:36.604Z</time></trkpt><trkpt lat="44.74641" lon="9.3103483"><ele>1091.0</ele><time>2026-04-04T13:35:37.604Z</time></trkpt><trkpt lat="44.7463967" lon="9.3104683"><ele>1091.0</ele><time>2026-04-04T13:35:38.603Z</time></trkpt><trkpt lat="44.74638" lon="9.310595"><ele>1091.0</ele><time>2026-04-04T13:35:39.601Z</time></trkpt><trkpt lat="44.7463583" lon="9.3107267"><ele>1091.3999999999999</ele><time>2026-04-04T13:35:40.601Z</time></trkpt><trkpt lat="44.74633" lon="9.310855"><ele>1091.8</ele><time>2026-04-04T13:35:41.602Z</time></trkpt><trkpt lat="44.74629" lon="9.3109783"><ele>1092.1999999999998</ele><time>2026-04-04T13:35:42.602Z</time></trkpt><trkpt lat="44.7462467" lon="9.3111033"><ele>1092.6</ele><time>2026-04-04T13:35:43.603Z</time></trkpt><trkpt lat="44.7461933" lon="9.3112217"><ele>1093.0</ele><time>2026-04-04T13:35:44.603Z</time></trkpt><trkpt lat="44.7461267" lon="9.3113233"><ele>1092.2</ele><time>2026-04-04T13:35:45.603Z</time></trkpt><trkpt lat="44.7460633" lon="9.3114217"><ele>1091.4</ele><time>2026-04-04T13:35:46.602Z</time></trkpt><trkpt lat="44.74599" lon="9.3115333"><ele>1090.6000000000001</ele><time>2026-04-04T13:35:47.603Z</time></trkpt><trkpt lat="44.745935" lon="9.3116417"><ele>1089.8</ele><time>2026-04-04T13:35:48.603Z</time></trkpt><trkpt lat="44.7458767" lon="9.3117583"><ele>1089.0</ele><time>2026-04-04T13:35:49.601Z</time></trkpt><trkpt lat="44.7458367" lon="9.31187"><ele>1089.0</ele><time>2026-04-04T13:35:50.603Z</time></trkpt><trkpt lat="44.745805" lon="9.3119783"><ele>1089.0</ele><time>2026-04-04T13:35:51.601Z</time></trkpt><trkpt lat="44.7457833" lon="9.3120883"><ele>1089.0</ele><time>2026-04-04T13:35:52.601Z</time></trkpt><trkpt lat="44.7457783" lon="9.3122133"><ele>1089.0</ele><time>2026-04-04T13:35:53.602Z</time></trkpt><trkpt lat="44.7457667" lon="9.312345"><ele>1089.0</ele><time>2026-04-04T13:35:54.601Z</time></trkpt><trkpt lat="44.74575" lon="9.3124717"><ele>1089.0</ele><time>2026-04-04T13:35:55.603Z</time></trkpt><trkpt lat="44.74573" lon="9.3125883"><ele>1089.4</ele><time>2026-04-04T13:35:56.603Z</time></trkpt><trkpt lat="44.7457083" lon="9.312705"><ele>1089.8000000000002</ele><time>2026-04-04T13:35:57.602Z</time></trkpt><trkpt lat="44.745685" lon="9.3128117"><ele>1090.1999999999998</ele><time>2026-04-04T13:35:58.603Z</time></trkpt><trkpt lat="44.7456333" lon="9.3129867"><ele>1090.6</ele><time>2026-04-04T13:36:00.603Z</time></trkpt><trkpt lat="44.7455833" lon="9.3130667"><ele>1091.0</ele><time>2026-04-04T13:36:01.601Z</time></trkpt><trkpt lat="44.745525" lon="9.31314"><ele>1090.0</ele><time>2026-04-04T13:36:02.604Z</time></trkpt><trkpt lat="44.7454417" lon="9.3132033"><ele>1089.0</ele><time>2026-04-04T13:36:04.602Z</time></trkpt><trkpt lat="44.7453733" lon="9.313245"><ele>1088.0</ele><time>2026-04-04T13:36:52.603Z</time></trkpt><trkpt lat="44.74544" lon="9.3131767"><ele>1087.0</ele><time>2026-04-04T13:36:55.602Z</time></trkpt><trkpt lat="44.7454933" lon="9.3132417"><ele>1086.0</ele><time>2026-04-04T13:36:59.601Z</time></trkpt><trkpt lat="44.745565" lon="9.313265"><ele>1085.0</ele><time>2026-04-04T13:37:02.6Z</time></trkpt><trkpt lat="44.7456467" lon="9.31329"><ele>1085.0</ele><time>2026-04-04T13:37:04.6Z</time></trkpt><trkpt lat="44.7456967" lon="9.3133533"><ele>1085.0</ele><time>2026-04-04T13:37:06.601Z</time></trkpt><trkpt lat="44.74574" lon="9.31343"><ele>1085.0</ele><time>2026-04-04T13:37:08.601Z</time></trkpt><trkpt lat="44.7458133" lon="9.3134983"><ele>1085.0</ele><time>2026-04-04T13:37:11.6Z</time></trkpt><trkpt lat="44.7459" lon="9.3134767"><ele>1085.0</ele><time>2026-04-04T13:37:14.601Z</time></trkpt><trkpt lat="44.745965" lon="9.3134633"><ele>1085.0</ele><time>2026-04-04T13:37:16.599Z</time></trkpt><trkpt lat="44.746035" lon="9.3134567"><ele>1085.0</ele><time>2026-04-04T13:37:19.6Z</time></trkpt><trkpt lat="44.7461117" lon="9.3134733"><ele>1085.6</ele><time>2026-04-04T13:37:23.6Z</time></trkpt><trkpt lat="44.74618" lon="9.313515"><ele>1086.2</ele><time>2026-04-04T13:37:25.6Z</time></trkpt><trkpt lat="44.746245" lon="9.3135517"><ele>1086.8</ele><time>2026-04-04T13:37:27.601Z</time></trkpt><trkpt lat="44.746345" lon="9.3135833"><ele>1087.4</ele><time>2026-04-04T13:37:30.601Z</time></trkpt><trkpt lat="44.746445" lon="9.3136367"><ele>1088.0</ele><time>2026-04-04T13:37:32.6Z</time></trkpt><trkpt lat="44.7465533" lon="9.3137"><ele>1088.0</ele><time>2026-04-04T13:37:34.602Z</time></trkpt><trkpt lat="44.746665" lon="9.3137767"><ele>1088.0</ele><time>2026-04-04T13:37:36.6Z</time></trkpt><trkpt lat="44.7467317" lon="9.313825"><ele>1088.0</ele><time>2026-04-04T13:37:37.601Z</time></trkpt><trkpt lat="44.746795" lon="9.3138683"><ele>1088.0</ele><time>2026-04-04T13:37:38.6Z</time></trkpt><trkpt lat="44.746875" lon="9.313925"><ele>1088.0</ele><time>2026-04-04T13:37:39.601Z</time></trkpt><trkpt lat="44.746945" lon="9.31398"><ele>1088.0</ele><time>2026-04-04T13:37:40.6Z</time></trkpt><trkpt lat="44.747" lon="9.3140267"><ele>1082.3333333333335</ele><time>2026-04-04T13:37:41.601Z</time></trkpt><trkpt lat="44.7470617" lon="9.3141267"><ele>1076.6666666666667</ele><time>2026-04-04T13:37:43.6Z</time></trkpt><trkpt lat="44.7470933" lon="9.3142483"><ele>1071.0</ele><time>2026-04-04T13:37:45.599Z</time></trkpt><trkpt lat="44.7470967" lon="9.3143483"><ele>1065.3333333333333</ele><time>2026-04-04T13:37:47.601Z</time></trkpt><trkpt lat="44.747035" lon="9.3143683"><ele>1059.6666666666665</ele><time>2026-04-04T13:37:50.601Z</time></trkpt><trkpt lat="44.7469983" lon="9.314455"><ele>1054.0</ele><time>2026-04-04T13:37:53.6Z</time></trkpt><trkpt lat="44.747005" lon="9.3145567"><ele>1054.0</ele><time>2026-04-04T13:37:56.601Z</time></trkpt><trkpt lat="44.7470667" lon="9.3146117"><ele>1054.0</ele><time>2026-04-04T13:37:58.601Z</time></trkpt><trkpt lat="44.7471617" lon="9.3146517"><ele>1054.0</ele><time>2026-04-04T13:38:00.6Z</time></trkpt><trkpt lat="44.7472667" lon="9.31466"><ele>1054.0</ele><time>2026-04-04T13:38:02.601Z</time></trkpt><trkpt lat="44.747355" lon="9.3146167"><ele>1054.0</ele><time>2026-04-04T13:38:04.601Z</time></trkpt><trkpt lat="44.747425" lon="9.3145267"><ele>1054.0</ele><time>2026-04-04T13:38:06.6Z</time></trkpt><trkpt lat="44.747495" lon="9.3143883"><ele>1054.0</ele><time>2026-04-04T13:38:08.6Z</time></trkpt><trkpt lat="44.7475617" lon="9.3142667"><ele>1054.0</ele><time>2026-04-04T13:38:10.6Z</time></trkpt><trkpt lat="44.7476517" lon="9.31418"><ele>1054.0</ele><time>2026-04-04T13:38:12.599Z</time></trkpt><trkpt lat="44.747755" lon="9.3140867"><ele>1049.2</ele><time>2026-04-04T13:38:14.601Z</time></trkpt><trkpt lat="44.74782" lon="9.3140467"><ele>1044.4</ele><time>2026-04-04T13:38:15.6Z</time></trkpt><trkpt lat="44.7479333" lon="9.3140117"><ele>1039.6</ele><time>2026-04-04T13:38:17.599Z</time></trkpt><trkpt lat="44.74804" lon="9.3140083"><ele>1034.8</ele><time>2026-04-04T13:38:19.601Z</time></trkpt><trkpt lat="44.748135" lon="9.31402"><ele>1030.0</ele><time>2026-04-04T13:38:21.6Z</time></trkpt><trkpt lat="44.7482383" lon="9.3140383"><ele>1030.0</ele><time>2026-04-04T13:38:23.6Z</time></trkpt><trkpt lat="44.74833" lon="9.31408"><ele>1030.0</ele><time>2026-04-04T13:38:25.601Z</time></trkpt><trkpt lat="44.7484333" lon="9.314125"><ele>1030.0</ele><time>2026-04-04T13:38:27.6Z</time></trkpt><trkpt lat="44.7485117" lon="9.3141533"><ele>1030.0</ele><time>2026-04-04T13:38:28.601Z</time></trkpt><trkpt lat="44.74858" lon="9.3141817"><ele>1030.0</ele><time>2026-04-04T13:38:29.601Z</time></trkpt><trkpt lat="44.7486483" lon="9.3142117"><ele>1030.0</ele><time>2026-04-04T13:38:30.6Z</time></trkpt><trkpt lat="44.7487133" lon="9.314245"><ele>1026.6666666666665</ele><time>2026-04-04T13:38:31.601Z</time></trkpt><trkpt lat="44.748775" lon="9.3142867"><ele>1023.3333333333333</ele><time>2026-04-04T13:38:32.601Z</time></trkpt><trkpt lat="44.7488717" lon="9.3143517"><ele>1020.0</ele><time>2026-04-04T13:38:34.599Z</time></trkpt><trkpt lat="44.7489417" lon="9.314415"><ele>1016.6666666666667</ele><time>2026-04-04T13:38:36.6Z</time></trkpt><trkpt lat="44.74901" lon="9.31445"><ele>1013.3333333333334</ele><time>2026-04-04T13:38:38.601Z</time></trkpt><trkpt lat="44.7490683" lon="9.3145"><ele>1010.0</ele><time>2026-04-04T13:38:40.6Z</time></trkpt><trkpt lat="44.7491217" lon="9.3145733"><ele>1010.0</ele><time>2026-04-04T13:38:42.6Z</time></trkpt><trkpt lat="44.7491983" lon="9.3146167"><ele>1009.9999999999999</ele><time>2026-04-04T13:38:44.599Z</time></trkpt><trkpt lat="44.74924" lon="9.3147033"><ele>1010.0</ele><time>2026-04-04T13:38:47.599Z</time></trkpt><trkpt lat="44.7492133" lon="9.314785"><ele>1010.0</ele><time>2026-04-04T13:38:49.599Z</time></trkpt><trkpt lat="44.7491517" lon="9.3148517"><ele>1009.9999999999999</ele><time>2026-04-04T13:38:51.6Z</time></trkpt><trkpt lat="44.7490933" lon="9.3149083"><ele>1010.0</ele><time>2026-04-04T13:38:53.601Z</time></trkpt><trkpt lat="44.7490367" lon="9.3149667"><ele>1010.0</ele><time>2026-04-04T13:38:55.601Z</time></trkpt><trkpt lat="44.7490817" lon="9.31505"><ele>1008.7142857142857</ele><time>2026-04-04T13:38:59.601Z</time></trkpt><trkpt lat="44.7491433" lon="9.31509"><ele>1007.4285714285713</ele><time>2026-04-04T13:39:01.601Z</time></trkpt><trkpt lat="44.7492033" lon="9.3151233"><ele>1006.1428571428571</ele><time>2026-04-04T13:39:03.599Z</time></trkpt><trkpt lat="44.7492767" lon="9.3151833"><ele>1004.8571428571429</ele><time>2026-04-04T13:39:06.6Z</time></trkpt><trkpt lat="44.7493567" lon="9.3152233"><ele>1003.5714285714286</ele><time>2026-04-04T13:39:09.599Z</time></trkpt><trkpt lat="44.74942" lon="9.3152567"><ele>1002.2857142857142</ele><time>2026-04-04T13:39:11.601Z</time></trkpt><trkpt lat="44.7494833" lon="9.3153067"><ele>1001.0</ele><time>2026-04-04T13:39:13.604Z</time></trkpt><trkpt lat="44.7495433" lon="9.3153367"><ele>996.3333333333334</ele><time>2026-04-04T13:39:15.601Z</time></trkpt><trkpt lat="44.74961" lon="9.315355"><ele>991.6666666666667</ele><time>2026-04-04T13:39:18.599Z</time></trkpt><trkpt lat="44.74966" lon="9.315435"><ele>987.0</ele><time>2026-04-04T13:39:21.602Z</time></trkpt><trkpt lat="44.7497133" lon="9.31549"><ele>982.3333333333333</ele><time>2026-04-04T13:39:23.602Z</time></trkpt><trkpt lat="44.749795" lon="9.315575"><ele>977.6666666666666</ele><time>2026-04-04T13:39:26.603Z</time></trkpt><trkpt lat="44.749865" lon="9.3156267"><ele>973.0</ele><time>2026-04-04T13:39:28.602Z</time></trkpt><trkpt lat="44.749935" lon="9.315685"><ele>969.9999999999999</ele><time>2026-04-04T13:39:30.602Z</time></trkpt><trkpt lat="44.749985" lon="9.31575"><ele>967.0</ele><time>2026-04-04T13:39:32.601Z</time></trkpt><trkpt lat="44.7500433" lon="9.31583"><ele>964.0</ele><time>2026-04-04T13:39:34.602Z</time></trkpt><trkpt lat="44.750115" lon="9.3158783"><ele>961.0</ele><time>2026-04-04T13:39:36.602Z</time></trkpt><trkpt lat="44.7501633" lon="9.31598"><ele>957.9999999999999</ele><time>2026-04-04T13:39:39.601Z</time></trkpt><trkpt lat="44.7502" lon="9.316105"><ele>955.0</ele><time>2026-04-04T13:39:41.601Z</time></trkpt><trkpt lat="44.7502517" lon="9.31624"><ele>948.8</ele><time>2026-04-04T13:39:43.601Z</time></trkpt><trkpt lat="44.7503333" lon="9.316355"><ele>942.6</ele><time>2026-04-04T13:39:45.601Z</time></trkpt><trkpt lat="44.7504133" lon="9.3164667"><ele>936.4000000000001</ele><time>2026-04-04T13:39:47.602Z</time></trkpt><trkpt lat="44.750485" lon="9.3165667"><ele>930.2</ele><time>2026-04-04T13:39:49.601Z</time></trkpt><trkpt lat="44.7505617" lon="9.3166317"><ele>924.0</ele><time>2026-04-04T13:39:51.602Z</time></trkpt><trkpt lat="44.7506276" lon="9.3167017"><ele>923.6</ele><time>2026-04-04T13:39:53.601Z</time></trkpt><trkpt lat="44.7507134" lon="9.3167771"><ele>923.2</ele><time>2026-04-04T13:39:55.602Z</time></trkpt><trkpt lat="44.7508194" lon="9.3167877"><ele>922.8000000000001</ele><time>2026-04-04T13:39:57.601Z</time></trkpt><trkpt lat="44.7508955" lon="9.3167232"><ele>922.4000000000001</ele><time>2026-04-04T13:39:59.6Z</time></trkpt><trkpt lat="44.750919" lon="9.3166033"><ele>922.0</ele><time>2026-04-04T13:40:01.6Z</time></trkpt><trkpt lat="44.7509224" lon="9.3164622"><ele>922.4000000000001</ele><time>2026-04-04T13:40:03.601Z</time></trkpt><trkpt lat="44.7509315" lon="9.3163314"><ele>922.8000000000001</ele><time>2026-04-04T13:40:05.601Z</time></trkpt><trkpt lat="44.7509551" lon="9.3161891"><ele>923.2</ele><time>2026-04-04T13:40:08.601Z</time></trkpt><trkpt lat="44.7509516" lon="9.3160486"><ele>923.6</ele><time>2026-04-04T13:40:10.428Z</time></trkpt><trkpt lat="44.7509364" lon="9.3159097"><ele>924.0</ele><time>2026-04-04T13:40:12.65Z</time></trkpt><trkpt lat="44.7509635" lon="9.3158037"><ele>924.0</ele><time>2026-04-04T13:40:14.626Z</time></trkpt><trkpt lat="44.7509471" lon="9.3157124"><ele>924.0</ele><time>2026-04-04T13:40:16.602Z</time></trkpt><trkpt lat="44.7509217" lon="9.31561"><ele>924.0</ele><time>2026-04-04T13:40:18.6Z</time></trkpt><trkpt lat="44.75091" lon="9.315505"><ele>924.0</ele><time>2026-04-04T13:40:20.601Z</time></trkpt><trkpt lat="44.7508833" lon="9.3153767"><ele>924.0</ele><time>2026-04-04T13:40:22.601Z</time></trkpt><trkpt lat="44.7508767" lon="9.31525"><ele>924.0</ele><time>2026-04-04T13:40:24.601Z</time></trkpt><trkpt lat="44.7508867" lon="9.31509"><ele>923.3333333333334</ele><time>2026-04-04T13:40:26.601Z</time></trkpt><trkpt lat="44.7509" lon="9.3149883"><ele>922.6666666666667</ele><time>2026-04-04T13:40:27.6Z</time></trkpt><trkpt lat="44.7509217" lon="9.31489"><ele>922.0</ele><time>2026-04-04T13:40:28.601Z</time></trkpt><trkpt lat="44.7509417" lon="9.31478"><ele>921.3333333333334</ele><time>2026-04-04T13:40:29.602Z</time></trkpt><trkpt lat="44.7509567" lon="9.3146667"><ele>920.6666666666667</ele><time>2026-04-04T13:40:30.6Z</time></trkpt><trkpt lat="44.7509683" lon="9.3145633"><ele>920.0</ele><time>2026-04-04T13:40:31.601Z</time></trkpt><trkpt lat="44.7509783" lon="9.3144317"><ele>920.0</ele><time>2026-04-04T13:40:32.601Z</time></trkpt><trkpt lat="44.7509933" lon="9.31432"><ele>920.0</ele><time>2026-04-04T13:40:33.601Z</time></trkpt><trkpt lat="44.75101" lon="9.3142283"><ele>920.0</ele><time>2026-04-04T13:40:34.601Z</time></trkpt><trkpt lat="44.7510367" lon="9.3140667"><ele>920.0</ele><time>2026-04-04T13:40:36.601Z</time></trkpt><trkpt lat="44.7510633" lon="9.31395"><ele>920.0</ele><time>2026-04-04T13:40:38.601Z</time></trkpt><trkpt lat="44.7511183" lon="9.31378"><ele>920.4</ele><time>2026-04-04T13:41:03.6Z</time></trkpt><trkpt lat="44.751155" lon="9.313685"><ele>920.8</ele><time>2026-04-04T13:41:05.6Z</time></trkpt><trkpt lat="44.7512" lon="9.3135583"><ele>921.2</ele><time>2026-04-04T13:41:07.601Z</time></trkpt><trkpt lat="44.7512667" lon="9.3134"><ele>921.6</ele><time>2026-04-04T13:41:09.6Z</time></trkpt><trkpt lat="44.7513083" lon="9.313305"><ele>922.0</ele><time>2026-04-04T13:41:10.601Z</time></trkpt><trkpt lat="44.75135" lon="9.3132267"><ele>921.9999999999999</ele><time>2026-04-04T13:41:11.6Z</time></trkpt><trkpt lat="44.7514233" lon="9.3131317"><ele>922.0</ele><time>2026-04-04T13:41:13.601Z</time></trkpt><trkpt lat="44.751545" lon="9.3131417"><ele>922.0</ele><time>2026-04-04T13:41:15.6Z</time></trkpt><trkpt lat="44.75162" lon="9.313145"><ele>922.0</ele><time>2026-04-04T13:41:16.601Z</time></trkpt><trkpt lat="44.7516883" lon="9.3131533"><ele>921.9999999999999</ele><time>2026-04-04T13:41:17.602Z</time></trkpt><trkpt lat="44.7517617" lon="9.3131833"><ele>922.0</ele><time>2026-04-04T13:41:18.6Z</time></trkpt><trkpt lat="44.7518183" lon="9.313225"><ele>921.9999999999999</ele><time>2026-04-04T13:41:19.6Z</time></trkpt><trkpt lat="44.7518717" lon="9.3132933"><ele>922.0</ele><time>2026-04-04T13:41:20.601Z</time></trkpt><trkpt lat="44.7519333" lon="9.3133533"><ele>922.0</ele><time>2026-04-04T13:41:21.601Z</time></trkpt><trkpt lat="44.7519867" lon="9.3134033"><ele>922.0</ele><time>2026-04-04T13:41:22.6Z</time></trkpt><trkpt lat="44.752075" lon="9.3134567"><ele>921.9999999999999</ele><time>2026-04-04T13:41:24.6Z</time></trkpt><trkpt lat="44.7521733" lon="9.313435"><ele>922.0</ele><time>2026-04-04T13:41:26.602Z</time></trkpt><trkpt lat="44.7522433" lon="9.3134"><ele>921.1666666666666</ele><time>2026-04-04T13:41:27.602Z</time></trkpt><trkpt lat="44.7523283" lon="9.3133383"><ele>920.3333333333333</ele><time>2026-04-04T13:41:28.602Z</time></trkpt><trkpt lat="44.7524067" lon="9.31327"><ele>919.5</ele><time>2026-04-04T13:41:29.601Z</time></trkpt><trkpt lat="44.7524883" lon="9.3132033"><ele>918.6666666666667</ele><time>2026-04-04T13:41:30.601Z</time></trkpt><trkpt lat="44.752545" lon="9.3131233"><ele>917.8333333333334</ele><time>2026-04-04T13:41:31.602Z</time></trkpt><trkpt lat="44.752595" lon="9.3130617"><ele>917.0</ele><time>2026-04-04T13:41:32.603Z</time></trkpt><trkpt lat="44.7527083" lon="9.3130433"><ele>917.0000000000001</ele><time>2026-04-04T13:41:35.602Z</time></trkpt><trkpt lat="44.752775" lon="9.313085"><ele>917.0</ele><time>2026-04-04T13:41:36.603Z</time></trkpt><trkpt lat="44.7528433" lon="9.3131317"><ele>917.0</ele><time>2026-04-04T13:41:37.603Z</time></trkpt><trkpt lat="44.7529083" lon="9.31319"><ele>917.0</ele><time>2026-04-04T13:41:38.601Z</time></trkpt><trkpt lat="44.7529817" lon="9.31325"><ele>917.0000000000001</ele><time>2026-04-04T13:41:39.599Z</time></trkpt><trkpt lat="44.7530717" lon="9.3133"><ele>917.0</ele><time>2026-04-04T13:41:40.601Z</time></trkpt><trkpt lat="44.75315" lon="9.3133367"><ele>917.0000000000001</ele><time>2026-04-04T13:41:41.6Z</time></trkpt><trkpt lat="44.7532583" lon="9.3133467"><ele>917.0</ele><time>2026-04-04T13:41:43.601Z</time></trkpt><trkpt lat="44.7533367" lon="9.3132667"><ele>917.0</ele><time>2026-04-04T13:41:45.601Z</time></trkpt><trkpt lat="44.7534017" lon="9.313195"><ele>917.0</ele><time>2026-04-04T13:41:46.601Z</time></trkpt><trkpt lat="44.753465" lon="9.3131333"><ele>917.0000000000001</ele><time>2026-04-04T13:41:47.601Z</time></trkpt><trkpt lat="44.75352" lon="9.313085"><ele>917.0</ele><time>2026-04-04T13:41:48.601Z</time></trkpt><trkpt lat="44.7535867" lon="9.31306"><ele>921.5000000000001</ele><time>2026-04-04T13:41:49.603Z</time></trkpt><trkpt lat="44.7536533" lon="9.313035"><ele>926.0</ele><time>2026-04-04T13:41:50.6Z</time></trkpt><trkpt lat="44.753725" lon="9.3129983"><ele>930.5</ele><time>2026-04-04T13:41:51.601Z</time></trkpt><trkpt lat="44.7538133" lon="9.3129517"><ele>935.0</ele><time>2026-04-04T13:41:52.601Z</time></trkpt><trkpt lat="44.7539067" lon="9.3129083"><ele>939.5000000000001</ele><time>2026-04-04T13:41:53.601Z</time></trkpt><trkpt lat="44.7540083" lon="9.31288"><ele>944.0</ele><time>2026-04-04T13:41:54.601Z</time></trkpt><trkpt lat="44.7540867" lon="9.3128883"><ele>944.0000000000001</ele><time>2026-04-04T13:41:55.601Z</time></trkpt><trkpt lat="44.7541667" lon="9.3129083"><ele>944.0</ele><time>2026-04-04T13:41:56.601Z</time></trkpt><trkpt lat="44.754235" lon="9.3129233"><ele>944.0</ele><time>2026-04-04T13:41:57.601Z</time></trkpt><trkpt lat="44.7542983" lon="9.3129233"><ele>944.0</ele><time>2026-04-04T13:41:58.602Z</time></trkpt><trkpt lat="44.7544117" lon="9.31289"><ele>944.0000000000001</ele><time>2026-04-04T13:42:00.601Z</time></trkpt><trkpt lat="44.7544767" lon="9.31292"><ele>944.0</ele><time>2026-04-04T13:42:02.601Z</time></trkpt><trkpt lat="44.7545267" lon="9.3130233"><ele>941.8333333333334</ele><time>2026-04-04T13:42:04.6Z</time></trkpt><trkpt lat="44.7545583" lon="9.3131117"><ele>939.6666666666667</ele><time>2026-04-04T13:42:05.601Z</time></trkpt><trkpt lat="44.7546" lon="9.3132183"><ele>937.5</ele><time>2026-04-04T13:42:06.601Z</time></trkpt><trkpt lat="44.7546417" lon="9.31332"><ele>935.3333333333333</ele><time>2026-04-04T13:42:07.601Z</time></trkpt><trkpt lat="44.75468" lon="9.31343"><ele>933.1666666666666</ele><time>2026-04-04T13:42:08.602Z</time></trkpt><trkpt lat="44.75473" lon="9.3135367"><ele>931.0</ele><time>2026-04-04T13:42:09.601Z</time></trkpt><trkpt lat="44.7547783" lon="9.313635"><ele>931.0</ele><time>2026-04-04T13:42:10.601Z</time></trkpt><trkpt lat="44.754835" lon="9.313745"><ele>930.9999999999999</ele><time>2026-04-04T13:42:11.601Z</time></trkpt><trkpt lat="44.7548933" lon="9.313855"><ele>930.9999999999999</ele><time>2026-04-04T13:42:12.601Z</time></trkpt><trkpt lat="44.75495" lon="9.3139633"><ele>931.0</ele><time>2026-04-04T13:42:13.602Z</time></trkpt><trkpt lat="44.7550083" lon="9.314065"><ele>931.0</ele><time>2026-04-04T13:42:14.601Z</time></trkpt><trkpt lat="44.7550633" lon="9.3141583"><ele>928.6666666666666</ele><time>2026-04-04T13:42:15.602Z</time></trkpt><trkpt lat="44.7551133" lon="9.3142433"><ele>926.3333333333333</ele><time>2026-04-04T13:42:16.6Z</time></trkpt><trkpt lat="44.7551667" lon="9.3143083"><ele>924.0</ele><time>2026-04-04T13:42:17.6Z</time></trkpt><trkpt lat="44.7552283" lon="9.3143667"><ele>921.6666666666667</ele><time>2026-04-04T13:42:18.601Z</time></trkpt><trkpt lat="44.7552967" lon="9.31442"><ele>919.3333333333334</ele><time>2026-04-04T13:42:19.602Z</time></trkpt><trkpt lat="44.7553633" lon="9.3144817"><ele>917.0</ele><time>2026-04-04T13:42:20.602Z</time></trkpt><trkpt lat="44.7554117" lon="9.31455"><ele>917.0</ele><time>2026-04-04T13:42:21.601Z</time></trkpt><trkpt lat="44.7555017" lon="9.314615"><ele>917.0</ele><time>2026-04-04T13:42:23.601Z</time></trkpt><trkpt lat="44.7555633" lon="9.3145367"><ele>917.0</ele><time>2026-04-04T13:42:25.601Z</time></trkpt><trkpt lat="44.7556183" lon="9.3143717"><ele>917.0</ele><time>2026-04-04T13:42:27.601Z</time></trkpt><trkpt lat="44.7556533" lon="9.314285"><ele>917.0</ele><time>2026-04-04T13:42:28.601Z</time></trkpt><trkpt lat="44.755695" lon="9.31421"><ele>917.0</ele><time>2026-04-04T13:42:29.601Z</time></trkpt><trkpt lat="44.7557333" lon="9.3141283"><ele>917.0</ele><time>2026-04-04T13:42:30.6Z</time></trkpt><trkpt lat="44.7557783" lon="9.3140483"><ele>917.0</ele><time>2026-04-04T13:42:31.6Z</time></trkpt><trkpt lat="44.75582" lon="9.3139633"><ele>917.0</ele><time>2026-04-04T13:42:32.602Z</time></trkpt><trkpt lat="44.7558617" lon="9.3138833"><ele>917.0</ele><time>2026-04-04T13:42:33.601Z</time></trkpt><trkpt lat="44.7559033" lon="9.3138067"><ele>917.0</ele><time>2026-04-04T13:42:34.601Z</time></trkpt><trkpt lat="44.755955" lon="9.31374"><ele>917.0</ele><time>2026-04-04T13:42:35.601Z</time></trkpt><trkpt lat="44.75602" lon="9.313685"><ele>918.1666666666667</ele><time>2026-04-04T13:42:36.6Z</time></trkpt><trkpt lat="44.7560917" lon="9.31364"><ele>919.3333333333334</ele><time>2026-04-04T13:42:37.601Z</time></trkpt><trkpt lat="44.7561533" lon="9.3135917"><ele>920.5</ele><time>2026-04-04T13:42:38.603Z</time></trkpt><trkpt lat="44.7562133" lon="9.313535"><ele>921.6666666666667</ele><time>2026-04-04T13:42:39.601Z</time></trkpt><trkpt lat="44.756275" lon="9.3134667"><ele>922.8333333333334</ele><time>2026-04-04T13:42:40.601Z</time></trkpt><trkpt lat="44.7563217" lon="9.31338"><ele>924.0</ele><time>2026-04-04T13:42:41.601Z</time></trkpt><trkpt lat="44.7563467" lon="9.3132817"><ele>924.0</ele><time>2026-04-04T13:42:42.601Z</time></trkpt><trkpt lat="44.7563767" lon="9.313185"><ele>924.0</ele><time>2026-04-04T13:42:43.6Z</time></trkpt><trkpt lat="44.7564117" lon="9.3131067"><ele>924.0</ele><time>2026-04-04T13:42:44.601Z</time></trkpt><trkpt lat="44.7564567" lon="9.313035"><ele>924.0</ele><time>2026-04-04T13:42:45.6Z</time></trkpt><trkpt lat="44.756515" lon="9.3129883"><ele>924.0</ele><time>2026-04-04T13:42:46.602Z</time></trkpt><trkpt lat="44.75659" lon="9.31297"><ele>924.0</ele><time>2026-04-04T13:42:47.604Z</time></trkpt><trkpt lat="44.7566783" lon="9.3129633"><ele>924.0</ele><time>2026-04-04T13:42:48.602Z</time></trkpt><trkpt lat="44.7567567" lon="9.312955"><ele>924.8000000000001</ele><time>2026-04-04T13:42:49.602Z</time></trkpt><trkpt lat="44.756875" lon="9.3129617"><ele>925.6000000000001</ele><time>2026-04-04T13:42:50.601Z</time></trkpt><trkpt lat="44.7569633" lon="9.3129683"><ele>926.4</ele><time>2026-04-04T13:42:51.601Z</time></trkpt><trkpt lat="44.7570633" lon="9.3129817"><ele>927.2</ele><time>2026-04-04T13:42:52.6Z</time></trkpt><trkpt lat="44.7571617" lon="9.3129967"><ele>928.0</ele><time>2026-04-04T13:42:53.601Z</time></trkpt><trkpt lat="44.7572583" lon="9.3130083"><ele>928.0</ele><time>2026-04-04T13:42:54.601Z</time></trkpt><trkpt lat="44.757365" lon="9.3130117"><ele>928.0</ele><time>2026-04-04T13:42:55.6Z</time></trkpt><trkpt lat="44.7574683" lon="9.3130133"><ele>928.0</ele><time>2026-04-04T13:42:56.601Z</time></trkpt><trkpt lat="44.757555" lon="9.313025"><ele>928.0</ele><time>2026-04-04T13:42:57.601Z</time></trkpt><trkpt lat="44.757635" lon="9.3130367"><ele>928.0</ele><time>2026-04-04T13:42:58.601Z</time></trkpt><trkpt lat="44.7577217" lon="9.3130517"><ele>924.5999999999999</ele><time>2026-04-04T13:43:00.6Z</time></trkpt><trkpt lat="44.75782" lon="9.313115"><ele>921.1999999999999</ele><time>2026-04-04T13:44:21.601Z</time></trkpt><trkpt lat="44.7578933" lon="9.313155"><ele>917.8</ele><time>2026-04-04T13:44:23.601Z</time></trkpt><trkpt lat="44.7580033" lon="9.3132083"><ele>914.4</ele><time>2026-04-04T13:44:25.601Z</time></trkpt><trkpt lat="44.7581133" lon="9.3132917"><ele>911.0</ele><time>2026-04-04T13:44:27.6Z</time></trkpt><trkpt lat="44.7581717" lon="9.3133433"><ele>911.0000000000001</ele><time>2026-04-04T13:44:28.601Z</time></trkpt><trkpt lat="44.7582267" lon="9.3134017"><ele>911.0</ele><time>2026-04-04T13:44:29.602Z</time></trkpt><trkpt lat="44.7582817" lon="9.31346"><ele>911.0</ele><time>2026-04-04T13:44:30.6Z</time></trkpt><trkpt lat="44.758335" lon="9.3135117"><ele>911.0</ele><time>2026-04-04T13:44:31.601Z</time></trkpt><trkpt lat="44.7584183" lon="9.3135867"><ele>911.0000000000001</ele><time>2026-04-04T13:44:33.601Z</time></trkpt><trkpt lat="44.7584817" lon="9.3136567"><ele>911.0</ele><time>2026-04-04T13:44:35.6Z</time></trkpt><trkpt lat="44.7585583" lon="9.3137267"><ele>909.4</ele><time>2026-04-04T13:44:37.601Z</time></trkpt><trkpt lat="44.7586583" lon="9.313805"><ele>907.8</ele><time>2026-04-04T13:44:39.601Z</time></trkpt><trkpt lat="44.7587417" lon="9.31388"><ele>906.1999999999999</ele><time>2026-04-04T13:44:41.6Z</time></trkpt><trkpt lat="44.7588533" lon="9.3139617"><ele>904.5999999999999</ele><time>2026-04-04T13:46:21.602Z</time></trkpt><trkpt lat="44.7587933" lon="9.313855"><ele>903.0</ele><time>2026-04-04T13:46:25.6Z</time></trkpt><trkpt lat="44.75868" lon="9.3137267"><ele>901.8333333333334</ele><time>2026-04-04T13:46:27.599Z</time></trkpt><trkpt lat="44.7586267" lon="9.3136283"><ele>900.6666666666667</ele><time>2026-04-04T13:46:28.599Z</time></trkpt><trkpt lat="44.7585767" lon="9.3135283"><ele>899.5</ele><time>2026-04-04T13:46:29.601Z</time></trkpt><trkpt lat="44.7585217" lon="9.313425"><ele>898.3333333333334</ele><time>2026-04-04T13:46:30.601Z</time></trkpt><trkpt lat="44.7584667" lon="9.313345"><ele>897.1666666666667</ele><time>2026-04-04T13:46:31.601Z</time></trkpt><trkpt lat="44.758415" lon="9.3132767"><ele>896.0</ele><time>2026-04-04T13:46:32.601Z</time></trkpt><trkpt lat="44.7583633" lon="9.3132183"><ele>897.8333333333334</ele><time>2026-04-04T13:46:33.601Z</time></trkpt><trkpt lat="44.7583" lon="9.3131167"><ele>899.6666666666667</ele><time>2026-04-04T13:46:35.603Z</time></trkpt><trkpt lat="44.7582933" lon="9.3129633"><ele>901.5</ele><time>2026-04-04T13:46:37.601Z</time></trkpt><trkpt lat="44.7583117" lon="9.3128633"><ele>903.3333333333333</ele><time>2026-04-04T13:46:38.602Z</time></trkpt><trkpt lat="44.75831" lon="9.3127683"><ele>905.1666666666666</ele><time>2026-04-04T13:46:39.6Z</time></trkpt><trkpt lat="44.7583" lon="9.3126683"><ele>907.0</ele><time>2026-04-04T13:46:40.599Z</time></trkpt><trkpt lat="44.7582817" lon="9.3125633"><ele>906.9999999999999</ele><time>2026-04-04T13:46:41.601Z</time></trkpt><trkpt lat="44.75826" lon="9.31244"><ele>907.0</ele><time>2026-04-04T13:46:42.601Z</time></trkpt><trkpt lat="44.7582167" lon="9.3123267"><ele>907.0</ele><time>2026-04-04T13:46:43.599Z</time></trkpt><trkpt lat="44.7581817" lon="9.31224"><ele>907.0</ele><time>2026-04-04T13:46:44.601Z</time></trkpt><trkpt lat="44.7581367" lon="9.3121717"><ele>906.9999999999999</ele><time>2026-04-04T13:46:45.6Z</time></trkpt><trkpt lat="44.75804" lon="9.3121167"><ele>907.0</ele><time>2026-04-04T13:46:47.6Z</time></trkpt><trkpt lat="44.7579433" lon="9.3121367"><ele>907.9999999999999</ele><time>2026-04-04T13:46:49.599Z</time></trkpt><trkpt lat="44.7578433" lon="9.3121067"><ele>909.0</ele><time>2026-04-04T13:46:51.599Z</time></trkpt><trkpt lat="44.75779" lon="9.3120583"><ele>910.0</ele><time>2026-04-04T13:46:52.599Z</time></trkpt><trkpt lat="44.7577383" lon="9.31199"><ele>911.0</ele><time>2026-04-04T13:46:53.599Z</time></trkpt><trkpt lat="44.7576767" lon="9.3118883"><ele>911.9999999999999</ele><time>2026-04-04T13:46:54.6Z</time></trkpt><trkpt lat="44.757635" lon="9.3117783"><ele>913.0</ele><time>2026-04-04T13:46:55.601Z</time></trkpt><trkpt lat="44.75758" lon="9.3116467"><ele>913.0</ele><time>2026-04-04T13:46:56.6Z</time></trkpt><trkpt lat="44.7575117" lon="9.3115183"><ele>913.0</ele><time>2026-04-04T13:46:57.599Z</time></trkpt><trkpt lat="44.7574717" lon="9.31138"><ele>913.0</ele><time>2026-04-04T13:46:58.6Z</time></trkpt><trkpt lat="44.75742" lon="9.311255"><ele>913.0</ele><time>2026-04-04T13:46:59.601Z</time></trkpt><trkpt lat="44.7573667" lon="9.311125"><ele>913.0</ele><time>2026-04-04T13:47:00.6Z</time></trkpt><trkpt lat="44.757315" lon="9.3109933"><ele>910.4</ele><time>2026-04-04T13:47:01.601Z</time></trkpt><trkpt lat="44.7572767" lon="9.3108517"><ele>907.8</ele><time>2026-04-04T13:47:02.601Z</time></trkpt><trkpt lat="44.7572367" lon="9.3107233"><ele>905.2</ele><time>2026-04-04T13:47:03.6Z</time></trkpt><trkpt lat="44.757205" lon="9.3105817"><ele>902.6</ele><time>2026-04-04T13:47:04.6Z</time></trkpt><trkpt lat="44.75717" lon="9.310445"><ele>900.0</ele><time>2026-04-04T13:47:05.601Z</time></trkpt><trkpt lat="44.75715" lon="9.310325"><ele>897.0</ele><time>2026-04-04T13:47:06.602Z</time></trkpt><trkpt lat="44.757125" lon="9.3101917"><ele>894.0</ele><time>2026-04-04T13:47:07.602Z</time></trkpt><trkpt lat="44.7570817" lon="9.3100633"><ele>891.0</ele><time>2026-04-04T13:47:08.602Z</time></trkpt><trkpt lat="44.7570517" lon="9.3099567"><ele>888.0</ele><time>2026-04-04T13:47:09.6Z</time></trkpt><trkpt lat="44.7570333" lon="9.309855"><ele>885.0</ele><time>2026-04-04T13:47:10.6Z</time></trkpt><trkpt lat="44.7570067" lon="9.309735"><ele>882.0</ele><time>2026-04-04T13:47:11.6Z</time></trkpt><trkpt lat="44.7569833" lon="9.30963"><ele>880.8</ele><time>2026-04-04T13:47:12.599Z</time></trkpt><trkpt lat="44.7569683" lon="9.3095333"><ele>879.6</ele><time>2026-04-04T13:47:13.601Z</time></trkpt><trkpt lat="44.75695" lon="9.3093967"><ele>878.3999999999999</ele><time>2026-04-04T13:47:15.6Z</time></trkpt><trkpt lat="44.7569467" lon="9.30927"><ele>877.1999999999999</ele><time>2026-04-04T13:47:17.601Z</time></trkpt><trkpt lat="44.7569267" lon="9.3091467"><ele>876.0</ele><time>2026-04-04T13:47:19.601Z</time></trkpt><trkpt lat="44.7568917" lon="9.3089967"><ele>875.5</ele><time>2026-04-04T13:47:21.6Z</time></trkpt><trkpt lat="44.75688" lon="9.3089017"><ele>875.0</ele><time>2026-04-04T13:47:22.6Z</time></trkpt><trkpt lat="44.75687" lon="9.3087833"><ele>874.5</ele><time>2026-04-04T13:47:23.601Z</time></trkpt><trkpt lat="44.7568517" lon="9.3086667"><ele>874.0</ele><time>2026-04-04T13:47:24.6Z</time></trkpt><trkpt lat="44.7568333" lon="9.3085533"><ele>873.5</ele><time>2026-04-04T13:47:25.601Z</time></trkpt><trkpt lat="44.7568083" lon="9.3084517"><ele>873.0</ele><time>2026-04-04T13:47:26.602Z</time></trkpt><trkpt lat="44.75678" lon="9.3083617"><ele>877.3333333333334</ele><time>2026-04-04T13:47:27.602Z</time></trkpt><trkpt lat="44.7567417" lon="9.3082767"><ele>881.6666666666667</ele><time>2026-04-04T13:47:28.601Z</time></trkpt><trkpt lat="44.7566883" lon="9.308185"><ele>886.0</ele><time>2026-04-04T13:47:29.603Z</time></trkpt><trkpt lat="44.7566267" lon="9.3080933"><ele>890.3333333333334</ele><time>2026-04-04T13:47:30.601Z</time></trkpt><trkpt lat="44.7565683" lon="9.3080133"><ele>894.6666666666667</ele><time>2026-04-04T13:47:31.602Z</time></trkpt><trkpt lat="44.756515" lon="9.3079383"><ele>899.0</ele><time>2026-04-04T13:47:32.602Z</time></trkpt><trkpt lat="44.7564633" lon="9.3078717"><ele>899.0000000000001</ele><time>2026-04-04T13:47:33.6Z</time></trkpt><trkpt lat="44.7564183" lon="9.3077933"><ele>899.0</ele><time>2026-04-04T13:47:34.601Z</time></trkpt><trkpt lat="44.756385" lon="9.3077067"><ele>899.0</ele><time>2026-04-04T13:47:35.599Z</time></trkpt><trkpt lat="44.7563683" lon="9.307605"><ele>899.0</ele><time>2026-04-04T13:47:36.601Z</time></trkpt><trkpt lat="44.756365" lon="9.3074967"><ele>899.0000000000001</ele><time>2026-04-04T13:47:37.602Z</time></trkpt><trkpt lat="44.7563683" lon="9.307365"><ele>899.0</ele><time>2026-04-04T13:47:38.601Z</time></trkpt><trkpt lat="44.7563633" lon="9.30726"><ele>897.3333333333334</ele><time>2026-04-04T13:47:39.6Z</time></trkpt><trkpt lat="44.75636" lon="9.30714"><ele>895.6666666666667</ele><time>2026-04-04T13:47:40.601Z</time></trkpt><trkpt lat="44.7563583" lon="9.307035"><ele>894.0</ele><time>2026-04-04T13:47:41.6Z</time></trkpt><trkpt lat="44.7563583" lon="9.306935"><ele>892.3333333333333</ele><time>2026-04-04T13:47:42.6Z</time></trkpt><trkpt lat="44.75635" lon="9.3068283"><ele>890.6666666666666</ele><time>2026-04-04T13:47:43.6Z</time></trkpt><trkpt lat="44.7563517" lon="9.3067167"><ele>889.0</ele><time>2026-04-04T13:47:44.602Z</time></trkpt><trkpt lat="44.7563367" lon="9.30662"><ele>888.9999999999999</ele><time>2026-04-04T13:47:45.6Z</time></trkpt><trkpt lat="44.7563167" lon="9.306515"><ele>889.0</ele><time>2026-04-04T13:47:46.6Z</time></trkpt><trkpt lat="44.7562867" lon="9.3064017"><ele>889.0</ele><time>2026-04-04T13:47:47.603Z</time></trkpt><trkpt lat="44.756265" lon="9.306305"><ele>889.0</ele><time>2026-04-04T13:47:48.602Z</time></trkpt><trkpt lat="44.756255" lon="9.3061283"><ele>888.9999999999999</ele><time>2026-04-04T13:47:50.603Z</time></trkpt><trkpt lat="44.75627" lon="9.3060417"><ele>889.0</ele><time>2026-04-04T13:47:51.605Z</time></trkpt><trkpt lat="44.7562917" lon="9.3059017"><ele>888.1666666666666</ele><time>2026-04-04T13:47:53.601Z</time></trkpt><trkpt lat="44.7562917" lon="9.3057933"><ele>887.3333333333333</ele><time>2026-04-04T13:47:55.599Z</time></trkpt><trkpt lat="44.7563" lon="9.3057"><ele>886.5</ele><time>2026-04-04T13:47:57.6Z</time></trkpt><trkpt lat="44.7563483" lon="9.3056033"><ele>885.6666666666667</ele><time>2026-04-04T13:47:59.6Z</time></trkpt><trkpt lat="44.7564433" lon="9.3054783"><ele>884.8333333333334</ele><time>2026-04-04T13:48:09.599Z</time></trkpt><trkpt lat="44.75651" lon="9.3053983"><ele>884.0</ele><time>2026-04-04T13:48:11.6Z</time></trkpt><trkpt lat="44.75659" lon="9.305345"><ele>884.0</ele><time>2026-04-04T13:48:13.601Z</time></trkpt><trkpt lat="44.7567" lon="9.3053067"><ele>884.0000000000001</ele><time>2026-04-04T13:48:15.6Z</time></trkpt><trkpt lat="44.756815" lon="9.3052483"><ele>884.0000000000001</ele><time>2026-04-04T13:48:17.6Z</time></trkpt><trkpt lat="44.756915" lon="9.3051817"><ele>884.0</ele><time>2026-04-04T13:48:19.601Z</time></trkpt><trkpt lat="44.7569683" lon="9.3050867"><ele>884.0</ele><time>2026-04-04T13:48:21.6Z</time></trkpt><trkpt lat="44.7570233" lon="9.3049967"><ele>881.0000000000001</ele><time>2026-04-04T13:48:23.6Z</time></trkpt><trkpt lat="44.757095" lon="9.3049633"><ele>878.0</ele><time>2026-04-04T13:48:25.599Z</time></trkpt><trkpt lat="44.7571983" lon="9.304965"><ele>875.0</ele><time>2026-04-04T13:48:27.601Z</time></trkpt><trkpt lat="44.7572617" lon="9.3049617"><ele>872.0</ele><time>2026-04-04T13:48:28.601Z</time></trkpt><trkpt lat="44.7573317" lon="9.30495"><ele>869.0000000000001</ele><time>2026-04-04T13:48:29.6Z</time></trkpt><trkpt lat="44.757405" lon="9.304935"><ele>866.0</ele><time>2026-04-04T13:48:30.6Z</time></trkpt><trkpt lat="44.75748" lon="9.3049217"><ele>866.0000000000001</ele><time>2026-04-04T13:48:31.601Z</time></trkpt><trkpt lat="44.7575567" lon="9.3049183"><ele>866.0</ele><time>2026-04-04T13:48:32.601Z</time></trkpt><trkpt lat="44.757645" lon="9.3049183"><ele>866.0</ele><time>2026-04-04T13:48:33.599Z</time></trkpt><trkpt lat="44.757735" lon="9.3049217"><ele>866.0</ele><time>2026-04-04T13:48:34.601Z</time></trkpt><trkpt lat="44.7578233" lon="9.3049333"><ele>866.0000000000001</ele><time>2026-04-04T13:48:35.599Z</time></trkpt><trkpt lat="44.7579067" lon="9.3049417"><ele>866.0</ele><time>2026-04-04T13:48:36.599Z</time></trkpt><trkpt lat="44.7579867" lon="9.3049367"><ele>865.6666666666667</ele><time>2026-04-04T13:48:37.6Z</time></trkpt><trkpt lat="44.7580583" lon="9.3049067"><ele>865.3333333333334</ele><time>2026-04-04T13:48:38.6Z</time></trkpt><trkpt lat="44.758135" lon="9.3048733"><ele>865.0</ele><time>2026-04-04T13:48:39.602Z</time></trkpt><trkpt lat="44.758195" lon="9.3048133"><ele>864.6666666666667</ele><time>2026-04-04T13:48:40.6Z</time></trkpt><trkpt lat="44.7582667" lon="9.3047483"><ele>864.3333333333334</ele><time>2026-04-04T13:48:41.599Z</time></trkpt><trkpt lat="44.7583217" lon="9.3046717"><ele>864.0</ele><time>2026-04-04T13:48:42.599Z</time></trkpt><trkpt lat="44.7583717" lon="9.3045883"><ele>864.0</ele><time>2026-04-04T13:48:43.601Z</time></trkpt><trkpt lat="44.7584117" lon="9.3044917"><ele>864.0000000000001</ele><time>2026-04-04T13:48:44.601Z</time></trkpt><trkpt lat="44.75846" lon="9.3043733"><ele>864.0000000000001</ele><time>2026-04-04T13:48:45.601Z</time></trkpt><trkpt lat="44.7585083" lon="9.3042483"><ele>864.0</ele><time>2026-04-04T13:48:46.601Z</time></trkpt><trkpt lat="44.7585483" lon="9.30413"><ele>864.0</ele><time>2026-04-04T13:48:47.602Z</time></trkpt><trkpt lat="44.7585817" lon="9.3040133"><ele>863.6</ele><time>2026-04-04T13:48:48.601Z</time></trkpt><trkpt lat="44.758615" lon="9.3038967"><ele>863.2</ele><time>2026-04-04T13:48:49.601Z</time></trkpt><trkpt lat="44.758665" lon="9.30378"><ele>862.8000000000001</ele><time>2026-04-04T13:48:50.6Z</time></trkpt><trkpt lat="44.75872" lon="9.303685"><ele>862.4000000000001</ele><time>2026-04-04T13:48:51.599Z</time></trkpt><trkpt lat="44.75878" lon="9.3035867"><ele>862.0</ele><time>2026-04-04T13:48:52.6Z</time></trkpt><trkpt lat="44.7588467" lon="9.3034917"><ele>862.0</ele><time>2026-04-04T13:48:53.602Z</time></trkpt><trkpt lat="44.7589167" lon="9.303415"><ele>862.0</ele><time>2026-04-04T13:48:54.602Z</time></trkpt><trkpt lat="44.7590067" lon="9.303375"><ele>862.0</ele><time>2026-04-04T13:48:55.599Z</time></trkpt><trkpt lat="44.7590967" lon="9.3033467"><ele>862.0</ele><time>2026-04-04T13:48:56.601Z</time></trkpt><trkpt lat="44.7591933" lon="9.3033217"><ele>862.0</ele><time>2026-04-04T13:48:57.6Z</time></trkpt><trkpt lat="44.7592933" lon="9.3033033"><ele>862.6</ele><time>2026-04-04T13:48:58.601Z</time></trkpt><trkpt lat="44.7594267" lon="9.3032833"><ele>863.2</ele><time>2026-04-04T13:49:00.6Z</time></trkpt><trkpt lat="44.7595433" lon="9.3031967"><ele>863.8</ele><time>2026-04-04T13:49:02.601Z</time></trkpt><trkpt lat="44.7596117" lon="9.3031183"><ele>864.4</ele><time>2026-04-04T13:49:03.6Z</time></trkpt><trkpt lat="44.7596783" lon="9.303035"><ele>865.0</ele><time>2026-04-04T13:49:04.599Z</time></trkpt><trkpt lat="44.7597483" lon="9.30295"><ele>865.0</ele><time>2026-04-04T13:49:05.602Z</time></trkpt><trkpt lat="44.759815" lon="9.3028567"><ele>865.0</ele><time>2026-04-04T13:49:06.601Z</time></trkpt><trkpt lat="44.75988" lon="9.3027617"><ele>865.0</ele><time>2026-04-04T13:49:07.6Z</time></trkpt><trkpt lat="44.7599483" lon="9.3026717"><ele>865.0</ele><time>2026-04-04T13:49:08.601Z</time></trkpt><trkpt lat="44.7600333" lon="9.3026133"><ele>865.0</ele><time>2026-04-04T13:49:09.601Z</time></trkpt><trkpt lat="44.7601133" lon="9.3025767"><ele>865.0</ele><time>2026-04-04T13:49:10.6Z</time></trkpt><trkpt lat="44.7601817" lon="9.3025433"><ele>865.0</ele><time>2026-04-04T13:49:11.599Z</time></trkpt><trkpt lat="44.7602483" lon="9.3025183"><ele>865.0</ele><time>2026-04-04T13:49:12.6Z</time></trkpt><trkpt lat="44.7603367" lon="9.3024383"><ele>865.0</ele><time>2026-04-04T13:49:14.599Z</time></trkpt><trkpt lat="44.7603867" lon="9.3022717"><ele>865.0</ele><time>2026-04-04T13:49:16.6Z</time></trkpt><trkpt lat="44.7604083" lon="9.3021567"><ele>865.0</ele><time>2026-04-04T13:49:17.601Z</time></trkpt><trkpt lat="44.7604217" lon="9.3020483"><ele>865.0</ele><time>2026-04-04T13:49:18.599Z</time></trkpt><trkpt lat="44.7604483" lon="9.3019567"><ele>865.0</ele><time>2026-04-04T13:49:19.601Z</time></trkpt><trkpt lat="44.7604833" lon="9.3018717"><ele>865.0</ele><time>2026-04-04T13:49:20.601Z</time></trkpt><trkpt lat="44.7605283" lon="9.3018"><ele>865.0</ele><time>2026-04-04T13:49:21.601Z</time></trkpt><trkpt lat="44.7605733" lon="9.3017283"><ele>865.0</ele><time>2026-04-04T13:49:22.6Z</time></trkpt><trkpt lat="44.7606383" lon="9.3016617"><ele>865.0</ele><time>2026-04-04T13:49:23.6Z</time></trkpt><trkpt lat="44.7607067" lon="9.3016017"><ele>864.9999999999999</ele><time>2026-04-04T13:49:24.601Z</time></trkpt><trkpt lat="44.76076" lon="9.3015467"><ele>865.0</ele><time>2026-04-04T13:49:25.6Z</time></trkpt><trkpt lat="44.7608283" lon="9.3015183"><ele>865.0</ele><time>2026-04-04T13:49:26.601Z</time></trkpt><trkpt lat="44.7609583" lon="9.3015167"><ele>865.0</ele><time>2026-04-04T13:49:28.599Z</time></trkpt><trkpt lat="44.761045" lon="9.3015417"><ele>864.9999999999999</ele><time>2026-04-04T13:49:29.601Z</time></trkpt><trkpt lat="44.761125" lon="9.3015567"><ele>865.0</ele><time>2026-04-04T13:49:30.601Z</time></trkpt><trkpt lat="44.7612183" lon="9.301555"><ele>861.3333333333333</ele><time>2026-04-04T13:49:31.599Z</time></trkpt><trkpt lat="44.7613" lon="9.30152"><ele>857.6666666666666</ele><time>2026-04-04T13:49:32.601Z</time></trkpt><trkpt lat="44.7613817" lon="9.3014883"><ele>854.0</ele><time>2026-04-04T13:49:33.6Z</time></trkpt><trkpt lat="44.7614617" lon="9.3014633"><ele>850.3333333333333</ele><time>2026-04-04T13:49:34.6Z</time></trkpt><trkpt lat="44.7615533" lon="9.30145"><ele>846.6666666666666</ele><time>2026-04-04T13:49:35.601Z</time></trkpt><trkpt lat="44.761645" lon="9.3014367"><ele>843.0</ele><time>2026-04-04T13:49:36.601Z</time></trkpt><trkpt lat="44.7617317" lon="9.3014183"><ele>843.6666666666666</ele><time>2026-04-04T13:49:37.601Z</time></trkpt><trkpt lat="44.761815" lon="9.3013867"><ele>844.3333333333333</ele><time>2026-04-04T13:49:38.601Z</time></trkpt><trkpt lat="44.76189" lon="9.3013417"><ele>845.0</ele><time>2026-04-04T13:49:39.599Z</time></trkpt><trkpt lat="44.761955" lon="9.3012833"><ele>845.6666666666666</ele><time>2026-04-04T13:49:40.6Z</time></trkpt><trkpt lat="44.7620217" lon="9.3012133"><ele>846.3333333333333</ele><time>2026-04-04T13:49:41.6Z</time></trkpt><trkpt lat="44.762085" lon="9.3011467"><ele>847.0</ele><time>2026-04-04T13:49:42.6Z</time></trkpt><trkpt lat="44.762135" lon="9.301075"><ele>847.0</ele><time>2026-04-04T13:49:43.6Z</time></trkpt><trkpt lat="44.7621817" lon="9.3009767"><ele>847.0</ele><time>2026-04-04T13:49:44.6Z</time></trkpt><trkpt lat="44.7622167" lon="9.3008567"><ele>847.0</ele><time>2026-04-04T13:49:45.6Z</time></trkpt><trkpt lat="44.76225" lon="9.3007183"><ele>847.0</ele><time>2026-04-04T13:49:46.599Z</time></trkpt><trkpt lat="44.762285" lon="9.3005783"><ele>847.0</ele><time>2026-04-04T13:49:47.6Z</time></trkpt><trkpt lat="44.7623233" lon="9.3004383"><ele>848.9999999999999</ele><time>2026-04-04T13:49:48.6Z</time></trkpt><trkpt lat="44.7623583" lon="9.3003117"><ele>851.0</ele><time>2026-04-04T13:49:49.601Z</time></trkpt><trkpt lat="44.7623817" lon="9.3001967"><ele>853.0</ele><time>2026-04-04T13:49:50.602Z</time></trkpt><trkpt lat="44.7623967" lon="9.3000917"><ele>855.0</ele><time>2026-04-04T13:49:51.601Z</time></trkpt><trkpt lat="44.7624083" lon="9.2999967"><ele>856.9999999999999</ele><time>2026-04-04T13:49:52.599Z</time></trkpt><trkpt lat="44.7624383" lon="9.2998567"><ele>859.0</ele><time>2026-04-04T13:49:54.601Z</time></trkpt><trkpt lat="44.7625033" lon="9.2998217"><ele>859.0</ele><time>2026-04-04T13:49:56.599Z</time></trkpt><trkpt lat="44.7626283" lon="9.29996"><ele>859.0</ele><time>2026-04-04T13:49:58.601Z</time></trkpt><trkpt lat="44.762705" lon="9.30007"><ele>859.0</ele><time>2026-04-04T13:49:59.6Z</time></trkpt><trkpt lat="44.762775" lon="9.300195"><ele>859.0</ele><time>2026-04-04T13:50:00.601Z</time></trkpt><trkpt lat="44.7628317" lon="9.3003283"><ele>859.6666666666666</ele><time>2026-04-04T13:50:01.6Z</time></trkpt><trkpt lat="44.7628817" lon="9.300445"><ele>860.3333333333333</ele><time>2026-04-04T13:50:02.601Z</time></trkpt><trkpt lat="44.762935" lon="9.3005483"><ele>861.0</ele><time>2026-04-04T13:50:03.601Z</time></trkpt><trkpt lat="44.76299" lon="9.30062"><ele>861.6666666666667</ele><time>2026-04-04T13:50:04.601Z</time></trkpt><trkpt lat="44.7630517" lon="9.3006517"><ele>862.3333333333334</ele><time>2026-04-04T13:50:05.601Z</time></trkpt><trkpt lat="44.76312" lon="9.300655"><ele>863.0</ele><time>2026-04-04T13:50:06.6Z</time></trkpt><trkpt lat="44.7631967" lon="9.3006317"><ele>863.0000000000001</ele><time>2026-04-04T13:50:07.599Z</time></trkpt><trkpt lat="44.763275" lon="9.3005917"><ele>863.0</ele><time>2026-04-04T13:50:08.602Z</time></trkpt><trkpt lat="44.7633567" lon="9.30053"><ele>863.0</ele><time>2026-04-04T13:50:09.6Z</time></trkpt><trkpt lat="44.763435" lon="9.300465"><ele>863.0</ele><time>2026-04-04T13:50:10.601Z</time></trkpt><trkpt lat="44.7635033" lon="9.3004033"><ele>863.0000000000001</ele><time>2026-04-04T13:50:11.6Z</time></trkpt><trkpt lat="44.7635717" lon="9.3003383"><ele>863.0</ele><time>2026-04-04T13:50:12.599Z</time></trkpt><trkpt lat="44.763645" lon="9.3002783"><ele>861.8333333333334</ele><time>2026-04-04T13:50:13.601Z</time></trkpt><trkpt lat="44.7637217" lon="9.30022"><ele>860.6666666666667</ele><time>2026-04-04T13:50:14.601Z</time></trkpt><trkpt lat="44.7637983" lon="9.3001683"><ele>859.5</ele><time>2026-04-04T13:50:15.601Z</time></trkpt><trkpt lat="44.7638767" lon="9.3001217"><ele>858.3333333333333</ele><time>2026-04-04T13:50:16.6Z</time></trkpt><trkpt lat="44.76395" lon="9.3000617"><ele>857.1666666666666</ele><time>2026-04-04T13:50:17.601Z</time></trkpt><trkpt lat="44.7640183" lon="9.2999733"><ele>856.0</ele><time>2026-04-04T13:50:18.6Z</time></trkpt><trkpt lat="44.76408" lon="9.2998567"><ele>857.9999999999999</ele><time>2026-04-04T13:50:19.6Z</time></trkpt><trkpt lat="44.7641333" lon="9.2997367"><ele>860.0</ele><time>2026-04-04T13:50:20.601Z</time></trkpt><trkpt lat="44.764175" lon="9.29963"><ele>862.0</ele><time>2026-04-04T13:50:21.601Z</time></trkpt><trkpt lat="44.7641917" lon="9.2995383"><ele>864.0</ele><time>2026-04-04T13:50:22.601Z</time></trkpt><trkpt lat="44.7641933" lon="9.2993967"><ele>865.9999999999999</ele><time>2026-04-04T13:50:24.601Z</time></trkpt><trkpt lat="44.7642033" lon="9.2992967"><ele>868.0</ele><time>2026-04-04T13:50:26.601Z</time></trkpt><trkpt lat="44.7642633" lon="9.2992517"><ele>867.9999999999999</ele><time>2026-04-04T13:50:28.6Z</time></trkpt><trkpt lat="44.7643483" lon="9.2992833"><ele>868.0</ele><time>2026-04-04T13:50:30.601Z</time></trkpt><trkpt lat="44.7644117" lon="9.299315"><ele>868.0</ele><time>2026-04-04T13:50:32.6Z</time></trkpt><trkpt lat="44.764485" lon="9.2993233"><ele>868.0</ele><time>2026-04-04T13:50:53.601Z</time></trkpt><trkpt lat="44.764605" lon="9.2992883"><ele>867.9999999999999</ele><time>2026-04-04T13:50:55.599Z</time></trkpt><trkpt lat="44.764685" lon="9.2992433"><ele>868.0</ele><time>2026-04-04T13:50:56.601Z</time></trkpt><trkpt lat="44.7647683" lon="9.2991983"><ele>867.4999999999999</ele><time>2026-04-04T13:50:57.601Z</time></trkpt><trkpt lat="44.7648483" lon="9.2991717"><ele>867.0</ele><time>2026-04-04T13:50:58.601Z</time></trkpt><trkpt lat="44.7649217" lon="9.2991717"><ele>866.5</ele><time>2026-04-04T13:50:59.601Z</time></trkpt><trkpt lat="44.7649983" lon="9.2991983"><ele>866.0</ele><time>2026-04-04T13:51:00.601Z</time></trkpt><trkpt lat="44.7650783" lon="9.29925"><ele>865.4999999999999</ele><time>2026-04-04T13:51:01.6Z</time></trkpt><trkpt lat="44.7651517" lon="9.29931"><ele>865.0</ele><time>2026-04-04T13:51:02.6Z</time></trkpt><trkpt lat="44.7652167" lon="9.2993867"><ele>865.8</ele><time>2026-04-04T13:51:03.6Z</time></trkpt><trkpt lat="44.76526" lon="9.299475"><ele>866.6</ele><time>2026-04-04T13:51:04.6Z</time></trkpt><trkpt lat="44.7652983" lon="9.2995883"><ele>867.4000000000001</ele><time>2026-04-04T13:51:05.601Z</time></trkpt><trkpt lat="44.7653433" lon="9.2997233"><ele>868.2</ele><time>2026-04-04T13:51:06.6Z</time></trkpt><trkpt lat="44.7653867" lon="9.2998667"><ele>869.0</ele><time>2026-04-04T13:51:07.6Z</time></trkpt><trkpt lat="44.7654317" lon="9.30001"><ele>869.0</ele><time>2026-04-04T13:51:08.601Z</time></trkpt><trkpt lat="44.7654733" lon="9.30014"><ele>869.0000000000001</ele><time>2026-04-04T13:51:09.6Z</time></trkpt><trkpt lat="44.765515" lon="9.3002533"><ele>869.0000000000001</ele><time>2026-04-04T13:51:10.601Z</time></trkpt><trkpt lat="44.7655567" lon="9.3003417"><ele>869.0</ele><time>2026-04-04T13:51:11.601Z</time></trkpt><trkpt lat="44.7656683" lon="9.30042"><ele>869.0</ele><time>2026-04-04T13:51:13.6Z</time></trkpt><trkpt lat="44.7657883" lon="9.30042"><ele>869.0000000000001</ele><time>2026-04-04T13:51:15.601Z</time></trkpt><trkpt lat="44.7659017" lon="9.3004083"><ele>869.0</ele><time>2026-04-04T13:51:17.602Z</time></trkpt><trkpt lat="44.7659883" lon="9.3003967"><ele>869.0</ele><time>2026-04-04T13:51:19.601Z</time></trkpt><trkpt lat="44.76605" lon="9.3003667"><ele>869.0</ele><time>2026-04-04T13:51:21.602Z</time></trkpt><trkpt lat="44.7661217" lon="9.3002933"><ele>869.0000000000001</ele><time>2026-04-04T13:51:24.603Z</time></trkpt><trkpt lat="44.7661867" lon="9.3002283"><ele>869.0</ele><time>2026-04-04T13:51:26.602Z</time></trkpt><trkpt lat="44.7662683" lon="9.3001517"><ele>870.6666666666667</ele><time>2026-04-04T13:51:28.601Z</time></trkpt><trkpt lat="44.7663567" lon="9.3001017"><ele>872.3333333333334</ele><time>2026-04-04T13:51:30.602Z</time></trkpt><trkpt lat="44.76646" lon="9.3001383"><ele>874.0</ele><time>2026-04-04T13:51:32.6Z</time></trkpt><trkpt lat="44.7665083" lon="9.3001967"><ele>875.6666666666667</ele><time>2026-04-04T13:51:33.6Z</time></trkpt><trkpt lat="44.76655" lon="9.3002783"><ele>877.3333333333334</ele><time>2026-04-04T13:51:34.6Z</time></trkpt><trkpt lat="44.7665867" lon="9.300375"><ele>879.0</ele><time>2026-04-04T13:51:35.602Z</time></trkpt><trkpt lat="44.7666167" lon="9.3004817"><ele>878.0</ele><time>2026-04-04T13:51:36.6Z</time></trkpt><trkpt lat="44.7666517" lon="9.3005883"><ele>877.0000000000001</ele><time>2026-04-04T13:51:37.605Z</time></trkpt><trkpt lat="44.7666833" lon="9.300685"><ele>876.0000000000001</ele><time>2026-04-04T13:51:38.6Z</time></trkpt><trkpt lat="44.76674" lon="9.300825"><ele>875.0</ele><time>2026-04-04T13:51:40.601Z</time></trkpt><trkpt lat="44.7668017" lon="9.3009233"><ele>874.0</ele><time>2026-04-04T13:51:42.601Z</time></trkpt><trkpt lat="44.76686" lon="9.3010667"><ele>873.4999999999999</ele><time>2026-04-04T13:51:44.601Z</time></trkpt><trkpt lat="44.7668783" lon="9.3011717"><ele>873.0</ele><time>2026-04-04T13:51:45.6Z</time></trkpt><trkpt lat="44.766885" lon="9.3012833"><ele>872.5</ele><time>2026-04-04T13:51:46.601Z</time></trkpt><trkpt lat="44.7668817" lon="9.3013767"><ele>872.0</ele><time>2026-04-04T13:51:47.601Z</time></trkpt><trkpt lat="44.7668617" lon="9.30152"><ele>871.4999999999999</ele><time>2026-04-04T13:51:49.601Z</time></trkpt><trkpt lat="44.7668433" lon="9.301645"><ele>871.0</ele><time>2026-04-04T13:51:51.6Z</time></trkpt><trkpt lat="44.7668683" lon="9.3018033"><ele>872.6666666666666</ele><time>2026-04-04T13:51:53.601Z</time></trkpt><trkpt lat="44.7669033" lon="9.3018817"><ele>874.3333333333333</ele><time>2026-04-04T13:51:54.606Z</time></trkpt><trkpt lat="44.7669433" lon="9.301965"><ele>876.0</ele><time>2026-04-04T13:51:55.601Z</time></trkpt><trkpt lat="44.7669817" lon="9.3020517"><ele>877.6666666666667</ele><time>2026-04-04T13:51:56.602Z</time></trkpt><trkpt lat="44.7670133" lon="9.302145"><ele>879.3333333333334</ele><time>2026-04-04T13:51:57.601Z</time></trkpt><trkpt lat="44.7670433" lon="9.30223"><ele>881.0</ele><time>2026-04-04T13:51:58.601Z</time></trkpt><trkpt lat="44.76711" lon="9.3023617"><ele>881.0</ele><time>2026-04-04T13:52:00.601Z</time></trkpt><trkpt lat="44.7672" lon="9.3024367"><ele>880.9999999999999</ele><time>2026-04-04T13:52:02.601Z</time></trkpt><trkpt lat="44.7673067" lon="9.30249"><ele>880.9999999999999</ele><time>2026-04-04T13:52:04.6Z</time></trkpt><trkpt lat="44.7673617" lon="9.3025833"><ele>881.0</ele><time>2026-04-04T13:52:06.6Z</time></trkpt><trkpt lat="44.7673167" lon="9.3026767"><ele>881.0</ele><time>2026-04-04T13:52:08.601Z</time></trkpt><trkpt lat="44.7672167" lon="9.3027533"><ele>881.0</ele><time>2026-04-04T13:52:10.601Z</time></trkpt><trkpt lat="44.7671417" lon="9.3028333"><ele>880.9999999999999</ele><time>2026-04-04T13:52:12.601Z</time></trkpt><trkpt lat="44.767085" lon="9.30288"><ele>880.9999999999999</ele><time>2026-04-04T13:52:14.6Z</time></trkpt><trkpt lat="44.7669817" lon="9.30292"><ele>881.0</ele><time>2026-04-04T13:52:16.601Z</time></trkpt><trkpt lat="44.7668833" lon="9.3029867"><ele>881.0</ele><time>2026-04-04T13:52:18.601Z</time></trkpt><trkpt lat="44.766845" lon="9.303085"><ele>875.1999999999999</ele><time>2026-04-04T13:52:20.601Z</time></trkpt><trkpt lat="44.766815" lon="9.30321"><ele>869.3999999999999</ele><time>2026-04-04T13:52:22.601Z</time></trkpt><trkpt lat="44.76677" lon="9.3033617"><ele>863.6</ele><time>2026-04-04T13:52:24.601Z</time></trkpt><trkpt lat="44.7666967" lon="9.3034917"><ele>857.8</ele><time>2026-04-04T13:52:26.602Z</time></trkpt><trkpt lat="44.766645" lon="9.303625"><ele>852.0</ele><time>2026-04-04T13:52:28.6Z</time></trkpt><trkpt lat="44.7665983" lon="9.3037833"><ele>852.0</ele><time>2026-04-04T13:52:30.6Z</time></trkpt><trkpt lat="44.7665717" lon="9.303865"><ele>852.0</ele><time>2026-04-04T13:52:31.601Z</time></trkpt><trkpt lat="44.7665" lon="9.304015"><ele>852.0</ele><time>2026-04-04T13:52:33.6Z</time></trkpt><trkpt lat="44.7664583" lon="9.3040917"><ele>852.0</ele><time>2026-04-04T13:52:34.6Z</time></trkpt><trkpt lat="44.7664083" lon="9.3041733"><ele>852.0</ele><time>2026-04-04T13:52:35.6Z</time></trkpt><trkpt lat="44.7663717" lon="9.30426"><ele>852.0</ele><time>2026-04-04T13:52:36.599Z</time></trkpt><trkpt lat="44.7663267" lon="9.304345"><ele>852.8571428571428</ele><time>2026-04-04T13:52:37.601Z</time></trkpt><trkpt lat="44.7662783" lon="9.3044183"><ele>853.7142857142857</ele><time>2026-04-04T13:52:38.6Z</time></trkpt><trkpt lat="44.7662283" lon="9.30449"><ele>854.5714285714286</ele><time>2026-04-04T13:52:39.601Z</time></trkpt><trkpt lat="44.766175" lon="9.3045583"><ele>855.4285714285713</ele><time>2026-04-04T13:52:40.601Z</time></trkpt><trkpt lat="44.766125" lon="9.3046283"><ele>856.2857142857143</ele><time>2026-04-04T13:52:41.601Z</time></trkpt><trkpt lat="44.7660767" lon="9.3047"><ele>857.1428571428571</ele><time>2026-04-04T13:52:42.602Z</time></trkpt><trkpt lat="44.76603" lon="9.3047767"><ele>858.0</ele><time>2026-04-04T13:52:43.6Z</time></trkpt><trkpt lat="44.7659917" lon="9.3048567"><ele>853.8571428571429</ele><time>2026-04-04T13:52:44.603Z</time></trkpt><trkpt lat="44.7659567" lon="9.3049467"><ele>849.7142857142858</ele><time>2026-04-04T13:52:45.599Z</time></trkpt><trkpt lat="44.7659267" lon="9.30504"><ele>845.5714285714286</ele><time>2026-04-04T13:52:46.6Z</time></trkpt><trkpt lat="44.765895" lon="9.3051333"><ele>841.4285714285714</ele><time>2026-04-04T13:52:47.602Z</time></trkpt><trkpt lat="44.76586" lon="9.3052267"><ele>837.2857142857142</ele><time>2026-04-04T13:52:48.602Z</time></trkpt><trkpt lat="44.7658233" lon="9.3053133"><ele>833.1428571428571</ele><time>2026-04-04T13:52:49.602Z</time></trkpt><trkpt lat="44.7657867" lon="9.3054017"><ele>829.0</ele><time>2026-04-04T13:52:50.602Z</time></trkpt><trkpt lat="44.7657617" lon="9.305485"><ele>828.8333333333333</ele><time>2026-04-04T13:52:51.602Z</time></trkpt><trkpt lat="44.7657567" lon="9.30565"><ele>828.6666666666666</ele><time>2026-04-04T13:52:53.601Z</time></trkpt><trkpt lat="44.7657683" lon="9.3057433"><ele>828.5</ele><time>2026-04-04T13:52:54.601Z</time></trkpt><trkpt lat="44.7657833" lon="9.3058317"><ele>828.3333333333333</ele><time>2026-04-04T13:52:55.602Z</time></trkpt><trkpt lat="44.7658083" lon="9.3059167"><ele>828.1666666666666</ele><time>2026-04-04T13:52:56.603Z</time></trkpt><trkpt lat="44.7658367" lon="9.306"><ele>828.0</ele><time>2026-04-04T13:52:57.602Z</time></trkpt><trkpt lat="44.7658717" lon="9.30609"><ele>828.0000000000001</ele><time>2026-04-04T13:52:58.601Z</time></trkpt><trkpt lat="44.7659083" lon="9.306175"><ele>828.0</ele><time>2026-04-04T13:52:59.601Z</time></trkpt><trkpt lat="44.7659483" lon="9.3062583"><ele>828.0</ele><time>2026-04-04T13:53:00.601Z</time></trkpt><trkpt lat="44.76599" lon="9.306335"><ele>828.0</ele><time>2026-04-04T13:53:01.601Z</time></trkpt><trkpt lat="44.766025" lon="9.3064133"><ele>828.0</ele><time>2026-04-04T13:53:02.601Z</time></trkpt><trkpt lat="44.7660533" lon="9.3064967"><ele>828.0000000000001</ele><time>2026-04-04T13:53:03.602Z</time></trkpt><trkpt lat="44.76608" lon="9.3065817"><ele>828.0</ele><time>2026-04-04T13:53:04.602Z</time></trkpt><trkpt lat="44.7661033" lon="9.3066783"><ele>832.0</ele><time>2026-04-04T13:53:05.602Z</time></trkpt><trkpt lat="44.766125" lon="9.3067617"><ele>836.0</ele><time>2026-04-04T13:53:06.602Z</time></trkpt><trkpt lat="44.7661467" lon="9.3068667"><ele>840.0</ele><time>2026-04-04T13:53:07.602Z</time></trkpt><trkpt lat="44.7661533" lon="9.3069583"><ele>844.0</ele><time>2026-04-04T13:53:08.602Z</time></trkpt><trkpt lat="44.7661233" lon="9.3071067"><ele>848.0</ele><time>2026-04-04T13:53:10.605Z</time></trkpt><trkpt lat="44.7660917" lon="9.3072667"><ele>852.0</ele><time>2026-04-04T13:53:12.602Z</time></trkpt><trkpt lat="44.7660783" lon="9.30736"><ele>851.9999999999999</ele><time>2026-04-04T13:53:13.602Z</time></trkpt><trkpt lat="44.7660567" lon="9.3074567"><ele>852.0</ele><time>2026-04-04T13:53:14.601Z</time></trkpt><trkpt lat="44.76603" lon="9.3075483"><ele>852.0</ele><time>2026-04-04T13:53:15.602Z</time></trkpt><trkpt lat="44.766005" lon="9.30764"><ele>852.0</ele><time>2026-04-04T13:53:16.601Z</time></trkpt><trkpt lat="44.765995" lon="9.30773"><ele>852.0</ele><time>2026-04-04T13:53:17.602Z</time></trkpt><trkpt lat="44.765995" lon="9.3078217"><ele>851.9999999999999</ele><time>2026-04-04T13:53:18.601Z</time></trkpt><trkpt lat="44.7659967" lon="9.3079283"><ele>852.0</ele><time>2026-04-04T13:53:19.602Z</time></trkpt><trkpt lat="44.7659983" lon="9.3080283"><ele>844.6666666666666</ele><time>2026-04-04T13:53:20.602Z</time></trkpt><trkpt lat="44.7659917" lon="9.308125"><ele>837.3333333333333</ele><time>2026-04-04T13:53:21.602Z</time></trkpt><trkpt lat="44.7659833" lon="9.3082133"><ele>830.0</ele><time>2026-04-04T13:53:22.602Z</time></trkpt><trkpt lat="44.765945" lon="9.3083883"><ele>822.6666666666666</ele><time>2026-04-04T13:53:24.601Z</time></trkpt><trkpt lat="44.76592" lon="9.30848"><ele>815.3333333333333</ele><time>2026-04-04T13:53:25.601Z</time></trkpt><trkpt lat="44.7658983" lon="9.3085683"><ele>808.0</ele><time>2026-04-04T13:53:26.601Z</time></trkpt><trkpt lat="44.7658667" lon="9.3086533"><ele>807.9999999999999</ele><time>2026-04-04T13:53:27.6Z</time></trkpt><trkpt lat="44.7658367" lon="9.3087383"><ele>808.0</ele><time>2026-04-04T13:53:28.6Z</time></trkpt><trkpt lat="44.7658133" lon="9.3088333"><ele>808.0</ele><time>2026-04-04T13:53:29.6Z</time></trkpt><trkpt lat="44.765805" lon="9.3089217"><ele>808.0</ele><time>2026-04-04T13:53:30.601Z</time></trkpt><trkpt lat="44.765805" lon="9.3090867"><ele>807.9999999999999</ele><time>2026-04-04T13:53:32.602Z</time></trkpt><trkpt lat="44.7657883" lon="9.30923"><ele>808.0</ele><time>2026-04-04T13:53:34.601Z</time></trkpt><trkpt lat="44.76577" lon="9.3093783"><ele>807.5999999999999</ele><time>2026-04-04T13:53:36.601Z</time></trkpt><trkpt lat="44.76575" lon="9.3095417"><ele>807.1999999999999</ele><time>2026-04-04T13:53:38.602Z</time></trkpt><trkpt lat="44.7657183" lon="9.3097083"><ele>806.8</ele><time>2026-04-04T13:53:40.6Z</time></trkpt><trkpt lat="44.765685" lon="9.309795"><ele>806.4</ele><time>2026-04-04T13:53:41.599Z</time></trkpt><trkpt lat="44.7656533" lon="9.3098867"><ele>806.0</ele><time>2026-04-04T13:53:42.601Z</time></trkpt><trkpt lat="44.7656167" lon="9.3099833"><ele>805.3333333333334</ele><time>2026-04-04T13:53:43.6Z</time></trkpt><trkpt lat="44.7655833" lon="9.3100733"><ele>804.6666666666667</ele><time>2026-04-04T13:53:44.601Z</time></trkpt><trkpt lat="44.76555" lon="9.310165"><ele>804.0</ele><time>2026-04-04T13:53:45.6Z</time></trkpt><trkpt lat="44.7655217" lon="9.31025"><ele>803.3333333333333</ele><time>2026-04-04T13:53:46.601Z</time></trkpt><trkpt lat="44.7654933" lon="9.3103317"><ele>802.6666666666666</ele><time>2026-04-04T13:53:47.601Z</time></trkpt><trkpt lat="44.76545" lon="9.3104933"><ele>802.0</ele><time>2026-04-04T13:53:49.601Z</time></trkpt><trkpt lat="44.7654417" lon="9.310665"><ele>801.8</ele><time>2026-04-04T13:53:51.601Z</time></trkpt><trkpt lat="44.76547" lon="9.3108183"><ele>801.6</ele><time>2026-04-04T13:53:53.601Z</time></trkpt><trkpt lat="44.765525" lon="9.3109533"><ele>801.4</ele><time>2026-04-04T13:53:55.602Z</time></trkpt><trkpt lat="44.765595" lon="9.311085"><ele>801.1999999999999</ele><time>2026-04-04T13:53:57.602Z</time></trkpt><trkpt lat="44.7656283" lon="9.311165"><ele>801.0</ele><time>2026-04-04T13:53:58.601Z</time></trkpt><trkpt lat="44.76566" lon="9.3112433"><ele>801.0</ele><time>2026-04-04T13:53:59.601Z</time></trkpt><trkpt lat="44.76573" lon="9.311385"><ele>801.0</ele><time>2026-04-04T13:54:01.601Z</time></trkpt><trkpt lat="44.76583" lon="9.3114967"><ele>801.0</ele><time>2026-04-04T13:54:03.601Z</time></trkpt><trkpt lat="44.765885" lon="9.311555"><ele>801.0</ele><time>2026-04-04T13:54:04.6Z</time></trkpt><trkpt lat="44.7659333" lon="9.3116217"><ele>801.0</ele><time>2026-04-04T13:54:05.601Z</time></trkpt><trkpt lat="44.7659683" lon="9.3116967"><ele>803.5999999999999</ele><time>2026-04-04T13:54:06.602Z</time></trkpt><trkpt lat="44.7659767" lon="9.31185"><ele>806.2</ele><time>2026-04-04T13:54:08.6Z</time></trkpt><trkpt lat="44.7659517" lon="9.31199"><ele>808.8</ele><time>2026-04-04T13:54:10.601Z</time></trkpt><trkpt lat="44.765955" lon="9.312155"><ele>811.4000000000001</ele><time>2026-04-04T13:54:12.6Z</time></trkpt><trkpt lat="44.7659917" lon="9.3123117"><ele>814.0</ele><time>2026-04-04T13:54:14.602Z</time></trkpt><trkpt lat="44.7660367" lon="9.3124717"><ele>814.0</ele><time>2026-04-04T13:54:16.601Z</time></trkpt><trkpt lat="44.7660883" lon="9.3126183"><ele>814.0</ele><time>2026-04-04T13:54:18.601Z</time></trkpt><trkpt lat="44.76615" lon="9.3127383"><ele>814.0</ele><time>2026-04-04T13:54:20.6Z</time></trkpt><trkpt lat="44.7662017" lon="9.3128683"><ele>814.0</ele><time>2026-04-04T13:54:22.601Z</time></trkpt><trkpt lat="44.7662367" lon="9.3130233"><ele>814.0</ele><time>2026-04-04T13:54:24.6Z</time></trkpt><trkpt lat="44.7662833" lon="9.31313"><ele>806.9999999999999</ele><time>2026-04-04T13:54:26.602Z</time></trkpt><trkpt lat="44.766355" lon="9.313145"><ele>800.0</ele><time>2026-04-04T13:54:28.602Z</time></trkpt><trkpt lat="44.7664517" lon="9.3131567"><ele>793.0</ele><time>2026-04-04T13:54:30.6Z</time></trkpt><trkpt lat="44.7665183" lon="9.3131583"><ele>786.0</ele><time>2026-04-04T13:54:33.601Z</time></trkpt><trkpt lat="44.76661" lon="9.3132117"><ele>778.9999999999999</ele><time>2026-04-04T13:54:36.601Z</time></trkpt><trkpt lat="44.7666983" lon="9.3132633"><ele>772.0</ele><time>2026-04-04T13:54:38.601Z</time></trkpt><trkpt lat="44.7667717" lon="9.313325"><ele>771.9999999999999</ele><time>2026-04-04T13:54:40.601Z</time></trkpt><trkpt lat="44.7668" lon="9.3134417"><ele>772.0</ele><time>2026-04-04T13:54:42.6Z</time></trkpt><trkpt lat="44.7667933" lon="9.31357"><ele>772.0</ele><time>2026-04-04T13:54:44.601Z</time></trkpt><trkpt lat="44.76676" lon="9.31367"><ele>772.0</ele><time>2026-04-04T13:54:46.6Z</time></trkpt><trkpt lat="44.76673" lon="9.3137667"><ele>771.9999999999999</ele><time>2026-04-04T13:54:48.6Z</time></trkpt><trkpt lat="44.7667283" lon="9.3139"><ele>772.0</ele><time>2026-04-04T13:54:50.599Z</time></trkpt><trkpt lat="44.766715" lon="9.3140517"><ele>766.5</ele><time>2026-04-04T13:54:52.601Z</time></trkpt><trkpt lat="44.76669" lon="9.3141983"><ele>761.0</ele><time>2026-04-04T13:54:54.6Z</time></trkpt><trkpt lat="44.7666633" lon="9.31436"><ele>755.5</ele><time>2026-04-04T13:54:56.6Z</time></trkpt><trkpt lat="44.766635" lon="9.3145317"><ele>750.0</ele><time>2026-04-04T13:54:58.6Z</time></trkpt><trkpt lat="44.766625" lon="9.31468"><ele>749.2</ele><time>2026-04-04T13:55:00.599Z</time></trkpt><trkpt lat="44.7666317" lon="9.3148383"><ele>748.4</ele><time>2026-04-04T13:55:02.6Z</time></trkpt><trkpt lat="44.7666517" lon="9.3149883"><ele>747.5999999999999</ele><time>2026-04-04T13:55:04.601Z</time></trkpt><trkpt lat="44.766675" lon="9.3151483"><ele>746.8</ele><time>2026-04-04T13:55:06.6Z</time></trkpt><trkpt lat="44.766695" lon="9.3152933"><ele>746.0</ele><time>2026-04-04T13:55:08.601Z</time></trkpt><trkpt lat="44.7667233" lon="9.315435"><ele>744.1999999999999</ele><time>2026-04-04T13:55:10.6Z</time></trkpt><trkpt lat="44.7667583" lon="9.3155967"><ele>742.4</ele><time>2026-04-04T13:55:12.6Z</time></trkpt><trkpt lat="44.7667683" lon="9.3157517"><ele>740.6</ele><time>2026-04-04T13:55:14.599Z</time></trkpt><trkpt lat="44.766765" lon="9.315905"><ele>738.8</ele><time>2026-04-04T13:55:16.601Z</time></trkpt><trkpt lat="44.7667683" lon="9.316"><ele>737.0</ele><time>2026-04-04T13:55:17.6Z</time></trkpt><trkpt lat="44.7667767" lon="9.316095"><ele>737.0</ele><time>2026-04-04T13:55:18.599Z</time></trkpt><trkpt lat="44.7667833" lon="9.31619"><ele>737.0</ele><time>2026-04-04T13:55:19.601Z</time></trkpt><trkpt lat="44.7668117" lon="9.3163533"><ele>737.0</ele><time>2026-04-04T13:55:21.6Z</time></trkpt><trkpt lat="44.7668283" lon="9.31651"><ele>737.0</ele><time>2026-04-04T13:55:23.6Z</time></trkpt><trkpt lat="44.76684" lon="9.316675"><ele>737.0</ele><time>2026-04-04T13:55:25.6Z</time></trkpt><trkpt lat="44.7668267" lon="9.3167983"><ele>734.8333333333333</ele><time>2026-04-04T13:55:27.6Z</time></trkpt><trkpt lat="44.7668183" lon="9.3169183"><ele>732.6666666666666</ele><time>2026-04-04T13:55:29.6Z</time></trkpt><trkpt lat="44.7668533" lon="9.3170017"><ele>730.5</ele><time>2026-04-04T13:55:31.6Z</time></trkpt><trkpt lat="44.76691" lon="9.317075"><ele>728.3333333333334</ele><time>2026-04-04T13:55:33.6Z</time></trkpt><trkpt lat="44.766975" lon="9.31714"><ele>726.1666666666667</ele><time>2026-04-04T13:55:35.6Z</time></trkpt><trkpt lat="44.7670383" lon="9.3172183"><ele>724.0</ele><time>2026-04-04T13:55:37.599Z</time></trkpt><trkpt lat="44.767085" lon="9.3173033"><ele>730.6666666666667</ele><time>2026-04-04T13:55:39.6Z</time></trkpt><trkpt lat="44.7671317" lon="9.3173867"><ele>737.3333333333334</ele><time>2026-04-04T13:55:41.6Z</time></trkpt><trkpt lat="44.767175" lon="9.317495"><ele>744.0</ele><time>2026-04-04T13:55:43.601Z</time></trkpt><trkpt lat="44.7671817" lon="9.3176183"><ele>750.6666666666666</ele><time>2026-04-04T13:55:45.6Z</time></trkpt><trkpt lat="44.7671733" lon="9.317745"><ele>757.3333333333333</ele><time>2026-04-04T13:55:47.599Z</time></trkpt><trkpt lat="44.7671667" lon="9.317895"><ele>764.0</ele><time>2026-04-04T13:55:49.6Z</time></trkpt><trkpt lat="44.767155" lon="9.3179867"><ele>762.1666666666666</ele><time>2026-04-04T13:55:50.6Z</time></trkpt><trkpt lat="44.7671283" lon="9.3181383"><ele>760.3333333333333</ele><time>2026-04-04T13:55:52.6Z</time></trkpt><trkpt lat="44.7670933" lon="9.3182267"><ele>758.5</ele><time>2026-04-04T13:55:53.601Z</time></trkpt><trkpt lat="44.7670233" lon="9.3183633"><ele>756.6666666666666</ele><time>2026-04-04T13:55:55.6Z</time></trkpt><trkpt lat="44.7669833" lon="9.318435"><ele>754.8333333333334</ele><time>2026-04-04T13:55:56.6Z</time></trkpt><trkpt lat="44.7669367" lon="9.318515"><ele>753.0</ele><time>2026-04-04T13:55:57.6Z</time></trkpt><trkpt lat="44.7669017" lon="9.318595"><ele>744.2</ele><time>2026-04-04T13:55:58.6Z</time></trkpt><trkpt lat="44.7668183" lon="9.3187333"><ele>735.4</ele><time>2026-04-04T13:56:00.599Z</time></trkpt><trkpt lat="44.766775" lon="9.31881"><ele>726.6</ele><time>2026-04-04T13:56:01.601Z</time></trkpt><trkpt lat="44.766725" lon="9.3188867"><ele>717.8000000000001</ele><time>2026-04-04T13:56:02.6Z</time></trkpt><trkpt lat="44.7666783" lon="9.3189633"><ele>709.0</ele><time>2026-04-04T13:56:03.599Z</time></trkpt><trkpt lat="44.766625" lon="9.3191"><ele>709.0</ele><time>2026-04-04T13:56:05.6Z</time></trkpt><trkpt lat="44.766625" lon="9.3192467"><ele>709.0</ele><time>2026-04-04T13:56:07.6Z</time></trkpt><trkpt lat="44.7666167" lon="9.319335"><ele>709.0</ele><time>2026-04-04T13:56:08.599Z</time></trkpt><trkpt lat="44.7665867" lon="9.3195"><ele>709.0</ele><time>2026-04-04T13:56:10.6Z</time></trkpt><trkpt lat="44.7665433" lon="9.3196233"><ele>709.0</ele><time>2026-04-04T13:56:12.6Z</time></trkpt><trkpt lat="44.7665117" lon="9.3197233"><ele>708.8333333333334</ele><time>2026-04-04T13:56:14.601Z</time></trkpt><trkpt lat="44.7665083" lon="9.3198233"><ele>708.6666666666667</ele><time>2026-04-04T13:56:17.6Z</time></trkpt><trkpt lat="44.7665467" lon="9.3199283"><ele>708.5</ele><time>2026-04-04T13:56:33.6Z</time></trkpt><trkpt lat="44.7665733" lon="9.3200383"><ele>708.3333333333334</ele><time>2026-04-04T13:56:35.6Z</time></trkpt><trkpt lat="44.76661" lon="9.320145"><ele>708.1666666666666</ele><time>2026-04-04T13:56:37.6Z</time></trkpt><trkpt lat="44.76666" lon="9.3202633"><ele>708.0</ele><time>2026-04-04T13:56:39.599Z</time></trkpt><trkpt lat="44.7666867" lon="9.3203467"><ele>708.0</ele><time>2026-04-04T13:56:40.599Z</time></trkpt><trkpt lat="44.7667333" lon="9.3205017"><ele>708.0</ele><time>2026-04-04T13:56:42.6Z</time></trkpt><trkpt lat="44.7667583" lon="9.3205867"><ele>708.0</ele><time>2026-04-04T13:56:43.6Z</time></trkpt><trkpt lat="44.766785" lon="9.3206767"><ele>708.0</ele><time>2026-04-04T13:56:44.601Z</time></trkpt><trkpt lat="44.7668067" lon="9.3207733"><ele>708.0</ele><time>2026-04-04T13:56:45.599Z</time></trkpt><trkpt lat="44.7668217" lon="9.3208733"><ele>708.0</ele><time>2026-04-04T13:56:46.6Z</time></trkpt><trkpt lat="44.76684" lon="9.3209583"><ele>704.0</ele><time>2026-04-04T13:56:47.601Z</time></trkpt><trkpt lat="44.76686" lon="9.3211117"><ele>700.0</ele><time>2026-04-04T13:56:49.6Z</time></trkpt><trkpt lat="44.7668583" lon="9.321265"><ele>696.0</ele><time>2026-04-04T13:56:51.602Z</time></trkpt><trkpt lat="44.7668483" lon="9.3214083"><ele>692.0</ele><time>2026-04-04T13:56:53.601Z</time></trkpt><trkpt lat="44.766835" lon="9.3215417"><ele>688.0</ele><time>2026-04-04T13:56:55.601Z</time></trkpt><trkpt lat="44.76682" lon="9.321645"><ele>687.8</ele><time>2026-04-04T13:56:57.601Z</time></trkpt><trkpt lat="44.766815" lon="9.32174"><ele>687.5999999999999</ele><time>2026-04-04T13:56:59.601Z</time></trkpt><trkpt lat="44.7668033" lon="9.3218517"><ele>687.4000000000001</ele><time>2026-04-04T13:57:02.601Z</time></trkpt><trkpt lat="44.7667533" lon="9.321955"><ele>687.2</ele><time>2026-04-04T13:58:39.6Z</time></trkpt><trkpt lat="44.7667483" lon="9.3221417"><ele>687.0</ele><time>2026-04-04T13:59:19.6Z</time></trkpt><trkpt lat="44.7667317" lon="9.3222533"><ele>688.3333333333334</ele><time>2026-04-04T13:59:22.601Z</time></trkpt><trkpt lat="44.7667" lon="9.32236"><ele>689.6666666666666</ele><time>2026-04-04T13:59:26.601Z</time></trkpt><trkpt lat="44.766675" lon="9.3224633"><ele>691.0</ele><time>2026-04-04T13:59:29.601Z</time></trkpt><trkpt lat="44.766655" lon="9.322555"><ele>692.3333333333333</ele><time>2026-04-04T13:59:31.6Z</time></trkpt><trkpt lat="44.7666117" lon="9.32265"><ele>693.6666666666666</ele><time>2026-04-04T13:59:33.6Z</time></trkpt><trkpt lat="44.766565" lon="9.322765"><ele>695.0</ele><time>2026-04-04T13:59:35.6Z</time></trkpt><trkpt lat="44.7665467" lon="9.32289"><ele>695.0</ele><time>2026-04-04T13:59:37.6Z</time></trkpt><trkpt lat="44.7665433" lon="9.3230133"><ele>695.0</ele><time>2026-04-04T13:59:39.601Z</time></trkpt><trkpt lat="44.7665283" lon="9.323145"><ele>695.0</ele><time>2026-04-04T13:59:41.601Z</time></trkpt><trkpt lat="44.7665" lon="9.3232717"><ele>695.0</ele><time>2026-04-04T13:59:43.6Z</time></trkpt><trkpt lat="44.766455" lon="9.3233833"><ele>695.0</ele><time>2026-04-04T13:59:45.601Z</time></trkpt><trkpt lat="44.7664067" lon="9.3234817"><ele>696.1666666666666</ele><time>2026-04-04T13:59:47.6Z</time></trkpt><trkpt lat="44.7663833" lon="9.3235717"><ele>697.3333333333333</ele><time>2026-04-04T13:59:50.602Z</time></trkpt><trkpt lat="44.7664" lon="9.3236867"><ele>698.5</ele><time>2026-04-04T13:59:54.601Z</time></trkpt><trkpt lat="44.76643" lon="9.3237883"><ele>699.6666666666666</ele><time>2026-04-04T13:59:56.6Z</time></trkpt><trkpt lat="44.7664617" lon="9.3238883"><ele>700.8333333333334</ele><time>2026-04-04T13:59:58.601Z</time></trkpt><trkpt lat="44.7664967" lon="9.3240083"><ele>702.0</ele><time>2026-04-04T14:00:00.6Z</time></trkpt><trkpt lat="44.7665267" lon="9.3241367"><ele>702.0</ele><time>2026-04-04T14:00:02.6Z</time></trkpt><trkpt lat="44.766545" lon="9.324255"><ele>702.0</ele><time>2026-04-04T14:00:04.6Z</time></trkpt><trkpt lat="44.766555" lon="9.3243817"><ele>702.0</ele><time>2026-04-04T14:00:06.6Z</time></trkpt><trkpt lat="44.766555" lon="9.324475"><ele>702.0</ele><time>2026-04-04T14:00:08.602Z</time></trkpt><trkpt lat="44.7665683" lon="9.324565"><ele>702.0</ele><time>2026-04-04T14:00:11.6Z</time></trkpt><trkpt lat="44.7665917" lon="9.3246783"><ele>702.0</ele><time>2026-04-04T14:00:15.601Z</time></trkpt><trkpt lat="44.766615" lon="9.3248067"><ele>697.3333333333334</ele><time>2026-04-04T14:00:18.6Z</time></trkpt><trkpt lat="44.766635" lon="9.3249267"><ele>692.6666666666666</ele><time>2026-04-04T14:00:20.601Z</time></trkpt><trkpt lat="44.7666417" lon="9.325025"><ele>688.0</ele><time>2026-04-04T14:00:22.6Z</time></trkpt><trkpt lat="44.7666583" lon="9.32514"><ele>683.3333333333333</ele><time>2026-04-04T14:00:25.601Z</time></trkpt><trkpt lat="44.7666517" lon="9.3252367"><ele>678.6666666666666</ele><time>2026-04-04T14:00:28.601Z</time></trkpt><trkpt lat="44.76667" lon="9.3253283"><ele>674.0</ele><time>2026-04-04T14:00:31.601Z</time></trkpt><trkpt lat="44.7666783" lon="9.325435"><ele>674.0</ele><time>2026-04-04T14:00:34.601Z</time></trkpt><trkpt lat="44.7666467" lon="9.32552"><ele>674.0</ele><time>2026-04-04T14:00:36.601Z</time></trkpt><trkpt lat="44.7665917" lon="9.3256167"><ele>674.0</ele><time>2026-04-04T14:00:38.601Z</time></trkpt><trkpt lat="44.7665333" lon="9.3256967"><ele>674.0</ele><time>2026-04-04T14:00:40.6Z</time></trkpt><trkpt lat="44.7664867" lon="9.3257933"><ele>674.0</ele><time>2026-04-04T14:00:42.6Z</time></trkpt><trkpt lat="44.7664267" lon="9.3258517"><ele>674.0</ele><time>2026-04-04T14:00:44.602Z</time></trkpt><trkpt lat="44.766355" lon="9.3258067"><ele>670.7142857142858</ele><time>2026-04-04T14:00:47.601Z</time></trkpt><trkpt lat="44.76634" lon="9.3258983"><ele>667.4285714285714</ele><time>2026-04-04T14:00:55.601Z</time></trkpt><trkpt lat="44.7662867" lon="9.32595"><ele>664.1428571428571</ele><time>2026-04-04T14:01:02.602Z</time></trkpt><trkpt lat="44.7662033" lon="9.325935"><ele>660.8571428571429</ele><time>2026-04-04T14:01:05.601Z</time></trkpt><trkpt lat="44.766145" lon="9.32589"><ele>657.5714285714286</ele><time>2026-04-04T14:01:08.601Z</time></trkpt><trkpt lat="44.7661517" lon="9.3259967"><ele>654.2857142857143</ele><time>2026-04-04T14:01:13.601Z</time></trkpt><trkpt lat="44.76621" lon="9.32609"><ele>651.0</ele><time>2026-04-04T14:01:16.602Z</time></trkpt><trkpt lat="44.7662267" lon="9.3261883"><ele>651.0</ele><time>2026-04-04T14:01:18.599Z</time></trkpt><trkpt lat="44.7662533" lon="9.326305"><ele>651.0</ele><time>2026-04-04T14:01:20.602Z</time></trkpt><trkpt lat="44.7662967" lon="9.3264167"><ele>651.0</ele><time>2026-04-04T14:01:22.601Z</time></trkpt><trkpt lat="44.766345" lon="9.3265183"><ele>651.0</ele><time>2026-04-04T14:01:24.6Z</time></trkpt><trkpt lat="44.7664083" lon="9.3265917"><ele>651.0</ele><time>2026-04-04T14:01:26.601Z</time></trkpt><trkpt lat="44.766445" lon="9.3266983"><ele>651.0</ele><time>2026-04-04T14:01:34.601Z</time></trkpt><trkpt lat="44.76639" lon="9.3267483"><ele>645.3333333333334</ele><time>2026-04-04T14:01:37.601Z</time></trkpt><trkpt lat="44.7662983" lon="9.3267933"><ele>639.6666666666666</ele><time>2026-04-04T14:04:08.6Z</time></trkpt><trkpt lat="44.766335" lon="9.32688"><ele>634.0</ele><time>2026-04-04T14:04:23.601Z</time></trkpt><trkpt lat="44.7663883" lon="9.32694"><ele>628.3333333333333</ele><time>2026-04-04T14:04:27.601Z</time></trkpt><trkpt lat="44.7665017" lon="9.3269367"><ele>622.6666666666666</ele><time>2026-04-04T14:05:04.6Z</time></trkpt><trkpt lat="44.7664783" lon="9.327065"><ele>617.0</ele><time>2026-04-04T14:05:52.601Z</time></trkpt><trkpt lat="44.7664167" lon="9.3271183"><ele>617.0</ele><time>2026-04-04T14:05:56.601Z</time></trkpt><trkpt lat="44.7663533" lon="9.3271567"><ele>617.0</ele><time>2026-04-04T14:06:00.601Z</time></trkpt><trkpt lat="44.7662833" lon="9.32719"><ele>617.0</ele><time>2026-04-04T14:06:03.6Z</time></trkpt><trkpt lat="44.76622" lon="9.3271783"><ele>617.0</ele><time>2026-04-04T14:06:06.6Z</time></trkpt><trkpt lat="44.7661317" lon="9.3273433"><ele>617.0</ele><time>2026-04-04T14:06:34.599Z</time></trkpt><trkpt lat="44.7660783" lon="9.3274317"><ele>617.0</ele><time>2026-04-04T14:06:37.602Z</time></trkpt><trkpt lat="44.766025" lon="9.3274967"><ele>607.8571428571429</ele><time>2026-04-04T14:06:41.601Z</time></trkpt><trkpt lat="44.7659683" lon="9.3275467"><ele>598.7142857142857</ele><time>2026-04-04T14:06:44.602Z</time></trkpt><trkpt lat="44.7659033" lon="9.3275967"><ele>589.5714285714286</ele><time>2026-04-04T14:06:47.599Z</time></trkpt><trkpt lat="44.7658433" lon="9.327635"><ele>580.4285714285714</ele><time>2026-04-04T14:06:49.601Z</time></trkpt><trkpt lat="44.7657817" lon="9.3276733"><ele>571.2857142857142</ele><time>2026-04-04T14:06:52.601Z</time></trkpt><trkpt lat="44.765745" lon="9.32758"><ele>562.1428571428571</ele><time>2026-04-04T14:06:57.601Z</time></trkpt><trkpt lat="44.7657483" lon="9.3274867"><ele>553.0</ele><time>2026-04-04T14:07:00.603Z</time></trkpt><trkpt lat="44.7657667" lon="9.3274017"><ele>553.0</ele><time>2026-04-04T14:07:03.601Z</time></trkpt><trkpt lat="44.765705" lon="9.3273633"><ele>553.0</ele><time>2026-04-04T14:07:11.602Z</time></trkpt><trkpt lat="44.7656467" lon="9.3274"><ele>553.0</ele><time>2026-04-04T14:07:14.601Z</time></trkpt><trkpt lat="44.765575" lon="9.3274717"><ele>553.0</ele><time>2026-04-04T14:07:18.602Z</time></trkpt><trkpt lat="44.7655233" lon="9.327565"><ele>553.0</ele><time>2026-04-04T14:07:21.601Z</time></trkpt><trkpt lat="44.76545" lon="9.3276367"><ele>553.0</ele><time>2026-04-04T14:07:24.601Z</time></trkpt><trkpt lat="44.765375" lon="9.3277233"><ele>553.0</ele><time>2026-04-04T14:07:27.601Z</time></trkpt><trkpt lat="44.7653267" lon="9.3277817"><ele>553.0</ele><time>2026-04-04T14:07:29.601Z</time></trkpt><trkpt lat="44.7652917" lon="9.327885"><ele>553.0</ele><time>2026-04-04T14:07:32.602Z</time></trkpt><trkpt lat="44.7653117" lon="9.328005"><ele>553.0</ele><time>2026-04-04T14:07:35.602Z</time></trkpt><trkpt lat="44.76534" lon="9.3281067"><ele>553.0</ele><time>2026-04-04T14:07:38.601Z</time></trkpt><trkpt lat="44.7653433" lon="9.328225"><ele>553.0</ele><time>2026-04-04T14:07:41.601Z</time></trkpt><trkpt lat="44.7653733" lon="9.3283283"><ele>550.5</ele><time>2026-04-04T14:07:44.601Z</time></trkpt><trkpt lat="44.7654467" lon="9.32841"><ele>548.0</ele><time>2026-04-04T14:07:47.602Z</time></trkpt><trkpt lat="44.7654817" lon="9.32849"><ele>545.5</ele><time>2026-04-04T14:07:49.601Z</time></trkpt><trkpt lat="44.7655" lon="9.3286217"><ele>543.0</ele><time>2026-04-04T14:08:48.6Z</time></trkpt><trkpt lat="44.7655767" lon="9.328675"><ele>540.5</ele><time>2026-04-04T14:08:50.6Z</time></trkpt><trkpt lat="44.7656317" lon="9.3287433"><ele>538.0</ele><time>2026-04-04T14:08:52.6Z</time></trkpt><trkpt lat="44.7656833" lon="9.328855"><ele>536.3333333333334</ele><time>2026-04-04T14:08:55.6Z</time></trkpt><trkpt lat="44.7657033" lon="9.328945"><ele>534.6666666666667</ele><time>2026-04-04T14:08:57.601Z</time></trkpt><trkpt lat="44.765735" lon="9.3290267"><ele>533.0</ele><time>2026-04-04T14:08:59.601Z</time></trkpt><trkpt lat="44.7657533" lon="9.329115"><ele>531.3333333333334</ele><time>2026-04-04T14:09:01.601Z</time></trkpt><trkpt lat="44.7657317" lon="9.32922"><ele>529.6666666666666</ele><time>2026-04-04T14:09:03.6Z</time></trkpt><trkpt lat="44.765705" lon="9.3293333"><ele>528.0</ele><time>2026-04-04T14:09:05.602Z</time></trkpt><trkpt lat="44.7657783" lon="9.3294133"><ele>528.0</ele><time>2026-04-04T14:09:08.601Z</time></trkpt><trkpt lat="44.7658633" lon="9.3294733"><ele>528.0</ele><time>2026-04-04T14:09:10.601Z</time></trkpt><trkpt lat="44.7658983" lon="9.3295517"><ele>528.0</ele><time>2026-04-04T14:09:12.6Z</time></trkpt><trkpt lat="44.7658633" lon="9.3296583"><ele>528.0</ele><time>2026-04-04T14:09:14.602Z</time></trkpt><trkpt lat="44.76581" lon="9.3297483"><ele>528.0</ele><time>2026-04-04T14:09:16.6Z</time></trkpt><trkpt lat="44.7657717" lon="9.3298283"><ele>528.0</ele><time>2026-04-04T14:09:18.6Z</time></trkpt><trkpt lat="44.76578" lon="9.3299417"><ele>525.1666666666666</ele><time>2026-04-04T14:09:20.602Z</time></trkpt><trkpt lat="44.765835" lon="9.3300167"><ele>522.3333333333334</ele><time>2026-04-04T14:09:22.6Z</time></trkpt><trkpt lat="44.7659033" lon="9.3300433"><ele>519.5</ele><time>2026-04-04T14:09:24.6Z</time></trkpt><trkpt lat="44.7659817" lon="9.3300367"><ele>516.6666666666667</ele><time>2026-04-04T14:09:26.6Z</time></trkpt><trkpt lat="44.76605" lon="9.3300717"><ele>513.8333333333334</ele><time>2026-04-04T14:09:28.601Z</time></trkpt><trkpt lat="44.766125" lon="9.3301833"><ele>511.0</ele><time>2026-04-04T14:09:30.6Z</time></trkpt><trkpt lat="44.766175" lon="9.3302617"><ele>512.6666666666667</ele><time>2026-04-04T14:09:31.602Z</time></trkpt><trkpt lat="44.7662283" lon="9.3303433"><ele>514.3333333333334</ele><time>2026-04-04T14:09:32.6Z</time></trkpt><trkpt lat="44.7662867" lon="9.3304283"><ele>516.0</ele><time>2026-04-04T14:09:33.601Z</time></trkpt><trkpt lat="44.766345" lon="9.33051"><ele>517.6666666666666</ele><time>2026-04-04T14:09:34.601Z</time></trkpt><trkpt lat="44.7664" lon="9.3305967"><ele>519.3333333333333</ele><time>2026-04-04T14:09:35.601Z</time></trkpt><trkpt lat="44.7664567" lon="9.330675"><ele>521.0</ele><time>2026-04-04T14:09:36.6Z</time></trkpt><trkpt lat="44.7665067" lon="9.3307417"><ele>521.0</ele><time>2026-04-04T14:09:37.601Z</time></trkpt><trkpt lat="44.7665617" lon="9.33086"><ele>521.0</ele><time>2026-04-04T14:09:39.601Z</time></trkpt><trkpt lat="44.7665367" lon="9.3310033"><ele>521.0</ele><time>2026-04-04T14:09:47.602Z</time></trkpt><trkpt lat="44.7665317" lon="9.3311033"><ele>521.0</ele><time>2026-04-04T14:09:50.601Z</time></trkpt><trkpt lat="44.7665867" lon="9.33115"><ele>521.0</ele><time>2026-04-04T14:09:52.601Z</time></trkpt><trkpt lat="44.7666217" lon="9.3312367"><ele>521.0</ele><time>2026-04-04T14:09:55.602Z</time></trkpt><trkpt lat="44.76657" lon="9.3313283"><ele>517.3333333333333</ele><time>2026-04-04T14:09:58.6Z</time></trkpt><trkpt lat="44.7665317" lon="9.3314117"><ele>513.6666666666666</ele><time>2026-04-04T14:10:00.601Z</time></trkpt><trkpt lat="44.7665267" lon="9.3315167"><ele>510.0</ele><time>2026-04-04T14:10:03.601Z</time></trkpt><trkpt lat="44.766535" lon="9.331615"><ele>506.33333333333337</ele><time>2026-04-04T14:10:05.6Z</time></trkpt><trkpt lat="44.7665483" lon="9.3317317"><ele>502.6666666666667</ele><time>2026-04-04T14:10:08.601Z</time></trkpt><trkpt lat="44.766525" lon="9.331885"><ele>499.0</ele><time>2026-04-04T14:10:30.601Z</time></trkpt><trkpt lat="44.7666067" lon="9.3320417"><ele>499.0</ele><time>2026-04-04T14:11:34.6Z</time></trkpt><trkpt lat="44.7666483" lon="9.3321183"><ele>499.0</ele><time>2026-04-04T14:11:37.601Z</time></trkpt><trkpt lat="44.766595" lon="9.3320433"><ele>499.0</ele><time>2026-04-04T14:12:10.6Z</time></trkpt><trkpt lat="44.76651" lon="9.3318683"><ele>499.0</ele><time>2026-04-04T14:12:45.6Z</time></trkpt><trkpt lat="44.7665283" lon="9.33176"><ele>499.0</ele><time>2026-04-04T14:12:50.601Z</time></trkpt><trkpt lat="44.76652" lon="9.331625"><ele>499.00000000000006</ele><time>2026-04-04T14:12:53.601Z</time></trkpt><trkpt lat="44.76651" lon="9.3315117"><ele>499.0</ele><time>2026-04-04T14:12:55.602Z</time></trkpt><trkpt lat="44.7665283" lon="9.33138"><ele>499.0</ele><time>2026-04-04T14:12:58.6Z</time></trkpt><trkpt lat="44.7665667" lon="9.3313067"><ele>499.0</ele><time>2026-04-04T14:13:00.6Z</time></trkpt><trkpt lat="44.7665967" lon="9.3312167"><ele>499.00000000000006</ele><time>2026-04-04T14:13:03.602Z</time></trkpt><trkpt lat="44.7665283" lon="9.3311333"><ele>499.0</ele><time>2026-04-04T14:13:06.601Z</time></trkpt><trkpt lat="44.7665333" lon="9.3310367"><ele>499.0</ele><time>2026-04-04T14:13:09.601Z</time></trkpt><trkpt lat="44.7665983" lon="9.3310817"><ele>499.0</ele><time>2026-04-04T14:13:12.602Z</time></trkpt><trkpt lat="44.7666717" lon="9.331215"><ele>499.0</ele><time>2026-04-04T14:13:14.602Z</time></trkpt><trkpt lat="44.7667583" lon="9.33131"><ele>499.0</ele><time>2026-04-04T14:13:16.6Z</time></trkpt><trkpt lat="44.76685" lon="9.3313967"><ele>499.0</ele><time>2026-04-04T14:13:18.601Z</time></trkpt><trkpt lat="44.76689" lon="9.3314667"><ele>505.1666666666667</ele><time>2026-04-04T14:13:19.603Z</time></trkpt><trkpt lat="44.7669383" lon="9.33154"><ele>511.33333333333337</ele><time>2026-04-04T14:13:20.602Z</time></trkpt><trkpt lat="44.76699" lon="9.331625"><ele>517.5</ele><time>2026-04-04T14:13:21.602Z</time></trkpt><trkpt lat="44.767035" lon="9.3317083"><ele>523.6666666666666</ele><time>2026-04-04T14:13:22.601Z</time></trkpt><trkpt lat="44.7670717" lon="9.33179"><ele>529.8333333333333</ele><time>2026-04-04T14:13:23.603Z</time></trkpt><trkpt lat="44.7671067" lon="9.3319483"><ele>536.0</ele><time>2026-04-04T14:13:25.602Z</time></trkpt><trkpt lat="44.7671283" lon="9.33213"><ele>532.1666666666666</ele><time>2026-04-04T14:13:27.601Z</time></trkpt><trkpt lat="44.76713" lon="9.3322367"><ele>528.3333333333333</ele><time>2026-04-04T14:13:28.602Z</time></trkpt><trkpt lat="44.7671283" lon="9.3323367"><ele>524.5</ele><time>2026-04-04T14:13:29.604Z</time></trkpt><trkpt lat="44.7671417" lon="9.33243"><ele>520.6666666666666</ele><time>2026-04-04T14:13:30.601Z</time></trkpt><trkpt lat="44.767155" lon="9.33252"><ele>516.8333333333334</ele><time>2026-04-04T14:13:31.601Z</time></trkpt><trkpt lat="44.7671667" lon="9.3326817"><ele>513.0</ele><time>2026-04-04T14:13:33.601Z</time></trkpt><trkpt lat="44.7671967" lon="9.3327883"><ele>513.0</ele><time>2026-04-04T14:13:35.602Z</time></trkpt><trkpt lat="44.7672833" lon="9.3328533"><ele>513.0</ele><time>2026-04-04T14:13:37.6Z</time></trkpt><trkpt lat="44.767365" lon="9.3329433"><ele>513.0</ele><time>2026-04-04T14:13:39.6Z</time></trkpt><trkpt lat="44.7674233" lon="9.3331033"><ele>513.0</ele><time>2026-04-04T14:13:41.601Z</time></trkpt><trkpt lat="44.7674533" lon="9.3331883"><ele>513.0</ele><time>2026-04-04T14:13:42.6Z</time></trkpt><trkpt lat="44.7674883" lon="9.3332733"><ele>510.1666666666667</ele><time>2026-04-04T14:13:43.599Z</time></trkpt><trkpt lat="44.7675233" lon="9.3333583"><ele>507.33333333333337</ele><time>2026-04-04T14:13:44.601Z</time></trkpt><trkpt lat="44.7675417" lon="9.333445"><ele>504.5</ele><time>2026-04-04T14:13:45.6Z</time></trkpt><trkpt lat="44.7675533" lon="9.3335367"><ele>501.6666666666667</ele><time>2026-04-04T14:13:46.601Z</time></trkpt><trkpt lat="44.7675683" lon="9.333645"><ele>498.83333333333337</ele><time>2026-04-04T14:13:47.601Z</time></trkpt><trkpt lat="44.7675733" lon="9.333765"><ele>496.0</ele><time>2026-04-04T14:13:48.601Z</time></trkpt><trkpt lat="44.7675633" lon="9.3338933"><ele>494.33333333333337</ele><time>2026-04-04T14:13:49.601Z</time></trkpt><trkpt lat="44.7675583" lon="9.3340167"><ele>492.6666666666667</ele><time>2026-04-04T14:13:50.601Z</time></trkpt><trkpt lat="44.7675533" lon="9.3341333"><ele>491.0</ele><time>2026-04-04T14:13:51.6Z</time></trkpt><trkpt lat="44.76756" lon="9.334245"><ele>489.33333333333337</ele><time>2026-04-04T14:13:52.602Z</time></trkpt><trkpt lat="44.7675767" lon="9.3343417"><ele>487.6666666666667</ele><time>2026-04-04T14:13:53.601Z</time></trkpt><trkpt lat="44.76759" lon="9.33443"><ele>486.0</ele><time>2026-04-04T14:13:54.601Z</time></trkpt><trkpt lat="44.767575" lon="9.3346017"><ele>486.0</ele><time>2026-04-04T14:13:56.6Z</time></trkpt><trkpt lat="44.76756" lon="9.334695"><ele>486.0</ele><time>2026-04-04T14:13:57.6Z</time></trkpt><trkpt lat="44.7675533" lon="9.3347933"><ele>486.0</ele><time>2026-04-04T14:13:58.602Z</time></trkpt><trkpt lat="44.767555" lon="9.3348867"><ele>486.0</ele><time>2026-04-04T14:13:59.599Z</time></trkpt><trkpt lat="44.7675517" lon="9.3349967"><ele>486.0</ele><time>2026-04-04T14:14:01.6Z</time></trkpt><trkpt lat="44.7674733" lon="9.33503"><ele>486.0</ele><time>2026-04-04T14:14:05.599Z</time></trkpt><trkpt lat="44.7674017" lon="9.335"><ele>486.0</ele><time>2026-04-04T14:14:09.601Z</time></trkpt><trkpt lat="44.7673433" lon="9.3350417"><ele>485.8333333333333</ele><time>2026-04-04T14:14:13.6Z</time></trkpt><trkpt lat="44.767285" lon="9.3351167"><ele>485.66666666666663</ele><time>2026-04-04T14:14:16.601Z</time></trkpt><trkpt lat="44.767275" lon="9.3352083"><ele>485.5</ele><time>2026-04-04T14:14:18.6Z</time></trkpt><trkpt lat="44.767255" lon="9.3353267"><ele>485.3333333333333</ele><time>2026-04-04T14:14:20.599Z</time></trkpt><trkpt lat="44.7672433" lon="9.33542"><ele>485.16666666666663</ele><time>2026-04-04T14:14:21.6Z</time></trkpt><trkpt lat="44.76724" lon="9.3355417"><ele>485.0</ele><time>2026-04-04T14:14:22.601Z</time></trkpt><trkpt lat="44.7672317" lon="9.3356733"><ele>484.3333333333333</ele><time>2026-04-04T14:14:23.599Z</time></trkpt><trkpt lat="44.767215" lon="9.335805"><ele>483.66666666666663</ele><time>2026-04-04T14:14:24.6Z</time></trkpt><trkpt lat="44.7672033" lon="9.33593"><ele>483.0</ele><time>2026-04-04T14:14:25.601Z</time></trkpt><trkpt lat="44.7671983" lon="9.3360433"><ele>482.33333333333337</ele><time>2026-04-04T14:14:26.602Z</time></trkpt><trkpt lat="44.767205" lon="9.3361467"><ele>481.6666666666667</ele><time>2026-04-04T14:14:27.601Z</time></trkpt><trkpt lat="44.7672283" lon="9.3362917"><ele>481.0</ele><time>2026-04-04T14:14:29.6Z</time></trkpt><trkpt lat="44.767275" lon="9.3363767"><ele>479.8571428571428</ele><time>2026-04-04T14:15:01.6Z</time></trkpt><trkpt lat="44.7673067" lon="9.3364683"><ele>478.71428571428567</ele><time>2026-04-04T14:15:06.6Z</time></trkpt><trkpt lat="44.7672933" lon="9.3365633"><ele>477.57142857142856</ele><time>2026-04-04T14:15:08.6Z</time></trkpt><trkpt lat="44.767275" lon="9.336665"><ele>476.4285714285714</ele><time>2026-04-04T14:15:10.601Z</time></trkpt><trkpt lat="44.767295" lon="9.3367767"><ele>475.2857142857142</ele><time>2026-04-04T14:15:13.599Z</time></trkpt><trkpt lat="44.7673483" lon="9.3368433"><ele>474.14285714285717</ele><time>2026-04-04T14:15:15.599Z</time></trkpt><trkpt lat="44.7673867" lon="9.33693"><ele>473.0</ele><time>2026-04-04T14:15:17.601Z</time></trkpt><trkpt lat="44.7674217" lon="9.33705"><ele>472.99999999999994</ele><time>2026-04-04T14:15:19.603Z</time></trkpt><trkpt lat="44.767455" lon="9.3371567"><ele>473.0</ele><time>2026-04-04T14:15:21.601Z</time></trkpt><trkpt lat="44.7674667" lon="9.3372633"><ele>473.0</ele><time>2026-04-04T14:15:23.602Z</time></trkpt><trkpt lat="44.76749" lon="9.3373717"><ele>473.0</ele><time>2026-04-04T14:15:26.6Z</time></trkpt><trkpt lat="44.7674933" lon="9.3374717"><ele>472.99999999999994</ele><time>2026-04-04T14:15:28.601Z</time></trkpt><trkpt lat="44.7674967" lon="9.3375883"><ele>473.0</ele><time>2026-04-04T14:15:30.602Z</time></trkpt><trkpt lat="44.7675" lon="9.3376933"><ele>472.66666666666663</ele><time>2026-04-04T14:15:32.603Z</time></trkpt><trkpt lat="44.7675617" lon="9.3377833"><ele>472.3333333333333</ele><time>2026-04-04T14:15:35.602Z</time></trkpt><trkpt lat="44.767635" lon="9.3378217"><ele>472.0</ele><time>2026-04-04T14:15:37.602Z</time></trkpt><trkpt lat="44.7676867" lon="9.337885"><ele>471.66666666666663</ele><time>2026-04-04T14:15:51.6Z</time></trkpt><trkpt lat="44.7677317" lon="9.3380433"><ele>471.3333333333333</ele><time>2026-04-04T14:15:53.601Z</time></trkpt><trkpt lat="44.7677567" lon="9.3381317"><ele>471.0</ele><time>2026-04-04T14:15:54.601Z</time></trkpt><trkpt lat="44.7677817" lon="9.3382167"><ele>470.20000000000005</ele><time>2026-04-04T14:15:55.602Z</time></trkpt><trkpt lat="44.7678167" lon="9.3382967"><ele>469.40000000000003</ele><time>2026-04-04T14:15:56.605Z</time></trkpt><trkpt lat="44.7678667" lon="9.338435"><ele>468.6</ele><time>2026-04-04T14:15:58.601Z</time></trkpt><trkpt lat="44.7679233" lon="9.3385617"><ele>467.8</ele><time>2026-04-04T14:16:00.602Z</time></trkpt><trkpt lat="44.76798" lon="9.33869"><ele>467.0</ele><time>2026-04-04T14:16:02.602Z</time></trkpt><trkpt lat="44.7680417" lon="9.3388183"><ele>465.40000000000003</ele><time>2026-04-04T14:16:04.6Z</time></trkpt><trkpt lat="44.7681067" lon="9.33895"><ele>463.80000000000007</ele><time>2026-04-04T14:16:06.601Z</time></trkpt><trkpt lat="44.76817" lon="9.3390733"><ele>462.2</ele><time>2026-04-04T14:16:08.6Z</time></trkpt><trkpt lat="44.7682417" lon="9.3392167"><ele>460.6</ele><time>2026-04-04T14:16:10.601Z</time></trkpt><trkpt lat="44.7682783" lon="9.3392933"><ele>459.0</ele><time>2026-04-04T14:16:11.6Z</time></trkpt><trkpt lat="44.7683183" lon="9.339375"><ele>459.0</ele><time>2026-04-04T14:16:12.599Z</time></trkpt><trkpt lat="44.7683733" lon="9.33946"><ele>459.0</ele><time>2026-04-04T14:16:13.6Z</time></trkpt><trkpt lat="44.7684367" lon="9.3395417"><ele>459.0</ele><time>2026-04-04T14:16:14.601Z</time></trkpt><trkpt lat="44.768505" lon="9.3396233"><ele>459.0</ele><time>2026-04-04T14:16:15.599Z</time></trkpt><trkpt lat="44.7685833" lon="9.339705"><ele>459.0</ele><time>2026-04-04T14:16:16.601Z</time></trkpt><trkpt lat="44.768665" lon="9.3397767"><ele>459.4</ele><time>2026-04-04T14:16:17.6Z</time></trkpt><trkpt lat="44.768745" lon="9.33984"><ele>459.79999999999995</ele><time>2026-04-04T14:16:18.6Z</time></trkpt><trkpt lat="44.7688267" lon="9.3399083"><ele>460.20000000000005</ele><time>2026-04-04T14:16:19.601Z</time></trkpt><trkpt lat="44.7689033" lon="9.339985"><ele>460.6</ele><time>2026-04-04T14:16:20.601Z</time></trkpt><trkpt lat="44.7689733" lon="9.340075"><ele>461.0</ele><time>2026-04-04T14:16:21.601Z</time></trkpt><trkpt lat="44.769035" lon="9.340175"><ele>460.99999999999994</ele><time>2026-04-04T14:16:22.601Z</time></trkpt><trkpt lat="44.7690917" lon="9.3402733"><ele>461.0</ele><time>2026-04-04T14:16:23.601Z</time></trkpt><trkpt lat="44.769145" lon="9.3403683"><ele>461.0</ele><time>2026-04-04T14:16:24.601Z</time></trkpt><trkpt lat="44.7692" lon="9.3404583"><ele>461.0</ele><time>2026-04-04T14:16:25.601Z</time></trkpt><trkpt lat="44.7692567" lon="9.340555"><ele>460.99999999999994</ele><time>2026-04-04T14:16:26.602Z</time></trkpt><trkpt lat="44.7693183" lon="9.340655"><ele>461.0</ele><time>2026-04-04T14:16:27.6Z</time></trkpt><trkpt lat="44.7693717" lon="9.3407583"><ele>462.14285714285717</ele><time>2026-04-04T14:16:28.601Z</time></trkpt><trkpt lat="44.7694367" lon="9.3408483"><ele>463.28571428571433</ele><time>2026-04-04T14:16:29.601Z</time></trkpt><trkpt lat="44.7694933" lon="9.3409183"><ele>464.42857142857144</ele><time>2026-04-04T14:16:30.601Z</time></trkpt><trkpt lat="44.769555" lon="9.340985"><ele>465.57142857142856</ele><time>2026-04-04T14:16:31.601Z</time></trkpt><trkpt lat="44.769605" lon="9.3410517"><ele>466.7142857142857</ele><time>2026-04-04T14:16:32.6Z</time></trkpt><trkpt lat="44.76964" lon="9.3411283"><ele>467.8571428571429</ele><time>2026-04-04T14:16:33.601Z</time></trkpt><trkpt lat="44.76967" lon="9.3412167"><ele>469.0</ele><time>2026-04-04T14:16:34.6Z</time></trkpt><trkpt lat="44.769695" lon="9.3413117"><ele>466.33333333333337</ele><time>2026-04-04T14:16:35.601Z</time></trkpt><trkpt lat="44.7697267" lon="9.34141"><ele>463.6666666666667</ele><time>2026-04-04T14:16:36.601Z</time></trkpt><trkpt lat="44.76977" lon="9.34151"><ele>461.0</ele><time>2026-04-04T14:16:37.601Z</time></trkpt><trkpt lat="44.76982" lon="9.34161"><ele>458.33333333333337</ele><time>2026-04-04T14:16:38.601Z</time></trkpt><trkpt lat="44.7698717" lon="9.3417133"><ele>455.6666666666667</ele><time>2026-04-04T14:16:39.603Z</time></trkpt><trkpt lat="44.7699217" lon="9.341825"><ele>453.0</ele><time>2026-04-04T14:16:40.601Z</time></trkpt><trkpt lat="44.7699717" lon="9.3419333"><ele>453.0</ele><time>2026-04-04T14:16:41.6Z</time></trkpt><trkpt lat="44.770015" lon="9.3420483"><ele>453.0</ele><time>2026-04-04T14:16:42.601Z</time></trkpt><trkpt lat="44.7700433" lon="9.3421633"><ele>453.0</ele><time>2026-04-04T14:16:43.6Z</time></trkpt><trkpt lat="44.770055" lon="9.34227"><ele>453.0</ele><time>2026-04-04T14:16:44.601Z</time></trkpt><trkpt lat="44.770065" lon="9.3423783"><ele>453.0</ele><time>2026-04-04T14:16:45.6Z</time></trkpt><trkpt lat="44.7700833" lon="9.3424883"><ele>453.0</ele><time>2026-04-04T14:16:46.601Z</time></trkpt><trkpt lat="44.77011" lon="9.3426"><ele>452.1666666666667</ele><time>2026-04-04T14:16:47.601Z</time></trkpt><trkpt lat="44.7701333" lon="9.34271"><ele>451.33333333333337</ele><time>2026-04-04T14:16:48.6Z</time></trkpt><trkpt lat="44.77014" lon="9.3428167"><ele>450.5</ele><time>2026-04-04T14:16:49.6Z</time></trkpt><trkpt lat="44.7701383" lon="9.34291"><ele>449.6666666666667</ele><time>2026-04-04T14:16:50.6Z</time></trkpt><trkpt lat="44.7700567" lon="9.343015"><ele>448.83333333333337</ele><time>2026-04-04T14:16:52.601Z</time></trkpt><trkpt lat="44.7699783" lon="9.3430383"><ele>448.0</ele><time>2026-04-04T14:16:53.601Z</time></trkpt><trkpt lat="44.7699" lon="9.3430767"><ele>448.00000000000006</ele><time>2026-04-04T14:16:54.601Z</time></trkpt><trkpt lat="44.7698333" lon="9.3431383"><ele>448.0</ele><time>2026-04-04T14:16:55.601Z</time></trkpt><trkpt lat="44.7697733" lon="9.3432117"><ele>448.0</ele><time>2026-04-04T14:16:56.601Z</time></trkpt><trkpt lat="44.7697167" lon="9.343295"><ele>448.0</ele><time>2026-04-04T14:16:57.601Z</time></trkpt><trkpt lat="44.7696567" lon="9.3433833"><ele>448.00000000000006</ele><time>2026-04-04T14:16:58.601Z</time></trkpt><trkpt lat="44.7695933" lon="9.343475"><ele>448.0</ele><time>2026-04-04T14:16:59.601Z</time></trkpt><trkpt lat="44.769535" lon="9.3435617"><ele>448.0</ele><time>2026-04-04T14:17:00.6Z</time></trkpt><trkpt lat="44.76948" lon="9.3436467"><ele>447.99999999999994</ele><time>2026-04-04T14:17:01.601Z</time></trkpt><trkpt lat="44.7694183" lon="9.3437317"><ele>447.99999999999994</ele><time>2026-04-04T14:17:02.601Z</time></trkpt><trkpt lat="44.7693417" lon="9.3438217"><ele>448.0</ele><time>2026-04-04T14:17:03.6Z</time></trkpt><trkpt lat="44.76926" lon="9.3439233"><ele>448.0</ele><time>2026-04-04T14:17:04.599Z</time></trkpt><trkpt lat="44.7691783" lon="9.3440417"><ele>447.4</ele><time>2026-04-04T14:17:05.6Z</time></trkpt><trkpt lat="44.7691067" lon="9.34417"><ele>446.79999999999995</ele><time>2026-04-04T14:17:06.6Z</time></trkpt><trkpt lat="44.7690483" lon="9.3443083"><ele>446.2</ele><time>2026-04-04T14:17:07.6Z</time></trkpt><trkpt lat="44.7690033" lon="9.3444567"><ele>445.6</ele><time>2026-04-04T14:17:08.601Z</time></trkpt><trkpt lat="44.7689717" lon="9.344595"><ele>445.0</ele><time>2026-04-04T14:17:09.601Z</time></trkpt><trkpt lat="44.7689483" lon="9.3447133"><ele>446.6666666666667</ele><time>2026-04-04T14:17:10.601Z</time></trkpt><trkpt lat="44.768925" lon="9.344815"><ele>448.33333333333337</ele><time>2026-04-04T14:17:11.6Z</time></trkpt><trkpt lat="44.7689017" lon="9.3449017"><ele>450.0</ele><time>2026-04-04T14:17:12.6Z</time></trkpt><trkpt lat="44.7688783" lon="9.3449917"><ele>451.66666666666663</ele><time>2026-04-04T14:17:13.6Z</time></trkpt><trkpt lat="44.768855" lon="9.345095"><ele>453.3333333333333</ele><time>2026-04-04T14:17:14.6Z</time></trkpt><trkpt lat="44.7688333" lon="9.3452083"><ele>455.0</ele><time>2026-04-04T14:17:15.6Z</time></trkpt><trkpt lat="44.76881" lon="9.345325"><ele>455.0</ele><time>2026-04-04T14:17:16.601Z</time></trkpt><trkpt lat="44.7687883" lon="9.34545"><ele>455.0</ele><time>2026-04-04T14:17:17.601Z</time></trkpt><trkpt lat="44.7687633" lon="9.3455817"><ele>455.0</ele><time>2026-04-04T14:17:18.599Z</time></trkpt><trkpt lat="44.7687333" lon="9.345725"><ele>455.0</ele><time>2026-04-04T14:17:19.601Z</time></trkpt><trkpt lat="44.76869" lon="9.3458767"><ele>455.0</ele><time>2026-04-04T14:17:20.601Z</time></trkpt><trkpt lat="44.7686367" lon="9.34603"><ele>455.0</ele><time>2026-04-04T14:17:21.6Z</time></trkpt><trkpt lat="44.7685867" lon="9.3461833"><ele>455.0</ele><time>2026-04-04T14:17:22.601Z</time></trkpt><trkpt lat="44.768535" lon="9.34634"><ele>455.0</ele><time>2026-04-04T14:17:23.6Z</time></trkpt><trkpt lat="44.7684833" lon="9.3464867"><ele>455.0</ele><time>2026-04-04T14:17:24.601Z</time></trkpt><trkpt lat="44.7684367" lon="9.3466267"><ele>451.2</ele><time>2026-04-04T14:17:25.599Z</time></trkpt><trkpt lat="44.7684033" lon="9.3467633"><ele>447.4</ele><time>2026-04-04T14:17:26.601Z</time></trkpt><trkpt lat="44.76839" lon="9.3468983"><ele>443.6</ele><time>2026-04-04T14:17:27.6Z</time></trkpt><trkpt lat="44.7683933" lon="9.3470383"><ele>439.8</ele><time>2026-04-04T14:17:28.601Z</time></trkpt><trkpt lat="44.7684167" lon="9.34719"><ele>436.0</ele><time>2026-04-04T14:17:29.6Z</time></trkpt><trkpt lat="44.7684533" lon="9.3473517"><ele>436.0</ele><time>2026-04-04T14:17:30.6Z</time></trkpt><trkpt lat="44.7684933" lon="9.347525"><ele>436.0</ele><time>2026-04-04T14:17:31.601Z</time></trkpt><trkpt lat="44.7685433" lon="9.3477033"><ele>436.0</ele><time>2026-04-04T14:17:32.601Z</time></trkpt><trkpt lat="44.76859" lon="9.3478717"><ele>436.0</ele><time>2026-04-04T14:17:33.602Z</time></trkpt><trkpt lat="44.768635" lon="9.3480383"><ele>440.5</ele><time>2026-04-04T14:17:34.603Z</time></trkpt><trkpt lat="44.768675" lon="9.348205"><ele>445.0</ele><time>2026-04-04T14:17:35.602Z</time></trkpt><trkpt lat="44.7687067" lon="9.3483717"><ele>449.5</ele><time>2026-04-04T14:17:36.602Z</time></trkpt><trkpt lat="44.7687367" lon="9.3485267"><ele>454.0</ele><time>2026-04-04T14:17:37.602Z</time></trkpt><trkpt lat="44.7687683" lon="9.3486783"><ele>454.0</ele><time>2026-04-04T14:17:38.602Z</time></trkpt><trkpt lat="44.7687967" lon="9.3488183"><ele>454.0</ele><time>2026-04-04T14:17:39.602Z</time></trkpt><trkpt lat="44.768815" lon="9.348945"><ele>454.0</ele><time>2026-04-04T14:17:40.601Z</time></trkpt><trkpt lat="44.7688267" lon="9.3490617"><ele>454.0</ele><time>2026-04-04T14:17:41.602Z</time></trkpt><trkpt lat="44.7688333" lon="9.3491567"><ele>454.0</ele><time>2026-04-04T14:17:42.602Z</time></trkpt><trkpt lat="44.7688683" lon="9.34932"><ele>453.5714285714286</ele><time>2026-04-04T14:17:44.6Z</time></trkpt><trkpt lat="44.7689167" lon="9.3494"><ele>453.1428571428572</ele><time>2026-04-04T14:17:45.6Z</time></trkpt><trkpt lat="44.7689867" lon="9.3494717"><ele>452.7142857142857</ele><time>2026-04-04T14:17:46.6Z</time></trkpt><trkpt lat="44.769055" lon="9.3495317"><ele>452.28571428571433</ele><time>2026-04-04T14:17:47.601Z</time></trkpt><trkpt lat="44.769115" lon="9.3495933"><ele>451.8571428571429</ele><time>2026-04-04T14:17:48.6Z</time></trkpt><trkpt lat="44.7691533" lon="9.3496667"><ele>451.42857142857144</ele><time>2026-04-04T14:17:49.603Z</time></trkpt><trkpt lat="44.7691683" lon="9.349755"><ele>451.0</ele><time>2026-04-04T14:17:50.601Z</time></trkpt><trkpt lat="44.7691733" lon="9.34986"><ele>449.20000000000005</ele><time>2026-04-04T14:17:51.601Z</time></trkpt><trkpt lat="44.7691733" lon="9.3499783"><ele>447.40000000000003</ele><time>2026-04-04T14:17:52.601Z</time></trkpt><trkpt lat="44.7691867" lon="9.350105"><ele>445.6</ele><time>2026-04-04T14:17:53.602Z</time></trkpt><trkpt lat="44.7692083" lon="9.350245"><ele>443.8</ele><time>2026-04-04T14:17:54.6Z</time></trkpt><trkpt lat="44.76923" lon="9.35039"><ele>442.0</ele><time>2026-04-04T14:17:55.6Z</time></trkpt><trkpt lat="44.7692467" lon="9.3505333"><ele>440.6</ele><time>2026-04-04T14:17:56.6Z</time></trkpt><trkpt lat="44.76926" lon="9.3506817"><ele>439.20000000000005</ele><time>2026-04-04T14:17:57.6Z</time></trkpt><trkpt lat="44.769275" lon="9.3508317"><ele>437.8</ele><time>2026-04-04T14:17:58.601Z</time></trkpt><trkpt lat="44.7692867" lon="9.350975"><ele>436.4</ele><time>2026-04-04T14:17:59.601Z</time></trkpt><trkpt lat="44.7692833" lon="9.35111"><ele>435.0</ele><time>2026-04-04T14:18:00.601Z</time></trkpt><trkpt lat="44.7692633" lon="9.3512317"><ele>435.0</ele><time>2026-04-04T14:18:01.6Z</time></trkpt><trkpt lat="44.769245" lon="9.351345"><ele>435.0</ele><time>2026-04-04T14:18:02.6Z</time></trkpt><trkpt lat="44.76923" lon="9.3514567"><ele>435.0</ele><time>2026-04-04T14:18:03.6Z</time></trkpt><trkpt lat="44.7692283" lon="9.3515733"><ele>435.0</ele><time>2026-04-04T14:18:04.601Z</time></trkpt><trkpt lat="44.7692333" lon="9.351695"><ele>435.0</ele><time>2026-04-04T14:18:05.602Z</time></trkpt><trkpt lat="44.769235" lon="9.3518217"><ele>435.0</ele><time>2026-04-04T14:18:06.601Z</time></trkpt><trkpt lat="44.7692167" lon="9.351955"><ele>433.6</ele><time>2026-04-04T14:18:07.6Z</time></trkpt><trkpt lat="44.7691967" lon="9.3520983"><ele>432.2</ele><time>2026-04-04T14:18:08.602Z</time></trkpt><trkpt lat="44.76918" lon="9.3522467"><ele>430.79999999999995</ele><time>2026-04-04T14:18:09.599Z</time></trkpt><trkpt lat="44.7691767" lon="9.352415"><ele>429.4</ele><time>2026-04-04T14:18:10.601Z</time></trkpt><trkpt lat="44.7691717" lon="9.3525817"><ele>428.0</ele><time>2026-04-04T14:18:11.6Z</time></trkpt><trkpt lat="44.7691717" lon="9.3527333"><ele>426.3333333333333</ele><time>2026-04-04T14:18:12.601Z</time></trkpt><trkpt lat="44.76919" lon="9.3528583"><ele>424.66666666666663</ele><time>2026-04-04T14:18:13.6Z</time></trkpt><trkpt lat="44.7691883" lon="9.352995"><ele>423.0</ele><time>2026-04-04T14:18:14.602Z</time></trkpt><trkpt lat="44.76918" lon="9.3531217"><ele>421.33333333333337</ele><time>2026-04-04T14:18:15.601Z</time></trkpt><trkpt lat="44.7691617" lon="9.3532333"><ele>419.6666666666667</ele><time>2026-04-04T14:18:16.6Z</time></trkpt><trkpt lat="44.7691283" lon="9.35333"><ele>418.0</ele><time>2026-04-04T14:18:17.601Z</time></trkpt><trkpt lat="44.76909" lon="9.3534167"><ele>416.00000000000006</ele><time>2026-04-04T14:18:18.601Z</time></trkpt><trkpt lat="44.7690483" lon="9.3535083"><ele>414.0</ele><time>2026-04-04T14:18:19.6Z</time></trkpt><trkpt lat="44.7690133" lon="9.3536"><ele>412.0</ele><time>2026-04-04T14:18:20.602Z</time></trkpt><trkpt lat="44.7689833" lon="9.3537083"><ele>410.0</ele><time>2026-04-04T14:18:21.6Z</time></trkpt><trkpt lat="44.76896" lon="9.3538167"><ele>408.00000000000006</ele><time>2026-04-04T14:18:22.6Z</time></trkpt><trkpt lat="44.7689383" lon="9.35392"><ele>406.0</ele><time>2026-04-04T14:18:23.6Z</time></trkpt><trkpt lat="44.76892" lon="9.3540117"><ele>403.20000000000005</ele><time>2026-04-04T14:18:24.6Z</time></trkpt><trkpt lat="44.7688533" lon="9.3541367"><ele>400.40000000000003</ele><time>2026-04-04T14:18:26.6Z</time></trkpt><trkpt lat="44.768835" lon="9.3542833"><ele>397.6</ele><time>2026-04-04T14:18:28.601Z</time></trkpt><trkpt lat="44.7689" lon="9.35438"><ele>394.8</ele><time>2026-04-04T14:18:30.601Z</time></trkpt><trkpt lat="44.7690267" lon="9.354385"><ele>392.0</ele><time>2026-04-04T14:18:32.601Z</time></trkpt><trkpt lat="44.7691417" lon="9.354355"><ele>392.0</ele><time>2026-04-04T14:18:34.602Z</time></trkpt><trkpt lat="44.7692417" lon="9.35435"><ele>392.0</ele><time>2026-04-04T14:18:36.601Z</time></trkpt><trkpt lat="44.7693083" lon="9.3544317"><ele>392.0</ele><time>2026-04-04T14:18:38.602Z</time></trkpt><trkpt lat="44.7693067" lon="9.3545817"><ele>392.0</ele><time>2026-04-04T14:18:40.602Z</time></trkpt><trkpt lat="44.7692633" lon="9.3546467"><ele>392.0</ele><time>2026-04-04T14:18:41.602Z</time></trkpt><trkpt lat="44.7691717" lon="9.354735"><ele>390.8333333333333</ele><time>2026-04-04T14:18:43.601Z</time></trkpt><trkpt lat="44.76911" lon="9.3547617"><ele>389.66666666666663</ele><time>2026-04-04T14:18:44.601Z</time></trkpt><trkpt lat="44.769035" lon="9.354795"><ele>388.5</ele><time>2026-04-04T14:18:45.601Z</time></trkpt><trkpt lat="44.7689567" lon="9.3548533"><ele>387.33333333333337</ele><time>2026-04-04T14:18:46.601Z</time></trkpt><trkpt lat="44.7688767" lon="9.354905"><ele>386.1666666666667</ele><time>2026-04-04T14:18:47.602Z</time></trkpt><trkpt lat="44.768805" lon="9.3549517"><ele>385.0</ele><time>2026-04-04T14:18:48.601Z</time></trkpt><trkpt lat="44.7687483" lon="9.3550083"><ele>385.00000000000006</ele><time>2026-04-04T14:18:49.601Z</time></trkpt><trkpt lat="44.7686583" lon="9.3551283"><ele>385.0</ele><time>2026-04-04T14:18:51.601Z</time></trkpt><trkpt lat="44.768615" lon="9.3551967"><ele>385.0</ele><time>2026-04-04T14:18:52.6Z</time></trkpt><trkpt lat="44.768575" lon="9.355275"><ele>385.0</ele><time>2026-04-04T14:18:53.6Z</time></trkpt><trkpt lat="44.7685333" lon="9.3553667"><ele>385.00000000000006</ele><time>2026-04-04T14:18:54.601Z</time></trkpt><trkpt lat="44.768495" lon="9.3554583"><ele>385.0</ele><time>2026-04-04T14:18:55.6Z</time></trkpt><trkpt lat="44.7684767" lon="9.355575"><ele>383.33333333333337</ele><time>2026-04-04T14:18:56.602Z</time></trkpt><trkpt lat="44.7684583" lon="9.3557"><ele>381.6666666666667</ele><time>2026-04-04T14:18:57.601Z</time></trkpt><trkpt lat="44.7684467" lon="9.3558267"><ele>380.0</ele><time>2026-04-04T14:18:58.6Z</time></trkpt><trkpt lat="44.7684317" lon="9.3559533"><ele>378.33333333333337</ele><time>2026-04-04T14:18:59.6Z</time></trkpt><trkpt lat="44.7684117" lon="9.3560733"><ele>376.6666666666667</ele><time>2026-04-04T14:19:00.601Z</time></trkpt><trkpt lat="44.7683933" lon="9.3561917"><ele>375.0</ele><time>2026-04-04T14:19:01.6Z</time></trkpt><trkpt lat="44.76837" lon="9.356295"><ele>375.5714285714286</ele><time>2026-04-04T14:19:02.601Z</time></trkpt><trkpt lat="44.7683433" lon="9.356385"><ele>376.1428571428571</ele><time>2026-04-04T14:19:03.601Z</time></trkpt><trkpt lat="44.7683217" lon="9.3564733"><ele>376.7142857142857</ele><time>2026-04-04T14:19:04.6Z</time></trkpt><trkpt lat="44.7683133" lon="9.3565633"><ele>377.28571428571433</ele><time>2026-04-04T14:19:05.6Z</time></trkpt><trkpt lat="44.7683267" lon="9.356655"><ele>377.8571428571429</ele><time>2026-04-04T14:19:06.601Z</time></trkpt><trkpt lat="44.7683517" lon="9.3567533"><ele>378.42857142857144</ele><time>2026-04-04T14:19:07.601Z</time></trkpt><trkpt lat="44.7683817" lon="9.3568683"><ele>379.0</ele><time>2026-04-04T14:19:08.601Z</time></trkpt><trkpt lat="44.768415" lon="9.357"><ele>379.0</ele><time>2026-04-04T14:19:09.6Z</time></trkpt><trkpt lat="44.76845" lon="9.3571383"><ele>379.0</ele><time>2026-04-04T14:19:10.602Z</time></trkpt><trkpt lat="44.76848" lon="9.3572717"><ele>379.0</ele><time>2026-04-04T14:19:11.601Z</time></trkpt><trkpt lat="44.76851" lon="9.3573983"><ele>379.0</ele><time>2026-04-04T14:19:12.6Z</time></trkpt><trkpt lat="44.7685383" lon="9.3575183"><ele>379.0</ele><time>2026-04-04T14:19:13.6Z</time></trkpt><trkpt lat="44.76856" lon="9.35763"><ele>381.8333333333333</ele><time>2026-04-04T14:19:14.601Z</time></trkpt><trkpt lat="44.7685817" lon="9.3577383"><ele>384.66666666666663</ele><time>2026-04-04T14:19:15.601Z</time></trkpt><trkpt lat="44.7686067" lon="9.357845"><ele>387.5</ele><time>2026-04-04T14:19:16.6Z</time></trkpt><trkpt lat="44.7686317" lon="9.35795"><ele>390.3333333333333</ele><time>2026-04-04T14:19:17.6Z</time></trkpt><trkpt lat="44.768655" lon="9.3580483"><ele>393.1666666666667</ele><time>2026-04-04T14:19:18.601Z</time></trkpt><trkpt lat="44.768675" lon="9.3581433"><ele>396.0</ele><time>2026-04-04T14:19:19.601Z</time></trkpt><trkpt lat="44.7686983" lon="9.35824"><ele>396.0</ele><time>2026-04-04T14:19:20.6Z</time></trkpt><trkpt lat="44.76872" lon="9.35833"><ele>396.0</ele><time>2026-04-04T14:19:21.6Z</time></trkpt><trkpt lat="44.768755" lon="9.3584967"><ele>396.0</ele><time>2026-04-04T14:19:23.601Z</time></trkpt><trkpt lat="44.7687833" lon="9.35866"><ele>396.0</ele><time>2026-04-04T14:19:25.6Z</time></trkpt><trkpt lat="44.7687983" lon="9.35875"><ele>396.0</ele><time>2026-04-04T14:19:26.602Z</time></trkpt><trkpt lat="44.7688233" lon="9.358845"><ele>396.0</ele><time>2026-04-04T14:19:27.601Z</time></trkpt><trkpt lat="44.7688567" lon="9.358945"><ele>395.6666666666667</ele><time>2026-04-04T14:19:28.601Z</time></trkpt><trkpt lat="44.7688883" lon="9.3590467"><ele>395.33333333333337</ele><time>2026-04-04T14:19:29.601Z</time></trkpt><trkpt lat="44.7689083" lon="9.359145"><ele>395.0</ele><time>2026-04-04T14:19:30.601Z</time></trkpt><trkpt lat="44.76891" lon="9.35924"><ele>394.6666666666667</ele><time>2026-04-04T14:19:31.6Z</time></trkpt><trkpt lat="44.768895" lon="9.3593317"><ele>394.33333333333337</ele><time>2026-04-04T14:19:32.602Z</time></trkpt><trkpt lat="44.76886" lon="9.3594283"><ele>394.0</ele><time>2026-04-04T14:19:33.601Z</time></trkpt><trkpt lat="44.76881" lon="9.359545"><ele>394.0</ele><time>2026-04-04T14:19:34.601Z</time></trkpt><trkpt lat="44.7687517" lon="9.3596683"><ele>394.0</ele><time>2026-04-04T14:19:35.601Z</time></trkpt><trkpt lat="44.7686933" lon="9.359805"><ele>394.0</ele><time>2026-04-04T14:19:36.6Z</time></trkpt><trkpt lat="44.7686417" lon="9.3599633"><ele>394.0</ele><time>2026-04-04T14:19:37.601Z</time></trkpt><trkpt lat="44.7685933" lon="9.3601267"><ele>394.0</ele><time>2026-04-04T14:19:38.602Z</time></trkpt><trkpt lat="44.76855" lon="9.36029"><ele>394.0</ele><time>2026-04-04T14:19:39.6Z</time></trkpt><trkpt lat="44.76851" lon="9.360455"><ele>394.0</ele><time>2026-04-04T14:19:40.601Z</time></trkpt><trkpt lat="44.76847" lon="9.3606283"><ele>394.0</ele><time>2026-04-04T14:19:41.601Z</time></trkpt><trkpt lat="44.76843" lon="9.3608117"><ele>390.25</ele><time>2026-04-04T14:19:42.6Z</time></trkpt><trkpt lat="44.7683883" lon="9.3610017"><ele>386.5</ele><time>2026-04-04T14:19:43.601Z</time></trkpt><trkpt lat="44.7683517" lon="9.3611883"><ele>382.75</ele><time>2026-04-04T14:19:44.601Z</time></trkpt><trkpt lat="44.7683233" lon="9.3613633"><ele>379.0</ele><time>2026-04-04T14:19:45.601Z</time></trkpt><trkpt lat="44.7682983" lon="9.3615317"><ele>378.0</ele><time>2026-04-04T14:19:46.601Z</time></trkpt><trkpt lat="44.7682817" lon="9.36169"><ele>377.0</ele><time>2026-04-04T14:19:47.601Z</time></trkpt><trkpt lat="44.7682833" lon="9.3618483"><ele>376.0</ele><time>2026-04-04T14:19:48.6Z</time></trkpt><trkpt lat="44.76831" lon="9.3620133"><ele>375.0</ele><time>2026-04-04T14:19:49.601Z</time></trkpt><trkpt lat="44.7683617" lon="9.362175"><ele>374.25</ele><time>2026-04-04T14:19:50.6Z</time></trkpt><trkpt lat="44.76842" lon="9.3623267"><ele>373.5</ele><time>2026-04-04T14:19:51.601Z</time></trkpt><trkpt lat="44.7684717" lon="9.3624767"><ele>372.75</ele><time>2026-04-04T14:19:52.6Z</time></trkpt><trkpt lat="44.76851" lon="9.3626333"><ele>372.0</ele><time>2026-04-04T14:19:53.6Z</time></trkpt><trkpt lat="44.7685333" lon="9.3627983"><ele>373.40000000000003</ele><time>2026-04-04T14:19:54.602Z</time></trkpt><trkpt lat="44.7685483" lon="9.3629617"><ele>374.8</ele><time>2026-04-04T14:19:55.601Z</time></trkpt><trkpt lat="44.7685567" lon="9.3631183"><ele>376.2</ele><time>2026-04-04T14:19:56.602Z</time></trkpt><trkpt lat="44.7685583" lon="9.3632617"><ele>377.6</ele><time>2026-04-04T14:19:57.601Z</time></trkpt><trkpt lat="44.7685517" lon="9.363385"><ele>379.0</ele><time>2026-04-04T14:19:58.6Z</time></trkpt><trkpt lat="44.7685417" lon="9.3634783"><ele>376.8333333333333</ele><time>2026-04-04T14:19:59.601Z</time></trkpt><trkpt lat="44.7685017" lon="9.3635733"><ele>374.66666666666663</ele><time>2026-04-04T14:20:01.602Z</time></trkpt><trkpt lat="44.7684033" lon="9.3635717"><ele>372.5</ele><time>2026-04-04T14:20:04.601Z</time></trkpt><trkpt lat="44.7683133" lon="9.3636133"><ele>370.3333333333333</ele><time>2026-04-04T14:20:06.6Z</time></trkpt><trkpt lat="44.7682567" lon="9.363665"><ele>368.1666666666667</ele><time>2026-04-04T14:20:07.602Z</time></trkpt><trkpt lat="44.7682" lon="9.3637217"><ele>366.0</ele><time>2026-04-04T14:20:08.602Z</time></trkpt><trkpt lat="44.7681483" lon="9.3637783"><ele>366.0</ele><time>2026-04-04T14:20:09.602Z</time></trkpt><trkpt lat="44.7680983" lon="9.3638417"><ele>366.0</ele><time>2026-04-04T14:20:10.602Z</time></trkpt><trkpt lat="44.7680417" lon="9.3638967"><ele>366.0</ele><time>2026-04-04T14:20:11.601Z</time></trkpt><trkpt lat="44.76798" lon="9.3639433"><ele>366.0</ele><time>2026-04-04T14:20:12.601Z</time></trkpt><trkpt lat="44.7679117" lon="9.3640033"><ele>366.0</ele><time>2026-04-04T14:20:13.601Z</time></trkpt><trkpt lat="44.76784" lon="9.3640717"><ele>366.0</ele><time>2026-04-04T14:20:14.602Z</time></trkpt><trkpt lat="44.7677667" lon="9.36413"><ele>363.6666666666667</ele><time>2026-04-04T14:20:15.6Z</time></trkpt><trkpt lat="44.767685" lon="9.3641617"><ele>361.3333333333333</ele><time>2026-04-04T14:20:16.6Z</time></trkpt><trkpt lat="44.7676017" lon="9.36417"><ele>359.0</ele><time>2026-04-04T14:20:17.601Z</time></trkpt><trkpt lat="44.7675167" lon="9.3641667"><ele>356.66666666666663</ele><time>2026-04-04T14:20:18.601Z</time></trkpt><trkpt lat="44.7674317" lon="9.3641583"><ele>354.3333333333333</ele><time>2026-04-04T14:20:19.601Z</time></trkpt><trkpt lat="44.7673533" lon="9.3641417"><ele>352.0</ele><time>2026-04-04T14:20:20.601Z</time></trkpt><trkpt lat="44.7672833" lon="9.3641333"><ele>352.0</ele><time>2026-04-04T14:20:21.601Z</time></trkpt><trkpt lat="44.7672117" lon="9.364135"><ele>352.0</ele><time>2026-04-04T14:20:22.601Z</time></trkpt><trkpt lat="44.7671383" lon="9.36414"><ele>352.0</ele><time>2026-04-04T14:20:23.601Z</time></trkpt><trkpt lat="44.7670667" lon="9.364165"><ele>352.0</ele><time>2026-04-04T14:20:24.6Z</time></trkpt><trkpt lat="44.7669967" lon="9.3642083"><ele>352.0</ele><time>2026-04-04T14:20:25.601Z</time></trkpt><trkpt lat="44.7669283" lon="9.3642567"><ele>352.0</ele><time>2026-04-04T14:20:26.602Z</time></trkpt><trkpt lat="44.7668633" lon="9.3642817"><ele>352.0</ele><time>2026-04-04T14:20:27.6Z</time></trkpt><trkpt lat="44.7668" lon="9.3642783"><ele>350.66666666666663</ele><time>2026-04-04T14:20:28.602Z</time></trkpt><trkpt lat="44.766735" lon="9.3642517"><ele>349.3333333333333</ele><time>2026-04-04T14:20:29.601Z</time></trkpt><trkpt lat="44.7666733" lon="9.3642217"><ele>348.0</ele><time>2026-04-04T14:20:30.601Z</time></trkpt><trkpt lat="44.7665783" lon="9.3642"><ele>346.6666666666667</ele><time>2026-04-04T14:20:32.6Z</time></trkpt><trkpt lat="44.7665033" lon="9.3642217"><ele>345.33333333333337</ele><time>2026-04-04T14:20:34.601Z</time></trkpt><trkpt lat="44.7664333" lon="9.3642283"><ele>344.0</ele><time>2026-04-04T14:20:36.601Z</time></trkpt><trkpt lat="44.7663433" lon="9.364175"><ele>344.0</ele><time>2026-04-04T14:20:38.601Z</time></trkpt><trkpt lat="44.7662417" lon="9.3641183"><ele>344.0</ele><time>2026-04-04T14:20:40.601Z</time></trkpt><trkpt lat="44.7661967" lon="9.3642067"><ele>344.0</ele><time>2026-04-04T14:20:43.6Z</time></trkpt><trkpt lat="44.766275" lon="9.3643617"><ele>344.0</ele><time>2026-04-04T14:20:45.6Z</time></trkpt><trkpt lat="44.7663233" lon="9.3645033"><ele>344.0</ele><time>2026-04-04T14:20:47.6Z</time></trkpt><trkpt lat="44.7663317" lon="9.3646083"><ele>344.5</ele><time>2026-04-04T14:20:48.6Z</time></trkpt><trkpt lat="44.76633" lon="9.3647167"><ele>345.0</ele><time>2026-04-04T14:20:49.601Z</time></trkpt><trkpt lat="44.7663283" lon="9.36483"><ele>345.5</ele><time>2026-04-04T14:20:50.602Z</time></trkpt><trkpt lat="44.766325" lon="9.364945"><ele>346.0</ele><time>2026-04-04T14:20:51.602Z</time></trkpt><trkpt lat="44.7663417" lon="9.3650483"><ele>346.5</ele><time>2026-04-04T14:20:52.601Z</time></trkpt><trkpt lat="44.766365" lon="9.3651617"><ele>347.0</ele><time>2026-04-04T14:20:53.601Z</time></trkpt><trkpt lat="44.76639" lon="9.3652717"><ele>347.0</ele><time>2026-04-04T14:20:54.601Z</time></trkpt><trkpt lat="44.766405" lon="9.3653783"><ele>347.0</ele><time>2026-04-04T14:20:55.601Z</time></trkpt><trkpt lat="44.766405" lon="9.365505"><ele>347.0</ele><time>2026-04-04T14:20:56.601Z</time></trkpt><trkpt lat="44.7663883" lon="9.3656417"><ele>347.0</ele><time>2026-04-04T14:20:57.6Z</time></trkpt><trkpt lat="44.7663483" lon="9.36577"><ele>347.0</ele><time>2026-04-04T14:20:58.601Z</time></trkpt><trkpt lat="44.766305" lon="9.3658883"><ele>347.33333333333337</ele><time>2026-04-04T14:20:59.601Z</time></trkpt><trkpt lat="44.7662733" lon="9.3660067"><ele>347.6666666666667</ele><time>2026-04-04T14:21:00.6Z</time></trkpt><trkpt lat="44.766235" lon="9.3661067"><ele>348.0</ele><time>2026-04-04T14:21:01.601Z</time></trkpt><trkpt lat="44.7661983" lon="9.366195"><ele>348.3333333333333</ele><time>2026-04-04T14:21:02.601Z</time></trkpt><trkpt lat="44.7661183" lon="9.3662783"><ele>348.66666666666663</ele><time>2026-04-04T14:21:04.601Z</time></trkpt><trkpt lat="44.76602" lon="9.3663167"><ele>349.0</ele><time>2026-04-04T14:21:06.601Z</time></trkpt><trkpt lat="44.7659533" lon="9.3663367"><ele>350.85714285714283</ele><time>2026-04-04T14:21:07.6Z</time></trkpt><trkpt lat="44.7658783" lon="9.366355"><ele>352.7142857142857</ele><time>2026-04-04T14:21:08.6Z</time></trkpt><trkpt lat="44.765805" lon="9.36636"><ele>354.57142857142856</ele><time>2026-04-04T14:21:09.601Z</time></trkpt><trkpt lat="44.76573" lon="9.3663567"><ele>356.42857142857144</ele><time>2026-04-04T14:21:10.6Z</time></trkpt><trkpt lat="44.76566" lon="9.3663383"><ele>358.2857142857143</ele><time>2026-04-04T14:21:11.601Z</time></trkpt><trkpt lat="44.7655933" lon="9.36631"><ele>360.1428571428571</ele><time>2026-04-04T14:21:12.6Z</time></trkpt><trkpt lat="44.76553" lon="9.36626"><ele>362.0</ele><time>2026-04-04T14:21:13.601Z</time></trkpt><trkpt lat="44.76548" lon="9.366195"><ele>362.0</ele><time>2026-04-04T14:21:14.599Z</time></trkpt><trkpt lat="44.7654333" lon="9.3661217"><ele>362.0</ele><time>2026-04-04T14:21:15.6Z</time></trkpt><trkpt lat="44.7653583" lon="9.366035"><ele>362.0</ele><time>2026-04-04T14:21:17.6Z</time></trkpt><trkpt lat="44.7652683" lon="9.3660383"><ele>362.0</ele><time>2026-04-04T14:21:19.601Z</time></trkpt><trkpt lat="44.7651467" lon="9.36608"><ele>362.0</ele><time>2026-04-04T14:21:21.6Z</time></trkpt><trkpt lat="44.7650817" lon="9.3661283"><ele>364.6666666666667</ele><time>2026-04-04T14:21:22.599Z</time></trkpt><trkpt lat="44.765015" lon="9.3661817"><ele>367.33333333333337</ele><time>2026-04-04T14:21:23.6Z</time></trkpt><trkpt lat="44.7649517" lon="9.3662333"><ele>370.0</ele><time>2026-04-04T14:21:24.6Z</time></trkpt><trkpt lat="44.7648983" lon="9.366285"><ele>372.6666666666667</ele><time>2026-04-04T14:21:25.6Z</time></trkpt><trkpt lat="44.7647967" lon="9.36637"><ele>375.3333333333333</ele><time>2026-04-04T14:21:27.6Z</time></trkpt><trkpt lat="44.7647117" lon="9.3664667"><ele>378.0</ele><time>2026-04-04T14:21:29.6Z</time></trkpt><trkpt lat="44.7646717" lon="9.366545"><ele>378.0</ele><time>2026-04-04T14:21:31.6Z</time></trkpt><trkpt lat="44.76467" lon="9.3666633"><ele>378.0</ele><time>2026-04-04T14:21:33.599Z</time></trkpt><trkpt lat="44.7646496" lon="9.3667873"><ele>378.0</ele><time>2026-04-04T14:21:35.603Z</time></trkpt><trkpt lat="44.764595" lon="9.3668719"><ele>378.0</ele><time>2026-04-04T14:21:37.599Z</time></trkpt><trkpt lat="44.7645122" lon="9.3669789"><ele>378.0</ele><time>2026-04-04T14:21:39.6Z</time></trkpt><trkpt lat="44.7644379" lon="9.3671157"><ele>378.0</ele><time>2026-04-04T14:21:41.601Z</time></trkpt><trkpt lat="44.7643707" lon="9.3672465"><ele>378.0</ele><time>2026-04-04T14:21:43.6Z</time></trkpt><trkpt lat="44.7643258" lon="9.3673501"><ele>378.0</ele><time>2026-04-04T14:21:45.6Z</time></trkpt><trkpt lat="44.7643018" lon="9.3674322"><ele>378.0</ele><time>2026-04-04T14:21:49.599Z</time></trkpt><trkpt lat="44.7642416" lon="9.3674705"><ele>378.0</ele><time>2026-04-04T14:21:56.602Z</time></trkpt><trkpt lat="44.7641625" lon="9.3674888"><ele>378.0</ele><time>2026-04-04T14:21:58.601Z</time></trkpt><trkpt lat="44.7640627" lon="9.3674833"><ele>380.5</ele><time>2026-04-04T14:22:00.6Z</time></trkpt><trkpt lat="44.7639792" lon="9.3674216"><ele>383.0</ele><time>2026-04-04T14:22:02.6Z</time></trkpt><trkpt lat="44.7638961" lon="9.3673572"><ele>385.5</ele><time>2026-04-04T14:22:04.6Z</time></trkpt><trkpt lat="44.7638034" lon="9.367368"><ele>388.0</ele><time>2026-04-04T14:22:06.6Z</time></trkpt><trkpt lat="44.763725" lon="9.3673582"><ele>390.5</ele><time>2026-04-04T14:22:08.6Z</time></trkpt><trkpt lat="44.7636604" lon="9.3673044"><ele>393.0</ele><time>2026-04-04T14:22:10.6Z</time></trkpt><trkpt lat="44.7635689" lon="9.3673696"><ele>398.59999999999997</ele><time>2026-04-04T14:22:13.599Z</time></trkpt><trkpt lat="44.76351" lon="9.3675224"><ele>404.2</ele><time>2026-04-04T14:22:15.599Z</time></trkpt><trkpt lat="44.7634848" lon="9.3676093"><ele>409.8</ele><time>2026-04-04T14:22:16.6Z</time></trkpt><trkpt lat="44.7634506" lon="9.3677679"><ele>415.4</ele><time>2026-04-04T14:22:18.6Z</time></trkpt><trkpt lat="44.7634652" lon="9.3679485"><ele>421.0</ele><time>2026-04-04T14:22:20.601Z</time></trkpt><trkpt lat="44.7634931" lon="9.3680851"><ele>421.0</ele><time>2026-04-04T14:22:22.601Z</time></trkpt><trkpt lat="44.7633819" lon="9.3680311"><ele>421.0</ele><time>2026-04-04T14:22:27.601Z</time></trkpt><trkpt lat="44.7633279" lon="9.3679776"><ele>421.0</ele><time>2026-04-04T14:22:28.6Z</time></trkpt><trkpt lat="44.7632274" lon="9.3678854"><ele>421.0</ele><time>2026-04-04T14:22:30.599Z</time></trkpt><trkpt lat="44.7631835" lon="9.3677692"><ele>421.0</ele><time>2026-04-04T14:22:32.601Z</time></trkpt><trkpt lat="44.7631646" lon="9.3676491"><ele>421.00000000000006</ele><time>2026-04-04T14:22:34.6Z</time></trkpt><trkpt lat="44.7631408" lon="9.3675027"><ele>421.0</ele><time>2026-04-04T14:22:36.601Z</time></trkpt><trkpt lat="44.7631155" lon="9.3673575"><ele>421.0</ele><time>2026-04-04T14:22:38.6Z</time></trkpt><trkpt lat="44.7630413" lon="9.3673521"><ele>421.0</ele><time>2026-04-04T14:22:42.6Z</time></trkpt><trkpt lat="44.763" lon="9.3674333"><ele>421.00000000000006</ele><time>2026-04-04T14:22:44.601Z</time></trkpt><trkpt lat="44.7629333" lon="9.3674817"><ele>421.0</ele><time>2026-04-04T14:22:46.6Z</time></trkpt><trkpt lat="44.7628433" lon="9.367505"><ele>421.00000000000006</ele><time>2026-04-04T14:22:48.6Z</time></trkpt><trkpt lat="44.7627417" lon="9.3675333"><ele>421.0</ele><time>2026-04-04T14:22:50.601Z</time></trkpt><trkpt lat="44.7626617" lon="9.367535"><ele>421.0</ele><time>2026-04-04T14:22:52.599Z</time></trkpt><trkpt lat="44.7625783" lon="9.367535"><ele>421.0</ele><time>2026-04-04T14:22:54.6Z</time></trkpt><trkpt lat="44.76252" lon="9.3675817"><ele>421.00000000000006</ele><time>2026-04-04T14:22:57.6Z</time></trkpt><trkpt lat="44.762525" lon="9.3676717"><ele>421.0</ele><time>2026-04-04T14:23:04.6Z</time></trkpt><trkpt lat="44.7625017" lon="9.36777"><ele>426.4</ele><time>2026-04-04T14:23:06.6Z</time></trkpt><trkpt lat="44.762465" lon="9.3679"><ele>431.8</ele><time>2026-04-04T14:23:08.599Z</time></trkpt><trkpt lat="44.762395" lon="9.3679983"><ele>437.19999999999993</ele><time>2026-04-04T14:23:10.6Z</time></trkpt><trkpt lat="44.76229" lon="9.3681167"><ele>442.59999999999997</ele><time>2026-04-04T14:23:12.601Z</time></trkpt><trkpt lat="44.7622217" lon="9.368175"><ele>448.0</ele><time>2026-04-04T14:23:13.601Z</time></trkpt><trkpt lat="44.7621533" lon="9.36823"><ele>448.00000000000006</ele><time>2026-04-04T14:23:14.601Z</time></trkpt><trkpt lat="44.7620867" lon="9.36827"><ele>448.0</ele><time>2026-04-04T14:23:15.599Z</time></trkpt><trkpt lat="44.762" lon="9.3682617"><ele>448.0</ele><time>2026-04-04T14:23:17.6Z</time></trkpt><trkpt lat="44.7619667" lon="9.3681467"><ele>448.0</ele><time>2026-04-04T14:23:19.6Z</time></trkpt><trkpt lat="44.7619433" lon="9.3680533"><ele>448.00000000000006</ele><time>2026-04-04T14:23:20.602Z</time></trkpt><trkpt lat="44.761905" lon="9.3679567"><ele>448.0</ele><time>2026-04-04T14:23:21.6Z</time></trkpt><trkpt lat="44.7618633" lon="9.3678767"><ele>453.59999999999997</ele><time>2026-04-04T14:23:22.6Z</time></trkpt><trkpt lat="44.7617667" lon="9.367815"><ele>459.19999999999993</ele><time>2026-04-04T14:23:24.599Z</time></trkpt><trkpt lat="44.7616483" lon="9.367845"><ele>464.8</ele><time>2026-04-04T14:23:26.601Z</time></trkpt><trkpt lat="44.7615767" lon="9.3678883"><ele>470.4</ele><time>2026-04-04T14:23:27.599Z</time></trkpt><trkpt lat="44.761505" lon="9.3679517"><ele>476.0</ele><time>2026-04-04T14:23:28.6Z</time></trkpt><trkpt lat="44.7614383" lon="9.3680217"><ele>474.8</ele><time>2026-04-04T14:23:29.599Z</time></trkpt><trkpt lat="44.7613667" lon="9.3681"><ele>473.6</ele><time>2026-04-04T14:23:30.6Z</time></trkpt><trkpt lat="44.7613" lon="9.3681817"><ele>472.4</ele><time>2026-04-04T14:23:31.6Z</time></trkpt><trkpt lat="44.7612233" lon="9.368265"><ele>471.2</ele><time>2026-04-04T14:23:32.6Z</time></trkpt><trkpt lat="44.7611483" lon="9.36834"><ele>470.0</ele><time>2026-04-04T14:23:33.6Z</time></trkpt><trkpt lat="44.76108" lon="9.368405"><ele>473.4</ele><time>2026-04-04T14:23:34.6Z</time></trkpt><trkpt lat="44.76098" lon="9.3684567"><ele>476.8</ele><time>2026-04-04T14:23:36.6Z</time></trkpt><trkpt lat="44.7609133" lon="9.368395"><ele>480.20000000000005</ele><time>2026-04-04T14:23:38.6Z</time></trkpt><trkpt lat="44.7608283" lon="9.368425"><ele>483.6</ele><time>2026-04-04T14:23:41.601Z</time></trkpt><trkpt lat="44.76081" lon="9.36858"><ele>487.0</ele><time>2026-04-04T14:23:43.6Z</time></trkpt><trkpt lat="44.7608267" lon="9.3686867"><ele>487.0</ele><time>2026-04-04T14:23:44.601Z</time></trkpt><trkpt lat="44.7608533" lon="9.36879"><ele>487.00000000000006</ele><time>2026-04-04T14:23:45.601Z</time></trkpt><trkpt lat="44.7608967" lon="9.3689083"><ele>487.00000000000006</ele><time>2026-04-04T14:23:46.601Z</time></trkpt><trkpt lat="44.760945" lon="9.3690333"><ele>487.0</ele><time>2026-04-04T14:23:47.601Z</time></trkpt><trkpt lat="44.7609983" lon="9.36915"><ele>487.0</ele><time>2026-04-04T14:23:48.601Z</time></trkpt><trkpt lat="44.7610567" lon="9.3692467"><ele>486.00000000000006</ele><time>2026-04-04T14:23:49.599Z</time></trkpt><trkpt lat="44.76112" lon="9.3693317"><ele>485.0</ele><time>2026-04-04T14:23:50.602Z</time></trkpt><trkpt lat="44.7611917" lon="9.3694017"><ele>484.0</ele><time>2026-04-04T14:23:51.601Z</time></trkpt><trkpt lat="44.76125" lon="9.3694767"><ele>483.0</ele><time>2026-04-04T14:23:52.601Z</time></trkpt><trkpt lat="44.76129" lon="9.36956"><ele>482.00000000000006</ele><time>2026-04-04T14:23:53.599Z</time></trkpt><trkpt lat="44.761305" lon="9.36965"><ele>481.0</ele><time>2026-04-04T14:23:54.6Z</time></trkpt><trkpt lat="44.7612967" lon="9.3697383"><ele>481.0</ele><time>2026-04-04T14:23:55.6Z</time></trkpt><trkpt lat="44.7612467" lon="9.3698183"><ele>481.0</ele><time>2026-04-04T14:23:56.601Z</time></trkpt><trkpt lat="44.7611683" lon="9.36989"><ele>481.0</ele><time>2026-04-04T14:23:57.599Z</time></trkpt><trkpt lat="44.761065" lon="9.3699517"><ele>481.0</ele><time>2026-04-04T14:23:58.601Z</time></trkpt><trkpt lat="44.7609517" lon="9.3699967"><ele>481.0</ele><time>2026-04-04T14:23:59.599Z</time></trkpt><trkpt lat="44.7608367" lon="9.37003"><ele>480.75</ele><time>2026-04-04T14:24:00.6Z</time></trkpt><trkpt lat="44.7607183" lon="9.3700467"><ele>480.5</ele><time>2026-04-04T14:24:01.599Z</time></trkpt><trkpt lat="44.7606" lon="9.3700617"><ele>480.25</ele><time>2026-04-04T14:24:02.601Z</time></trkpt><trkpt lat="44.7604833" lon="9.37007"><ele>480.0</ele><time>2026-04-04T14:24:03.601Z</time></trkpt><trkpt lat="44.7603733" lon="9.3700633"><ele>480.0</ele><time>2026-04-04T14:24:04.601Z</time></trkpt><trkpt lat="44.7602717" lon="9.3700233"><ele>480.0</ele><time>2026-04-04T14:24:05.601Z</time></trkpt><trkpt lat="44.76017" lon="9.36995"><ele>480.0</ele><time>2026-04-04T14:24:06.6Z</time></trkpt><trkpt lat="44.7600617" lon="9.3698733"><ele>480.0</ele><time>2026-04-04T14:24:07.6Z</time></trkpt><trkpt lat="44.759945" lon="9.369835"><ele>478.6</ele><time>2026-04-04T14:24:08.601Z</time></trkpt><trkpt lat="44.759835" lon="9.3698383"><ele>477.2</ele><time>2026-04-04T14:24:09.6Z</time></trkpt><trkpt lat="44.75973" lon="9.36987"><ele>475.79999999999995</ele><time>2026-04-04T14:24:10.6Z</time></trkpt><trkpt lat="44.7596367" lon="9.3698917"><ele>474.4</ele><time>2026-04-04T14:24:11.599Z</time></trkpt><trkpt lat="44.7595533" lon="9.3698717"><ele>473.0</ele><time>2026-04-04T14:24:12.599Z</time></trkpt><trkpt lat="44.7594767" lon="9.3698183"><ele>473.0</ele><time>2026-04-04T14:24:13.6Z</time></trkpt><trkpt lat="44.7593783" lon="9.3697467"><ele>472.99999999999994</ele><time>2026-04-04T14:24:14.6Z</time></trkpt><trkpt lat="44.7592717" lon="9.3696867"><ele>472.99999999999994</ele><time>2026-04-04T14:24:15.6Z</time></trkpt><trkpt lat="44.7591717" lon="9.3696517"><ele>473.0</ele><time>2026-04-04T14:24:16.599Z</time></trkpt><trkpt lat="44.75908" lon="9.3696333"><ele>473.0</ele><time>2026-04-04T14:24:17.6Z</time></trkpt><trkpt lat="44.7589983" lon="9.3696283"><ele>472.99999999999994</ele><time>2026-04-04T14:24:18.6Z</time></trkpt><trkpt lat="44.75892" lon="9.3696217"><ele>473.0</ele><time>2026-04-04T14:24:19.6Z</time></trkpt><trkpt lat="44.75884" lon="9.3696"><ele>473.0</ele><time>2026-04-04T14:24:20.601Z</time></trkpt><trkpt lat="44.758755" lon="9.3695683"><ele>473.0</ele><time>2026-04-04T14:24:21.601Z</time></trkpt><trkpt lat="44.7586667" lon="9.3695267"><ele>472.99999999999994</ele><time>2026-04-04T14:24:22.601Z</time></trkpt><trkpt lat="44.7585817" lon="9.369475"><ele>473.0</ele><time>2026-04-04T14:24:23.601Z</time></trkpt><trkpt lat="44.7584967" lon="9.3694167"><ele>473.0</ele><time>2026-04-04T14:24:24.6Z</time></trkpt><trkpt lat="44.7584133" lon="9.3693567"><ele>472.99999999999994</ele><time>2026-04-04T14:24:25.6Z</time></trkpt><trkpt lat="44.7583383" lon="9.369295"><ele>472.99999999999994</ele><time>2026-04-04T14:24:26.601Z</time></trkpt><trkpt lat="44.7582683" lon="9.3692067"><ele>473.0</ele><time>2026-04-04T14:24:27.6Z</time></trkpt><trkpt lat="44.7582" lon="9.3690917"><ele>473.0</ele><time>2026-04-04T14:24:28.601Z</time></trkpt><trkpt lat="44.7581133" lon="9.3689683"><ele>474.0</ele><time>2026-04-04T14:24:29.599Z</time></trkpt><trkpt lat="44.758005" lon="9.3688517"><ele>475.0</ele><time>2026-04-04T14:24:30.6Z</time></trkpt><trkpt lat="44.75789" lon="9.3687633"><ele>476.0</ele><time>2026-04-04T14:24:31.6Z</time></trkpt><trkpt lat="44.757775" lon="9.36871"><ele>477.0</ele><time>2026-04-04T14:24:32.6Z</time></trkpt><trkpt lat="44.757665" lon="9.3686833"><ele>477.0</ele><time>2026-04-04T14:24:33.6Z</time></trkpt><trkpt lat="44.7575683" lon="9.3686633"><ele>477.0</ele><time>2026-04-04T14:24:34.599Z</time></trkpt><trkpt lat="44.7574933" lon="9.368635"><ele>477.0</ele><time>2026-04-04T14:24:35.6Z</time></trkpt><trkpt lat="44.7574267" lon="9.3685883"><ele>477.0</ele><time>2026-04-04T14:24:36.6Z</time></trkpt><trkpt lat="44.7573783" lon="9.36851"><ele>477.0</ele><time>2026-04-04T14:24:37.599Z</time></trkpt><trkpt lat="44.7573367" lon="9.3683983"><ele>477.0</ele><time>2026-04-04T14:24:38.601Z</time></trkpt><trkpt lat="44.757315" lon="9.36828"><ele>477.0</ele><time>2026-04-04T14:24:39.601Z</time></trkpt><trkpt lat="44.7573117" lon="9.368155"><ele>477.0</ele><time>2026-04-04T14:24:40.6Z</time></trkpt><trkpt lat="44.7573117" lon="9.3680117"><ele>477.0</ele><time>2026-04-04T14:24:41.6Z</time></trkpt><trkpt lat="44.7573017" lon="9.3678717"><ele>477.0</ele><time>2026-04-04T14:24:42.599Z</time></trkpt><trkpt lat="44.75727" lon="9.3677567"><ele>477.0</ele><time>2026-04-04T14:24:43.6Z</time></trkpt><trkpt lat="44.757235" lon="9.3676733"><ele>477.0</ele><time>2026-04-04T14:24:44.6Z</time></trkpt><trkpt lat="44.757185" lon="9.3676117"><ele>478.0</ele><time>2026-04-04T14:24:46.602Z</time></trkpt><trkpt lat="44.757125" lon="9.3675733"><ele>479.0</ele><time>2026-04-04T14:25:58.6Z</time></trkpt><trkpt lat="44.7570083" lon="9.367565"><ele>480.0</ele><time>2026-04-04T14:26:00.599Z</time></trkpt><trkpt lat="44.7569317" lon="9.3675583"><ele>481.0</ele><time>2026-04-04T14:26:01.599Z</time></trkpt><trkpt lat="44.7568533" lon="9.36755"><ele>482.0</ele><time>2026-04-04T14:26:02.602Z</time></trkpt><trkpt lat="44.756775" lon="9.3675317"><ele>483.0</ele><time>2026-04-04T14:26:03.6Z</time></trkpt><trkpt lat="44.7566883" lon="9.367485"><ele>483.0</ele><time>2026-04-04T14:26:04.601Z</time></trkpt><trkpt lat="44.756605" lon="9.3674117"><ele>482.99999999999994</ele><time>2026-04-04T14:26:05.6Z</time></trkpt><trkpt lat="44.756535" lon="9.3673233"><ele>482.99999999999994</ele><time>2026-04-04T14:26:06.6Z</time></trkpt><trkpt lat="44.7564767" lon="9.3672233"><ele>483.0</ele><time>2026-04-04T14:26:07.6Z</time></trkpt><trkpt lat="44.7564167" lon="9.3671367"><ele>483.0</ele><time>2026-04-04T14:26:08.6Z</time></trkpt><trkpt lat="44.7563433" lon="9.3670867"><ele>490.5</ele><time>2026-04-04T14:26:09.6Z</time></trkpt><trkpt lat="44.7562417" lon="9.36707"><ele>498.0</ele><time>2026-04-04T14:26:10.6Z</time></trkpt><trkpt lat="44.7561217" lon="9.3670683"><ele>505.5</ele><time>2026-04-04T14:26:11.601Z</time></trkpt><trkpt lat="44.756005" lon="9.36707"><ele>513.0</ele><time>2026-04-04T14:26:12.599Z</time></trkpt><trkpt lat="44.7558883" lon="9.3670717"><ele>513.0</ele><time>2026-04-04T14:26:13.599Z</time></trkpt><trkpt lat="44.7557917" lon="9.36707"><ele>513.0</ele><time>2026-04-04T14:26:14.601Z</time></trkpt><trkpt lat="44.7557033" lon="9.36706"><ele>513.0</ele><time>2026-04-04T14:26:15.599Z</time></trkpt><trkpt lat="44.7556217" lon="9.3670283"><ele>513.0</ele><time>2026-04-04T14:26:16.601Z</time></trkpt><trkpt lat="44.7555383" lon="9.3669767"><ele>513.0</ele><time>2026-04-04T14:26:17.6Z</time></trkpt><trkpt lat="44.755445" lon="9.366915"><ele>513.0</ele><time>2026-04-04T14:26:18.603Z</time></trkpt><trkpt lat="44.755335" lon="9.3668583"><ele>513.0</ele><time>2026-04-04T14:26:19.6Z</time></trkpt><trkpt lat="44.7552183" lon="9.3668017"><ele>513.0</ele><time>2026-04-04T14:26:20.601Z</time></trkpt><trkpt lat="44.7551067" lon="9.3667433"><ele>513.0</ele><time>2026-04-04T14:26:21.6Z</time></trkpt><trkpt lat="44.7549983" lon="9.366695"><ele>510.5</ele><time>2026-04-04T14:26:22.6Z</time></trkpt><trkpt lat="44.7548917" lon="9.36665"><ele>508.0</ele><time>2026-04-04T14:26:23.601Z</time></trkpt><trkpt lat="44.7548" lon="9.3666117"><ele>505.5</ele><time>2026-04-04T14:26:24.601Z</time></trkpt><trkpt lat="44.7547183" lon="9.3665767"><ele>503.0</ele><time>2026-04-04T14:26:25.601Z</time></trkpt><trkpt lat="44.7546433" lon="9.3665417"><ele>500.5</ele><time>2026-04-04T14:26:26.6Z</time></trkpt><trkpt lat="44.7545817" lon="9.3664867"><ele>498.0</ele><time>2026-04-04T14:26:27.6Z</time></trkpt><trkpt lat="44.754535" lon="9.3663967"><ele>495.79999999999995</ele><time>2026-04-04T14:26:28.6Z</time></trkpt><trkpt lat="44.754505" lon="9.3662783"><ele>493.59999999999997</ele><time>2026-04-04T14:26:29.599Z</time></trkpt><trkpt lat="44.7544767" lon="9.3661317"><ele>491.40000000000003</ele><time>2026-04-04T14:26:30.6Z</time></trkpt><trkpt lat="44.7544467" lon="9.3659733"><ele>489.20000000000005</ele><time>2026-04-04T14:26:31.599Z</time></trkpt><trkpt lat="44.75441" lon="9.3658133"><ele>487.0</ele><time>2026-04-04T14:26:32.601Z</time></trkpt><trkpt lat="44.75435" lon="9.36567"><ele>487.0</ele><time>2026-04-04T14:26:33.6Z</time></trkpt><trkpt lat="44.7542783" lon="9.3655367"><ele>487.0</ele><time>2026-04-04T14:26:34.6Z</time></trkpt><trkpt lat="44.7542067" lon="9.3654017"><ele>487.0</ele><time>2026-04-04T14:26:35.604Z</time></trkpt><trkpt lat="44.7541467" lon="9.3652567"><ele>487.0</ele><time>2026-04-04T14:26:36.599Z</time></trkpt><trkpt lat="44.7540917" lon="9.3651067"><ele>493.75</ele><time>2026-04-04T14:26:37.599Z</time></trkpt><trkpt lat="44.7540317" lon="9.36496"><ele>500.5</ele><time>2026-04-04T14:26:38.6Z</time></trkpt><trkpt lat="44.75396" lon="9.3648283"><ele>507.25</ele><time>2026-04-04T14:26:39.6Z</time></trkpt><trkpt lat="44.75388" lon="9.36471"><ele>514.0</ele><time>2026-04-04T14:26:40.6Z</time></trkpt><trkpt lat="44.7537917" lon="9.3646133"><ele>512.0</ele><time>2026-04-04T14:26:41.6Z</time></trkpt><trkpt lat="44.7537017" lon="9.3645333"><ele>510.0</ele><time>2026-04-04T14:26:42.6Z</time></trkpt><trkpt lat="44.75362" lon="9.3644383"><ele>508.0</ele><time>2026-04-04T14:26:43.6Z</time></trkpt><trkpt lat="44.7535567" lon="9.3643133"><ele>506.0</ele><time>2026-04-04T14:26:44.601Z</time></trkpt><trkpt lat="44.7535017" lon="9.3641683"><ele>504.0</ele><time>2026-04-04T14:26:45.6Z</time></trkpt><trkpt lat="44.7534533" lon="9.3640167"><ele>504.0</ele><time>2026-04-04T14:26:46.6Z</time></trkpt><trkpt lat="44.7534167" lon="9.3638783"><ele>504.0</ele><time>2026-04-04T14:26:47.601Z</time></trkpt><trkpt lat="44.7533933" lon="9.3637467"><ele>504.0</ele><time>2026-04-04T14:26:48.601Z</time></trkpt><trkpt lat="44.7533867" lon="9.36361"><ele>504.0</ele><time>2026-04-04T14:26:49.601Z</time></trkpt><trkpt lat="44.7533933" lon="9.363455"><ele>504.0</ele><time>2026-04-04T14:26:50.599Z</time></trkpt><trkpt lat="44.7534067" lon="9.3633017"><ele>504.5</ele><time>2026-04-04T14:26:51.599Z</time></trkpt><trkpt lat="44.75343" lon="9.36315"><ele>505.0</ele><time>2026-04-04T14:26:52.6Z</time></trkpt><trkpt lat="44.7534633" lon="9.3629883"><ele>505.5</ele><time>2026-04-04T14:26:53.599Z</time></trkpt><trkpt lat="44.7534967" lon="9.362815"><ele>506.0</ele><time>2026-04-04T14:26:54.601Z</time></trkpt><trkpt lat="44.7535217" lon="9.362645"><ele>506.0</ele><time>2026-04-04T14:26:55.599Z</time></trkpt><trkpt lat="44.7535383" lon="9.362485"><ele>506.0</ele><time>2026-04-04T14:26:56.601Z</time></trkpt><trkpt lat="44.753555" lon="9.36233"><ele>506.0</ele><time>2026-04-04T14:26:57.6Z</time></trkpt><trkpt lat="44.7535817" lon="9.3621817"><ele>506.0</ele><time>2026-04-04T14:26:58.6Z</time></trkpt><trkpt lat="44.7536167" lon="9.362055"><ele>506.0</ele><time>2026-04-04T14:26:59.601Z</time></trkpt><trkpt lat="44.753655" lon="9.36194"><ele>510.8333333333333</ele><time>2026-04-04T14:27:00.601Z</time></trkpt><trkpt lat="44.75369" lon="9.3618467"><ele>515.6666666666666</ele><time>2026-04-04T14:27:01.6Z</time></trkpt><trkpt lat="44.753735" lon="9.3617433"><ele>520.5</ele><time>2026-04-04T14:27:03.6Z</time></trkpt><trkpt lat="44.7537383" lon="9.361635"><ele>525.3333333333334</ele><time>2026-04-04T14:27:06.6Z</time></trkpt><trkpt lat="44.7537333" lon="9.36146"><ele>530.1666666666667</ele><time>2026-04-04T14:27:08.601Z</time></trkpt><trkpt lat="44.7537233" lon="9.361355"><ele>535.0</ele><time>2026-04-04T14:27:09.601Z</time></trkpt><trkpt lat="44.7537167" lon="9.3612433"><ele>535.0</ele><time>2026-04-04T14:27:10.6Z</time></trkpt><trkpt lat="44.75372" lon="9.3611217"><ele>535.0</ele><time>2026-04-04T14:27:11.6Z</time></trkpt><trkpt lat="44.7537283" lon="9.360995"><ele>535.0</ele><time>2026-04-04T14:27:12.6Z</time></trkpt><trkpt lat="44.7537367" lon="9.36087"><ele>535.0</ele><time>2026-04-04T14:27:13.601Z</time></trkpt><trkpt lat="44.75373" lon="9.3607567"><ele>535.0</ele><time>2026-04-04T14:27:14.599Z</time></trkpt><trkpt lat="44.7537083" lon="9.3606533"><ele>535.0</ele><time>2026-04-04T14:27:15.6Z</time></trkpt><trkpt lat="44.7536833" lon="9.3605517"><ele>535.8571428571429</ele><time>2026-04-04T14:27:16.6Z</time></trkpt><trkpt lat="44.753645" lon="9.360465"><ele>536.7142857142858</ele><time>2026-04-04T14:27:17.6Z</time></trkpt><trkpt lat="44.7535967" lon="9.360385"><ele>537.5714285714287</ele><time>2026-04-04T14:27:18.6Z</time></trkpt><trkpt lat="44.7535383" lon="9.3603183"><ele>538.4285714285714</ele><time>2026-04-04T14:27:19.602Z</time></trkpt><trkpt lat="44.7534767" lon="9.3602633"><ele>539.2857142857143</ele><time>2026-04-04T14:27:20.6Z</time></trkpt><trkpt lat="44.753415" lon="9.3602167"><ele>540.1428571428572</ele><time>2026-04-04T14:27:21.6Z</time></trkpt><trkpt lat="44.7533517" lon="9.3601883"><ele>541.0</ele><time>2026-04-04T14:27:22.601Z</time></trkpt><trkpt lat="44.7532383" lon="9.3601917"><ele>534.2</ele><time>2026-04-04T14:27:24.602Z</time></trkpt><trkpt lat="44.753185" lon="9.3602917"><ele>527.4000000000001</ele><time>2026-04-04T14:27:26.602Z</time></trkpt><trkpt lat="44.7532283" lon="9.36048"><ele>520.6</ele><time>2026-04-04T14:27:28.602Z</time></trkpt><trkpt lat="44.75326" lon="9.360585"><ele>513.8000000000001</ele><time>2026-04-04T14:27:29.601Z</time></trkpt><trkpt lat="44.7532933" lon="9.3606967"><ele>507.0</ele><time>2026-04-04T14:27:30.6Z</time></trkpt><trkpt lat="44.7533233" lon="9.360795"><ele>503.8</ele><time>2026-04-04T14:27:31.6Z</time></trkpt><trkpt lat="44.7533433" lon="9.3609617"><ele>500.6</ele><time>2026-04-04T14:27:33.6Z</time></trkpt><trkpt lat="44.75332" lon="9.36114"><ele>497.40000000000003</ele><time>2026-04-04T14:27:35.601Z</time></trkpt><trkpt lat="44.75329" lon="9.3612417"><ele>494.20000000000005</ele><time>2026-04-04T14:27:36.601Z</time></trkpt><trkpt lat="44.75326" lon="9.3613517"><ele>491.0</ele><time>2026-04-04T14:27:37.601Z</time></trkpt><trkpt lat="44.7532467" lon="9.3614717"><ele>490.99999999999994</ele><time>2026-04-04T14:27:38.6Z</time></trkpt><trkpt lat="44.75323" lon="9.36159"><ele>491.0</ele><time>2026-04-04T14:27:39.6Z</time></trkpt><trkpt lat="44.7532167" lon="9.3616883"><ele>491.0</ele><time>2026-04-04T14:27:40.601Z</time></trkpt><trkpt lat="44.75316" lon="9.3617817"><ele>491.0</ele><time>2026-04-04T14:27:42.6Z</time></trkpt><trkpt lat="44.7530567" lon="9.361745"><ele>490.99999999999994</ele><time>2026-04-04T14:27:44.602Z</time></trkpt><trkpt lat="44.752985" lon="9.3616983"><ele>491.0</ele><time>2026-04-04T14:27:45.6Z</time></trkpt><trkpt lat="44.7529233" lon="9.3616333"><ele>490.99999999999994</ele><time>2026-04-04T14:27:46.602Z</time></trkpt><trkpt lat="44.752875" lon="9.3615583"><ele>491.0</ele><time>2026-04-04T14:27:47.601Z</time></trkpt><trkpt lat="44.7528367" lon="9.36147"><ele>491.0</ele><time>2026-04-04T14:27:48.602Z</time></trkpt><trkpt lat="44.7528067" lon="9.3613683"><ele>491.0</ele><time>2026-04-04T14:27:49.602Z</time></trkpt><trkpt lat="44.7527783" lon="9.3612567"><ele>490.99999999999994</ele><time>2026-04-04T14:27:50.602Z</time></trkpt><trkpt lat="44.752755" lon="9.361145"><ele>491.0</ele><time>2026-04-04T14:27:51.601Z</time></trkpt><trkpt lat="44.752715" lon="9.361045"><ele>486.66666666666663</ele><time>2026-04-04T14:27:52.602Z</time></trkpt><trkpt lat="44.7526583" lon="9.3609567"><ele>482.3333333333333</ele><time>2026-04-04T14:27:53.602Z</time></trkpt><trkpt lat="44.7526017" lon="9.3609083"><ele>478.0</ele><time>2026-04-04T14:27:54.602Z</time></trkpt><trkpt lat="44.7525333" lon="9.3608783"><ele>473.66666666666663</ele><time>2026-04-04T14:27:55.602Z</time></trkpt><trkpt lat="44.752455" lon="9.360875"><ele>469.3333333333333</ele><time>2026-04-04T14:27:56.601Z</time></trkpt><trkpt lat="44.752375" lon="9.360885"><ele>465.0</ele><time>2026-04-04T14:27:57.602Z</time></trkpt><trkpt lat="44.7523033" lon="9.3608983"><ele>465.0</ele><time>2026-04-04T14:27:58.602Z</time></trkpt><trkpt lat="44.75224" lon="9.36092"><ele>465.0</ele><time>2026-04-04T14:27:59.601Z</time></trkpt><trkpt lat="44.7521767" lon="9.3609517"><ele>465.0</ele><time>2026-04-04T14:28:00.602Z</time></trkpt><trkpt lat="44.752115" lon="9.361005"><ele>465.0</ele><time>2026-04-04T14:28:01.602Z</time></trkpt><trkpt lat="44.7520467" lon="9.3610617"><ele>465.0</ele><time>2026-04-04T14:28:02.601Z</time></trkpt><trkpt lat="44.7519683" lon="9.3611117"><ele>465.0</ele><time>2026-04-04T14:28:03.602Z</time></trkpt><trkpt lat="44.75189" lon="9.3611567"><ele>461.6</ele><time>2026-04-04T14:28:04.602Z</time></trkpt><trkpt lat="44.7518217" lon="9.3611917"><ele>458.2</ele><time>2026-04-04T14:28:05.602Z</time></trkpt><trkpt lat="44.751755" lon="9.3612067"><ele>454.79999999999995</ele><time>2026-04-04T14:28:06.602Z</time></trkpt><trkpt lat="44.7516317" lon="9.3612417"><ele>451.4</ele><time>2026-04-04T14:28:08.602Z</time></trkpt><trkpt lat="44.7515217" lon="9.3612733"><ele>448.0</ele><time>2026-04-04T14:28:10.602Z</time></trkpt><trkpt lat="44.7514217" lon="9.3612483"><ele>448.00000000000006</ele><time>2026-04-04T14:28:12.602Z</time></trkpt><trkpt lat="44.7513417" lon="9.36118"><ele>448.0</ele><time>2026-04-04T14:28:14.602Z</time></trkpt><trkpt lat="44.7512983" lon="9.3610917"><ele>448.0</ele><time>2026-04-04T14:28:16.601Z</time></trkpt><trkpt lat="44.75123" lon="9.3610567"><ele>448.0</ele><time>2026-04-04T14:28:19.602Z</time></trkpt><trkpt lat="44.7512" lon="9.3611767"><ele>448.00000000000006</ele><time>2026-04-04T14:28:21.602Z</time></trkpt><trkpt lat="44.7511917" lon="9.3612783"><ele>448.0</ele><time>2026-04-04T14:28:22.602Z</time></trkpt><trkpt lat="44.7511817" lon="9.3613817"><ele>446.57142857142856</ele><time>2026-04-04T14:28:23.602Z</time></trkpt><trkpt lat="44.7511583" lon="9.3614783"><ele>445.1428571428571</ele><time>2026-04-04T14:28:24.602Z</time></trkpt><trkpt lat="44.7511233" lon="9.36156"><ele>443.7142857142857</ele><time>2026-04-04T14:28:25.602Z</time></trkpt><trkpt lat="44.7510767" lon="9.3616433"><ele>442.2857142857143</ele><time>2026-04-04T14:28:26.601Z</time></trkpt><trkpt lat="44.7510183" lon="9.36172"><ele>440.85714285714283</ele><time>2026-04-04T14:28:27.601Z</time></trkpt><trkpt lat="44.7509617" lon="9.3617933"><ele>439.42857142857144</ele><time>2026-04-04T14:28:28.602Z</time></trkpt><trkpt lat="44.7509017" lon="9.36185"><ele>438.0</ele><time>2026-04-04T14:28:29.602Z</time></trkpt><trkpt lat="44.75084" lon="9.3618833"><ele>433.8333333333333</ele><time>2026-04-04T14:28:30.602Z</time></trkpt><trkpt lat="44.7507517" lon="9.36192"><ele>429.66666666666663</ele><time>2026-04-04T14:28:32.601Z</time></trkpt><trkpt lat="44.75072" lon="9.3620133"><ele>425.5</ele><time>2026-04-04T14:28:34.602Z</time></trkpt><trkpt lat="44.7507167" lon="9.3621867"><ele>421.3333333333333</ele><time>2026-04-04T14:28:36.601Z</time></trkpt><trkpt lat="44.75072" lon="9.36229"><ele>417.16666666666663</ele><time>2026-04-04T14:28:37.6Z</time></trkpt><trkpt lat="44.7507233" lon="9.362395"><ele>413.0</ele><time>2026-04-04T14:28:38.6Z</time></trkpt><trkpt lat="44.7507183" lon="9.3624967"><ele>412.2</ele><time>2026-04-04T14:28:39.602Z</time></trkpt><trkpt lat="44.7507017" lon="9.3626567"><ele>411.4</ele><time>2026-04-04T14:28:41.601Z</time></trkpt><trkpt lat="44.7506567" lon="9.3627917"><ele>410.59999999999997</ele><time>2026-04-04T14:28:43.6Z</time></trkpt><trkpt lat="44.75062" lon="9.362925"><ele>409.79999999999995</ele><time>2026-04-04T14:28:45.6Z</time></trkpt><trkpt lat="44.7506517" lon="9.36305"><ele>409.0</ele><time>2026-04-04T14:28:47.602Z</time></trkpt><trkpt lat="44.7506917" lon="9.3632117"><ele>406.50000000000006</ele><time>2026-04-04T14:28:49.602Z</time></trkpt><trkpt lat="44.7507717" lon="9.3633483"><ele>404.0</ele><time>2026-04-04T14:28:51.601Z</time></trkpt><trkpt lat="44.7508333" lon="9.3634"><ele>401.5</ele><time>2026-04-04T14:28:52.602Z</time></trkpt><trkpt lat="44.7509033" lon="9.36342"><ele>399.0</ele><time>2026-04-04T14:28:53.601Z</time></trkpt><trkpt lat="44.75097" lon="9.36345"><ele>396.50000000000006</ele><time>2026-04-04T14:28:54.601Z</time></trkpt><trkpt lat="44.7510267" lon="9.36349"><ele>394.0</ele><time>2026-04-04T14:28:55.601Z</time></trkpt><trkpt lat="44.7511183" lon="9.3635433"><ele>398.2</ele><time>2026-04-04T14:28:57.601Z</time></trkpt><trkpt lat="44.7511717" lon="9.36363"><ele>402.4</ele><time>2026-04-04T14:28:59.602Z</time></trkpt><trkpt lat="44.7512117" lon="9.363825"><ele>406.6</ele><time>2026-04-04T14:29:01.599Z</time></trkpt><trkpt lat="44.75123" lon="9.36393"><ele>410.8</ele><time>2026-04-04T14:29:02.6Z</time></trkpt><trkpt lat="44.751235" lon="9.364045"><ele>415.0</ele><time>2026-04-04T14:29:03.601Z</time></trkpt><trkpt lat="44.751235" lon="9.3641533"><ele>415.00000000000006</ele><time>2026-04-04T14:29:04.6Z</time></trkpt><trkpt lat="44.7512183" lon="9.3642683"><ele>415.0</ele><time>2026-04-04T14:29:05.601Z</time></trkpt><trkpt lat="44.75119" lon="9.3643933"><ele>415.0</ele><time>2026-04-04T14:29:06.601Z</time></trkpt><trkpt lat="44.7511467" lon="9.3645083"><ele>415.0</ele><time>2026-04-04T14:29:07.602Z</time></trkpt><trkpt lat="44.7511017" lon="9.364605"><ele>415.00000000000006</ele><time>2026-04-04T14:29:08.602Z</time></trkpt><trkpt lat="44.7510633" lon="9.3647017"><ele>415.0</ele><time>2026-04-04T14:29:09.602Z</time></trkpt><trkpt lat="44.7510283" lon="9.3648"><ele>410.00000000000006</ele><time>2026-04-04T14:29:10.601Z</time></trkpt><trkpt lat="44.7509833" lon="9.3648867"><ele>405.0</ele><time>2026-04-04T14:29:11.602Z</time></trkpt><trkpt lat="44.7509333" lon="9.3649733"><ele>400.0</ele><time>2026-04-04T14:29:12.602Z</time></trkpt><trkpt lat="44.7508867" lon="9.3650583"><ele>395.0</ele><time>2026-04-04T14:29:13.601Z</time></trkpt><trkpt lat="44.750835" lon="9.3651433"><ele>390.00000000000006</ele><time>2026-04-04T14:29:14.602Z</time></trkpt><trkpt lat="44.7507833" lon="9.3652433"><ele>385.0</ele><time>2026-04-04T14:29:15.602Z</time></trkpt><trkpt lat="44.7507367" lon="9.3653417"><ele>385.00000000000006</ele><time>2026-04-04T14:29:16.602Z</time></trkpt><trkpt lat="44.7506967" lon="9.365435"><ele>385.0</ele><time>2026-04-04T14:29:17.602Z</time></trkpt><trkpt lat="44.7506583" lon="9.3655183"><ele>385.0</ele><time>2026-04-04T14:29:18.601Z</time></trkpt><trkpt lat="44.7506067" lon="9.3656633"><ele>385.0</ele><time>2026-04-04T14:29:20.601Z</time></trkpt><trkpt lat="44.7506017" lon="9.3657717"><ele>385.00000000000006</ele><time>2026-04-04T14:29:22.6Z</time></trkpt><trkpt lat="44.7506617" lon="9.3658283"><ele>385.0</ele><time>2026-04-04T14:29:24.601Z</time></trkpt><trkpt lat="44.7507367" lon="9.3658417"><ele>386.2</ele><time>2026-04-04T14:29:25.601Z</time></trkpt><trkpt lat="44.7508267" lon="9.36585"><ele>387.4</ele><time>2026-04-04T14:29:26.601Z</time></trkpt><trkpt lat="44.7509233" lon="9.365865"><ele>388.6</ele><time>2026-04-04T14:29:27.601Z</time></trkpt><trkpt lat="44.751015" lon="9.365915"><ele>389.8</ele><time>2026-04-04T14:29:28.6Z</time></trkpt><trkpt lat="44.7511083" lon="9.3660167"><ele>391.0</ele><time>2026-04-04T14:29:29.6Z</time></trkpt><trkpt lat="44.7511883" lon="9.3661433"><ele>391.0</ele><time>2026-04-04T14:29:30.601Z</time></trkpt><trkpt lat="44.751255" lon="9.3662733"><ele>391.0</ele><time>2026-04-04T14:29:31.602Z</time></trkpt><trkpt lat="44.7512983" lon="9.3663967"><ele>391.0</ele><time>2026-04-04T14:29:32.601Z</time></trkpt><trkpt lat="44.75132" lon="9.3665283"><ele>391.0</ele><time>2026-04-04T14:29:33.601Z</time></trkpt><trkpt lat="44.7513267" lon="9.3666567"><ele>391.0</ele><time>2026-04-04T14:29:34.6Z</time></trkpt><trkpt lat="44.75134" lon="9.366785"><ele>388.6</ele><time>2026-04-04T14:29:35.602Z</time></trkpt><trkpt lat="44.75137" lon="9.3669083"><ele>386.20000000000005</ele><time>2026-04-04T14:29:36.601Z</time></trkpt><trkpt lat="44.7514167" lon="9.3670217"><ele>383.79999999999995</ele><time>2026-04-04T14:29:37.601Z</time></trkpt><trkpt lat="44.7514917" lon="9.3671183"><ele>381.4</ele><time>2026-04-04T14:29:38.602Z</time></trkpt><trkpt lat="44.7515767" lon="9.3671733"><ele>379.0</ele><time>2026-04-04T14:29:39.6Z</time></trkpt><trkpt lat="44.751655" lon="9.3672083"><ele>377.79999999999995</ele><time>2026-04-04T14:29:40.602Z</time></trkpt><trkpt lat="44.7517183" lon="9.3672383"><ele>376.59999999999997</ele><time>2026-04-04T14:29:41.601Z</time></trkpt><trkpt lat="44.7517883" lon="9.3673333"><ele>375.4</ele><time>2026-04-04T14:30:39.6Z</time></trkpt><trkpt lat="44.7518183" lon="9.3674217"><ele>374.2</ele><time>2026-04-04T14:30:40.601Z</time></trkpt><trkpt lat="44.7518583" lon="9.367565"><ele>373.0</ele><time>2026-04-04T14:30:41.601Z</time></trkpt><trkpt lat="44.7518917" lon="9.36772"><ele>371.4</ele><time>2026-04-04T14:30:42.601Z</time></trkpt><trkpt lat="44.75191" lon="9.3678683"><ele>369.79999999999995</ele><time>2026-04-04T14:30:43.6Z</time></trkpt><trkpt lat="44.7519033" lon="9.3680083"><ele>368.2</ele><time>2026-04-04T14:30:44.601Z</time></trkpt><trkpt lat="44.7518733" lon="9.3681583"><ele>366.6</ele><time>2026-04-04T14:30:45.601Z</time></trkpt><trkpt lat="44.751825" lon="9.36832"><ele>365.0</ele><time>2026-04-04T14:30:46.6Z</time></trkpt><trkpt lat="44.7517717" lon="9.3684833"><ele>365.0</ele><time>2026-04-04T14:30:47.6Z</time></trkpt><trkpt lat="44.7517283" lon="9.3686417"><ele>365.0</ele><time>2026-04-04T14:30:48.601Z</time></trkpt><trkpt lat="44.7517" lon="9.3688183"><ele>365.0</ele><time>2026-04-04T14:30:49.601Z</time></trkpt><trkpt lat="44.751685" lon="9.36901"><ele>365.0</ele><time>2026-04-04T14:30:50.601Z</time></trkpt><trkpt lat="44.7516767" lon="9.3692017"><ele>363.25</ele><time>2026-04-04T14:30:51.601Z</time></trkpt><trkpt lat="44.751675" lon="9.3693933"><ele>361.5</ele><time>2026-04-04T14:30:52.601Z</time></trkpt><trkpt lat="44.7516783" lon="9.3695867"><ele>359.75</ele><time>2026-04-04T14:30:53.601Z</time></trkpt><trkpt lat="44.751685" lon="9.3697817"><ele>358.0</ele><time>2026-04-04T14:30:54.601Z</time></trkpt><trkpt lat="44.7516933" lon="9.3699917"><ele>353.66666666666663</ele><time>2026-04-04T14:30:55.6Z</time></trkpt><trkpt lat="44.7517083" lon="9.3702167"><ele>349.3333333333333</ele><time>2026-04-04T14:30:56.6Z</time></trkpt><trkpt lat="44.7517217" lon="9.3704367"><ele>345.0</ele><time>2026-04-04T14:30:57.6Z</time></trkpt><trkpt lat="44.75174" lon="9.370635"><ele>347.75</ele><time>2026-04-04T14:30:58.601Z</time></trkpt><trkpt lat="44.75177" lon="9.3708133"><ele>350.5</ele><time>2026-04-04T14:30:59.601Z</time></trkpt><trkpt lat="44.7518217" lon="9.3709767"><ele>353.25</ele><time>2026-04-04T14:31:00.601Z</time></trkpt><trkpt lat="44.7518633" lon="9.3711383"><ele>356.0</ele><time>2026-04-04T14:31:01.601Z</time></trkpt><trkpt lat="44.7518767" lon="9.3713017"><ele>351.0</ele><time>2026-04-04T14:31:02.601Z</time></trkpt><trkpt lat="44.751875" lon="9.3714617"><ele>346.0</ele><time>2026-04-04T14:31:03.602Z</time></trkpt><trkpt lat="44.7518833" lon="9.37161"><ele>341.0</ele><time>2026-04-04T14:31:04.6Z</time></trkpt><trkpt lat="44.7519167" lon="9.3717367"><ele>336.0</ele><time>2026-04-04T14:31:05.602Z</time></trkpt><trkpt lat="44.7519767" lon="9.3718383"><ele>331.0</ele><time>2026-04-04T14:31:06.6Z</time></trkpt><trkpt lat="44.7520533" lon="9.3719433"><ele>331.0</ele><time>2026-04-04T14:31:07.601Z</time></trkpt><trkpt lat="44.7521267" lon="9.3720617"><ele>331.0</ele><time>2026-04-04T14:31:08.601Z</time></trkpt><trkpt lat="44.75219" lon="9.37221"><ele>331.0</ele><time>2026-04-04T14:31:09.6Z</time></trkpt><trkpt lat="44.7522467" lon="9.3723717"><ele>331.0</ele><time>2026-04-04T14:31:10.601Z</time></trkpt><trkpt lat="44.7522967" lon="9.37254"><ele>326.5</ele><time>2026-04-04T14:31:11.601Z</time></trkpt><trkpt lat="44.7523433" lon="9.3727117"><ele>322.0</ele><time>2026-04-04T14:31:12.601Z</time></trkpt><trkpt lat="44.7523867" lon="9.3728817"><ele>317.5</ele><time>2026-04-04T14:31:13.6Z</time></trkpt><trkpt lat="44.7524383" lon="9.3730383"><ele>313.0</ele><time>2026-04-04T14:31:14.601Z</time></trkpt><trkpt lat="44.75249" lon="9.3731917"><ele>311.75</ele><time>2026-04-04T14:31:15.6Z</time></trkpt><trkpt lat="44.7525383" lon="9.3733317"><ele>310.5</ele><time>2026-04-04T14:31:16.601Z</time></trkpt><trkpt lat="44.7525917" lon="9.3734667"><ele>309.25</ele><time>2026-04-04T14:31:17.6Z</time></trkpt><trkpt lat="44.7526583" lon="9.3736067"><ele>308.0</ele><time>2026-04-04T14:31:18.601Z</time></trkpt><trkpt lat="44.7527433" lon="9.373765"><ele>305.6666666666667</ele><time>2026-04-04T14:31:19.601Z</time></trkpt><trkpt lat="44.75284" lon="9.3739417"><ele>303.3333333333333</ele><time>2026-04-04T14:31:20.603Z</time></trkpt><trkpt lat="44.7529467" lon="9.374125"><ele>301.0</ele><time>2026-04-04T14:31:21.601Z</time></trkpt><trkpt lat="44.75306" lon="9.3743017"><ele>301.0</ele><time>2026-04-04T14:31:22.601Z</time></trkpt><trkpt lat="44.7531833" lon="9.3744733"><ele>301.0</ele><time>2026-04-04T14:31:23.6Z</time></trkpt><trkpt lat="44.753305" lon="9.3746267"><ele>301.0</ele><time>2026-04-04T14:31:24.601Z</time></trkpt><trkpt lat="44.7534267" lon="9.3747667"><ele>300.3333333333333</ele><time>2026-04-04T14:31:25.601Z</time></trkpt><trkpt lat="44.753565" lon="9.3749017"><ele>299.6666666666667</ele><time>2026-04-04T14:31:26.601Z</time></trkpt><trkpt lat="44.7537183" lon="9.37504"><ele>299.0</ele><time>2026-04-04T14:31:27.6Z</time></trkpt><trkpt lat="44.75388" lon="9.3751867"><ele>299.0</ele><time>2026-04-04T14:31:28.601Z</time></trkpt><trkpt lat="44.7540317" lon="9.3753367"><ele>299.0</ele><time>2026-04-04T14:31:29.601Z</time></trkpt><trkpt lat="44.7541667" lon="9.37549"><ele>299.0</ele><time>2026-04-04T14:31:30.6Z</time></trkpt><trkpt lat="44.754295" lon="9.3756383"><ele>298.6666666666667</ele><time>2026-04-04T14:31:31.602Z</time></trkpt><trkpt lat="44.7544267" lon="9.37578"><ele>298.3333333333333</ele><time>2026-04-04T14:31:32.6Z</time></trkpt><trkpt lat="44.7545567" lon="9.375905"><ele>298.0</ele><time>2026-04-04T14:31:33.601Z</time></trkpt><trkpt lat="44.7546867" lon="9.3760167"><ele>298.0</ele><time>2026-04-04T14:31:34.601Z</time></trkpt><trkpt lat="44.754815" lon="9.37612"><ele>298.0</ele><time>2026-04-04T14:31:35.601Z</time></trkpt><trkpt lat="44.754935" lon="9.3762267"><ele>298.0</ele><time>2026-04-04T14:31:36.601Z</time></trkpt><trkpt lat="44.755045" lon="9.37634"><ele>298.0</ele><time>2026-04-04T14:31:37.602Z</time></trkpt><trkpt lat="44.7551433" lon="9.3764517"><ele>297.8</ele><time>2026-04-04T14:31:38.601Z</time></trkpt><trkpt lat="44.7552233" lon="9.3765483"><ele>297.6</ele><time>2026-04-04T14:31:39.601Z</time></trkpt><trkpt lat="44.7552767" lon="9.37664"><ele>297.4</ele><time>2026-04-04T14:31:40.602Z</time></trkpt><trkpt lat="44.7553" lon="9.3767367"><ele>297.2</ele><time>2026-04-04T14:31:41.601Z</time></trkpt><trkpt lat="44.7552983" lon="9.37685"><ele>297.0</ele><time>2026-04-04T14:31:42.6Z</time></trkpt><trkpt lat="44.75528" lon="9.3770033"><ele>295.25</ele><time>2026-04-04T14:31:43.6Z</time></trkpt><trkpt lat="44.7552717" lon="9.3771883"><ele>293.5</ele><time>2026-04-04T14:31:44.601Z</time></trkpt><trkpt lat="44.7552783" lon="9.37739"><ele>291.75</ele><time>2026-04-04T14:31:45.599Z</time></trkpt><trkpt lat="44.75531" lon="9.3775867"><ele>290.0</ele><time>2026-04-04T14:31:46.601Z</time></trkpt><trkpt lat="44.755355" lon="9.377775"><ele>290.0</ele><time>2026-04-04T14:31:47.601Z</time></trkpt><trkpt lat="44.7554083" lon="9.377945"><ele>290.0</ele><time>2026-04-04T14:31:48.601Z</time></trkpt><trkpt lat="44.75546" lon="9.3781"><ele>290.0</ele><time>2026-04-04T14:31:49.601Z</time></trkpt><trkpt lat="44.7555" lon="9.3782517"><ele>290.0</ele><time>2026-04-04T14:31:50.601Z</time></trkpt><trkpt lat="44.7555267" lon="9.378415"><ele>289.0</ele><time>2026-04-04T14:31:51.601Z</time></trkpt><trkpt lat="44.7555367" lon="9.3785917"><ele>288.0</ele><time>2026-04-04T14:31:52.601Z</time></trkpt><trkpt lat="44.7555383" lon="9.378765"><ele>287.0</ele><time>2026-04-04T14:31:53.601Z</time></trkpt><trkpt lat="44.7555433" lon="9.3789217"><ele>286.0</ele><time>2026-04-04T14:31:54.6Z</time></trkpt><trkpt lat="44.7555717" lon="9.3790583"><ele>285.5</ele><time>2026-04-04T14:31:55.6Z</time></trkpt><trkpt lat="44.7556367" lon="9.3791833"><ele>285.0</ele><time>2026-04-04T14:31:56.601Z</time></trkpt><trkpt lat="44.7557317" lon="9.379315"><ele>284.5</ele><time>2026-04-04T14:31:57.599Z</time></trkpt><trkpt lat="44.7558333" lon="9.37946"><ele>284.0</ele><time>2026-04-04T14:31:58.6Z</time></trkpt><trkpt lat="44.75593" lon="9.3796017"><ele>284.0</ele><time>2026-04-04T14:31:59.6Z</time></trkpt><trkpt lat="44.75603" lon="9.37973"><ele>284.0</ele><time>2026-04-04T14:32:00.6Z</time></trkpt><trkpt lat="44.7561333" lon="9.379835"><ele>284.0</ele><time>2026-04-04T14:32:01.601Z</time></trkpt><trkpt lat="44.7562583" lon="9.3799267"><ele>284.0</ele><time>2026-04-04T14:32:02.601Z</time></trkpt><trkpt lat="44.7563883" lon="9.3800083"><ele>284.0</ele><time>2026-04-04T14:32:03.6Z</time></trkpt><trkpt lat="44.7565183" lon="9.3800833"><ele>284.0</ele><time>2026-04-04T14:32:04.602Z</time></trkpt><trkpt lat="44.75664" lon="9.380155"><ele>284.0</ele><time>2026-04-04T14:32:05.601Z</time></trkpt><trkpt lat="44.75675" lon="9.380225"><ele>284.0</ele><time>2026-04-04T14:32:06.602Z</time></trkpt><trkpt lat="44.75685" lon="9.3802967"><ele>284.2</ele><time>2026-04-04T14:32:07.602Z</time></trkpt><trkpt lat="44.7569433" lon="9.380365"><ele>284.4</ele><time>2026-04-04T14:32:08.602Z</time></trkpt><trkpt lat="44.7570267" lon="9.3804233"><ele>284.6</ele><time>2026-04-04T14:32:09.601Z</time></trkpt><trkpt lat="44.75711" lon="9.380485"><ele>284.8</ele><time>2026-04-04T14:32:10.602Z</time></trkpt><trkpt lat="44.7571967" lon="9.38055"><ele>285.0</ele><time>2026-04-04T14:32:11.602Z</time></trkpt><trkpt lat="44.7573017" lon="9.3806267"><ele>283.5</ele><time>2026-04-04T14:32:12.602Z</time></trkpt><trkpt lat="44.7574183" lon="9.3807017"><ele>282.0</ele><time>2026-04-04T14:32:13.602Z</time></trkpt><trkpt lat="44.757545" lon="9.3807667"><ele>280.5</ele><time>2026-04-04T14:32:14.602Z</time></trkpt><trkpt lat="44.7576733" lon="9.3808167"><ele>279.0</ele><time>2026-04-04T14:32:15.601Z</time></trkpt><trkpt lat="44.7578017" lon="9.380855"><ele>278.75</ele><time>2026-04-04T14:32:16.601Z</time></trkpt><trkpt lat="44.7579233" lon="9.3808883"><ele>278.5</ele><time>2026-04-04T14:32:17.601Z</time></trkpt><trkpt lat="44.7580367" lon="9.3809233"><ele>278.25</ele><time>2026-04-04T14:32:18.601Z</time></trkpt><trkpt lat="44.7581517" lon="9.38097"><ele>278.0</ele><time>2026-04-04T14:32:19.601Z</time></trkpt><trkpt lat="44.7582667" lon="9.3810233"><ele>278.0</ele><time>2026-04-04T14:32:20.601Z</time></trkpt><trkpt lat="44.75839" lon="9.3810733"><ele>278.0</ele><time>2026-04-04T14:32:21.601Z</time></trkpt><trkpt lat="44.7585283" lon="9.3811133"><ele>278.0</ele><time>2026-04-04T14:32:22.6Z</time></trkpt><trkpt lat="44.7586767" lon="9.3811583"><ele>278.0</ele><time>2026-04-04T14:32:23.601Z</time></trkpt><trkpt lat="44.75882" lon="9.3812017"><ele>278.25</ele><time>2026-04-04T14:32:24.601Z</time></trkpt><trkpt lat="44.7589567" lon="9.3812417"><ele>278.5</ele><time>2026-04-04T14:32:25.601Z</time></trkpt><trkpt lat="44.75909" lon="9.3812767"><ele>278.75</ele><time>2026-04-04T14:32:26.601Z</time></trkpt><trkpt lat="44.75922" lon="9.3813133"><ele>279.0</ele><time>2026-04-04T14:32:27.6Z</time></trkpt><trkpt lat="44.7593483" lon="9.3813467"><ele>276.4</ele><time>2026-04-04T14:32:28.601Z</time></trkpt><trkpt lat="44.7594583" lon="9.3813783"><ele>273.79999999999995</ele><time>2026-04-04T14:32:29.601Z</time></trkpt><trkpt lat="44.7595467" lon="9.3814033"><ele>271.20000000000005</ele><time>2026-04-04T14:32:30.6Z</time></trkpt><trkpt lat="44.7596133" lon="9.3814267"><ele>268.6</ele><time>2026-04-04T14:32:31.602Z</time></trkpt><trkpt lat="44.75969" lon="9.3814683"><ele>266.0</ele><time>2026-04-04T14:32:33.601Z</time></trkpt><trkpt lat="44.7596417" lon="9.3816033"><ele>266.0</ele><time>2026-04-04T14:33:31.6Z</time></trkpt><trkpt lat="44.7595783" lon="9.3816233"><ele>266.0</ele><time>2026-04-04T14:33:32.6Z</time></trkpt><trkpt lat="44.7594917" lon="9.381635"><ele>266.0</ele><time>2026-04-04T14:33:33.6Z</time></trkpt><trkpt lat="44.7594017" lon="9.38165"><ele>266.0</ele><time>2026-04-04T14:33:34.601Z</time></trkpt><trkpt lat="44.759315" lon="9.3816633"><ele>266.0</ele><time>2026-04-04T14:33:35.601Z</time></trkpt><trkpt lat="44.759235" lon="9.3816783"><ele>266.0</ele><time>2026-04-04T14:33:36.599Z</time></trkpt><trkpt lat="44.75916" lon="9.381695"><ele>266.0</ele><time>2026-04-04T14:33:37.6Z</time></trkpt><trkpt lat="44.7590967" lon="9.38171"><ele>266.0</ele><time>2026-04-04T14:33:38.6Z</time></trkpt><trkpt lat="44.7589967" lon="9.381735"><ele>266.0</ele><time>2026-04-04T14:33:40.6Z</time></trkpt><trkpt lat="44.7589233" lon="9.381745"><ele>266.0</ele><time>2026-04-04T14:33:42.599Z</time></trkpt><trkpt lat="44.758855" lon="9.3817617"><ele>266.0</ele><time>2026-04-04T14:33:44.601Z</time></trkpt><trkpt lat="44.75878" lon="9.38186"><ele>266.0</ele><time>2026-04-04T14:33:46.6Z</time></trkpt><trkpt lat="44.7587583" lon="9.3819467"><ele>266.0</ele><time>2026-04-04T14:33:47.601Z</time></trkpt><trkpt lat="44.758755" lon="9.3820417"><ele>266.0</ele><time>2026-04-04T14:33:48.599Z</time></trkpt><trkpt lat="44.75876" lon="9.3821317"><ele>266.0</ele><time>2026-04-04T14:33:49.601Z</time></trkpt><trkpt lat="44.75877" lon="9.38223"><ele>266.0</ele><time>2026-04-04T14:33:50.601Z</time></trkpt><trkpt lat="44.7587833" lon="9.382345"><ele>266.0</ele><time>2026-04-04T14:33:51.6Z</time></trkpt><trkpt lat="44.7587967" lon="9.382475"><ele>266.0</ele><time>2026-04-04T14:33:52.6Z</time></trkpt><trkpt lat="44.75881" lon="9.3826067"><ele>265.2</ele><time>2026-04-04T14:33:53.6Z</time></trkpt><trkpt lat="44.758825" lon="9.3827383"><ele>264.40000000000003</ele><time>2026-04-04T14:33:54.6Z</time></trkpt><trkpt lat="44.75884" lon="9.3828733"><ele>263.6</ele><time>2026-04-04T14:33:55.601Z</time></trkpt><trkpt lat="44.758855" lon="9.38301"><ele>262.8</ele><time>2026-04-04T14:33:56.601Z</time></trkpt><trkpt lat="44.7588683" lon="9.3831317"><ele>262.0</ele><time>2026-04-04T14:33:57.6Z</time></trkpt><trkpt lat="44.758875" lon="9.383245"><ele>261.8333333333333</ele><time>2026-04-04T14:33:58.6Z</time></trkpt><trkpt lat="44.75887" lon="9.38335"><ele>261.66666666666663</ele><time>2026-04-04T14:33:59.602Z</time></trkpt><trkpt lat="44.7588483" lon="9.3834467"><ele>261.5</ele><time>2026-04-04T14:34:00.601Z</time></trkpt><trkpt lat="44.7588067" lon="9.3835133"><ele>261.3333333333333</ele><time>2026-04-04T14:34:01.6Z</time></trkpt><trkpt lat="44.75867" lon="9.3835267"><ele>261.1666666666667</ele><time>2026-04-04T14:34:03.6Z</time></trkpt><trkpt lat="44.7585867" lon="9.3835017"><ele>261.0</ele><time>2026-04-04T14:34:04.6Z</time></trkpt><trkpt lat="44.7584967" lon="9.3834717"><ele>261.0</ele><time>2026-04-04T14:34:05.601Z</time></trkpt><trkpt lat="44.758405" lon="9.3834417"><ele>261.0</ele><time>2026-04-04T14:34:06.6Z</time></trkpt><trkpt lat="44.75832" lon="9.3834133"><ele>261.0</ele><time>2026-04-04T14:34:07.6Z</time></trkpt><trkpt lat="44.7582383" lon="9.3833867"><ele>261.0</ele><time>2026-04-04T14:34:08.601Z</time></trkpt><trkpt lat="44.75816" lon="9.3833683"><ele>261.0</ele><time>2026-04-04T14:34:09.6Z</time></trkpt><trkpt lat="44.7580833" lon="9.3833517"><ele>261.0</ele><time>2026-04-04T14:34:10.599Z</time></trkpt><trkpt lat="44.758005" lon="9.3833233"><ele>261.0</ele><time>2026-04-04T14:34:11.599Z</time></trkpt><trkpt lat="44.7579183" lon="9.3832817"><ele>261.0</ele><time>2026-04-04T14:34:12.599Z</time></trkpt><trkpt lat="44.7578167" lon="9.3832283"><ele>261.0</ele><time>2026-04-04T14:34:13.601Z</time></trkpt><trkpt lat="44.7577017" lon="9.3831767"><ele>261.0</ele><time>2026-04-04T14:34:14.601Z</time></trkpt><trkpt lat="44.757585" lon="9.3831267"><ele>261.0</ele><time>2026-04-04T14:34:15.6Z</time></trkpt><trkpt lat="44.757465" lon="9.3830783"><ele>260.75</ele><time>2026-04-04T14:34:16.6Z</time></trkpt><trkpt lat="44.75734" lon="9.3830317"><ele>260.5</ele><time>2026-04-04T14:34:17.601Z</time></trkpt><trkpt lat="44.75721" lon="9.38299"><ele>260.25</ele><time>2026-04-04T14:34:18.6Z</time></trkpt><trkpt lat="44.7570783" lon="9.3829517"><ele>260.0</ele><time>2026-04-04T14:34:19.6Z</time></trkpt><trkpt lat="44.7569517" lon="9.3829217"><ele>261.0</ele><time>2026-04-04T14:34:20.6Z</time></trkpt><trkpt lat="44.756835" lon="9.3828933"><ele>262.0</ele><time>2026-04-04T14:34:21.599Z</time></trkpt><trkpt lat="44.756735" lon="9.3828633"><ele>263.0</ele><time>2026-04-04T14:34:22.601Z</time></trkpt><trkpt lat="44.756655" lon="9.3828267"><ele>264.0</ele><time>2026-04-04T14:34:23.6Z</time></trkpt><trkpt lat="44.7565833" lon="9.3827867"><ele>265.0</ele><time>2026-04-04T14:34:24.6Z</time></trkpt><trkpt lat="44.75652" lon="9.3827483"><ele>265.0</ele><time>2026-04-04T14:34:25.601Z</time></trkpt><trkpt lat="44.7564267" lon="9.382685"><ele>265.0</ele><time>2026-04-04T14:34:27.601Z</time></trkpt><trkpt lat="44.7563867" lon="9.3826117"><ele>265.0</ele><time>2026-04-04T14:34:29.599Z</time></trkpt></trkseg></trk></gpx>